<?xml version="1.0" encoding="UTF-8"?>
<gpx version="1.1" creator="https://www.youtrack.es" xsi:schemaLocation="http://www.topografix.com/GPX/1/1 http://www.topografix.com/GPX/1/1/gpx.xsd http://www.garmin.com/xmlschemas/GpxExtensions/v3 http://www.garmin.com/xmlschemas/GpxExtensionsv3.xsd http://www.garmin.com/xmlschemas/TrackPointExtension/v1 http://www.garmin.com/xmlschemas/TrackPointExtensionv1.xsd" xmlns:gpxtpx="http://www.garmin.com/xmlschemas/TrackPointExtension/v1" xmlns:gpxx="http://www.garmin.com/xmlschemas/GpxExtensions/v3" xmlns:xsi="http://www.w3.org/2001/XMLSchema-instance">
  <metadata>
    <link href="https://www.youtrack.es">
      <text>YouTrack.es</text>
    </link>
    <time>2026-05-08T23:25:42Z</time>
  </metadata>
  <trk>
    <src>https://www.youtrack.es</src>
    <link href="https://www.youtrack.es/ruta/14647-3000-ibones-completa-3">
      <text>YouTrack.es</text>
    </link>
    <trkseg>
      <trkpt lat="42.762482" lon="-0.233481">
        <ele>1647.088</ele>
        <time>2020-07-18T05:23:44Z</time>
      </trkpt>
      <trkpt lat="42.762492" lon="-0.233306">
        <ele>1640.824</ele>
        <time>2020-07-18T05:23:48Z</time>
      </trkpt>
      <trkpt lat="42.762507" lon="-0.233162">
        <ele>1641.026</ele>
        <time>2020-07-18T05:23:52Z</time>
      </trkpt>
      <trkpt lat="42.762531" lon="-0.233036">
        <ele>1641.208</ele>
        <time>2020-07-18T05:23:57Z</time>
      </trkpt>
      <trkpt lat="42.762571" lon="-0.232968">
        <ele>1641.893</ele>
        <time>2020-07-18T05:24:02Z</time>
      </trkpt>
      <trkpt lat="42.762622" lon="-0.232947">
        <ele>1640.951</ele>
        <time>2020-07-18T05:24:17Z</time>
      </trkpt>
      <trkpt lat="42.762644" lon="-0.232899">
        <ele>1641.224</ele>
        <time>2020-07-18T05:24:31Z</time>
      </trkpt>
      <trkpt lat="42.762692" lon="-0.232899">
        <ele>1641.230</ele>
        <time>2020-07-18T05:24:44Z</time>
      </trkpt>
      <trkpt lat="42.762737" lon="-0.232910">
        <ele>1643.987</ele>
        <time>2020-07-18T05:25:14Z</time>
      </trkpt>
      <trkpt lat="42.762791" lon="-0.232894">
        <ele>1646.226</ele>
        <time>2020-07-18T05:25:21Z</time>
      </trkpt>
      <trkpt lat="42.762839" lon="-0.232871">
        <ele>1646.683</ele>
        <time>2020-07-18T05:25:27Z</time>
      </trkpt>
      <trkpt lat="42.762831" lon="-0.232806">
        <ele>1647.055</ele>
        <time>2020-07-18T05:25:33Z</time>
      </trkpt>
      <trkpt lat="42.762799" lon="-0.232751">
        <ele>1647.663</ele>
        <time>2020-07-18T05:25:40Z</time>
      </trkpt>
      <trkpt lat="42.762790" lon="-0.232689">
        <ele>1644.844</ele>
        <time>2020-07-18T05:25:47Z</time>
      </trkpt>
      <trkpt lat="42.762782" lon="-0.232622">
        <ele>1647.718</ele>
        <time>2020-07-18T05:26:00Z</time>
      </trkpt>
      <trkpt lat="42.762740" lon="-0.232588">
        <ele>1652.508</ele>
        <time>2020-07-18T05:26:06Z</time>
      </trkpt>
      <trkpt lat="42.762693" lon="-0.232555">
        <ele>1653.811</ele>
        <time>2020-07-18T05:26:13Z</time>
      </trkpt>
      <trkpt lat="42.762648" lon="-0.232522">
        <ele>1653.019</ele>
        <time>2020-07-18T05:26:20Z</time>
      </trkpt>
      <trkpt lat="42.762616" lon="-0.232478">
        <ele>1656.052</ele>
        <time>2020-07-18T05:26:29Z</time>
      </trkpt>
      <trkpt lat="42.762596" lon="-0.232416">
        <ele>1656.868</ele>
        <time>2020-07-18T05:26:42Z</time>
      </trkpt>
      <trkpt lat="42.762580" lon="-0.232356">
        <ele>1659.025</ele>
        <time>2020-07-18T05:26:52Z</time>
      </trkpt>
      <trkpt lat="42.762556" lon="-0.232286">
        <ele>1656.424</ele>
        <time>2020-07-18T05:26:59Z</time>
      </trkpt>
      <trkpt lat="42.762598" lon="-0.232257">
        <ele>1661.481</ele>
        <time>2020-07-18T05:27:15Z</time>
      </trkpt>
      <trkpt lat="42.762643" lon="-0.232285">
        <ele>1661.363</ele>
        <time>2020-07-18T05:27:22Z</time>
      </trkpt>
      <trkpt lat="42.762679" lon="-0.232323">
        <ele>1658.865</ele>
        <time>2020-07-18T05:27:28Z</time>
      </trkpt>
      <trkpt lat="42.762724" lon="-0.232356">
        <ele>1660.768</ele>
        <time>2020-07-18T05:27:34Z</time>
      </trkpt>
      <trkpt lat="42.762770" lon="-0.232387">
        <ele>1664.614</ele>
        <time>2020-07-18T05:27:42Z</time>
      </trkpt>
      <trkpt lat="42.762808" lon="-0.232425">
        <ele>1667.408</ele>
        <time>2020-07-18T05:27:50Z</time>
      </trkpt>
      <trkpt lat="42.762853" lon="-0.232444">
        <ele>1667.831</ele>
        <time>2020-07-18T05:27:59Z</time>
      </trkpt>
      <trkpt lat="42.762904" lon="-0.232429">
        <ele>1667.959</ele>
        <time>2020-07-18T05:28:08Z</time>
      </trkpt>
      <trkpt lat="42.762951" lon="-0.232429">
        <ele>1666.872</ele>
        <time>2020-07-18T05:28:17Z</time>
      </trkpt>
      <trkpt lat="42.762982" lon="-0.232471">
        <ele>1671.428</ele>
        <time>2020-07-18T05:28:25Z</time>
      </trkpt>
      <trkpt lat="42.763014" lon="-0.232522">
        <ele>1672.595</ele>
        <time>2020-07-18T05:28:33Z</time>
      </trkpt>
      <trkpt lat="42.763061" lon="-0.232520">
        <ele>1671.624</ele>
        <time>2020-07-18T05:30:05Z</time>
      </trkpt>
      <trkpt lat="42.763112" lon="-0.232514">
        <ele>1677.111</ele>
        <time>2020-07-18T05:30:10Z</time>
      </trkpt>
      <trkpt lat="42.763168" lon="-0.232503">
        <ele>1675.643</ele>
        <time>2020-07-18T05:30:18Z</time>
      </trkpt>
      <trkpt lat="42.763213" lon="-0.232487">
        <ele>1678.651</ele>
        <time>2020-07-18T05:30:24Z</time>
      </trkpt>
      <trkpt lat="42.763238" lon="-0.232434">
        <ele>1680.201</ele>
        <time>2020-07-18T05:30:32Z</time>
      </trkpt>
      <trkpt lat="42.763201" lon="-0.232377">
        <ele>1681.111</ele>
        <time>2020-07-18T05:30:38Z</time>
      </trkpt>
      <trkpt lat="42.763160" lon="-0.232348">
        <ele>1679.508</ele>
        <time>2020-07-18T05:30:44Z</time>
      </trkpt>
      <trkpt lat="42.763109" lon="-0.232328">
        <ele>1682.510</ele>
        <time>2020-07-18T05:30:49Z</time>
      </trkpt>
      <trkpt lat="42.763063" lon="-0.232307">
        <ele>1679.718</ele>
        <time>2020-07-18T05:30:56Z</time>
      </trkpt>
      <trkpt lat="42.763021" lon="-0.232271">
        <ele>1681.171</ele>
        <time>2020-07-18T05:31:06Z</time>
      </trkpt>
      <trkpt lat="42.763062" lon="-0.232242">
        <ele>1687.367</ele>
        <time>2020-07-18T05:32:02Z</time>
      </trkpt>
      <trkpt lat="42.763115" lon="-0.232255">
        <ele>1684.894</ele>
        <time>2020-07-18T05:32:07Z</time>
      </trkpt>
      <trkpt lat="42.763176" lon="-0.232273">
        <ele>1688.723</ele>
        <time>2020-07-18T05:32:12Z</time>
      </trkpt>
      <trkpt lat="42.763226" lon="-0.232296">
        <ele>1688.150</ele>
        <time>2020-07-18T05:32:17Z</time>
      </trkpt>
      <trkpt lat="42.763269" lon="-0.232327">
        <ele>1689.272</ele>
        <time>2020-07-18T05:32:24Z</time>
      </trkpt>
      <trkpt lat="42.763314" lon="-0.232367">
        <ele>1689.625</ele>
        <time>2020-07-18T05:32:31Z</time>
      </trkpt>
      <trkpt lat="42.763347" lon="-0.232425">
        <ele>1688.926</ele>
        <time>2020-07-18T05:32:39Z</time>
      </trkpt>
      <trkpt lat="42.763378" lon="-0.232469">
        <ele>1693.708</ele>
        <time>2020-07-18T05:32:48Z</time>
      </trkpt>
      <trkpt lat="42.763402" lon="-0.232524">
        <ele>1696.108</ele>
        <time>2020-07-18T05:32:58Z</time>
      </trkpt>
      <trkpt lat="42.763447" lon="-0.232515">
        <ele>1696.257</ele>
        <time>2020-07-18T05:33:07Z</time>
      </trkpt>
      <trkpt lat="42.763430" lon="-0.232454">
        <ele>1695.735</ele>
        <time>2020-07-18T05:33:21Z</time>
      </trkpt>
      <trkpt lat="42.763394" lon="-0.232404">
        <ele>1696.938</ele>
        <time>2020-07-18T05:33:56Z</time>
      </trkpt>
      <trkpt lat="42.763365" lon="-0.232347">
        <ele>1699.044</ele>
        <time>2020-07-18T05:34:12Z</time>
      </trkpt>
      <trkpt lat="42.763338" lon="-0.232288">
        <ele>1699.241</ele>
        <time>2020-07-18T05:34:21Z</time>
      </trkpt>
      <trkpt lat="42.763311" lon="-0.232233">
        <ele>1702.030</ele>
        <time>2020-07-18T05:34:28Z</time>
      </trkpt>
      <trkpt lat="42.763276" lon="-0.232192">
        <ele>1702.827</ele>
        <time>2020-07-18T05:34:37Z</time>
      </trkpt>
      <trkpt lat="42.763252" lon="-0.232137">
        <ele>1703.229</ele>
        <time>2020-07-18T05:34:48Z</time>
      </trkpt>
      <trkpt lat="42.763253" lon="-0.232069">
        <ele>1702.633</ele>
        <time>2020-07-18T05:35:02Z</time>
      </trkpt>
      <trkpt lat="42.763301" lon="-0.232082">
        <ele>1704.523</ele>
        <time>2020-07-18T05:35:26Z</time>
      </trkpt>
      <trkpt lat="42.763337" lon="-0.232133">
        <ele>1706.115</ele>
        <time>2020-07-18T05:35:32Z</time>
      </trkpt>
      <trkpt lat="42.763366" lon="-0.232186">
        <ele>1706.708</ele>
        <time>2020-07-18T05:35:39Z</time>
      </trkpt>
      <trkpt lat="42.763415" lon="-0.232203">
        <ele>1708.368</ele>
        <time>2020-07-18T05:36:20Z</time>
      </trkpt>
      <trkpt lat="42.763447" lon="-0.232256">
        <ele>1710.516</ele>
        <time>2020-07-18T05:36:29Z</time>
      </trkpt>
      <trkpt lat="42.763484" lon="-0.232297">
        <ele>1710.579</ele>
        <time>2020-07-18T05:36:38Z</time>
      </trkpt>
      <trkpt lat="42.763512" lon="-0.232238">
        <ele>1711.245</ele>
        <time>2020-07-18T05:36:47Z</time>
      </trkpt>
      <trkpt lat="42.763531" lon="-0.232181">
        <ele>1709.932</ele>
        <time>2020-07-18T05:36:54Z</time>
      </trkpt>
      <trkpt lat="42.763512" lon="-0.232125">
        <ele>1713.811</ele>
        <time>2020-07-18T05:37:02Z</time>
      </trkpt>
      <trkpt lat="42.763492" lon="-0.232065">
        <ele>1713.438</ele>
        <time>2020-07-18T05:37:11Z</time>
      </trkpt>
      <trkpt lat="42.763536" lon="-0.232079">
        <ele>1715.990</ele>
        <time>2020-07-18T05:37:22Z</time>
      </trkpt>
      <trkpt lat="42.763565" lon="-0.232123">
        <ele>1716.857</ele>
        <time>2020-07-18T05:37:29Z</time>
      </trkpt>
      <trkpt lat="42.763578" lon="-0.232067">
        <ele>1715.300</ele>
        <time>2020-07-18T05:37:42Z</time>
      </trkpt>
      <trkpt lat="42.763601" lon="-0.232024">
        <ele>1719.820</ele>
        <time>2020-07-18T05:37:49Z</time>
      </trkpt>
      <trkpt lat="42.763631" lon="-0.232061">
        <ele>1718.608</ele>
        <time>2020-07-18T05:38:57Z</time>
      </trkpt>
      <trkpt lat="42.763677" lon="-0.232089">
        <ele>1721.560</ele>
        <time>2020-07-18T05:39:05Z</time>
      </trkpt>
      <trkpt lat="42.763717" lon="-0.232077">
        <ele>1722.888</ele>
        <time>2020-07-18T05:39:11Z</time>
      </trkpt>
      <trkpt lat="42.763736" lon="-0.232129">
        <ele>1724.181</ele>
        <time>2020-07-18T05:39:22Z</time>
      </trkpt>
      <trkpt lat="42.763769" lon="-0.232178">
        <ele>1724.997</ele>
        <time>2020-07-18T05:39:29Z</time>
      </trkpt>
      <trkpt lat="42.763798" lon="-0.232233">
        <ele>1724.274</ele>
        <time>2020-07-18T05:39:35Z</time>
      </trkpt>
      <trkpt lat="42.763834" lon="-0.232285">
        <ele>1723.393</ele>
        <time>2020-07-18T05:39:43Z</time>
      </trkpt>
      <trkpt lat="42.763876" lon="-0.232307">
        <ele>1725.390</ele>
        <time>2020-07-18T05:39:49Z</time>
      </trkpt>
      <trkpt lat="42.763915" lon="-0.232356">
        <ele>1727.212</ele>
        <time>2020-07-18T05:39:58Z</time>
      </trkpt>
      <trkpt lat="42.763944" lon="-0.232404">
        <ele>1727.519</ele>
        <time>2020-07-18T05:40:05Z</time>
      </trkpt>
      <trkpt lat="42.763978" lon="-0.232445">
        <ele>1726.809</ele>
        <time>2020-07-18T05:40:11Z</time>
      </trkpt>
      <trkpt lat="42.764007" lon="-0.232495">
        <ele>1726.119</ele>
        <time>2020-07-18T05:40:17Z</time>
      </trkpt>
      <trkpt lat="42.764032" lon="-0.232545">
        <ele>1726.908</ele>
        <time>2020-07-18T05:42:02Z</time>
      </trkpt>
      <trkpt lat="42.764082" lon="-0.232558">
        <ele>1725.916</ele>
        <time>2020-07-18T05:42:06Z</time>
      </trkpt>
      <trkpt lat="42.764126" lon="-0.232539">
        <ele>1725.964</ele>
        <time>2020-07-18T05:42:09Z</time>
      </trkpt>
      <trkpt lat="42.764164" lon="-0.232488">
        <ele>1726.397</ele>
        <time>2020-07-18T05:42:13Z</time>
      </trkpt>
      <trkpt lat="42.764186" lon="-0.232433">
        <ele>1726.523</ele>
        <time>2020-07-18T05:42:17Z</time>
      </trkpt>
      <trkpt lat="42.764198" lon="-0.232368">
        <ele>1728.440</ele>
        <time>2020-07-18T05:42:24Z</time>
      </trkpt>
      <trkpt lat="42.764197" lon="-0.232301">
        <ele>1729.469</ele>
        <time>2020-07-18T05:42:32Z</time>
      </trkpt>
      <trkpt lat="42.764247" lon="-0.232301">
        <ele>1731.616</ele>
        <time>2020-07-18T05:42:47Z</time>
      </trkpt>
      <trkpt lat="42.764291" lon="-0.232329">
        <ele>1733.068</ele>
        <time>2020-07-18T05:42:54Z</time>
      </trkpt>
      <trkpt lat="42.764328" lon="-0.232287">
        <ele>1734.289</ele>
        <time>2020-07-18T05:43:00Z</time>
      </trkpt>
      <trkpt lat="42.764373" lon="-0.232264">
        <ele>1734.806</ele>
        <time>2020-07-18T05:43:08Z</time>
      </trkpt>
      <trkpt lat="42.764395" lon="-0.232331">
        <ele>1735.926</ele>
        <time>2020-07-18T05:43:41Z</time>
      </trkpt>
      <trkpt lat="42.764390" lon="-0.232402">
        <ele>1736.908</ele>
        <time>2020-07-18T05:43:47Z</time>
      </trkpt>
      <trkpt lat="42.764372" lon="-0.232465">
        <ele>1737.633</ele>
        <time>2020-07-18T05:43:53Z</time>
      </trkpt>
      <trkpt lat="42.764366" lon="-0.232533">
        <ele>1738.711</ele>
        <time>2020-07-18T05:44:00Z</time>
      </trkpt>
      <trkpt lat="42.764397" lon="-0.232586">
        <ele>1736.384</ele>
        <time>2020-07-18T05:44:06Z</time>
      </trkpt>
      <trkpt lat="42.764415" lon="-0.232652">
        <ele>1738.480</ele>
        <time>2020-07-18T05:44:12Z</time>
      </trkpt>
      <trkpt lat="42.764466" lon="-0.232649">
        <ele>1741.447</ele>
        <time>2020-07-18T05:44:21Z</time>
      </trkpt>
      <trkpt lat="42.764508" lon="-0.232617">
        <ele>1741.826</ele>
        <time>2020-07-18T05:44:28Z</time>
      </trkpt>
      <trkpt lat="42.764534" lon="-0.232565">
        <ele>1740.583</ele>
        <time>2020-07-18T05:44:34Z</time>
      </trkpt>
      <trkpt lat="42.764557" lon="-0.232505">
        <ele>1740.715</ele>
        <time>2020-07-18T05:44:38Z</time>
      </trkpt>
      <trkpt lat="42.764596" lon="-0.232465">
        <ele>1741.594</ele>
        <time>2020-07-18T05:44:43Z</time>
      </trkpt>
      <trkpt lat="42.764615" lon="-0.232408">
        <ele>1742.257</ele>
        <time>2020-07-18T05:44:50Z</time>
      </trkpt>
      <trkpt lat="42.764612" lon="-0.232344">
        <ele>1741.722</ele>
        <time>2020-07-18T05:44:56Z</time>
      </trkpt>
      <trkpt lat="42.764582" lon="-0.232288">
        <ele>1742.908</ele>
        <time>2020-07-18T05:45:06Z</time>
      </trkpt>
      <trkpt lat="42.764561" lon="-0.232223">
        <ele>1745.064</ele>
        <time>2020-07-18T05:45:14Z</time>
      </trkpt>
      <trkpt lat="42.764574" lon="-0.232153">
        <ele>1744.772</ele>
        <time>2020-07-18T05:45:20Z</time>
      </trkpt>
      <trkpt lat="42.764593" lon="-0.232093">
        <ele>1745.125</ele>
        <time>2020-07-18T05:45:24Z</time>
      </trkpt>
      <trkpt lat="42.764614" lon="-0.232029">
        <ele>1745.091</ele>
        <time>2020-07-18T05:45:29Z</time>
      </trkpt>
      <trkpt lat="42.764640" lon="-0.231964">
        <ele>1745.018</ele>
        <time>2020-07-18T05:45:34Z</time>
      </trkpt>
      <trkpt lat="42.764672" lon="-0.231918">
        <ele>1745.087</ele>
        <time>2020-07-18T05:45:38Z</time>
      </trkpt>
      <trkpt lat="42.764690" lon="-0.231860">
        <ele>1744.234</ele>
        <time>2020-07-18T05:46:02Z</time>
      </trkpt>
      <trkpt lat="42.764744" lon="-0.231817">
        <ele>1747.066</ele>
        <time>2020-07-18T05:46:08Z</time>
      </trkpt>
      <trkpt lat="42.764801" lon="-0.231844">
        <ele>1746.477</ele>
        <time>2020-07-18T05:46:47Z</time>
      </trkpt>
      <trkpt lat="42.764852" lon="-0.231866">
        <ele>1746.461</ele>
        <time>2020-07-18T05:46:53Z</time>
      </trkpt>
      <trkpt lat="42.764905" lon="-0.231871">
        <ele>1747.427</ele>
        <time>2020-07-18T05:46:59Z</time>
      </trkpt>
      <trkpt lat="42.764953" lon="-0.231837">
        <ele>1747.908</ele>
        <time>2020-07-18T05:47:04Z</time>
      </trkpt>
      <trkpt lat="42.765000" lon="-0.231812">
        <ele>1747.912</ele>
        <time>2020-07-18T05:47:10Z</time>
      </trkpt>
      <trkpt lat="42.765047" lon="-0.231797">
        <ele>1747.830</ele>
        <time>2020-07-18T05:47:23Z</time>
      </trkpt>
      <trkpt lat="42.765099" lon="-0.231807">
        <ele>1748.793</ele>
        <time>2020-07-18T05:47:31Z</time>
      </trkpt>
      <trkpt lat="42.765153" lon="-0.231781">
        <ele>1747.859</ele>
        <time>2020-07-18T05:47:39Z</time>
      </trkpt>
      <trkpt lat="42.765195" lon="-0.231757">
        <ele>1748.396</ele>
        <time>2020-07-18T05:47:45Z</time>
      </trkpt>
      <trkpt lat="42.765243" lon="-0.231744">
        <ele>1747.545</ele>
        <time>2020-07-18T05:47:51Z</time>
      </trkpt>
      <trkpt lat="42.765287" lon="-0.231762">
        <ele>1749.342</ele>
        <time>2020-07-18T05:48:00Z</time>
      </trkpt>
      <trkpt lat="42.765337" lon="-0.231773">
        <ele>1748.934</ele>
        <time>2020-07-18T05:48:21Z</time>
      </trkpt>
      <trkpt lat="42.765388" lon="-0.231774">
        <ele>1751.064</ele>
        <time>2020-07-18T05:48:27Z</time>
      </trkpt>
      <trkpt lat="42.765428" lon="-0.231740">
        <ele>1752.106</ele>
        <time>2020-07-18T05:48:35Z</time>
      </trkpt>
      <trkpt lat="42.765467" lon="-0.231707">
        <ele>1747.716</ele>
        <time>2020-07-18T05:48:44Z</time>
      </trkpt>
      <trkpt lat="42.765509" lon="-0.231683">
        <ele>1750.908</ele>
        <time>2020-07-18T05:48:57Z</time>
      </trkpt>
      <trkpt lat="42.765545" lon="-0.231646">
        <ele>1751.531</ele>
        <time>2020-07-18T05:51:14Z</time>
      </trkpt>
      <trkpt lat="42.765561" lon="-0.231585">
        <ele>1752.039</ele>
        <time>2020-07-18T05:51:22Z</time>
      </trkpt>
      <trkpt lat="42.765588" lon="-0.231544">
        <ele>1753.522</ele>
        <time>2020-07-18T05:51:29Z</time>
      </trkpt>
      <trkpt lat="42.765640" lon="-0.231536">
        <ele>1756.328</ele>
        <time>2020-07-18T05:51:46Z</time>
      </trkpt>
      <trkpt lat="42.765684" lon="-0.231549">
        <ele>1756.365</ele>
        <time>2020-07-18T05:52:01Z</time>
      </trkpt>
      <trkpt lat="42.765734" lon="-0.231528">
        <ele>1759.854</ele>
        <time>2020-07-18T05:52:18Z</time>
      </trkpt>
      <trkpt lat="42.765770" lon="-0.231489">
        <ele>1758.081</ele>
        <time>2020-07-18T05:52:31Z</time>
      </trkpt>
      <trkpt lat="42.765793" lon="-0.231437">
        <ele>1759.513</ele>
        <time>2020-07-18T05:52:40Z</time>
      </trkpt>
      <trkpt lat="42.765764" lon="-0.231389">
        <ele>1761.378</ele>
        <time>2020-07-18T05:53:02Z</time>
      </trkpt>
      <trkpt lat="42.765769" lon="-0.231322">
        <ele>1761.133</ele>
        <time>2020-07-18T05:53:53Z</time>
      </trkpt>
      <trkpt lat="42.765785" lon="-0.231256">
        <ele>1768.226</ele>
        <time>2020-07-18T05:55:52Z</time>
      </trkpt>
      <trkpt lat="42.765831" lon="-0.231256">
        <ele>1769.208</ele>
        <time>2020-07-18T05:56:04Z</time>
      </trkpt>
      <trkpt lat="42.765870" lon="-0.231288">
        <ele>1769.892</ele>
        <time>2020-07-18T05:56:12Z</time>
      </trkpt>
      <trkpt lat="42.765904" lon="-0.231334">
        <ele>1771.140</ele>
        <time>2020-07-18T05:56:19Z</time>
      </trkpt>
      <trkpt lat="42.765936" lon="-0.231385">
        <ele>1772.743</ele>
        <time>2020-07-18T05:56:30Z</time>
      </trkpt>
      <trkpt lat="42.765978" lon="-0.231434">
        <ele>1774.419</ele>
        <time>2020-07-18T05:56:40Z</time>
      </trkpt>
      <trkpt lat="42.766028" lon="-0.231464">
        <ele>1772.656</ele>
        <time>2020-07-18T05:56:47Z</time>
      </trkpt>
      <trkpt lat="42.766074" lon="-0.231499">
        <ele>1773.145</ele>
        <time>2020-07-18T05:56:53Z</time>
      </trkpt>
      <trkpt lat="42.766115" lon="-0.231541">
        <ele>1776.312</ele>
        <time>2020-07-18T05:57:02Z</time>
      </trkpt>
      <trkpt lat="42.766166" lon="-0.231534">
        <ele>1778.154</ele>
        <time>2020-07-18T05:57:11Z</time>
      </trkpt>
      <trkpt lat="42.766167" lon="-0.231466">
        <ele>1776.295</ele>
        <time>2020-07-18T05:57:20Z</time>
      </trkpt>
      <trkpt lat="42.766137" lon="-0.231414">
        <ele>1778.649</ele>
        <time>2020-07-18T05:57:34Z</time>
      </trkpt>
      <trkpt lat="42.766098" lon="-0.231374">
        <ele>1778.623</ele>
        <time>2020-07-18T05:57:43Z</time>
      </trkpt>
      <trkpt lat="42.766049" lon="-0.231347">
        <ele>1776.708</ele>
        <time>2020-07-18T05:57:52Z</time>
      </trkpt>
      <trkpt lat="42.766020" lon="-0.231299">
        <ele>1778.784</ele>
        <time>2020-07-18T05:57:59Z</time>
      </trkpt>
      <trkpt lat="42.766024" lon="-0.231237">
        <ele>1783.252</ele>
        <time>2020-07-18T05:58:04Z</time>
      </trkpt>
      <trkpt lat="42.765992" lon="-0.231193">
        <ele>1783.015</ele>
        <time>2020-07-18T05:58:15Z</time>
      </trkpt>
      <trkpt lat="42.765983" lon="-0.231126">
        <ele>1787.051</ele>
        <time>2020-07-18T05:58:28Z</time>
      </trkpt>
      <trkpt lat="42.765947" lon="-0.231075">
        <ele>1786.098</ele>
        <time>2020-07-18T05:58:35Z</time>
      </trkpt>
      <trkpt lat="42.765912" lon="-0.231067">
        <ele>1787.497</ele>
        <time>2020-07-18T05:58:46Z</time>
      </trkpt>
      <trkpt lat="42.765907" lon="-0.231019">
        <ele>1787.924</ele>
        <time>2020-07-18T05:59:38Z</time>
      </trkpt>
      <trkpt lat="42.765884" lon="-0.230970">
        <ele>1788.486</ele>
        <time>2020-07-18T05:59:51Z</time>
      </trkpt>
      <trkpt lat="42.765921" lon="-0.230937">
        <ele>1789.465</ele>
        <time>2020-07-18T06:00:21Z</time>
      </trkpt>
      <trkpt lat="42.765962" lon="-0.230964">
        <ele>1790.468</ele>
        <time>2020-07-18T06:00:30Z</time>
      </trkpt>
      <trkpt lat="42.766010" lon="-0.230935">
        <ele>1789.214</ele>
        <time>2020-07-18T06:00:40Z</time>
      </trkpt>
      <trkpt lat="42.766057" lon="-0.230952">
        <ele>1789.308</ele>
        <time>2020-07-18T06:00:46Z</time>
      </trkpt>
      <trkpt lat="42.766097" lon="-0.230991">
        <ele>1790.951</ele>
        <time>2020-07-18T06:00:53Z</time>
      </trkpt>
      <trkpt lat="42.766136" lon="-0.231041">
        <ele>1793.169</ele>
        <time>2020-07-18T06:01:02Z</time>
      </trkpt>
      <trkpt lat="42.766174" lon="-0.231083">
        <ele>1794.682</ele>
        <time>2020-07-18T06:01:09Z</time>
      </trkpt>
      <trkpt lat="42.766210" lon="-0.231125">
        <ele>1796.268</ele>
        <time>2020-07-18T06:01:15Z</time>
      </trkpt>
      <trkpt lat="42.766260" lon="-0.231134">
        <ele>1795.475</ele>
        <time>2020-07-18T06:01:28Z</time>
      </trkpt>
      <trkpt lat="42.766301" lon="-0.231093">
        <ele>1796.964</ele>
        <time>2020-07-18T06:01:37Z</time>
      </trkpt>
      <trkpt lat="42.766275" lon="-0.231037">
        <ele>1802.741</ele>
        <time>2020-07-18T06:03:23Z</time>
      </trkpt>
      <trkpt lat="42.766259" lon="-0.230976">
        <ele>1801.893</ele>
        <time>2020-07-18T06:03:31Z</time>
      </trkpt>
      <trkpt lat="42.766236" lon="-0.230909">
        <ele>1803.349</ele>
        <time>2020-07-18T06:03:37Z</time>
      </trkpt>
      <trkpt lat="42.766225" lon="-0.230847">
        <ele>1804.702</ele>
        <time>2020-07-18T06:03:43Z</time>
      </trkpt>
      <trkpt lat="42.766231" lon="-0.230781">
        <ele>1806.922</ele>
        <time>2020-07-18T06:03:49Z</time>
      </trkpt>
      <trkpt lat="42.766203" lon="-0.230734">
        <ele>1808.508</ele>
        <time>2020-07-18T06:04:10Z</time>
      </trkpt>
      <trkpt lat="42.766226" lon="-0.230671">
        <ele>1808.879</ele>
        <time>2020-07-18T06:04:21Z</time>
      </trkpt>
      <trkpt lat="42.766274" lon="-0.230671">
        <ele>1809.167</ele>
        <time>2020-07-18T06:04:28Z</time>
      </trkpt>
      <trkpt lat="42.766322" lon="-0.230702">
        <ele>1812.180</ele>
        <time>2020-07-18T06:04:35Z</time>
      </trkpt>
      <trkpt lat="42.766362" lon="-0.230736">
        <ele>1810.646</ele>
        <time>2020-07-18T06:04:43Z</time>
      </trkpt>
      <trkpt lat="42.766413" lon="-0.230755">
        <ele>1814.283</ele>
        <time>2020-07-18T06:04:51Z</time>
      </trkpt>
      <trkpt lat="42.766464" lon="-0.230746">
        <ele>1813.652</ele>
        <time>2020-07-18T06:04:58Z</time>
      </trkpt>
      <trkpt lat="42.766482" lon="-0.230695">
        <ele>1815.299</ele>
        <time>2020-07-18T06:05:05Z</time>
      </trkpt>
      <trkpt lat="42.766467" lon="-0.230626">
        <ele>1816.851</ele>
        <time>2020-07-18T06:05:11Z</time>
      </trkpt>
      <trkpt lat="42.766490" lon="-0.230590">
        <ele>1818.393</ele>
        <time>2020-07-18T06:05:22Z</time>
      </trkpt>
      <trkpt lat="42.766510" lon="-0.230640">
        <ele>1817.965</ele>
        <time>2020-07-18T06:05:46Z</time>
      </trkpt>
      <trkpt lat="42.766537" lon="-0.230673">
        <ele>1819.821</ele>
        <time>2020-07-18T06:06:40Z</time>
      </trkpt>
      <trkpt lat="42.766602" lon="-0.230694">
        <ele>1822.008</ele>
        <time>2020-07-18T06:06:45Z</time>
      </trkpt>
      <trkpt lat="42.766647" lon="-0.230694">
        <ele>1821.854</ele>
        <time>2020-07-18T06:06:51Z</time>
      </trkpt>
      <trkpt lat="42.766691" lon="-0.230678">
        <ele>1818.782</ele>
        <time>2020-07-18T06:07:03Z</time>
      </trkpt>
      <trkpt lat="42.766738" lon="-0.230690">
        <ele>1819.455</ele>
        <time>2020-07-18T06:07:08Z</time>
      </trkpt>
      <trkpt lat="42.766788" lon="-0.230684">
        <ele>1825.451</ele>
        <time>2020-07-18T06:07:16Z</time>
      </trkpt>
      <trkpt lat="42.766828" lon="-0.230638">
        <ele>1825.578</ele>
        <time>2020-07-18T06:07:24Z</time>
      </trkpt>
      <trkpt lat="42.766827" lon="-0.230576">
        <ele>1827.187</ele>
        <time>2020-07-18T06:07:32Z</time>
      </trkpt>
      <trkpt lat="42.766810" lon="-0.230512">
        <ele>1828.564</ele>
        <time>2020-07-18T06:07:44Z</time>
      </trkpt>
      <trkpt lat="42.766830" lon="-0.230453">
        <ele>1829.916</ele>
        <time>2020-07-18T06:08:02Z</time>
      </trkpt>
      <trkpt lat="42.766889" lon="-0.230469">
        <ele>1830.198</ele>
        <time>2020-07-18T06:08:09Z</time>
      </trkpt>
      <trkpt lat="42.766917" lon="-0.230524">
        <ele>1829.915</ele>
        <time>2020-07-18T06:08:29Z</time>
      </trkpt>
      <trkpt lat="42.766938" lon="-0.230586">
        <ele>1831.926</ele>
        <time>2020-07-18T06:08:37Z</time>
      </trkpt>
      <trkpt lat="42.766993" lon="-0.230583">
        <ele>1830.808</ele>
        <time>2020-07-18T06:08:46Z</time>
      </trkpt>
      <trkpt lat="42.767041" lon="-0.230602">
        <ele>1831.084</ele>
        <time>2020-07-18T06:08:53Z</time>
      </trkpt>
      <trkpt lat="42.767086" lon="-0.230599">
        <ele>1829.162</ele>
        <time>2020-07-18T06:08:59Z</time>
      </trkpt>
      <trkpt lat="42.767127" lon="-0.230624">
        <ele>1831.385</ele>
        <time>2020-07-18T06:09:07Z</time>
      </trkpt>
      <trkpt lat="42.767176" lon="-0.230624">
        <ele>1834.181</ele>
        <time>2020-07-18T06:09:15Z</time>
      </trkpt>
      <trkpt lat="42.767227" lon="-0.230616">
        <ele>1834.738</ele>
        <time>2020-07-18T06:09:23Z</time>
      </trkpt>
      <trkpt lat="42.767266" lon="-0.230576">
        <ele>1835.767</ele>
        <time>2020-07-18T06:09:31Z</time>
      </trkpt>
      <trkpt lat="42.767298" lon="-0.230579">
        <ele>1837.084</ele>
        <time>2020-07-18T06:09:42Z</time>
      </trkpt>
      <trkpt lat="42.767329" lon="-0.230607">
        <ele>1838.216</ele>
        <time>2020-07-18T06:09:49Z</time>
      </trkpt>
      <trkpt lat="42.767362" lon="-0.230588">
        <ele>1839.217</ele>
        <time>2020-07-18T06:10:00Z</time>
      </trkpt>
      <trkpt lat="42.767408" lon="-0.230568">
        <ele>1837.587</ele>
        <time>2020-07-18T06:10:12Z</time>
      </trkpt>
      <trkpt lat="42.767449" lon="-0.230567">
        <ele>1841.915</ele>
        <time>2020-07-18T06:10:52Z</time>
      </trkpt>
      <trkpt lat="42.767467" lon="-0.230633">
        <ele>1842.408</ele>
        <time>2020-07-18T06:11:21Z</time>
      </trkpt>
      <trkpt lat="42.767514" lon="-0.230673">
        <ele>1843.416</ele>
        <time>2020-07-18T06:11:30Z</time>
      </trkpt>
      <trkpt lat="42.767567" lon="-0.230677">
        <ele>1843.624</ele>
        <time>2020-07-18T06:11:35Z</time>
      </trkpt>
      <trkpt lat="42.767617" lon="-0.230648">
        <ele>1841.667</ele>
        <time>2020-07-18T06:11:40Z</time>
      </trkpt>
      <trkpt lat="42.767661" lon="-0.230630">
        <ele>1842.453</ele>
        <time>2020-07-18T06:11:46Z</time>
      </trkpt>
      <trkpt lat="42.767707" lon="-0.230585">
        <ele>1842.610</ele>
        <time>2020-07-18T06:11:52Z</time>
      </trkpt>
      <trkpt lat="42.767744" lon="-0.230549">
        <ele>1843.859</ele>
        <time>2020-07-18T06:11:56Z</time>
      </trkpt>
      <trkpt lat="42.767795" lon="-0.230552">
        <ele>1846.866</ele>
        <time>2020-07-18T06:12:04Z</time>
      </trkpt>
      <trkpt lat="42.767831" lon="-0.230596">
        <ele>1848.318</ele>
        <time>2020-07-18T06:12:13Z</time>
      </trkpt>
      <trkpt lat="42.767875" lon="-0.230625">
        <ele>1847.254</ele>
        <time>2020-07-18T06:12:33Z</time>
      </trkpt>
      <trkpt lat="42.767920" lon="-0.230614">
        <ele>1847.956</ele>
        <time>2020-07-18T06:12:41Z</time>
      </trkpt>
      <trkpt lat="42.767979" lon="-0.230596">
        <ele>1847.111</ele>
        <time>2020-07-18T06:12:47Z</time>
      </trkpt>
      <trkpt lat="42.768033" lon="-0.230558">
        <ele>1847.608</ele>
        <time>2020-07-18T06:12:51Z</time>
      </trkpt>
      <trkpt lat="42.768072" lon="-0.230523">
        <ele>1846.790</ele>
        <time>2020-07-18T06:12:55Z</time>
      </trkpt>
      <trkpt lat="42.768108" lon="-0.230483">
        <ele>1846.618</ele>
        <time>2020-07-18T06:12:59Z</time>
      </trkpt>
      <trkpt lat="42.768144" lon="-0.230431">
        <ele>1847.461</ele>
        <time>2020-07-18T06:13:04Z</time>
      </trkpt>
      <trkpt lat="42.768178" lon="-0.230382">
        <ele>1848.057</ele>
        <time>2020-07-18T06:13:10Z</time>
      </trkpt>
      <trkpt lat="42.768218" lon="-0.230340">
        <ele>1848.394</ele>
        <time>2020-07-18T06:13:16Z</time>
      </trkpt>
      <trkpt lat="42.768252" lon="-0.230291">
        <ele>1846.993</ele>
        <time>2020-07-18T06:13:20Z</time>
      </trkpt>
      <trkpt lat="42.768288" lon="-0.230248">
        <ele>1846.520</ele>
        <time>2020-07-18T06:13:26Z</time>
      </trkpt>
      <trkpt lat="42.768338" lon="-0.230213">
        <ele>1847.682</ele>
        <time>2020-07-18T06:13:31Z</time>
      </trkpt>
      <trkpt lat="42.768344" lon="-0.230151">
        <ele>1848.998</ele>
        <time>2020-07-18T06:13:44Z</time>
      </trkpt>
      <trkpt lat="42.768364" lon="-0.230092">
        <ele>1849.515</ele>
        <time>2020-07-18T06:13:50Z</time>
      </trkpt>
      <trkpt lat="42.768405" lon="-0.230046">
        <ele>1850.226</ele>
        <time>2020-07-18T06:13:56Z</time>
      </trkpt>
      <trkpt lat="42.768442" lon="-0.230004">
        <ele>1850.708</ele>
        <time>2020-07-18T06:14:01Z</time>
      </trkpt>
      <trkpt lat="42.768490" lon="-0.230003">
        <ele>1851.964</ele>
        <time>2020-07-18T06:14:07Z</time>
      </trkpt>
      <trkpt lat="42.768534" lon="-0.230022">
        <ele>1853.562</ele>
        <time>2020-07-18T06:14:14Z</time>
      </trkpt>
      <trkpt lat="42.768578" lon="-0.230047">
        <ele>1853.315</ele>
        <time>2020-07-18T06:14:23Z</time>
      </trkpt>
      <trkpt lat="42.768602" lon="-0.230110">
        <ele>1852.791</ele>
        <time>2020-07-18T06:14:30Z</time>
      </trkpt>
      <trkpt lat="42.768606" lon="-0.230180">
        <ele>1855.968</ele>
        <time>2020-07-18T06:14:38Z</time>
      </trkpt>
      <trkpt lat="42.768616" lon="-0.230234">
        <ele>1854.967</ele>
        <time>2020-07-18T06:14:46Z</time>
      </trkpt>
      <trkpt lat="42.768659" lon="-0.230228">
        <ele>1856.984</ele>
        <time>2020-07-18T06:14:53Z</time>
      </trkpt>
      <trkpt lat="42.768702" lon="-0.230191">
        <ele>1857.656</ele>
        <time>2020-07-18T06:14:58Z</time>
      </trkpt>
      <trkpt lat="42.768738" lon="-0.230149">
        <ele>1855.821</ele>
        <time>2020-07-18T06:15:02Z</time>
      </trkpt>
      <trkpt lat="42.768763" lon="-0.230111">
        <ele>1855.941</ele>
        <time>2020-07-18T06:15:08Z</time>
      </trkpt>
      <trkpt lat="42.768803" lon="-0.230132">
        <ele>1860.405</ele>
        <time>2020-07-18T06:16:21Z</time>
      </trkpt>
      <trkpt lat="42.768846" lon="-0.230154">
        <ele>1860.608</ele>
        <time>2020-07-18T06:16:25Z</time>
      </trkpt>
      <trkpt lat="42.768892" lon="-0.230188">
        <ele>1861.137</ele>
        <time>2020-07-18T06:16:31Z</time>
      </trkpt>
      <trkpt lat="42.768936" lon="-0.230220">
        <ele>1861.815</ele>
        <time>2020-07-18T06:16:36Z</time>
      </trkpt>
      <trkpt lat="42.768984" lon="-0.230239">
        <ele>1862.348</ele>
        <time>2020-07-18T06:16:42Z</time>
      </trkpt>
      <trkpt lat="42.769030" lon="-0.230241">
        <ele>1862.544</ele>
        <time>2020-07-18T06:16:48Z</time>
      </trkpt>
      <trkpt lat="42.769074" lon="-0.230269">
        <ele>1861.841</ele>
        <time>2020-07-18T06:16:53Z</time>
      </trkpt>
      <trkpt lat="42.769103" lon="-0.230328">
        <ele>1861.680</ele>
        <time>2020-07-18T06:17:00Z</time>
      </trkpt>
      <trkpt lat="42.769128" lon="-0.230396">
        <ele>1863.177</ele>
        <time>2020-07-18T06:17:07Z</time>
      </trkpt>
      <trkpt lat="42.769166" lon="-0.230438">
        <ele>1864.679</ele>
        <time>2020-07-18T06:17:14Z</time>
      </trkpt>
      <trkpt lat="42.769203" lon="-0.230486">
        <ele>1865.933</ele>
        <time>2020-07-18T06:17:21Z</time>
      </trkpt>
      <trkpt lat="42.769241" lon="-0.230453">
        <ele>1867.023</ele>
        <time>2020-07-18T06:17:30Z</time>
      </trkpt>
      <trkpt lat="42.769242" lon="-0.230386">
        <ele>1867.515</ele>
        <time>2020-07-18T06:17:36Z</time>
      </trkpt>
      <trkpt lat="42.769242" lon="-0.230312">
        <ele>1867.008</ele>
        <time>2020-07-18T06:17:42Z</time>
      </trkpt>
      <trkpt lat="42.769218" lon="-0.230250">
        <ele>1866.668</ele>
        <time>2020-07-18T06:17:48Z</time>
      </trkpt>
      <trkpt lat="42.769188" lon="-0.230201">
        <ele>1867.616</ele>
        <time>2020-07-18T06:17:53Z</time>
      </trkpt>
      <trkpt lat="42.769147" lon="-0.230152">
        <ele>1867.929</ele>
        <time>2020-07-18T06:17:58Z</time>
      </trkpt>
      <trkpt lat="42.769114" lon="-0.230096">
        <ele>1869.625</ele>
        <time>2020-07-18T06:18:04Z</time>
      </trkpt>
      <trkpt lat="42.769075" lon="-0.230044">
        <ele>1867.452</ele>
        <time>2020-07-18T06:18:11Z</time>
      </trkpt>
      <trkpt lat="42.769047" lon="-0.229987">
        <ele>1870.951</ele>
        <time>2020-07-18T06:18:20Z</time>
      </trkpt>
      <trkpt lat="42.769055" lon="-0.229924">
        <ele>1871.068</ele>
        <time>2020-07-18T06:18:28Z</time>
      </trkpt>
      <trkpt lat="42.769074" lon="-0.229857">
        <ele>1873.440</ele>
        <time>2020-07-18T06:18:37Z</time>
      </trkpt>
      <trkpt lat="42.769128" lon="-0.229870">
        <ele>1874.647</ele>
        <time>2020-07-18T06:18:44Z</time>
      </trkpt>
      <trkpt lat="42.769168" lon="-0.229908">
        <ele>1873.629</ele>
        <time>2020-07-18T06:18:50Z</time>
      </trkpt>
      <trkpt lat="42.769204" lon="-0.229966">
        <ele>1872.521</ele>
        <time>2020-07-18T06:18:54Z</time>
      </trkpt>
      <trkpt lat="42.769244" lon="-0.229999">
        <ele>1873.408</ele>
        <time>2020-07-18T06:18:59Z</time>
      </trkpt>
      <trkpt lat="42.769289" lon="-0.230010">
        <ele>1873.789</ele>
        <time>2020-07-18T06:19:05Z</time>
      </trkpt>
      <trkpt lat="42.769338" lon="-0.230010">
        <ele>1874.167</ele>
        <time>2020-07-18T06:19:11Z</time>
      </trkpt>
      <trkpt lat="42.769390" lon="-0.229994">
        <ele>1873.970</ele>
        <time>2020-07-18T06:19:18Z</time>
      </trkpt>
      <trkpt lat="42.769413" lon="-0.229939">
        <ele>1873.426</ele>
        <time>2020-07-18T06:19:37Z</time>
      </trkpt>
      <trkpt lat="42.769461" lon="-0.229909">
        <ele>1874.363</ele>
        <time>2020-07-18T06:19:49Z</time>
      </trkpt>
      <trkpt lat="42.769514" lon="-0.229880">
        <ele>1877.992</ele>
        <time>2020-07-18T06:19:57Z</time>
      </trkpt>
      <trkpt lat="42.769563" lon="-0.229831">
        <ele>1877.229</ele>
        <time>2020-07-18T06:20:04Z</time>
      </trkpt>
      <trkpt lat="42.769602" lon="-0.229794">
        <ele>1877.381</ele>
        <time>2020-07-18T06:20:09Z</time>
      </trkpt>
      <trkpt lat="42.769651" lon="-0.229766">
        <ele>1878.293</ele>
        <time>2020-07-18T06:20:16Z</time>
      </trkpt>
      <trkpt lat="42.769705" lon="-0.229751">
        <ele>1878.465</ele>
        <time>2020-07-18T06:20:23Z</time>
      </trkpt>
      <trkpt lat="42.769750" lon="-0.229740">
        <ele>1877.121</ele>
        <time>2020-07-18T06:20:30Z</time>
      </trkpt>
      <trkpt lat="42.769799" lon="-0.229777">
        <ele>1878.608</ele>
        <time>2020-07-18T06:20:38Z</time>
      </trkpt>
      <trkpt lat="42.769788" lon="-0.229836">
        <ele>1879.314</ele>
        <time>2020-07-18T06:20:49Z</time>
      </trkpt>
      <trkpt lat="42.769769" lon="-0.229890">
        <ele>1878.982</ele>
        <time>2020-07-18T06:21:02Z</time>
      </trkpt>
      <trkpt lat="42.769798" lon="-0.229940">
        <ele>1878.515</ele>
        <time>2020-07-18T06:21:17Z</time>
      </trkpt>
      <trkpt lat="42.769827" lon="-0.229987">
        <ele>1877.791</ele>
        <time>2020-07-18T06:21:22Z</time>
      </trkpt>
      <trkpt lat="42.769876" lon="-0.230029">
        <ele>1877.548</ele>
        <time>2020-07-18T06:21:27Z</time>
      </trkpt>
      <trkpt lat="42.769922" lon="-0.230062">
        <ele>1877.927</ele>
        <time>2020-07-18T06:21:31Z</time>
      </trkpt>
      <trkpt lat="42.769969" lon="-0.230083">
        <ele>1877.064</ele>
        <time>2020-07-18T06:21:35Z</time>
      </trkpt>
      <trkpt lat="42.770037" lon="-0.230103">
        <ele>1878.226</ele>
        <time>2020-07-18T06:21:40Z</time>
      </trkpt>
      <trkpt lat="42.770086" lon="-0.230128">
        <ele>1878.971</ele>
        <time>2020-07-18T06:21:45Z</time>
      </trkpt>
      <trkpt lat="42.770122" lon="-0.230174">
        <ele>1877.941</ele>
        <time>2020-07-18T06:21:50Z</time>
      </trkpt>
      <trkpt lat="42.770150" lon="-0.230228">
        <ele>1878.615</ele>
        <time>2020-07-18T06:21:55Z</time>
      </trkpt>
      <trkpt lat="42.770162" lon="-0.230293">
        <ele>1878.508</ele>
        <time>2020-07-18T06:22:01Z</time>
      </trkpt>
      <trkpt lat="42.770183" lon="-0.230349">
        <ele>1879.412</ele>
        <time>2020-07-18T06:22:07Z</time>
      </trkpt>
      <trkpt lat="42.770196" lon="-0.230411">
        <ele>1881.060</ele>
        <time>2020-07-18T06:22:14Z</time>
      </trkpt>
      <trkpt lat="42.770219" lon="-0.230465">
        <ele>1880.953</ele>
        <time>2020-07-18T06:22:22Z</time>
      </trkpt>
      <trkpt lat="42.770250" lon="-0.230523">
        <ele>1881.619</ele>
        <time>2020-07-18T06:22:28Z</time>
      </trkpt>
      <trkpt lat="42.770292" lon="-0.230569">
        <ele>1881.446</ele>
        <time>2020-07-18T06:22:36Z</time>
      </trkpt>
      <trkpt lat="42.770310" lon="-0.230637">
        <ele>1877.615</ele>
        <time>2020-07-18T06:23:06Z</time>
      </trkpt>
      <trkpt lat="42.770306" lon="-0.230704">
        <ele>1883.432</ele>
        <time>2020-07-18T06:23:14Z</time>
      </trkpt>
      <trkpt lat="42.770328" lon="-0.230765">
        <ele>1881.114</ele>
        <time>2020-07-18T06:23:20Z</time>
      </trkpt>
      <trkpt lat="42.770370" lon="-0.230790">
        <ele>1882.989</ele>
        <time>2020-07-18T06:23:25Z</time>
      </trkpt>
      <trkpt lat="42.770415" lon="-0.230825">
        <ele>1884.706</ele>
        <time>2020-07-18T06:23:32Z</time>
      </trkpt>
      <trkpt lat="42.770454" lon="-0.230843">
        <ele>1887.726</ele>
        <time>2020-07-18T06:23:44Z</time>
      </trkpt>
      <trkpt lat="42.770460" lon="-0.230904">
        <ele>1886.808</ele>
        <time>2020-07-18T06:24:01Z</time>
      </trkpt>
      <trkpt lat="42.770474" lon="-0.230938">
        <ele>1890.223</ele>
        <time>2020-07-18T06:24:10Z</time>
      </trkpt>
      <trkpt lat="42.770465" lon="-0.230979">
        <ele>1892.321</ele>
        <time>2020-07-18T06:24:19Z</time>
      </trkpt>
      <trkpt lat="42.770456" lon="-0.231025">
        <ele>1894.464</ele>
        <time>2020-07-18T06:24:48Z</time>
      </trkpt>
      <trkpt lat="42.770482" lon="-0.231056">
        <ele>1892.380</ele>
        <time>2020-07-18T06:24:55Z</time>
      </trkpt>
      <trkpt lat="42.770527" lon="-0.231072">
        <ele>1895.687</ele>
        <time>2020-07-18T06:25:04Z</time>
      </trkpt>
      <trkpt lat="42.770572" lon="-0.231091">
        <ele>1896.266</ele>
        <time>2020-07-18T06:25:10Z</time>
      </trkpt>
      <trkpt lat="42.770620" lon="-0.231107">
        <ele>1897.023</ele>
        <time>2020-07-18T06:25:17Z</time>
      </trkpt>
      <trkpt lat="42.770672" lon="-0.231102">
        <ele>1897.175</ele>
        <time>2020-07-18T06:25:23Z</time>
      </trkpt>
      <trkpt lat="42.770718" lon="-0.231095">
        <ele>1895.527</ele>
        <time>2020-07-18T06:25:28Z</time>
      </trkpt>
      <trkpt lat="42.770766" lon="-0.231083">
        <ele>1896.968</ele>
        <time>2020-07-18T06:25:33Z</time>
      </trkpt>
      <trkpt lat="42.770810" lon="-0.231047">
        <ele>1896.614</ele>
        <time>2020-07-18T06:25:40Z</time>
      </trkpt>
      <trkpt lat="42.770855" lon="-0.231034">
        <ele>1897.408</ele>
        <time>2020-07-18T06:25:45Z</time>
      </trkpt>
      <trkpt lat="42.770899" lon="-0.231012">
        <ele>1899.197</ele>
        <time>2020-07-18T06:26:02Z</time>
      </trkpt>
      <trkpt lat="42.770951" lon="-0.231020">
        <ele>1900.065</ele>
        <time>2020-07-18T06:26:08Z</time>
      </trkpt>
      <trkpt lat="42.770997" lon="-0.231036">
        <ele>1899.328</ele>
        <time>2020-07-18T06:26:14Z</time>
      </trkpt>
      <trkpt lat="42.771048" lon="-0.231065">
        <ele>1897.034</ele>
        <time>2020-07-18T06:26:22Z</time>
      </trkpt>
      <trkpt lat="42.771096" lon="-0.231076">
        <ele>1899.661</ele>
        <time>2020-07-18T06:26:29Z</time>
      </trkpt>
      <trkpt lat="42.771147" lon="-0.231090">
        <ele>1899.250</ele>
        <time>2020-07-18T06:26:35Z</time>
      </trkpt>
      <trkpt lat="42.771197" lon="-0.231089">
        <ele>1899.427</ele>
        <time>2020-07-18T06:26:41Z</time>
      </trkpt>
      <trkpt lat="42.771247" lon="-0.231080">
        <ele>1900.539</ele>
        <time>2020-07-18T06:26:46Z</time>
      </trkpt>
      <trkpt lat="42.771297" lon="-0.231074">
        <ele>1898.829</ele>
        <time>2020-07-18T06:26:52Z</time>
      </trkpt>
      <trkpt lat="42.771353" lon="-0.231075">
        <ele>1899.900</ele>
        <time>2020-07-18T06:27:01Z</time>
      </trkpt>
      <trkpt lat="42.771405" lon="-0.231071">
        <ele>1903.120</ele>
        <time>2020-07-18T06:27:09Z</time>
      </trkpt>
      <trkpt lat="42.771461" lon="-0.231066">
        <ele>1900.208</ele>
        <time>2020-07-18T06:27:16Z</time>
      </trkpt>
      <trkpt lat="42.771512" lon="-0.231082">
        <ele>1905.077</ele>
        <time>2020-07-18T06:27:23Z</time>
      </trkpt>
      <trkpt lat="42.771553" lon="-0.231058">
        <ele>1902.295</ele>
        <time>2020-07-18T06:27:31Z</time>
      </trkpt>
      <trkpt lat="42.771600" lon="-0.231042">
        <ele>1907.458</ele>
        <time>2020-07-18T06:27:38Z</time>
      </trkpt>
      <trkpt lat="42.771654" lon="-0.231042">
        <ele>1906.094</ele>
        <time>2020-07-18T06:27:45Z</time>
      </trkpt>
      <trkpt lat="42.771682" lon="-0.231020">
        <ele>1907.281</ele>
        <time>2020-07-18T06:28:13Z</time>
      </trkpt>
      <trkpt lat="42.771720" lon="-0.231022">
        <ele>1908.520</ele>
        <time>2020-07-18T06:28:56Z</time>
      </trkpt>
      <trkpt lat="42.771774" lon="-0.231030">
        <ele>1907.667</ele>
        <time>2020-07-18T06:29:00Z</time>
      </trkpt>
      <trkpt lat="42.771820" lon="-0.231030">
        <ele>1909.159</ele>
        <time>2020-07-18T06:29:04Z</time>
      </trkpt>
      <trkpt lat="42.771871" lon="-0.231025">
        <ele>1909.517</ele>
        <time>2020-07-18T06:29:08Z</time>
      </trkpt>
      <trkpt lat="42.771924" lon="-0.231029">
        <ele>1909.287</ele>
        <time>2020-07-18T06:29:14Z</time>
      </trkpt>
      <trkpt lat="42.771976" lon="-0.231001">
        <ele>1910.515</ele>
        <time>2020-07-18T06:29:21Z</time>
      </trkpt>
      <trkpt lat="42.772023" lon="-0.230971">
        <ele>1912.908</ele>
        <time>2020-07-18T06:29:28Z</time>
      </trkpt>
      <trkpt lat="42.772068" lon="-0.230969">
        <ele>1914.396</ele>
        <time>2020-07-18T06:29:38Z</time>
      </trkpt>
      <trkpt lat="42.772108" lon="-0.230980">
        <ele>1915.724</ele>
        <time>2020-07-18T06:29:50Z</time>
      </trkpt>
      <trkpt lat="42.772108" lon="-0.231040">
        <ele>1915.277</ele>
        <time>2020-07-18T06:30:00Z</time>
      </trkpt>
      <trkpt lat="42.772109" lon="-0.231103">
        <ele>1917.073</ele>
        <time>2020-07-18T06:30:11Z</time>
      </trkpt>
      <trkpt lat="42.772106" lon="-0.231172">
        <ele>1918.110</ele>
        <time>2020-07-18T06:30:19Z</time>
      </trkpt>
      <trkpt lat="42.772092" lon="-0.231235">
        <ele>1917.369</ele>
        <time>2020-07-18T06:30:26Z</time>
      </trkpt>
      <trkpt lat="42.772089" lon="-0.231302">
        <ele>1918.756</ele>
        <time>2020-07-18T06:30:33Z</time>
      </trkpt>
      <trkpt lat="42.772091" lon="-0.231364">
        <ele>1920.638</ele>
        <time>2020-07-18T06:30:40Z</time>
      </trkpt>
      <trkpt lat="42.772135" lon="-0.231380">
        <ele>1920.215</ele>
        <time>2020-07-18T06:30:47Z</time>
      </trkpt>
      <trkpt lat="42.772167" lon="-0.231320">
        <ele>1922.165</ele>
        <time>2020-07-18T06:30:52Z</time>
      </trkpt>
      <trkpt lat="42.772179" lon="-0.231249">
        <ele>1921.011</ele>
        <time>2020-07-18T06:30:57Z</time>
      </trkpt>
      <trkpt lat="42.772187" lon="-0.231181">
        <ele>1922.708</ele>
        <time>2020-07-18T06:31:01Z</time>
      </trkpt>
      <trkpt lat="42.772211" lon="-0.231122">
        <ele>1922.826</ele>
        <time>2020-07-18T06:31:33Z</time>
      </trkpt>
      <trkpt lat="42.772224" lon="-0.231062">
        <ele>1922.064</ele>
        <time>2020-07-18T06:31:39Z</time>
      </trkpt>
      <trkpt lat="42.772257" lon="-0.231004">
        <ele>1926.327</ele>
        <time>2020-07-18T06:31:48Z</time>
      </trkpt>
      <trkpt lat="42.772292" lon="-0.230961">
        <ele>1926.643</ele>
        <time>2020-07-18T06:31:54Z</time>
      </trkpt>
      <trkpt lat="42.772298" lon="-0.231031">
        <ele>1924.050</ele>
        <time>2020-07-18T06:32:06Z</time>
      </trkpt>
      <trkpt lat="42.772268" lon="-0.231090">
        <ele>1926.249</ele>
        <time>2020-07-18T06:32:12Z</time>
      </trkpt>
      <trkpt lat="42.772249" lon="-0.231153">
        <ele>1929.546</ele>
        <time>2020-07-18T06:32:18Z</time>
      </trkpt>
      <trkpt lat="42.772270" lon="-0.231218">
        <ele>1930.588</ele>
        <time>2020-07-18T06:32:26Z</time>
      </trkpt>
      <trkpt lat="42.772325" lon="-0.231201">
        <ele>1931.223</ele>
        <time>2020-07-18T06:32:32Z</time>
      </trkpt>
      <trkpt lat="42.772364" lon="-0.231158">
        <ele>1932.083</ele>
        <time>2020-07-18T06:32:38Z</time>
      </trkpt>
      <trkpt lat="42.772396" lon="-0.231100">
        <ele>1930.711</ele>
        <time>2020-07-18T06:32:44Z</time>
      </trkpt>
      <trkpt lat="42.772419" lon="-0.231024">
        <ele>1931.308</ele>
        <time>2020-07-18T06:32:49Z</time>
      </trkpt>
      <trkpt lat="42.772426" lon="-0.230971">
        <ele>1933.227</ele>
        <time>2020-07-18T06:32:54Z</time>
      </trkpt>
      <trkpt lat="42.772428" lon="-0.230911">
        <ele>1934.325</ele>
        <time>2020-07-18T06:33:25Z</time>
      </trkpt>
      <trkpt lat="42.772463" lon="-0.230909">
        <ele>1935.048</ele>
        <time>2020-07-18T06:36:15Z</time>
      </trkpt>
      <trkpt lat="42.772515" lon="-0.230934">
        <ele>1935.424</ele>
        <time>2020-07-18T06:36:24Z</time>
      </trkpt>
      <trkpt lat="42.772552" lon="-0.230974">
        <ele>1931.831</ele>
        <time>2020-07-18T06:36:31Z</time>
      </trkpt>
      <trkpt lat="42.772601" lon="-0.231000">
        <ele>1934.510</ele>
        <time>2020-07-18T06:36:38Z</time>
      </trkpt>
      <trkpt lat="42.772642" lon="-0.231044">
        <ele>1938.187</ele>
        <time>2020-07-18T06:36:45Z</time>
      </trkpt>
      <trkpt lat="42.772684" lon="-0.231090">
        <ele>1938.039</ele>
        <time>2020-07-18T06:36:52Z</time>
      </trkpt>
      <trkpt lat="42.772714" lon="-0.231138">
        <ele>1938.945</ele>
        <time>2020-07-18T06:36:57Z</time>
      </trkpt>
      <trkpt lat="42.772744" lon="-0.231192">
        <ele>1936.147</ele>
        <time>2020-07-18T06:37:04Z</time>
      </trkpt>
      <trkpt lat="42.772779" lon="-0.231233">
        <ele>1937.711</ele>
        <time>2020-07-18T06:37:11Z</time>
      </trkpt>
      <trkpt lat="42.772818" lon="-0.231269">
        <ele>1937.908</ele>
        <time>2020-07-18T06:37:20Z</time>
      </trkpt>
      <trkpt lat="42.772869" lon="-0.231279">
        <ele>1939.539</ele>
        <time>2020-07-18T06:37:31Z</time>
      </trkpt>
      <trkpt lat="42.772916" lon="-0.231257">
        <ele>1938.027</ele>
        <time>2020-07-18T06:37:39Z</time>
      </trkpt>
      <trkpt lat="42.772952" lon="-0.231220">
        <ele>1937.850</ele>
        <time>2020-07-18T06:37:47Z</time>
      </trkpt>
      <trkpt lat="42.772976" lon="-0.231166">
        <ele>1937.176</ele>
        <time>2020-07-18T06:37:56Z</time>
      </trkpt>
      <trkpt lat="42.773005" lon="-0.231116">
        <ele>1936.613</ele>
        <time>2020-07-18T06:38:06Z</time>
      </trkpt>
      <trkpt lat="42.773022" lon="-0.231050">
        <ele>1936.462</ele>
        <time>2020-07-18T06:38:15Z</time>
      </trkpt>
      <trkpt lat="42.773036" lon="-0.230977">
        <ele>1935.859</ele>
        <time>2020-07-18T06:38:23Z</time>
      </trkpt>
      <trkpt lat="42.773069" lon="-0.230927">
        <ele>1934.041</ele>
        <time>2020-07-18T06:38:31Z</time>
      </trkpt>
      <trkpt lat="42.773068" lon="-0.230863">
        <ele>1932.196</ele>
        <time>2020-07-18T06:38:42Z</time>
      </trkpt>
      <trkpt lat="42.773093" lon="-0.230807">
        <ele>1932.131</ele>
        <time>2020-07-18T06:38:49Z</time>
      </trkpt>
      <trkpt lat="42.773133" lon="-0.230767">
        <ele>1930.924</ele>
        <time>2020-07-18T06:39:00Z</time>
      </trkpt>
      <trkpt lat="42.773172" lon="-0.230794">
        <ele>1927.508</ele>
        <time>2020-07-18T06:39:34Z</time>
      </trkpt>
      <trkpt lat="42.773223" lon="-0.230800">
        <ele>1927.374</ele>
        <time>2020-07-18T06:39:41Z</time>
      </trkpt>
      <trkpt lat="42.773267" lon="-0.230771">
        <ele>1927.022</ele>
        <time>2020-07-18T06:39:47Z</time>
      </trkpt>
      <trkpt lat="42.773277" lon="-0.230714">
        <ele>1926.165</ele>
        <time>2020-07-18T06:40:05Z</time>
      </trkpt>
      <trkpt lat="42.773255" lon="-0.230682">
        <ele>1924.351</ele>
        <time>2020-07-18T06:40:17Z</time>
      </trkpt>
      <trkpt lat="42.773245" lon="-0.230623">
        <ele>1920.958</ele>
        <time>2020-07-18T06:40:45Z</time>
      </trkpt>
      <trkpt lat="42.773276" lon="-0.230619">
        <ele>1917.967</ele>
        <time>2020-07-18T06:41:31Z</time>
      </trkpt>
      <trkpt lat="42.773330" lon="-0.230618">
        <ele>1918.194</ele>
        <time>2020-07-18T06:41:35Z</time>
      </trkpt>
      <trkpt lat="42.773378" lon="-0.230619">
        <ele>1918.296</ele>
        <time>2020-07-18T06:41:39Z</time>
      </trkpt>
      <trkpt lat="42.773423" lon="-0.230612">
        <ele>1918.668</ele>
        <time>2020-07-18T06:41:43Z</time>
      </trkpt>
      <trkpt lat="42.773468" lon="-0.230603">
        <ele>1917.642</ele>
        <time>2020-07-18T06:41:49Z</time>
      </trkpt>
      <trkpt lat="42.773518" lon="-0.230595">
        <ele>1919.926</ele>
        <time>2020-07-18T06:41:57Z</time>
      </trkpt>
      <trkpt lat="42.773559" lon="-0.230564">
        <ele>1919.308</ele>
        <time>2020-07-18T06:42:02Z</time>
      </trkpt>
      <trkpt lat="42.773603" lon="-0.230536">
        <ele>1920.391</ele>
        <time>2020-07-18T06:42:08Z</time>
      </trkpt>
      <trkpt lat="42.773650" lon="-0.230533">
        <ele>1920.789</ele>
        <time>2020-07-18T06:42:17Z</time>
      </trkpt>
      <trkpt lat="42.773703" lon="-0.230569">
        <ele>1920.792</ele>
        <time>2020-07-18T06:42:25Z</time>
      </trkpt>
      <trkpt lat="42.773744" lon="-0.230617">
        <ele>1919.858</ele>
        <time>2020-07-18T06:42:31Z</time>
      </trkpt>
      <trkpt lat="42.773789" lon="-0.230642">
        <ele>1920.445</ele>
        <time>2020-07-18T06:42:37Z</time>
      </trkpt>
      <trkpt lat="42.773831" lon="-0.230669">
        <ele>1922.794</ele>
        <time>2020-07-18T06:42:44Z</time>
      </trkpt>
      <trkpt lat="42.773862" lon="-0.230730">
        <ele>1927.231</ele>
        <time>2020-07-18T06:43:34Z</time>
      </trkpt>
      <trkpt lat="42.773904" lon="-0.230773">
        <ele>1928.663</ele>
        <time>2020-07-18T06:43:43Z</time>
      </trkpt>
      <trkpt lat="42.773953" lon="-0.230802">
        <ele>1927.369</ele>
        <time>2020-07-18T06:43:50Z</time>
      </trkpt>
      <trkpt lat="42.773990" lon="-0.230843">
        <ele>1929.304</ele>
        <time>2020-07-18T06:43:56Z</time>
      </trkpt>
      <trkpt lat="42.774033" lon="-0.230876">
        <ele>1928.824</ele>
        <time>2020-07-18T06:44:02Z</time>
      </trkpt>
      <trkpt lat="42.774082" lon="-0.230881">
        <ele>1930.208</ele>
        <time>2020-07-18T06:44:10Z</time>
      </trkpt>
      <trkpt lat="42.774125" lon="-0.230864">
        <ele>1931.181</ele>
        <time>2020-07-18T06:44:16Z</time>
      </trkpt>
      <trkpt lat="42.774136" lon="-0.230801">
        <ele>1931.089</ele>
        <time>2020-07-18T06:44:55Z</time>
      </trkpt>
      <trkpt lat="42.774186" lon="-0.230791">
        <ele>1932.652</ele>
        <time>2020-07-18T06:45:18Z</time>
      </trkpt>
      <trkpt lat="42.774229" lon="-0.230820">
        <ele>1932.718</ele>
        <time>2020-07-18T06:45:29Z</time>
      </trkpt>
      <trkpt lat="42.774270" lon="-0.230785">
        <ele>1933.475</ele>
        <time>2020-07-18T06:45:33Z</time>
      </trkpt>
      <trkpt lat="42.774309" lon="-0.230753">
        <ele>1932.534</ele>
        <time>2020-07-18T06:45:37Z</time>
      </trkpt>
      <trkpt lat="42.774359" lon="-0.230764">
        <ele>1936.261</ele>
        <time>2020-07-18T06:45:42Z</time>
      </trkpt>
      <trkpt lat="42.774413" lon="-0.230761">
        <ele>1936.533</ele>
        <time>2020-07-18T06:45:48Z</time>
      </trkpt>
      <trkpt lat="42.774462" lon="-0.230785">
        <ele>1937.078</ele>
        <time>2020-07-18T06:45:54Z</time>
      </trkpt>
      <trkpt lat="42.774507" lon="-0.230816">
        <ele>1938.133</ele>
        <time>2020-07-18T06:46:01Z</time>
      </trkpt>
      <trkpt lat="42.774543" lon="-0.230850">
        <ele>1937.526</ele>
        <time>2020-07-18T06:46:10Z</time>
      </trkpt>
      <trkpt lat="42.774587" lon="-0.230842">
        <ele>1939.308</ele>
        <time>2020-07-18T06:46:16Z</time>
      </trkpt>
      <trkpt lat="42.774631" lon="-0.230827">
        <ele>1936.732</ele>
        <time>2020-07-18T06:46:24Z</time>
      </trkpt>
      <trkpt lat="42.774687" lon="-0.230830">
        <ele>1942.830</ele>
        <time>2020-07-18T06:46:48Z</time>
      </trkpt>
      <trkpt lat="42.774716" lon="-0.230876">
        <ele>1943.653</ele>
        <time>2020-07-18T06:47:02Z</time>
      </trkpt>
      <trkpt lat="42.774760" lon="-0.230899">
        <ele>1945.549</ele>
        <time>2020-07-18T06:47:15Z</time>
      </trkpt>
      <trkpt lat="42.774808" lon="-0.230890">
        <ele>1944.856</ele>
        <time>2020-07-18T06:47:24Z</time>
      </trkpt>
      <trkpt lat="42.774837" lon="-0.230902">
        <ele>1946.945</ele>
        <time>2020-07-18T06:47:34Z</time>
      </trkpt>
      <trkpt lat="42.774866" lon="-0.230870">
        <ele>1947.012</ele>
        <time>2020-07-18T06:48:35Z</time>
      </trkpt>
      <trkpt lat="42.774912" lon="-0.230874">
        <ele>1947.274</ele>
        <time>2020-07-18T06:48:50Z</time>
      </trkpt>
      <trkpt lat="42.774963" lon="-0.230896">
        <ele>1947.157</ele>
        <time>2020-07-18T06:49:02Z</time>
      </trkpt>
      <trkpt lat="42.775010" lon="-0.230909">
        <ele>1950.900</ele>
        <time>2020-07-18T06:49:09Z</time>
      </trkpt>
      <trkpt lat="42.775056" lon="-0.230928">
        <ele>1951.720</ele>
        <time>2020-07-18T06:49:14Z</time>
      </trkpt>
      <trkpt lat="42.775101" lon="-0.230947">
        <ele>1950.408</ele>
        <time>2020-07-18T06:49:21Z</time>
      </trkpt>
      <trkpt lat="42.775141" lon="-0.230981">
        <ele>1954.180</ele>
        <time>2020-07-18T06:49:31Z</time>
      </trkpt>
      <trkpt lat="42.775189" lon="-0.230986">
        <ele>1954.878</ele>
        <time>2020-07-18T06:49:39Z</time>
      </trkpt>
      <trkpt lat="42.775240" lon="-0.230992">
        <ele>1955.651</ele>
        <time>2020-07-18T06:49:49Z</time>
      </trkpt>
      <trkpt lat="42.775287" lon="-0.230982">
        <ele>1954.877</ele>
        <time>2020-07-18T06:49:58Z</time>
      </trkpt>
      <trkpt lat="42.775336" lon="-0.230970">
        <ele>1954.454</ele>
        <time>2020-07-18T06:50:06Z</time>
      </trkpt>
      <trkpt lat="42.775381" lon="-0.230980">
        <ele>1954.943</ele>
        <time>2020-07-18T06:50:16Z</time>
      </trkpt>
      <trkpt lat="42.775420" lon="-0.231027">
        <ele>1953.220</ele>
        <time>2020-07-18T06:51:09Z</time>
      </trkpt>
      <trkpt lat="42.775470" lon="-0.231014">
        <ele>1952.852</ele>
        <time>2020-07-18T06:51:17Z</time>
      </trkpt>
      <trkpt lat="42.775525" lon="-0.231001">
        <ele>1952.735</ele>
        <time>2020-07-18T06:51:26Z</time>
      </trkpt>
      <trkpt lat="42.775571" lon="-0.230997">
        <ele>1951.486</ele>
        <time>2020-07-18T06:51:32Z</time>
      </trkpt>
      <trkpt lat="42.775623" lon="-0.230996">
        <ele>1951.514</ele>
        <time>2020-07-18T06:51:40Z</time>
      </trkpt>
      <trkpt lat="42.775671" lon="-0.230991">
        <ele>1952.008</ele>
        <time>2020-07-18T06:51:46Z</time>
      </trkpt>
      <trkpt lat="42.775720" lon="-0.231004">
        <ele>1950.738</ele>
        <time>2020-07-18T06:51:54Z</time>
      </trkpt>
      <trkpt lat="42.775766" lon="-0.230969">
        <ele>1949.846</ele>
        <time>2020-07-18T06:52:04Z</time>
      </trkpt>
      <trkpt lat="42.775794" lon="-0.230913">
        <ele>1950.259</ele>
        <time>2020-07-18T06:52:11Z</time>
      </trkpt>
      <trkpt lat="42.775836" lon="-0.230884">
        <ele>1950.375</ele>
        <time>2020-07-18T06:52:18Z</time>
      </trkpt>
      <trkpt lat="42.775870" lon="-0.230892">
        <ele>1950.052</ele>
        <time>2020-07-18T06:52:27Z</time>
      </trkpt>
      <trkpt lat="42.775887" lon="-0.230940">
        <ele>1949.191</ele>
        <time>2020-07-18T06:53:11Z</time>
      </trkpt>
      <trkpt lat="42.775932" lon="-0.230953">
        <ele>1947.548</ele>
        <time>2020-07-18T06:53:26Z</time>
      </trkpt>
      <trkpt lat="42.775978" lon="-0.230970">
        <ele>1946.840</ele>
        <time>2020-07-18T06:53:32Z</time>
      </trkpt>
      <trkpt lat="42.776026" lon="-0.230981">
        <ele>1946.663</ele>
        <time>2020-07-18T06:53:38Z</time>
      </trkpt>
      <trkpt lat="42.776070" lon="-0.230956">
        <ele>1946.844</ele>
        <time>2020-07-18T06:53:43Z</time>
      </trkpt>
      <trkpt lat="42.776118" lon="-0.230935">
        <ele>1945.718</ele>
        <time>2020-07-18T06:53:51Z</time>
      </trkpt>
      <trkpt lat="42.776165" lon="-0.230934">
        <ele>1945.708</ele>
        <time>2020-07-18T06:53:57Z</time>
      </trkpt>
      <trkpt lat="42.776213" lon="-0.230928">
        <ele>1945.471</ele>
        <time>2020-07-18T06:54:04Z</time>
      </trkpt>
      <trkpt lat="42.776265" lon="-0.230940">
        <ele>1944.139</ele>
        <time>2020-07-18T06:54:11Z</time>
      </trkpt>
      <trkpt lat="42.776313" lon="-0.230956">
        <ele>1943.762</ele>
        <time>2020-07-18T06:54:19Z</time>
      </trkpt>
      <trkpt lat="42.776355" lon="-0.230932">
        <ele>1945.018</ele>
        <time>2020-07-18T06:54:25Z</time>
      </trkpt>
      <trkpt lat="42.776397" lon="-0.230898">
        <ele>1945.345</ele>
        <time>2020-07-18T06:54:32Z</time>
      </trkpt>
      <trkpt lat="42.776425" lon="-0.230844">
        <ele>1947.464</ele>
        <time>2020-07-18T06:55:43Z</time>
      </trkpt>
      <trkpt lat="42.776477" lon="-0.230816">
        <ele>1948.261</ele>
        <time>2020-07-18T06:55:50Z</time>
      </trkpt>
      <trkpt lat="42.776526" lon="-0.230829">
        <ele>1949.323</ele>
        <time>2020-07-18T06:55:57Z</time>
      </trkpt>
      <trkpt lat="42.776581" lon="-0.230835">
        <ele>1950.024</ele>
        <time>2020-07-18T06:56:05Z</time>
      </trkpt>
      <trkpt lat="42.776625" lon="-0.230816">
        <ele>1949.504</ele>
        <time>2020-07-18T06:56:10Z</time>
      </trkpt>
      <trkpt lat="42.776674" lon="-0.230820">
        <ele>1951.514</ele>
        <time>2020-07-18T06:56:18Z</time>
      </trkpt>
      <trkpt lat="42.776728" lon="-0.230823">
        <ele>1952.008</ele>
        <time>2020-07-18T06:56:25Z</time>
      </trkpt>
      <trkpt lat="42.776773" lon="-0.230790">
        <ele>1953.857</ele>
        <time>2020-07-18T06:56:34Z</time>
      </trkpt>
      <trkpt lat="42.776824" lon="-0.230772">
        <ele>1954.425</ele>
        <time>2020-07-18T06:56:44Z</time>
      </trkpt>
      <trkpt lat="42.776862" lon="-0.230772">
        <ele>1955.728</ele>
        <time>2020-07-18T06:56:53Z</time>
      </trkpt>
      <trkpt lat="42.776892" lon="-0.230728">
        <ele>1955.784</ele>
        <time>2020-07-18T06:57:02Z</time>
      </trkpt>
      <trkpt lat="42.776920" lon="-0.230692">
        <ele>1955.931</ele>
        <time>2020-07-18T06:57:11Z</time>
      </trkpt>
      <trkpt lat="42.776960" lon="-0.230686">
        <ele>1956.710</ele>
        <time>2020-07-18T06:57:17Z</time>
      </trkpt>
      <trkpt lat="42.776986" lon="-0.230715">
        <ele>1959.837</ele>
        <time>2020-07-18T06:58:33Z</time>
      </trkpt>
      <trkpt lat="42.777019" lon="-0.230760">
        <ele>1962.949</ele>
        <time>2020-07-18T06:58:43Z</time>
      </trkpt>
      <trkpt lat="42.777071" lon="-0.230774">
        <ele>1961.176</ele>
        <time>2020-07-18T06:58:49Z</time>
      </trkpt>
      <trkpt lat="42.777113" lon="-0.230752">
        <ele>1962.590</ele>
        <time>2020-07-18T06:58:56Z</time>
      </trkpt>
      <trkpt lat="42.777143" lon="-0.230700">
        <ele>1963.719</ele>
        <time>2020-07-18T06:59:02Z</time>
      </trkpt>
      <trkpt lat="42.777167" lon="-0.230663">
        <ele>1963.108</ele>
        <time>2020-07-18T06:59:07Z</time>
      </trkpt>
      <trkpt lat="42.777205" lon="-0.230659">
        <ele>1967.212</ele>
        <time>2020-07-18T06:59:17Z</time>
      </trkpt>
      <trkpt lat="42.777236" lon="-0.230696">
        <ele>1965.820</ele>
        <time>2020-07-18T06:59:24Z</time>
      </trkpt>
      <trkpt lat="42.777277" lon="-0.230702">
        <ele>1969.153</ele>
        <time>2020-07-18T06:59:33Z</time>
      </trkpt>
      <trkpt lat="42.777319" lon="-0.230679">
        <ele>1971.259</ele>
        <time>2020-07-18T06:59:48Z</time>
      </trkpt>
      <trkpt lat="42.777362" lon="-0.230690">
        <ele>1971.716</ele>
        <time>2020-07-18T06:59:59Z</time>
      </trkpt>
      <trkpt lat="42.777399" lon="-0.230661">
        <ele>1973.465</ele>
        <time>2020-07-18T07:00:14Z</time>
      </trkpt>
      <trkpt lat="42.777434" lon="-0.230619">
        <ele>1974.842</ele>
        <time>2020-07-18T07:00:21Z</time>
      </trkpt>
      <trkpt lat="42.777478" lon="-0.230574">
        <ele>1974.124</ele>
        <time>2020-07-18T07:00:28Z</time>
      </trkpt>
      <trkpt lat="42.777521" lon="-0.230553">
        <ele>1975.671</ele>
        <time>2020-07-18T07:00:36Z</time>
      </trkpt>
      <trkpt lat="42.777570" lon="-0.230535">
        <ele>1977.341</ele>
        <time>2020-07-18T07:00:45Z</time>
      </trkpt>
      <trkpt lat="42.777600" lon="-0.230540">
        <ele>1977.915</ele>
        <time>2020-07-18T07:00:57Z</time>
      </trkpt>
      <trkpt lat="42.777618" lon="-0.230577">
        <ele>1976.208</ele>
        <time>2020-07-18T07:01:05Z</time>
      </trkpt>
      <trkpt lat="42.777669" lon="-0.230597">
        <ele>1980.362</ele>
        <time>2020-07-18T07:01:16Z</time>
      </trkpt>
      <trkpt lat="42.777710" lon="-0.230571">
        <ele>1979.930</ele>
        <time>2020-07-18T07:01:23Z</time>
      </trkpt>
      <trkpt lat="42.777752" lon="-0.230557">
        <ele>1983.023</ele>
        <time>2020-07-18T07:01:32Z</time>
      </trkpt>
      <trkpt lat="42.777786" lon="-0.230583">
        <ele>1984.069</ele>
        <time>2020-07-18T07:01:41Z</time>
      </trkpt>
      <trkpt lat="42.777792" lon="-0.230646">
        <ele>1983.996</ele>
        <time>2020-07-18T07:01:49Z</time>
      </trkpt>
      <trkpt lat="42.777822" lon="-0.230693">
        <ele>1985.445</ele>
        <time>2020-07-18T07:02:02Z</time>
      </trkpt>
      <trkpt lat="42.777867" lon="-0.230697">
        <ele>1984.952</ele>
        <time>2020-07-18T07:02:09Z</time>
      </trkpt>
      <trkpt lat="42.777895" lon="-0.230745">
        <ele>1987.634</ele>
        <time>2020-07-18T07:02:18Z</time>
      </trkpt>
      <trkpt lat="42.777919" lon="-0.230800">
        <ele>1989.449</ele>
        <time>2020-07-18T07:02:28Z</time>
      </trkpt>
      <trkpt lat="42.777913" lon="-0.230861">
        <ele>1990.102</ele>
        <time>2020-07-18T07:02:39Z</time>
      </trkpt>
      <trkpt lat="42.777893" lon="-0.230916">
        <ele>1991.522</ele>
        <time>2020-07-18T07:02:47Z</time>
      </trkpt>
      <trkpt lat="42.777874" lon="-0.230975">
        <ele>1992.108</ele>
        <time>2020-07-18T07:03:06Z</time>
      </trkpt>
      <trkpt lat="42.777859" lon="-0.231038">
        <ele>1992.429</ele>
        <time>2020-07-18T07:03:18Z</time>
      </trkpt>
      <trkpt lat="42.777822" lon="-0.231075">
        <ele>1993.817</ele>
        <time>2020-07-18T07:03:30Z</time>
      </trkpt>
      <trkpt lat="42.777792" lon="-0.231122">
        <ele>1995.820</ele>
        <time>2020-07-18T07:03:38Z</time>
      </trkpt>
      <trkpt lat="42.777791" lon="-0.231195">
        <ele>1995.466</ele>
        <time>2020-07-18T07:03:45Z</time>
      </trkpt>
      <trkpt lat="42.777800" lon="-0.231248">
        <ele>1998.043</ele>
        <time>2020-07-18T07:03:55Z</time>
      </trkpt>
      <trkpt lat="42.777828" lon="-0.231278">
        <ele>2000.332</ele>
        <time>2020-07-18T07:04:06Z</time>
      </trkpt>
      <trkpt lat="42.777874" lon="-0.231257">
        <ele>2000.719</ele>
        <time>2020-07-18T07:04:16Z</time>
      </trkpt>
      <trkpt lat="42.777909" lon="-0.231219">
        <ele>2001.081</ele>
        <time>2020-07-18T07:04:23Z</time>
      </trkpt>
      <trkpt lat="42.777943" lon="-0.231179">
        <ele>2002.939</ele>
        <time>2020-07-18T07:04:29Z</time>
      </trkpt>
      <trkpt lat="42.777983" lon="-0.231131">
        <ele>2002.301</ele>
        <time>2020-07-18T07:04:36Z</time>
      </trkpt>
      <trkpt lat="42.778033" lon="-0.231124">
        <ele>2004.021</ele>
        <time>2020-07-18T07:04:43Z</time>
      </trkpt>
      <trkpt lat="42.778077" lon="-0.231093">
        <ele>2003.108</ele>
        <time>2020-07-18T07:04:51Z</time>
      </trkpt>
      <trkpt lat="42.778122" lon="-0.231076">
        <ele>2005.098</ele>
        <time>2020-07-18T07:04:57Z</time>
      </trkpt>
      <trkpt lat="42.778159" lon="-0.231054">
        <ele>2005.366</ele>
        <time>2020-07-18T07:05:12Z</time>
      </trkpt>
      <trkpt lat="42.778199" lon="-0.231070">
        <ele>2008.239</ele>
        <time>2020-07-18T07:05:19Z</time>
      </trkpt>
      <trkpt lat="42.778250" lon="-0.231065">
        <ele>2009.165</ele>
        <time>2020-07-18T07:05:26Z</time>
      </trkpt>
      <trkpt lat="42.778248" lon="-0.231111">
        <ele>2010.132</ele>
        <time>2020-07-18T07:05:57Z</time>
      </trkpt>
      <trkpt lat="42.778225" lon="-0.231156">
        <ele>2009.661</ele>
        <time>2020-07-18T07:07:18Z</time>
      </trkpt>
      <trkpt lat="42.778205" lon="-0.231217">
        <ele>2012.038</ele>
        <time>2020-07-18T07:07:26Z</time>
      </trkpt>
      <trkpt lat="42.778197" lon="-0.231280">
        <ele>2014.590</ele>
        <time>2020-07-18T07:07:33Z</time>
      </trkpt>
      <trkpt lat="42.778176" lon="-0.231349">
        <ele>2014.489</ele>
        <time>2020-07-18T07:07:39Z</time>
      </trkpt>
      <trkpt lat="42.778158" lon="-0.231411">
        <ele>2013.706</ele>
        <time>2020-07-18T07:07:52Z</time>
      </trkpt>
      <trkpt lat="42.778141" lon="-0.231476">
        <ele>2018.126</ele>
        <time>2020-07-18T07:08:03Z</time>
      </trkpt>
      <trkpt lat="42.778131" lon="-0.231539">
        <ele>2017.708</ele>
        <time>2020-07-18T07:08:12Z</time>
      </trkpt>
      <trkpt lat="42.778119" lon="-0.231602">
        <ele>2020.713</ele>
        <time>2020-07-18T07:08:21Z</time>
      </trkpt>
      <trkpt lat="42.778101" lon="-0.231667">
        <ele>2020.061</ele>
        <time>2020-07-18T07:08:32Z</time>
      </trkpt>
      <trkpt lat="42.778132" lon="-0.231727">
        <ele>2022.984</ele>
        <time>2020-07-18T07:08:38Z</time>
      </trkpt>
      <trkpt lat="42.778183" lon="-0.231704">
        <ele>2022.290</ele>
        <time>2020-07-18T07:08:45Z</time>
      </trkpt>
      <trkpt lat="42.778210" lon="-0.231648">
        <ele>2024.327</ele>
        <time>2020-07-18T07:08:51Z</time>
      </trkpt>
      <trkpt lat="42.778234" lon="-0.231594">
        <ele>2024.856</ele>
        <time>2020-07-18T07:08:59Z</time>
      </trkpt>
      <trkpt lat="42.778266" lon="-0.231550">
        <ele>2026.513</ele>
        <time>2020-07-18T07:09:08Z</time>
      </trkpt>
      <trkpt lat="42.778311" lon="-0.231518">
        <ele>2027.185</ele>
        <time>2020-07-18T07:09:17Z</time>
      </trkpt>
      <trkpt lat="42.778356" lon="-0.231517">
        <ele>2027.091</ele>
        <time>2020-07-18T07:09:24Z</time>
      </trkpt>
      <trkpt lat="42.778401" lon="-0.231520">
        <ele>2028.481</ele>
        <time>2020-07-18T07:09:33Z</time>
      </trkpt>
      <trkpt lat="42.778401" lon="-0.231602">
        <ele>2031.119</ele>
        <time>2020-07-18T07:10:58Z</time>
      </trkpt>
      <trkpt lat="42.778399" lon="-0.231678">
        <ele>2035.308</ele>
        <time>2020-07-18T07:11:03Z</time>
      </trkpt>
      <trkpt lat="42.778394" lon="-0.231739">
        <ele>2031.484</ele>
        <time>2020-07-18T07:11:12Z</time>
      </trkpt>
      <trkpt lat="42.778376" lon="-0.231803">
        <ele>2036.522</ele>
        <time>2020-07-18T07:11:22Z</time>
      </trkpt>
      <trkpt lat="42.778343" lon="-0.231861">
        <ele>2039.055</ele>
        <time>2020-07-18T07:11:33Z</time>
      </trkpt>
      <trkpt lat="42.778306" lon="-0.231900">
        <ele>2040.111</ele>
        <time>2020-07-18T07:11:39Z</time>
      </trkpt>
      <trkpt lat="42.778281" lon="-0.231955">
        <ele>2041.548</ele>
        <time>2020-07-18T07:11:47Z</time>
      </trkpt>
      <trkpt lat="42.778286" lon="-0.232017">
        <ele>2039.027</ele>
        <time>2020-07-18T07:11:53Z</time>
      </trkpt>
      <trkpt lat="42.778333" lon="-0.231996">
        <ele>2041.224</ele>
        <time>2020-07-18T07:12:00Z</time>
      </trkpt>
      <trkpt lat="42.778389" lon="-0.231966">
        <ele>2044.326</ele>
        <time>2020-07-18T07:12:08Z</time>
      </trkpt>
      <trkpt lat="42.778429" lon="-0.231917">
        <ele>2042.119</ele>
        <time>2020-07-18T07:12:15Z</time>
      </trkpt>
      <trkpt lat="42.778444" lon="-0.231855">
        <ele>2045.309</ele>
        <time>2020-07-18T07:12:23Z</time>
      </trkpt>
      <trkpt lat="42.778468" lon="-0.231804">
        <ele>2045.619</ele>
        <time>2020-07-18T07:12:58Z</time>
      </trkpt>
      <trkpt lat="42.778511" lon="-0.231783">
        <ele>2045.408</ele>
        <time>2020-07-18T07:13:04Z</time>
      </trkpt>
      <trkpt lat="42.778504" lon="-0.231846">
        <ele>2046.226</ele>
        <time>2020-07-18T07:13:56Z</time>
      </trkpt>
      <trkpt lat="42.778475" lon="-0.231906">
        <ele>2047.564</ele>
        <time>2020-07-18T07:14:02Z</time>
      </trkpt>
      <trkpt lat="42.778462" lon="-0.231967">
        <ele>2049.297</ele>
        <time>2020-07-18T07:14:06Z</time>
      </trkpt>
      <trkpt lat="42.778444" lon="-0.232042">
        <ele>2050.633</ele>
        <time>2020-07-18T07:14:11Z</time>
      </trkpt>
      <trkpt lat="42.778442" lon="-0.232106">
        <ele>2051.140</ele>
        <time>2020-07-18T07:14:16Z</time>
      </trkpt>
      <trkpt lat="42.778464" lon="-0.232167">
        <ele>2051.789</ele>
        <time>2020-07-18T07:14:24Z</time>
      </trkpt>
      <trkpt lat="42.778509" lon="-0.232153">
        <ele>2053.026</ele>
        <time>2020-07-18T07:14:33Z</time>
      </trkpt>
      <trkpt lat="42.778542" lon="-0.232105">
        <ele>2054.458</ele>
        <time>2020-07-18T07:14:43Z</time>
      </trkpt>
      <trkpt lat="42.778549" lon="-0.232168">
        <ele>2056.097</ele>
        <time>2020-07-18T07:15:03Z</time>
      </trkpt>
      <trkpt lat="42.778546" lon="-0.232232">
        <ele>2058.123</ele>
        <time>2020-07-18T07:15:14Z</time>
      </trkpt>
      <trkpt lat="42.778535" lon="-0.232296">
        <ele>2059.225</ele>
        <time>2020-07-18T07:15:25Z</time>
      </trkpt>
      <trkpt lat="42.778535" lon="-0.232359">
        <ele>2059.508</ele>
        <time>2020-07-18T07:15:37Z</time>
      </trkpt>
      <trkpt lat="42.778528" lon="-0.232426">
        <ele>2061.234</ele>
        <time>2020-07-18T07:15:48Z</time>
      </trkpt>
      <trkpt lat="42.778497" lon="-0.232481">
        <ele>2060.652</ele>
        <time>2020-07-18T07:16:05Z</time>
      </trkpt>
      <trkpt lat="42.778461" lon="-0.232532">
        <ele>2063.865</ele>
        <time>2020-07-18T07:16:17Z</time>
      </trkpt>
      <trkpt lat="42.778439" lon="-0.232594">
        <ele>2066.471</ele>
        <time>2020-07-18T07:16:26Z</time>
      </trkpt>
      <trkpt lat="42.778411" lon="-0.232642">
        <ele>2065.528</ele>
        <time>2020-07-18T07:16:35Z</time>
      </trkpt>
      <trkpt lat="42.778454" lon="-0.232623">
        <ele>2067.957</ele>
        <time>2020-07-18T07:16:42Z</time>
      </trkpt>
      <trkpt lat="42.778482" lon="-0.232599">
        <ele>2068.464</ele>
        <time>2020-07-18T07:16:51Z</time>
      </trkpt>
      <trkpt lat="42.778508" lon="-0.232568">
        <ele>2070.486</ele>
        <time>2020-07-18T07:17:41Z</time>
      </trkpt>
      <trkpt lat="42.778543" lon="-0.232537">
        <ele>2070.313</ele>
        <time>2020-07-18T07:17:54Z</time>
      </trkpt>
      <trkpt lat="42.778585" lon="-0.232511">
        <ele>2070.443</ele>
        <time>2020-07-18T07:18:02Z</time>
      </trkpt>
      <trkpt lat="42.778564" lon="-0.232585">
        <ele>2072.707</ele>
        <time>2020-07-18T07:18:11Z</time>
      </trkpt>
      <trkpt lat="42.778536" lon="-0.232637">
        <ele>2069.908</ele>
        <time>2020-07-18T07:18:20Z</time>
      </trkpt>
      <trkpt lat="42.778521" lon="-0.232693">
        <ele>2075.096</ele>
        <time>2020-07-18T07:18:27Z</time>
      </trkpt>
      <trkpt lat="42.778491" lon="-0.232746">
        <ele>2075.564</ele>
        <time>2020-07-18T07:18:33Z</time>
      </trkpt>
      <trkpt lat="42.778472" lon="-0.232790">
        <ele>2076.887</ele>
        <time>2020-07-18T07:18:39Z</time>
      </trkpt>
      <trkpt lat="42.778497" lon="-0.232805">
        <ele>2075.613</ele>
        <time>2020-07-18T07:18:54Z</time>
      </trkpt>
      <trkpt lat="42.778533" lon="-0.232818">
        <ele>2078.190</ele>
        <time>2020-07-18T07:19:05Z</time>
      </trkpt>
      <trkpt lat="42.778578" lon="-0.232823">
        <ele>2080.769</ele>
        <time>2020-07-18T07:19:14Z</time>
      </trkpt>
      <trkpt lat="42.778613" lon="-0.232780">
        <ele>2081.076</ele>
        <time>2020-07-18T07:19:23Z</time>
      </trkpt>
      <trkpt lat="42.778625" lon="-0.232708">
        <ele>2083.078</ele>
        <time>2020-07-18T07:19:30Z</time>
      </trkpt>
      <trkpt lat="42.778677" lon="-0.232668">
        <ele>2084.378</ele>
        <time>2020-07-18T07:19:37Z</time>
      </trkpt>
      <trkpt lat="42.778721" lon="-0.232643">
        <ele>2084.233</ele>
        <time>2020-07-18T07:19:42Z</time>
      </trkpt>
      <trkpt lat="42.778770" lon="-0.232640">
        <ele>2085.526</ele>
        <time>2020-07-18T07:19:47Z</time>
      </trkpt>
      <trkpt lat="42.778822" lon="-0.232642">
        <ele>2086.108</ele>
        <time>2020-07-18T07:19:53Z</time>
      </trkpt>
      <trkpt lat="42.778858" lon="-0.232602">
        <ele>2086.282</ele>
        <time>2020-07-18T07:20:03Z</time>
      </trkpt>
      <trkpt lat="42.778895" lon="-0.232561">
        <ele>2086.640</ele>
        <time>2020-07-18T07:20:13Z</time>
      </trkpt>
      <trkpt lat="42.778903" lon="-0.232498">
        <ele>2087.323</ele>
        <time>2020-07-18T07:20:21Z</time>
      </trkpt>
      <trkpt lat="42.778905" lon="-0.232421">
        <ele>2089.959</ele>
        <time>2020-07-18T07:20:28Z</time>
      </trkpt>
      <trkpt lat="42.778915" lon="-0.232338">
        <ele>2093.716</ele>
        <time>2020-07-18T07:22:25Z</time>
      </trkpt>
      <trkpt lat="42.778939" lon="-0.232278">
        <ele>2093.265</ele>
        <time>2020-07-18T07:22:31Z</time>
      </trkpt>
      <trkpt lat="42.778970" lon="-0.232215">
        <ele>2092.892</ele>
        <time>2020-07-18T07:22:36Z</time>
      </trkpt>
      <trkpt lat="42.779009" lon="-0.232168">
        <ele>2093.144</ele>
        <time>2020-07-18T07:22:40Z</time>
      </trkpt>
      <trkpt lat="42.779047" lon="-0.232126">
        <ele>2094.638</ele>
        <time>2020-07-18T07:22:48Z</time>
      </trkpt>
      <trkpt lat="42.779071" lon="-0.232070">
        <ele>2097.170</ele>
        <time>2020-07-18T07:22:55Z</time>
      </trkpt>
      <trkpt lat="42.779100" lon="-0.232017">
        <ele>2098.817</ele>
        <time>2020-07-18T07:23:03Z</time>
      </trkpt>
      <trkpt lat="42.779110" lon="-0.231951">
        <ele>2099.208</ele>
        <time>2020-07-18T07:23:09Z</time>
      </trkpt>
      <trkpt lat="42.779144" lon="-0.231894">
        <ele>2100.248</ele>
        <time>2020-07-18T07:23:16Z</time>
      </trkpt>
      <trkpt lat="42.779181" lon="-0.231847">
        <ele>2100.986</ele>
        <time>2020-07-18T07:23:25Z</time>
      </trkpt>
      <trkpt lat="42.779213" lon="-0.231797">
        <ele>2101.639</ele>
        <time>2020-07-18T07:23:36Z</time>
      </trkpt>
      <trkpt lat="42.779250" lon="-0.231772">
        <ele>2103.125</ele>
        <time>2020-07-18T07:23:45Z</time>
      </trkpt>
      <trkpt lat="42.779274" lon="-0.231726">
        <ele>2103.012</ele>
        <time>2020-07-18T07:23:55Z</time>
      </trkpt>
      <trkpt lat="42.779286" lon="-0.231662">
        <ele>2106.391</ele>
        <time>2020-07-18T07:24:04Z</time>
      </trkpt>
      <trkpt lat="42.779327" lon="-0.231632">
        <ele>2106.658</ele>
        <time>2020-07-18T07:24:14Z</time>
      </trkpt>
      <trkpt lat="42.779360" lon="-0.231586">
        <ele>2107.780</ele>
        <time>2020-07-18T07:24:23Z</time>
      </trkpt>
      <trkpt lat="42.779389" lon="-0.231523">
        <ele>2108.057</ele>
        <time>2020-07-18T07:24:33Z</time>
      </trkpt>
      <trkpt lat="42.779407" lon="-0.231455">
        <ele>2108.700</ele>
        <time>2020-07-18T07:24:40Z</time>
      </trkpt>
      <trkpt lat="42.779409" lon="-0.231392">
        <ele>2111.620</ele>
        <time>2020-07-18T07:24:47Z</time>
      </trkpt>
      <trkpt lat="42.779423" lon="-0.231339">
        <ele>2113.408</ele>
        <time>2020-07-18T07:26:43Z</time>
      </trkpt>
      <trkpt lat="42.779465" lon="-0.231308">
        <ele>2112.990</ele>
        <time>2020-07-18T07:26:51Z</time>
      </trkpt>
      <trkpt lat="42.779512" lon="-0.231271">
        <ele>2115.428</ele>
        <time>2020-07-18T07:26:58Z</time>
      </trkpt>
      <trkpt lat="42.779550" lon="-0.231221">
        <ele>2114.261</ele>
        <time>2020-07-18T07:27:03Z</time>
      </trkpt>
      <trkpt lat="42.779579" lon="-0.231155">
        <ele>2116.417</ele>
        <time>2020-07-18T07:27:09Z</time>
      </trkpt>
      <trkpt lat="42.779610" lon="-0.231100">
        <ele>2117.244</ele>
        <time>2020-07-18T07:27:17Z</time>
      </trkpt>
      <trkpt lat="42.779635" lon="-0.231046">
        <ele>2117.363</ele>
        <time>2020-07-18T07:27:23Z</time>
      </trkpt>
      <trkpt lat="42.779674" lon="-0.231010">
        <ele>2116.980</ele>
        <time>2020-07-18T07:27:31Z</time>
      </trkpt>
      <trkpt lat="42.779717" lon="-0.230999">
        <ele>2118.582</ele>
        <time>2020-07-18T07:27:40Z</time>
      </trkpt>
      <trkpt lat="42.779759" lon="-0.230957">
        <ele>2120.969</ele>
        <time>2020-07-18T07:27:47Z</time>
      </trkpt>
      <trkpt lat="42.779807" lon="-0.230946">
        <ele>2122.104</ele>
        <time>2020-07-18T07:27:55Z</time>
      </trkpt>
      <trkpt lat="42.779851" lon="-0.230932">
        <ele>2123.424</ele>
        <time>2020-07-18T07:28:10Z</time>
      </trkpt>
      <trkpt lat="42.779897" lon="-0.230936">
        <ele>2125.408</ele>
        <time>2020-07-18T07:28:21Z</time>
      </trkpt>
      <trkpt lat="42.779935" lon="-0.230898">
        <ele>2125.841</ele>
        <time>2020-07-18T07:28:29Z</time>
      </trkpt>
      <trkpt lat="42.779973" lon="-0.230856">
        <ele>2125.559</ele>
        <time>2020-07-18T07:28:36Z</time>
      </trkpt>
      <trkpt lat="42.780013" lon="-0.230810">
        <ele>2126.992</ele>
        <time>2020-07-18T07:28:43Z</time>
      </trkpt>
      <trkpt lat="42.780045" lon="-0.230757">
        <ele>2125.758</ele>
        <time>2020-07-18T07:28:49Z</time>
      </trkpt>
      <trkpt lat="42.780085" lon="-0.230727">
        <ele>2125.465</ele>
        <time>2020-07-18T07:28:55Z</time>
      </trkpt>
      <trkpt lat="42.780125" lon="-0.230685">
        <ele>2126.644</ele>
        <time>2020-07-18T07:29:01Z</time>
      </trkpt>
      <trkpt lat="42.780144" lon="-0.230620">
        <ele>2127.821</ele>
        <time>2020-07-18T07:29:08Z</time>
      </trkpt>
      <trkpt lat="42.780170" lon="-0.230553">
        <ele>2128.343</ele>
        <time>2020-07-18T07:29:14Z</time>
      </trkpt>
      <trkpt lat="42.780207" lon="-0.230516">
        <ele>2129.867</ele>
        <time>2020-07-18T07:29:21Z</time>
      </trkpt>
      <trkpt lat="42.780237" lon="-0.230468">
        <ele>2129.481</ele>
        <time>2020-07-18T07:29:30Z</time>
      </trkpt>
      <trkpt lat="42.780253" lon="-0.230401">
        <ele>2130.819</ele>
        <time>2020-07-18T07:30:34Z</time>
      </trkpt>
      <trkpt lat="42.780295" lon="-0.230378">
        <ele>2132.508</ele>
        <time>2020-07-18T07:30:40Z</time>
      </trkpt>
      <trkpt lat="42.780325" lon="-0.230323">
        <ele>2128.971</ele>
        <time>2020-07-18T07:30:46Z</time>
      </trkpt>
      <trkpt lat="42.780362" lon="-0.230271">
        <ele>2134.949</ele>
        <time>2020-07-18T07:30:51Z</time>
      </trkpt>
      <trkpt lat="42.780377" lon="-0.230203">
        <ele>2133.422</ele>
        <time>2020-07-18T07:30:58Z</time>
      </trkpt>
      <trkpt lat="42.780392" lon="-0.230127">
        <ele>2136.068</ele>
        <time>2020-07-18T07:31:05Z</time>
      </trkpt>
      <trkpt lat="42.780399" lon="-0.230066">
        <ele>2135.835</ele>
        <time>2020-07-18T07:31:14Z</time>
      </trkpt>
      <trkpt lat="42.780409" lon="-0.230001">
        <ele>2135.274</ele>
        <time>2020-07-18T07:31:21Z</time>
      </trkpt>
      <trkpt lat="42.780434" lon="-0.229944">
        <ele>2135.221</ele>
        <time>2020-07-18T07:31:29Z</time>
      </trkpt>
      <trkpt lat="42.780440" lon="-0.229883">
        <ele>2136.953</ele>
        <time>2020-07-18T07:31:36Z</time>
      </trkpt>
      <trkpt lat="42.780464" lon="-0.229830">
        <ele>2139.296</ele>
        <time>2020-07-18T07:31:43Z</time>
      </trkpt>
      <trkpt lat="42.780472" lon="-0.229776">
        <ele>2140.831</ele>
        <time>2020-07-18T07:31:52Z</time>
      </trkpt>
      <trkpt lat="42.780480" lon="-0.229707">
        <ele>2142.024</ele>
        <time>2020-07-18T07:32:00Z</time>
      </trkpt>
      <trkpt lat="42.780506" lon="-0.229653">
        <ele>2140.308</ele>
        <time>2020-07-18T07:32:11Z</time>
      </trkpt>
      <trkpt lat="42.780538" lon="-0.229697">
        <ele>2143.774</ele>
        <time>2020-07-18T07:32:24Z</time>
      </trkpt>
      <trkpt lat="42.780530" lon="-0.229761">
        <ele>2142.852</ele>
        <time>2020-07-18T07:33:13Z</time>
      </trkpt>
      <trkpt lat="42.780537" lon="-0.229816">
        <ele>2144.125</ele>
        <time>2020-07-18T07:33:20Z</time>
      </trkpt>
      <trkpt lat="42.780580" lon="-0.229858">
        <ele>2143.651</ele>
        <time>2020-07-18T07:33:25Z</time>
      </trkpt>
      <trkpt lat="42.780627" lon="-0.229834">
        <ele>2147.298</ele>
        <time>2020-07-18T07:33:34Z</time>
      </trkpt>
      <trkpt lat="42.780641" lon="-0.229774">
        <ele>2148.597</ele>
        <time>2020-07-18T07:33:41Z</time>
      </trkpt>
      <trkpt lat="42.780641" lon="-0.229708">
        <ele>2148.684</ele>
        <time>2020-07-18T07:33:48Z</time>
      </trkpt>
      <trkpt lat="42.780633" lon="-0.229644">
        <ele>2149.136</ele>
        <time>2020-07-18T07:33:53Z</time>
      </trkpt>
      <trkpt lat="42.780617" lon="-0.229585">
        <ele>2145.646</ele>
        <time>2020-07-18T07:33:59Z</time>
      </trkpt>
      <trkpt lat="42.780624" lon="-0.229517">
        <ele>2149.788</ele>
        <time>2020-07-18T07:34:05Z</time>
      </trkpt>
      <trkpt lat="42.780653" lon="-0.229460">
        <ele>2149.916</ele>
        <time>2020-07-18T07:34:11Z</time>
      </trkpt>
      <trkpt lat="42.780700" lon="-0.229423">
        <ele>2149.308</ele>
        <time>2020-07-18T07:34:19Z</time>
      </trkpt>
      <trkpt lat="42.780725" lon="-0.229371">
        <ele>2151.419</ele>
        <time>2020-07-18T07:34:24Z</time>
      </trkpt>
      <trkpt lat="42.780744" lon="-0.229314">
        <ele>2152.917</ele>
        <time>2020-07-18T07:34:32Z</time>
      </trkpt>
      <trkpt lat="42.780779" lon="-0.229271">
        <ele>2155.080</ele>
        <time>2020-07-18T07:42:05Z</time>
      </trkpt>
      <trkpt lat="42.780823" lon="-0.229277">
        <ele>2153.846</ele>
        <time>2020-07-18T07:42:28Z</time>
      </trkpt>
      <trkpt lat="42.780844" lon="-0.229331">
        <ele>2158.253</ele>
        <time>2020-07-18T07:42:43Z</time>
      </trkpt>
      <trkpt lat="42.780866" lon="-0.229387">
        <ele>2155.732</ele>
        <time>2020-07-18T07:42:54Z</time>
      </trkpt>
      <trkpt lat="42.780881" lon="-0.229447">
        <ele>2154.679</ele>
        <time>2020-07-18T07:43:01Z</time>
      </trkpt>
      <trkpt lat="42.780905" lon="-0.229506">
        <ele>2162.091</ele>
        <time>2020-07-18T07:43:08Z</time>
      </trkpt>
      <trkpt lat="42.780927" lon="-0.229564">
        <ele>2156.894</ele>
        <time>2020-07-18T07:43:15Z</time>
      </trkpt>
      <trkpt lat="42.780924" lon="-0.229628">
        <ele>2163.957</ele>
        <time>2020-07-18T07:43:22Z</time>
      </trkpt>
      <trkpt lat="42.780926" lon="-0.229697">
        <ele>2163.222</ele>
        <time>2020-07-18T07:43:29Z</time>
      </trkpt>
      <trkpt lat="42.780966" lon="-0.229719">
        <ele>2165.108</ele>
        <time>2020-07-18T07:43:40Z</time>
      </trkpt>
      <trkpt lat="42.780991" lon="-0.229666">
        <ele>2163.024</ele>
        <time>2020-07-18T07:43:46Z</time>
      </trkpt>
      <trkpt lat="42.781009" lon="-0.229607">
        <ele>2165.972</ele>
        <time>2020-07-18T07:43:59Z</time>
      </trkpt>
      <trkpt lat="42.781026" lon="-0.229531">
        <ele>2167.395</ele>
        <time>2020-07-18T07:44:27Z</time>
      </trkpt>
      <trkpt lat="42.781006" lon="-0.229447">
        <ele>2167.551</ele>
        <time>2020-07-18T07:44:33Z</time>
      </trkpt>
      <trkpt lat="42.780990" lon="-0.229385">
        <ele>2168.038</ele>
        <time>2020-07-18T07:44:39Z</time>
      </trkpt>
      <trkpt lat="42.780990" lon="-0.229310">
        <ele>2166.127</ele>
        <time>2020-07-18T07:44:48Z</time>
      </trkpt>
      <trkpt lat="42.781011" lon="-0.229251">
        <ele>2170.924</ele>
        <time>2020-07-18T07:44:55Z</time>
      </trkpt>
      <trkpt lat="42.781032" lon="-0.229195">
        <ele>2167.866</ele>
        <time>2020-07-18T07:46:22Z</time>
      </trkpt>
      <trkpt lat="42.781049" lon="-0.229123">
        <ele>2166.588</ele>
        <time>2020-07-18T07:46:28Z</time>
      </trkpt>
      <trkpt lat="42.781075" lon="-0.229054">
        <ele>2166.024</ele>
        <time>2020-07-18T07:46:32Z</time>
      </trkpt>
      <trkpt lat="42.781094" lon="-0.228988">
        <ele>2164.626</ele>
        <time>2020-07-18T07:46:37Z</time>
      </trkpt>
      <trkpt lat="42.781113" lon="-0.228930">
        <ele>2164.308</ele>
        <time>2020-07-18T07:46:42Z</time>
      </trkpt>
      <trkpt lat="42.781144" lon="-0.228883">
        <ele>2164.383</ele>
        <time>2020-07-18T07:46:49Z</time>
      </trkpt>
      <trkpt lat="42.781183" lon="-0.228839">
        <ele>2163.751</ele>
        <time>2020-07-18T07:46:57Z</time>
      </trkpt>
      <trkpt lat="42.781219" lon="-0.228778">
        <ele>2163.784</ele>
        <time>2020-07-18T07:47:03Z</time>
      </trkpt>
      <trkpt lat="42.781264" lon="-0.228784">
        <ele>2164.590</ele>
        <time>2020-07-18T07:47:38Z</time>
      </trkpt>
      <trkpt lat="42.781303" lon="-0.228829">
        <ele>2165.067</ele>
        <time>2020-07-18T07:47:44Z</time>
      </trkpt>
      <trkpt lat="42.781355" lon="-0.228863">
        <ele>2165.286</ele>
        <time>2020-07-18T07:47:50Z</time>
      </trkpt>
      <trkpt lat="42.781406" lon="-0.228865">
        <ele>2165.523</ele>
        <time>2020-07-18T07:47:57Z</time>
      </trkpt>
      <trkpt lat="42.781462" lon="-0.228864">
        <ele>2165.665</ele>
        <time>2020-07-18T07:48:04Z</time>
      </trkpt>
      <trkpt lat="42.781509" lon="-0.228856">
        <ele>2167.676</ele>
        <time>2020-07-18T07:48:10Z</time>
      </trkpt>
      <trkpt lat="42.781556" lon="-0.228844">
        <ele>2166.490</ele>
        <time>2020-07-18T07:48:18Z</time>
      </trkpt>
      <trkpt lat="42.781601" lon="-0.228818">
        <ele>2167.319</ele>
        <time>2020-07-18T07:48:25Z</time>
      </trkpt>
      <trkpt lat="42.781646" lon="-0.228792">
        <ele>2169.008</ele>
        <time>2020-07-18T07:48:32Z</time>
      </trkpt>
      <trkpt lat="42.781683" lon="-0.228756">
        <ele>2169.242</ele>
        <time>2020-07-18T07:48:38Z</time>
      </trkpt>
      <trkpt lat="42.781732" lon="-0.228723">
        <ele>2166.760</ele>
        <time>2020-07-18T07:48:46Z</time>
      </trkpt>
      <trkpt lat="42.781770" lon="-0.228686">
        <ele>2170.223</ele>
        <time>2020-07-18T07:48:52Z</time>
      </trkpt>
      <trkpt lat="42.781799" lon="-0.228639">
        <ele>2170.819</ele>
        <time>2020-07-18T07:48:58Z</time>
      </trkpt>
      <trkpt lat="42.781839" lon="-0.228597">
        <ele>2169.696</ele>
        <time>2020-07-18T07:49:05Z</time>
      </trkpt>
      <trkpt lat="42.781857" lon="-0.228540">
        <ele>2172.965</ele>
        <time>2020-07-18T07:49:12Z</time>
      </trkpt>
      <trkpt lat="42.781888" lon="-0.228496">
        <ele>2168.082</ele>
        <time>2020-07-18T07:49:19Z</time>
      </trkpt>
      <trkpt lat="42.781923" lon="-0.228453">
        <ele>2171.594</ele>
        <time>2020-07-18T07:49:27Z</time>
      </trkpt>
      <trkpt lat="42.781964" lon="-0.228413">
        <ele>2171.757</ele>
        <time>2020-07-18T07:49:34Z</time>
      </trkpt>
      <trkpt lat="42.782006" lon="-0.228376">
        <ele>2172.200</ele>
        <time>2020-07-18T07:49:41Z</time>
      </trkpt>
      <trkpt lat="42.782025" lon="-0.228308">
        <ele>2171.320</ele>
        <time>2020-07-18T07:49:47Z</time>
      </trkpt>
      <trkpt lat="42.782026" lon="-0.228265">
        <ele>2171.808</ele>
        <time>2020-07-18T07:49:55Z</time>
      </trkpt>
      <trkpt lat="42.782048" lon="-0.228233">
        <ele>2170.990</ele>
        <time>2020-07-18T07:50:51Z</time>
      </trkpt>
      <trkpt lat="42.782076" lon="-0.228175">
        <ele>2170.848</ele>
        <time>2020-07-18T07:50:56Z</time>
      </trkpt>
      <trkpt lat="42.782087" lon="-0.228106">
        <ele>2169.591</ele>
        <time>2020-07-18T07:51:00Z</time>
      </trkpt>
      <trkpt lat="42.782083" lon="-0.228035">
        <ele>2172.257</ele>
        <time>2020-07-18T07:51:05Z</time>
      </trkpt>
      <trkpt lat="42.782090" lon="-0.227967">
        <ele>2171.744</ele>
        <time>2020-07-18T07:51:10Z</time>
      </trkpt>
      <trkpt lat="42.782087" lon="-0.227899">
        <ele>2172.633</ele>
        <time>2020-07-18T07:51:15Z</time>
      </trkpt>
      <trkpt lat="42.782093" lon="-0.227832">
        <ele>2174.250</ele>
        <time>2020-07-18T07:51:22Z</time>
      </trkpt>
      <trkpt lat="42.782089" lon="-0.227760">
        <ele>2173.842</ele>
        <time>2020-07-18T07:51:29Z</time>
      </trkpt>
      <trkpt lat="42.782119" lon="-0.227690">
        <ele>2176.389</ele>
        <time>2020-07-18T07:51:37Z</time>
      </trkpt>
      <trkpt lat="42.782150" lon="-0.227638">
        <ele>2172.606</ele>
        <time>2020-07-18T07:51:45Z</time>
      </trkpt>
      <trkpt lat="42.782198" lon="-0.227604">
        <ele>2175.326</ele>
        <time>2020-07-18T07:51:54Z</time>
      </trkpt>
      <trkpt lat="42.782233" lon="-0.227551">
        <ele>2179.908</ele>
        <time>2020-07-18T07:52:04Z</time>
      </trkpt>
      <trkpt lat="42.782269" lon="-0.227501">
        <ele>2178.053</ele>
        <time>2020-07-18T07:52:14Z</time>
      </trkpt>
      <trkpt lat="42.782306" lon="-0.227463">
        <ele>2177.331</ele>
        <time>2020-07-18T07:52:22Z</time>
      </trkpt>
      <trkpt lat="42.782323" lon="-0.227398">
        <ele>2174.244</ele>
        <time>2020-07-18T07:52:32Z</time>
      </trkpt>
      <trkpt lat="42.782350" lon="-0.227342">
        <ele>2178.010</ele>
        <time>2020-07-18T07:52:46Z</time>
      </trkpt>
      <trkpt lat="42.782362" lon="-0.227283">
        <ele>2182.647</ele>
        <time>2020-07-18T07:53:00Z</time>
      </trkpt>
      <trkpt lat="42.782398" lon="-0.227241">
        <ele>2183.716</ele>
        <time>2020-07-18T07:53:17Z</time>
      </trkpt>
      <trkpt lat="42.782442" lon="-0.227215">
        <ele>2186.383</ele>
        <time>2020-07-18T07:53:30Z</time>
      </trkpt>
      <trkpt lat="42.782454" lon="-0.227148">
        <ele>2186.215</ele>
        <time>2020-07-18T07:53:37Z</time>
      </trkpt>
      <trkpt lat="42.782440" lon="-0.227082">
        <ele>2188.064</ele>
        <time>2020-07-18T07:53:43Z</time>
      </trkpt>
      <trkpt lat="42.782446" lon="-0.227014">
        <ele>2188.406</ele>
        <time>2020-07-18T07:53:50Z</time>
      </trkpt>
      <trkpt lat="42.782473" lon="-0.226965">
        <ele>2190.416</ele>
        <time>2020-07-18T07:54:00Z</time>
      </trkpt>
      <trkpt lat="42.782487" lon="-0.226898">
        <ele>2188.908</ele>
        <time>2020-07-18T07:54:08Z</time>
      </trkpt>
      <trkpt lat="42.782496" lon="-0.226825">
        <ele>2190.041</ele>
        <time>2020-07-18T07:54:16Z</time>
      </trkpt>
      <trkpt lat="42.782461" lon="-0.226783">
        <ele>2188.349</ele>
        <time>2020-07-18T07:54:23Z</time>
      </trkpt>
      <trkpt lat="42.782415" lon="-0.226782">
        <ele>2190.242</ele>
        <time>2020-07-18T07:54:41Z</time>
      </trkpt>
      <trkpt lat="42.782371" lon="-0.226760">
        <ele>2190.688</ele>
        <time>2020-07-18T07:54:56Z</time>
      </trkpt>
      <trkpt lat="42.782366" lon="-0.226685">
        <ele>2191.985</ele>
        <time>2020-07-18T07:55:02Z</time>
      </trkpt>
      <trkpt lat="42.782387" lon="-0.226611">
        <ele>2191.894</ele>
        <time>2020-07-18T07:55:08Z</time>
      </trkpt>
      <trkpt lat="42.782411" lon="-0.226539">
        <ele>2193.321</ele>
        <time>2020-07-18T07:55:14Z</time>
      </trkpt>
      <trkpt lat="42.782419" lon="-0.226474">
        <ele>2193.453</ele>
        <time>2020-07-18T07:55:36Z</time>
      </trkpt>
      <trkpt lat="42.782427" lon="-0.226409">
        <ele>2193.711</ele>
        <time>2020-07-18T07:55:45Z</time>
      </trkpt>
      <trkpt lat="42.782442" lon="-0.226347">
        <ele>2193.621</ele>
        <time>2020-07-18T07:55:51Z</time>
      </trkpt>
      <trkpt lat="42.782454" lon="-0.226278">
        <ele>2192.703</ele>
        <time>2020-07-18T07:55:56Z</time>
      </trkpt>
      <trkpt lat="42.782469" lon="-0.226208">
        <ele>2189.708</ele>
        <time>2020-07-18T07:56:02Z</time>
      </trkpt>
      <trkpt lat="42.782496" lon="-0.226143">
        <ele>2193.276</ele>
        <time>2020-07-18T07:56:08Z</time>
      </trkpt>
      <trkpt lat="42.782522" lon="-0.226087">
        <ele>2195.124</ele>
        <time>2020-07-18T07:56:14Z</time>
      </trkpt>
      <trkpt lat="42.782552" lon="-0.226038">
        <ele>2194.637</ele>
        <time>2020-07-18T07:56:23Z</time>
      </trkpt>
      <trkpt lat="42.782591" lon="-0.225996">
        <ele>2192.843</ele>
        <time>2020-07-18T07:56:51Z</time>
      </trkpt>
      <trkpt lat="42.782607" lon="-0.225927">
        <ele>2193.440</ele>
        <time>2020-07-18T07:56:54Z</time>
      </trkpt>
      <trkpt lat="42.782623" lon="-0.225856">
        <ele>2191.929</ele>
        <time>2020-07-18T07:56:58Z</time>
      </trkpt>
      <trkpt lat="42.782638" lon="-0.225790">
        <ele>2193.236</ele>
        <time>2020-07-18T07:57:02Z</time>
      </trkpt>
      <trkpt lat="42.782660" lon="-0.225727">
        <ele>2193.748</ele>
        <time>2020-07-18T07:57:08Z</time>
      </trkpt>
      <trkpt lat="42.782678" lon="-0.225670">
        <ele>2194.882</ele>
        <time>2020-07-18T07:57:14Z</time>
      </trkpt>
      <trkpt lat="42.782707" lon="-0.225618">
        <ele>2195.243</ele>
        <time>2020-07-18T07:57:22Z</time>
      </trkpt>
      <trkpt lat="42.782742" lon="-0.225567">
        <ele>2195.617</ele>
        <time>2020-07-18T07:57:29Z</time>
      </trkpt>
      <trkpt lat="42.782781" lon="-0.225515">
        <ele>2194.608</ele>
        <time>2020-07-18T07:57:37Z</time>
      </trkpt>
      <trkpt lat="42.782811" lon="-0.225455">
        <ele>2194.343</ele>
        <time>2020-07-18T07:57:45Z</time>
      </trkpt>
      <trkpt lat="42.782818" lon="-0.225390">
        <ele>2194.611</ele>
        <time>2020-07-18T07:57:50Z</time>
      </trkpt>
      <trkpt lat="42.782824" lon="-0.225326">
        <ele>2196.814</ele>
        <time>2020-07-18T07:57:55Z</time>
      </trkpt>
      <trkpt lat="42.782839" lon="-0.225267">
        <ele>2194.520</ele>
        <time>2020-07-18T07:58:01Z</time>
      </trkpt>
      <trkpt lat="42.782851" lon="-0.225207">
        <ele>2196.247</ele>
        <time>2020-07-18T07:58:07Z</time>
      </trkpt>
      <trkpt lat="42.782860" lon="-0.225136">
        <ele>2196.966</ele>
        <time>2020-07-18T07:58:13Z</time>
      </trkpt>
      <trkpt lat="42.782888" lon="-0.225074">
        <ele>2197.133</ele>
        <time>2020-07-18T07:58:20Z</time>
      </trkpt>
      <trkpt lat="42.782904" lon="-0.225017">
        <ele>2197.245</ele>
        <time>2020-07-18T07:58:27Z</time>
      </trkpt>
      <trkpt lat="42.782919" lon="-0.224951">
        <ele>2197.723</ele>
        <time>2020-07-18T07:58:36Z</time>
      </trkpt>
      <trkpt lat="42.782934" lon="-0.224881">
        <ele>2196.983</ele>
        <time>2020-07-18T07:58:45Z</time>
      </trkpt>
      <trkpt lat="42.782947" lon="-0.224813">
        <ele>2196.711</ele>
        <time>2020-07-18T07:58:53Z</time>
      </trkpt>
      <trkpt lat="42.782970" lon="-0.224758">
        <ele>2198.108</ele>
        <time>2020-07-18T07:59:00Z</time>
      </trkpt>
      <trkpt lat="42.783006" lon="-0.224700">
        <ele>2196.617</ele>
        <time>2020-07-18T07:59:09Z</time>
      </trkpt>
      <trkpt lat="42.783027" lon="-0.224644">
        <ele>2197.435</ele>
        <time>2020-07-18T07:59:53Z</time>
      </trkpt>
      <trkpt lat="42.783065" lon="-0.224604">
        <ele>2196.758</ele>
        <time>2020-07-18T08:00:33Z</time>
      </trkpt>
      <trkpt lat="42.783117" lon="-0.224547">
        <ele>2196.274</ele>
        <time>2020-07-18T08:00:39Z</time>
      </trkpt>
      <trkpt lat="42.783168" lon="-0.224483">
        <ele>2199.021</ele>
        <time>2020-07-18T08:00:44Z</time>
      </trkpt>
      <trkpt lat="42.783212" lon="-0.224436">
        <ele>2200.680</ele>
        <time>2020-07-18T08:00:50Z</time>
      </trkpt>
      <trkpt lat="42.783234" lon="-0.224377">
        <ele>2201.817</ele>
        <time>2020-07-18T08:00:58Z</time>
      </trkpt>
      <trkpt lat="42.783270" lon="-0.224323">
        <ele>2200.969</ele>
        <time>2020-07-18T08:01:05Z</time>
      </trkpt>
      <trkpt lat="42.783299" lon="-0.224275">
        <ele>2203.795</ele>
        <time>2020-07-18T08:01:10Z</time>
      </trkpt>
      <trkpt lat="42.783315" lon="-0.224222">
        <ele>2203.549</ele>
        <time>2020-07-18T08:02:26Z</time>
      </trkpt>
      <trkpt lat="42.783344" lon="-0.224181">
        <ele>2202.423</ele>
        <time>2020-07-18T08:02:34Z</time>
      </trkpt>
      <trkpt lat="42.783389" lon="-0.224231">
        <ele>2201.208</ele>
        <time>2020-07-18T08:02:44Z</time>
      </trkpt>
      <trkpt lat="42.783430" lon="-0.224277">
        <ele>2202.944</ele>
        <time>2020-07-18T08:02:52Z</time>
      </trkpt>
      <trkpt lat="42.783468" lon="-0.224325">
        <ele>2203.932</ele>
        <time>2020-07-18T08:02:58Z</time>
      </trkpt>
      <trkpt lat="42.783509" lon="-0.224357">
        <ele>2205.135</ele>
        <time>2020-07-18T08:03:13Z</time>
      </trkpt>
      <trkpt lat="42.783557" lon="-0.224366">
        <ele>2206.161</ele>
        <time>2020-07-18T08:03:34Z</time>
      </trkpt>
      <trkpt lat="42.783595" lon="-0.224418">
        <ele>2204.778</ele>
        <time>2020-07-18T08:03:40Z</time>
      </trkpt>
      <trkpt lat="42.783624" lon="-0.224468">
        <ele>2204.127</ele>
        <time>2020-07-18T08:03:44Z</time>
      </trkpt>
      <trkpt lat="42.783656" lon="-0.224528">
        <ele>2205.284</ele>
        <time>2020-07-18T08:03:49Z</time>
      </trkpt>
      <trkpt lat="42.783702" lon="-0.224560">
        <ele>2205.126</ele>
        <time>2020-07-18T08:03:55Z</time>
      </trkpt>
      <trkpt lat="42.783755" lon="-0.224578">
        <ele>2205.271</ele>
        <time>2020-07-18T08:04:01Z</time>
      </trkpt>
      <trkpt lat="42.783803" lon="-0.224616">
        <ele>2205.441</ele>
        <time>2020-07-18T08:04:06Z</time>
      </trkpt>
      <trkpt lat="42.783852" lon="-0.224647">
        <ele>2207.515</ele>
        <time>2020-07-18T08:04:12Z</time>
      </trkpt>
      <trkpt lat="42.783896" lon="-0.224672">
        <ele>2209.008</ele>
        <time>2020-07-18T08:04:20Z</time>
      </trkpt>
      <trkpt lat="42.783933" lon="-0.224710">
        <ele>2207.782</ele>
        <time>2020-07-18T08:04:35Z</time>
      </trkpt>
      <trkpt lat="42.783983" lon="-0.224729">
        <ele>2207.660</ele>
        <time>2020-07-18T08:04:47Z</time>
      </trkpt>
      <trkpt lat="42.784021" lon="-0.224768">
        <ele>2209.123</ele>
        <time>2020-07-18T08:04:54Z</time>
      </trkpt>
      <trkpt lat="42.784064" lon="-0.224788">
        <ele>2207.219</ele>
        <time>2020-07-18T08:04:59Z</time>
      </trkpt>
      <trkpt lat="42.784106" lon="-0.224812">
        <ele>2209.396</ele>
        <time>2020-07-18T08:05:05Z</time>
      </trkpt>
      <trkpt lat="42.784154" lon="-0.224807">
        <ele>2209.795</ele>
        <time>2020-07-18T08:05:12Z</time>
      </trkpt>
      <trkpt lat="42.784202" lon="-0.224803">
        <ele>2208.162</ele>
        <time>2020-07-18T08:05:18Z</time>
      </trkpt>
      <trkpt lat="42.784253" lon="-0.224788">
        <ele>2207.614</ele>
        <time>2020-07-18T08:05:25Z</time>
      </trkpt>
      <trkpt lat="42.784312" lon="-0.224773">
        <ele>2206.296</ele>
        <time>2020-07-18T08:05:33Z</time>
      </trkpt>
      <trkpt lat="42.784367" lon="-0.224767">
        <ele>2208.831</ele>
        <time>2020-07-18T08:05:40Z</time>
      </trkpt>
      <trkpt lat="42.784413" lon="-0.224739">
        <ele>2210.124</ele>
        <time>2020-07-18T08:05:47Z</time>
      </trkpt>
      <trkpt lat="42.784456" lon="-0.224720">
        <ele>2210.008</ele>
        <time>2020-07-18T08:05:53Z</time>
      </trkpt>
      <trkpt lat="42.784508" lon="-0.224696">
        <ele>2210.654</ele>
        <time>2020-07-18T08:06:00Z</time>
      </trkpt>
      <trkpt lat="42.784552" lon="-0.224682">
        <ele>2211.612</ele>
        <time>2020-07-18T08:06:05Z</time>
      </trkpt>
      <trkpt lat="42.784585" lon="-0.224626">
        <ele>2212.365</ele>
        <time>2020-07-18T08:07:12Z</time>
      </trkpt>
      <trkpt lat="42.784620" lon="-0.224576">
        <ele>2211.491</ele>
        <time>2020-07-18T08:07:31Z</time>
      </trkpt>
      <trkpt lat="42.784661" lon="-0.224582">
        <ele>2212.048</ele>
        <time>2020-07-18T08:08:24Z</time>
      </trkpt>
      <trkpt lat="42.784688" lon="-0.224632">
        <ele>2211.677</ele>
        <time>2020-07-18T08:08:37Z</time>
      </trkpt>
      <trkpt lat="42.784724" lon="-0.224688">
        <ele>2211.564</ele>
        <time>2020-07-18T08:08:45Z</time>
      </trkpt>
      <trkpt lat="42.784764" lon="-0.224736">
        <ele>2211.146</ele>
        <time>2020-07-18T08:08:51Z</time>
      </trkpt>
      <trkpt lat="42.784805" lon="-0.224765">
        <ele>2214.157</ele>
        <time>2020-07-18T08:08:57Z</time>
      </trkpt>
      <trkpt lat="42.784841" lon="-0.224812">
        <ele>2212.900</ele>
        <time>2020-07-18T08:09:02Z</time>
      </trkpt>
      <trkpt lat="42.784867" lon="-0.224862">
        <ele>2213.120</ele>
        <time>2020-07-18T08:09:10Z</time>
      </trkpt>
      <trkpt lat="42.784888" lon="-0.224919">
        <ele>2213.608</ele>
        <time>2020-07-18T08:09:15Z</time>
      </trkpt>
      <trkpt lat="42.784913" lon="-0.224984">
        <ele>2212.040</ele>
        <time>2020-07-18T08:09:23Z</time>
      </trkpt>
      <trkpt lat="42.784935" lon="-0.225046">
        <ele>2212.238</ele>
        <time>2020-07-18T08:09:30Z</time>
      </trkpt>
      <trkpt lat="42.784973" lon="-0.225098">
        <ele>2214.011</ele>
        <time>2020-07-18T08:09:38Z</time>
      </trkpt>
      <trkpt lat="42.785004" lon="-0.225149">
        <ele>2213.647</ele>
        <time>2020-07-18T08:09:47Z</time>
      </trkpt>
      <trkpt lat="42.785035" lon="-0.225204">
        <ele>2212.454</ele>
        <time>2020-07-18T08:09:54Z</time>
      </trkpt>
      <trkpt lat="42.785059" lon="-0.225265">
        <ele>2211.513</ele>
        <time>2020-07-18T08:10:01Z</time>
      </trkpt>
      <trkpt lat="42.785093" lon="-0.225321">
        <ele>2212.950</ele>
        <time>2020-07-18T08:10:08Z</time>
      </trkpt>
      <trkpt lat="42.785119" lon="-0.225378">
        <ele>2212.432</ele>
        <time>2020-07-18T08:10:16Z</time>
      </trkpt>
      <trkpt lat="42.785152" lon="-0.225398">
        <ele>2212.294</ele>
        <time>2020-07-18T08:10:25Z</time>
      </trkpt>
      <trkpt lat="42.785181" lon="-0.225371">
        <ele>2211.057</ele>
        <time>2020-07-18T08:10:32Z</time>
      </trkpt>
      <trkpt lat="42.785218" lon="-0.225374">
        <ele>2210.722</ele>
        <time>2020-07-18T08:10:42Z</time>
      </trkpt>
      <trkpt lat="42.785264" lon="-0.225387">
        <ele>2208.908</ele>
        <time>2020-07-18T08:10:54Z</time>
      </trkpt>
      <trkpt lat="42.785309" lon="-0.225361">
        <ele>2207.924</ele>
        <time>2020-07-18T08:11:11Z</time>
      </trkpt>
      <trkpt lat="42.785359" lon="-0.225371">
        <ele>2206.732</ele>
        <time>2020-07-18T08:11:25Z</time>
      </trkpt>
      <trkpt lat="42.785381" lon="-0.225343">
        <ele>2205.845</ele>
        <time>2020-07-18T08:11:34Z</time>
      </trkpt>
      <trkpt lat="42.785415" lon="-0.225331">
        <ele>2204.881</ele>
        <time>2020-07-18T08:11:42Z</time>
      </trkpt>
      <trkpt lat="42.785460" lon="-0.225353">
        <ele>2204.368</ele>
        <time>2020-07-18T08:11:50Z</time>
      </trkpt>
      <trkpt lat="42.785502" lon="-0.225373">
        <ele>2202.897</ele>
        <time>2020-07-18T08:11:57Z</time>
      </trkpt>
      <trkpt lat="42.785534" lon="-0.225419">
        <ele>2202.234</ele>
        <time>2020-07-18T08:12:05Z</time>
      </trkpt>
      <trkpt lat="42.785569" lon="-0.225468">
        <ele>2202.856</ele>
        <time>2020-07-18T08:12:15Z</time>
      </trkpt>
      <trkpt lat="42.785598" lon="-0.225528">
        <ele>2205.013</ele>
        <time>2020-07-18T08:12:24Z</time>
      </trkpt>
      <trkpt lat="42.785632" lon="-0.225572">
        <ele>2203.443</ele>
        <time>2020-07-18T08:12:32Z</time>
      </trkpt>
      <trkpt lat="42.785661" lon="-0.225624">
        <ele>2205.707</ele>
        <time>2020-07-18T08:12:39Z</time>
      </trkpt>
      <trkpt lat="42.785679" lon="-0.225683">
        <ele>2207.608</ele>
        <time>2020-07-18T08:12:46Z</time>
      </trkpt>
      <trkpt lat="42.785704" lon="-0.225741">
        <ele>2207.996</ele>
        <time>2020-07-18T08:12:59Z</time>
      </trkpt>
      <trkpt lat="42.785729" lon="-0.225801">
        <ele>2207.184</ele>
        <time>2020-07-18T08:13:07Z</time>
      </trkpt>
      <trkpt lat="42.785758" lon="-0.225854">
        <ele>2206.937</ele>
        <time>2020-07-18T08:13:15Z</time>
      </trkpt>
      <trkpt lat="42.785797" lon="-0.225886">
        <ele>2207.733</ele>
        <time>2020-07-18T08:13:22Z</time>
      </trkpt>
      <trkpt lat="42.785824" lon="-0.225948">
        <ele>2207.550</ele>
        <time>2020-07-18T08:13:32Z</time>
      </trkpt>
      <trkpt lat="42.785845" lon="-0.226011">
        <ele>2207.939</ele>
        <time>2020-07-18T08:13:39Z</time>
      </trkpt>
      <trkpt lat="42.785887" lon="-0.226043">
        <ele>2207.696</ele>
        <time>2020-07-18T08:13:47Z</time>
      </trkpt>
      <trkpt lat="42.785924" lon="-0.226078">
        <ele>2206.878</ele>
        <time>2020-07-18T08:13:57Z</time>
      </trkpt>
      <trkpt lat="42.785946" lon="-0.226133">
        <ele>2206.329</ele>
        <time>2020-07-18T08:14:09Z</time>
      </trkpt>
      <trkpt lat="42.785962" lon="-0.226193">
        <ele>2205.000</ele>
        <time>2020-07-18T08:14:16Z</time>
      </trkpt>
      <trkpt lat="42.785978" lon="-0.226259">
        <ele>2204.320</ele>
        <time>2020-07-18T08:14:25Z</time>
      </trkpt>
      <trkpt lat="42.786015" lon="-0.226297">
        <ele>2204.508</ele>
        <time>2020-07-18T08:14:34Z</time>
      </trkpt>
      <trkpt lat="42.786064" lon="-0.226300">
        <ele>2203.957</ele>
        <time>2020-07-18T08:14:42Z</time>
      </trkpt>
      <trkpt lat="42.786104" lon="-0.226336">
        <ele>2207.395</ele>
        <time>2020-07-18T08:14:54Z</time>
      </trkpt>
      <trkpt lat="42.786151" lon="-0.226358">
        <ele>2209.078</ele>
        <time>2020-07-18T08:15:00Z</time>
      </trkpt>
      <trkpt lat="42.786197" lon="-0.226373">
        <ele>2207.444</ele>
        <time>2020-07-18T08:15:05Z</time>
      </trkpt>
      <trkpt lat="42.786234" lon="-0.226413">
        <ele>2207.351</ele>
        <time>2020-07-18T08:15:12Z</time>
      </trkpt>
      <trkpt lat="42.786231" lon="-0.226478">
        <ele>2207.760</ele>
        <time>2020-07-18T08:15:24Z</time>
      </trkpt>
      <trkpt lat="42.786182" lon="-0.226486">
        <ele>2207.797</ele>
        <time>2020-07-18T08:15:44Z</time>
      </trkpt>
      <trkpt lat="42.786139" lon="-0.226512">
        <ele>2210.059</ele>
        <time>2020-07-18T08:15:55Z</time>
      </trkpt>
      <trkpt lat="42.786119" lon="-0.226568">
        <ele>2214.041</ele>
        <time>2020-07-18T08:16:05Z</time>
      </trkpt>
      <trkpt lat="42.786137" lon="-0.226640">
        <ele>2211.681</ele>
        <time>2020-07-18T08:16:15Z</time>
      </trkpt>
      <trkpt lat="42.786152" lon="-0.226702">
        <ele>2215.609</ele>
        <time>2020-07-18T08:16:23Z</time>
      </trkpt>
      <trkpt lat="42.786172" lon="-0.226762">
        <ele>2214.208</ele>
        <time>2020-07-18T08:16:32Z</time>
      </trkpt>
      <trkpt lat="42.786168" lon="-0.226823">
        <ele>2217.879</ele>
        <time>2020-07-18T08:16:41Z</time>
      </trkpt>
      <trkpt lat="42.786170" lon="-0.226892">
        <ele>2218.037</ele>
        <time>2020-07-18T08:16:51Z</time>
      </trkpt>
      <trkpt lat="42.786179" lon="-0.226959">
        <ele>2218.720</ele>
        <time>2020-07-18T08:16:59Z</time>
      </trkpt>
      <trkpt lat="42.786196" lon="-0.227018">
        <ele>2219.596</ele>
        <time>2020-07-18T08:17:10Z</time>
      </trkpt>
      <trkpt lat="42.786184" lon="-0.227082">
        <ele>2219.973</ele>
        <time>2020-07-18T08:17:20Z</time>
      </trkpt>
      <trkpt lat="42.786189" lon="-0.227147">
        <ele>2221.352</ele>
        <time>2020-07-18T08:17:33Z</time>
      </trkpt>
      <trkpt lat="42.786206" lon="-0.227207">
        <ele>2221.229</ele>
        <time>2020-07-18T08:17:41Z</time>
      </trkpt>
      <trkpt lat="42.786235" lon="-0.227263">
        <ele>2223.951</ele>
        <time>2020-07-18T08:17:49Z</time>
      </trkpt>
      <trkpt lat="42.786260" lon="-0.227302">
        <ele>2223.439</ele>
        <time>2020-07-18T08:17:57Z</time>
      </trkpt>
      <trkpt lat="42.786296" lon="-0.227323">
        <ele>2224.101</ele>
        <time>2020-07-18T08:19:11Z</time>
      </trkpt>
      <trkpt lat="42.786334" lon="-0.227359">
        <ele>2222.021</ele>
        <time>2020-07-18T08:19:50Z</time>
      </trkpt>
      <trkpt lat="42.786380" lon="-0.227383">
        <ele>2221.408</ele>
        <time>2020-07-18T08:19:56Z</time>
      </trkpt>
      <trkpt lat="42.786431" lon="-0.227414">
        <ele>2221.368</ele>
        <time>2020-07-18T08:20:02Z</time>
      </trkpt>
      <trkpt lat="42.786470" lon="-0.227460">
        <ele>2220.526</ele>
        <time>2020-07-18T08:20:09Z</time>
      </trkpt>
      <trkpt lat="42.786516" lon="-0.227511">
        <ele>2220.169</ele>
        <time>2020-07-18T08:20:15Z</time>
      </trkpt>
      <trkpt lat="42.786555" lon="-0.227560">
        <ele>2219.745</ele>
        <time>2020-07-18T08:20:22Z</time>
      </trkpt>
      <trkpt lat="42.786588" lon="-0.227619">
        <ele>2219.112</ele>
        <time>2020-07-18T08:20:29Z</time>
      </trkpt>
      <trkpt lat="42.786626" lon="-0.227664">
        <ele>2218.961</ele>
        <time>2020-07-18T08:20:36Z</time>
      </trkpt>
      <trkpt lat="42.786675" lon="-0.227672">
        <ele>2217.138</ele>
        <time>2020-07-18T08:20:45Z</time>
      </trkpt>
      <trkpt lat="42.786727" lon="-0.227672">
        <ele>2216.640</ele>
        <time>2020-07-18T08:20:54Z</time>
      </trkpt>
      <trkpt lat="42.786771" lon="-0.227709">
        <ele>2215.865</ele>
        <time>2020-07-18T08:21:00Z</time>
      </trkpt>
      <trkpt lat="42.786814" lon="-0.227729">
        <ele>2213.868</ele>
        <time>2020-07-18T08:21:06Z</time>
      </trkpt>
      <trkpt lat="42.786856" lon="-0.227766">
        <ele>2217.214</ele>
        <time>2020-07-18T08:21:12Z</time>
      </trkpt>
      <trkpt lat="42.786883" lon="-0.227819">
        <ele>2217.608</ele>
        <time>2020-07-18T08:21:18Z</time>
      </trkpt>
      <trkpt lat="42.786901" lon="-0.227891">
        <ele>2217.851</ele>
        <time>2020-07-18T08:21:25Z</time>
      </trkpt>
      <trkpt lat="42.786924" lon="-0.227940">
        <ele>2217.469</ele>
        <time>2020-07-18T08:21:33Z</time>
      </trkpt>
      <trkpt lat="42.786964" lon="-0.227983">
        <ele>2216.922</ele>
        <time>2020-07-18T08:21:41Z</time>
      </trkpt>
      <trkpt lat="42.786992" lon="-0.228040">
        <ele>2217.378</ele>
        <time>2020-07-18T08:21:49Z</time>
      </trkpt>
      <trkpt lat="42.787021" lon="-0.228092">
        <ele>2219.345</ele>
        <time>2020-07-18T08:22:00Z</time>
      </trkpt>
      <trkpt lat="42.787034" lon="-0.228158">
        <ele>2219.624</ele>
        <time>2020-07-18T08:22:06Z</time>
      </trkpt>
      <trkpt lat="42.787050" lon="-0.228218">
        <ele>2221.991</ele>
        <time>2020-07-18T08:22:13Z</time>
      </trkpt>
      <trkpt lat="42.787089" lon="-0.228258">
        <ele>2222.743</ele>
        <time>2020-07-18T08:22:19Z</time>
      </trkpt>
      <trkpt lat="42.787127" lon="-0.228288">
        <ele>2221.654</ele>
        <time>2020-07-18T08:22:27Z</time>
      </trkpt>
      <trkpt lat="42.787152" lon="-0.228342">
        <ele>2222.756</ele>
        <time>2020-07-18T08:23:02Z</time>
      </trkpt>
      <trkpt lat="42.787184" lon="-0.228390">
        <ele>2222.311</ele>
        <time>2020-07-18T08:23:12Z</time>
      </trkpt>
      <trkpt lat="42.787231" lon="-0.228420">
        <ele>2221.508</ele>
        <time>2020-07-18T08:23:20Z</time>
      </trkpt>
      <trkpt lat="42.787269" lon="-0.228469">
        <ele>2221.150</ele>
        <time>2020-07-18T08:23:26Z</time>
      </trkpt>
      <trkpt lat="42.787288" lon="-0.228541">
        <ele>2221.538</ele>
        <time>2020-07-18T08:23:32Z</time>
      </trkpt>
      <trkpt lat="42.787291" lon="-0.228602">
        <ele>2221.551</ele>
        <time>2020-07-18T08:23:37Z</time>
      </trkpt>
      <trkpt lat="42.787303" lon="-0.228663">
        <ele>2223.597</ele>
        <time>2020-07-18T08:23:43Z</time>
      </trkpt>
      <trkpt lat="42.787323" lon="-0.228720">
        <ele>2223.824</ele>
        <time>2020-07-18T08:23:50Z</time>
      </trkpt>
      <trkpt lat="42.787349" lon="-0.228744">
        <ele>2224.223</ele>
        <time>2020-07-18T08:23:58Z</time>
      </trkpt>
      <trkpt lat="42.787383" lon="-0.228725">
        <ele>2222.470</ele>
        <time>2020-07-18T08:25:48Z</time>
      </trkpt>
      <trkpt lat="42.787428" lon="-0.228758">
        <ele>2216.962</ele>
        <time>2020-07-18T08:42:29Z</time>
      </trkpt>
      <trkpt lat="42.787448" lon="-0.228797">
        <ele>2216.571</ele>
        <time>2020-07-18T08:42:37Z</time>
      </trkpt>
      <trkpt lat="42.787461" lon="-0.228860">
        <ele>2215.541</ele>
        <time>2020-07-18T08:42:42Z</time>
      </trkpt>
      <trkpt lat="42.787476" lon="-0.228932">
        <ele>2214.615</ele>
        <time>2020-07-18T08:42:48Z</time>
      </trkpt>
      <trkpt lat="42.787493" lon="-0.229011">
        <ele>2214.608</ele>
        <time>2020-07-18T08:42:53Z</time>
      </trkpt>
      <trkpt lat="42.787490" lon="-0.229079">
        <ele>2214.222</ele>
        <time>2020-07-18T08:43:00Z</time>
      </trkpt>
      <trkpt lat="42.787509" lon="-0.229140">
        <ele>2213.930</ele>
        <time>2020-07-18T08:43:06Z</time>
      </trkpt>
      <trkpt lat="42.787509" lon="-0.229211">
        <ele>2214.993</ele>
        <time>2020-07-18T08:43:14Z</time>
      </trkpt>
      <trkpt lat="42.787527" lon="-0.229273">
        <ele>2213.639</ele>
        <time>2020-07-18T08:43:31Z</time>
      </trkpt>
      <trkpt lat="42.787529" lon="-0.229337">
        <ele>2213.516</ele>
        <time>2020-07-18T08:43:38Z</time>
      </trkpt>
      <trkpt lat="42.787508" lon="-0.229395">
        <ele>2211.855</ele>
        <time>2020-07-18T08:43:44Z</time>
      </trkpt>
      <trkpt lat="42.787476" lon="-0.229454">
        <ele>2212.562</ele>
        <time>2020-07-18T08:43:51Z</time>
      </trkpt>
      <trkpt lat="42.787467" lon="-0.229519">
        <ele>2212.654</ele>
        <time>2020-07-18T08:43:57Z</time>
      </trkpt>
      <trkpt lat="42.787475" lon="-0.229590">
        <ele>2212.819</ele>
        <time>2020-07-18T08:44:03Z</time>
      </trkpt>
      <trkpt lat="42.787475" lon="-0.229651">
        <ele>2213.209</ele>
        <time>2020-07-18T08:44:10Z</time>
      </trkpt>
      <trkpt lat="42.787501" lon="-0.229703">
        <ele>2213.119</ele>
        <time>2020-07-18T08:44:19Z</time>
      </trkpt>
      <trkpt lat="42.787508" lon="-0.229771">
        <ele>2212.108</ele>
        <time>2020-07-18T08:44:27Z</time>
      </trkpt>
      <trkpt lat="42.787526" lon="-0.229827">
        <ele>2211.656</ele>
        <time>2020-07-18T08:44:37Z</time>
      </trkpt>
      <trkpt lat="42.787543" lon="-0.229884">
        <ele>2210.554</ele>
        <time>2020-07-18T08:44:46Z</time>
      </trkpt>
      <trkpt lat="42.787563" lon="-0.229945">
        <ele>2208.777</ele>
        <time>2020-07-18T08:44:53Z</time>
      </trkpt>
      <trkpt lat="42.787583" lon="-0.230009">
        <ele>2208.683</ele>
        <time>2020-07-18T08:45:00Z</time>
      </trkpt>
      <trkpt lat="42.787583" lon="-0.230075">
        <ele>2208.740</ele>
        <time>2020-07-18T08:45:07Z</time>
      </trkpt>
      <trkpt lat="42.787586" lon="-0.230146">
        <ele>2208.189</ele>
        <time>2020-07-18T08:45:15Z</time>
      </trkpt>
      <trkpt lat="42.787584" lon="-0.230213">
        <ele>2208.316</ele>
        <time>2020-07-18T08:45:22Z</time>
      </trkpt>
      <trkpt lat="42.787607" lon="-0.230273">
        <ele>2207.298</ele>
        <time>2020-07-18T08:45:29Z</time>
      </trkpt>
      <trkpt lat="42.787632" lon="-0.230332">
        <ele>2205.615</ele>
        <time>2020-07-18T08:45:35Z</time>
      </trkpt>
      <trkpt lat="42.787648" lon="-0.230398">
        <ele>2205.465</ele>
        <time>2020-07-18T08:45:42Z</time>
      </trkpt>
      <trkpt lat="42.787648" lon="-0.230464">
        <ele>2204.711</ele>
        <time>2020-07-18T08:45:48Z</time>
      </trkpt>
      <trkpt lat="42.787657" lon="-0.230537">
        <ele>2204.008</ele>
        <time>2020-07-18T08:45:53Z</time>
      </trkpt>
      <trkpt lat="42.787667" lon="-0.230606">
        <ele>2202.966</ele>
        <time>2020-07-18T08:45:58Z</time>
      </trkpt>
      <trkpt lat="42.787684" lon="-0.230663">
        <ele>2202.734</ele>
        <time>2020-07-18T08:46:04Z</time>
      </trkpt>
      <trkpt lat="42.787713" lon="-0.230731">
        <ele>2201.867</ele>
        <time>2020-07-18T08:46:13Z</time>
      </trkpt>
      <trkpt lat="42.787748" lon="-0.230785">
        <ele>2201.653</ele>
        <time>2020-07-18T08:46:19Z</time>
      </trkpt>
      <trkpt lat="42.787756" lon="-0.230853">
        <ele>2200.380</ele>
        <time>2020-07-18T08:46:27Z</time>
      </trkpt>
      <trkpt lat="42.787770" lon="-0.230913">
        <ele>2199.679</ele>
        <time>2020-07-18T08:46:34Z</time>
      </trkpt>
      <trkpt lat="42.787797" lon="-0.230970">
        <ele>2198.226</ele>
        <time>2020-07-18T08:46:42Z</time>
      </trkpt>
      <trkpt lat="42.787823" lon="-0.231022">
        <ele>2197.368</ele>
        <time>2020-07-18T08:46:59Z</time>
      </trkpt>
      <trkpt lat="42.787842" lon="-0.231082">
        <ele>2195.031</ele>
        <time>2020-07-18T08:47:06Z</time>
      </trkpt>
      <trkpt lat="42.787860" lon="-0.231140">
        <ele>2196.261</ele>
        <time>2020-07-18T08:47:27Z</time>
      </trkpt>
      <trkpt lat="42.787892" lon="-0.231183">
        <ele>2195.807</ele>
        <time>2020-07-18T08:47:36Z</time>
      </trkpt>
      <trkpt lat="42.787933" lon="-0.231237">
        <ele>2195.408</ele>
        <time>2020-07-18T08:47:45Z</time>
      </trkpt>
      <trkpt lat="42.787960" lon="-0.231286">
        <ele>2194.688</ele>
        <time>2020-07-18T08:47:50Z</time>
      </trkpt>
      <trkpt lat="42.787996" lon="-0.231341">
        <ele>2195.346</ele>
        <time>2020-07-18T08:47:57Z</time>
      </trkpt>
      <trkpt lat="42.788040" lon="-0.231375">
        <ele>2195.329</ele>
        <time>2020-07-18T08:48:06Z</time>
      </trkpt>
      <trkpt lat="42.788085" lon="-0.231407">
        <ele>2195.225</ele>
        <time>2020-07-18T08:48:13Z</time>
      </trkpt>
      <trkpt lat="42.788117" lon="-0.231466">
        <ele>2196.072</ele>
        <time>2020-07-18T08:48:20Z</time>
      </trkpt>
      <trkpt lat="42.788153" lon="-0.231514">
        <ele>2195.631</ele>
        <time>2020-07-18T08:48:25Z</time>
      </trkpt>
      <trkpt lat="42.788175" lon="-0.231583">
        <ele>2195.718</ele>
        <time>2020-07-18T08:48:31Z</time>
      </trkpt>
      <trkpt lat="42.788181" lon="-0.231652">
        <ele>2195.040</ele>
        <time>2020-07-18T08:48:36Z</time>
      </trkpt>
      <trkpt lat="42.788202" lon="-0.231722">
        <ele>2195.487</ele>
        <time>2020-07-18T08:48:41Z</time>
      </trkpt>
      <trkpt lat="42.788244" lon="-0.231777">
        <ele>2195.542</ele>
        <time>2020-07-18T08:48:47Z</time>
      </trkpt>
      <trkpt lat="42.788280" lon="-0.231826">
        <ele>2196.026</ele>
        <time>2020-07-18T08:48:52Z</time>
      </trkpt>
      <trkpt lat="42.788326" lon="-0.231867">
        <ele>2194.908</ele>
        <time>2020-07-18T08:48:58Z</time>
      </trkpt>
      <trkpt lat="42.788369" lon="-0.231913">
        <ele>2195.173</ele>
        <time>2020-07-18T08:49:06Z</time>
      </trkpt>
      <trkpt lat="42.788395" lon="-0.231973">
        <ele>2195.271</ele>
        <time>2020-07-18T08:49:12Z</time>
      </trkpt>
      <trkpt lat="42.788429" lon="-0.232017">
        <ele>2193.344</ele>
        <time>2020-07-18T08:49:18Z</time>
      </trkpt>
      <trkpt lat="42.788476" lon="-0.232035">
        <ele>2196.250</ele>
        <time>2020-07-18T08:49:23Z</time>
      </trkpt>
      <trkpt lat="42.788520" lon="-0.232075">
        <ele>2195.767</ele>
        <time>2020-07-18T08:49:30Z</time>
      </trkpt>
      <trkpt lat="42.788574" lon="-0.232099">
        <ele>2195.786</ele>
        <time>2020-07-18T08:49:38Z</time>
      </trkpt>
      <trkpt lat="42.788621" lon="-0.232100">
        <ele>2195.673</ele>
        <time>2020-07-18T08:49:43Z</time>
      </trkpt>
      <trkpt lat="42.788666" lon="-0.232095">
        <ele>2194.415</ele>
        <time>2020-07-18T08:49:49Z</time>
      </trkpt>
      <trkpt lat="42.788712" lon="-0.232090">
        <ele>2193.954</ele>
        <time>2020-07-18T08:49:55Z</time>
      </trkpt>
      <trkpt lat="42.788767" lon="-0.232128">
        <ele>2193.656</ele>
        <time>2020-07-18T08:50:02Z</time>
      </trkpt>
      <trkpt lat="42.788800" lon="-0.232181">
        <ele>2192.111</ele>
        <time>2020-07-18T08:50:08Z</time>
      </trkpt>
      <trkpt lat="42.788827" lon="-0.232234">
        <ele>2192.908</ele>
        <time>2020-07-18T08:50:15Z</time>
      </trkpt>
      <trkpt lat="42.788862" lon="-0.232273">
        <ele>2192.660</ele>
        <time>2020-07-18T08:50:20Z</time>
      </trkpt>
      <trkpt lat="42.788900" lon="-0.232305">
        <ele>2192.858</ele>
        <time>2020-07-18T08:50:26Z</time>
      </trkpt>
      <trkpt lat="42.788944" lon="-0.232318">
        <ele>2192.931</ele>
        <time>2020-07-18T08:50:32Z</time>
      </trkpt>
      <trkpt lat="42.788991" lon="-0.232354">
        <ele>2194.337</ele>
        <time>2020-07-18T08:50:40Z</time>
      </trkpt>
      <trkpt lat="42.789020" lon="-0.232417">
        <ele>2194.154</ele>
        <time>2020-07-18T08:51:07Z</time>
      </trkpt>
      <trkpt lat="42.789033" lon="-0.232477">
        <ele>2193.693</ele>
        <time>2020-07-18T08:51:17Z</time>
      </trkpt>
      <trkpt lat="42.789049" lon="-0.232536">
        <ele>2194.470</ele>
        <time>2020-07-18T08:51:31Z</time>
      </trkpt>
      <trkpt lat="42.789092" lon="-0.232558">
        <ele>2193.782</ele>
        <time>2020-07-18T08:51:48Z</time>
      </trkpt>
      <trkpt lat="42.789135" lon="-0.232544">
        <ele>2194.555</ele>
        <time>2020-07-18T08:51:56Z</time>
      </trkpt>
      <trkpt lat="42.789149" lon="-0.232470">
        <ele>2193.507</ele>
        <time>2020-07-18T08:52:02Z</time>
      </trkpt>
      <trkpt lat="42.789172" lon="-0.232416">
        <ele>2193.617</ele>
        <time>2020-07-18T08:52:07Z</time>
      </trkpt>
      <trkpt lat="42.789203" lon="-0.232367">
        <ele>2193.308</ele>
        <time>2020-07-18T08:52:13Z</time>
      </trkpt>
      <trkpt lat="42.789234" lon="-0.232386">
        <ele>2186.010</ele>
        <time>2020-07-18T08:52:22Z</time>
      </trkpt>
      <trkpt lat="42.789216" lon="-0.232438">
        <ele>2193.888</ele>
        <time>2020-07-18T08:52:31Z</time>
      </trkpt>
      <trkpt lat="42.789210" lon="-0.232510">
        <ele>2193.861</ele>
        <time>2020-07-18T08:52:38Z</time>
      </trkpt>
      <trkpt lat="42.789232" lon="-0.232556">
        <ele>2194.637</ele>
        <time>2020-07-18T08:52:50Z</time>
      </trkpt>
      <trkpt lat="42.789268" lon="-0.232602">
        <ele>2192.554</ele>
        <time>2020-07-18T08:52:57Z</time>
      </trkpt>
      <trkpt lat="42.789276" lon="-0.232664">
        <ele>2193.543</ele>
        <time>2020-07-18T08:53:03Z</time>
      </trkpt>
      <trkpt lat="42.789299" lon="-0.232730">
        <ele>2192.740</ele>
        <time>2020-07-18T08:53:13Z</time>
      </trkpt>
      <trkpt lat="42.789341" lon="-0.232766">
        <ele>2193.122</ele>
        <time>2020-07-18T08:53:19Z</time>
      </trkpt>
      <trkpt lat="42.789388" lon="-0.232754">
        <ele>2194.513</ele>
        <time>2020-07-18T08:53:25Z</time>
      </trkpt>
      <trkpt lat="42.789440" lon="-0.232780">
        <ele>2195.543</ele>
        <time>2020-07-18T08:53:32Z</time>
      </trkpt>
      <trkpt lat="42.789488" lon="-0.232793">
        <ele>2195.307</ele>
        <time>2020-07-18T08:53:39Z</time>
      </trkpt>
      <trkpt lat="42.789533" lon="-0.232798">
        <ele>2194.108</ele>
        <time>2020-07-18T08:53:51Z</time>
      </trkpt>
      <trkpt lat="42.789583" lon="-0.232800">
        <ele>2193.136</ele>
        <time>2020-07-18T08:53:58Z</time>
      </trkpt>
      <trkpt lat="42.789621" lon="-0.232770">
        <ele>2195.124</ele>
        <time>2020-07-18T08:54:29Z</time>
      </trkpt>
      <trkpt lat="42.789650" lon="-0.232713">
        <ele>2194.817</ele>
        <time>2020-07-18T08:54:48Z</time>
      </trkpt>
      <trkpt lat="42.789667" lon="-0.232773">
        <ele>2195.323</ele>
        <time>2020-07-18T08:56:04Z</time>
      </trkpt>
      <trkpt lat="42.789683" lon="-0.232843">
        <ele>2196.020</ele>
        <time>2020-07-18T08:56:09Z</time>
      </trkpt>
      <trkpt lat="42.789707" lon="-0.232895">
        <ele>2194.989</ele>
        <time>2020-07-18T08:56:12Z</time>
      </trkpt>
      <trkpt lat="42.789730" lon="-0.232948">
        <ele>2194.896</ele>
        <time>2020-07-18T08:56:16Z</time>
      </trkpt>
      <trkpt lat="42.789757" lon="-0.233015">
        <ele>2193.948</ele>
        <time>2020-07-18T08:56:22Z</time>
      </trkpt>
      <trkpt lat="42.789786" lon="-0.233052">
        <ele>2196.625</ele>
        <time>2020-07-18T08:56:30Z</time>
      </trkpt>
      <trkpt lat="42.789834" lon="-0.233021">
        <ele>2196.226</ele>
        <time>2020-07-18T08:56:49Z</time>
      </trkpt>
      <trkpt lat="42.789886" lon="-0.233048">
        <ele>2195.708</ele>
        <time>2020-07-18T08:56:56Z</time>
      </trkpt>
      <trkpt lat="42.789922" lon="-0.233108">
        <ele>2196.108</ele>
        <time>2020-07-18T08:57:02Z</time>
      </trkpt>
      <trkpt lat="42.789947" lon="-0.233159">
        <ele>2196.517</ele>
        <time>2020-07-18T08:57:06Z</time>
      </trkpt>
      <trkpt lat="42.789969" lon="-0.233213">
        <ele>2199.025</ele>
        <time>2020-07-18T08:57:09Z</time>
      </trkpt>
      <trkpt lat="42.789990" lon="-0.233276">
        <ele>2198.698</ele>
        <time>2020-07-18T08:57:15Z</time>
      </trkpt>
      <trkpt lat="42.790032" lon="-0.233304">
        <ele>2199.814</ele>
        <time>2020-07-18T08:57:21Z</time>
      </trkpt>
      <trkpt lat="42.790077" lon="-0.233286">
        <ele>2199.651</ele>
        <time>2020-07-18T08:57:40Z</time>
      </trkpt>
      <trkpt lat="42.790122" lon="-0.233301">
        <ele>2200.320</ele>
        <time>2020-07-18T08:58:01Z</time>
      </trkpt>
      <trkpt lat="42.790145" lon="-0.233356">
        <ele>2198.987</ele>
        <time>2020-07-18T08:58:13Z</time>
      </trkpt>
      <trkpt lat="42.790165" lon="-0.233409">
        <ele>2201.559</ele>
        <time>2020-07-18T08:58:24Z</time>
      </trkpt>
      <trkpt lat="42.790166" lon="-0.233469">
        <ele>2202.039</ele>
        <time>2020-07-18T08:58:30Z</time>
      </trkpt>
      <trkpt lat="42.790181" lon="-0.233535">
        <ele>2204.401</ele>
        <time>2020-07-18T08:58:37Z</time>
      </trkpt>
      <trkpt lat="42.790205" lon="-0.233605">
        <ele>2202.221</ele>
        <time>2020-07-18T08:58:44Z</time>
      </trkpt>
      <trkpt lat="42.790208" lon="-0.233669">
        <ele>2205.208</ele>
        <time>2020-07-18T08:58:51Z</time>
      </trkpt>
      <trkpt lat="42.790204" lon="-0.233733">
        <ele>2203.618</ele>
        <time>2020-07-18T08:58:59Z</time>
      </trkpt>
      <trkpt lat="42.790200" lon="-0.233806">
        <ele>2206.216</ele>
        <time>2020-07-18T08:59:04Z</time>
      </trkpt>
      <trkpt lat="42.790205" lon="-0.233884">
        <ele>2204.649</ele>
        <time>2020-07-18T08:59:09Z</time>
      </trkpt>
      <trkpt lat="42.790182" lon="-0.233956">
        <ele>2205.345</ele>
        <time>2020-07-18T08:59:15Z</time>
      </trkpt>
      <trkpt lat="42.790168" lon="-0.234025">
        <ele>2208.062</ele>
        <time>2020-07-18T08:59:21Z</time>
      </trkpt>
      <trkpt lat="42.790139" lon="-0.234086">
        <ele>2207.551</ele>
        <time>2020-07-18T08:59:28Z</time>
      </trkpt>
      <trkpt lat="42.790131" lon="-0.234151">
        <ele>2206.598</ele>
        <time>2020-07-18T08:59:33Z</time>
      </trkpt>
      <trkpt lat="42.790119" lon="-0.234219">
        <ele>2207.410</ele>
        <time>2020-07-18T08:59:53Z</time>
      </trkpt>
      <trkpt lat="42.790116" lon="-0.234295">
        <ele>2210.819</ele>
        <time>2020-07-18T09:00:04Z</time>
      </trkpt>
      <trkpt lat="42.790101" lon="-0.234361">
        <ele>2211.909</ele>
        <time>2020-07-18T09:00:12Z</time>
      </trkpt>
      <trkpt lat="42.790082" lon="-0.234419">
        <ele>2211.219</ele>
        <time>2020-07-18T09:00:19Z</time>
      </trkpt>
      <trkpt lat="42.790052" lon="-0.234475">
        <ele>2214.208</ele>
        <time>2020-07-18T09:00:30Z</time>
      </trkpt>
      <trkpt lat="42.790004" lon="-0.234485">
        <ele>2214.656</ele>
        <time>2020-07-18T09:00:37Z</time>
      </trkpt>
      <trkpt lat="42.789951" lon="-0.234504">
        <ele>2213.254</ele>
        <time>2020-07-18T09:00:45Z</time>
      </trkpt>
      <trkpt lat="42.789899" lon="-0.234528">
        <ele>2213.397</ele>
        <time>2020-07-18T09:00:51Z</time>
      </trkpt>
      <trkpt lat="42.789859" lon="-0.234560">
        <ele>2213.883</ele>
        <time>2020-07-18T09:00:58Z</time>
      </trkpt>
      <trkpt lat="42.789810" lon="-0.234558">
        <ele>2215.760</ele>
        <time>2020-07-18T09:01:04Z</time>
      </trkpt>
      <trkpt lat="42.789757" lon="-0.234570">
        <ele>2218.549</ele>
        <time>2020-07-18T09:01:13Z</time>
      </trkpt>
      <trkpt lat="42.789742" lon="-0.234623">
        <ele>2217.076</ele>
        <time>2020-07-18T09:01:22Z</time>
      </trkpt>
      <trkpt lat="42.789783" lon="-0.234634">
        <ele>2222.738</ele>
        <time>2020-07-18T09:02:03Z</time>
      </trkpt>
      <trkpt lat="42.789833" lon="-0.234661">
        <ele>2225.519</ele>
        <time>2020-07-18T09:02:11Z</time>
      </trkpt>
      <trkpt lat="42.789884" lon="-0.234672">
        <ele>2222.509</ele>
        <time>2020-07-18T09:02:21Z</time>
      </trkpt>
      <trkpt lat="42.789906" lon="-0.234728">
        <ele>2226.319</ele>
        <time>2020-07-18T09:02:40Z</time>
      </trkpt>
      <trkpt lat="42.789882" lon="-0.234780">
        <ele>2229.108</ele>
        <time>2020-07-18T09:02:51Z</time>
      </trkpt>
      <trkpt lat="42.789859" lon="-0.234841">
        <ele>2229.716</ele>
        <time>2020-07-18T09:03:05Z</time>
      </trkpt>
      <trkpt lat="42.789808" lon="-0.234857">
        <ele>2232.274</ele>
        <time>2020-07-18T09:03:17Z</time>
      </trkpt>
      <trkpt lat="42.789764" lon="-0.234881">
        <ele>2233.277</ele>
        <time>2020-07-18T09:03:23Z</time>
      </trkpt>
      <trkpt lat="42.789728" lon="-0.234866">
        <ele>2232.523</ele>
        <time>2020-07-18T09:03:56Z</time>
      </trkpt>
      <trkpt lat="42.789696" lon="-0.234898">
        <ele>2232.180</ele>
        <time>2020-07-18T09:05:31Z</time>
      </trkpt>
      <trkpt lat="42.789678" lon="-0.234970">
        <ele>2232.679</ele>
        <time>2020-07-18T09:05:35Z</time>
      </trkpt>
      <trkpt lat="42.789665" lon="-0.235048">
        <ele>2233.146</ele>
        <time>2020-07-18T09:05:41Z</time>
      </trkpt>
      <trkpt lat="42.789646" lon="-0.235121">
        <ele>2235.058</ele>
        <time>2020-07-18T09:05:48Z</time>
      </trkpt>
      <trkpt lat="42.789636" lon="-0.235183">
        <ele>2233.643</ele>
        <time>2020-07-18T09:05:54Z</time>
      </trkpt>
      <trkpt lat="42.789631" lon="-0.235247">
        <ele>2236.464</ele>
        <time>2020-07-18T09:06:01Z</time>
      </trkpt>
      <trkpt lat="42.789604" lon="-0.235305">
        <ele>2236.210</ele>
        <time>2020-07-18T09:06:11Z</time>
      </trkpt>
      <trkpt lat="42.789561" lon="-0.235350">
        <ele>2235.608</ele>
        <time>2020-07-18T09:06:20Z</time>
      </trkpt>
      <trkpt lat="42.789539" lon="-0.235405">
        <ele>2237.229</ele>
        <time>2020-07-18T09:06:25Z</time>
      </trkpt>
      <trkpt lat="42.789527" lon="-0.235468">
        <ele>2238.467</ele>
        <time>2020-07-18T09:06:30Z</time>
      </trkpt>
      <trkpt lat="42.789536" lon="-0.235535">
        <ele>2236.760</ele>
        <time>2020-07-18T09:06:36Z</time>
      </trkpt>
      <trkpt lat="42.789552" lon="-0.235597">
        <ele>2241.196</ele>
        <time>2020-07-18T09:06:44Z</time>
      </trkpt>
      <trkpt lat="42.789552" lon="-0.235659">
        <ele>2239.943</ele>
        <time>2020-07-18T09:06:51Z</time>
      </trkpt>
      <trkpt lat="42.789524" lon="-0.235714">
        <ele>2239.682</ele>
        <time>2020-07-18T09:06:57Z</time>
      </trkpt>
      <trkpt lat="42.789499" lon="-0.235773">
        <ele>2240.989</ele>
        <time>2020-07-18T09:07:07Z</time>
      </trkpt>
      <trkpt lat="42.789497" lon="-0.235824">
        <ele>2242.571</ele>
        <time>2020-07-18T09:07:16Z</time>
      </trkpt>
      <trkpt lat="42.789536" lon="-0.235834">
        <ele>2244.559</ele>
        <time>2020-07-18T09:07:26Z</time>
      </trkpt>
      <trkpt lat="42.789574" lon="-0.235871">
        <ele>2245.403</ele>
        <time>2020-07-18T09:07:40Z</time>
      </trkpt>
      <trkpt lat="42.789592" lon="-0.235927">
        <ele>2243.923</ele>
        <time>2020-07-18T09:07:48Z</time>
      </trkpt>
      <trkpt lat="42.789579" lon="-0.235987">
        <ele>2246.108</ele>
        <time>2020-07-18T09:07:54Z</time>
      </trkpt>
      <trkpt lat="42.789547" lon="-0.236035">
        <ele>2247.620</ele>
        <time>2020-07-18T09:08:00Z</time>
      </trkpt>
      <trkpt lat="42.789524" lon="-0.236084">
        <ele>2247.348</ele>
        <time>2020-07-18T09:08:09Z</time>
      </trkpt>
      <trkpt lat="42.789522" lon="-0.236143">
        <ele>2248.641</ele>
        <time>2020-07-18T09:08:41Z</time>
      </trkpt>
      <trkpt lat="42.789507" lon="-0.236204">
        <ele>2247.557</ele>
        <time>2020-07-18T09:08:47Z</time>
      </trkpt>
      <trkpt lat="42.789466" lon="-0.236262">
        <ele>2250.864</ele>
        <time>2020-07-18T09:08:53Z</time>
      </trkpt>
      <trkpt lat="42.789432" lon="-0.236304">
        <ele>2250.773</ele>
        <time>2020-07-18T09:08:57Z</time>
      </trkpt>
      <trkpt lat="42.789408" lon="-0.236374">
        <ele>2251.970</ele>
        <time>2020-07-18T09:09:03Z</time>
      </trkpt>
      <trkpt lat="42.789375" lon="-0.236421">
        <ele>2251.792</ele>
        <time>2020-07-18T09:09:10Z</time>
      </trkpt>
      <trkpt lat="42.789368" lon="-0.236473">
        <ele>2252.775</ele>
        <time>2020-07-18T09:09:20Z</time>
      </trkpt>
      <trkpt lat="42.789398" lon="-0.236514">
        <ele>2251.628</ele>
        <time>2020-07-18T09:09:26Z</time>
      </trkpt>
      <trkpt lat="42.789440" lon="-0.236548">
        <ele>2256.220</ele>
        <time>2020-07-18T09:09:50Z</time>
      </trkpt>
      <trkpt lat="42.789461" lon="-0.236588">
        <ele>2257.208</ele>
        <time>2020-07-18T09:10:03Z</time>
      </trkpt>
      <trkpt lat="42.789456" lon="-0.236650">
        <ele>2257.362</ele>
        <time>2020-07-18T09:10:10Z</time>
      </trkpt>
      <trkpt lat="42.789435" lon="-0.236715">
        <ele>2258.280</ele>
        <time>2020-07-18T09:10:16Z</time>
      </trkpt>
      <trkpt lat="42.789420" lon="-0.236782">
        <ele>2258.763</ele>
        <time>2020-07-18T09:10:24Z</time>
      </trkpt>
      <trkpt lat="42.789410" lon="-0.236844">
        <ele>2260.449</ele>
        <time>2020-07-18T09:10:31Z</time>
      </trkpt>
      <trkpt lat="42.789395" lon="-0.236905">
        <ele>2260.936</ele>
        <time>2020-07-18T09:10:38Z</time>
      </trkpt>
      <trkpt lat="42.789375" lon="-0.236966">
        <ele>2260.235</ele>
        <time>2020-07-18T09:10:44Z</time>
      </trkpt>
      <trkpt lat="42.789349" lon="-0.237021">
        <ele>2257.412</ele>
        <time>2020-07-18T09:10:51Z</time>
      </trkpt>
      <trkpt lat="42.789343" lon="-0.237087">
        <ele>2263.294</ele>
        <time>2020-07-18T09:11:00Z</time>
      </trkpt>
      <trkpt lat="42.789327" lon="-0.237158">
        <ele>2264.811</ele>
        <time>2020-07-18T09:11:06Z</time>
      </trkpt>
      <trkpt lat="42.789308" lon="-0.237218">
        <ele>2264.721</ele>
        <time>2020-07-18T09:11:12Z</time>
      </trkpt>
      <trkpt lat="42.789272" lon="-0.237255">
        <ele>2264.703</ele>
        <time>2020-07-18T09:11:18Z</time>
      </trkpt>
      <trkpt lat="42.789244" lon="-0.237314">
        <ele>2267.208</ele>
        <time>2020-07-18T09:11:28Z</time>
      </trkpt>
      <trkpt lat="42.789245" lon="-0.237313">
        <ele>2268.276</ele>
        <time>2020-07-18T09:12:20Z</time>
      </trkpt>
      <trkpt lat="42.789230" lon="-0.237377">
        <ele>2266.334</ele>
        <time>2020-07-18T09:13:22Z</time>
      </trkpt>
      <trkpt lat="42.789212" lon="-0.237445">
        <ele>2266.077</ele>
        <time>2020-07-18T09:13:27Z</time>
      </trkpt>
      <trkpt lat="42.789192" lon="-0.237522">
        <ele>2266.643</ele>
        <time>2020-07-18T09:13:33Z</time>
      </trkpt>
      <trkpt lat="42.789181" lon="-0.237598">
        <ele>2266.280</ele>
        <time>2020-07-18T09:13:38Z</time>
      </trkpt>
      <trkpt lat="42.789168" lon="-0.237668">
        <ele>2267.159</ele>
        <time>2020-07-18T09:13:43Z</time>
      </trkpt>
      <trkpt lat="42.789158" lon="-0.237741">
        <ele>2267.166</ele>
        <time>2020-07-18T09:13:48Z</time>
      </trkpt>
      <trkpt lat="42.789157" lon="-0.237808">
        <ele>2266.938</ele>
        <time>2020-07-18T09:13:53Z</time>
      </trkpt>
      <trkpt lat="42.789162" lon="-0.237878">
        <ele>2268.143</ele>
        <time>2020-07-18T09:14:00Z</time>
      </trkpt>
      <trkpt lat="42.789173" lon="-0.237945">
        <ele>2267.064</ele>
        <time>2020-07-18T09:14:05Z</time>
      </trkpt>
      <trkpt lat="42.789182" lon="-0.238009">
        <ele>2268.910</ele>
        <time>2020-07-18T09:14:11Z</time>
      </trkpt>
      <trkpt lat="42.789193" lon="-0.238074">
        <ele>2269.808</ele>
        <time>2020-07-18T09:14:17Z</time>
      </trkpt>
      <trkpt lat="42.789196" lon="-0.238148">
        <ele>2270.689</ele>
        <time>2020-07-18T09:14:25Z</time>
      </trkpt>
      <trkpt lat="42.789194" lon="-0.238220">
        <ele>2271.837</ele>
        <time>2020-07-18T09:14:33Z</time>
      </trkpt>
      <trkpt lat="42.789205" lon="-0.238283">
        <ele>2273.380</ele>
        <time>2020-07-18T09:14:41Z</time>
      </trkpt>
      <trkpt lat="42.789206" lon="-0.238342">
        <ele>2271.256</ele>
        <time>2020-07-18T09:14:53Z</time>
      </trkpt>
      <trkpt lat="42.789180" lon="-0.238386">
        <ele>2274.663</ele>
        <time>2020-07-18T09:15:03Z</time>
      </trkpt>
      <trkpt lat="42.789139" lon="-0.238426">
        <ele>2274.412</ele>
        <time>2020-07-18T09:15:16Z</time>
      </trkpt>
      <trkpt lat="42.789096" lon="-0.238458">
        <ele>2276.329</ele>
        <time>2020-07-18T09:15:23Z</time>
      </trkpt>
      <trkpt lat="42.789052" lon="-0.238489">
        <ele>2277.131</ele>
        <time>2020-07-18T09:15:30Z</time>
      </trkpt>
      <trkpt lat="42.789025" lon="-0.238542">
        <ele>2277.679</ele>
        <time>2020-07-18T09:15:39Z</time>
      </trkpt>
      <trkpt lat="42.789019" lon="-0.238608">
        <ele>2278.605</ele>
        <time>2020-07-18T09:15:46Z</time>
      </trkpt>
      <trkpt lat="42.789052" lon="-0.238653">
        <ele>2277.125</ele>
        <time>2020-07-18T09:15:52Z</time>
      </trkpt>
      <trkpt lat="42.789052" lon="-0.238721">
        <ele>2279.708</ele>
        <time>2020-07-18T09:16:05Z</time>
      </trkpt>
      <trkpt lat="42.789035" lon="-0.238786">
        <ele>2279.752</ele>
        <time>2020-07-18T09:16:16Z</time>
      </trkpt>
      <trkpt lat="42.789013" lon="-0.238844">
        <ele>2283.680</ele>
        <time>2020-07-18T09:16:26Z</time>
      </trkpt>
      <trkpt lat="42.788990" lon="-0.238888">
        <ele>2284.133</ele>
        <time>2020-07-18T09:16:35Z</time>
      </trkpt>
      <trkpt lat="42.789007" lon="-0.238942">
        <ele>2285.069</ele>
        <time>2020-07-18T09:16:48Z</time>
      </trkpt>
      <trkpt lat="42.789042" lon="-0.238936">
        <ele>2284.596</ele>
        <time>2020-07-18T09:17:18Z</time>
      </trkpt>
      <trkpt lat="42.789059" lon="-0.238994">
        <ele>2284.585</ele>
        <time>2020-07-18T09:17:36Z</time>
      </trkpt>
      <trkpt lat="42.789033" lon="-0.239048">
        <ele>2287.232</ele>
        <time>2020-07-18T09:18:06Z</time>
      </trkpt>
      <trkpt lat="42.788998" lon="-0.239102">
        <ele>2287.594</ele>
        <time>2020-07-18T09:18:14Z</time>
      </trkpt>
      <trkpt lat="42.788964" lon="-0.239148">
        <ele>2286.933</ele>
        <time>2020-07-18T09:18:20Z</time>
      </trkpt>
      <trkpt lat="42.788915" lon="-0.239182">
        <ele>2289.823</ele>
        <time>2020-07-18T09:18:26Z</time>
      </trkpt>
      <trkpt lat="42.788870" lon="-0.239187">
        <ele>2289.415</ele>
        <time>2020-07-18T09:18:32Z</time>
      </trkpt>
      <trkpt lat="42.788831" lon="-0.239207">
        <ele>2288.408</ele>
        <time>2020-07-18T09:18:54Z</time>
      </trkpt>
      <trkpt lat="42.788810" lon="-0.239243">
        <ele>2292.048</ele>
        <time>2020-07-18T09:19:16Z</time>
      </trkpt>
      <trkpt lat="42.788770" lon="-0.239274">
        <ele>2292.976</ele>
        <time>2020-07-18T09:19:27Z</time>
      </trkpt>
      <trkpt lat="42.788746" lon="-0.239335">
        <ele>2293.389</ele>
        <time>2020-07-18T09:19:32Z</time>
      </trkpt>
      <trkpt lat="42.788741" lon="-0.239399">
        <ele>2291.145</ele>
        <time>2020-07-18T09:19:36Z</time>
      </trkpt>
      <trkpt lat="42.788733" lon="-0.239460">
        <ele>2293.572</ele>
        <time>2020-07-18T09:19:45Z</time>
      </trkpt>
      <trkpt lat="42.788755" lon="-0.239516">
        <ele>2295.261</ele>
        <time>2020-07-18T09:20:00Z</time>
      </trkpt>
      <trkpt lat="42.788762" lon="-0.239578">
        <ele>2296.588</ele>
        <time>2020-07-18T09:20:17Z</time>
      </trkpt>
      <trkpt lat="42.788780" lon="-0.239621">
        <ele>2296.150</ele>
        <time>2020-07-18T09:21:06Z</time>
      </trkpt>
      <trkpt lat="42.788748" lon="-0.239674">
        <ele>2299.357</ele>
        <time>2020-07-18T09:21:14Z</time>
      </trkpt>
      <trkpt lat="42.788716" lon="-0.239725">
        <ele>2299.900</ele>
        <time>2020-07-18T09:21:20Z</time>
      </trkpt>
      <trkpt lat="42.788692" lon="-0.239781">
        <ele>2301.420</ele>
        <time>2020-07-18T09:21:26Z</time>
      </trkpt>
      <trkpt lat="42.788675" lon="-0.239851">
        <ele>2301.208</ele>
        <time>2020-07-18T09:21:33Z</time>
      </trkpt>
      <trkpt lat="42.788652" lon="-0.239915">
        <ele>2303.090</ele>
        <time>2020-07-18T09:21:53Z</time>
      </trkpt>
      <trkpt lat="42.788624" lon="-0.239971">
        <ele>2304.828</ele>
        <time>2020-07-18T09:22:02Z</time>
      </trkpt>
      <trkpt lat="42.788617" lon="-0.240040">
        <ele>2304.711</ele>
        <time>2020-07-18T09:22:16Z</time>
      </trkpt>
      <trkpt lat="42.788594" lon="-0.240089">
        <ele>2308.847</ele>
        <time>2020-07-18T09:23:16Z</time>
      </trkpt>
      <trkpt lat="42.788554" lon="-0.240120">
        <ele>2309.694</ele>
        <time>2020-07-18T09:23:24Z</time>
      </trkpt>
      <trkpt lat="42.788513" lon="-0.240153">
        <ele>2309.333</ele>
        <time>2020-07-18T09:23:32Z</time>
      </trkpt>
      <trkpt lat="42.788453" lon="-0.240147">
        <ele>2311.460</ele>
        <time>2020-07-18T09:23:41Z</time>
      </trkpt>
      <trkpt lat="42.788407" lon="-0.240168">
        <ele>2312.562</ele>
        <time>2020-07-18T09:23:49Z</time>
      </trkpt>
      <trkpt lat="42.788393" lon="-0.240231">
        <ele>2311.241</ele>
        <time>2020-07-18T09:23:57Z</time>
      </trkpt>
      <trkpt lat="42.788381" lon="-0.240304">
        <ele>2313.081</ele>
        <time>2020-07-18T09:24:05Z</time>
      </trkpt>
      <trkpt lat="42.788347" lon="-0.240327">
        <ele>2320.209</ele>
        <time>2020-07-18T09:26:00Z</time>
      </trkpt>
      <trkpt lat="42.788304" lon="-0.240326">
        <ele>2321.308</ele>
        <time>2020-07-18T09:26:07Z</time>
      </trkpt>
      <trkpt lat="42.788247" lon="-0.240335">
        <ele>2322.489</ele>
        <time>2020-07-18T09:26:13Z</time>
      </trkpt>
      <trkpt lat="42.788205" lon="-0.240379">
        <ele>2322.927</ele>
        <time>2020-07-18T09:26:18Z</time>
      </trkpt>
      <trkpt lat="42.788167" lon="-0.240426">
        <ele>2325.060</ele>
        <time>2020-07-18T09:26:29Z</time>
      </trkpt>
      <trkpt lat="42.788137" lon="-0.240475">
        <ele>2325.136</ele>
        <time>2020-07-18T09:26:38Z</time>
      </trkpt>
      <trkpt lat="42.788108" lon="-0.240528">
        <ele>2325.233</ele>
        <time>2020-07-18T09:26:50Z</time>
      </trkpt>
      <trkpt lat="42.788098" lon="-0.240600">
        <ele>2325.692</ele>
        <time>2020-07-18T09:26:59Z</time>
      </trkpt>
      <trkpt lat="42.788130" lon="-0.240628">
        <ele>2327.929</ele>
        <time>2020-07-18T09:45:55Z</time>
      </trkpt>
      <trkpt lat="42.788158" lon="-0.240675">
        <ele>2326.871</ele>
        <time>2020-07-18T09:46:42Z</time>
      </trkpt>
      <trkpt lat="42.788180" lon="-0.240735">
        <ele>2325.422</ele>
        <time>2020-07-18T09:46:48Z</time>
      </trkpt>
      <trkpt lat="42.788180" lon="-0.240797">
        <ele>2324.962</ele>
        <time>2020-07-18T09:46:55Z</time>
      </trkpt>
      <trkpt lat="42.788195" lon="-0.240866">
        <ele>2325.208</ele>
        <time>2020-07-18T09:47:04Z</time>
      </trkpt>
      <trkpt lat="42.788241" lon="-0.240896">
        <ele>2322.908</ele>
        <time>2020-07-18T09:47:11Z</time>
      </trkpt>
      <trkpt lat="42.788266" lon="-0.240956">
        <ele>2325.847</ele>
        <time>2020-07-18T09:47:21Z</time>
      </trkpt>
      <trkpt lat="42.788292" lon="-0.241016">
        <ele>2324.655</ele>
        <time>2020-07-18T09:47:28Z</time>
      </trkpt>
      <trkpt lat="42.788325" lon="-0.241059">
        <ele>2325.388</ele>
        <time>2020-07-18T09:47:34Z</time>
      </trkpt>
      <trkpt lat="42.788362" lon="-0.241101">
        <ele>2326.994</ele>
        <time>2020-07-18T09:47:41Z</time>
      </trkpt>
      <trkpt lat="42.788386" lon="-0.241153">
        <ele>2325.831</ele>
        <time>2020-07-18T09:47:49Z</time>
      </trkpt>
      <trkpt lat="42.788418" lon="-0.241199">
        <ele>2326.810</ele>
        <time>2020-07-18T09:47:55Z</time>
      </trkpt>
      <trkpt lat="42.788470" lon="-0.241206">
        <ele>2326.437</ele>
        <time>2020-07-18T09:48:01Z</time>
      </trkpt>
      <trkpt lat="42.788516" lon="-0.241236">
        <ele>2327.819</ele>
        <time>2020-07-18T09:48:06Z</time>
      </trkpt>
      <trkpt lat="42.788560" lon="-0.241261">
        <ele>2324.993</ele>
        <time>2020-07-18T09:48:12Z</time>
      </trkpt>
      <trkpt lat="42.788593" lon="-0.241308">
        <ele>2329.265</ele>
        <time>2020-07-18T09:48:20Z</time>
      </trkpt>
      <trkpt lat="42.788598" lon="-0.241371">
        <ele>2331.421</ele>
        <time>2020-07-18T09:48:30Z</time>
      </trkpt>
      <trkpt lat="42.788581" lon="-0.241429">
        <ele>2334.208</ele>
        <time>2020-07-18T09:48:40Z</time>
      </trkpt>
      <trkpt lat="42.788592" lon="-0.241496">
        <ele>2331.654</ele>
        <time>2020-07-18T09:48:51Z</time>
      </trkpt>
      <trkpt lat="42.788618" lon="-0.241555">
        <ele>2335.552</ele>
        <time>2020-07-18T09:48:58Z</time>
      </trkpt>
      <trkpt lat="42.788648" lon="-0.241613">
        <ele>2339.545</ele>
        <time>2020-07-18T09:49:27Z</time>
      </trkpt>
      <trkpt lat="42.788686" lon="-0.241650">
        <ele>2338.421</ele>
        <time>2020-07-18T09:49:38Z</time>
      </trkpt>
      <trkpt lat="42.788705" lon="-0.241708">
        <ele>2342.758</ele>
        <time>2020-07-18T09:50:27Z</time>
      </trkpt>
      <trkpt lat="42.788702" lon="-0.241770">
        <ele>2343.727</ele>
        <time>2020-07-18T09:50:50Z</time>
      </trkpt>
      <trkpt lat="42.788690" lon="-0.241831">
        <ele>2348.284</ele>
        <time>2020-07-18T09:51:02Z</time>
      </trkpt>
      <trkpt lat="42.788672" lon="-0.241883">
        <ele>2347.576</ele>
        <time>2020-07-18T09:51:14Z</time>
      </trkpt>
      <trkpt lat="42.788679" lon="-0.241945">
        <ele>2351.997</ele>
        <time>2020-07-18T09:52:05Z</time>
      </trkpt>
      <trkpt lat="42.788671" lon="-0.242009">
        <ele>2356.823</ele>
        <time>2020-07-18T09:52:23Z</time>
      </trkpt>
      <trkpt lat="42.788656" lon="-0.242064">
        <ele>2356.225</ele>
        <time>2020-07-18T09:52:33Z</time>
      </trkpt>
      <trkpt lat="42.788671" lon="-0.242115">
        <ele>2357.908</ele>
        <time>2020-07-18T09:53:46Z</time>
      </trkpt>
      <trkpt lat="42.788682" lon="-0.242179">
        <ele>2361.724</ele>
        <time>2020-07-18T09:54:00Z</time>
      </trkpt>
      <trkpt lat="42.788668" lon="-0.242239">
        <ele>2364.272</ele>
        <time>2020-07-18T09:54:14Z</time>
      </trkpt>
      <trkpt lat="42.788683" lon="-0.242287">
        <ele>2364.695</ele>
        <time>2020-07-18T09:54:31Z</time>
      </trkpt>
      <trkpt lat="42.788728" lon="-0.242292">
        <ele>2362.861</ele>
        <time>2020-07-18T09:54:43Z</time>
      </trkpt>
      <trkpt lat="42.788766" lon="-0.242348">
        <ele>2368.598</ele>
        <time>2020-07-18T09:54:56Z</time>
      </trkpt>
      <trkpt lat="42.788792" lon="-0.242407">
        <ele>2371.787</ele>
        <time>2020-07-18T09:55:05Z</time>
      </trkpt>
      <trkpt lat="42.788796" lon="-0.242477">
        <ele>2370.054</ele>
        <time>2020-07-18T09:56:07Z</time>
      </trkpt>
      <trkpt lat="42.788814" lon="-0.242527">
        <ele>2367.966</ele>
        <time>2020-07-18T09:56:30Z</time>
      </trkpt>
      <trkpt lat="42.788852" lon="-0.242565">
        <ele>2369.917</ele>
        <time>2020-07-18T09:56:41Z</time>
      </trkpt>
      <trkpt lat="42.788889" lon="-0.242601">
        <ele>2369.287</ele>
        <time>2020-07-18T09:56:49Z</time>
      </trkpt>
      <trkpt lat="42.788911" lon="-0.242662">
        <ele>2372.315</ele>
        <time>2020-07-18T09:56:57Z</time>
      </trkpt>
      <trkpt lat="42.788924" lon="-0.242722">
        <ele>2372.908</ele>
        <time>2020-07-18T09:57:03Z</time>
      </trkpt>
      <trkpt lat="42.788936" lon="-0.242786">
        <ele>2373.086</ele>
        <time>2020-07-18T09:57:07Z</time>
      </trkpt>
      <trkpt lat="42.788944" lon="-0.242848">
        <ele>2372.764</ele>
        <time>2020-07-18T09:57:13Z</time>
      </trkpt>
      <trkpt lat="42.788959" lon="-0.242911">
        <ele>2372.697</ele>
        <time>2020-07-18T09:57:21Z</time>
      </trkpt>
      <trkpt lat="42.788992" lon="-0.242963">
        <ele>2373.083</ele>
        <time>2020-07-18T09:57:26Z</time>
      </trkpt>
      <trkpt lat="42.789033" lon="-0.243026">
        <ele>2373.560</ele>
        <time>2020-07-18T09:57:32Z</time>
      </trkpt>
      <trkpt lat="42.789059" lon="-0.243077">
        <ele>2377.289</ele>
        <time>2020-07-18T09:57:37Z</time>
      </trkpt>
      <trkpt lat="42.789084" lon="-0.243132">
        <ele>2376.596</ele>
        <time>2020-07-18T09:57:44Z</time>
      </trkpt>
      <trkpt lat="42.789083" lon="-0.243200">
        <ele>2376.068</ele>
        <time>2020-07-18T09:57:53Z</time>
      </trkpt>
      <trkpt lat="42.789055" lon="-0.243255">
        <ele>2375.985</ele>
        <time>2020-07-18T09:57:59Z</time>
      </trkpt>
      <trkpt lat="42.789025" lon="-0.243314">
        <ele>2376.089</ele>
        <time>2020-07-18T09:58:05Z</time>
      </trkpt>
      <trkpt lat="42.789028" lon="-0.243368">
        <ele>2377.917</ele>
        <time>2020-07-18T09:58:20Z</time>
      </trkpt>
      <trkpt lat="42.789061" lon="-0.243393">
        <ele>2374.808</ele>
        <time>2020-07-18T09:58:55Z</time>
      </trkpt>
      <trkpt lat="42.789102" lon="-0.243436">
        <ele>2375.613</ele>
        <time>2020-07-18T09:59:02Z</time>
      </trkpt>
      <trkpt lat="42.789153" lon="-0.243471">
        <ele>2375.711</ele>
        <time>2020-07-18T09:59:06Z</time>
      </trkpt>
      <trkpt lat="42.789198" lon="-0.243514">
        <ele>2377.374</ele>
        <time>2020-07-18T09:59:10Z</time>
      </trkpt>
      <trkpt lat="42.789210" lon="-0.243576">
        <ele>2377.090</ele>
        <time>2020-07-18T09:59:19Z</time>
      </trkpt>
      <trkpt lat="42.789238" lon="-0.243624">
        <ele>2376.097</ele>
        <time>2020-07-18T09:59:55Z</time>
      </trkpt>
      <trkpt lat="42.789280" lon="-0.243622">
        <ele>2376.946</ele>
        <time>2020-07-18T10:01:55Z</time>
      </trkpt>
      <trkpt lat="42.789326" lon="-0.243627">
        <ele>2376.973</ele>
        <time>2020-07-18T10:02:01Z</time>
      </trkpt>
      <trkpt lat="42.789373" lon="-0.243627">
        <ele>2377.475</ele>
        <time>2020-07-18T10:02:27Z</time>
      </trkpt>
      <trkpt lat="42.789416" lon="-0.243658">
        <ele>2375.924</ele>
        <time>2020-07-18T10:02:36Z</time>
      </trkpt>
      <trkpt lat="42.789466" lon="-0.243671">
        <ele>2375.204</ele>
        <time>2020-07-18T10:02:43Z</time>
      </trkpt>
      <trkpt lat="42.789512" lon="-0.243678">
        <ele>2377.214</ele>
        <time>2020-07-18T10:02:54Z</time>
      </trkpt>
      <trkpt lat="42.789557" lon="-0.243684">
        <ele>2375.108</ele>
        <time>2020-07-18T10:03:15Z</time>
      </trkpt>
      <trkpt lat="42.789591" lon="-0.243728">
        <ele>2375.137</ele>
        <time>2020-07-18T10:03:24Z</time>
      </trkpt>
      <trkpt lat="42.789623" lon="-0.243785">
        <ele>2374.095</ele>
        <time>2020-07-18T10:03:35Z</time>
      </trkpt>
      <trkpt lat="42.789659" lon="-0.243824">
        <ele>2375.598</ele>
        <time>2020-07-18T10:03:41Z</time>
      </trkpt>
      <trkpt lat="42.789671" lon="-0.243899">
        <ele>2375.854</ele>
        <time>2020-07-18T10:03:48Z</time>
      </trkpt>
      <trkpt lat="42.789696" lon="-0.243956">
        <ele>2375.661</ele>
        <time>2020-07-18T10:03:54Z</time>
      </trkpt>
      <trkpt lat="42.789745" lon="-0.243980">
        <ele>2375.110</ele>
        <time>2020-07-18T10:04:00Z</time>
      </trkpt>
      <trkpt lat="42.789789" lon="-0.244018">
        <ele>2374.727</ele>
        <time>2020-07-18T10:04:05Z</time>
      </trkpt>
      <trkpt lat="42.789829" lon="-0.244067">
        <ele>2373.469</ele>
        <time>2020-07-18T10:04:10Z</time>
      </trkpt>
      <trkpt lat="42.789870" lon="-0.244111">
        <ele>2374.936</ele>
        <time>2020-07-18T10:04:17Z</time>
      </trkpt>
      <trkpt lat="42.789919" lon="-0.244131">
        <ele>2374.317</ele>
        <time>2020-07-18T10:04:24Z</time>
      </trkpt>
      <trkpt lat="42.789959" lon="-0.244164">
        <ele>2374.418</ele>
        <time>2020-07-18T10:04:30Z</time>
      </trkpt>
      <trkpt lat="42.790000" lon="-0.244166">
        <ele>2371.308</ele>
        <time>2020-07-18T10:04:45Z</time>
      </trkpt>
      <trkpt lat="42.790030" lon="-0.244211">
        <ele>2373.058</ele>
        <time>2020-07-18T10:04:54Z</time>
      </trkpt>
      <trkpt lat="42.790066" lon="-0.244250">
        <ele>2372.196</ele>
        <time>2020-07-18T10:05:02Z</time>
      </trkpt>
      <trkpt lat="42.790112" lon="-0.244252">
        <ele>2370.639</ele>
        <time>2020-07-18T10:05:14Z</time>
      </trkpt>
      <trkpt lat="42.790161" lon="-0.244251">
        <ele>2368.625</ele>
        <time>2020-07-18T10:05:29Z</time>
      </trkpt>
      <trkpt lat="42.790205" lon="-0.244280">
        <ele>2366.942</ele>
        <time>2020-07-18T10:05:38Z</time>
      </trkpt>
      <trkpt lat="42.790236" lon="-0.244329">
        <ele>2368.091</ele>
        <time>2020-07-18T10:05:44Z</time>
      </trkpt>
      <trkpt lat="42.790268" lon="-0.244383">
        <ele>2367.688</ele>
        <time>2020-07-18T10:05:54Z</time>
      </trkpt>
      <trkpt lat="42.790305" lon="-0.244431">
        <ele>2367.290</ele>
        <time>2020-07-18T10:06:02Z</time>
      </trkpt>
      <trkpt lat="42.790346" lon="-0.244461">
        <ele>2366.712</ele>
        <time>2020-07-18T10:06:09Z</time>
      </trkpt>
      <trkpt lat="42.790388" lon="-0.244497">
        <ele>2366.632</ele>
        <time>2020-07-18T10:06:17Z</time>
      </trkpt>
      <trkpt lat="42.790422" lon="-0.244530">
        <ele>2367.505</ele>
        <time>2020-07-18T10:06:23Z</time>
      </trkpt>
      <trkpt lat="42.790446" lon="-0.244541">
        <ele>2366.908</ele>
        <time>2020-07-18T10:06:57Z</time>
      </trkpt>
      <trkpt lat="42.790482" lon="-0.244557">
        <ele>2366.926</ele>
        <time>2020-07-18T10:07:13Z</time>
      </trkpt>
      <trkpt lat="42.790511" lon="-0.244588">
        <ele>2365.214</ele>
        <time>2020-07-18T10:07:19Z</time>
      </trkpt>
      <trkpt lat="42.790548" lon="-0.244591">
        <ele>2364.257</ele>
        <time>2020-07-18T10:07:24Z</time>
      </trkpt>
      <trkpt lat="42.790596" lon="-0.244582">
        <ele>2363.743</ele>
        <time>2020-07-18T10:07:29Z</time>
      </trkpt>
      <trkpt lat="42.790647" lon="-0.244592">
        <ele>2364.250</ele>
        <time>2020-07-18T10:07:34Z</time>
      </trkpt>
      <trkpt lat="42.790681" lon="-0.244640">
        <ele>2365.299</ele>
        <time>2020-07-18T10:07:38Z</time>
      </trkpt>
      <trkpt lat="42.790695" lon="-0.244701">
        <ele>2364.546</ele>
        <time>2020-07-18T10:07:43Z</time>
      </trkpt>
      <trkpt lat="42.790698" lon="-0.244773">
        <ele>2362.368</ele>
        <time>2020-07-18T10:07:50Z</time>
      </trkpt>
      <trkpt lat="42.790703" lon="-0.244845">
        <ele>2367.039</ele>
        <time>2020-07-18T10:08:17Z</time>
      </trkpt>
      <trkpt lat="42.790705" lon="-0.244926">
        <ele>2366.201</ele>
        <time>2020-07-18T10:08:23Z</time>
      </trkpt>
      <trkpt lat="42.790719" lon="-0.244996">
        <ele>2364.721</ele>
        <time>2020-07-18T10:08:28Z</time>
      </trkpt>
      <trkpt lat="42.790746" lon="-0.245054">
        <ele>2363.808</ele>
        <time>2020-07-18T10:08:33Z</time>
      </trkpt>
      <trkpt lat="42.790791" lon="-0.245086">
        <ele>2365.718</ele>
        <time>2020-07-18T10:08:39Z</time>
      </trkpt>
      <trkpt lat="42.790825" lon="-0.245139">
        <ele>2366.946</ele>
        <time>2020-07-18T10:08:45Z</time>
      </trkpt>
      <trkpt lat="42.790849" lon="-0.245191">
        <ele>2367.979</ele>
        <time>2020-07-18T10:08:52Z</time>
      </trkpt>
      <trkpt lat="42.790875" lon="-0.245259">
        <ele>2366.895</ele>
        <time>2020-07-18T10:08:57Z</time>
      </trkpt>
      <trkpt lat="42.790885" lon="-0.245335">
        <ele>2366.692</ele>
        <time>2020-07-18T10:09:02Z</time>
      </trkpt>
      <trkpt lat="42.790893" lon="-0.245408">
        <ele>2368.411</ele>
        <time>2020-07-18T10:09:08Z</time>
      </trkpt>
      <trkpt lat="42.790904" lon="-0.245478">
        <ele>2365.758</ele>
        <time>2020-07-18T10:09:13Z</time>
      </trkpt>
      <trkpt lat="42.790917" lon="-0.245542">
        <ele>2367.450</ele>
        <time>2020-07-18T10:09:40Z</time>
      </trkpt>
      <trkpt lat="42.790957" lon="-0.245594">
        <ele>2366.555</ele>
        <time>2020-07-18T10:09:45Z</time>
      </trkpt>
      <trkpt lat="42.790991" lon="-0.245638">
        <ele>2366.807</ele>
        <time>2020-07-18T10:09:49Z</time>
      </trkpt>
      <trkpt lat="42.791019" lon="-0.245706">
        <ele>2366.517</ele>
        <time>2020-07-18T10:09:54Z</time>
      </trkpt>
      <trkpt lat="42.791034" lon="-0.245765">
        <ele>2365.908</ele>
        <time>2020-07-18T10:09:58Z</time>
      </trkpt>
      <trkpt lat="42.791047" lon="-0.245835">
        <ele>2365.730</ele>
        <time>2020-07-18T10:10:03Z</time>
      </trkpt>
      <trkpt lat="42.791074" lon="-0.245888">
        <ele>2366.828</ele>
        <time>2020-07-18T10:10:07Z</time>
      </trkpt>
      <trkpt lat="42.791104" lon="-0.245942">
        <ele>2366.131</ele>
        <time>2020-07-18T10:10:12Z</time>
      </trkpt>
      <trkpt lat="42.791133" lon="-0.246002">
        <ele>2365.887</ele>
        <time>2020-07-18T10:10:18Z</time>
      </trkpt>
      <trkpt lat="42.791154" lon="-0.246061">
        <ele>2366.954</ele>
        <time>2020-07-18T10:10:24Z</time>
      </trkpt>
      <trkpt lat="42.791169" lon="-0.246124">
        <ele>2369.233</ele>
        <time>2020-07-18T10:10:32Z</time>
      </trkpt>
      <trkpt lat="42.791159" lon="-0.246186">
        <ele>2366.580</ele>
        <time>2020-07-18T10:10:41Z</time>
      </trkpt>
      <trkpt lat="42.791122" lon="-0.246241">
        <ele>2367.162</ele>
        <time>2020-07-18T10:10:48Z</time>
      </trkpt>
      <trkpt lat="42.791105" lon="-0.246298">
        <ele>2366.681</ele>
        <time>2020-07-18T10:10:55Z</time>
      </trkpt>
      <trkpt lat="42.791091" lon="-0.246358">
        <ele>2366.161</ele>
        <time>2020-07-18T10:12:35Z</time>
      </trkpt>
      <trkpt lat="42.791103" lon="-0.246419">
        <ele>2367.317</ele>
        <time>2020-07-18T10:12:42Z</time>
      </trkpt>
      <trkpt lat="42.791134" lon="-0.246470">
        <ele>2365.808</ele>
        <time>2020-07-18T10:12:48Z</time>
      </trkpt>
      <trkpt lat="42.791165" lon="-0.246515">
        <ele>2368.283</ele>
        <time>2020-07-18T10:12:56Z</time>
      </trkpt>
      <trkpt lat="42.791179" lon="-0.246578">
        <ele>2364.661</ele>
        <time>2020-07-18T10:13:03Z</time>
      </trkpt>
      <trkpt lat="42.791190" lon="-0.246640">
        <ele>2366.084</ele>
        <time>2020-07-18T10:13:10Z</time>
      </trkpt>
      <trkpt lat="42.791173" lon="-0.246714">
        <ele>2367.770</ele>
        <time>2020-07-18T10:13:16Z</time>
      </trkpt>
      <trkpt lat="42.791153" lon="-0.246780">
        <ele>2367.077</ele>
        <time>2020-07-18T10:13:21Z</time>
      </trkpt>
      <trkpt lat="42.791156" lon="-0.246842">
        <ele>2366.646</ele>
        <time>2020-07-18T10:13:28Z</time>
      </trkpt>
      <trkpt lat="42.791156" lon="-0.246913">
        <ele>2367.333</ele>
        <time>2020-07-18T10:13:34Z</time>
      </trkpt>
      <trkpt lat="42.791142" lon="-0.246981">
        <ele>2367.785</ele>
        <time>2020-07-18T10:13:42Z</time>
      </trkpt>
      <trkpt lat="42.791133" lon="-0.247047">
        <ele>2368.337</ele>
        <time>2020-07-18T10:13:49Z</time>
      </trkpt>
      <trkpt lat="42.791121" lon="-0.247116">
        <ele>2368.749</ele>
        <time>2020-07-18T10:13:55Z</time>
      </trkpt>
      <trkpt lat="42.791128" lon="-0.247192">
        <ele>2368.613</ele>
        <time>2020-07-18T10:14:00Z</time>
      </trkpt>
      <trkpt lat="42.791138" lon="-0.247257">
        <ele>2367.708</ele>
        <time>2020-07-18T10:14:07Z</time>
      </trkpt>
      <trkpt lat="42.791147" lon="-0.247336">
        <ele>2369.578</ele>
        <time>2020-07-18T10:14:13Z</time>
      </trkpt>
      <trkpt lat="42.791142" lon="-0.247402">
        <ele>2369.566</ele>
        <time>2020-07-18T10:14:18Z</time>
      </trkpt>
      <trkpt lat="42.791136" lon="-0.247469">
        <ele>2368.459</ele>
        <time>2020-07-18T10:14:25Z</time>
      </trkpt>
      <trkpt lat="42.791138" lon="-0.247546">
        <ele>2369.645</ele>
        <time>2020-07-18T10:14:30Z</time>
      </trkpt>
      <trkpt lat="42.791129" lon="-0.247620">
        <ele>2370.742</ele>
        <time>2020-07-18T10:14:35Z</time>
      </trkpt>
      <trkpt lat="42.791128" lon="-0.247692">
        <ele>2369.631</ele>
        <time>2020-07-18T10:14:40Z</time>
      </trkpt>
      <trkpt lat="42.791135" lon="-0.247760">
        <ele>2369.268</ele>
        <time>2020-07-18T10:14:48Z</time>
      </trkpt>
      <trkpt lat="42.791154" lon="-0.247817">
        <ele>2370.570</ele>
        <time>2020-07-18T10:14:52Z</time>
      </trkpt>
      <trkpt lat="42.791144" lon="-0.247895">
        <ele>2369.915</ele>
        <time>2020-07-18T10:14:59Z</time>
      </trkpt>
      <trkpt lat="42.791125" lon="-0.247955">
        <ele>2369.865</ele>
        <time>2020-07-18T10:15:05Z</time>
      </trkpt>
      <trkpt lat="42.791111" lon="-0.248020">
        <ele>2371.011</ele>
        <time>2020-07-18T10:15:09Z</time>
      </trkpt>
      <trkpt lat="42.791099" lon="-0.248087">
        <ele>2371.808</ele>
        <time>2020-07-18T10:15:15Z</time>
      </trkpt>
      <trkpt lat="42.791103" lon="-0.248159">
        <ele>2371.676</ele>
        <time>2020-07-18T10:15:20Z</time>
      </trkpt>
      <trkpt lat="42.791108" lon="-0.248223">
        <ele>2370.674</ele>
        <time>2020-07-18T10:15:24Z</time>
      </trkpt>
      <trkpt lat="42.791115" lon="-0.248286">
        <ele>2370.537</ele>
        <time>2020-07-18T10:15:30Z</time>
      </trkpt>
      <trkpt lat="42.791106" lon="-0.248351">
        <ele>2371.823</ele>
        <time>2020-07-18T10:15:35Z</time>
      </trkpt>
      <trkpt lat="42.791100" lon="-0.248434">
        <ele>2372.620</ele>
        <time>2020-07-18T10:15:41Z</time>
      </trkpt>
      <trkpt lat="42.791109" lon="-0.248510">
        <ele>2371.769</ele>
        <time>2020-07-18T10:15:49Z</time>
      </trkpt>
      <trkpt lat="42.791102" lon="-0.248583">
        <ele>2372.486</ele>
        <time>2020-07-18T10:15:56Z</time>
      </trkpt>
      <trkpt lat="42.791103" lon="-0.248649">
        <ele>2371.368</ele>
        <time>2020-07-18T10:16:01Z</time>
      </trkpt>
      <trkpt lat="42.791094" lon="-0.248723">
        <ele>2373.147</ele>
        <time>2020-07-18T10:16:06Z</time>
      </trkpt>
      <trkpt lat="42.791067" lon="-0.248786">
        <ele>2373.329</ele>
        <time>2020-07-18T10:16:11Z</time>
      </trkpt>
      <trkpt lat="42.791042" lon="-0.248854">
        <ele>2373.521</ele>
        <time>2020-07-18T10:16:18Z</time>
      </trkpt>
      <trkpt lat="42.791036" lon="-0.248922">
        <ele>2371.708</ele>
        <time>2020-07-18T10:16:23Z</time>
      </trkpt>
      <trkpt lat="42.791039" lon="-0.248987">
        <ele>2372.839</ele>
        <time>2020-07-18T10:16:30Z</time>
      </trkpt>
      <trkpt lat="42.791066" lon="-0.249053">
        <ele>2374.797</ele>
        <time>2020-07-18T10:16:36Z</time>
      </trkpt>
      <trkpt lat="42.791091" lon="-0.249109">
        <ele>2375.390</ele>
        <time>2020-07-18T10:16:42Z</time>
      </trkpt>
      <trkpt lat="42.791084" lon="-0.249170">
        <ele>2375.186</ele>
        <time>2020-07-18T10:16:50Z</time>
      </trkpt>
      <trkpt lat="42.791054" lon="-0.249225">
        <ele>2375.223</ele>
        <time>2020-07-18T10:16:59Z</time>
      </trkpt>
      <trkpt lat="42.791009" lon="-0.249242">
        <ele>2375.262</ele>
        <time>2020-07-18T10:17:07Z</time>
      </trkpt>
      <trkpt lat="42.790972" lon="-0.249298">
        <ele>2374.629</ele>
        <time>2020-07-18T10:17:16Z</time>
      </trkpt>
      <trkpt lat="42.790947" lon="-0.249352">
        <ele>2377.791</ele>
        <time>2020-07-18T10:17:22Z</time>
      </trkpt>
      <trkpt lat="42.790907" lon="-0.249393">
        <ele>2379.645</ele>
        <time>2020-07-18T10:17:31Z</time>
      </trkpt>
      <trkpt lat="42.790872" lon="-0.249406">
        <ele>2379.747</ele>
        <time>2020-07-18T10:17:40Z</time>
      </trkpt>
      <trkpt lat="42.790844" lon="-0.249467">
        <ele>2380.411</ele>
        <time>2020-07-18T10:17:48Z</time>
      </trkpt>
      <trkpt lat="42.790838" lon="-0.249525">
        <ele>2381.108</ele>
        <time>2020-07-18T10:17:53Z</time>
      </trkpt>
      <trkpt lat="42.790802" lon="-0.249549">
        <ele>2380.569</ele>
        <time>2020-07-18T10:19:52Z</time>
      </trkpt>
      <trkpt lat="42.790756" lon="-0.249583">
        <ele>2386.317</ele>
        <time>2020-07-18T10:20:02Z</time>
      </trkpt>
      <trkpt lat="42.790715" lon="-0.249625">
        <ele>2387.720</ele>
        <time>2020-07-18T10:20:08Z</time>
      </trkpt>
      <trkpt lat="42.790706" lon="-0.249699">
        <ele>2386.466</ele>
        <time>2020-07-18T10:20:15Z</time>
      </trkpt>
      <trkpt lat="42.790719" lon="-0.249760">
        <ele>2386.173</ele>
        <time>2020-07-18T10:20:20Z</time>
      </trkpt>
      <trkpt lat="42.790711" lon="-0.249832">
        <ele>2387.032</ele>
        <time>2020-07-18T10:20:26Z</time>
      </trkpt>
      <trkpt lat="42.790711" lon="-0.249898">
        <ele>2386.729</ele>
        <time>2020-07-18T10:20:35Z</time>
      </trkpt>
      <trkpt lat="42.790713" lon="-0.249963">
        <ele>2388.641</ele>
        <time>2020-07-18T10:20:42Z</time>
      </trkpt>
      <trkpt lat="42.790692" lon="-0.250019">
        <ele>2387.549</ele>
        <time>2020-07-18T10:20:50Z</time>
      </trkpt>
      <trkpt lat="42.790675" lon="-0.250083">
        <ele>2391.202</ele>
        <time>2020-07-18T10:20:59Z</time>
      </trkpt>
      <trkpt lat="42.790679" lon="-0.250155">
        <ele>2390.822</ele>
        <time>2020-07-18T10:21:07Z</time>
      </trkpt>
      <trkpt lat="42.790682" lon="-0.250222">
        <ele>2390.808</ele>
        <time>2020-07-18T10:21:13Z</time>
      </trkpt>
      <trkpt lat="42.790684" lon="-0.250297">
        <ele>2389.369</ele>
        <time>2020-07-18T10:21:19Z</time>
      </trkpt>
      <trkpt lat="42.790672" lon="-0.250355">
        <ele>2390.877</ele>
        <time>2020-07-18T10:21:29Z</time>
      </trkpt>
      <trkpt lat="42.790686" lon="-0.250419">
        <ele>2391.420</ele>
        <time>2020-07-18T10:21:38Z</time>
      </trkpt>
      <trkpt lat="42.790702" lon="-0.250484">
        <ele>2393.346</ele>
        <time>2020-07-18T10:21:45Z</time>
      </trkpt>
      <trkpt lat="42.790714" lon="-0.250548">
        <ele>2395.173</ele>
        <time>2020-07-18T10:21:51Z</time>
      </trkpt>
      <trkpt lat="42.790723" lon="-0.250619">
        <ele>2394.552</ele>
        <time>2020-07-18T10:21:58Z</time>
      </trkpt>
      <trkpt lat="42.790715" lon="-0.250684">
        <ele>2395.589</ele>
        <time>2020-07-18T10:22:06Z</time>
      </trkpt>
      <trkpt lat="42.790701" lon="-0.250742">
        <ele>2394.731</ele>
        <time>2020-07-18T10:22:13Z</time>
      </trkpt>
      <trkpt lat="42.790674" lon="-0.250794">
        <ele>2398.945</ele>
        <time>2020-07-18T10:22:20Z</time>
      </trkpt>
      <trkpt lat="42.790655" lon="-0.250851">
        <ele>2396.147</ele>
        <time>2020-07-18T10:22:27Z</time>
      </trkpt>
      <trkpt lat="42.790652" lon="-0.250919">
        <ele>2399.011</ele>
        <time>2020-07-18T10:22:37Z</time>
      </trkpt>
      <trkpt lat="42.790651" lon="-0.250984">
        <ele>2400.008</ele>
        <time>2020-07-18T10:22:45Z</time>
      </trkpt>
      <trkpt lat="42.790630" lon="-0.251048">
        <ele>2398.689</ele>
        <time>2020-07-18T10:23:00Z</time>
      </trkpt>
      <trkpt lat="42.790624" lon="-0.251113">
        <ele>2400.667</ele>
        <time>2020-07-18T10:23:06Z</time>
      </trkpt>
      <trkpt lat="42.790605" lon="-0.251175">
        <ele>2401.070</ele>
        <time>2020-07-18T10:23:13Z</time>
      </trkpt>
      <trkpt lat="42.790568" lon="-0.251210">
        <ele>2403.156</ele>
        <time>2020-07-18T10:23:19Z</time>
      </trkpt>
      <trkpt lat="42.790542" lon="-0.251269">
        <ele>2403.963</ele>
        <time>2020-07-18T10:23:30Z</time>
      </trkpt>
      <trkpt lat="42.790518" lon="-0.251326">
        <ele>2404.172</ele>
        <time>2020-07-18T10:23:38Z</time>
      </trkpt>
      <trkpt lat="42.790509" lon="-0.251387">
        <ele>2406.439</ele>
        <time>2020-07-18T10:23:46Z</time>
      </trkpt>
      <trkpt lat="42.790477" lon="-0.251416">
        <ele>2402.371</ele>
        <time>2020-07-18T10:23:52Z</time>
      </trkpt>
      <trkpt lat="42.790431" lon="-0.251441">
        <ele>2407.499</ele>
        <time>2020-07-18T10:24:27Z</time>
      </trkpt>
      <trkpt lat="42.790393" lon="-0.251476">
        <ele>2409.007</ele>
        <time>2020-07-18T10:24:31Z</time>
      </trkpt>
      <trkpt lat="42.790360" lon="-0.251527">
        <ele>2408.827</ele>
        <time>2020-07-18T10:24:37Z</time>
      </trkpt>
      <trkpt lat="42.790321" lon="-0.251563">
        <ele>2407.208</ele>
        <time>2020-07-18T10:24:42Z</time>
      </trkpt>
      <trkpt lat="42.790280" lon="-0.251601">
        <ele>2411.024</ele>
        <time>2020-07-18T10:24:55Z</time>
      </trkpt>
      <trkpt lat="42.790230" lon="-0.251588">
        <ele>2408.442</ele>
        <time>2020-07-18T10:25:09Z</time>
      </trkpt>
      <trkpt lat="42.790189" lon="-0.251626">
        <ele>2412.395</ele>
        <time>2020-07-18T10:25:20Z</time>
      </trkpt>
      <trkpt lat="42.790166" lon="-0.251682">
        <ele>2413.731</ele>
        <time>2020-07-18T10:25:35Z</time>
      </trkpt>
      <trkpt lat="42.790127" lon="-0.251715">
        <ele>2416.858</ele>
        <time>2020-07-18T10:25:45Z</time>
      </trkpt>
      <trkpt lat="42.790112" lon="-0.251778">
        <ele>2414.127</ele>
        <time>2020-07-18T10:26:00Z</time>
      </trkpt>
      <trkpt lat="42.790116" lon="-0.251843">
        <ele>2413.634</ele>
        <time>2020-07-18T10:26:15Z</time>
      </trkpt>
      <trkpt lat="42.790113" lon="-0.251912">
        <ele>2418.326</ele>
        <time>2020-07-18T10:26:30Z</time>
      </trkpt>
      <trkpt lat="42.790128" lon="-0.251974">
        <ele>2418.493</ele>
        <time>2020-07-18T10:26:41Z</time>
      </trkpt>
      <trkpt lat="42.790133" lon="-0.252040">
        <ele>2419.265</ele>
        <time>2020-07-18T10:27:00Z</time>
      </trkpt>
      <trkpt lat="42.790142" lon="-0.252101">
        <ele>2418.521</ele>
        <time>2020-07-18T10:27:13Z</time>
      </trkpt>
      <trkpt lat="42.790123" lon="-0.252159">
        <ele>2425.208</ele>
        <time>2020-07-18T10:27:36Z</time>
      </trkpt>
      <trkpt lat="42.790117" lon="-0.252219">
        <ele>2424.094</ele>
        <time>2020-07-18T10:28:16Z</time>
      </trkpt>
      <trkpt lat="42.790098" lon="-0.252285">
        <ele>2418.742</ele>
        <time>2020-07-18T10:28:34Z</time>
      </trkpt>
      <trkpt lat="42.790093" lon="-0.252348">
        <ele>2422.985</ele>
        <time>2020-07-18T10:28:45Z</time>
      </trkpt>
      <trkpt lat="42.790072" lon="-0.252406">
        <ele>2429.541</ele>
        <time>2020-07-18T10:30:51Z</time>
      </trkpt>
      <trkpt lat="42.790064" lon="-0.252470">
        <ele>2431.698</ele>
        <time>2020-07-18T10:31:13Z</time>
      </trkpt>
      <trkpt lat="42.790074" lon="-0.252530">
        <ele>2433.367</ele>
        <time>2020-07-18T10:31:30Z</time>
      </trkpt>
      <trkpt lat="42.790062" lon="-0.252595">
        <ele>2431.924</ele>
        <time>2020-07-18T10:31:48Z</time>
      </trkpt>
      <trkpt lat="42.790078" lon="-0.252650">
        <ele>2435.246</ele>
        <time>2020-07-18T10:32:07Z</time>
      </trkpt>
      <trkpt lat="42.790083" lon="-0.252713">
        <ele>2435.716</ele>
        <time>2020-07-18T10:33:53Z</time>
      </trkpt>
      <trkpt lat="42.790064" lon="-0.252770">
        <ele>2440.376</ele>
        <time>2020-07-18T10:34:08Z</time>
      </trkpt>
      <trkpt lat="42.790057" lon="-0.252834">
        <ele>2440.313</ele>
        <time>2020-07-18T10:34:23Z</time>
      </trkpt>
      <trkpt lat="42.790064" lon="-0.252898">
        <ele>2445.308</ele>
        <time>2020-07-18T10:34:50Z</time>
      </trkpt>
      <trkpt lat="42.790059" lon="-0.252968">
        <ele>2446.436</ele>
        <time>2020-07-18T10:35:02Z</time>
      </trkpt>
      <trkpt lat="42.790042" lon="-0.253039">
        <ele>2446.824</ele>
        <time>2020-07-18T10:35:11Z</time>
      </trkpt>
      <trkpt lat="42.790011" lon="-0.253088">
        <ele>2449.787</ele>
        <time>2020-07-18T10:35:25Z</time>
      </trkpt>
      <trkpt lat="42.789994" lon="-0.253150">
        <ele>2450.993</ele>
        <time>2020-07-18T10:35:35Z</time>
      </trkpt>
      <trkpt lat="42.789989" lon="-0.253219">
        <ele>2450.960</ele>
        <time>2020-07-18T10:35:47Z</time>
      </trkpt>
      <trkpt lat="42.789982" lon="-0.253280">
        <ele>2451.319</ele>
        <time>2020-07-18T10:36:01Z</time>
      </trkpt>
      <trkpt lat="42.789972" lon="-0.253335">
        <ele>2449.986</ele>
        <time>2020-07-18T10:36:09Z</time>
      </trkpt>
      <trkpt lat="42.789991" lon="-0.253391">
        <ele>2456.018</ele>
        <time>2020-07-18T10:36:28Z</time>
      </trkpt>
      <trkpt lat="42.789989" lon="-0.253440">
        <ele>2456.328</ele>
        <time>2020-07-18T10:37:37Z</time>
      </trkpt>
      <trkpt lat="42.789976" lon="-0.253516">
        <ele>2459.289</ele>
        <time>2020-07-18T10:37:42Z</time>
      </trkpt>
      <trkpt lat="42.789938" lon="-0.253570">
        <ele>2459.717</ele>
        <time>2020-07-18T10:37:47Z</time>
      </trkpt>
      <trkpt lat="42.789907" lon="-0.253618">
        <ele>2460.508</ele>
        <time>2020-07-18T10:37:53Z</time>
      </trkpt>
      <trkpt lat="42.789866" lon="-0.253654">
        <ele>2460.787</ele>
        <time>2020-07-18T10:38:00Z</time>
      </trkpt>
      <trkpt lat="42.789829" lon="-0.253669">
        <ele>2461.035</ele>
        <time>2020-07-18T10:38:09Z</time>
      </trkpt>
      <trkpt lat="42.789809" lon="-0.253718">
        <ele>2460.088</ele>
        <time>2020-07-18T10:38:17Z</time>
      </trkpt>
      <trkpt lat="42.789818" lon="-0.253768">
        <ele>2459.934</ele>
        <time>2020-07-18T10:38:29Z</time>
      </trkpt>
      <trkpt lat="42.789799" lon="-0.253808">
        <ele>2458.251</ele>
        <time>2020-07-18T10:39:14Z</time>
      </trkpt>
      <trkpt lat="42.789767" lon="-0.253866">
        <ele>2461.610</ele>
        <time>2020-07-18T10:39:22Z</time>
      </trkpt>
      <trkpt lat="42.789749" lon="-0.253925">
        <ele>2462.257</ele>
        <time>2020-07-18T10:39:28Z</time>
      </trkpt>
      <trkpt lat="42.789717" lon="-0.253990">
        <ele>2466.329</ele>
        <time>2020-07-18T10:39:36Z</time>
      </trkpt>
      <trkpt lat="42.789688" lon="-0.254048">
        <ele>2466.548</ele>
        <time>2020-07-18T10:39:43Z</time>
      </trkpt>
      <trkpt lat="42.789665" lon="-0.254110">
        <ele>2464.161</ele>
        <time>2020-07-18T10:39:49Z</time>
      </trkpt>
      <trkpt lat="42.789637" lon="-0.254173">
        <ele>2465.717</ele>
        <time>2020-07-18T10:39:58Z</time>
      </trkpt>
      <trkpt lat="42.789611" lon="-0.254228">
        <ele>2469.108</ele>
        <time>2020-07-18T10:40:07Z</time>
      </trkpt>
      <trkpt lat="42.789581" lon="-0.254293">
        <ele>2469.959</ele>
        <time>2020-07-18T10:40:14Z</time>
      </trkpt>
      <trkpt lat="42.789549" lon="-0.254351">
        <ele>2466.387</ele>
        <time>2020-07-18T10:40:21Z</time>
      </trkpt>
      <trkpt lat="42.789528" lon="-0.254417">
        <ele>2468.820</ele>
        <time>2020-07-18T10:40:27Z</time>
      </trkpt>
      <trkpt lat="42.789537" lon="-0.254491">
        <ele>2471.046</ele>
        <time>2020-07-18T10:40:33Z</time>
      </trkpt>
      <trkpt lat="42.789554" lon="-0.254551">
        <ele>2472.173</ele>
        <time>2020-07-18T10:40:41Z</time>
      </trkpt>
      <trkpt lat="42.789569" lon="-0.254609">
        <ele>2472.632</ele>
        <time>2020-07-18T10:40:46Z</time>
      </trkpt>
      <trkpt lat="42.789563" lon="-0.254671">
        <ele>2473.539</ele>
        <time>2020-07-18T10:40:54Z</time>
      </trkpt>
      <trkpt lat="42.789546" lon="-0.254745">
        <ele>2472.761</ele>
        <time>2020-07-18T10:41:02Z</time>
      </trkpt>
      <trkpt lat="42.789554" lon="-0.254812">
        <ele>2476.157</ele>
        <time>2020-07-18T10:41:10Z</time>
      </trkpt>
      <trkpt lat="42.789577" lon="-0.254879">
        <ele>2475.500</ele>
        <time>2020-07-18T10:41:18Z</time>
      </trkpt>
      <trkpt lat="42.789589" lon="-0.254908">
        <ele>2477.620</ele>
        <time>2020-07-18T10:41:25Z</time>
      </trkpt>
      <trkpt lat="42.789618" lon="-0.254916">
        <ele>2477.208</ele>
        <time>2020-07-18T10:43:12Z</time>
      </trkpt>
      <trkpt lat="42.789641" lon="-0.254969">
        <ele>2478.720</ele>
        <time>2020-07-18T10:43:23Z</time>
      </trkpt>
      <trkpt lat="42.789657" lon="-0.255047">
        <ele>2479.588</ele>
        <time>2020-07-18T10:43:27Z</time>
      </trkpt>
      <trkpt lat="42.789670" lon="-0.255124">
        <ele>2479.091</ele>
        <time>2020-07-18T10:43:31Z</time>
      </trkpt>
      <trkpt lat="42.789681" lon="-0.255191">
        <ele>2478.327</ele>
        <time>2020-07-18T10:43:35Z</time>
      </trkpt>
      <trkpt lat="42.789684" lon="-0.255263">
        <ele>2481.464</ele>
        <time>2020-07-18T10:43:42Z</time>
      </trkpt>
      <trkpt lat="42.789667" lon="-0.255324">
        <ele>2477.563</ele>
        <time>2020-07-18T10:43:49Z</time>
      </trkpt>
      <trkpt lat="42.789634" lon="-0.255373">
        <ele>2482.130</ele>
        <time>2020-07-18T10:43:54Z</time>
      </trkpt>
      <trkpt lat="42.789623" lon="-0.255436">
        <ele>2481.992</ele>
        <time>2020-07-18T10:44:01Z</time>
      </trkpt>
      <trkpt lat="42.789629" lon="-0.255501">
        <ele>2482.382</ele>
        <time>2020-07-18T10:44:09Z</time>
      </trkpt>
      <trkpt lat="42.789664" lon="-0.255543">
        <ele>2485.843</ele>
        <time>2020-07-18T10:44:16Z</time>
      </trkpt>
      <trkpt lat="42.789680" lon="-0.255608">
        <ele>2486.017</ele>
        <time>2020-07-18T10:44:26Z</time>
      </trkpt>
      <trkpt lat="42.789682" lon="-0.255676">
        <ele>2485.208</ele>
        <time>2020-07-18T10:44:39Z</time>
      </trkpt>
      <trkpt lat="42.789690" lon="-0.255721">
        <ele>2488.363</ele>
        <time>2020-07-18T10:44:46Z</time>
      </trkpt>
      <trkpt lat="42.789713" lon="-0.255758">
        <ele>2487.561</ele>
        <time>2020-07-18T10:45:00Z</time>
      </trkpt>
      <trkpt lat="42.789741" lon="-0.255817">
        <ele>2489.444</ele>
        <time>2020-07-18T10:45:11Z</time>
      </trkpt>
      <trkpt lat="42.789736" lon="-0.255879">
        <ele>2489.340</ele>
        <time>2020-07-18T10:45:20Z</time>
      </trkpt>
      <trkpt lat="42.789746" lon="-0.255932">
        <ele>2494.577</ele>
        <time>2020-07-18T10:45:53Z</time>
      </trkpt>
      <trkpt lat="42.789736" lon="-0.256002">
        <ele>2495.846</ele>
        <time>2020-07-18T10:46:03Z</time>
      </trkpt>
      <trkpt lat="42.789726" lon="-0.256067">
        <ele>2496.663</ele>
        <time>2020-07-18T10:46:20Z</time>
      </trkpt>
      <trkpt lat="42.789707" lon="-0.256128">
        <ele>2497.545</ele>
        <time>2020-07-18T10:46:28Z</time>
      </trkpt>
      <trkpt lat="42.789690" lon="-0.256188">
        <ele>2498.884</ele>
        <time>2020-07-18T10:46:44Z</time>
      </trkpt>
      <trkpt lat="42.789706" lon="-0.256246">
        <ele>2499.807</ele>
        <time>2020-07-18T10:46:50Z</time>
      </trkpt>
      <trkpt lat="42.789725" lon="-0.256312">
        <ele>2500.517</ele>
        <time>2020-07-18T10:46:57Z</time>
      </trkpt>
      <trkpt lat="42.789724" lon="-0.256377">
        <ele>2497.508</ele>
        <time>2020-07-18T10:47:03Z</time>
      </trkpt>
      <trkpt lat="42.789702" lon="-0.256444">
        <ele>2499.993</ele>
        <time>2020-07-18T10:47:09Z</time>
      </trkpt>
      <trkpt lat="42.789689" lon="-0.256503">
        <ele>2502.041</ele>
        <time>2020-07-18T10:50:15Z</time>
      </trkpt>
      <trkpt lat="42.789692" lon="-0.256566">
        <ele>2499.714</ele>
        <time>2020-07-18T10:51:25Z</time>
      </trkpt>
      <trkpt lat="42.789702" lon="-0.256636">
        <ele>2504.360</ele>
        <time>2020-07-18T10:51:32Z</time>
      </trkpt>
      <trkpt lat="42.789714" lon="-0.256698">
        <ele>2502.657</ele>
        <time>2020-07-18T10:51:38Z</time>
      </trkpt>
      <trkpt lat="42.789724" lon="-0.256771">
        <ele>2506.286</ele>
        <time>2020-07-18T10:51:44Z</time>
      </trkpt>
      <trkpt lat="42.789734" lon="-0.256837">
        <ele>2504.053</ele>
        <time>2020-07-18T10:51:50Z</time>
      </trkpt>
      <trkpt lat="42.789743" lon="-0.256899">
        <ele>2505.095</ele>
        <time>2020-07-18T10:51:56Z</time>
      </trkpt>
      <trkpt lat="42.789757" lon="-0.256959">
        <ele>2506.315</ele>
        <time>2020-07-18T10:52:02Z</time>
      </trkpt>
      <trkpt lat="42.789748" lon="-0.257033">
        <ele>2502.865</ele>
        <time>2020-07-18T10:52:10Z</time>
      </trkpt>
      <trkpt lat="42.789743" lon="-0.257100">
        <ele>2510.211</ele>
        <time>2020-07-18T10:52:19Z</time>
      </trkpt>
      <trkpt lat="42.789753" lon="-0.257161">
        <ele>2511.908</ele>
        <time>2020-07-18T10:52:26Z</time>
      </trkpt>
      <trkpt lat="42.789772" lon="-0.257222">
        <ele>2513.086</ele>
        <time>2020-07-18T10:52:38Z</time>
      </trkpt>
      <trkpt lat="42.789800" lon="-0.257281">
        <ele>2511.514</ele>
        <time>2020-07-18T10:52:46Z</time>
      </trkpt>
      <trkpt lat="42.789824" lon="-0.257329">
        <ele>2514.427</ele>
        <time>2020-07-18T10:52:54Z</time>
      </trkpt>
      <trkpt lat="42.789815" lon="-0.257381">
        <ele>2514.123</ele>
        <time>2020-07-18T10:53:44Z</time>
      </trkpt>
      <trkpt lat="42.789803" lon="-0.257440">
        <ele>2515.230</ele>
        <time>2020-07-18T10:55:35Z</time>
      </trkpt>
      <trkpt lat="42.789821" lon="-0.257501">
        <ele>2515.039</ele>
        <time>2020-07-18T10:55:42Z</time>
      </trkpt>
      <trkpt lat="42.789834" lon="-0.257575">
        <ele>2513.396</ele>
        <time>2020-07-18T10:55:48Z</time>
      </trkpt>
      <trkpt lat="42.789819" lon="-0.257650">
        <ele>2515.878</ele>
        <time>2020-07-18T10:55:54Z</time>
      </trkpt>
      <trkpt lat="42.789792" lon="-0.257722">
        <ele>2514.714</ele>
        <time>2020-07-18T10:56:00Z</time>
      </trkpt>
      <trkpt lat="42.789779" lon="-0.257782">
        <ele>2519.254</ele>
        <time>2020-07-18T10:56:06Z</time>
      </trkpt>
      <trkpt lat="42.789777" lon="-0.257849">
        <ele>2519.609</ele>
        <time>2020-07-18T10:56:13Z</time>
      </trkpt>
      <trkpt lat="42.789745" lon="-0.257904">
        <ele>2519.308</ele>
        <time>2020-07-18T10:56:20Z</time>
      </trkpt>
      <trkpt lat="42.789702" lon="-0.257934">
        <ele>2517.526</ele>
        <time>2020-07-18T10:56:27Z</time>
      </trkpt>
      <trkpt lat="42.789670" lon="-0.257979">
        <ele>2519.764</ele>
        <time>2020-07-18T10:56:35Z</time>
      </trkpt>
      <trkpt lat="42.789666" lon="-0.258047">
        <ele>2522.167</ele>
        <time>2020-07-18T10:56:41Z</time>
      </trkpt>
      <trkpt lat="42.789641" lon="-0.258104">
        <ele>2522.843</ele>
        <time>2020-07-18T10:56:49Z</time>
      </trkpt>
      <trkpt lat="42.789629" lon="-0.258171">
        <ele>2523.970</ele>
        <time>2020-07-18T10:56:57Z</time>
      </trkpt>
      <trkpt lat="42.789651" lon="-0.258225">
        <ele>2524.959</ele>
        <time>2020-07-18T10:57:06Z</time>
      </trkpt>
      <trkpt lat="42.789633" lon="-0.258291">
        <ele>2526.026</ele>
        <time>2020-07-18T10:57:13Z</time>
      </trkpt>
      <trkpt lat="42.789597" lon="-0.258331">
        <ele>2522.138</ele>
        <time>2020-07-18T10:57:18Z</time>
      </trkpt>
      <trkpt lat="42.789584" lon="-0.258384">
        <ele>2524.915</ele>
        <time>2020-07-18T10:57:26Z</time>
      </trkpt>
      <trkpt lat="42.789553" lon="-0.258391">
        <ele>2525.465</ele>
        <time>2020-07-18T10:57:35Z</time>
      </trkpt>
      <trkpt lat="42.789536" lon="-0.258444">
        <ele>2530.011</ele>
        <time>2020-07-18T10:57:50Z</time>
      </trkpt>
      <trkpt lat="42.789555" lon="-0.258505">
        <ele>2528.408</ele>
        <time>2020-07-18T10:57:58Z</time>
      </trkpt>
      <trkpt lat="42.789560" lon="-0.258573">
        <ele>2528.886</ele>
        <time>2020-07-18T10:58:06Z</time>
      </trkpt>
      <trkpt lat="42.789553" lon="-0.258643">
        <ele>2533.674</ele>
        <time>2020-07-18T10:58:15Z</time>
      </trkpt>
      <trkpt lat="42.789533" lon="-0.258706">
        <ele>2534.147</ele>
        <time>2020-07-18T10:58:25Z</time>
      </trkpt>
      <trkpt lat="42.789514" lon="-0.258754">
        <ele>2534.743</ele>
        <time>2020-07-18T11:14:07Z</time>
      </trkpt>
      <trkpt lat="42.789476" lon="-0.258788">
        <ele>2533.830</ele>
        <time>2020-07-18T11:14:20Z</time>
      </trkpt>
      <trkpt lat="42.789460" lon="-0.258859">
        <ele>2532.469</ele>
        <time>2020-07-18T11:14:30Z</time>
      </trkpt>
      <trkpt lat="42.789449" lon="-0.258944">
        <ele>2534.396</ele>
        <time>2020-07-18T11:14:38Z</time>
      </trkpt>
      <trkpt lat="42.789449" lon="-0.259013">
        <ele>2532.468</ele>
        <time>2020-07-18T11:14:44Z</time>
      </trkpt>
      <trkpt lat="42.789461" lon="-0.259092">
        <ele>2533.545</ele>
        <time>2020-07-18T11:14:51Z</time>
      </trkpt>
      <trkpt lat="42.789492" lon="-0.259142">
        <ele>2536.347</ele>
        <time>2020-07-18T11:14:57Z</time>
      </trkpt>
      <trkpt lat="42.789512" lon="-0.259222">
        <ele>2537.011</ele>
        <time>2020-07-18T11:15:09Z</time>
      </trkpt>
      <trkpt lat="42.789527" lon="-0.259295">
        <ele>2537.508</ele>
        <time>2020-07-18T11:15:14Z</time>
      </trkpt>
      <trkpt lat="42.789556" lon="-0.259343">
        <ele>2537.259</ele>
        <time>2020-07-18T11:15:22Z</time>
      </trkpt>
      <trkpt lat="42.789590" lon="-0.259387">
        <ele>2534.047</ele>
        <time>2020-07-18T11:15:29Z</time>
      </trkpt>
      <trkpt lat="42.789616" lon="-0.259446">
        <ele>2539.810</ele>
        <time>2020-07-18T11:15:36Z</time>
      </trkpt>
      <trkpt lat="42.789621" lon="-0.259522">
        <ele>2534.766</ele>
        <time>2020-07-18T11:15:45Z</time>
      </trkpt>
      <trkpt lat="42.789613" lon="-0.259583">
        <ele>2541.793</ele>
        <time>2020-07-18T11:15:51Z</time>
      </trkpt>
      <trkpt lat="42.789588" lon="-0.259638">
        <ele>2541.742</ele>
        <time>2020-07-18T11:15:59Z</time>
      </trkpt>
      <trkpt lat="42.789553" lon="-0.259697">
        <ele>2543.659</ele>
        <time>2020-07-18T11:16:07Z</time>
      </trkpt>
      <trkpt lat="42.789518" lon="-0.259741">
        <ele>2543.751</ele>
        <time>2020-07-18T11:16:16Z</time>
      </trkpt>
      <trkpt lat="42.789490" lon="-0.259773">
        <ele>2545.637</ele>
        <time>2020-07-18T11:16:28Z</time>
      </trkpt>
      <trkpt lat="42.789481" lon="-0.259840">
        <ele>2545.349</ele>
        <time>2020-07-18T11:16:50Z</time>
      </trkpt>
      <trkpt lat="42.789478" lon="-0.259908">
        <ele>2549.813</ele>
        <time>2020-07-18T11:17:01Z</time>
      </trkpt>
      <trkpt lat="42.789450" lon="-0.259962">
        <ele>2547.508</ele>
        <time>2020-07-18T11:18:22Z</time>
      </trkpt>
      <trkpt lat="42.789432" lon="-0.260022">
        <ele>2546.088</ele>
        <time>2020-07-18T11:18:30Z</time>
      </trkpt>
      <trkpt lat="42.789411" lon="-0.260081">
        <ele>2553.026</ele>
        <time>2020-07-18T11:18:36Z</time>
      </trkpt>
      <trkpt lat="42.789378" lon="-0.260124">
        <ele>2554.629</ele>
        <time>2020-07-18T11:18:46Z</time>
      </trkpt>
      <trkpt lat="42.789352" lon="-0.260188">
        <ele>2554.525</ele>
        <time>2020-07-18T11:19:03Z</time>
      </trkpt>
      <trkpt lat="42.789341" lon="-0.260248">
        <ele>2552.722</ele>
        <time>2020-07-18T11:19:13Z</time>
      </trkpt>
      <trkpt lat="42.789320" lon="-0.260303">
        <ele>2557.451</ele>
        <time>2020-07-18T11:19:31Z</time>
      </trkpt>
      <trkpt lat="42.789294" lon="-0.260354">
        <ele>2559.168</ele>
        <time>2020-07-18T11:19:42Z</time>
      </trkpt>
      <trkpt lat="42.789285" lon="-0.260416">
        <ele>2555.520</ele>
        <time>2020-07-18T11:19:53Z</time>
      </trkpt>
      <trkpt lat="42.789262" lon="-0.260479">
        <ele>2559.728</ele>
        <time>2020-07-18T11:20:22Z</time>
      </trkpt>
      <trkpt lat="42.789246" lon="-0.260561">
        <ele>2563.889</ele>
        <time>2020-07-18T11:21:23Z</time>
      </trkpt>
      <trkpt lat="42.789240" lon="-0.260622">
        <ele>2565.917</ele>
        <time>2020-07-18T11:21:42Z</time>
      </trkpt>
      <trkpt lat="42.789223" lon="-0.260680">
        <ele>2567.208</ele>
        <time>2020-07-18T11:21:49Z</time>
      </trkpt>
      <trkpt lat="42.789180" lon="-0.260743">
        <ele>2564.957</ele>
        <time>2020-07-18T11:21:57Z</time>
      </trkpt>
      <trkpt lat="42.789131" lon="-0.260767">
        <ele>2568.175</ele>
        <time>2020-07-18T11:22:04Z</time>
      </trkpt>
      <trkpt lat="42.789084" lon="-0.260763">
        <ele>2572.178</ele>
        <time>2020-07-18T11:22:33Z</time>
      </trkpt>
      <trkpt lat="42.789046" lon="-0.260815">
        <ele>2574.444</ele>
        <time>2020-07-18T11:22:42Z</time>
      </trkpt>
      <trkpt lat="42.789038" lon="-0.260875">
        <ele>2573.551</ele>
        <time>2020-07-18T11:22:47Z</time>
      </trkpt>
      <trkpt lat="42.789016" lon="-0.260929">
        <ele>2576.360</ele>
        <time>2020-07-18T11:23:11Z</time>
      </trkpt>
      <trkpt lat="42.788987" lon="-0.260982">
        <ele>2577.317</ele>
        <time>2020-07-18T11:23:39Z</time>
      </trkpt>
      <trkpt lat="42.788971" lon="-0.261041">
        <ele>2579.469</ele>
        <time>2020-07-18T11:23:52Z</time>
      </trkpt>
      <trkpt lat="42.788982" lon="-0.261101">
        <ele>2575.777</ele>
        <time>2020-07-18T11:24:03Z</time>
      </trkpt>
      <trkpt lat="42.788975" lon="-0.261165">
        <ele>2581.661</ele>
        <time>2020-07-18T11:24:11Z</time>
      </trkpt>
      <trkpt lat="42.788951" lon="-0.261219">
        <ele>2581.127</ele>
        <time>2020-07-18T11:24:41Z</time>
      </trkpt>
      <trkpt lat="42.788940" lon="-0.261281">
        <ele>2583.208</ele>
        <time>2020-07-18T11:24:53Z</time>
      </trkpt>
      <trkpt lat="42.788933" lon="-0.261342">
        <ele>2583.812</ele>
        <time>2020-07-18T11:25:04Z</time>
      </trkpt>
      <trkpt lat="42.788911" lon="-0.261389">
        <ele>2583.720</ele>
        <time>2020-07-18T11:25:11Z</time>
      </trkpt>
      <trkpt lat="42.788906" lon="-0.261463">
        <ele>2594.893</ele>
        <time>2020-07-18T11:26:55Z</time>
      </trkpt>
      <trkpt lat="42.788907" lon="-0.261525">
        <ele>2596.729</ele>
        <time>2020-07-18T11:27:02Z</time>
      </trkpt>
      <trkpt lat="42.788934" lon="-0.261574">
        <ele>2595.676</ele>
        <time>2020-07-18T11:27:12Z</time>
      </trkpt>
      <trkpt lat="42.788971" lon="-0.261615">
        <ele>2597.375</ele>
        <time>2020-07-18T11:27:23Z</time>
      </trkpt>
      <trkpt lat="42.788994" lon="-0.261659">
        <ele>2596.982</ele>
        <time>2020-07-18T11:27:47Z</time>
      </trkpt>
      <trkpt lat="42.788991" lon="-0.261714">
        <ele>2602.164</ele>
        <time>2020-07-18T11:28:40Z</time>
      </trkpt>
      <trkpt lat="42.788975" lon="-0.261782">
        <ele>2603.321</ele>
        <time>2020-07-18T11:28:52Z</time>
      </trkpt>
      <trkpt lat="42.788939" lon="-0.261809">
        <ele>2603.941</ele>
        <time>2020-07-18T11:29:00Z</time>
      </trkpt>
      <trkpt lat="42.788938" lon="-0.261865">
        <ele>2606.205</ele>
        <time>2020-07-18T11:29:26Z</time>
      </trkpt>
      <trkpt lat="42.788969" lon="-0.261888">
        <ele>2608.908</ele>
        <time>2020-07-18T11:29:39Z</time>
      </trkpt>
      <trkpt lat="42.788972" lon="-0.261958">
        <ele>2608.857</ele>
        <time>2020-07-18T11:29:58Z</time>
      </trkpt>
      <trkpt lat="42.789010" lon="-0.261993">
        <ele>2612.265</ele>
        <time>2020-07-18T11:30:14Z</time>
      </trkpt>
      <trkpt lat="42.789020" lon="-0.262054">
        <ele>2613.648</ele>
        <time>2020-07-18T11:31:24Z</time>
      </trkpt>
      <trkpt lat="42.789021" lon="-0.262117">
        <ele>2613.114</ele>
        <time>2020-07-18T11:33:59Z</time>
      </trkpt>
      <trkpt lat="42.789022" lon="-0.262179">
        <ele>2618.561</ele>
        <time>2020-07-18T11:36:40Z</time>
      </trkpt>
      <trkpt lat="42.789048" lon="-0.262228">
        <ele>2619.310</ele>
        <time>2020-07-18T11:36:46Z</time>
      </trkpt>
      <trkpt lat="42.789087" lon="-0.262259">
        <ele>2619.667</ele>
        <time>2020-07-18T11:37:18Z</time>
      </trkpt>
      <trkpt lat="42.789135" lon="-0.262267">
        <ele>2622.779</ele>
        <time>2020-07-18T11:38:07Z</time>
      </trkpt>
      <trkpt lat="42.789160" lon="-0.262321">
        <ele>2624.692</ele>
        <time>2020-07-18T11:38:40Z</time>
      </trkpt>
      <trkpt lat="42.789162" lon="-0.262383">
        <ele>2624.473</ele>
        <time>2020-07-18T11:38:48Z</time>
      </trkpt>
      <trkpt lat="42.789175" lon="-0.262443">
        <ele>2625.420</ele>
        <time>2020-07-18T11:38:56Z</time>
      </trkpt>
      <trkpt lat="42.789167" lon="-0.262512">
        <ele>2629.508</ele>
        <time>2020-07-18T11:39:07Z</time>
      </trkpt>
      <trkpt lat="42.789138" lon="-0.262567">
        <ele>2629.744</ele>
        <time>2020-07-18T11:39:16Z</time>
      </trkpt>
      <trkpt lat="42.789109" lon="-0.262624">
        <ele>2633.252</ele>
        <time>2020-07-18T11:39:41Z</time>
      </trkpt>
      <trkpt lat="42.789102" lon="-0.262688">
        <ele>2632.255</ele>
        <time>2020-07-18T11:39:52Z</time>
      </trkpt>
      <trkpt lat="42.789095" lon="-0.262750">
        <ele>2635.251</ele>
        <time>2020-07-18T11:40:02Z</time>
      </trkpt>
      <trkpt lat="42.789080" lon="-0.262814">
        <ele>2632.778</ele>
        <time>2020-07-18T11:40:11Z</time>
      </trkpt>
      <trkpt lat="42.789077" lon="-0.262880">
        <ele>2638.737</ele>
        <time>2020-07-18T11:40:21Z</time>
      </trkpt>
      <trkpt lat="42.789072" lon="-0.262936">
        <ele>2641.584</ele>
        <time>2020-07-18T11:41:44Z</time>
      </trkpt>
      <trkpt lat="42.789071" lon="-0.263002">
        <ele>2643.646</ele>
        <time>2020-07-18T11:41:53Z</time>
      </trkpt>
      <trkpt lat="42.789065" lon="-0.263067">
        <ele>2642.667</ele>
        <time>2020-07-18T11:42:02Z</time>
      </trkpt>
      <trkpt lat="42.789060" lon="-0.263143">
        <ele>2639.581</ele>
        <time>2020-07-18T11:42:10Z</time>
      </trkpt>
      <trkpt lat="42.789055" lon="-0.263202">
        <ele>2646.219</ele>
        <time>2020-07-18T11:42:16Z</time>
      </trkpt>
      <trkpt lat="42.789068" lon="-0.263258">
        <ele>2646.208</ele>
        <time>2020-07-18T11:42:33Z</time>
      </trkpt>
      <trkpt lat="42.789084" lon="-0.263316">
        <ele>2642.271</ele>
        <time>2020-07-18T11:42:42Z</time>
      </trkpt>
      <trkpt lat="42.789108" lon="-0.263375">
        <ele>2649.319</ele>
        <time>2020-07-18T11:42:57Z</time>
      </trkpt>
      <trkpt lat="42.789149" lon="-0.263428">
        <ele>2648.362</ele>
        <time>2020-07-18T11:43:05Z</time>
      </trkpt>
      <trkpt lat="42.789167" lon="-0.263498">
        <ele>2650.568</ele>
        <time>2020-07-18T11:43:23Z</time>
      </trkpt>
      <trkpt lat="42.789177" lon="-0.263562">
        <ele>2651.055</ele>
        <time>2020-07-18T11:43:32Z</time>
      </trkpt>
      <trkpt lat="42.789164" lon="-0.263625">
        <ele>2651.034</ele>
        <time>2020-07-18T11:43:39Z</time>
      </trkpt>
      <trkpt lat="42.789162" lon="-0.263690">
        <ele>2651.681</ele>
        <time>2020-07-18T11:43:45Z</time>
      </trkpt>
      <trkpt lat="42.789162" lon="-0.263751">
        <ele>2653.073</ele>
        <time>2020-07-18T11:43:54Z</time>
      </trkpt>
      <trkpt lat="42.789178" lon="-0.263814">
        <ele>2655.241</ele>
        <time>2020-07-18T11:44:03Z</time>
      </trkpt>
      <trkpt lat="42.789206" lon="-0.263872">
        <ele>2655.981</ele>
        <time>2020-07-18T11:44:14Z</time>
      </trkpt>
      <trkpt lat="42.789211" lon="-0.263933">
        <ele>2656.909</ele>
        <time>2020-07-18T11:44:22Z</time>
      </trkpt>
      <trkpt lat="42.789216" lon="-0.264000">
        <ele>2656.608</ele>
        <time>2020-07-18T11:45:13Z</time>
      </trkpt>
      <trkpt lat="42.789216" lon="-0.264083">
        <ele>2657.489</ele>
        <time>2020-07-18T11:45:22Z</time>
      </trkpt>
      <trkpt lat="42.789206" lon="-0.264148">
        <ele>2662.897</ele>
        <time>2020-07-18T11:45:29Z</time>
      </trkpt>
      <trkpt lat="42.789198" lon="-0.264218">
        <ele>2658.360</ele>
        <time>2020-07-18T11:45:37Z</time>
      </trkpt>
      <trkpt lat="42.789209" lon="-0.264282">
        <ele>2663.266</ele>
        <time>2020-07-18T11:45:50Z</time>
      </trkpt>
      <trkpt lat="42.789249" lon="-0.264329">
        <ele>2664.523</ele>
        <time>2020-07-18T11:45:57Z</time>
      </trkpt>
      <trkpt lat="42.789267" lon="-0.264385">
        <ele>2665.772</ele>
        <time>2020-07-18T11:46:02Z</time>
      </trkpt>
      <trkpt lat="42.789302" lon="-0.264412">
        <ele>2664.779</ele>
        <time>2020-07-18T11:46:09Z</time>
      </trkpt>
      <trkpt lat="42.789349" lon="-0.264392">
        <ele>2664.841</ele>
        <time>2020-07-18T11:46:57Z</time>
      </trkpt>
      <trkpt lat="42.789385" lon="-0.264408">
        <ele>2664.388</ele>
        <time>2020-07-18T11:49:04Z</time>
      </trkpt>
      <trkpt lat="42.789426" lon="-0.264432">
        <ele>2664.424</ele>
        <time>2020-07-18T11:49:19Z</time>
      </trkpt>
      <trkpt lat="42.789462" lon="-0.264433">
        <ele>2663.926</ele>
        <time>2020-07-18T11:50:44Z</time>
      </trkpt>
      <trkpt lat="42.789515" lon="-0.264421">
        <ele>2663.408</ele>
        <time>2020-07-18T11:51:00Z</time>
      </trkpt>
      <trkpt lat="42.789570" lon="-0.264436">
        <ele>2665.253</ele>
        <time>2020-07-18T11:51:04Z</time>
      </trkpt>
      <trkpt lat="42.789626" lon="-0.264443">
        <ele>2664.961</ele>
        <time>2020-07-18T11:51:09Z</time>
      </trkpt>
      <trkpt lat="42.789654" lon="-0.264494">
        <ele>2664.264</ele>
        <time>2020-07-18T11:51:22Z</time>
      </trkpt>
      <trkpt lat="42.789686" lon="-0.264537">
        <ele>2664.120</ele>
        <time>2020-07-18T11:51:29Z</time>
      </trkpt>
      <trkpt lat="42.789731" lon="-0.264548">
        <ele>2664.027</ele>
        <time>2020-07-18T11:51:37Z</time>
      </trkpt>
      <trkpt lat="42.789780" lon="-0.264550">
        <ele>2664.966</ele>
        <time>2020-07-18T11:51:45Z</time>
      </trkpt>
      <trkpt lat="42.789823" lon="-0.264585">
        <ele>2666.083</ele>
        <time>2020-07-18T11:51:50Z</time>
      </trkpt>
      <trkpt lat="42.789839" lon="-0.264655">
        <ele>2666.155</ele>
        <time>2020-07-18T11:52:05Z</time>
      </trkpt>
      <trkpt lat="42.789879" lon="-0.264702">
        <ele>2665.888</ele>
        <time>2020-07-18T11:52:14Z</time>
      </trkpt>
      <trkpt lat="42.789930" lon="-0.264721">
        <ele>2665.624</ele>
        <time>2020-07-18T11:52:20Z</time>
      </trkpt>
      <trkpt lat="42.789986" lon="-0.264733">
        <ele>2664.826</ele>
        <time>2020-07-18T11:52:26Z</time>
      </trkpt>
      <trkpt lat="42.790040" lon="-0.264745">
        <ele>2664.008</ele>
        <time>2020-07-18T11:52:31Z</time>
      </trkpt>
      <trkpt lat="42.790089" lon="-0.264765">
        <ele>2663.383</ele>
        <time>2020-07-18T11:52:38Z</time>
      </trkpt>
      <trkpt lat="42.790137" lon="-0.264770">
        <ele>2662.071</ele>
        <time>2020-07-18T11:52:54Z</time>
      </trkpt>
      <trkpt lat="42.790188" lon="-0.264795">
        <ele>2661.324</ele>
        <time>2020-07-18T11:53:01Z</time>
      </trkpt>
      <trkpt lat="42.790242" lon="-0.264794">
        <ele>2662.230</ele>
        <time>2020-07-18T11:53:08Z</time>
      </trkpt>
      <trkpt lat="42.790291" lon="-0.264808">
        <ele>2662.247</ele>
        <time>2020-07-18T11:53:14Z</time>
      </trkpt>
      <trkpt lat="42.790323" lon="-0.264852">
        <ele>2661.486</ele>
        <time>2020-07-18T11:53:30Z</time>
      </trkpt>
      <trkpt lat="42.790371" lon="-0.264868">
        <ele>2661.293</ele>
        <time>2020-07-18T11:53:35Z</time>
      </trkpt>
      <trkpt lat="42.790388" lon="-0.264926">
        <ele>2662.125</ele>
        <time>2020-07-18T11:53:50Z</time>
      </trkpt>
      <trkpt lat="42.790431" lon="-0.264948">
        <ele>2660.457</ele>
        <time>2020-07-18T11:53:57Z</time>
      </trkpt>
      <trkpt lat="42.790487" lon="-0.264954">
        <ele>2663.000</ele>
        <time>2020-07-18T11:54:02Z</time>
      </trkpt>
      <trkpt lat="42.790530" lon="-0.264977">
        <ele>2662.020</ele>
        <time>2020-07-18T11:54:06Z</time>
      </trkpt>
      <trkpt lat="42.790583" lon="-0.265001">
        <ele>2662.708</ele>
        <time>2020-07-18T11:54:11Z</time>
      </trkpt>
      <trkpt lat="42.790642" lon="-0.265053">
        <ele>2662.050</ele>
        <time>2020-07-18T11:55:14Z</time>
      </trkpt>
      <trkpt lat="42.790694" lon="-0.265071">
        <ele>2662.728</ele>
        <time>2020-07-18T11:55:18Z</time>
      </trkpt>
      <trkpt lat="42.790740" lon="-0.265078">
        <ele>2661.691</ele>
        <time>2020-07-18T11:55:20Z</time>
      </trkpt>
      <trkpt lat="42.790793" lon="-0.265083">
        <ele>2663.527</ele>
        <time>2020-07-18T11:55:23Z</time>
      </trkpt>
      <trkpt lat="42.790844" lon="-0.265094">
        <ele>2664.734</ele>
        <time>2020-07-18T11:55:28Z</time>
      </trkpt>
      <trkpt lat="42.790884" lon="-0.265122">
        <ele>2664.933</ele>
        <time>2020-07-18T11:55:33Z</time>
      </trkpt>
      <trkpt lat="42.790921" lon="-0.265181">
        <ele>2664.520</ele>
        <time>2020-07-18T11:55:38Z</time>
      </trkpt>
      <trkpt lat="42.790965" lon="-0.265220">
        <ele>2664.382</ele>
        <time>2020-07-18T11:55:45Z</time>
      </trkpt>
      <trkpt lat="42.791010" lon="-0.265243">
        <ele>2663.749</ele>
        <time>2020-07-18T11:55:51Z</time>
      </trkpt>
      <trkpt lat="42.791035" lon="-0.265293">
        <ele>2664.002</ele>
        <time>2020-07-18T11:55:57Z</time>
      </trkpt>
      <trkpt lat="42.791070" lon="-0.265352">
        <ele>2663.922</ele>
        <time>2020-07-18T11:56:05Z</time>
      </trkpt>
      <trkpt lat="42.791102" lon="-0.265393">
        <ele>2664.008</ele>
        <time>2020-07-18T11:56:11Z</time>
      </trkpt>
      <trkpt lat="42.791128" lon="-0.265453">
        <ele>2663.719</ele>
        <time>2020-07-18T11:56:17Z</time>
      </trkpt>
      <trkpt lat="42.791164" lon="-0.265500">
        <ele>2662.537</ele>
        <time>2020-07-18T11:56:23Z</time>
      </trkpt>
      <trkpt lat="42.791201" lon="-0.265530">
        <ele>2664.070</ele>
        <time>2020-07-18T11:56:30Z</time>
      </trkpt>
      <trkpt lat="42.791227" lon="-0.265587">
        <ele>2664.146</ele>
        <time>2020-07-18T11:56:35Z</time>
      </trkpt>
      <trkpt lat="42.791249" lon="-0.265649">
        <ele>2663.253</ele>
        <time>2020-07-18T11:56:42Z</time>
      </trkpt>
      <trkpt lat="42.791291" lon="-0.265692">
        <ele>2664.452</ele>
        <time>2020-07-18T11:56:50Z</time>
      </trkpt>
      <trkpt lat="42.791331" lon="-0.265738">
        <ele>2664.969</ele>
        <time>2020-07-18T11:56:55Z</time>
      </trkpt>
      <trkpt lat="42.791373" lon="-0.265780">
        <ele>2666.181</ele>
        <time>2020-07-18T11:57:01Z</time>
      </trkpt>
      <trkpt lat="42.791415" lon="-0.265815">
        <ele>2666.814</ele>
        <time>2020-07-18T11:57:06Z</time>
      </trkpt>
      <trkpt lat="42.791454" lon="-0.265843">
        <ele>2667.054</ele>
        <time>2020-07-18T11:57:11Z</time>
      </trkpt>
      <trkpt lat="42.791493" lon="-0.265877">
        <ele>2669.009</ele>
        <time>2020-07-18T11:57:17Z</time>
      </trkpt>
      <trkpt lat="42.791535" lon="-0.265907">
        <ele>2669.508</ele>
        <time>2020-07-18T11:57:28Z</time>
      </trkpt>
      <trkpt lat="42.791566" lon="-0.265960">
        <ele>2669.626</ele>
        <time>2020-07-18T11:58:17Z</time>
      </trkpt>
      <trkpt lat="42.791601" lon="-0.266024">
        <ele>2670.214</ele>
        <time>2020-07-18T11:58:23Z</time>
      </trkpt>
      <trkpt lat="42.791623" lon="-0.266082">
        <ele>2669.217</ele>
        <time>2020-07-18T11:59:07Z</time>
      </trkpt>
      <trkpt lat="42.791643" lon="-0.266118">
        <ele>2669.293</ele>
        <time>2020-07-18T11:59:11Z</time>
      </trkpt>
      <trkpt lat="42.791673" lon="-0.266178">
        <ele>2670.930</ele>
        <time>2020-07-18T11:59:16Z</time>
      </trkpt>
      <trkpt lat="42.791699" lon="-0.266251">
        <ele>2669.839</ele>
        <time>2020-07-18T11:59:20Z</time>
      </trkpt>
      <trkpt lat="42.791715" lon="-0.266313">
        <ele>2671.436</ele>
        <time>2020-07-18T11:59:30Z</time>
      </trkpt>
      <trkpt lat="42.791776" lon="-0.266384">
        <ele>2675.278</ele>
        <time>2020-07-18T12:00:20Z</time>
      </trkpt>
      <trkpt lat="42.791823" lon="-0.266417">
        <ele>2680.059</ele>
        <time>2020-07-18T12:00:42Z</time>
      </trkpt>
      <trkpt lat="42.791860" lon="-0.266456">
        <ele>2685.103</ele>
        <time>2020-07-18T12:01:05Z</time>
      </trkpt>
      <trkpt lat="42.791903" lon="-0.266490">
        <ele>2693.323</ele>
        <time>2020-07-18T12:01:11Z</time>
      </trkpt>
      <trkpt lat="42.791942" lon="-0.266529">
        <ele>2703.108</ele>
        <time>2020-07-18T12:01:24Z</time>
      </trkpt>
      <trkpt lat="42.791974" lon="-0.266575">
        <ele>2713.620</ele>
        <time>2020-07-18T12:01:38Z</time>
      </trkpt>
      <trkpt lat="42.792000" lon="-0.266643">
        <ele>2723.888</ele>
        <time>2020-07-18T12:01:56Z</time>
      </trkpt>
      <trkpt lat="42.792036" lon="-0.266695">
        <ele>2733.951</ele>
        <time>2020-07-18T12:03:02Z</time>
      </trkpt>
      <trkpt lat="42.792079" lon="-0.266690">
        <ele>2743.447</ele>
        <time>2020-07-18T12:04:07Z</time>
      </trkpt>
      <trkpt lat="42.792115" lon="-0.266715">
        <ele>2753.894</ele>
        <time>2020-07-18T12:04:28Z</time>
      </trkpt>
      <trkpt lat="42.792156" lon="-0.266724">
        <ele>2760.983</ele>
        <time>2020-07-18T12:07:18Z</time>
      </trkpt>
      <trkpt lat="42.792181" lon="-0.266735">
        <ele>2765.460</ele>
        <time>2020-07-18T12:10:39Z</time>
      </trkpt>
      <trkpt lat="42.792211" lon="-0.266725">
        <ele>2760.592</ele>
        <time>2020-07-18T12:12:20Z</time>
      </trkpt>
      <trkpt lat="42.792201" lon="-0.266663">
        <ele>2753.372</ele>
        <time>2020-07-18T12:13:36Z</time>
      </trkpt>
      <trkpt lat="42.792159" lon="-0.266582">
        <ele>2743.213</ele>
        <time>2020-07-18T12:14:44Z</time>
      </trkpt>
      <trkpt lat="42.792107" lon="-0.266520">
        <ele>2733.214</ele>
        <time>2020-07-18T12:16:01Z</time>
      </trkpt>
      <trkpt lat="42.792071" lon="-0.266484">
        <ele>2681.908</ele>
        <time>2020-07-18T12:16:56Z</time>
      </trkpt>
      <trkpt lat="42.792017" lon="-0.266442">
        <ele>2723.282</ele>
        <time>2020-07-18T12:19:13Z</time>
      </trkpt>
      <trkpt lat="42.791976" lon="-0.266382">
        <ele>2713.780</ele>
        <time>2020-07-18T12:19:23Z</time>
      </trkpt>
      <trkpt lat="42.791942" lon="-0.266329">
        <ele>2703.653</ele>
        <time>2020-07-18T12:19:45Z</time>
      </trkpt>
      <trkpt lat="42.791902" lon="-0.266274">
        <ele>2693.869</ele>
        <time>2020-07-18T12:20:17Z</time>
      </trkpt>
      <trkpt lat="42.791871" lon="-0.266205">
        <ele>2683.026</ele>
        <time>2020-07-18T12:21:16Z</time>
      </trkpt>
      <trkpt lat="42.791837" lon="-0.266124">
        <ele>2675.035</ele>
        <time>2020-07-18T12:24:23Z</time>
      </trkpt>
      <trkpt lat="42.791825" lon="-0.266063">
        <ele>2670.862</ele>
        <time>2020-07-18T12:24:29Z</time>
      </trkpt>
      <trkpt lat="42.791805" lon="-0.265999">
        <ele>2670.464</ele>
        <time>2020-07-18T12:24:35Z</time>
      </trkpt>
      <trkpt lat="42.791783" lon="-0.265959">
        <ele>2667.642</ele>
        <time>2020-07-18T12:25:53Z</time>
      </trkpt>
      <trkpt lat="42.791764" lon="-0.265925">
        <ele>2668.522</ele>
        <time>2020-07-18T12:26:00Z</time>
      </trkpt>
      <trkpt lat="42.791773" lon="-0.265882">
        <ele>2663.314</ele>
        <time>2020-07-18T12:26:29Z</time>
      </trkpt>
      <trkpt lat="42.791813" lon="-0.265886">
        <ele>2662.808</ele>
        <time>2020-07-18T12:26:35Z</time>
      </trkpt>
      <trkpt lat="42.791858" lon="-0.265881">
        <ele>2662.539</ele>
        <time>2020-07-18T12:26:41Z</time>
      </trkpt>
      <trkpt lat="42.791908" lon="-0.265895">
        <ele>2660.437</ele>
        <time>2020-07-18T12:26:48Z</time>
      </trkpt>
      <trkpt lat="42.791957" lon="-0.265916">
        <ele>2660.230</ele>
        <time>2020-07-18T12:26:59Z</time>
      </trkpt>
      <trkpt lat="42.791999" lon="-0.265927">
        <ele>2659.146</ele>
        <time>2020-07-18T12:27:06Z</time>
      </trkpt>
      <trkpt lat="42.792010" lon="-0.265974">
        <ele>2659.483</ele>
        <time>2020-07-18T12:27:46Z</time>
      </trkpt>
      <trkpt lat="42.792045" lon="-0.265992">
        <ele>2656.242</ele>
        <time>2020-07-18T12:29:47Z</time>
      </trkpt>
      <trkpt lat="42.792070" lon="-0.266041">
        <ele>2654.939</ele>
        <time>2020-07-18T12:30:00Z</time>
      </trkpt>
      <trkpt lat="42.792085" lon="-0.266088">
        <ele>2653.681</ele>
        <time>2020-07-18T12:30:24Z</time>
      </trkpt>
      <trkpt lat="42.792118" lon="-0.266081">
        <ele>2645.367</ele>
        <time>2020-07-18T12:32:11Z</time>
      </trkpt>
      <trkpt lat="42.792147" lon="-0.266029">
        <ele>2644.181</ele>
        <time>2020-07-18T12:32:20Z</time>
      </trkpt>
      <trkpt lat="42.792190" lon="-0.266002">
        <ele>2643.919</ele>
        <time>2020-07-18T12:32:27Z</time>
      </trkpt>
      <trkpt lat="42.792236" lon="-0.265993">
        <ele>2642.808</ele>
        <time>2020-07-18T12:32:41Z</time>
      </trkpt>
      <trkpt lat="42.792280" lon="-0.266006">
        <ele>2639.481</ele>
        <time>2020-07-18T12:33:03Z</time>
      </trkpt>
      <trkpt lat="42.792311" lon="-0.266056">
        <ele>2637.529</ele>
        <time>2020-07-18T12:33:19Z</time>
      </trkpt>
      <trkpt lat="42.792329" lon="-0.266114">
        <ele>2631.622</ele>
        <time>2020-07-18T12:33:49Z</time>
      </trkpt>
      <trkpt lat="42.792345" lon="-0.266160">
        <ele>2632.988</ele>
        <time>2020-07-18T12:34:04Z</time>
      </trkpt>
      <trkpt lat="42.792377" lon="-0.266211">
        <ele>2630.185</ele>
        <time>2020-07-18T12:34:16Z</time>
      </trkpt>
      <trkpt lat="42.792429" lon="-0.266223">
        <ele>2630.874</ele>
        <time>2020-07-18T12:34:25Z</time>
      </trkpt>
      <trkpt lat="42.792474" lon="-0.266237">
        <ele>2628.361</ele>
        <time>2020-07-18T12:34:37Z</time>
      </trkpt>
      <trkpt lat="42.792515" lon="-0.266277">
        <ele>2627.343</ele>
        <time>2020-07-18T12:34:46Z</time>
      </trkpt>
      <trkpt lat="42.792544" lon="-0.266329">
        <ele>2626.694</ele>
        <time>2020-07-18T12:34:58Z</time>
      </trkpt>
      <trkpt lat="42.792578" lon="-0.266377">
        <ele>2625.757</ele>
        <time>2020-07-18T12:35:11Z</time>
      </trkpt>
      <trkpt lat="42.792621" lon="-0.266418">
        <ele>2620.522</ele>
        <time>2020-07-18T12:36:18Z</time>
      </trkpt>
      <trkpt lat="42.792650" lon="-0.266467">
        <ele>2616.808</ele>
        <time>2020-07-18T12:36:53Z</time>
      </trkpt>
      <trkpt lat="42.792698" lon="-0.266501">
        <ele>2615.794</ele>
        <time>2020-07-18T12:37:00Z</time>
      </trkpt>
      <trkpt lat="42.792738" lon="-0.266546">
        <ele>2614.662</ele>
        <time>2020-07-18T12:37:08Z</time>
      </trkpt>
      <trkpt lat="42.792780" lon="-0.266574">
        <ele>2612.515</ele>
        <time>2020-07-18T12:37:13Z</time>
      </trkpt>
      <trkpt lat="42.792819" lon="-0.266613">
        <ele>2612.951</ele>
        <time>2020-07-18T12:37:20Z</time>
      </trkpt>
      <trkpt lat="42.792855" lon="-0.266659">
        <ele>2611.818</ele>
        <time>2020-07-18T12:37:33Z</time>
      </trkpt>
      <trkpt lat="42.792880" lon="-0.266714">
        <ele>2610.857</ele>
        <time>2020-07-18T12:37:41Z</time>
      </trkpt>
      <trkpt lat="42.792884" lon="-0.266775">
        <ele>2605.454</ele>
        <time>2020-07-18T12:37:49Z</time>
      </trkpt>
      <trkpt lat="42.792921" lon="-0.266823">
        <ele>2607.386</ele>
        <time>2020-07-18T12:38:02Z</time>
      </trkpt>
      <trkpt lat="42.792966" lon="-0.266842">
        <ele>2607.647</ele>
        <time>2020-07-18T12:38:10Z</time>
      </trkpt>
      <trkpt lat="42.792998" lon="-0.266890">
        <ele>2606.529</ele>
        <time>2020-07-18T12:38:16Z</time>
      </trkpt>
      <trkpt lat="42.793025" lon="-0.266940">
        <ele>2602.921</ele>
        <time>2020-07-18T12:38:24Z</time>
      </trkpt>
      <trkpt lat="42.793064" lon="-0.266974">
        <ele>2603.608</ele>
        <time>2020-07-18T12:38:36Z</time>
      </trkpt>
      <trkpt lat="42.793109" lon="-0.266984">
        <ele>2600.939</ele>
        <time>2020-07-18T12:38:43Z</time>
      </trkpt>
      <trkpt lat="42.793155" lon="-0.266966">
        <ele>2600.937</ele>
        <time>2020-07-18T12:39:02Z</time>
      </trkpt>
      <trkpt lat="42.793195" lon="-0.266996">
        <ele>2600.030</ele>
        <time>2020-07-18T12:39:13Z</time>
      </trkpt>
      <trkpt lat="42.793223" lon="-0.267047">
        <ele>2598.076</ele>
        <time>2020-07-18T12:39:25Z</time>
      </trkpt>
      <trkpt lat="42.793249" lon="-0.267098">
        <ele>2597.473</ele>
        <time>2020-07-18T12:39:35Z</time>
      </trkpt>
      <trkpt lat="42.793295" lon="-0.267127">
        <ele>2595.322</ele>
        <time>2020-07-18T12:39:48Z</time>
      </trkpt>
      <trkpt lat="42.793335" lon="-0.267157">
        <ele>2593.859</ele>
        <time>2020-07-18T12:40:27Z</time>
      </trkpt>
      <trkpt lat="42.793383" lon="-0.267155">
        <ele>2593.671</ele>
        <time>2020-07-18T12:40:38Z</time>
      </trkpt>
      <trkpt lat="42.793429" lon="-0.267173">
        <ele>2593.352</ele>
        <time>2020-07-18T12:41:13Z</time>
      </trkpt>
      <trkpt lat="42.793463" lon="-0.267219">
        <ele>2591.053</ele>
        <time>2020-07-18T12:41:34Z</time>
      </trkpt>
      <trkpt lat="42.793503" lon="-0.267263">
        <ele>2591.108</ele>
        <time>2020-07-18T12:41:42Z</time>
      </trkpt>
      <trkpt lat="42.793544" lon="-0.267302">
        <ele>2589.708</ele>
        <time>2020-07-18T12:41:47Z</time>
      </trkpt>
      <trkpt lat="42.793594" lon="-0.267332">
        <ele>2589.460</ele>
        <time>2020-07-18T12:41:52Z</time>
      </trkpt>
      <trkpt lat="42.793656" lon="-0.267407">
        <ele>2586.698</ele>
        <time>2020-07-18T12:42:02Z</time>
      </trkpt>
      <trkpt lat="42.793690" lon="-0.267452">
        <ele>2585.621</ele>
        <time>2020-07-18T12:42:09Z</time>
      </trkpt>
      <trkpt lat="42.793739" lon="-0.267462">
        <ele>2583.637</ele>
        <time>2020-07-18T12:42:20Z</time>
      </trkpt>
      <trkpt lat="42.793779" lon="-0.267516">
        <ele>2582.584</ele>
        <time>2020-07-18T12:42:31Z</time>
      </trkpt>
      <trkpt lat="42.793823" lon="-0.267532">
        <ele>2579.193</ele>
        <time>2020-07-18T12:42:37Z</time>
      </trkpt>
      <trkpt lat="42.793856" lon="-0.267570">
        <ele>2577.880</ele>
        <time>2020-07-18T12:42:52Z</time>
      </trkpt>
      <trkpt lat="42.793857" lon="-0.267634">
        <ele>2575.382</ele>
        <time>2020-07-18T12:43:07Z</time>
      </trkpt>
      <trkpt lat="42.793828" lon="-0.267683">
        <ele>2571.949</ele>
        <time>2020-07-18T12:43:14Z</time>
      </trkpt>
      <trkpt lat="42.793842" lon="-0.267757">
        <ele>2570.802</ele>
        <time>2020-07-18T12:43:22Z</time>
      </trkpt>
      <trkpt lat="42.793873" lon="-0.267803">
        <ele>2570.022</ele>
        <time>2020-07-18T12:43:28Z</time>
      </trkpt>
      <trkpt lat="42.793912" lon="-0.267837">
        <ele>2567.708</ele>
        <time>2020-07-18T12:43:39Z</time>
      </trkpt>
      <trkpt lat="42.793960" lon="-0.267870">
        <ele>2565.579</ele>
        <time>2020-07-18T12:43:48Z</time>
      </trkpt>
      <trkpt lat="42.793969" lon="-0.267919">
        <ele>2565.047</ele>
        <time>2020-07-18T12:43:58Z</time>
      </trkpt>
      <trkpt lat="42.793945" lon="-0.267947">
        <ele>2563.630</ele>
        <time>2020-07-18T12:44:12Z</time>
      </trkpt>
      <trkpt lat="42.793934" lon="-0.268014">
        <ele>2561.286</ele>
        <time>2020-07-18T12:44:21Z</time>
      </trkpt>
      <trkpt lat="42.793925" lon="-0.268087">
        <ele>2558.993</ele>
        <time>2020-07-18T12:44:30Z</time>
      </trkpt>
      <trkpt lat="42.793943" lon="-0.268145">
        <ele>2558.112</ele>
        <time>2020-07-18T12:44:37Z</time>
      </trkpt>
      <trkpt lat="42.793977" lon="-0.268198">
        <ele>2557.059</ele>
        <time>2020-07-18T12:44:49Z</time>
      </trkpt>
      <trkpt lat="42.794023" lon="-0.268235">
        <ele>2555.351</ele>
        <time>2020-07-18T12:44:56Z</time>
      </trkpt>
      <trkpt lat="42.794065" lon="-0.268264">
        <ele>2553.042</ele>
        <time>2020-07-18T12:45:03Z</time>
      </trkpt>
      <trkpt lat="42.794085" lon="-0.268330">
        <ele>2552.722</ele>
        <time>2020-07-18T12:45:11Z</time>
      </trkpt>
      <trkpt lat="42.794130" lon="-0.268364">
        <ele>2550.614</ele>
        <time>2020-07-18T12:45:21Z</time>
      </trkpt>
      <trkpt lat="42.794165" lon="-0.268422">
        <ele>2548.508</ele>
        <time>2020-07-18T12:45:33Z</time>
      </trkpt>
      <trkpt lat="42.794206" lon="-0.268457">
        <ele>2545.949</ele>
        <time>2020-07-18T12:45:43Z</time>
      </trkpt>
      <trkpt lat="42.794249" lon="-0.268461">
        <ele>2545.097</ele>
        <time>2020-07-18T12:45:50Z</time>
      </trkpt>
      <trkpt lat="42.794273" lon="-0.268415">
        <ele>2546.010</ele>
        <time>2020-07-18T12:45:59Z</time>
      </trkpt>
      <trkpt lat="42.794280" lon="-0.268346">
        <ele>2545.526</ele>
        <time>2020-07-18T12:46:08Z</time>
      </trkpt>
      <trkpt lat="42.794319" lon="-0.268325">
        <ele>2543.533</ele>
        <time>2020-07-18T12:46:21Z</time>
      </trkpt>
      <trkpt lat="42.794359" lon="-0.268374">
        <ele>2541.832</ele>
        <time>2020-07-18T12:46:27Z</time>
      </trkpt>
      <trkpt lat="42.794397" lon="-0.268418">
        <ele>2540.239</ele>
        <time>2020-07-18T12:46:33Z</time>
      </trkpt>
      <trkpt lat="42.794443" lon="-0.268446">
        <ele>2539.641</ele>
        <time>2020-07-18T12:46:41Z</time>
      </trkpt>
      <trkpt lat="42.794490" lon="-0.268472">
        <ele>2537.592</ele>
        <time>2020-07-18T12:46:49Z</time>
      </trkpt>
      <trkpt lat="42.794533" lon="-0.268501">
        <ele>2536.473</ele>
        <time>2020-07-18T12:46:59Z</time>
      </trkpt>
      <trkpt lat="42.794581" lon="-0.268517">
        <ele>2535.320</ele>
        <time>2020-07-18T12:47:10Z</time>
      </trkpt>
      <trkpt lat="42.794607" lon="-0.268566">
        <ele>2532.208</ele>
        <time>2020-07-18T12:47:19Z</time>
      </trkpt>
      <trkpt lat="42.794655" lon="-0.268584">
        <ele>2530.844</ele>
        <time>2020-07-18T12:47:26Z</time>
      </trkpt>
      <trkpt lat="42.794675" lon="-0.268648">
        <ele>2529.782</ele>
        <time>2020-07-18T12:47:35Z</time>
      </trkpt>
      <trkpt lat="42.794683" lon="-0.268713">
        <ele>2528.175</ele>
        <time>2020-07-18T12:47:40Z</time>
      </trkpt>
      <trkpt lat="42.794717" lon="-0.268763">
        <ele>2526.531</ele>
        <time>2020-07-18T12:47:50Z</time>
      </trkpt>
      <trkpt lat="42.794756" lon="-0.268805">
        <ele>2525.098</ele>
        <time>2020-07-18T12:47:57Z</time>
      </trkpt>
      <trkpt lat="42.794776" lon="-0.268863">
        <ele>2522.627</ele>
        <time>2020-07-18T12:48:04Z</time>
      </trkpt>
      <trkpt lat="42.794823" lon="-0.268909">
        <ele>2521.454</ele>
        <time>2020-07-18T12:48:12Z</time>
      </trkpt>
      <trkpt lat="42.794866" lon="-0.268939">
        <ele>2519.826</ele>
        <time>2020-07-18T12:48:20Z</time>
      </trkpt>
      <trkpt lat="42.794910" lon="-0.268904">
        <ele>2519.154</ele>
        <time>2020-07-18T12:48:25Z</time>
      </trkpt>
      <trkpt lat="42.794951" lon="-0.268940">
        <ele>2517.656</ele>
        <time>2020-07-18T12:48:33Z</time>
      </trkpt>
      <trkpt lat="42.794990" lon="-0.268926">
        <ele>2514.211</ele>
        <time>2020-07-18T12:48:40Z</time>
      </trkpt>
      <trkpt lat="42.795016" lon="-0.268976">
        <ele>2513.508</ele>
        <time>2020-07-18T12:48:49Z</time>
      </trkpt>
      <trkpt lat="42.795014" lon="-0.269041">
        <ele>2512.640</ele>
        <time>2020-07-18T12:48:59Z</time>
      </trkpt>
      <trkpt lat="42.795040" lon="-0.269097">
        <ele>2510.968</ele>
        <time>2020-07-18T12:49:17Z</time>
      </trkpt>
      <trkpt lat="42.795056" lon="-0.269157">
        <ele>2509.861</ele>
        <time>2020-07-18T12:49:31Z</time>
      </trkpt>
      <trkpt lat="42.795103" lon="-0.269196">
        <ele>2507.697</ele>
        <time>2020-07-18T12:49:42Z</time>
      </trkpt>
      <trkpt lat="42.795150" lon="-0.269223">
        <ele>2506.674</ele>
        <time>2020-07-18T12:49:48Z</time>
      </trkpt>
      <trkpt lat="42.795191" lon="-0.269256">
        <ele>2505.863</ele>
        <time>2020-07-18T12:49:54Z</time>
      </trkpt>
      <trkpt lat="42.795233" lon="-0.269291">
        <ele>2505.790</ele>
        <time>2020-07-18T12:50:01Z</time>
      </trkpt>
      <trkpt lat="42.795267" lon="-0.269341">
        <ele>2504.072</ele>
        <time>2020-07-18T12:50:08Z</time>
      </trkpt>
      <trkpt lat="42.795313" lon="-0.269376">
        <ele>2502.386</ele>
        <time>2020-07-18T12:50:15Z</time>
      </trkpt>
      <trkpt lat="42.795359" lon="-0.269418">
        <ele>2501.760</ele>
        <time>2020-07-18T12:50:23Z</time>
      </trkpt>
      <trkpt lat="42.795408" lon="-0.269447">
        <ele>2501.526</ele>
        <time>2020-07-18T12:50:29Z</time>
      </trkpt>
      <trkpt lat="42.795456" lon="-0.269459">
        <ele>2501.008</ele>
        <time>2020-07-18T12:50:33Z</time>
      </trkpt>
      <trkpt lat="42.795506" lon="-0.269490">
        <ele>2500.523</ele>
        <time>2020-07-18T12:50:38Z</time>
      </trkpt>
      <trkpt lat="42.795560" lon="-0.269495">
        <ele>2500.221</ele>
        <time>2020-07-18T12:50:43Z</time>
      </trkpt>
      <trkpt lat="42.795606" lon="-0.269477">
        <ele>2498.994</ele>
        <time>2020-07-18T12:50:53Z</time>
      </trkpt>
      <trkpt lat="42.795652" lon="-0.269503">
        <ele>2497.860</ele>
        <time>2020-07-18T12:51:01Z</time>
      </trkpt>
      <trkpt lat="42.795702" lon="-0.269530">
        <ele>2497.557</ele>
        <time>2020-07-18T12:51:09Z</time>
      </trkpt>
      <trkpt lat="42.795715" lon="-0.269584">
        <ele>2495.956</ele>
        <time>2020-07-18T12:51:41Z</time>
      </trkpt>
      <trkpt lat="42.795759" lon="-0.269602">
        <ele>2494.993</ele>
        <time>2020-07-18T12:51:50Z</time>
      </trkpt>
      <trkpt lat="42.795807" lon="-0.269612">
        <ele>2492.775</ele>
        <time>2020-07-18T12:52:01Z</time>
      </trkpt>
      <trkpt lat="42.795843" lon="-0.269575">
        <ele>2493.841</ele>
        <time>2020-07-18T12:52:19Z</time>
      </trkpt>
      <trkpt lat="42.795896" lon="-0.269596">
        <ele>2491.781</ele>
        <time>2020-07-18T12:52:27Z</time>
      </trkpt>
      <trkpt lat="42.795933" lon="-0.269642">
        <ele>2487.809</ele>
        <time>2020-07-18T12:52:33Z</time>
      </trkpt>
      <trkpt lat="42.795981" lon="-0.269655">
        <ele>2488.808</ele>
        <time>2020-07-18T12:52:42Z</time>
      </trkpt>
      <trkpt lat="42.796014" lon="-0.269700">
        <ele>2487.269</ele>
        <time>2020-07-18T12:52:49Z</time>
      </trkpt>
      <trkpt lat="42.796042" lon="-0.269755">
        <ele>2485.627</ele>
        <time>2020-07-18T12:52:56Z</time>
      </trkpt>
      <trkpt lat="42.796082" lon="-0.269797">
        <ele>2483.630</ele>
        <time>2020-07-18T12:53:07Z</time>
      </trkpt>
      <trkpt lat="42.796099" lon="-0.269860">
        <ele>2481.726</ele>
        <time>2020-07-18T12:53:15Z</time>
      </trkpt>
      <trkpt lat="42.796135" lon="-0.269914">
        <ele>2479.153</ele>
        <time>2020-07-18T12:53:28Z</time>
      </trkpt>
      <trkpt lat="42.796180" lon="-0.269958">
        <ele>2479.152</ele>
        <time>2020-07-18T12:53:35Z</time>
      </trkpt>
      <trkpt lat="42.796205" lon="-0.270025">
        <ele>2477.879</ele>
        <time>2020-07-18T12:53:42Z</time>
      </trkpt>
      <trkpt lat="42.796253" lon="-0.270060">
        <ele>2476.841</ele>
        <time>2020-07-18T12:53:49Z</time>
      </trkpt>
      <trkpt lat="42.796272" lon="-0.270115">
        <ele>2476.314</ele>
        <time>2020-07-18T12:53:56Z</time>
      </trkpt>
      <trkpt lat="42.796285" lon="-0.270178">
        <ele>2473.654</ele>
        <time>2020-07-18T12:54:09Z</time>
      </trkpt>
      <trkpt lat="42.796304" lon="-0.270233">
        <ele>2472.009</ele>
        <time>2020-07-18T12:54:17Z</time>
      </trkpt>
      <trkpt lat="42.796281" lon="-0.270281">
        <ele>2469.308</ele>
        <time>2020-07-18T12:54:51Z</time>
      </trkpt>
      <trkpt lat="42.796290" lon="-0.270342">
        <ele>2468.566</ele>
        <time>2020-07-18T12:54:59Z</time>
      </trkpt>
      <trkpt lat="42.796326" lon="-0.270390">
        <ele>2466.814</ele>
        <time>2020-07-18T12:55:05Z</time>
      </trkpt>
      <trkpt lat="42.796384" lon="-0.270405">
        <ele>2466.537</ele>
        <time>2020-07-18T12:55:11Z</time>
      </trkpt>
      <trkpt lat="42.796429" lon="-0.270418">
        <ele>2465.983</ele>
        <time>2020-07-18T12:55:18Z</time>
      </trkpt>
      <trkpt lat="42.796473" lon="-0.270429">
        <ele>2464.310</ele>
        <time>2020-07-18T12:55:27Z</time>
      </trkpt>
      <trkpt lat="42.796513" lon="-0.270462">
        <ele>2462.849</ele>
        <time>2020-07-18T12:55:34Z</time>
      </trkpt>
      <trkpt lat="42.796548" lon="-0.270501">
        <ele>2461.816</ele>
        <time>2020-07-18T12:55:44Z</time>
      </trkpt>
      <trkpt lat="42.796574" lon="-0.270557">
        <ele>2460.638</ele>
        <time>2020-07-18T12:55:55Z</time>
      </trkpt>
      <trkpt lat="42.796606" lon="-0.270604">
        <ele>2459.436</ele>
        <time>2020-07-18T12:56:04Z</time>
      </trkpt>
      <trkpt lat="42.796653" lon="-0.270630">
        <ele>2456.917</ele>
        <time>2020-07-18T12:56:16Z</time>
      </trkpt>
      <trkpt lat="42.796700" lon="-0.270662">
        <ele>2454.518</ele>
        <time>2020-07-18T12:56:25Z</time>
      </trkpt>
      <trkpt lat="42.796725" lon="-0.270715">
        <ele>2454.708</ele>
        <time>2020-07-18T12:56:35Z</time>
      </trkpt>
      <trkpt lat="42.796760" lon="-0.270758">
        <ele>2451.518</ele>
        <time>2020-07-18T12:56:44Z</time>
      </trkpt>
      <trkpt lat="42.796785" lon="-0.270810">
        <ele>2451.646</ele>
        <time>2020-07-18T12:56:52Z</time>
      </trkpt>
      <trkpt lat="42.796831" lon="-0.270835">
        <ele>2452.369</ele>
        <time>2020-07-18T12:57:02Z</time>
      </trkpt>
      <trkpt lat="42.796855" lon="-0.270898">
        <ele>2448.945</ele>
        <time>2020-07-18T12:57:11Z</time>
      </trkpt>
      <trkpt lat="42.796884" lon="-0.270946">
        <ele>2447.582</ele>
        <time>2020-07-18T12:57:25Z</time>
      </trkpt>
      <trkpt lat="42.796879" lon="-0.271007">
        <ele>2445.611</ele>
        <time>2020-07-18T12:57:33Z</time>
      </trkpt>
      <trkpt lat="42.796911" lon="-0.271057">
        <ele>2444.718</ele>
        <time>2020-07-18T12:57:44Z</time>
      </trkpt>
      <trkpt lat="42.796960" lon="-0.271090">
        <ele>2444.690</ele>
        <time>2020-07-18T12:57:51Z</time>
      </trkpt>
      <trkpt lat="42.797000" lon="-0.271139">
        <ele>2443.377</ele>
        <time>2020-07-18T12:57:57Z</time>
      </trkpt>
      <trkpt lat="42.797036" lon="-0.271195">
        <ele>2443.361</ele>
        <time>2020-07-18T12:58:02Z</time>
      </trkpt>
      <trkpt lat="42.797053" lon="-0.271253">
        <ele>2442.427</ele>
        <time>2020-07-18T12:58:07Z</time>
      </trkpt>
      <trkpt lat="42.797076" lon="-0.271309">
        <ele>2442.008</ele>
        <time>2020-07-18T12:58:13Z</time>
      </trkpt>
      <trkpt lat="42.797113" lon="-0.271359">
        <ele>2441.232</ele>
        <time>2020-07-18T12:58:19Z</time>
      </trkpt>
      <trkpt lat="42.797148" lon="-0.271403">
        <ele>2438.230</ele>
        <time>2020-07-18T12:58:27Z</time>
      </trkpt>
      <trkpt lat="42.797192" lon="-0.271430">
        <ele>2437.243</ele>
        <time>2020-07-18T12:58:36Z</time>
      </trkpt>
      <trkpt lat="42.797230" lon="-0.271485">
        <ele>2437.219</ele>
        <time>2020-07-18T12:58:44Z</time>
      </trkpt>
      <trkpt lat="42.797249" lon="-0.271541">
        <ele>2436.546</ele>
        <time>2020-07-18T12:58:50Z</time>
      </trkpt>
      <trkpt lat="42.797277" lon="-0.271601">
        <ele>2435.745</ele>
        <time>2020-07-18T12:58:57Z</time>
      </trkpt>
      <trkpt lat="42.797301" lon="-0.271664">
        <ele>2436.232</ele>
        <time>2020-07-18T12:59:03Z</time>
      </trkpt>
      <trkpt lat="42.797330" lon="-0.271734">
        <ele>2433.164</ele>
        <time>2020-07-18T12:59:33Z</time>
      </trkpt>
      <trkpt lat="42.797318" lon="-0.271804">
        <ele>2430.018</ele>
        <time>2020-07-18T12:59:38Z</time>
      </trkpt>
      <trkpt lat="42.797297" lon="-0.271869">
        <ele>2432.398</ele>
        <time>2020-07-18T12:59:43Z</time>
      </trkpt>
      <trkpt lat="42.797270" lon="-0.271929">
        <ele>2431.117</ele>
        <time>2020-07-18T12:59:48Z</time>
      </trkpt>
      <trkpt lat="42.797244" lon="-0.271989">
        <ele>2430.208</ele>
        <time>2020-07-18T12:59:54Z</time>
      </trkpt>
      <trkpt lat="42.797212" lon="-0.272049">
        <ele>2429.886</ele>
        <time>2020-07-18T13:00:00Z</time>
      </trkpt>
      <trkpt lat="42.797191" lon="-0.272096">
        <ele>2429.414</ele>
        <time>2020-07-18T13:00:06Z</time>
      </trkpt>
      <trkpt lat="42.797200" lon="-0.272153">
        <ele>2427.267</ele>
        <time>2020-07-18T13:00:19Z</time>
      </trkpt>
      <trkpt lat="42.797235" lon="-0.272192">
        <ele>2426.713</ele>
        <time>2020-07-18T13:00:28Z</time>
      </trkpt>
      <trkpt lat="42.797282" lon="-0.272210">
        <ele>2426.180</ele>
        <time>2020-07-18T13:00:35Z</time>
      </trkpt>
      <trkpt lat="42.797329" lon="-0.272232">
        <ele>2424.989</ele>
        <time>2020-07-18T13:00:42Z</time>
      </trkpt>
      <trkpt lat="42.797358" lon="-0.272287">
        <ele>2423.356</ele>
        <time>2020-07-18T13:00:59Z</time>
      </trkpt>
      <trkpt lat="42.797393" lon="-0.272327">
        <ele>2421.948</ele>
        <time>2020-07-18T13:01:07Z</time>
      </trkpt>
      <trkpt lat="42.797428" lon="-0.272332">
        <ele>2419.212</ele>
        <time>2020-07-18T13:01:23Z</time>
      </trkpt>
      <trkpt lat="42.797466" lon="-0.272368">
        <ele>2418.332</ele>
        <time>2020-07-18T13:01:45Z</time>
      </trkpt>
      <trkpt lat="42.797510" lon="-0.272382">
        <ele>2416.605</ele>
        <time>2020-07-18T13:01:53Z</time>
      </trkpt>
      <trkpt lat="42.797556" lon="-0.272413">
        <ele>2415.708</ele>
        <time>2020-07-18T13:02:02Z</time>
      </trkpt>
      <trkpt lat="42.797603" lon="-0.272430">
        <ele>2415.286</ele>
        <time>2020-07-18T13:02:07Z</time>
      </trkpt>
      <trkpt lat="42.797634" lon="-0.272470">
        <ele>2414.384</ele>
        <time>2020-07-18T13:02:13Z</time>
      </trkpt>
      <trkpt lat="42.797658" lon="-0.272522">
        <ele>2413.217</ele>
        <time>2020-07-18T13:02:20Z</time>
      </trkpt>
      <trkpt lat="42.797685" lon="-0.272574">
        <ele>2411.423</ele>
        <time>2020-07-18T13:02:30Z</time>
      </trkpt>
      <trkpt lat="42.797722" lon="-0.272610">
        <ele>2409.510</ele>
        <time>2020-07-18T13:02:37Z</time>
      </trkpt>
      <trkpt lat="42.797741" lon="-0.272666">
        <ele>2409.069</ele>
        <time>2020-07-18T13:02:44Z</time>
      </trkpt>
      <trkpt lat="42.797732" lon="-0.272728">
        <ele>2408.316</ele>
        <time>2020-07-18T13:02:51Z</time>
      </trkpt>
      <trkpt lat="42.797727" lon="-0.272789">
        <ele>2407.068</ele>
        <time>2020-07-18T13:02:58Z</time>
      </trkpt>
      <trkpt lat="42.797698" lon="-0.272843">
        <ele>2405.691</ele>
        <time>2020-07-18T13:03:11Z</time>
      </trkpt>
      <trkpt lat="42.797669" lon="-0.272884">
        <ele>2404.481</ele>
        <time>2020-07-18T13:03:17Z</time>
      </trkpt>
      <trkpt lat="42.797669" lon="-0.272941">
        <ele>2403.919</ele>
        <time>2020-07-18T13:03:24Z</time>
      </trkpt>
      <trkpt lat="42.797687" lon="-0.273014">
        <ele>2400.908</ele>
        <time>2020-07-18T13:03:39Z</time>
      </trkpt>
      <trkpt lat="42.797691" lon="-0.273079">
        <ele>2399.424</ele>
        <time>2020-07-18T13:03:49Z</time>
      </trkpt>
      <trkpt lat="42.797706" lon="-0.273145">
        <ele>2399.072</ele>
        <time>2020-07-18T13:03:57Z</time>
      </trkpt>
      <trkpt lat="42.797730" lon="-0.273199">
        <ele>2397.445</ele>
        <time>2020-07-18T13:04:04Z</time>
      </trkpt>
      <trkpt lat="42.797769" lon="-0.273236">
        <ele>2396.531</ele>
        <time>2020-07-18T13:04:09Z</time>
      </trkpt>
      <trkpt lat="42.797809" lon="-0.273276">
        <ele>2395.868</ele>
        <time>2020-07-18T13:04:14Z</time>
      </trkpt>
      <trkpt lat="42.797834" lon="-0.273331">
        <ele>2395.787</ele>
        <time>2020-07-18T13:04:26Z</time>
      </trkpt>
      <trkpt lat="42.797867" lon="-0.273376">
        <ele>2396.064</ele>
        <time>2020-07-18T13:06:27Z</time>
      </trkpt>
      <trkpt lat="42.797908" lon="-0.273399">
        <ele>2395.436</ele>
        <time>2020-07-18T13:06:33Z</time>
      </trkpt>
      <trkpt lat="42.797959" lon="-0.273428">
        <ele>2396.551</ele>
        <time>2020-07-18T13:06:38Z</time>
      </trkpt>
      <trkpt lat="42.798009" lon="-0.273470">
        <ele>2393.901</ele>
        <time>2020-07-18T13:06:43Z</time>
      </trkpt>
      <trkpt lat="42.798029" lon="-0.273525">
        <ele>2397.011</ele>
        <time>2020-07-18T13:06:50Z</time>
      </trkpt>
      <trkpt lat="42.798034" lon="-0.273578">
        <ele>2397.208</ele>
        <time>2020-07-18T13:07:46Z</time>
      </trkpt>
      <trkpt lat="42.798076" lon="-0.273630">
        <ele>2394.460</ele>
        <time>2020-07-18T13:29:33Z</time>
      </trkpt>
      <trkpt lat="42.798124" lon="-0.273653">
        <ele>2393.328</ele>
        <time>2020-07-18T13:29:44Z</time>
      </trkpt>
      <trkpt lat="42.798161" lon="-0.273688">
        <ele>2394.161</ele>
        <time>2020-07-18T13:29:56Z</time>
      </trkpt>
      <trkpt lat="42.798206" lon="-0.273710">
        <ele>2395.097</ele>
        <time>2020-07-18T13:30:11Z</time>
      </trkpt>
      <trkpt lat="42.798235" lon="-0.273762">
        <ele>2393.994</ele>
        <time>2020-07-18T13:30:21Z</time>
      </trkpt>
      <trkpt lat="42.798275" lon="-0.273788">
        <ele>2395.113</ele>
        <time>2020-07-18T13:30:27Z</time>
      </trkpt>
      <trkpt lat="42.798320" lon="-0.273800">
        <ele>2394.840</ele>
        <time>2020-07-18T13:30:32Z</time>
      </trkpt>
      <trkpt lat="42.798376" lon="-0.273835">
        <ele>2393.812</ele>
        <time>2020-07-18T13:30:38Z</time>
      </trkpt>
      <trkpt lat="42.798425" lon="-0.273852">
        <ele>2393.317</ele>
        <time>2020-07-18T13:30:42Z</time>
      </trkpt>
      <trkpt lat="42.798479" lon="-0.273883">
        <ele>2393.087</ele>
        <time>2020-07-18T13:30:46Z</time>
      </trkpt>
      <trkpt lat="42.798525" lon="-0.273918">
        <ele>2392.115</ele>
        <time>2020-07-18T13:30:51Z</time>
      </trkpt>
      <trkpt lat="42.798570" lon="-0.273930">
        <ele>2392.408</ele>
        <time>2020-07-18T13:30:56Z</time>
      </trkpt>
      <trkpt lat="42.798618" lon="-0.273953">
        <ele>2393.016</ele>
        <time>2020-07-18T13:31:04Z</time>
      </trkpt>
      <trkpt lat="42.798664" lon="-0.273959">
        <ele>2392.544</ele>
        <time>2020-07-18T13:31:09Z</time>
      </trkpt>
      <trkpt lat="42.798715" lon="-0.273957">
        <ele>2391.987</ele>
        <time>2020-07-18T13:31:15Z</time>
      </trkpt>
      <trkpt lat="42.798764" lon="-0.273956">
        <ele>2391.533</ele>
        <time>2020-07-18T13:31:21Z</time>
      </trkpt>
      <trkpt lat="42.798811" lon="-0.273954">
        <ele>2392.910</ele>
        <time>2020-07-18T13:31:28Z</time>
      </trkpt>
      <trkpt lat="42.798858" lon="-0.273968">
        <ele>2392.029</ele>
        <time>2020-07-18T13:31:34Z</time>
      </trkpt>
      <trkpt lat="42.798908" lon="-0.273964">
        <ele>2392.666</ele>
        <time>2020-07-18T13:31:41Z</time>
      </trkpt>
      <trkpt lat="42.798956" lon="-0.273952">
        <ele>2390.918</ele>
        <time>2020-07-18T13:31:47Z</time>
      </trkpt>
      <trkpt lat="42.799015" lon="-0.273964">
        <ele>2391.688</ele>
        <time>2020-07-18T13:32:15Z</time>
      </trkpt>
      <trkpt lat="42.799062" lon="-0.273973">
        <ele>2391.724</ele>
        <time>2020-07-18T13:32:18Z</time>
      </trkpt>
      <trkpt lat="42.799111" lon="-0.273987">
        <ele>2391.826</ele>
        <time>2020-07-18T13:32:24Z</time>
      </trkpt>
      <trkpt lat="42.799176" lon="-0.274021">
        <ele>2391.508</ele>
        <time>2020-07-18T13:32:30Z</time>
      </trkpt>
      <trkpt lat="42.799221" lon="-0.274041">
        <ele>2391.663</ele>
        <time>2020-07-18T13:32:33Z</time>
      </trkpt>
      <trkpt lat="42.799265" lon="-0.274063">
        <ele>2391.721</ele>
        <time>2020-07-18T13:32:45Z</time>
      </trkpt>
      <trkpt lat="42.799305" lon="-0.274095">
        <ele>2391.734</ele>
        <time>2020-07-18T13:33:15Z</time>
      </trkpt>
      <trkpt lat="42.799344" lon="-0.274137">
        <ele>2393.570</ele>
        <time>2020-07-18T13:33:36Z</time>
      </trkpt>
      <trkpt lat="42.799386" lon="-0.274169">
        <ele>2393.717</ele>
        <time>2020-07-18T13:33:46Z</time>
      </trkpt>
      <trkpt lat="42.799436" lon="-0.274171">
        <ele>2392.976</ele>
        <time>2020-07-18T13:33:52Z</time>
      </trkpt>
      <trkpt lat="42.799487" lon="-0.274139">
        <ele>2392.973</ele>
        <time>2020-07-18T13:33:57Z</time>
      </trkpt>
      <trkpt lat="42.799526" lon="-0.274098">
        <ele>2392.585</ele>
        <time>2020-07-18T13:34:02Z</time>
      </trkpt>
      <trkpt lat="42.799575" lon="-0.274062">
        <ele>2390.766</ele>
        <time>2020-07-18T13:34:09Z</time>
      </trkpt>
      <trkpt lat="42.799625" lon="-0.274056">
        <ele>2391.429</ele>
        <time>2020-07-18T13:34:23Z</time>
      </trkpt>
      <trkpt lat="42.799673" lon="-0.274037">
        <ele>2392.021</ele>
        <time>2020-07-18T13:34:33Z</time>
      </trkpt>
      <trkpt lat="42.799721" lon="-0.274026">
        <ele>2392.408</ele>
        <time>2020-07-18T13:34:40Z</time>
      </trkpt>
      <trkpt lat="42.799773" lon="-0.274024">
        <ele>2394.741</ele>
        <time>2020-07-18T13:34:48Z</time>
      </trkpt>
      <trkpt lat="42.799824" lon="-0.274012">
        <ele>2393.559</ele>
        <time>2020-07-18T13:34:55Z</time>
      </trkpt>
      <trkpt lat="42.799871" lon="-0.274000">
        <ele>2394.972</ele>
        <time>2020-07-18T13:35:14Z</time>
      </trkpt>
      <trkpt lat="42.799951" lon="-0.273998">
        <ele>2394.778</ele>
        <time>2020-07-18T13:35:19Z</time>
      </trkpt>
      <trkpt lat="42.799996" lon="-0.274010">
        <ele>2394.745</ele>
        <time>2020-07-18T13:35:24Z</time>
      </trkpt>
      <trkpt lat="42.800038" lon="-0.274031">
        <ele>2394.574</ele>
        <time>2020-07-18T13:36:26Z</time>
      </trkpt>
      <trkpt lat="42.800084" lon="-0.274020">
        <ele>2393.871</ele>
        <time>2020-07-18T13:37:37Z</time>
      </trkpt>
      <trkpt lat="42.800132" lon="-0.274047">
        <ele>2392.593</ele>
        <time>2020-07-18T13:37:52Z</time>
      </trkpt>
      <trkpt lat="42.800180" lon="-0.274058">
        <ele>2393.698</ele>
        <time>2020-07-18T13:38:06Z</time>
      </trkpt>
      <trkpt lat="42.800236" lon="-0.274083">
        <ele>2391.515</ele>
        <time>2020-07-18T13:38:13Z</time>
      </trkpt>
      <trkpt lat="42.800293" lon="-0.274116">
        <ele>2392.126</ele>
        <time>2020-07-18T13:38:18Z</time>
      </trkpt>
      <trkpt lat="42.800355" lon="-0.274132">
        <ele>2390.308</ele>
        <time>2020-07-18T13:38:23Z</time>
      </trkpt>
      <trkpt lat="42.800407" lon="-0.274121">
        <ele>2389.954</ele>
        <time>2020-07-18T13:38:27Z</time>
      </trkpt>
      <trkpt lat="42.800455" lon="-0.274122">
        <ele>2390.452</ele>
        <time>2020-07-18T13:38:33Z</time>
      </trkpt>
      <trkpt lat="42.800505" lon="-0.274102">
        <ele>2389.145</ele>
        <time>2020-07-18T13:38:38Z</time>
      </trkpt>
      <trkpt lat="42.800544" lon="-0.274064">
        <ele>2386.511</ele>
        <time>2020-07-18T13:38:44Z</time>
      </trkpt>
      <trkpt lat="42.800581" lon="-0.274038">
        <ele>2386.858</ele>
        <time>2020-07-18T13:38:50Z</time>
      </trkpt>
      <trkpt lat="42.800627" lon="-0.274043">
        <ele>2385.667</ele>
        <time>2020-07-18T13:39:00Z</time>
      </trkpt>
      <trkpt lat="42.800677" lon="-0.274047">
        <ele>2383.064</ele>
        <time>2020-07-18T13:39:09Z</time>
      </trkpt>
      <trkpt lat="42.800718" lon="-0.274066">
        <ele>2381.686</ele>
        <time>2020-07-18T13:39:17Z</time>
      </trkpt>
      <trkpt lat="42.800774" lon="-0.274084">
        <ele>2381.831</ele>
        <time>2020-07-18T13:39:21Z</time>
      </trkpt>
      <trkpt lat="42.800818" lon="-0.274104">
        <ele>2380.561</ele>
        <time>2020-07-18T13:39:25Z</time>
      </trkpt>
      <trkpt lat="42.800826" lon="-0.274165">
        <ele>2379.707</ele>
        <time>2020-07-18T13:39:30Z</time>
      </trkpt>
      <trkpt lat="42.800822" lon="-0.274232">
        <ele>2374.808</ele>
        <time>2020-07-18T13:40:12Z</time>
      </trkpt>
      <trkpt lat="42.800840" lon="-0.274282">
        <ele>2374.488</ele>
        <time>2020-07-18T13:40:19Z</time>
      </trkpt>
      <trkpt lat="42.800830" lon="-0.274338">
        <ele>2371.416</ele>
        <time>2020-07-18T13:40:32Z</time>
      </trkpt>
      <trkpt lat="42.800801" lon="-0.274388">
        <ele>2370.769</ele>
        <time>2020-07-18T13:40:41Z</time>
      </trkpt>
      <trkpt lat="42.800793" lon="-0.274453">
        <ele>2368.625</ele>
        <time>2020-07-18T13:40:50Z</time>
      </trkpt>
      <trkpt lat="42.800803" lon="-0.274513">
        <ele>2367.032</ele>
        <time>2020-07-18T13:40:58Z</time>
      </trkpt>
      <trkpt lat="42.800816" lon="-0.274574">
        <ele>2365.831</ele>
        <time>2020-07-18T13:41:04Z</time>
      </trkpt>
      <trkpt lat="42.800828" lon="-0.274636">
        <ele>2364.888</ele>
        <time>2020-07-18T13:41:13Z</time>
      </trkpt>
      <trkpt lat="42.800849" lon="-0.274706">
        <ele>2363.510</ele>
        <time>2020-07-18T13:41:24Z</time>
      </trkpt>
      <trkpt lat="42.800859" lon="-0.274772">
        <ele>2361.361</ele>
        <time>2020-07-18T13:41:33Z</time>
      </trkpt>
      <trkpt lat="42.800845" lon="-0.274830">
        <ele>2359.821</ele>
        <time>2020-07-18T13:41:41Z</time>
      </trkpt>
      <trkpt lat="42.800870" lon="-0.274888">
        <ele>2357.213</ele>
        <time>2020-07-18T13:41:50Z</time>
      </trkpt>
      <trkpt lat="42.800912" lon="-0.274920">
        <ele>2355.608</ele>
        <time>2020-07-18T13:41:58Z</time>
      </trkpt>
      <trkpt lat="42.800933" lon="-0.274976">
        <ele>2352.931</ele>
        <time>2020-07-18T13:42:08Z</time>
      </trkpt>
      <trkpt lat="42.800970" lon="-0.275017">
        <ele>2351.369</ele>
        <time>2020-07-18T13:42:16Z</time>
      </trkpt>
      <trkpt lat="42.800974" lon="-0.275075">
        <ele>2350.742</ele>
        <time>2020-07-18T13:42:22Z</time>
      </trkpt>
      <trkpt lat="42.800955" lon="-0.275130">
        <ele>2349.728</ele>
        <time>2020-07-18T13:42:28Z</time>
      </trkpt>
      <trkpt lat="42.800967" lon="-0.275179">
        <ele>2348.125</ele>
        <time>2020-07-18T13:42:36Z</time>
      </trkpt>
      <trkpt lat="42.800968" lon="-0.275242">
        <ele>2346.734</ele>
        <time>2020-07-18T13:42:43Z</time>
      </trkpt>
      <trkpt lat="42.800998" lon="-0.275290">
        <ele>2345.481</ele>
        <time>2020-07-18T13:42:50Z</time>
      </trkpt>
      <trkpt lat="42.801021" lon="-0.275361">
        <ele>2344.283</ele>
        <time>2020-07-18T13:42:57Z</time>
      </trkpt>
      <trkpt lat="42.801053" lon="-0.275413">
        <ele>2344.084</ele>
        <time>2020-07-18T13:43:03Z</time>
      </trkpt>
      <trkpt lat="42.801091" lon="-0.275479">
        <ele>2342.707</ele>
        <time>2020-07-18T13:43:08Z</time>
      </trkpt>
      <trkpt lat="42.801120" lon="-0.275526">
        <ele>2341.817</ele>
        <time>2020-07-18T13:43:12Z</time>
      </trkpt>
      <trkpt lat="42.801159" lon="-0.275581">
        <ele>2341.608</ele>
        <time>2020-07-18T13:43:16Z</time>
      </trkpt>
      <trkpt lat="42.801203" lon="-0.275620">
        <ele>2341.723</ele>
        <time>2020-07-18T13:43:21Z</time>
      </trkpt>
      <trkpt lat="42.801235" lon="-0.275672">
        <ele>2341.281</ele>
        <time>2020-07-18T13:43:26Z</time>
      </trkpt>
      <trkpt lat="42.801273" lon="-0.275704">
        <ele>2341.254</ele>
        <time>2020-07-18T13:43:31Z</time>
      </trkpt>
      <trkpt lat="42.801305" lon="-0.275752">
        <ele>2340.290</ele>
        <time>2020-07-18T13:43:36Z</time>
      </trkpt>
      <trkpt lat="42.801337" lon="-0.275806">
        <ele>2339.867</ele>
        <time>2020-07-18T13:43:48Z</time>
      </trkpt>
      <trkpt lat="42.801379" lon="-0.275840">
        <ele>2338.626</ele>
        <time>2020-07-18T13:43:55Z</time>
      </trkpt>
      <trkpt lat="42.801423" lon="-0.275860">
        <ele>2337.563</ele>
        <time>2020-07-18T13:44:03Z</time>
      </trkpt>
      <trkpt lat="42.801471" lon="-0.275892">
        <ele>2336.545</ele>
        <time>2020-07-18T13:44:10Z</time>
      </trkpt>
      <trkpt lat="42.801521" lon="-0.275890">
        <ele>2334.714</ele>
        <time>2020-07-18T13:44:19Z</time>
      </trkpt>
      <trkpt lat="42.801560" lon="-0.275923">
        <ele>2333.054</ele>
        <time>2020-07-18T13:44:27Z</time>
      </trkpt>
      <trkpt lat="42.801600" lon="-0.275953">
        <ele>2331.409</ele>
        <time>2020-07-18T13:44:38Z</time>
      </trkpt>
      <trkpt lat="42.801644" lon="-0.275969">
        <ele>2327.508</ele>
        <time>2020-07-18T13:44:57Z</time>
      </trkpt>
      <trkpt lat="42.801692" lon="-0.275952">
        <ele>2325.726</ele>
        <time>2020-07-18T13:45:06Z</time>
      </trkpt>
      <trkpt lat="42.801739" lon="-0.275934">
        <ele>2324.944</ele>
        <time>2020-07-18T13:45:12Z</time>
      </trkpt>
      <trkpt lat="42.801785" lon="-0.275918">
        <ele>2323.567</ele>
        <time>2020-07-18T13:45:19Z</time>
      </trkpt>
      <trkpt lat="42.801830" lon="-0.275921">
        <ele>2322.053</ele>
        <time>2020-07-18T13:45:25Z</time>
      </trkpt>
      <trkpt lat="42.801861" lon="-0.275934">
        <ele>2320.370</ele>
        <time>2020-07-18T13:45:37Z</time>
      </trkpt>
      <trkpt lat="42.801903" lon="-0.275936">
        <ele>2320.039</ele>
        <time>2020-07-18T13:45:43Z</time>
      </trkpt>
      <trkpt lat="42.801950" lon="-0.275939">
        <ele>2317.346</ele>
        <time>2020-07-18T13:45:49Z</time>
      </trkpt>
      <trkpt lat="42.801997" lon="-0.275934">
        <ele>2316.148</ele>
        <time>2020-07-18T13:45:56Z</time>
      </trkpt>
      <trkpt lat="42.802039" lon="-0.275913">
        <ele>2314.451</ele>
        <time>2020-07-18T13:46:01Z</time>
      </trkpt>
      <trkpt lat="42.802086" lon="-0.275885">
        <ele>2313.201</ele>
        <time>2020-07-18T13:46:07Z</time>
      </trkpt>
      <trkpt lat="42.802118" lon="-0.275841">
        <ele>2311.711</ele>
        <time>2020-07-18T13:46:14Z</time>
      </trkpt>
      <trkpt lat="42.802119" lon="-0.275774">
        <ele>2311.208</ele>
        <time>2020-07-18T13:46:23Z</time>
      </trkpt>
      <trkpt lat="42.802079" lon="-0.275729">
        <ele>2310.540</ele>
        <time>2020-07-18T13:46:30Z</time>
      </trkpt>
      <trkpt lat="42.802077" lon="-0.275665">
        <ele>2307.438</ele>
        <time>2020-07-18T13:46:48Z</time>
      </trkpt>
      <trkpt lat="42.802081" lon="-0.275605">
        <ele>2305.851</ele>
        <time>2020-07-18T13:46:56Z</time>
      </trkpt>
      <trkpt lat="42.802102" lon="-0.275555">
        <ele>2304.827</ele>
        <time>2020-07-18T13:47:02Z</time>
      </trkpt>
      <trkpt lat="42.802140" lon="-0.275508">
        <ele>2304.684</ele>
        <time>2020-07-18T13:47:08Z</time>
      </trkpt>
      <trkpt lat="42.802162" lon="-0.275454">
        <ele>2302.243</ele>
        <time>2020-07-18T13:47:20Z</time>
      </trkpt>
      <trkpt lat="42.802207" lon="-0.275446">
        <ele>2300.150</ele>
        <time>2020-07-18T13:47:30Z</time>
      </trkpt>
      <trkpt lat="42.802248" lon="-0.275441">
        <ele>2298.782</ele>
        <time>2020-07-18T13:47:39Z</time>
      </trkpt>
      <trkpt lat="42.802285" lon="-0.275408">
        <ele>2297.215</ele>
        <time>2020-07-18T13:47:47Z</time>
      </trkpt>
      <trkpt lat="42.802310" lon="-0.275359">
        <ele>2296.765</ele>
        <time>2020-07-18T13:48:07Z</time>
      </trkpt>
      <trkpt lat="42.802304" lon="-0.275299">
        <ele>2295.411</ele>
        <time>2020-07-18T13:48:16Z</time>
      </trkpt>
      <trkpt lat="42.802283" lon="-0.275243">
        <ele>2296.408</ele>
        <time>2020-07-18T13:48:22Z</time>
      </trkpt>
      <trkpt lat="42.802292" lon="-0.275184">
        <ele>2293.616</ele>
        <time>2020-07-18T13:48:32Z</time>
      </trkpt>
      <trkpt lat="42.802304" lon="-0.275121">
        <ele>2293.664</ele>
        <time>2020-07-18T13:48:40Z</time>
      </trkpt>
      <trkpt lat="42.802312" lon="-0.275059">
        <ele>2292.867</ele>
        <time>2020-07-18T13:48:48Z</time>
      </trkpt>
      <trkpt lat="42.802339" lon="-0.275009">
        <ele>2291.883</ele>
        <time>2020-07-18T13:48:53Z</time>
      </trkpt>
      <trkpt lat="42.802396" lon="-0.274995">
        <ele>2291.030</ele>
        <time>2020-07-18T13:49:00Z</time>
      </trkpt>
      <trkpt lat="42.802431" lon="-0.275040">
        <ele>2290.289</ele>
        <time>2020-07-18T13:49:05Z</time>
      </trkpt>
      <trkpt lat="42.802459" lon="-0.275084">
        <ele>2288.456</ele>
        <time>2020-07-18T13:49:13Z</time>
      </trkpt>
      <trkpt lat="42.802507" lon="-0.275081">
        <ele>2287.998</ele>
        <time>2020-07-18T13:49:19Z</time>
      </trkpt>
      <trkpt lat="42.802538" lon="-0.275089">
        <ele>2285.313</ele>
        <time>2020-07-18T13:49:32Z</time>
      </trkpt>
      <trkpt lat="42.802570" lon="-0.275069">
        <ele>2281.943</ele>
        <time>2020-07-18T13:49:59Z</time>
      </trkpt>
      <trkpt lat="42.802606" lon="-0.275088">
        <ele>2279.107</ele>
        <time>2020-07-18T13:50:18Z</time>
      </trkpt>
      <trkpt lat="42.802606" lon="-0.275146">
        <ele>2278.708</ele>
        <time>2020-07-18T13:50:24Z</time>
      </trkpt>
      <trkpt lat="42.802625" lon="-0.275203">
        <ele>2276.976</ele>
        <time>2020-07-18T13:50:33Z</time>
      </trkpt>
      <trkpt lat="42.802656" lon="-0.275227">
        <ele>2272.774</ele>
        <time>2020-07-18T13:50:57Z</time>
      </trkpt>
      <trkpt lat="42.802691" lon="-0.275215">
        <ele>2266.687</ele>
        <time>2020-07-18T13:52:07Z</time>
      </trkpt>
      <trkpt lat="42.802707" lon="-0.275141">
        <ele>2266.443</ele>
        <time>2020-07-18T13:52:13Z</time>
      </trkpt>
      <trkpt lat="42.802722" lon="-0.275083">
        <ele>2264.560</ele>
        <time>2020-07-18T13:52:18Z</time>
      </trkpt>
      <trkpt lat="42.802740" lon="-0.275029">
        <ele>2262.989</ele>
        <time>2020-07-18T13:52:26Z</time>
      </trkpt>
      <trkpt lat="42.802779" lon="-0.274993">
        <ele>2261.516</ele>
        <time>2020-07-18T13:52:37Z</time>
      </trkpt>
      <trkpt lat="42.802826" lon="-0.274963">
        <ele>2259.488</ele>
        <time>2020-07-18T13:52:45Z</time>
      </trkpt>
      <trkpt lat="42.802878" lon="-0.274935">
        <ele>2259.464</ele>
        <time>2020-07-18T13:52:53Z</time>
      </trkpt>
      <trkpt lat="42.802916" lon="-0.274907">
        <ele>2258.506</ele>
        <time>2020-07-18T13:52:58Z</time>
      </trkpt>
      <trkpt lat="42.802973" lon="-0.274922">
        <ele>2256.416</ele>
        <time>2020-07-18T13:53:06Z</time>
      </trkpt>
      <trkpt lat="42.803024" lon="-0.274927">
        <ele>2254.608</ele>
        <time>2020-07-18T13:53:13Z</time>
      </trkpt>
      <trkpt lat="42.803069" lon="-0.274905">
        <ele>2253.151</ele>
        <time>2020-07-18T13:53:20Z</time>
      </trkpt>
      <trkpt lat="42.803114" lon="-0.274876">
        <ele>2251.239</ele>
        <time>2020-07-18T13:53:29Z</time>
      </trkpt>
      <trkpt lat="42.803157" lon="-0.274850">
        <ele>2250.162</ele>
        <time>2020-07-18T13:53:35Z</time>
      </trkpt>
      <trkpt lat="42.803202" lon="-0.274834">
        <ele>2249.138</ele>
        <time>2020-07-18T13:53:43Z</time>
      </trkpt>
      <trkpt lat="42.803242" lon="-0.274796">
        <ele>2246.955</ele>
        <time>2020-07-18T13:54:15Z</time>
      </trkpt>
      <trkpt lat="42.803288" lon="-0.274785">
        <ele>2245.534</ele>
        <time>2020-07-18T13:54:23Z</time>
      </trkpt>
      <trkpt lat="42.803336" lon="-0.274774">
        <ele>2244.551</ele>
        <time>2020-07-18T13:54:29Z</time>
      </trkpt>
      <trkpt lat="42.803384" lon="-0.274754">
        <ele>2242.633</ele>
        <time>2020-07-18T13:54:35Z</time>
      </trkpt>
      <trkpt lat="42.803439" lon="-0.274745">
        <ele>2241.712</ele>
        <time>2020-07-18T13:54:41Z</time>
      </trkpt>
      <trkpt lat="42.803485" lon="-0.274752">
        <ele>2241.032</ele>
        <time>2020-07-18T13:54:46Z</time>
      </trkpt>
      <trkpt lat="42.803537" lon="-0.274746">
        <ele>2238.905</ele>
        <time>2020-07-18T13:54:52Z</time>
      </trkpt>
      <trkpt lat="42.803585" lon="-0.274728">
        <ele>2238.808</ele>
        <time>2020-07-18T13:54:59Z</time>
      </trkpt>
      <trkpt lat="42.803627" lon="-0.274694">
        <ele>2237.436</ele>
        <time>2020-07-18T13:55:05Z</time>
      </trkpt>
      <trkpt lat="42.803672" lon="-0.274679">
        <ele>2236.494</ele>
        <time>2020-07-18T13:55:12Z</time>
      </trkpt>
      <trkpt lat="42.803718" lon="-0.274663">
        <ele>2235.027</ele>
        <time>2020-07-18T13:55:18Z</time>
      </trkpt>
      <trkpt lat="42.803763" lon="-0.274650">
        <ele>2233.693</ele>
        <time>2020-07-18T13:55:23Z</time>
      </trkpt>
      <trkpt lat="42.803813" lon="-0.274642">
        <ele>2232.920</ele>
        <time>2020-07-18T13:55:29Z</time>
      </trkpt>
      <trkpt lat="42.803875" lon="-0.274641">
        <ele>2232.399</ele>
        <time>2020-07-18T13:55:36Z</time>
      </trkpt>
      <trkpt lat="42.803919" lon="-0.274622">
        <ele>2230.376</ele>
        <time>2020-07-18T13:56:13Z</time>
      </trkpt>
      <trkpt lat="42.803969" lon="-0.274599">
        <ele>2229.978</ele>
        <time>2020-07-18T13:56:22Z</time>
      </trkpt>
      <trkpt lat="42.804017" lon="-0.274584">
        <ele>2229.444</ele>
        <time>2020-07-18T13:56:26Z</time>
      </trkpt>
      <trkpt lat="42.804073" lon="-0.274583">
        <ele>2227.905</ele>
        <time>2020-07-18T13:56:31Z</time>
      </trkpt>
      <trkpt lat="42.804122" lon="-0.274578">
        <ele>2227.715</ele>
        <time>2020-07-18T13:56:36Z</time>
      </trkpt>
      <trkpt lat="42.804169" lon="-0.274563">
        <ele>2226.408</ele>
        <time>2020-07-18T13:56:41Z</time>
      </trkpt>
      <trkpt lat="42.804221" lon="-0.274556">
        <ele>2225.829</ele>
        <time>2020-07-18T13:56:45Z</time>
      </trkpt>
      <trkpt lat="42.804264" lon="-0.274536">
        <ele>2224.847</ele>
        <time>2020-07-18T13:56:50Z</time>
      </trkpt>
      <trkpt lat="42.804307" lon="-0.274517">
        <ele>2225.060</ele>
        <time>2020-07-18T13:56:55Z</time>
      </trkpt>
      <trkpt lat="42.804354" lon="-0.274525">
        <ele>2223.296</ele>
        <time>2020-07-18T13:57:03Z</time>
      </trkpt>
      <trkpt lat="42.804403" lon="-0.274514">
        <ele>2222.983</ele>
        <time>2020-07-18T13:57:11Z</time>
      </trkpt>
      <trkpt lat="42.804454" lon="-0.274521">
        <ele>2221.462</ele>
        <time>2020-07-18T13:57:20Z</time>
      </trkpt>
      <trkpt lat="42.804499" lon="-0.274538">
        <ele>2220.619</ele>
        <time>2020-07-18T13:57:30Z</time>
      </trkpt>
      <trkpt lat="42.804543" lon="-0.274562">
        <ele>2221.771</ele>
        <time>2020-07-18T13:57:37Z</time>
      </trkpt>
      <trkpt lat="42.804591" lon="-0.274581">
        <ele>2220.213</ele>
        <time>2020-07-18T13:57:43Z</time>
      </trkpt>
      <trkpt lat="42.804634" lon="-0.274603">
        <ele>2219.843</ele>
        <time>2020-07-18T13:57:49Z</time>
      </trkpt>
      <trkpt lat="42.804687" lon="-0.274599">
        <ele>2218.807</ele>
        <time>2020-07-18T13:57:55Z</time>
      </trkpt>
      <trkpt lat="42.804732" lon="-0.274576">
        <ele>2217.908</ele>
        <time>2020-07-18T13:57:59Z</time>
      </trkpt>
      <trkpt lat="42.804789" lon="-0.274556">
        <ele>2218.076</ele>
        <time>2020-07-18T13:58:05Z</time>
      </trkpt>
      <trkpt lat="42.804847" lon="-0.274537">
        <ele>2216.814</ele>
        <time>2020-07-18T13:58:09Z</time>
      </trkpt>
      <trkpt lat="42.804897" lon="-0.274526">
        <ele>2216.617</ele>
        <time>2020-07-18T13:58:15Z</time>
      </trkpt>
      <trkpt lat="42.804942" lon="-0.274504">
        <ele>2214.793</ele>
        <time>2020-07-18T13:58:21Z</time>
      </trkpt>
      <trkpt lat="42.804992" lon="-0.274496">
        <ele>2215.330</ele>
        <time>2020-07-18T13:58:27Z</time>
      </trkpt>
      <trkpt lat="42.805044" lon="-0.274484">
        <ele>2214.319</ele>
        <time>2020-07-18T13:58:34Z</time>
      </trkpt>
      <trkpt lat="42.805099" lon="-0.274473">
        <ele>2212.696</ele>
        <time>2020-07-18T13:58:40Z</time>
      </trkpt>
      <trkpt lat="42.805150" lon="-0.274464">
        <ele>2212.518</ele>
        <time>2020-07-18T13:58:46Z</time>
      </trkpt>
      <trkpt lat="42.805197" lon="-0.274443">
        <ele>2211.779</ele>
        <time>2020-07-18T13:58:52Z</time>
      </trkpt>
      <trkpt lat="42.805245" lon="-0.274441">
        <ele>2212.205</ele>
        <time>2020-07-18T13:58:56Z</time>
      </trkpt>
      <trkpt lat="42.805291" lon="-0.274438">
        <ele>2211.925</ele>
        <time>2020-07-18T13:59:01Z</time>
      </trkpt>
      <trkpt lat="42.805343" lon="-0.274422">
        <ele>2210.808</ele>
        <time>2020-07-18T13:59:07Z</time>
      </trkpt>
      <trkpt lat="42.805388" lon="-0.274409">
        <ele>2210.682</ele>
        <time>2020-07-18T13:59:31Z</time>
      </trkpt>
      <trkpt lat="42.805431" lon="-0.274388">
        <ele>2209.260</ele>
        <time>2020-07-18T13:59:45Z</time>
      </trkpt>
      <trkpt lat="42.805495" lon="-0.274342">
        <ele>2208.593</ele>
        <time>2020-07-18T14:02:30Z</time>
      </trkpt>
      <trkpt lat="42.805540" lon="-0.274312">
        <ele>2208.259</ele>
        <time>2020-07-18T14:02:38Z</time>
      </trkpt>
      <trkpt lat="42.805585" lon="-0.274292">
        <ele>2209.036</ele>
        <time>2020-07-18T14:03:23Z</time>
      </trkpt>
      <trkpt lat="42.805630" lon="-0.274254">
        <ele>2210.975</ele>
        <time>2020-07-18T14:03:50Z</time>
      </trkpt>
      <trkpt lat="42.805670" lon="-0.274221">
        <ele>2210.882</ele>
        <time>2020-07-18T14:03:55Z</time>
      </trkpt>
      <trkpt lat="42.805729" lon="-0.274211">
        <ele>2208.014</ele>
        <time>2020-07-18T14:08:58Z</time>
      </trkpt>
      <trkpt lat="42.805785" lon="-0.274233">
        <ele>2207.511</ele>
        <time>2020-07-18T14:09:04Z</time>
      </trkpt>
      <trkpt lat="42.805835" lon="-0.274239">
        <ele>2206.921</ele>
        <time>2020-07-18T14:09:09Z</time>
      </trkpt>
      <trkpt lat="42.805884" lon="-0.274247">
        <ele>2206.303</ele>
        <time>2020-07-18T14:09:12Z</time>
      </trkpt>
      <trkpt lat="42.805945" lon="-0.274239">
        <ele>2205.808</ele>
        <time>2020-07-18T14:09:17Z</time>
      </trkpt>
      <trkpt lat="42.805992" lon="-0.274221">
        <ele>2204.726</ele>
        <time>2020-07-18T14:09:22Z</time>
      </trkpt>
      <trkpt lat="42.806038" lon="-0.274211">
        <ele>2203.924</ele>
        <time>2020-07-18T14:09:27Z</time>
      </trkpt>
      <trkpt lat="42.806091" lon="-0.274207">
        <ele>2203.857</ele>
        <time>2020-07-18T14:09:33Z</time>
      </trkpt>
      <trkpt lat="42.806141" lon="-0.274213">
        <ele>2202.943</ele>
        <time>2020-07-18T14:09:38Z</time>
      </trkpt>
      <trkpt lat="42.806189" lon="-0.274231">
        <ele>2203.080</ele>
        <time>2020-07-18T14:09:45Z</time>
      </trkpt>
      <trkpt lat="42.806234" lon="-0.274216">
        <ele>2203.249</ele>
        <time>2020-07-18T14:10:13Z</time>
      </trkpt>
      <trkpt lat="42.806277" lon="-0.274237">
        <ele>2198.326</ele>
        <time>2020-07-18T14:10:27Z</time>
      </trkpt>
      <trkpt lat="42.806302" lon="-0.274303">
        <ele>2197.478</ele>
        <time>2020-07-18T14:10:35Z</time>
      </trkpt>
      <trkpt lat="42.806292" lon="-0.274365">
        <ele>2196.321</ele>
        <time>2020-07-18T14:10:43Z</time>
      </trkpt>
      <trkpt lat="42.806294" lon="-0.274434">
        <ele>2195.141</ele>
        <time>2020-07-18T14:10:51Z</time>
      </trkpt>
      <trkpt lat="42.806330" lon="-0.274484">
        <ele>2193.905</ele>
        <time>2020-07-18T14:10:58Z</time>
      </trkpt>
      <trkpt lat="42.806362" lon="-0.274477">
        <ele>2193.008</ele>
        <time>2020-07-18T14:11:08Z</time>
      </trkpt>
      <trkpt lat="42.806397" lon="-0.274500">
        <ele>2192.087</ele>
        <time>2020-07-18T14:11:17Z</time>
      </trkpt>
      <trkpt lat="42.806443" lon="-0.274516">
        <ele>2188.725</ele>
        <time>2020-07-18T14:11:29Z</time>
      </trkpt>
      <trkpt lat="42.806494" lon="-0.274483">
        <ele>2189.348</ele>
        <time>2020-07-18T14:11:37Z</time>
      </trkpt>
      <trkpt lat="42.806539" lon="-0.274489">
        <ele>2185.834</ele>
        <time>2020-07-18T14:11:48Z</time>
      </trkpt>
      <trkpt lat="42.806583" lon="-0.274465">
        <ele>2185.141</ele>
        <time>2020-07-18T14:11:56Z</time>
      </trkpt>
      <trkpt lat="42.806630" lon="-0.274443">
        <ele>2184.360</ele>
        <time>2020-07-18T14:12:02Z</time>
      </trkpt>
      <trkpt lat="42.806677" lon="-0.274456">
        <ele>2182.167</ele>
        <time>2020-07-18T14:12:10Z</time>
      </trkpt>
      <trkpt lat="42.806723" lon="-0.274494">
        <ele>2181.719</ele>
        <time>2020-07-18T14:12:17Z</time>
      </trkpt>
      <trkpt lat="42.806745" lon="-0.274549">
        <ele>2179.828</ele>
        <time>2020-07-18T14:12:24Z</time>
      </trkpt>
      <trkpt lat="42.806767" lon="-0.274608">
        <ele>2180.189</ele>
        <time>2020-07-18T14:12:30Z</time>
      </trkpt>
      <trkpt lat="42.806792" lon="-0.274670">
        <ele>2178.617</ele>
        <time>2020-07-18T14:12:38Z</time>
      </trkpt>
      <trkpt lat="42.806838" lon="-0.274701">
        <ele>2177.708</ele>
        <time>2020-07-18T14:12:43Z</time>
      </trkpt>
      <trkpt lat="42.806878" lon="-0.274755">
        <ele>2175.797</ele>
        <time>2020-07-18T14:12:50Z</time>
      </trkpt>
      <trkpt lat="42.806922" lon="-0.274791">
        <ele>2174.845</ele>
        <time>2020-07-18T14:12:56Z</time>
      </trkpt>
      <trkpt lat="42.806959" lon="-0.274840">
        <ele>2174.068</ele>
        <time>2020-07-18T14:13:02Z</time>
      </trkpt>
      <trkpt lat="42.806993" lon="-0.274890">
        <ele>2173.464</ele>
        <time>2020-07-18T14:13:08Z</time>
      </trkpt>
      <trkpt lat="42.807036" lon="-0.274934">
        <ele>2172.541</ele>
        <time>2020-07-18T14:13:14Z</time>
      </trkpt>
      <trkpt lat="42.807071" lon="-0.274973">
        <ele>2170.880</ele>
        <time>2020-07-18T14:13:20Z</time>
      </trkpt>
      <trkpt lat="42.807112" lon="-0.275000">
        <ele>2171.037</ele>
        <time>2020-07-18T14:13:26Z</time>
      </trkpt>
      <trkpt lat="42.807150" lon="-0.275021">
        <ele>2169.729</ele>
        <time>2020-07-18T14:13:32Z</time>
      </trkpt>
      <trkpt lat="42.807187" lon="-0.274988">
        <ele>2170.121</ele>
        <time>2020-07-18T14:14:28Z</time>
      </trkpt>
      <trkpt lat="42.807235" lon="-0.274985">
        <ele>2167.941</ele>
        <time>2020-07-18T14:15:21Z</time>
      </trkpt>
      <trkpt lat="42.807270" lon="-0.275042">
        <ele>2167.805</ele>
        <time>2020-07-18T14:15:26Z</time>
      </trkpt>
      <trkpt lat="42.807307" lon="-0.275087">
        <ele>2166.408</ele>
        <time>2020-07-18T14:15:29Z</time>
      </trkpt>
      <trkpt lat="42.807341" lon="-0.275140">
        <ele>2166.777</ele>
        <time>2020-07-18T14:15:32Z</time>
      </trkpt>
      <trkpt lat="42.807378" lon="-0.275195">
        <ele>2166.745</ele>
        <time>2020-07-18T14:15:36Z</time>
      </trkpt>
      <trkpt lat="42.807417" lon="-0.275248">
        <ele>2165.768</ele>
        <time>2020-07-18T14:15:41Z</time>
      </trkpt>
      <trkpt lat="42.807460" lon="-0.275292">
        <ele>2164.134</ele>
        <time>2020-07-18T14:15:45Z</time>
      </trkpt>
      <trkpt lat="42.807510" lon="-0.275334">
        <ele>2164.351</ele>
        <time>2020-07-18T14:15:51Z</time>
      </trkpt>
      <trkpt lat="42.807566" lon="-0.275357">
        <ele>2163.670</ele>
        <time>2020-07-18T14:15:56Z</time>
      </trkpt>
      <trkpt lat="42.807616" lon="-0.275364">
        <ele>2163.077</ele>
        <time>2020-07-18T14:16:01Z</time>
      </trkpt>
      <trkpt lat="42.807660" lon="-0.275378">
        <ele>2162.849</ele>
        <time>2020-07-18T14:16:05Z</time>
      </trkpt>
      <trkpt lat="42.807716" lon="-0.275394">
        <ele>2162.254</ele>
        <time>2020-07-18T14:16:10Z</time>
      </trkpt>
      <trkpt lat="42.807767" lon="-0.275403">
        <ele>2161.756</ele>
        <time>2020-07-18T14:16:15Z</time>
      </trkpt>
      <trkpt lat="42.807814" lon="-0.275422">
        <ele>2159.411</ele>
        <time>2020-07-18T14:16:19Z</time>
      </trkpt>
      <trkpt lat="42.807866" lon="-0.275446">
        <ele>2162.208</ele>
        <time>2020-07-18T14:16:24Z</time>
      </trkpt>
      <trkpt lat="42.807906" lon="-0.275483">
        <ele>2162.180</ele>
        <time>2020-07-18T14:16:29Z</time>
      </trkpt>
      <trkpt lat="42.807955" lon="-0.275515">
        <ele>2161.768</ele>
        <time>2020-07-18T14:16:35Z</time>
      </trkpt>
      <trkpt lat="42.807995" lon="-0.275550">
        <ele>2161.241</ele>
        <time>2020-07-18T14:16:40Z</time>
      </trkpt>
      <trkpt lat="42.808037" lon="-0.275577">
        <ele>2160.677</ele>
        <time>2020-07-18T14:16:45Z</time>
      </trkpt>
      <trkpt lat="42.808075" lon="-0.275619">
        <ele>2161.084</ele>
        <time>2020-07-18T14:16:50Z</time>
      </trkpt>
      <trkpt lat="42.808103" lon="-0.275683">
        <ele>2161.293</ele>
        <time>2020-07-18T14:16:55Z</time>
      </trkpt>
      <trkpt lat="42.808140" lon="-0.275719">
        <ele>2160.420</ele>
        <time>2020-07-18T14:17:00Z</time>
      </trkpt>
      <trkpt lat="42.808185" lon="-0.275763">
        <ele>2159.932</ele>
        <time>2020-07-18T14:17:06Z</time>
      </trkpt>
      <trkpt lat="42.808229" lon="-0.275801">
        <ele>2159.796</ele>
        <time>2020-07-18T14:17:11Z</time>
      </trkpt>
      <trkpt lat="42.808273" lon="-0.275829">
        <ele>2159.531</ele>
        <time>2020-07-18T14:17:15Z</time>
      </trkpt>
      <trkpt lat="42.808323" lon="-0.275859">
        <ele>2159.924</ele>
        <time>2020-07-18T14:17:20Z</time>
      </trkpt>
      <trkpt lat="42.808368" lon="-0.275882">
        <ele>2159.408</ele>
        <time>2020-07-18T14:17:25Z</time>
      </trkpt>
      <trkpt lat="42.808423" lon="-0.275920">
        <ele>2159.544</ele>
        <time>2020-07-18T14:17:30Z</time>
      </trkpt>
      <trkpt lat="42.808483" lon="-0.275927">
        <ele>2159.342</ele>
        <time>2020-07-18T14:17:36Z</time>
      </trkpt>
      <trkpt lat="42.808531" lon="-0.275921">
        <ele>2159.135</ele>
        <time>2020-07-18T14:17:41Z</time>
      </trkpt>
      <trkpt lat="42.808582" lon="-0.275923">
        <ele>2159.211</ele>
        <time>2020-07-18T14:17:46Z</time>
      </trkpt>
      <trkpt lat="42.808631" lon="-0.275925">
        <ele>2158.888</ele>
        <time>2020-07-18T14:17:51Z</time>
      </trkpt>
      <trkpt lat="42.808682" lon="-0.275949">
        <ele>2158.227</ele>
        <time>2020-07-18T14:17:56Z</time>
      </trkpt>
      <trkpt lat="42.808735" lon="-0.275978">
        <ele>2157.984</ele>
        <time>2020-07-18T14:18:01Z</time>
      </trkpt>
      <trkpt lat="42.808789" lon="-0.275994">
        <ele>2159.356</ele>
        <time>2020-07-18T14:18:07Z</time>
      </trkpt>
      <trkpt lat="42.808838" lon="-0.276020">
        <ele>2159.778</ele>
        <time>2020-07-18T14:18:12Z</time>
      </trkpt>
      <trkpt lat="42.808884" lon="-0.276033">
        <ele>2159.433</ele>
        <time>2020-07-18T14:18:33Z</time>
      </trkpt>
      <trkpt lat="42.808942" lon="-0.276047">
        <ele>2161.026</ele>
        <time>2020-07-18T14:18:38Z</time>
      </trkpt>
      <trkpt lat="42.808995" lon="-0.276063">
        <ele>2161.508</ele>
        <time>2020-07-18T14:18:42Z</time>
      </trkpt>
      <trkpt lat="42.809028" lon="-0.276062">
        <ele>2160.962</ele>
        <time>2020-07-18T14:18:47Z</time>
      </trkpt>
      <trkpt lat="42.809051" lon="-0.276014">
        <ele>2159.440</ele>
        <time>2020-07-18T14:19:18Z</time>
      </trkpt>
      <trkpt lat="42.809076" lon="-0.275953">
        <ele>2158.233</ele>
        <time>2020-07-18T14:19:24Z</time>
      </trkpt>
      <trkpt lat="42.809106" lon="-0.275890">
        <ele>2159.969</ele>
        <time>2020-07-18T14:19:29Z</time>
      </trkpt>
      <trkpt lat="42.809148" lon="-0.275840">
        <ele>2157.726</ele>
        <time>2020-07-18T14:19:34Z</time>
      </trkpt>
      <trkpt lat="42.809196" lon="-0.275788">
        <ele>2158.085</ele>
        <time>2020-07-18T14:19:40Z</time>
      </trkpt>
      <trkpt lat="42.809246" lon="-0.275766">
        <ele>2156.462</ele>
        <time>2020-07-18T14:19:46Z</time>
      </trkpt>
      <trkpt lat="42.809297" lon="-0.275765">
        <ele>2156.634</ele>
        <time>2020-07-18T14:19:51Z</time>
      </trkpt>
      <trkpt lat="42.809352" lon="-0.275767">
        <ele>2155.977</ele>
        <time>2020-07-18T14:19:56Z</time>
      </trkpt>
      <trkpt lat="42.809395" lon="-0.275795">
        <ele>2156.661</ele>
        <time>2020-07-18T14:20:00Z</time>
      </trkpt>
      <trkpt lat="42.809441" lon="-0.275824">
        <ele>2156.627</ele>
        <time>2020-07-18T14:20:04Z</time>
      </trkpt>
      <trkpt lat="42.809488" lon="-0.275812">
        <ele>2156.108</ele>
        <time>2020-07-18T14:20:09Z</time>
      </trkpt>
      <trkpt lat="42.809536" lon="-0.275794">
        <ele>2155.642</ele>
        <time>2020-07-18T14:20:13Z</time>
      </trkpt>
      <trkpt lat="42.809586" lon="-0.275813">
        <ele>2153.440</ele>
        <time>2020-07-18T14:20:18Z</time>
      </trkpt>
      <trkpt lat="42.809638" lon="-0.275847">
        <ele>2153.513</ele>
        <time>2020-07-18T14:20:23Z</time>
      </trkpt>
      <trkpt lat="42.809688" lon="-0.275877">
        <ele>2152.769</ele>
        <time>2020-07-18T14:20:27Z</time>
      </trkpt>
      <trkpt lat="42.809743" lon="-0.275889">
        <ele>2152.146</ele>
        <time>2020-07-18T14:20:32Z</time>
      </trkpt>
      <trkpt lat="42.809795" lon="-0.275912">
        <ele>2151.415</ele>
        <time>2020-07-18T14:20:37Z</time>
      </trkpt>
      <trkpt lat="42.809842" lon="-0.275914">
        <ele>2151.132</ele>
        <time>2020-07-18T14:20:42Z</time>
      </trkpt>
      <trkpt lat="42.809897" lon="-0.275928">
        <ele>2150.084</ele>
        <time>2020-07-18T14:20:49Z</time>
      </trkpt>
      <trkpt lat="42.809944" lon="-0.275932">
        <ele>2149.253</ele>
        <time>2020-07-18T14:20:53Z</time>
      </trkpt>
      <trkpt lat="42.809992" lon="-0.275946">
        <ele>2147.904</ele>
        <time>2020-07-18T14:20:59Z</time>
      </trkpt>
      <trkpt lat="42.810034" lon="-0.275976">
        <ele>2148.314</ele>
        <time>2020-07-18T14:21:05Z</time>
      </trkpt>
      <trkpt lat="42.810079" lon="-0.276001">
        <ele>2147.508</ele>
        <time>2020-07-18T14:21:09Z</time>
      </trkpt>
      <trkpt lat="42.810119" lon="-0.276035">
        <ele>2146.360</ele>
        <time>2020-07-18T14:21:14Z</time>
      </trkpt>
      <trkpt lat="42.810167" lon="-0.276065">
        <ele>2145.738</ele>
        <time>2020-07-18T14:21:21Z</time>
      </trkpt>
      <trkpt lat="42.810215" lon="-0.276074">
        <ele>2145.071</ele>
        <time>2020-07-18T14:21:27Z</time>
      </trkpt>
      <trkpt lat="42.810265" lon="-0.276065">
        <ele>2144.597</ele>
        <time>2020-07-18T14:21:32Z</time>
      </trkpt>
      <trkpt lat="42.810314" lon="-0.276080">
        <ele>2144.064</ele>
        <time>2020-07-18T14:21:36Z</time>
      </trkpt>
      <trkpt lat="42.810354" lon="-0.276121">
        <ele>2144.993</ele>
        <time>2020-07-18T14:21:42Z</time>
      </trkpt>
      <trkpt lat="42.810395" lon="-0.276169">
        <ele>2143.590</ele>
        <time>2020-07-18T14:21:49Z</time>
      </trkpt>
      <trkpt lat="42.810427" lon="-0.276214">
        <ele>2142.672</ele>
        <time>2020-07-18T14:21:55Z</time>
      </trkpt>
      <trkpt lat="42.810468" lon="-0.276257">
        <ele>2142.699</ele>
        <time>2020-07-18T14:22:01Z</time>
      </trkpt>
      <trkpt lat="42.810505" lon="-0.276305">
        <ele>2141.507</ele>
        <time>2020-07-18T14:22:07Z</time>
      </trkpt>
      <trkpt lat="42.810549" lon="-0.276336">
        <ele>2140.227</ele>
        <time>2020-07-18T14:22:14Z</time>
      </trkpt>
      <trkpt lat="42.810595" lon="-0.276351">
        <ele>2139.808</ele>
        <time>2020-07-18T14:22:27Z</time>
      </trkpt>
      <trkpt lat="42.810637" lon="-0.276377">
        <ele>2139.644</ele>
        <time>2020-07-18T14:22:36Z</time>
      </trkpt>
      <trkpt lat="42.810692" lon="-0.276379">
        <ele>2138.742</ele>
        <time>2020-07-18T14:22:43Z</time>
      </trkpt>
      <trkpt lat="42.810724" lon="-0.276426">
        <ele>2138.575</ele>
        <time>2020-07-18T14:22:48Z</time>
      </trkpt>
      <trkpt lat="42.810748" lon="-0.276484">
        <ele>2137.461</ele>
        <time>2020-07-18T14:22:52Z</time>
      </trkpt>
      <trkpt lat="42.810781" lon="-0.276529">
        <ele>2137.688</ele>
        <time>2020-07-18T14:22:57Z</time>
      </trkpt>
      <trkpt lat="42.810817" lon="-0.276573">
        <ele>2136.537</ele>
        <time>2020-07-18T14:23:01Z</time>
      </trkpt>
      <trkpt lat="42.810849" lon="-0.276631">
        <ele>2137.154</ele>
        <time>2020-07-18T14:23:08Z</time>
      </trkpt>
      <trkpt lat="42.810884" lon="-0.276676">
        <ele>2135.926</ele>
        <time>2020-07-18T14:23:12Z</time>
      </trkpt>
      <trkpt lat="42.810933" lon="-0.276714">
        <ele>2137.095</ele>
        <time>2020-07-18T14:23:17Z</time>
      </trkpt>
      <trkpt lat="42.810984" lon="-0.276730">
        <ele>2136.049</ele>
        <time>2020-07-18T14:23:22Z</time>
      </trkpt>
      <trkpt lat="42.811036" lon="-0.276739">
        <ele>2137.123</ele>
        <time>2020-07-18T14:23:27Z</time>
      </trkpt>
      <trkpt lat="42.811085" lon="-0.276760">
        <ele>2135.208</ele>
        <time>2020-07-18T14:23:31Z</time>
      </trkpt>
      <trkpt lat="42.811135" lon="-0.276785">
        <ele>2137.764</ele>
        <time>2020-07-18T14:23:36Z</time>
      </trkpt>
      <trkpt lat="42.811180" lon="-0.276793">
        <ele>2137.632</ele>
        <time>2020-07-18T14:23:41Z</time>
      </trkpt>
      <trkpt lat="42.811241" lon="-0.276802">
        <ele>2136.415</ele>
        <time>2020-07-18T14:23:47Z</time>
      </trkpt>
      <trkpt lat="42.811293" lon="-0.276795">
        <ele>2133.731</ele>
        <time>2020-07-18T14:23:53Z</time>
      </trkpt>
      <trkpt lat="42.811346" lon="-0.276805">
        <ele>2134.328</ele>
        <time>2020-07-18T14:23:58Z</time>
      </trkpt>
      <trkpt lat="42.811402" lon="-0.276806">
        <ele>2133.297</ele>
        <time>2020-07-18T14:24:04Z</time>
      </trkpt>
      <trkpt lat="42.811450" lon="-0.276803">
        <ele>2133.614</ele>
        <time>2020-07-18T14:24:09Z</time>
      </trkpt>
      <trkpt lat="42.811495" lon="-0.276823">
        <ele>2132.376</ele>
        <time>2020-07-18T14:24:14Z</time>
      </trkpt>
      <trkpt lat="42.811541" lon="-0.276855">
        <ele>2131.817</ele>
        <time>2020-07-18T14:24:20Z</time>
      </trkpt>
      <trkpt lat="42.811596" lon="-0.276880">
        <ele>2132.687</ele>
        <time>2020-07-18T14:24:27Z</time>
      </trkpt>
      <trkpt lat="42.811636" lon="-0.276910">
        <ele>2131.315</ele>
        <time>2020-07-18T14:24:35Z</time>
      </trkpt>
      <trkpt lat="42.811679" lon="-0.276933">
        <ele>2134.508</ele>
        <time>2020-07-18T14:24:41Z</time>
      </trkpt>
      <trkpt lat="42.811718" lon="-0.276894">
        <ele>2135.756</ele>
        <time>2020-07-18T14:24:49Z</time>
      </trkpt>
      <trkpt lat="42.811765" lon="-0.276871">
        <ele>2137.014</ele>
        <time>2020-07-18T14:25:02Z</time>
      </trkpt>
      <trkpt lat="42.811785" lon="-0.276813">
        <ele>2134.817</ele>
        <time>2020-07-18T14:25:11Z</time>
      </trkpt>
      <trkpt lat="42.811828" lon="-0.276780">
        <ele>2134.173</ele>
        <time>2020-07-18T14:25:17Z</time>
      </trkpt>
      <trkpt lat="42.811852" lon="-0.276726">
        <ele>2136.030</ele>
        <time>2020-07-18T14:25:22Z</time>
      </trkpt>
      <trkpt lat="42.811862" lon="-0.276660">
        <ele>2137.529</ele>
        <time>2020-07-18T14:25:28Z</time>
      </trkpt>
      <trkpt lat="42.811887" lon="-0.276607">
        <ele>2137.296</ele>
        <time>2020-07-18T14:25:34Z</time>
      </trkpt>
      <trkpt lat="42.811930" lon="-0.276569">
        <ele>2137.628</ele>
        <time>2020-07-18T14:25:40Z</time>
      </trkpt>
      <trkpt lat="42.811989" lon="-0.276537">
        <ele>2137.919</ele>
        <time>2020-07-18T14:25:46Z</time>
      </trkpt>
      <trkpt lat="42.812034" lon="-0.276504">
        <ele>2136.009</ele>
        <time>2020-07-18T14:25:52Z</time>
      </trkpt>
      <trkpt lat="42.812070" lon="-0.276464">
        <ele>2135.219</ele>
        <time>2020-07-18T14:25:56Z</time>
      </trkpt>
      <trkpt lat="42.812119" lon="-0.276454">
        <ele>2132.808</ele>
        <time>2020-07-18T14:26:03Z</time>
      </trkpt>
      <trkpt lat="42.812163" lon="-0.276436">
        <ele>2130.166</ele>
        <time>2020-07-18T14:26:33Z</time>
      </trkpt>
      <trkpt lat="42.812188" lon="-0.276383">
        <ele>2130.064</ele>
        <time>2020-07-18T14:26:39Z</time>
      </trkpt>
      <trkpt lat="42.812213" lon="-0.276325">
        <ele>2130.597</ele>
        <time>2020-07-18T14:26:44Z</time>
      </trkpt>
      <trkpt lat="42.812229" lon="-0.276266">
        <ele>2128.253</ele>
        <time>2020-07-18T14:26:54Z</time>
      </trkpt>
      <trkpt lat="42.812254" lon="-0.276214">
        <ele>2128.840</ele>
        <time>2020-07-18T14:27:00Z</time>
      </trkpt>
      <trkpt lat="42.812274" lon="-0.276153">
        <ele>2126.969</ele>
        <time>2020-07-18T14:27:07Z</time>
      </trkpt>
      <trkpt lat="42.812284" lon="-0.276087">
        <ele>2126.436</ele>
        <time>2020-07-18T14:27:15Z</time>
      </trkpt>
      <trkpt lat="42.812291" lon="-0.276024">
        <ele>2124.888</ele>
        <time>2020-07-18T14:27:24Z</time>
      </trkpt>
      <trkpt lat="42.812286" lon="-0.275952">
        <ele>2123.326</ele>
        <time>2020-07-18T14:27:32Z</time>
      </trkpt>
      <trkpt lat="42.812295" lon="-0.275890">
        <ele>2122.247</ele>
        <time>2020-07-18T14:27:37Z</time>
      </trkpt>
      <trkpt lat="42.812333" lon="-0.275847">
        <ele>2120.311</ele>
        <time>2020-07-18T14:27:45Z</time>
      </trkpt>
      <trkpt lat="42.812374" lon="-0.275812">
        <ele>2120.608</ele>
        <time>2020-07-18T14:27:51Z</time>
      </trkpt>
      <trkpt lat="42.812404" lon="-0.275747">
        <ele>2118.917</ele>
        <time>2020-07-18T14:28:29Z</time>
      </trkpt>
      <trkpt lat="42.812444" lon="-0.275712">
        <ele>2118.795</ele>
        <time>2020-07-18T14:28:35Z</time>
      </trkpt>
      <trkpt lat="42.812482" lon="-0.275675">
        <ele>2117.628</ele>
        <time>2020-07-18T14:28:40Z</time>
      </trkpt>
      <trkpt lat="42.812514" lon="-0.275627">
        <ele>2117.364</ele>
        <time>2020-07-18T14:28:46Z</time>
      </trkpt>
      <trkpt lat="42.812564" lon="-0.275618">
        <ele>2115.091</ele>
        <time>2020-07-18T14:28:53Z</time>
      </trkpt>
      <trkpt lat="42.812595" lon="-0.275572">
        <ele>2115.210</ele>
        <time>2020-07-18T14:29:00Z</time>
      </trkpt>
      <trkpt lat="42.812634" lon="-0.275539">
        <ele>2113.287</ele>
        <time>2020-07-18T14:29:07Z</time>
      </trkpt>
      <trkpt lat="42.812685" lon="-0.275516">
        <ele>2111.829</ele>
        <time>2020-07-18T14:29:16Z</time>
      </trkpt>
      <trkpt lat="42.812720" lon="-0.275471">
        <ele>2109.475</ele>
        <time>2020-07-18T14:29:24Z</time>
      </trkpt>
      <trkpt lat="42.812731" lon="-0.275408">
        <ele>2110.028</ele>
        <time>2020-07-18T14:29:30Z</time>
      </trkpt>
      <trkpt lat="42.812750" lon="-0.275348">
        <ele>2109.220</ele>
        <time>2020-07-18T14:29:36Z</time>
      </trkpt>
      <trkpt lat="42.812779" lon="-0.275292">
        <ele>2109.908</ele>
        <time>2020-07-18T14:29:41Z</time>
      </trkpt>
      <trkpt lat="42.812800" lon="-0.275223">
        <ele>2110.652</ele>
        <time>2020-07-18T14:29:46Z</time>
      </trkpt>
      <trkpt lat="42.812805" lon="-0.275156">
        <ele>2109.510</ele>
        <time>2020-07-18T14:29:53Z</time>
      </trkpt>
      <trkpt lat="42.812850" lon="-0.275109">
        <ele>2108.593</ele>
        <time>2020-07-18T14:29:59Z</time>
      </trkpt>
      <trkpt lat="42.812901" lon="-0.275081">
        <ele>2109.499</ele>
        <time>2020-07-18T14:30:06Z</time>
      </trkpt>
      <trkpt lat="42.812947" lon="-0.275058">
        <ele>2110.566</ele>
        <time>2020-07-18T14:30:11Z</time>
      </trkpt>
      <trkpt lat="42.812999" lon="-0.275078">
        <ele>2108.625</ele>
        <time>2020-07-18T14:30:17Z</time>
      </trkpt>
      <trkpt lat="42.813043" lon="-0.275055">
        <ele>2109.882</ele>
        <time>2020-07-18T14:30:49Z</time>
      </trkpt>
      <trkpt lat="42.813092" lon="-0.275092">
        <ele>2112.464</ele>
        <time>2020-07-18T14:31:09Z</time>
      </trkpt>
      <trkpt lat="42.813131" lon="-0.275157">
        <ele>2113.377</ele>
        <time>2020-07-18T14:31:15Z</time>
      </trkpt>
      <trkpt lat="42.813174" lon="-0.275228">
        <ele>2119.661</ele>
        <time>2020-07-18T14:32:05Z</time>
      </trkpt>
      <trkpt lat="42.813215" lon="-0.275285">
        <ele>2120.327</ele>
        <time>2020-07-18T14:34:19Z</time>
      </trkpt>
      <trkpt lat="42.813262" lon="-0.275345">
        <ele>2119.508</ele>
        <time>2020-07-18T14:34:24Z</time>
      </trkpt>
      <trkpt lat="42.813288" lon="-0.275395">
        <ele>2122.112</ele>
        <time>2020-07-18T14:34:29Z</time>
      </trkpt>
      <trkpt lat="42.813287" lon="-0.275475">
        <ele>2121.360</ele>
        <time>2020-07-18T14:34:34Z</time>
      </trkpt>
      <trkpt lat="42.813298" lon="-0.275540">
        <ele>2123.573</ele>
        <time>2020-07-18T14:34:39Z</time>
      </trkpt>
      <trkpt lat="42.813327" lon="-0.275564">
        <ele>2123.719</ele>
        <time>2020-07-18T14:34:51Z</time>
      </trkpt>
      <trkpt lat="42.813365" lon="-0.275528">
        <ele>2124.216</ele>
        <time>2020-07-18T14:35:05Z</time>
      </trkpt>
      <trkpt lat="42.813394" lon="-0.275519">
        <ele>2122.885</ele>
        <time>2020-07-18T14:35:12Z</time>
      </trkpt>
      <trkpt lat="42.813408" lon="-0.275564">
        <ele>2122.712</ele>
        <time>2020-07-18T14:35:19Z</time>
      </trkpt>
      <trkpt lat="42.813411" lon="-0.275637">
        <ele>2123.914</ele>
        <time>2020-07-18T14:35:24Z</time>
      </trkpt>
      <trkpt lat="42.813411" lon="-0.275704">
        <ele>2123.667</ele>
        <time>2020-07-18T14:35:27Z</time>
      </trkpt>
      <trkpt lat="42.813407" lon="-0.275767">
        <ele>2123.781</ele>
        <time>2020-07-18T14:35:32Z</time>
      </trkpt>
      <trkpt lat="42.813413" lon="-0.275833">
        <ele>2121.419</ele>
        <time>2020-07-18T14:35:36Z</time>
      </trkpt>
      <trkpt lat="42.813429" lon="-0.275899">
        <ele>2123.608</ele>
        <time>2020-07-18T14:35:41Z</time>
      </trkpt>
      <trkpt lat="42.813459" lon="-0.275950">
        <ele>2125.231</ele>
        <time>2020-07-18T14:35:47Z</time>
      </trkpt>
      <trkpt lat="42.813511" lon="-0.275985">
        <ele>2125.219</ele>
        <time>2020-07-18T14:35:53Z</time>
      </trkpt>
      <trkpt lat="42.813561" lon="-0.276003">
        <ele>2125.042</ele>
        <time>2020-07-18T14:35:58Z</time>
      </trkpt>
      <trkpt lat="42.813613" lon="-0.276005">
        <ele>2125.468</ele>
        <time>2020-07-18T14:36:03Z</time>
      </trkpt>
      <trkpt lat="42.813668" lon="-0.275986">
        <ele>2124.545</ele>
        <time>2020-07-18T14:36:08Z</time>
      </trkpt>
      <trkpt lat="42.813714" lon="-0.275971">
        <ele>2127.424</ele>
        <time>2020-07-18T14:36:13Z</time>
      </trkpt>
      <trkpt lat="42.813760" lon="-0.275962">
        <ele>2127.111</ele>
        <time>2020-07-18T14:36:21Z</time>
      </trkpt>
      <trkpt lat="42.813806" lon="-0.275973">
        <ele>2129.623</ele>
        <time>2020-07-18T14:36:27Z</time>
      </trkpt>
      <trkpt lat="42.813854" lon="-0.275955">
        <ele>2128.425</ele>
        <time>2020-07-18T14:36:34Z</time>
      </trkpt>
      <trkpt lat="42.813905" lon="-0.275927">
        <ele>2131.326</ele>
        <time>2020-07-18T14:36:40Z</time>
      </trkpt>
      <trkpt lat="42.813960" lon="-0.275909">
        <ele>2133.208</ele>
        <time>2020-07-18T14:36:47Z</time>
      </trkpt>
      <trkpt lat="42.814001" lon="-0.275873">
        <ele>2132.908</ele>
        <time>2020-07-18T14:36:56Z</time>
      </trkpt>
      <trkpt lat="42.814032" lon="-0.275815">
        <ele>2133.237</ele>
        <time>2020-07-18T14:37:03Z</time>
      </trkpt>
      <trkpt lat="42.814062" lon="-0.275771">
        <ele>2130.665</ele>
        <time>2020-07-18T14:37:11Z</time>
      </trkpt>
      <trkpt lat="42.814111" lon="-0.275805">
        <ele>2132.198</ele>
        <time>2020-07-18T14:37:17Z</time>
      </trkpt>
      <trkpt lat="42.814130" lon="-0.275864">
        <ele>2134.674</ele>
        <time>2020-07-18T14:37:22Z</time>
      </trkpt>
      <trkpt lat="42.814165" lon="-0.275911">
        <ele>2133.051</ele>
        <time>2020-07-18T14:37:27Z</time>
      </trkpt>
      <trkpt lat="42.814210" lon="-0.275933">
        <ele>2137.960</ele>
        <time>2020-07-18T14:37:35Z</time>
      </trkpt>
      <trkpt lat="42.814230" lon="-0.275999">
        <ele>2139.187</ele>
        <time>2020-07-18T14:37:40Z</time>
      </trkpt>
      <trkpt lat="42.814250" lon="-0.276054">
        <ele>2139.139</ele>
        <time>2020-07-18T14:37:45Z</time>
      </trkpt>
      <trkpt lat="42.814261" lon="-0.276125">
        <ele>2141.037</ele>
        <time>2020-07-18T14:37:54Z</time>
      </trkpt>
      <trkpt lat="42.814254" lon="-0.276199">
        <ele>2139.849</ele>
        <time>2020-07-18T14:38:01Z</time>
      </trkpt>
      <trkpt lat="42.814264" lon="-0.276259">
        <ele>2140.113</ele>
        <time>2020-07-18T14:38:06Z</time>
      </trkpt>
      <trkpt lat="42.814300" lon="-0.276313">
        <ele>2140.308</ele>
        <time>2020-07-18T14:38:15Z</time>
      </trkpt>
      <trkpt lat="42.814326" lon="-0.276373">
        <ele>2140.258</ele>
        <time>2020-07-18T14:38:38Z</time>
      </trkpt>
      <trkpt lat="42.814370" lon="-0.276409">
        <ele>2139.346</ele>
        <time>2020-07-18T14:38:43Z</time>
      </trkpt>
      <trkpt lat="42.814422" lon="-0.276417">
        <ele>2138.529</ele>
        <time>2020-07-18T14:38:47Z</time>
      </trkpt>
      <trkpt lat="42.814465" lon="-0.276457">
        <ele>2142.275</ele>
        <time>2020-07-18T14:38:53Z</time>
      </trkpt>
      <trkpt lat="42.814489" lon="-0.276513">
        <ele>2142.612</ele>
        <time>2020-07-18T14:38:57Z</time>
      </trkpt>
      <trkpt lat="42.814539" lon="-0.276516">
        <ele>2143.821</ele>
        <time>2020-07-18T14:39:03Z</time>
      </trkpt>
      <trkpt lat="42.814570" lon="-0.276460">
        <ele>2143.788</ele>
        <time>2020-07-18T14:39:11Z</time>
      </trkpt>
      <trkpt lat="42.814600" lon="-0.276402">
        <ele>2145.180</ele>
        <time>2020-07-18T14:39:44Z</time>
      </trkpt>
      <trkpt lat="42.814632" lon="-0.276460">
        <ele>2144.184</ele>
        <time>2020-07-18T14:41:53Z</time>
      </trkpt>
      <trkpt lat="42.814622" lon="-0.276548">
        <ele>2144.207</ele>
        <time>2020-07-18T14:42:05Z</time>
      </trkpt>
      <trkpt lat="42.814598" lon="-0.276601">
        <ele>2143.517</ele>
        <time>2020-07-18T14:42:09Z</time>
      </trkpt>
      <trkpt lat="42.814567" lon="-0.276664">
        <ele>2145.708</ele>
        <time>2020-07-18T14:42:14Z</time>
      </trkpt>
      <trkpt lat="42.814551" lon="-0.276692">
        <ele>2146.743</ele>
        <time>2020-07-18T14:42:21Z</time>
      </trkpt>
      <trkpt lat="42.814536" lon="-0.276743">
        <ele>2144.641</ele>
        <time>2020-07-18T14:43:02Z</time>
      </trkpt>
      <trkpt lat="42.814510" lon="-0.276812">
        <ele>2145.934</ele>
        <time>2020-07-18T14:43:10Z</time>
      </trkpt>
      <trkpt lat="42.814482" lon="-0.276866">
        <ele>2145.590</ele>
        <time>2020-07-18T14:43:14Z</time>
      </trkpt>
      <trkpt lat="42.814455" lon="-0.276926">
        <ele>2146.067</ele>
        <time>2020-07-18T14:43:17Z</time>
      </trkpt>
      <trkpt lat="42.814428" lon="-0.276985">
        <ele>2145.516</ele>
        <time>2020-07-18T14:43:22Z</time>
      </trkpt>
      <trkpt lat="42.814405" lon="-0.277054">
        <ele>2145.533</ele>
        <time>2020-07-18T14:43:29Z</time>
      </trkpt>
      <trkpt lat="42.814387" lon="-0.277127">
        <ele>2145.655</ele>
        <time>2020-07-18T14:43:34Z</time>
      </trkpt>
      <trkpt lat="42.814364" lon="-0.277187">
        <ele>2146.864</ele>
        <time>2020-07-18T14:43:42Z</time>
      </trkpt>
      <trkpt lat="42.814336" lon="-0.277253">
        <ele>2144.506</ele>
        <time>2020-07-18T14:43:48Z</time>
      </trkpt>
      <trkpt lat="42.814313" lon="-0.277312">
        <ele>2148.216</ele>
        <time>2020-07-18T14:43:55Z</time>
      </trkpt>
      <trkpt lat="42.814279" lon="-0.277363">
        <ele>2148.708</ele>
        <time>2020-07-18T14:44:02Z</time>
      </trkpt>
      <trkpt lat="42.814249" lon="-0.277427">
        <ele>2151.051</ele>
        <time>2020-07-18T14:44:12Z</time>
      </trkpt>
      <trkpt lat="42.814218" lon="-0.277483">
        <ele>2150.359</ele>
        <time>2020-07-18T14:44:23Z</time>
      </trkpt>
      <trkpt lat="42.814185" lon="-0.277535">
        <ele>2155.722</ele>
        <time>2020-07-18T14:44:33Z</time>
      </trkpt>
      <trkpt lat="42.814165" lon="-0.277592">
        <ele>2157.498</ele>
        <time>2020-07-18T14:44:40Z</time>
      </trkpt>
      <trkpt lat="42.814153" lon="-0.277669">
        <ele>2156.625</ele>
        <time>2020-07-18T14:44:48Z</time>
      </trkpt>
      <trkpt lat="42.814137" lon="-0.277741">
        <ele>2157.494</ele>
        <time>2020-07-18T14:44:54Z</time>
      </trkpt>
      <trkpt lat="42.814112" lon="-0.277809">
        <ele>2158.651</ele>
        <time>2020-07-18T14:45:01Z</time>
      </trkpt>
      <trkpt lat="42.814092" lon="-0.277871">
        <ele>2158.443</ele>
        <time>2020-07-18T14:45:10Z</time>
      </trkpt>
      <trkpt lat="42.814058" lon="-0.277912">
        <ele>2157.246</ele>
        <time>2020-07-18T14:45:18Z</time>
      </trkpt>
      <trkpt lat="42.814040" lon="-0.277974">
        <ele>2160.888</ele>
        <time>2020-07-18T14:45:29Z</time>
      </trkpt>
      <trkpt lat="42.814049" lon="-0.278040">
        <ele>2161.416</ele>
        <time>2020-07-18T14:45:35Z</time>
      </trkpt>
      <trkpt lat="42.814085" lon="-0.278092">
        <ele>2160.208</ele>
        <time>2020-07-18T14:48:31Z</time>
      </trkpt>
      <trkpt lat="42.814119" lon="-0.278134">
        <ele>2159.589</ele>
        <time>2020-07-18T14:48:37Z</time>
      </trkpt>
      <trkpt lat="42.814146" lon="-0.278184">
        <ele>2158.797</ele>
        <time>2020-07-18T14:48:43Z</time>
      </trkpt>
      <trkpt lat="42.814179" lon="-0.278235">
        <ele>2157.390</ele>
        <time>2020-07-18T14:48:56Z</time>
      </trkpt>
      <trkpt lat="42.814231" lon="-0.278232">
        <ele>2156.466</ele>
        <time>2020-07-18T14:49:01Z</time>
      </trkpt>
      <trkpt lat="42.814276" lon="-0.278224">
        <ele>2156.043</ele>
        <time>2020-07-18T14:49:05Z</time>
      </trkpt>
      <trkpt lat="42.814322" lon="-0.278212">
        <ele>2156.482</ele>
        <time>2020-07-18T14:49:28Z</time>
      </trkpt>
      <trkpt lat="42.814357" lon="-0.278159">
        <ele>2154.979</ele>
        <time>2020-07-18T14:50:06Z</time>
      </trkpt>
      <trkpt lat="42.814412" lon="-0.278156">
        <ele>2155.491</ele>
        <time>2020-07-18T14:50:14Z</time>
      </trkpt>
      <trkpt lat="42.814458" lon="-0.278183">
        <ele>2155.217</ele>
        <time>2020-07-18T14:50:18Z</time>
      </trkpt>
      <trkpt lat="42.814503" lon="-0.278218">
        <ele>2155.187</ele>
        <time>2020-07-18T14:50:22Z</time>
      </trkpt>
      <trkpt lat="42.814552" lon="-0.278270">
        <ele>2154.915</ele>
        <time>2020-07-18T14:50:27Z</time>
      </trkpt>
      <trkpt lat="42.814587" lon="-0.278310">
        <ele>2154.208</ele>
        <time>2020-07-18T14:50:30Z</time>
      </trkpt>
      <trkpt lat="42.814617" lon="-0.278360">
        <ele>2153.846</ele>
        <time>2020-07-18T14:50:35Z</time>
      </trkpt>
      <trkpt lat="42.814635" lon="-0.278447">
        <ele>2153.394</ele>
        <time>2020-07-18T14:50:40Z</time>
      </trkpt>
      <trkpt lat="42.814647" lon="-0.278514">
        <ele>2153.797</ele>
        <time>2020-07-18T14:50:44Z</time>
      </trkpt>
      <trkpt lat="42.814650" lon="-0.278579">
        <ele>2153.993</ele>
        <time>2020-07-18T14:50:50Z</time>
      </trkpt>
      <trkpt lat="42.814631" lon="-0.278634">
        <ele>2154.090</ele>
        <time>2020-07-18T14:51:13Z</time>
      </trkpt>
      <trkpt lat="42.814633" lon="-0.278683">
        <ele>2153.629</ele>
        <time>2020-07-18T14:51:42Z</time>
      </trkpt>
      <trkpt lat="42.814649" lon="-0.278746">
        <ele>2153.726</ele>
        <time>2020-07-18T14:51:47Z</time>
      </trkpt>
      <trkpt lat="42.814651" lon="-0.278819">
        <ele>2154.488</ele>
        <time>2020-07-18T14:51:51Z</time>
      </trkpt>
      <trkpt lat="42.814630" lon="-0.278894">
        <ele>2154.229</ele>
        <time>2020-07-18T14:51:55Z</time>
      </trkpt>
      <trkpt lat="42.814600" lon="-0.278943">
        <ele>2155.000</ele>
        <time>2020-07-18T14:52:05Z</time>
      </trkpt>
      <trkpt lat="42.814583" lon="-0.279007">
        <ele>2154.220</ele>
        <time>2020-07-18T14:52:19Z</time>
      </trkpt>
      <trkpt lat="42.814541" lon="-0.279056">
        <ele>2153.208</ele>
        <time>2020-07-18T14:52:28Z</time>
      </trkpt>
      <trkpt lat="42.814496" lon="-0.279102">
        <ele>2151.647</ele>
        <time>2020-07-18T14:52:34Z</time>
      </trkpt>
      <trkpt lat="42.814447" lon="-0.279127">
        <ele>2151.195</ele>
        <time>2020-07-18T14:52:38Z</time>
      </trkpt>
      <trkpt lat="42.814389" lon="-0.279132">
        <ele>2150.248</ele>
        <time>2020-07-18T14:52:43Z</time>
      </trkpt>
      <trkpt lat="42.814338" lon="-0.279139">
        <ele>2149.664</ele>
        <time>2020-07-18T14:52:48Z</time>
      </trkpt>
      <trkpt lat="42.814290" lon="-0.279156">
        <ele>2149.971</ele>
        <time>2020-07-18T14:52:53Z</time>
      </trkpt>
      <trkpt lat="42.814240" lon="-0.279150">
        <ele>2147.740</ele>
        <time>2020-07-18T14:53:02Z</time>
      </trkpt>
      <trkpt lat="42.814198" lon="-0.279187">
        <ele>2147.147</ele>
        <time>2020-07-18T14:53:11Z</time>
      </trkpt>
      <trkpt lat="42.814164" lon="-0.279231">
        <ele>2147.329</ele>
        <time>2020-07-18T14:53:17Z</time>
      </trkpt>
      <trkpt lat="42.814162" lon="-0.279305">
        <ele>2145.772</ele>
        <time>2020-07-18T14:53:23Z</time>
      </trkpt>
      <trkpt lat="42.814175" lon="-0.279375">
        <ele>2145.313</ele>
        <time>2020-07-18T14:53:29Z</time>
      </trkpt>
      <trkpt lat="42.814198" lon="-0.279437">
        <ele>2144.414</ele>
        <time>2020-07-18T14:53:36Z</time>
      </trkpt>
      <trkpt lat="42.814240" lon="-0.279506">
        <ele>2140.708</ele>
        <time>2020-07-18T14:54:12Z</time>
      </trkpt>
      <trkpt lat="42.814293" lon="-0.279535">
        <ele>2139.592</ele>
        <time>2020-07-18T14:54:18Z</time>
      </trkpt>
      <trkpt lat="42.814344" lon="-0.279554">
        <ele>2139.740</ele>
        <time>2020-07-18T14:54:24Z</time>
      </trkpt>
      <trkpt lat="42.814392" lon="-0.279564">
        <ele>2139.043</ele>
        <time>2020-07-18T14:54:29Z</time>
      </trkpt>
      <trkpt lat="42.814437" lon="-0.279551">
        <ele>2138.429</ele>
        <time>2020-07-18T14:54:33Z</time>
      </trkpt>
      <trkpt lat="42.814482" lon="-0.279549">
        <ele>2137.896</ele>
        <time>2020-07-18T14:54:38Z</time>
      </trkpt>
      <trkpt lat="42.814533" lon="-0.279562">
        <ele>2137.035</ele>
        <time>2020-07-18T14:54:44Z</time>
      </trkpt>
      <trkpt lat="42.814587" lon="-0.279562">
        <ele>2136.662</ele>
        <time>2020-07-18T14:54:49Z</time>
      </trkpt>
      <trkpt lat="42.814638" lon="-0.279595">
        <ele>2135.984</ele>
        <time>2020-07-18T14:54:55Z</time>
      </trkpt>
      <trkpt lat="42.814671" lon="-0.279643">
        <ele>2135.018</ele>
        <time>2020-07-18T14:54:59Z</time>
      </trkpt>
      <trkpt lat="42.814710" lon="-0.279673">
        <ele>2134.998</ele>
        <time>2020-07-18T14:55:04Z</time>
      </trkpt>
      <trkpt lat="42.814753" lon="-0.279712">
        <ele>2134.317</ele>
        <time>2020-07-18T14:55:11Z</time>
      </trkpt>
      <trkpt lat="42.814788" lon="-0.279751">
        <ele>2133.608</ele>
        <time>2020-07-18T14:55:16Z</time>
      </trkpt>
      <trkpt lat="42.814830" lon="-0.279783">
        <ele>2133.216</ele>
        <time>2020-07-18T14:55:23Z</time>
      </trkpt>
      <trkpt lat="42.814865" lon="-0.279822">
        <ele>2132.684</ele>
        <time>2020-07-18T14:55:29Z</time>
      </trkpt>
      <trkpt lat="42.814901" lon="-0.279860">
        <ele>2131.957</ele>
        <time>2020-07-18T14:55:34Z</time>
      </trkpt>
      <trkpt lat="42.814934" lon="-0.279911">
        <ele>2131.213</ele>
        <time>2020-07-18T14:55:39Z</time>
      </trkpt>
      <trkpt lat="42.814925" lon="-0.279972">
        <ele>2132.410</ele>
        <time>2020-07-18T14:55:45Z</time>
      </trkpt>
      <trkpt lat="42.814896" lon="-0.280035">
        <ele>2132.179</ele>
        <time>2020-07-18T14:55:50Z</time>
      </trkpt>
      <trkpt lat="42.814885" lon="-0.280097">
        <ele>2132.246</ele>
        <time>2020-07-18T14:55:56Z</time>
      </trkpt>
      <trkpt lat="42.814877" lon="-0.280170">
        <ele>2131.988</ele>
        <time>2020-07-18T14:56:02Z</time>
      </trkpt>
      <trkpt lat="42.814873" lon="-0.280236">
        <ele>2131.488</ele>
        <time>2020-07-18T14:56:07Z</time>
      </trkpt>
      <trkpt lat="42.814864" lon="-0.280305">
        <ele>2130.924</ele>
        <time>2020-07-18T14:56:13Z</time>
      </trkpt>
      <trkpt lat="42.814864" lon="-0.280371">
        <ele>2130.026</ele>
        <time>2020-07-18T14:56:19Z</time>
      </trkpt>
      <trkpt lat="42.814874" lon="-0.280442">
        <ele>2129.608</ele>
        <time>2020-07-18T14:56:25Z</time>
      </trkpt>
      <trkpt lat="42.814874" lon="-0.280511">
        <ele>2129.783</ele>
        <time>2020-07-18T14:56:32Z</time>
      </trkpt>
      <trkpt lat="42.814886" lon="-0.280576">
        <ele>2129.651</ele>
        <time>2020-07-18T14:56:38Z</time>
      </trkpt>
      <trkpt lat="42.814897" lon="-0.280649">
        <ele>2129.484</ele>
        <time>2020-07-18T14:56:45Z</time>
      </trkpt>
      <trkpt lat="42.814909" lon="-0.280709">
        <ele>2128.860</ele>
        <time>2020-07-18T14:56:49Z</time>
      </trkpt>
      <trkpt lat="42.814928" lon="-0.280784">
        <ele>2127.977</ele>
        <time>2020-07-18T14:56:55Z</time>
      </trkpt>
      <trkpt lat="42.814944" lon="-0.280849">
        <ele>2128.556</ele>
        <time>2020-07-18T14:57:01Z</time>
      </trkpt>
      <trkpt lat="42.814936" lon="-0.280919">
        <ele>2127.553</ele>
        <time>2020-07-18T14:57:17Z</time>
      </trkpt>
      <trkpt lat="42.814915" lon="-0.280983">
        <ele>2126.375</ele>
        <time>2020-07-18T14:57:25Z</time>
      </trkpt>
      <trkpt lat="42.814899" lon="-0.281054">
        <ele>2128.243</ele>
        <time>2020-07-18T14:57:31Z</time>
      </trkpt>
      <trkpt lat="42.814904" lon="-0.281120">
        <ele>2129.064</ele>
        <time>2020-07-18T14:58:09Z</time>
      </trkpt>
      <trkpt lat="42.814923" lon="-0.281176">
        <ele>2129.610</ele>
        <time>2020-07-18T14:58:16Z</time>
      </trkpt>
      <trkpt lat="42.814954" lon="-0.281225">
        <ele>2126.808</ele>
        <time>2020-07-18T14:58:21Z</time>
      </trkpt>
      <trkpt lat="42.814989" lon="-0.281289">
        <ele>2130.999</ele>
        <time>2020-07-18T14:58:28Z</time>
      </trkpt>
      <trkpt lat="42.815018" lon="-0.281353">
        <ele>2132.727</ele>
        <time>2020-07-18T14:58:34Z</time>
      </trkpt>
      <trkpt lat="42.815039" lon="-0.281419">
        <ele>2133.070</ele>
        <time>2020-07-18T14:58:39Z</time>
      </trkpt>
      <trkpt lat="42.815066" lon="-0.281474">
        <ele>2132.026</ele>
        <time>2020-07-18T14:58:45Z</time>
      </trkpt>
      <trkpt lat="42.815088" lon="-0.281536">
        <ele>2134.613</ele>
        <time>2020-07-18T14:58:51Z</time>
      </trkpt>
      <trkpt lat="42.815105" lon="-0.281600">
        <ele>2136.942</ele>
        <time>2020-07-18T14:58:57Z</time>
      </trkpt>
      <trkpt lat="42.815131" lon="-0.281652">
        <ele>2135.449</ele>
        <time>2020-07-18T14:59:04Z</time>
      </trkpt>
      <trkpt lat="42.815133" lon="-0.281717">
        <ele>2139.241</ele>
        <time>2020-07-18T14:59:11Z</time>
      </trkpt>
      <trkpt lat="42.815136" lon="-0.281783">
        <ele>2139.545</ele>
        <time>2020-07-18T14:59:19Z</time>
      </trkpt>
      <trkpt lat="42.815151" lon="-0.281839">
        <ele>2141.147</ele>
        <time>2020-07-18T15:00:45Z</time>
      </trkpt>
      <trkpt lat="42.815178" lon="-0.281917">
        <ele>2142.411</ele>
        <time>2020-07-18T15:00:51Z</time>
      </trkpt>
      <trkpt lat="42.815208" lon="-0.281980">
        <ele>2142.808</ele>
        <time>2020-07-18T15:00:57Z</time>
      </trkpt>
      <trkpt lat="42.815248" lon="-0.282028">
        <ele>2144.829</ele>
        <time>2020-07-18T15:01:04Z</time>
      </trkpt>
      <trkpt lat="42.815277" lon="-0.282083">
        <ele>2144.097</ele>
        <time>2020-07-18T15:01:14Z</time>
      </trkpt>
      <trkpt lat="42.815281" lon="-0.282146">
        <ele>2147.220</ele>
        <time>2020-07-18T15:01:25Z</time>
      </trkpt>
      <trkpt lat="42.815255" lon="-0.282194">
        <ele>2149.466</ele>
        <time>2020-07-18T15:02:08Z</time>
      </trkpt>
      <trkpt lat="42.815262" lon="-0.282255">
        <ele>2150.963</ele>
        <time>2020-07-18T15:02:15Z</time>
      </trkpt>
      <trkpt lat="42.815279" lon="-0.282325">
        <ele>2149.472</ele>
        <time>2020-07-18T15:02:21Z</time>
      </trkpt>
      <trkpt lat="42.815278" lon="-0.282391">
        <ele>2150.469</ele>
        <time>2020-07-18T15:02:26Z</time>
      </trkpt>
      <trkpt lat="42.815285" lon="-0.282458">
        <ele>2151.051</ele>
        <time>2020-07-18T15:02:31Z</time>
      </trkpt>
      <trkpt lat="42.815288" lon="-0.282533">
        <ele>2150.529</ele>
        <time>2020-07-18T15:02:37Z</time>
      </trkpt>
      <trkpt lat="42.815286" lon="-0.282595">
        <ele>2151.000</ele>
        <time>2020-07-18T15:02:42Z</time>
      </trkpt>
      <trkpt lat="42.815297" lon="-0.282656">
        <ele>2150.620</ele>
        <time>2020-07-18T15:02:47Z</time>
      </trkpt>
      <trkpt lat="42.815296" lon="-0.282719">
        <ele>2150.308</ele>
        <time>2020-07-18T15:02:53Z</time>
      </trkpt>
      <trkpt lat="42.815293" lon="-0.282791">
        <ele>2150.357</ele>
        <time>2020-07-18T15:03:00Z</time>
      </trkpt>
      <trkpt lat="42.815308" lon="-0.282857">
        <ele>2150.875</ele>
        <time>2020-07-18T15:03:06Z</time>
      </trkpt>
      <trkpt lat="42.815367" lon="-0.282896">
        <ele>2149.418</ele>
        <time>2020-07-18T15:03:13Z</time>
      </trkpt>
      <trkpt lat="42.815435" lon="-0.282891">
        <ele>2148.994</ele>
        <time>2020-07-18T15:03:17Z</time>
      </trkpt>
      <trkpt lat="42.815492" lon="-0.282888">
        <ele>2149.951</ele>
        <time>2020-07-18T15:03:21Z</time>
      </trkpt>
      <trkpt lat="42.815541" lon="-0.282886">
        <ele>2150.340</ele>
        <time>2020-07-18T15:03:26Z</time>
      </trkpt>
      <trkpt lat="42.815589" lon="-0.282875">
        <ele>2150.987</ele>
        <time>2020-07-18T15:03:31Z</time>
      </trkpt>
      <trkpt lat="42.815634" lon="-0.282847">
        <ele>2150.439</ele>
        <time>2020-07-18T15:03:36Z</time>
      </trkpt>
      <trkpt lat="42.815681" lon="-0.282814">
        <ele>2149.323</ele>
        <time>2020-07-18T15:03:40Z</time>
      </trkpt>
      <trkpt lat="42.815729" lon="-0.282805">
        <ele>2149.283</ele>
        <time>2020-07-18T15:03:46Z</time>
      </trkpt>
      <trkpt lat="42.815767" lon="-0.282841">
        <ele>2149.911</ele>
        <time>2020-07-18T15:03:51Z</time>
      </trkpt>
      <trkpt lat="42.815813" lon="-0.282881">
        <ele>2149.608</ele>
        <time>2020-07-18T15:03:55Z</time>
      </trkpt>
      <trkpt lat="42.815853" lon="-0.282927">
        <ele>2150.237</ele>
        <time>2020-07-18T15:04:01Z</time>
      </trkpt>
      <trkpt lat="42.815889" lon="-0.282980">
        <ele>2150.175</ele>
        <time>2020-07-18T15:04:06Z</time>
      </trkpt>
      <trkpt lat="42.815915" lon="-0.283035">
        <ele>2149.878</ele>
        <time>2020-07-18T15:04:12Z</time>
      </trkpt>
      <trkpt lat="42.815924" lon="-0.283107">
        <ele>2149.954</ele>
        <time>2020-07-18T15:04:18Z</time>
      </trkpt>
      <trkpt lat="42.815918" lon="-0.283183">
        <ele>2148.281</ele>
        <time>2020-07-18T15:04:22Z</time>
      </trkpt>
      <trkpt lat="42.815913" lon="-0.283263">
        <ele>2149.470</ele>
        <time>2020-07-18T15:04:27Z</time>
      </trkpt>
      <trkpt lat="42.815908" lon="-0.283327">
        <ele>2148.997</ele>
        <time>2020-07-18T15:04:32Z</time>
      </trkpt>
      <trkpt lat="42.815906" lon="-0.283394">
        <ele>2149.689</ele>
        <time>2020-07-18T15:04:37Z</time>
      </trkpt>
      <trkpt lat="42.815907" lon="-0.283468">
        <ele>2150.121</ele>
        <time>2020-07-18T15:04:48Z</time>
      </trkpt>
      <trkpt lat="42.815909" lon="-0.283544">
        <ele>2150.041</ele>
        <time>2020-07-18T15:04:52Z</time>
      </trkpt>
      <trkpt lat="42.815918" lon="-0.283621">
        <ele>2150.305</ele>
        <time>2020-07-18T15:04:57Z</time>
      </trkpt>
      <trkpt lat="42.815957" lon="-0.283663">
        <ele>2150.108</ele>
        <time>2020-07-18T15:05:03Z</time>
      </trkpt>
      <trkpt lat="42.816011" lon="-0.283671">
        <ele>2151.257</ele>
        <time>2020-07-18T15:05:10Z</time>
      </trkpt>
      <trkpt lat="42.816046" lon="-0.283713">
        <ele>2151.875</ele>
        <time>2020-07-18T15:05:15Z</time>
      </trkpt>
      <trkpt lat="42.816047" lon="-0.283786">
        <ele>2151.748</ele>
        <time>2020-07-18T15:05:22Z</time>
      </trkpt>
      <trkpt lat="42.816052" lon="-0.283862">
        <ele>2152.794</ele>
        <time>2020-07-18T15:05:28Z</time>
      </trkpt>
      <trkpt lat="42.816064" lon="-0.283922">
        <ele>2152.611</ele>
        <time>2020-07-18T15:05:37Z</time>
      </trkpt>
      <trkpt lat="42.816094" lon="-0.283981">
        <ele>2153.110</ele>
        <time>2020-07-18T15:05:44Z</time>
      </trkpt>
      <trkpt lat="42.816117" lon="-0.284038">
        <ele>2154.097</ele>
        <time>2020-07-18T15:05:49Z</time>
      </trkpt>
      <trkpt lat="42.816125" lon="-0.284107">
        <ele>2154.179</ele>
        <time>2020-07-18T15:05:55Z</time>
      </trkpt>
      <trkpt lat="42.816115" lon="-0.284173">
        <ele>2155.927</ele>
        <time>2020-07-18T15:06:01Z</time>
      </trkpt>
      <trkpt lat="42.816128" lon="-0.284239">
        <ele>2155.568</ele>
        <time>2020-07-18T15:06:13Z</time>
      </trkpt>
      <trkpt lat="42.816144" lon="-0.284303">
        <ele>2154.214</ele>
        <time>2020-07-18T15:06:18Z</time>
      </trkpt>
      <trkpt lat="42.816163" lon="-0.284374">
        <ele>2154.108</ele>
        <time>2020-07-18T15:06:23Z</time>
      </trkpt>
      <trkpt lat="42.816182" lon="-0.284435">
        <ele>2154.427</ele>
        <time>2020-07-18T15:06:29Z</time>
      </trkpt>
      <trkpt lat="42.816187" lon="-0.284507">
        <ele>2153.935</ele>
        <time>2020-07-18T15:06:36Z</time>
      </trkpt>
      <trkpt lat="42.816196" lon="-0.284574">
        <ele>2153.048</ele>
        <time>2020-07-18T15:06:41Z</time>
      </trkpt>
      <trkpt lat="42.816193" lon="-0.284645">
        <ele>2152.794</ele>
        <time>2020-07-18T15:06:46Z</time>
      </trkpt>
      <trkpt lat="42.816201" lon="-0.284730">
        <ele>2152.031</ele>
        <time>2020-07-18T15:06:53Z</time>
      </trkpt>
      <trkpt lat="42.816203" lon="-0.284794">
        <ele>2152.660</ele>
        <time>2020-07-18T15:06:58Z</time>
      </trkpt>
      <trkpt lat="42.816207" lon="-0.284866">
        <ele>2153.137</ele>
        <time>2020-07-18T15:07:03Z</time>
      </trkpt>
      <trkpt lat="42.816214" lon="-0.284944">
        <ele>2152.769</ele>
        <time>2020-07-18T15:07:10Z</time>
      </trkpt>
      <trkpt lat="42.816232" lon="-0.285008">
        <ele>2154.618</ele>
        <time>2020-07-18T15:07:17Z</time>
      </trkpt>
      <trkpt lat="42.816262" lon="-0.285075">
        <ele>2155.198</ele>
        <time>2020-07-18T15:07:25Z</time>
      </trkpt>
      <trkpt lat="42.816286" lon="-0.285130">
        <ele>2154.917</ele>
        <time>2020-07-18T15:07:29Z</time>
      </trkpt>
      <trkpt lat="42.816307" lon="-0.285190">
        <ele>2153.908</ele>
        <time>2020-07-18T15:07:34Z</time>
      </trkpt>
      <trkpt lat="42.816320" lon="-0.285265">
        <ele>2153.926</ele>
        <time>2020-07-18T15:07:40Z</time>
      </trkpt>
      <trkpt lat="42.816325" lon="-0.285333">
        <ele>2153.034</ele>
        <time>2020-07-18T15:07:45Z</time>
      </trkpt>
      <trkpt lat="42.816341" lon="-0.285401">
        <ele>2152.027</ele>
        <time>2020-07-18T15:07:50Z</time>
      </trkpt>
      <trkpt lat="42.816366" lon="-0.285469">
        <ele>2154.543</ele>
        <time>2020-07-18T15:07:57Z</time>
      </trkpt>
      <trkpt lat="42.816416" lon="-0.285491">
        <ele>2153.380</ele>
        <time>2020-07-18T15:08:03Z</time>
      </trkpt>
      <trkpt lat="42.816457" lon="-0.285531">
        <ele>2152.979</ele>
        <time>2020-07-18T15:08:09Z</time>
      </trkpt>
      <trkpt lat="42.816488" lon="-0.285600">
        <ele>2155.096</ele>
        <time>2020-07-18T15:08:15Z</time>
      </trkpt>
      <trkpt lat="42.816508" lon="-0.285658">
        <ele>2154.548</ele>
        <time>2020-07-18T15:08:20Z</time>
      </trkpt>
      <trkpt lat="42.816528" lon="-0.285730">
        <ele>2154.858</ele>
        <time>2020-07-18T15:08:26Z</time>
      </trkpt>
      <trkpt lat="42.816542" lon="-0.285794">
        <ele>2155.552</ele>
        <time>2020-07-18T15:08:31Z</time>
      </trkpt>
      <trkpt lat="42.816582" lon="-0.285832">
        <ele>2156.517</ele>
        <time>2020-07-18T15:08:41Z</time>
      </trkpt>
      <trkpt lat="42.816632" lon="-0.285807">
        <ele>2158.108</ele>
        <time>2020-07-18T15:08:49Z</time>
      </trkpt>
      <trkpt lat="42.816668" lon="-0.285747">
        <ele>2157.310</ele>
        <time>2020-07-18T15:08:54Z</time>
      </trkpt>
      <trkpt lat="42.816702" lon="-0.285723">
        <ele>2158.488</ele>
        <time>2020-07-18T15:09:00Z</time>
      </trkpt>
      <trkpt lat="42.816734" lon="-0.285680">
        <ele>2158.281</ele>
        <time>2020-07-18T15:09:45Z</time>
      </trkpt>
      <trkpt lat="42.816752" lon="-0.285727">
        <ele>2155.687</ele>
        <time>2020-07-18T15:10:12Z</time>
      </trkpt>
      <trkpt lat="42.816744" lon="-0.285794">
        <ele>2153.834</ele>
        <time>2020-07-18T15:10:20Z</time>
      </trkpt>
      <trkpt lat="42.816758" lon="-0.285860">
        <ele>2152.583</ele>
        <time>2020-07-18T15:10:28Z</time>
      </trkpt>
      <trkpt lat="42.816777" lon="-0.285918">
        <ele>2151.180</ele>
        <time>2020-07-18T15:10:36Z</time>
      </trkpt>
      <trkpt lat="42.816760" lon="-0.285975">
        <ele>2149.142</ele>
        <time>2020-07-18T15:10:48Z</time>
      </trkpt>
      <trkpt lat="42.816713" lon="-0.285975">
        <ele>2146.986</ele>
        <time>2020-07-18T15:11:03Z</time>
      </trkpt>
      <trkpt lat="42.816676" lon="-0.286019">
        <ele>2144.460</ele>
        <time>2020-07-18T15:11:15Z</time>
      </trkpt>
      <trkpt lat="42.816645" lon="-0.286068">
        <ele>2143.826</ele>
        <time>2020-07-18T15:11:23Z</time>
      </trkpt>
      <trkpt lat="42.816624" lon="-0.286127">
        <ele>2142.408</ele>
        <time>2020-07-18T15:11:29Z</time>
      </trkpt>
      <trkpt lat="42.816589" lon="-0.286168">
        <ele>2141.323</ele>
        <time>2020-07-18T15:11:36Z</time>
      </trkpt>
      <trkpt lat="42.816564" lon="-0.286227">
        <ele>2139.651</ele>
        <time>2020-07-18T15:11:44Z</time>
      </trkpt>
      <trkpt lat="42.816567" lon="-0.286290">
        <ele>2136.224</ele>
        <time>2020-07-18T15:11:57Z</time>
      </trkpt>
      <trkpt lat="42.816591" lon="-0.286342">
        <ele>2135.170</ele>
        <time>2020-07-18T15:12:07Z</time>
      </trkpt>
      <trkpt lat="42.816583" lon="-0.286403">
        <ele>2134.087</ele>
        <time>2020-07-18T15:12:17Z</time>
      </trkpt>
      <trkpt lat="42.816572" lon="-0.286465">
        <ele>2133.296</ele>
        <time>2020-07-18T15:12:22Z</time>
      </trkpt>
      <trkpt lat="42.816585" lon="-0.286529">
        <ele>2132.833</ele>
        <time>2020-07-18T15:12:29Z</time>
      </trkpt>
      <trkpt lat="42.816598" lon="-0.286589">
        <ele>2131.335</ele>
        <time>2020-07-18T15:12:36Z</time>
      </trkpt>
      <trkpt lat="42.816616" lon="-0.286650">
        <ele>2126.195</ele>
        <time>2020-07-18T15:13:11Z</time>
      </trkpt>
      <trkpt lat="42.816603" lon="-0.286710">
        <ele>2126.949</ele>
        <time>2020-07-18T15:13:16Z</time>
      </trkpt>
      <trkpt lat="42.816604" lon="-0.286788">
        <ele>2125.623</ele>
        <time>2020-07-18T15:13:22Z</time>
      </trkpt>
      <trkpt lat="42.816593" lon="-0.286857">
        <ele>2124.608</ele>
        <time>2020-07-18T15:13:28Z</time>
      </trkpt>
      <trkpt lat="42.816599" lon="-0.286926">
        <ele>2123.754</ele>
        <time>2020-07-18T15:13:33Z</time>
      </trkpt>
      <trkpt lat="42.816592" lon="-0.286988">
        <ele>2122.152</ele>
        <time>2020-07-18T15:13:42Z</time>
      </trkpt>
      <trkpt lat="42.816624" lon="-0.287040">
        <ele>2121.875</ele>
        <time>2020-07-18T15:13:50Z</time>
      </trkpt>
      <trkpt lat="42.816660" lon="-0.287084">
        <ele>2120.091</ele>
        <time>2020-07-18T15:14:01Z</time>
      </trkpt>
      <trkpt lat="42.816705" lon="-0.287102">
        <ele>2120.488</ele>
        <time>2020-07-18T15:14:06Z</time>
      </trkpt>
      <trkpt lat="42.816753" lon="-0.287087">
        <ele>2122.017</ele>
        <time>2020-07-18T15:14:12Z</time>
      </trkpt>
      <trkpt lat="42.816792" lon="-0.287138">
        <ele>2124.374</ele>
        <time>2020-07-18T15:14:23Z</time>
      </trkpt>
      <trkpt lat="42.816819" lon="-0.287201">
        <ele>2121.926</ele>
        <time>2020-07-18T15:14:30Z</time>
      </trkpt>
      <trkpt lat="42.816822" lon="-0.287270">
        <ele>2123.634</ele>
        <time>2020-07-18T15:14:35Z</time>
      </trkpt>
      <trkpt lat="42.816832" lon="-0.287345">
        <ele>2123.355</ele>
        <time>2020-07-18T15:14:41Z</time>
      </trkpt>
      <trkpt lat="42.816844" lon="-0.287405">
        <ele>2122.310</ele>
        <time>2020-07-18T15:14:46Z</time>
      </trkpt>
      <trkpt lat="42.816848" lon="-0.287472">
        <ele>2122.808</ele>
        <time>2020-07-18T15:14:50Z</time>
      </trkpt>
      <trkpt lat="42.816865" lon="-0.287533">
        <ele>2122.978</ele>
        <time>2020-07-18T15:14:55Z</time>
      </trkpt>
      <trkpt lat="42.816876" lon="-0.287594">
        <ele>2123.066</ele>
        <time>2020-07-18T15:15:01Z</time>
      </trkpt>
      <trkpt lat="42.816896" lon="-0.287654">
        <ele>2122.489</ele>
        <time>2020-07-18T15:15:05Z</time>
      </trkpt>
      <trkpt lat="42.816916" lon="-0.287705">
        <ele>2123.955</ele>
        <time>2020-07-18T15:15:13Z</time>
      </trkpt>
      <trkpt lat="42.816768" lon="-0.287845">
        <ele>2150.864</ele>
        <time>2020-07-19T05:40:11Z</time>
      </trkpt>
      <trkpt lat="42.816887" lon="-0.287845">
        <ele>2143.406</ele>
        <time>2020-07-19T05:40:16Z</time>
      </trkpt>
      <trkpt lat="42.817013" lon="-0.287835">
        <ele>2144.316</ele>
        <time>2020-07-19T05:40:21Z</time>
      </trkpt>
      <trkpt lat="42.817060" lon="-0.287932">
        <ele>2144.308</ele>
        <time>2020-07-19T05:40:27Z</time>
      </trkpt>
      <trkpt lat="42.817119" lon="-0.288034">
        <ele>2144.171</ele>
        <time>2020-07-19T05:40:32Z</time>
      </trkpt>
      <trkpt lat="42.817165" lon="-0.288106">
        <ele>2143.469</ele>
        <time>2020-07-19T05:40:38Z</time>
      </trkpt>
      <trkpt lat="42.817233" lon="-0.288130">
        <ele>2144.052</ele>
        <time>2020-07-19T05:40:43Z</time>
      </trkpt>
      <trkpt lat="42.817316" lon="-0.288116">
        <ele>2143.939</ele>
        <time>2020-07-19T05:40:49Z</time>
      </trkpt>
      <trkpt lat="42.817381" lon="-0.288114">
        <ele>2144.271</ele>
        <time>2020-07-19T05:41:05Z</time>
      </trkpt>
      <trkpt lat="42.817440" lon="-0.288143">
        <ele>2144.761</ele>
        <time>2020-07-19T05:41:12Z</time>
      </trkpt>
      <trkpt lat="42.817485" lon="-0.288189">
        <ele>2143.283</ele>
        <time>2020-07-19T05:41:19Z</time>
      </trkpt>
      <trkpt lat="42.817514" lon="-0.288261">
        <ele>2145.489</ele>
        <time>2020-07-19T05:41:25Z</time>
      </trkpt>
      <trkpt lat="42.817517" lon="-0.288330">
        <ele>2144.081</ele>
        <time>2020-07-19T05:41:31Z</time>
      </trkpt>
      <trkpt lat="42.817528" lon="-0.288391">
        <ele>2145.361</ele>
        <time>2020-07-19T05:41:36Z</time>
      </trkpt>
      <trkpt lat="42.817523" lon="-0.288457">
        <ele>2145.317</ele>
        <time>2020-07-19T05:41:45Z</time>
      </trkpt>
      <trkpt lat="42.817550" lon="-0.288524">
        <ele>2143.908</ele>
        <time>2020-07-19T05:42:01Z</time>
      </trkpt>
      <trkpt lat="42.817563" lon="-0.288584">
        <ele>2143.943</ele>
        <time>2020-07-19T05:42:07Z</time>
      </trkpt>
      <trkpt lat="42.817597" lon="-0.288648">
        <ele>2142.981</ele>
        <time>2020-07-19T05:42:14Z</time>
      </trkpt>
      <trkpt lat="42.817630" lon="-0.288702">
        <ele>2142.944</ele>
        <time>2020-07-19T05:42:19Z</time>
      </trkpt>
      <trkpt lat="42.817655" lon="-0.288754">
        <ele>2142.591</ele>
        <time>2020-07-19T05:42:24Z</time>
      </trkpt>
      <trkpt lat="42.817664" lon="-0.288824">
        <ele>2141.863</ele>
        <time>2020-07-19T05:42:31Z</time>
      </trkpt>
      <trkpt lat="42.817662" lon="-0.288885">
        <ele>2142.443</ele>
        <time>2020-07-19T05:42:37Z</time>
      </trkpt>
      <trkpt lat="42.817674" lon="-0.288950">
        <ele>2143.085</ele>
        <time>2020-07-19T05:42:43Z</time>
      </trkpt>
      <trkpt lat="42.817688" lon="-0.289023">
        <ele>2143.631</ele>
        <time>2020-07-19T05:42:50Z</time>
      </trkpt>
      <trkpt lat="42.817696" lon="-0.289083">
        <ele>2142.958</ele>
        <time>2020-07-19T05:42:57Z</time>
      </trkpt>
      <trkpt lat="42.817692" lon="-0.289157">
        <ele>2142.152</ele>
        <time>2020-07-19T05:43:02Z</time>
      </trkpt>
      <trkpt lat="42.817700" lon="-0.289229">
        <ele>2143.717</ele>
        <time>2020-07-19T05:43:08Z</time>
      </trkpt>
      <trkpt lat="42.817703" lon="-0.289305">
        <ele>2145.008</ele>
        <time>2020-07-19T05:43:15Z</time>
      </trkpt>
      <trkpt lat="42.817699" lon="-0.289368">
        <ele>2145.550</ele>
        <time>2020-07-19T05:43:53Z</time>
      </trkpt>
      <trkpt lat="42.817696" lon="-0.289445">
        <ele>2146.878</ele>
        <time>2020-07-19T05:44:04Z</time>
      </trkpt>
      <trkpt lat="42.817687" lon="-0.289508">
        <ele>2147.341</ele>
        <time>2020-07-19T05:44:10Z</time>
      </trkpt>
      <trkpt lat="42.817676" lon="-0.289575">
        <ele>2146.778</ele>
        <time>2020-07-19T05:44:15Z</time>
      </trkpt>
      <trkpt lat="42.817677" lon="-0.289653">
        <ele>2145.920</ele>
        <time>2020-07-19T05:44:22Z</time>
      </trkpt>
      <trkpt lat="42.817685" lon="-0.289725">
        <ele>2145.080</ele>
        <time>2020-07-19T05:44:27Z</time>
      </trkpt>
      <trkpt lat="42.817688" lon="-0.289802">
        <ele>2147.392</ele>
        <time>2020-07-19T05:44:35Z</time>
      </trkpt>
      <trkpt lat="42.817700" lon="-0.289869">
        <ele>2148.968</ele>
        <time>2020-07-19T05:44:41Z</time>
      </trkpt>
      <trkpt lat="42.817719" lon="-0.289932">
        <ele>2149.757</ele>
        <time>2020-07-19T05:44:48Z</time>
      </trkpt>
      <trkpt lat="42.817738" lon="-0.289988">
        <ele>2150.400</ele>
        <time>2020-07-19T05:44:54Z</time>
      </trkpt>
      <trkpt lat="42.817742" lon="-0.290062">
        <ele>2150.520</ele>
        <time>2020-07-19T05:45:01Z</time>
      </trkpt>
      <trkpt lat="42.817742" lon="-0.290126">
        <ele>2151.108</ele>
        <time>2020-07-19T05:45:06Z</time>
      </trkpt>
      <trkpt lat="42.817731" lon="-0.290196">
        <ele>2152.040</ele>
        <time>2020-07-19T05:45:13Z</time>
      </trkpt>
      <trkpt lat="42.817738" lon="-0.290261">
        <ele>2152.218</ele>
        <time>2020-07-19T05:45:20Z</time>
      </trkpt>
      <trkpt lat="42.817746" lon="-0.290322">
        <ele>2151.381</ele>
        <time>2020-07-19T05:45:26Z</time>
      </trkpt>
      <trkpt lat="42.817748" lon="-0.290386">
        <ele>2151.098</ele>
        <time>2020-07-19T05:45:33Z</time>
      </trkpt>
      <trkpt lat="42.817750" lon="-0.290456">
        <ele>2154.170</ele>
        <time>2020-07-19T05:45:40Z</time>
      </trkpt>
      <trkpt lat="42.817753" lon="-0.290530">
        <ele>2152.110</ele>
        <time>2020-07-19T05:45:46Z</time>
      </trkpt>
      <trkpt lat="42.817750" lon="-0.290598">
        <ele>2155.852</ele>
        <time>2020-07-19T05:45:54Z</time>
      </trkpt>
      <trkpt lat="42.817737" lon="-0.290662">
        <ele>2156.738</ele>
        <time>2020-07-19T05:46:03Z</time>
      </trkpt>
      <trkpt lat="42.817717" lon="-0.290718">
        <ele>2158.416</ele>
        <time>2020-07-19T05:46:12Z</time>
      </trkpt>
      <trkpt lat="42.817706" lon="-0.290781">
        <ele>2158.876</ele>
        <time>2020-07-19T05:46:19Z</time>
      </trkpt>
      <trkpt lat="42.817679" lon="-0.290833">
        <ele>2159.113</ele>
        <time>2020-07-19T05:46:28Z</time>
      </trkpt>
      <trkpt lat="42.817651" lon="-0.290885">
        <ele>2161.108</ele>
        <time>2020-07-19T05:46:38Z</time>
      </trkpt>
      <trkpt lat="42.817628" lon="-0.290943">
        <ele>2162.526</ele>
        <time>2020-07-19T05:46:47Z</time>
      </trkpt>
      <trkpt lat="42.817614" lon="-0.291002">
        <ele>2162.294</ele>
        <time>2020-07-19T05:46:55Z</time>
      </trkpt>
      <trkpt lat="42.817627" lon="-0.291066">
        <ele>2160.497</ele>
        <time>2020-07-19T05:47:49Z</time>
      </trkpt>
      <trkpt lat="42.817635" lon="-0.291129">
        <ele>2163.574</ele>
        <time>2020-07-19T05:47:53Z</time>
      </trkpt>
      <trkpt lat="42.817647" lon="-0.291190">
        <ele>2164.126</ele>
        <time>2020-07-19T05:47:59Z</time>
      </trkpt>
      <trkpt lat="42.817679" lon="-0.291239">
        <ele>2163.376</ele>
        <time>2020-07-19T05:48:06Z</time>
      </trkpt>
      <trkpt lat="42.817707" lon="-0.291297">
        <ele>2162.428</ele>
        <time>2020-07-19T05:48:11Z</time>
      </trkpt>
      <trkpt lat="42.817724" lon="-0.291372">
        <ele>2162.354</ele>
        <time>2020-07-19T05:48:18Z</time>
      </trkpt>
      <trkpt lat="42.817740" lon="-0.291439">
        <ele>2162.056</ele>
        <time>2020-07-19T05:48:23Z</time>
      </trkpt>
      <trkpt lat="42.817747" lon="-0.291509">
        <ele>2161.659</ele>
        <time>2020-07-19T05:48:27Z</time>
      </trkpt>
      <trkpt lat="42.817749" lon="-0.291586">
        <ele>2162.114</ele>
        <time>2020-07-19T05:48:33Z</time>
      </trkpt>
      <trkpt lat="42.817758" lon="-0.291645">
        <ele>2162.408</ele>
        <time>2020-07-19T05:48:41Z</time>
      </trkpt>
      <trkpt lat="42.817774" lon="-0.291712">
        <ele>2161.620</ele>
        <time>2020-07-19T05:48:48Z</time>
      </trkpt>
      <trkpt lat="42.817788" lon="-0.291784">
        <ele>2161.358</ele>
        <time>2020-07-19T05:48:54Z</time>
      </trkpt>
      <trkpt lat="42.817786" lon="-0.291853">
        <ele>2162.071</ele>
        <time>2020-07-19T05:49:01Z</time>
      </trkpt>
      <trkpt lat="42.817777" lon="-0.291925">
        <ele>2161.238</ele>
        <time>2020-07-19T05:49:06Z</time>
      </trkpt>
      <trkpt lat="42.817771" lon="-0.291998">
        <ele>2160.630</ele>
        <time>2020-07-19T05:49:11Z</time>
      </trkpt>
      <trkpt lat="42.817771" lon="-0.292067">
        <ele>2161.120</ele>
        <time>2020-07-19T05:49:14Z</time>
      </trkpt>
      <trkpt lat="42.817767" lon="-0.292133">
        <ele>2160.952</ele>
        <time>2020-07-19T05:49:20Z</time>
      </trkpt>
      <trkpt lat="42.817778" lon="-0.292197">
        <ele>2161.428</ele>
        <time>2020-07-19T05:49:25Z</time>
      </trkpt>
      <trkpt lat="42.817803" lon="-0.292262">
        <ele>2161.448</ele>
        <time>2020-07-19T05:49:30Z</time>
      </trkpt>
      <trkpt lat="42.817820" lon="-0.292321">
        <ele>2161.261</ele>
        <time>2020-07-19T05:49:36Z</time>
      </trkpt>
      <trkpt lat="42.817842" lon="-0.292381">
        <ele>2160.617</ele>
        <time>2020-07-19T05:49:41Z</time>
      </trkpt>
      <trkpt lat="42.817859" lon="-0.292438">
        <ele>2160.308</ele>
        <time>2020-07-19T05:49:45Z</time>
      </trkpt>
      <trkpt lat="42.817856" lon="-0.292506">
        <ele>2160.529</ele>
        <time>2020-07-19T05:49:58Z</time>
      </trkpt>
      <trkpt lat="42.817851" lon="-0.292582">
        <ele>2160.367</ele>
        <time>2020-07-19T05:50:04Z</time>
      </trkpt>
      <trkpt lat="42.817857" lon="-0.292646">
        <ele>2159.520</ele>
        <time>2020-07-19T05:50:07Z</time>
      </trkpt>
      <trkpt lat="42.817847" lon="-0.292723">
        <ele>2160.057</ele>
        <time>2020-07-19T05:50:12Z</time>
      </trkpt>
      <trkpt lat="42.817835" lon="-0.292801">
        <ele>2159.859</ele>
        <time>2020-07-19T05:50:19Z</time>
      </trkpt>
      <trkpt lat="42.817819" lon="-0.292873">
        <ele>2159.229</ele>
        <time>2020-07-19T05:50:22Z</time>
      </trkpt>
      <trkpt lat="42.817803" lon="-0.292944">
        <ele>2160.091</ele>
        <time>2020-07-19T05:50:29Z</time>
      </trkpt>
      <trkpt lat="42.817786" lon="-0.293006">
        <ele>2160.237</ele>
        <time>2020-07-19T05:50:33Z</time>
      </trkpt>
      <trkpt lat="42.817768" lon="-0.293066">
        <ele>2159.319</ele>
        <time>2020-07-19T05:50:39Z</time>
      </trkpt>
      <trkpt lat="42.817762" lon="-0.293127">
        <ele>2159.709</ele>
        <time>2020-07-19T05:50:42Z</time>
      </trkpt>
      <trkpt lat="42.817777" lon="-0.293192">
        <ele>2159.819</ele>
        <time>2020-07-19T05:50:48Z</time>
      </trkpt>
      <trkpt lat="42.817769" lon="-0.293257">
        <ele>2159.708</ele>
        <time>2020-07-19T05:50:54Z</time>
      </trkpt>
      <trkpt lat="42.817747" lon="-0.293314">
        <ele>2159.586</ele>
        <time>2020-07-19T05:51:00Z</time>
      </trkpt>
      <trkpt lat="42.817714" lon="-0.293376">
        <ele>2159.334</ele>
        <time>2020-07-19T05:51:06Z</time>
      </trkpt>
      <trkpt lat="42.817711" lon="-0.293444">
        <ele>2158.537</ele>
        <time>2020-07-19T05:51:12Z</time>
      </trkpt>
      <trkpt lat="42.817703" lon="-0.293505">
        <ele>2158.444</ele>
        <time>2020-07-19T05:51:15Z</time>
      </trkpt>
      <trkpt lat="42.817706" lon="-0.293569">
        <ele>2158.216</ele>
        <time>2020-07-19T05:51:20Z</time>
      </trkpt>
      <trkpt lat="42.817718" lon="-0.293631">
        <ele>2158.926</ele>
        <time>2020-07-19T05:51:26Z</time>
      </trkpt>
      <trkpt lat="42.817741" lon="-0.293692">
        <ele>2158.228</ele>
        <time>2020-07-19T05:51:32Z</time>
      </trkpt>
      <trkpt lat="42.817749" lon="-0.293754">
        <ele>2158.554</ele>
        <time>2020-07-19T05:51:36Z</time>
      </trkpt>
      <trkpt lat="42.817757" lon="-0.293825">
        <ele>2158.546</ele>
        <time>2020-07-19T05:51:41Z</time>
      </trkpt>
      <trkpt lat="42.817755" lon="-0.293895">
        <ele>2158.788</ele>
        <time>2020-07-19T05:51:46Z</time>
      </trkpt>
      <trkpt lat="42.817759" lon="-0.293956">
        <ele>2158.116</ele>
        <time>2020-07-19T05:51:49Z</time>
      </trkpt>
      <trkpt lat="42.817756" lon="-0.294026">
        <ele>2158.008</ele>
        <time>2020-07-19T05:51:55Z</time>
      </trkpt>
      <trkpt lat="42.817751" lon="-0.294096">
        <ele>2158.169</ele>
        <time>2020-07-19T05:52:00Z</time>
      </trkpt>
      <trkpt lat="42.817745" lon="-0.294162">
        <ele>2157.977</ele>
        <time>2020-07-19T05:52:03Z</time>
      </trkpt>
      <trkpt lat="42.817748" lon="-0.294228">
        <ele>2157.970</ele>
        <time>2020-07-19T05:52:09Z</time>
      </trkpt>
      <trkpt lat="42.817741" lon="-0.294301">
        <ele>2158.187</ele>
        <time>2020-07-19T05:52:15Z</time>
      </trkpt>
      <trkpt lat="42.817726" lon="-0.294373">
        <ele>2157.559</ele>
        <time>2020-07-19T05:52:21Z</time>
      </trkpt>
      <trkpt lat="42.817712" lon="-0.294436">
        <ele>2157.999</ele>
        <time>2020-07-19T05:52:26Z</time>
      </trkpt>
      <trkpt lat="42.817700" lon="-0.294511">
        <ele>2157.241</ele>
        <time>2020-07-19T05:52:32Z</time>
      </trkpt>
      <trkpt lat="42.817679" lon="-0.294571">
        <ele>2157.047</ele>
        <time>2020-07-19T05:52:37Z</time>
      </trkpt>
      <trkpt lat="42.817637" lon="-0.294608">
        <ele>2155.723</ele>
        <time>2020-07-19T05:52:45Z</time>
      </trkpt>
      <trkpt lat="42.817594" lon="-0.294626">
        <ele>2155.583</ele>
        <time>2020-07-19T05:52:51Z</time>
      </trkpt>
      <trkpt lat="42.817577" lon="-0.294563">
        <ele>2151.111</ele>
        <time>2020-07-19T05:53:34Z</time>
      </trkpt>
      <trkpt lat="42.817598" lon="-0.294498">
        <ele>2150.308</ele>
        <time>2020-07-19T05:53:42Z</time>
      </trkpt>
      <trkpt lat="42.817612" lon="-0.294435">
        <ele>2149.347</ele>
        <time>2020-07-19T05:53:48Z</time>
      </trkpt>
      <trkpt lat="42.817615" lon="-0.294372">
        <ele>2148.325</ele>
        <time>2020-07-19T05:53:55Z</time>
      </trkpt>
      <trkpt lat="42.817603" lon="-0.294307">
        <ele>2147.048</ele>
        <time>2020-07-19T05:54:02Z</time>
      </trkpt>
      <trkpt lat="42.817614" lon="-0.294243">
        <ele>2145.015</ele>
        <time>2020-07-19T05:54:09Z</time>
      </trkpt>
      <trkpt lat="42.817595" lon="-0.294178">
        <ele>2143.557</ele>
        <time>2020-07-19T05:54:17Z</time>
      </trkpt>
      <trkpt lat="42.817564" lon="-0.294123">
        <ele>2142.287</ele>
        <time>2020-07-19T05:54:28Z</time>
      </trkpt>
      <trkpt lat="42.817525" lon="-0.294169">
        <ele>2140.669</ele>
        <time>2020-07-19T05:54:36Z</time>
      </trkpt>
      <trkpt lat="42.817499" lon="-0.294223">
        <ele>2139.455</ele>
        <time>2020-07-19T05:54:40Z</time>
      </trkpt>
      <trkpt lat="42.817471" lon="-0.294276">
        <ele>2139.368</ele>
        <time>2020-07-19T05:54:44Z</time>
      </trkpt>
      <trkpt lat="42.817452" lon="-0.294345">
        <ele>2137.842</ele>
        <time>2020-07-19T05:54:51Z</time>
      </trkpt>
      <trkpt lat="42.817437" lon="-0.294416">
        <ele>2136.526</ele>
        <time>2020-07-19T05:54:58Z</time>
      </trkpt>
      <trkpt lat="42.817427" lon="-0.294488">
        <ele>2136.708</ele>
        <time>2020-07-19T05:55:03Z</time>
      </trkpt>
      <trkpt lat="42.817428" lon="-0.294564">
        <ele>2136.621</ele>
        <time>2020-07-19T05:55:11Z</time>
      </trkpt>
      <trkpt lat="42.817427" lon="-0.294625">
        <ele>2135.659</ele>
        <time>2020-07-19T05:55:18Z</time>
      </trkpt>
      <trkpt lat="42.817429" lon="-0.294690">
        <ele>2135.112</ele>
        <time>2020-07-19T05:55:23Z</time>
      </trkpt>
      <trkpt lat="42.817401" lon="-0.294741">
        <ele>2135.159</ele>
        <time>2020-07-19T05:55:28Z</time>
      </trkpt>
      <trkpt lat="42.817361" lon="-0.294774">
        <ele>2134.421</ele>
        <time>2020-07-19T05:55:33Z</time>
      </trkpt>
      <trkpt lat="42.817320" lon="-0.294804">
        <ele>2133.591</ele>
        <time>2020-07-19T05:55:39Z</time>
      </trkpt>
      <trkpt lat="42.817311" lon="-0.294868">
        <ele>2131.913</ele>
        <time>2020-07-19T05:55:52Z</time>
      </trkpt>
      <trkpt lat="42.817323" lon="-0.294933">
        <ele>2131.669</ele>
        <time>2020-07-19T05:56:00Z</time>
      </trkpt>
      <trkpt lat="42.817335" lon="-0.294999">
        <ele>2130.968</ele>
        <time>2020-07-19T05:56:06Z</time>
      </trkpt>
      <trkpt lat="42.817314" lon="-0.295064">
        <ele>2131.442</ele>
        <time>2020-07-19T05:56:36Z</time>
      </trkpt>
      <trkpt lat="42.817290" lon="-0.295130">
        <ele>2130.526</ele>
        <time>2020-07-19T05:56:42Z</time>
      </trkpt>
      <trkpt lat="42.817256" lon="-0.295189">
        <ele>2130.308</ele>
        <time>2020-07-19T05:56:47Z</time>
      </trkpt>
      <trkpt lat="42.817228" lon="-0.295250">
        <ele>2130.851</ele>
        <time>2020-07-19T05:56:52Z</time>
      </trkpt>
      <trkpt lat="42.817222" lon="-0.295317">
        <ele>2131.299</ele>
        <time>2020-07-19T05:57:00Z</time>
      </trkpt>
      <trkpt lat="42.817231" lon="-0.295382">
        <ele>2131.072</ele>
        <time>2020-07-19T05:57:05Z</time>
      </trkpt>
      <trkpt lat="42.817220" lon="-0.295444">
        <ele>2131.699</ele>
        <time>2020-07-19T05:57:11Z</time>
      </trkpt>
      <trkpt lat="42.817219" lon="-0.295522">
        <ele>2130.831</ele>
        <time>2020-07-19T05:57:16Z</time>
      </trkpt>
      <trkpt lat="42.817192" lon="-0.295588">
        <ele>2130.071</ele>
        <time>2020-07-19T05:57:23Z</time>
      </trkpt>
      <trkpt lat="42.817183" lon="-0.295654">
        <ele>2129.833</ele>
        <time>2020-07-19T05:57:27Z</time>
      </trkpt>
      <trkpt lat="42.817222" lon="-0.295693">
        <ele>2128.889</ele>
        <time>2020-07-19T05:58:33Z</time>
      </trkpt>
      <trkpt lat="42.817272" lon="-0.295710">
        <ele>2127.385</ele>
        <time>2020-07-19T05:58:38Z</time>
      </trkpt>
      <trkpt lat="42.817300" lon="-0.295763">
        <ele>2126.189</ele>
        <time>2020-07-19T05:58:45Z</time>
      </trkpt>
      <trkpt lat="42.817322" lon="-0.295829">
        <ele>2126.717</ele>
        <time>2020-07-19T05:58:52Z</time>
      </trkpt>
      <trkpt lat="42.817349" lon="-0.295892">
        <ele>2127.408</ele>
        <time>2020-07-19T05:58:59Z</time>
      </trkpt>
      <trkpt lat="42.817369" lon="-0.295957">
        <ele>2126.873</ele>
        <time>2020-07-19T05:59:03Z</time>
      </trkpt>
      <trkpt lat="42.817387" lon="-0.296027">
        <ele>2126.881</ele>
        <time>2020-07-19T05:59:08Z</time>
      </trkpt>
      <trkpt lat="42.817409" lon="-0.296083">
        <ele>2127.044</ele>
        <time>2020-07-19T05:59:12Z</time>
      </trkpt>
      <trkpt lat="42.817438" lon="-0.296146">
        <ele>2127.821</ele>
        <time>2020-07-19T05:59:17Z</time>
      </trkpt>
      <trkpt lat="42.817464" lon="-0.296206">
        <ele>2127.233</ele>
        <time>2020-07-19T05:59:20Z</time>
      </trkpt>
      <trkpt lat="42.817481" lon="-0.296269">
        <ele>2127.143</ele>
        <time>2020-07-19T05:59:26Z</time>
      </trkpt>
      <trkpt lat="42.817495" lon="-0.296330">
        <ele>2126.655</ele>
        <time>2020-07-19T05:59:31Z</time>
      </trkpt>
      <trkpt lat="42.817524" lon="-0.296396">
        <ele>2126.571</ele>
        <time>2020-07-19T05:59:37Z</time>
      </trkpt>
      <trkpt lat="42.817555" lon="-0.296443">
        <ele>2126.437</ele>
        <time>2020-07-19T05:59:42Z</time>
      </trkpt>
      <trkpt lat="42.817581" lon="-0.296500">
        <ele>2126.449</ele>
        <time>2020-07-19T05:59:47Z</time>
      </trkpt>
      <trkpt lat="42.817606" lon="-0.296559">
        <ele>2126.713</ele>
        <time>2020-07-19T05:59:55Z</time>
      </trkpt>
      <trkpt lat="42.817615" lon="-0.296632">
        <ele>2127.108</ele>
        <time>2020-07-19T06:00:01Z</time>
      </trkpt>
      <trkpt lat="42.817627" lon="-0.296708">
        <ele>2127.118</ele>
        <time>2020-07-19T06:00:08Z</time>
      </trkpt>
      <trkpt lat="42.817639" lon="-0.296771">
        <ele>2126.786</ele>
        <time>2020-07-19T06:00:15Z</time>
      </trkpt>
      <trkpt lat="42.817668" lon="-0.296828">
        <ele>2126.999</ele>
        <time>2020-07-19T06:00:23Z</time>
      </trkpt>
      <trkpt lat="42.817690" lon="-0.296889">
        <ele>2127.476</ele>
        <time>2020-07-19T06:00:31Z</time>
      </trkpt>
      <trkpt lat="42.817695" lon="-0.296961">
        <ele>2126.928</ele>
        <time>2020-07-19T06:00:37Z</time>
      </trkpt>
      <trkpt lat="42.817711" lon="-0.297028">
        <ele>2126.848</ele>
        <time>2020-07-19T06:00:43Z</time>
      </trkpt>
      <trkpt lat="42.817731" lon="-0.297087">
        <ele>2127.480</ele>
        <time>2020-07-19T06:00:48Z</time>
      </trkpt>
      <trkpt lat="42.817748" lon="-0.297145">
        <ele>2127.916</ele>
        <time>2020-07-19T06:00:54Z</time>
      </trkpt>
      <trkpt lat="42.817767" lon="-0.297212">
        <ele>2127.111</ele>
        <time>2020-07-19T06:01:00Z</time>
      </trkpt>
      <trkpt lat="42.817788" lon="-0.297275">
        <ele>2128.021</ele>
        <time>2020-07-19T06:01:09Z</time>
      </trkpt>
      <trkpt lat="42.817800" lon="-0.297339">
        <ele>2127.803</ele>
        <time>2020-07-19T06:01:16Z</time>
      </trkpt>
      <trkpt lat="42.817844" lon="-0.297376">
        <ele>2127.408</ele>
        <time>2020-07-19T06:01:21Z</time>
      </trkpt>
      <trkpt lat="42.817890" lon="-0.297386">
        <ele>2127.626</ele>
        <time>2020-07-19T06:01:26Z</time>
      </trkpt>
      <trkpt lat="42.817923" lon="-0.297407">
        <ele>2128.744</ele>
        <time>2020-07-19T06:01:35Z</time>
      </trkpt>
      <trkpt lat="42.817968" lon="-0.297381">
        <ele>2128.027</ele>
        <time>2020-07-19T06:01:54Z</time>
      </trkpt>
      <trkpt lat="42.818023" lon="-0.297363">
        <ele>2128.694</ele>
        <time>2020-07-19T06:02:02Z</time>
      </trkpt>
      <trkpt lat="42.818059" lon="-0.297402">
        <ele>2128.576</ele>
        <time>2020-07-19T06:02:07Z</time>
      </trkpt>
      <trkpt lat="42.818057" lon="-0.297469">
        <ele>2128.196</ele>
        <time>2020-07-19T06:02:10Z</time>
      </trkpt>
      <trkpt lat="42.818063" lon="-0.297537">
        <ele>2128.058</ele>
        <time>2020-07-19T06:02:15Z</time>
      </trkpt>
      <trkpt lat="42.818090" lon="-0.297602">
        <ele>2127.244</ele>
        <time>2020-07-19T06:02:21Z</time>
      </trkpt>
      <trkpt lat="42.818107" lon="-0.297684">
        <ele>2127.074</ele>
        <time>2020-07-19T06:02:25Z</time>
      </trkpt>
      <trkpt lat="42.818127" lon="-0.297757">
        <ele>2126.856</ele>
        <time>2020-07-19T06:02:31Z</time>
      </trkpt>
      <trkpt lat="42.818167" lon="-0.297792">
        <ele>2127.821</ele>
        <time>2020-07-19T06:02:36Z</time>
      </trkpt>
      <trkpt lat="42.818210" lon="-0.297820">
        <ele>2127.408</ele>
        <time>2020-07-19T06:02:42Z</time>
      </trkpt>
      <trkpt lat="42.818254" lon="-0.297787">
        <ele>2127.872</ele>
        <time>2020-07-19T06:03:03Z</time>
      </trkpt>
      <trkpt lat="42.818306" lon="-0.297766">
        <ele>2128.370</ele>
        <time>2020-07-19T06:03:08Z</time>
      </trkpt>
      <trkpt lat="42.818356" lon="-0.297782">
        <ele>2128.163</ele>
        <time>2020-07-19T06:03:12Z</time>
      </trkpt>
      <trkpt lat="42.818399" lon="-0.297804">
        <ele>2128.090</ele>
        <time>2020-07-19T06:03:16Z</time>
      </trkpt>
      <trkpt lat="42.818439" lon="-0.297837">
        <ele>2129.082</ele>
        <time>2020-07-19T06:03:20Z</time>
      </trkpt>
      <trkpt lat="42.818487" lon="-0.297869">
        <ele>2128.562</ele>
        <time>2020-07-19T06:03:26Z</time>
      </trkpt>
      <trkpt lat="42.818520" lon="-0.297924">
        <ele>2128.564</ele>
        <time>2020-07-19T06:03:31Z</time>
      </trkpt>
      <trkpt lat="42.818546" lon="-0.297983">
        <ele>2128.250</ele>
        <time>2020-07-19T06:03:37Z</time>
      </trkpt>
      <trkpt lat="42.818582" lon="-0.298031">
        <ele>2128.444</ele>
        <time>2020-07-19T06:03:43Z</time>
      </trkpt>
      <trkpt lat="42.818597" lon="-0.298089">
        <ele>2130.005</ele>
        <time>2020-07-19T06:03:49Z</time>
      </trkpt>
      <trkpt lat="42.818629" lon="-0.298147">
        <ele>2129.715</ele>
        <time>2020-07-19T06:03:57Z</time>
      </trkpt>
      <trkpt lat="42.818666" lon="-0.298190">
        <ele>2129.508</ele>
        <time>2020-07-19T06:04:02Z</time>
      </trkpt>
      <trkpt lat="42.818698" lon="-0.298239">
        <ele>2128.669</ele>
        <time>2020-07-19T06:04:07Z</time>
      </trkpt>
      <trkpt lat="42.818706" lon="-0.298301">
        <ele>2129.047</ele>
        <time>2020-07-19T06:04:26Z</time>
      </trkpt>
      <trkpt lat="42.818725" lon="-0.298359">
        <ele>2129.050</ele>
        <time>2020-07-19T06:04:34Z</time>
      </trkpt>
      <trkpt lat="42.818749" lon="-0.298419">
        <ele>2128.857</ele>
        <time>2020-07-19T06:04:39Z</time>
      </trkpt>
      <trkpt lat="42.818761" lon="-0.298478">
        <ele>2129.159</ele>
        <time>2020-07-19T06:04:43Z</time>
      </trkpt>
      <trkpt lat="42.818777" lon="-0.298540">
        <ele>2127.889</ele>
        <time>2020-07-19T06:04:48Z</time>
      </trkpt>
      <trkpt lat="42.818806" lon="-0.298600">
        <ele>2128.261</ele>
        <time>2020-07-19T06:04:53Z</time>
      </trkpt>
      <trkpt lat="42.818813" lon="-0.298662">
        <ele>2128.927</ele>
        <time>2020-07-19T06:05:02Z</time>
      </trkpt>
      <trkpt lat="42.818825" lon="-0.298728">
        <ele>2128.344</ele>
        <time>2020-07-19T06:05:10Z</time>
      </trkpt>
      <trkpt lat="42.818833" lon="-0.298793">
        <ele>2128.905</ele>
        <time>2020-07-19T06:05:15Z</time>
      </trkpt>
      <trkpt lat="42.818840" lon="-0.298864">
        <ele>2128.715</ele>
        <time>2020-07-19T06:05:25Z</time>
      </trkpt>
      <trkpt lat="42.818861" lon="-0.298931">
        <ele>2129.108</ele>
        <time>2020-07-19T06:05:32Z</time>
      </trkpt>
      <trkpt lat="42.818892" lon="-0.298990">
        <ele>2128.899</ele>
        <time>2020-07-19T06:05:38Z</time>
      </trkpt>
      <trkpt lat="42.818907" lon="-0.299056">
        <ele>2128.787</ele>
        <time>2020-07-19T06:05:45Z</time>
      </trkpt>
      <trkpt lat="42.818931" lon="-0.299115">
        <ele>2128.820</ele>
        <time>2020-07-19T06:05:54Z</time>
      </trkpt>
      <trkpt lat="42.818961" lon="-0.299163">
        <ele>2128.647</ele>
        <time>2020-07-19T06:06:02Z</time>
      </trkpt>
      <trkpt lat="42.818992" lon="-0.299214">
        <ele>2129.239</ele>
        <time>2020-07-19T06:06:10Z</time>
      </trkpt>
      <trkpt lat="42.819002" lon="-0.299277">
        <ele>2129.249</ele>
        <time>2020-07-19T06:06:26Z</time>
      </trkpt>
      <trkpt lat="42.818976" lon="-0.299333">
        <ele>2128.771</ele>
        <time>2020-07-19T06:07:34Z</time>
      </trkpt>
      <trkpt lat="42.818990" lon="-0.299399">
        <ele>2129.847</ele>
        <time>2020-07-19T06:07:40Z</time>
      </trkpt>
      <trkpt lat="42.819014" lon="-0.299461">
        <ele>2124.413</ele>
        <time>2020-07-19T06:07:45Z</time>
      </trkpt>
      <trkpt lat="42.819024" lon="-0.299539">
        <ele>2129.243</ele>
        <time>2020-07-19T06:07:53Z</time>
      </trkpt>
      <trkpt lat="42.819035" lon="-0.299605">
        <ele>2128.007</ele>
        <time>2020-07-19T06:07:59Z</time>
      </trkpt>
      <trkpt lat="42.819043" lon="-0.299667">
        <ele>2129.208</ele>
        <time>2020-07-19T06:08:03Z</time>
      </trkpt>
      <trkpt lat="42.819034" lon="-0.299725">
        <ele>2129.266</ele>
        <time>2020-07-19T06:08:38Z</time>
      </trkpt>
      <trkpt lat="42.819066" lon="-0.299784">
        <ele>2129.364</ele>
        <time>2020-07-19T06:08:45Z</time>
      </trkpt>
      <trkpt lat="42.819093" lon="-0.299849">
        <ele>2129.727</ele>
        <time>2020-07-19T06:08:50Z</time>
      </trkpt>
      <trkpt lat="42.819084" lon="-0.299915">
        <ele>2129.554</ele>
        <time>2020-07-19T06:08:56Z</time>
      </trkpt>
      <trkpt lat="42.819090" lon="-0.299983">
        <ele>2130.056</ele>
        <time>2020-07-19T06:09:01Z</time>
      </trkpt>
      <trkpt lat="42.819106" lon="-0.300053">
        <ele>2129.976</ele>
        <time>2020-07-19T06:09:06Z</time>
      </trkpt>
      <trkpt lat="42.819122" lon="-0.300116">
        <ele>2129.228</ele>
        <time>2020-07-19T06:09:12Z</time>
      </trkpt>
      <trkpt lat="42.819155" lon="-0.300173">
        <ele>2129.744</ele>
        <time>2020-07-19T06:09:27Z</time>
      </trkpt>
      <trkpt lat="42.819181" lon="-0.300237">
        <ele>2129.598</ele>
        <time>2020-07-19T06:09:32Z</time>
      </trkpt>
      <trkpt lat="42.819205" lon="-0.300297">
        <ele>2129.715</ele>
        <time>2020-07-19T06:09:38Z</time>
      </trkpt>
      <trkpt lat="42.819230" lon="-0.300373">
        <ele>2129.926</ele>
        <time>2020-07-19T06:09:44Z</time>
      </trkpt>
      <trkpt lat="42.819257" lon="-0.300435">
        <ele>2129.508</ele>
        <time>2020-07-19T06:09:49Z</time>
      </trkpt>
      <trkpt lat="42.819293" lon="-0.300478">
        <ele>2130.124</ele>
        <time>2020-07-19T06:09:56Z</time>
      </trkpt>
      <trkpt lat="42.819326" lon="-0.300523">
        <ele>2130.262</ele>
        <time>2020-07-19T06:10:23Z</time>
      </trkpt>
      <trkpt lat="42.819359" lon="-0.300569">
        <ele>2133.065</ele>
        <time>2020-07-19T06:10:31Z</time>
      </trkpt>
      <trkpt lat="42.819368" lon="-0.300633">
        <ele>2133.972</ele>
        <time>2020-07-19T06:10:37Z</time>
      </trkpt>
      <trkpt lat="42.819397" lon="-0.300685">
        <ele>2134.134</ele>
        <time>2020-07-19T06:10:46Z</time>
      </trkpt>
      <trkpt lat="42.819422" lon="-0.300744">
        <ele>2136.754</ele>
        <time>2020-07-19T06:10:55Z</time>
      </trkpt>
      <trkpt lat="42.819451" lon="-0.300801">
        <ele>2138.116</ele>
        <time>2020-07-19T06:11:03Z</time>
      </trkpt>
      <trkpt lat="42.819486" lon="-0.300847">
        <ele>2139.282</ele>
        <time>2020-07-19T06:11:13Z</time>
      </trkpt>
      <trkpt lat="42.819510" lon="-0.300905">
        <ele>2140.139</ele>
        <time>2020-07-19T06:11:22Z</time>
      </trkpt>
      <trkpt lat="42.819527" lon="-0.300961">
        <ele>2140.101</ele>
        <time>2020-07-19T06:11:32Z</time>
      </trkpt>
      <trkpt lat="42.819572" lon="-0.300998">
        <ele>2141.221</ele>
        <time>2020-07-19T06:11:40Z</time>
      </trkpt>
      <trkpt lat="42.819577" lon="-0.300934">
        <ele>2141.208</ele>
        <time>2020-07-19T06:11:50Z</time>
      </trkpt>
      <trkpt lat="42.819565" lon="-0.300871">
        <ele>2143.528</ele>
        <time>2020-07-19T06:11:55Z</time>
      </trkpt>
      <trkpt lat="42.819610" lon="-0.300891">
        <ele>2144.696</ele>
        <time>2020-07-19T06:13:26Z</time>
      </trkpt>
      <trkpt lat="42.819638" lon="-0.300957">
        <ele>2148.289</ele>
        <time>2020-07-19T06:13:32Z</time>
      </trkpt>
      <trkpt lat="42.819660" lon="-0.301023">
        <ele>2148.546</ele>
        <time>2020-07-19T06:13:39Z</time>
      </trkpt>
      <trkpt lat="42.819670" lon="-0.301087">
        <ele>2148.548</ele>
        <time>2020-07-19T06:13:43Z</time>
      </trkpt>
      <trkpt lat="42.819690" lon="-0.301152">
        <ele>2148.398</ele>
        <time>2020-07-19T06:13:49Z</time>
      </trkpt>
      <trkpt lat="42.819694" lon="-0.301228">
        <ele>2149.570</ele>
        <time>2020-07-19T06:13:57Z</time>
      </trkpt>
      <trkpt lat="42.819702" lon="-0.301294">
        <ele>2150.586</ele>
        <time>2020-07-19T06:14:04Z</time>
      </trkpt>
      <trkpt lat="42.819710" lon="-0.301366">
        <ele>2150.674</ele>
        <time>2020-07-19T06:14:11Z</time>
      </trkpt>
      <trkpt lat="42.819712" lon="-0.301436">
        <ele>2151.656</ele>
        <time>2020-07-19T06:14:20Z</time>
      </trkpt>
      <trkpt lat="42.819714" lon="-0.301501">
        <ele>2150.921</ele>
        <time>2020-07-19T06:14:27Z</time>
      </trkpt>
      <trkpt lat="42.819739" lon="-0.301563">
        <ele>2151.808</ele>
        <time>2020-07-19T06:14:35Z</time>
      </trkpt>
      <trkpt lat="42.819778" lon="-0.301606">
        <ele>2152.342</ele>
        <time>2020-07-19T06:14:41Z</time>
      </trkpt>
      <trkpt lat="42.819809" lon="-0.301657">
        <ele>2153.210</ele>
        <time>2020-07-19T06:14:48Z</time>
      </trkpt>
      <trkpt lat="42.819845" lon="-0.301710">
        <ele>2151.963</ele>
        <time>2020-07-19T06:14:59Z</time>
      </trkpt>
      <trkpt lat="42.819871" lon="-0.301769">
        <ele>2152.360</ele>
        <time>2020-07-19T06:15:04Z</time>
      </trkpt>
      <trkpt lat="42.819889" lon="-0.301833">
        <ele>2151.922</ele>
        <time>2020-07-19T06:15:10Z</time>
      </trkpt>
      <trkpt lat="42.819896" lon="-0.301906">
        <ele>2150.982</ele>
        <time>2020-07-19T06:15:17Z</time>
      </trkpt>
      <trkpt lat="42.819916" lon="-0.301963">
        <ele>2150.414</ele>
        <time>2020-07-19T06:15:23Z</time>
      </trkpt>
      <trkpt lat="42.819918" lon="-0.302030">
        <ele>2149.990</ele>
        <time>2020-07-19T06:15:30Z</time>
      </trkpt>
      <trkpt lat="42.819927" lon="-0.302101">
        <ele>2149.821</ele>
        <time>2020-07-19T06:15:36Z</time>
      </trkpt>
      <trkpt lat="42.819940" lon="-0.302160">
        <ele>2149.341</ele>
        <time>2020-07-19T06:15:41Z</time>
      </trkpt>
      <trkpt lat="42.819966" lon="-0.302217">
        <ele>2148.805</ele>
        <time>2020-07-19T06:15:48Z</time>
      </trkpt>
      <trkpt lat="42.819993" lon="-0.302278">
        <ele>2148.408</ele>
        <time>2020-07-19T06:15:54Z</time>
      </trkpt>
      <trkpt lat="42.819996" lon="-0.302347">
        <ele>2148.397</ele>
        <time>2020-07-19T06:16:04Z</time>
      </trkpt>
      <trkpt lat="42.820012" lon="-0.302421">
        <ele>2147.975</ele>
        <time>2020-07-19T06:16:11Z</time>
      </trkpt>
      <trkpt lat="42.820020" lon="-0.302487">
        <ele>2147.598</ele>
        <time>2020-07-19T06:16:18Z</time>
      </trkpt>
      <trkpt lat="42.820027" lon="-0.302556">
        <ele>2147.575</ele>
        <time>2020-07-19T06:16:24Z</time>
      </trkpt>
      <trkpt lat="42.820046" lon="-0.302630">
        <ele>2146.397</ele>
        <time>2020-07-19T06:16:31Z</time>
      </trkpt>
      <trkpt lat="42.820065" lon="-0.302698">
        <ele>2146.077</ele>
        <time>2020-07-19T06:16:37Z</time>
      </trkpt>
      <trkpt lat="42.820083" lon="-0.302756">
        <ele>2145.929</ele>
        <time>2020-07-19T06:16:43Z</time>
      </trkpt>
      <trkpt lat="42.820114" lon="-0.302809">
        <ele>2146.125</ele>
        <time>2020-07-19T06:16:49Z</time>
      </trkpt>
      <trkpt lat="42.820172" lon="-0.302828">
        <ele>2145.328</ele>
        <time>2020-07-19T06:17:22Z</time>
      </trkpt>
      <trkpt lat="42.820223" lon="-0.302861">
        <ele>2145.889</ele>
        <time>2020-07-19T06:17:27Z</time>
      </trkpt>
      <trkpt lat="42.820271" lon="-0.302905">
        <ele>2146.417</ele>
        <time>2020-07-19T06:17:33Z</time>
      </trkpt>
      <trkpt lat="42.820300" lon="-0.302956">
        <ele>2146.008</ele>
        <time>2020-07-19T06:17:37Z</time>
      </trkpt>
      <trkpt lat="42.820323" lon="-0.303009">
        <ele>2145.857</ele>
        <time>2020-07-19T06:17:43Z</time>
      </trkpt>
      <trkpt lat="42.820317" lon="-0.303071">
        <ele>2148.455</ele>
        <time>2020-07-19T06:17:52Z</time>
      </trkpt>
      <trkpt lat="42.820335" lon="-0.303129">
        <ele>2147.878</ele>
        <time>2020-07-19T06:17:59Z</time>
      </trkpt>
      <trkpt lat="42.820351" lon="-0.303192">
        <ele>2148.595</ele>
        <time>2020-07-19T06:18:05Z</time>
      </trkpt>
      <trkpt lat="42.820367" lon="-0.303267">
        <ele>2148.587</ele>
        <time>2020-07-19T06:18:11Z</time>
      </trkpt>
      <trkpt lat="42.820388" lon="-0.303331">
        <ele>2147.697</ele>
        <time>2020-07-19T06:18:17Z</time>
      </trkpt>
      <trkpt lat="42.820420" lon="-0.303389">
        <ele>2148.119</ele>
        <time>2020-07-19T06:18:23Z</time>
      </trkpt>
      <trkpt lat="42.820447" lon="-0.303446">
        <ele>2148.555</ele>
        <time>2020-07-19T06:18:30Z</time>
      </trkpt>
      <trkpt lat="42.820480" lon="-0.303497">
        <ele>2148.781</ele>
        <time>2020-07-19T06:18:36Z</time>
      </trkpt>
      <trkpt lat="42.820510" lon="-0.303544">
        <ele>2148.761</ele>
        <time>2020-07-19T06:18:40Z</time>
      </trkpt>
      <trkpt lat="42.820532" lon="-0.303598">
        <ele>2147.717</ele>
        <time>2020-07-19T06:18:46Z</time>
      </trkpt>
      <trkpt lat="42.820563" lon="-0.303650">
        <ele>2148.808</ele>
        <time>2020-07-19T06:18:51Z</time>
      </trkpt>
      <trkpt lat="42.820594" lon="-0.303697">
        <ele>2149.113</ele>
        <time>2020-07-19T06:18:57Z</time>
      </trkpt>
      <trkpt lat="42.820625" lon="-0.303750">
        <ele>2150.451</ele>
        <time>2020-07-19T06:19:03Z</time>
      </trkpt>
      <trkpt lat="42.820651" lon="-0.303803">
        <ele>2150.524</ele>
        <time>2020-07-19T06:19:11Z</time>
      </trkpt>
      <trkpt lat="42.820684" lon="-0.303854">
        <ele>2153.781</ele>
        <time>2020-07-19T06:19:19Z</time>
      </trkpt>
      <trkpt lat="42.820714" lon="-0.303901">
        <ele>2153.833</ele>
        <time>2020-07-19T06:19:27Z</time>
      </trkpt>
      <trkpt lat="42.820758" lon="-0.303940">
        <ele>2154.653</ele>
        <time>2020-07-19T06:19:38Z</time>
      </trkpt>
      <trkpt lat="42.820804" lon="-0.303921">
        <ele>2155.555</ele>
        <time>2020-07-19T06:20:10Z</time>
      </trkpt>
      <trkpt lat="42.820857" lon="-0.303928">
        <ele>2157.111</ele>
        <time>2020-07-19T06:21:05Z</time>
      </trkpt>
      <trkpt lat="42.820898" lon="-0.303966">
        <ele>2158.811</ele>
        <time>2020-07-19T06:21:11Z</time>
      </trkpt>
      <trkpt lat="42.820936" lon="-0.304011">
        <ele>2159.821</ele>
        <time>2020-07-19T06:21:17Z</time>
      </trkpt>
      <trkpt lat="42.820955" lon="-0.304074">
        <ele>2159.203</ele>
        <time>2020-07-19T06:21:24Z</time>
      </trkpt>
      <trkpt lat="42.820990" lon="-0.304122">
        <ele>2161.208</ele>
        <time>2020-07-19T06:21:32Z</time>
      </trkpt>
      <trkpt lat="42.821044" lon="-0.304141">
        <ele>2162.676</ele>
        <time>2020-07-19T06:21:38Z</time>
      </trkpt>
      <trkpt lat="42.821091" lon="-0.304172">
        <ele>2160.444</ele>
        <time>2020-07-19T06:21:45Z</time>
      </trkpt>
      <trkpt lat="42.821135" lon="-0.304196">
        <ele>2163.747</ele>
        <time>2020-07-19T06:21:52Z</time>
      </trkpt>
      <trkpt lat="42.821187" lon="-0.304207">
        <ele>2163.134</ele>
        <time>2020-07-19T06:22:00Z</time>
      </trkpt>
      <trkpt lat="42.821182" lon="-0.304136">
        <ele>2165.296</ele>
        <time>2020-07-19T06:22:10Z</time>
      </trkpt>
      <trkpt lat="42.821149" lon="-0.304072">
        <ele>2166.486</ele>
        <time>2020-07-19T06:22:16Z</time>
      </trkpt>
      <trkpt lat="42.821120" lon="-0.304017">
        <ele>2166.488</ele>
        <time>2020-07-19T06:22:23Z</time>
      </trkpt>
      <trkpt lat="42.821098" lon="-0.303955">
        <ele>2166.214</ele>
        <time>2020-07-19T06:22:30Z</time>
      </trkpt>
      <trkpt lat="42.821074" lon="-0.303895">
        <ele>2166.834</ele>
        <time>2020-07-19T06:22:36Z</time>
      </trkpt>
      <trkpt lat="42.821056" lon="-0.303833">
        <ele>2167.855</ele>
        <time>2020-07-19T06:22:42Z</time>
      </trkpt>
      <trkpt lat="42.821039" lon="-0.303758">
        <ele>2169.510</ele>
        <time>2020-07-19T06:22:49Z</time>
      </trkpt>
      <trkpt lat="42.821035" lon="-0.303699">
        <ele>2168.208</ele>
        <time>2020-07-19T06:22:58Z</time>
      </trkpt>
      <trkpt lat="42.821074" lon="-0.303736">
        <ele>2172.418</ele>
        <time>2020-07-19T06:24:27Z</time>
      </trkpt>
      <trkpt lat="42.821115" lon="-0.303793">
        <ele>2172.746</ele>
        <time>2020-07-19T06:24:44Z</time>
      </trkpt>
      <trkpt lat="42.821150" lon="-0.303832">
        <ele>2173.999</ele>
        <time>2020-07-19T06:25:00Z</time>
      </trkpt>
      <trkpt lat="42.821190" lon="-0.303885">
        <ele>2171.766</ele>
        <time>2020-07-19T06:25:10Z</time>
      </trkpt>
      <trkpt lat="42.821236" lon="-0.303915">
        <ele>2176.928</ele>
        <time>2020-07-19T06:25:19Z</time>
      </trkpt>
      <trkpt lat="42.821285" lon="-0.303929">
        <ele>2176.628</ele>
        <time>2020-07-19T06:25:27Z</time>
      </trkpt>
      <trkpt lat="42.821318" lon="-0.303972">
        <ele>2176.370</ele>
        <time>2020-07-19T06:25:35Z</time>
      </trkpt>
      <trkpt lat="42.821337" lon="-0.304035">
        <ele>2180.936</ele>
        <time>2020-07-19T06:25:42Z</time>
      </trkpt>
      <trkpt lat="42.821360" lon="-0.304088">
        <ele>2179.849</ele>
        <time>2020-07-19T06:25:49Z</time>
      </trkpt>
      <trkpt lat="42.821389" lon="-0.304140">
        <ele>2182.102</ele>
        <time>2020-07-19T06:25:58Z</time>
      </trkpt>
      <trkpt lat="42.821405" lon="-0.304202">
        <ele>2180.822</ele>
        <time>2020-07-19T06:26:05Z</time>
      </trkpt>
      <trkpt lat="42.821411" lon="-0.304262">
        <ele>2182.608</ele>
        <time>2020-07-19T06:26:11Z</time>
      </trkpt>
      <trkpt lat="42.821425" lon="-0.304347">
        <ele>2182.999</ele>
        <time>2020-07-19T06:26:16Z</time>
      </trkpt>
      <trkpt lat="42.821425" lon="-0.304413">
        <ele>2184.427</ele>
        <time>2020-07-19T06:26:22Z</time>
      </trkpt>
      <trkpt lat="42.821451" lon="-0.304464">
        <ele>2184.930</ele>
        <time>2020-07-19T06:26:36Z</time>
      </trkpt>
      <trkpt lat="42.821479" lon="-0.304513">
        <ele>2186.667</ele>
        <time>2020-07-19T06:26:45Z</time>
      </trkpt>
      <trkpt lat="42.821499" lon="-0.304570">
        <ele>2186.729</ele>
        <time>2020-07-19T06:26:54Z</time>
      </trkpt>
      <trkpt lat="42.821529" lon="-0.304617">
        <ele>2187.399</ele>
        <time>2020-07-19T06:27:01Z</time>
      </trkpt>
      <trkpt lat="42.821566" lon="-0.304670">
        <ele>2188.191</ele>
        <time>2020-07-19T06:27:07Z</time>
      </trkpt>
      <trkpt lat="42.821597" lon="-0.304722">
        <ele>2189.227</ele>
        <time>2020-07-19T06:27:13Z</time>
      </trkpt>
      <trkpt lat="42.821611" lon="-0.304783">
        <ele>2187.173</ele>
        <time>2020-07-19T06:27:20Z</time>
      </trkpt>
      <trkpt lat="42.821619" lon="-0.304854">
        <ele>2188.485</ele>
        <time>2020-07-19T06:27:27Z</time>
      </trkpt>
      <trkpt lat="42.821636" lon="-0.304921">
        <ele>2190.113</ele>
        <time>2020-07-19T06:27:34Z</time>
      </trkpt>
      <trkpt lat="42.821657" lon="-0.304980">
        <ele>2189.908</ele>
        <time>2020-07-19T06:27:39Z</time>
      </trkpt>
      <trkpt lat="42.821691" lon="-0.305020">
        <ele>2189.952</ele>
        <time>2020-07-19T06:27:46Z</time>
      </trkpt>
      <trkpt lat="42.821729" lon="-0.305065">
        <ele>2190.830</ele>
        <time>2020-07-19T06:27:54Z</time>
      </trkpt>
      <trkpt lat="42.821769" lon="-0.305100">
        <ele>2190.863</ele>
        <time>2020-07-19T06:28:00Z</time>
      </trkpt>
      <trkpt lat="42.821803" lon="-0.305157">
        <ele>2191.640</ele>
        <time>2020-07-19T06:28:07Z</time>
      </trkpt>
      <trkpt lat="42.821837" lon="-0.305205">
        <ele>2192.422</ele>
        <time>2020-07-19T06:28:14Z</time>
      </trkpt>
      <trkpt lat="42.821848" lon="-0.305272">
        <ele>2192.962</ele>
        <time>2020-07-19T06:28:46Z</time>
      </trkpt>
      <trkpt lat="42.821870" lon="-0.305334">
        <ele>2193.854</ele>
        <time>2020-07-19T06:28:55Z</time>
      </trkpt>
      <trkpt lat="42.821879" lon="-0.305398">
        <ele>2194.870</ele>
        <time>2020-07-19T06:29:01Z</time>
      </trkpt>
      <trkpt lat="42.821870" lon="-0.305459">
        <ele>2195.185</ele>
        <time>2020-07-19T06:29:07Z</time>
      </trkpt>
      <trkpt lat="42.821844" lon="-0.305519">
        <ele>2195.389</ele>
        <time>2020-07-19T06:29:12Z</time>
      </trkpt>
      <trkpt lat="42.821823" lon="-0.305582">
        <ele>2195.517</ele>
        <time>2020-07-19T06:29:18Z</time>
      </trkpt>
      <trkpt lat="42.821819" lon="-0.305658">
        <ele>2195.508</ele>
        <time>2020-07-19T06:29:24Z</time>
      </trkpt>
      <trkpt lat="42.821816" lon="-0.305726">
        <ele>2195.433</ele>
        <time>2020-07-19T06:29:29Z</time>
      </trkpt>
      <trkpt lat="42.821791" lon="-0.305781">
        <ele>2195.531</ele>
        <time>2020-07-19T06:29:35Z</time>
      </trkpt>
      <trkpt lat="42.821767" lon="-0.305843">
        <ele>2195.774</ele>
        <time>2020-07-19T06:29:42Z</time>
      </trkpt>
      <trkpt lat="42.821764" lon="-0.305911">
        <ele>2196.411</ele>
        <time>2020-07-19T06:29:48Z</time>
      </trkpt>
      <trkpt lat="42.821767" lon="-0.305977">
        <ele>2195.393</ele>
        <time>2020-07-19T06:29:55Z</time>
      </trkpt>
      <trkpt lat="42.821779" lon="-0.306037">
        <ele>2195.813</ele>
        <time>2020-07-19T06:30:01Z</time>
      </trkpt>
      <trkpt lat="42.821808" lon="-0.306092">
        <ele>2196.775</ele>
        <time>2020-07-19T06:30:09Z</time>
      </trkpt>
      <trkpt lat="42.821849" lon="-0.306122">
        <ele>2199.241</ele>
        <time>2020-07-19T06:30:48Z</time>
      </trkpt>
      <trkpt lat="42.821868" lon="-0.306186">
        <ele>2199.366</ele>
        <time>2020-07-19T06:30:55Z</time>
      </trkpt>
      <trkpt lat="42.821881" lon="-0.306246">
        <ele>2200.529</ele>
        <time>2020-07-19T06:31:01Z</time>
      </trkpt>
      <trkpt lat="42.821890" lon="-0.306309">
        <ele>2198.721</ele>
        <time>2020-07-19T06:31:07Z</time>
      </trkpt>
      <trkpt lat="42.821902" lon="-0.306386">
        <ele>2197.708</ele>
        <time>2020-07-19T06:31:14Z</time>
      </trkpt>
      <trkpt lat="42.821893" lon="-0.306447">
        <ele>2201.731</ele>
        <time>2020-07-19T06:32:32Z</time>
      </trkpt>
      <trkpt lat="42.821892" lon="-0.306529">
        <ele>2201.099</ele>
        <time>2020-07-19T06:32:38Z</time>
      </trkpt>
      <trkpt lat="42.821897" lon="-0.306605">
        <ele>2201.462</ele>
        <time>2020-07-19T06:32:43Z</time>
      </trkpt>
      <trkpt lat="42.821897" lon="-0.306667">
        <ele>2201.039</ele>
        <time>2020-07-19T06:32:46Z</time>
      </trkpt>
      <trkpt lat="42.821893" lon="-0.306739">
        <ele>2200.361</ele>
        <time>2020-07-19T06:32:50Z</time>
      </trkpt>
      <trkpt lat="42.821886" lon="-0.306806">
        <ele>2201.071</ele>
        <time>2020-07-19T06:32:56Z</time>
      </trkpt>
      <trkpt lat="42.821887" lon="-0.306873">
        <ele>2200.343</ele>
        <time>2020-07-19T06:33:00Z</time>
      </trkpt>
      <trkpt lat="42.821888" lon="-0.306945">
        <ele>2201.239</ele>
        <time>2020-07-19T06:33:06Z</time>
      </trkpt>
      <trkpt lat="42.821896" lon="-0.307008">
        <ele>2201.313</ele>
        <time>2020-07-19T06:33:13Z</time>
      </trkpt>
      <trkpt lat="42.821880" lon="-0.307078">
        <ele>2201.243</ele>
        <time>2020-07-19T06:33:21Z</time>
      </trkpt>
      <trkpt lat="42.821869" lon="-0.307138">
        <ele>2200.307</ele>
        <time>2020-07-19T06:33:26Z</time>
      </trkpt>
      <trkpt lat="42.821861" lon="-0.307204">
        <ele>2201.008</ele>
        <time>2020-07-19T06:33:31Z</time>
      </trkpt>
      <trkpt lat="42.821870" lon="-0.307269">
        <ele>2200.436</ele>
        <time>2020-07-19T06:33:36Z</time>
      </trkpt>
      <trkpt lat="42.821863" lon="-0.307335">
        <ele>2200.554</ele>
        <time>2020-07-19T06:33:43Z</time>
      </trkpt>
      <trkpt lat="42.821858" lon="-0.307405">
        <ele>2200.767</ele>
        <time>2020-07-19T06:33:47Z</time>
      </trkpt>
      <trkpt lat="42.821846" lon="-0.307466">
        <ele>2200.184</ele>
        <time>2020-07-19T06:33:54Z</time>
      </trkpt>
      <trkpt lat="42.821842" lon="-0.307530">
        <ele>2199.156</ele>
        <time>2020-07-19T06:33:59Z</time>
      </trkpt>
      <trkpt lat="42.821824" lon="-0.307601">
        <ele>2199.286</ele>
        <time>2020-07-19T06:34:06Z</time>
      </trkpt>
      <trkpt lat="42.821826" lon="-0.307667">
        <ele>2198.928</ele>
        <time>2020-07-19T06:34:13Z</time>
      </trkpt>
      <trkpt lat="42.821821" lon="-0.307738">
        <ele>2197.614</ele>
        <time>2020-07-19T06:34:20Z</time>
      </trkpt>
      <trkpt lat="42.821819" lon="-0.307800">
        <ele>2197.257</ele>
        <time>2020-07-19T06:34:26Z</time>
      </trkpt>
      <trkpt lat="42.821823" lon="-0.307868">
        <ele>2197.300</ele>
        <time>2020-07-19T06:34:34Z</time>
      </trkpt>
      <trkpt lat="42.821839" lon="-0.307932">
        <ele>2195.120</ele>
        <time>2020-07-19T06:34:43Z</time>
      </trkpt>
      <trkpt lat="42.821844" lon="-0.307994">
        <ele>2195.708</ele>
        <time>2020-07-19T06:36:18Z</time>
      </trkpt>
      <trkpt lat="42.821848" lon="-0.308073">
        <ele>2194.950</ele>
        <time>2020-07-19T06:36:25Z</time>
      </trkpt>
      <trkpt lat="42.821858" lon="-0.308148">
        <ele>2194.598</ele>
        <time>2020-07-19T06:36:30Z</time>
      </trkpt>
      <trkpt lat="42.821887" lon="-0.308211">
        <ele>2195.631</ele>
        <time>2020-07-19T06:36:37Z</time>
      </trkpt>
      <trkpt lat="42.821905" lon="-0.308267">
        <ele>2195.478</ele>
        <time>2020-07-19T06:36:42Z</time>
      </trkpt>
      <trkpt lat="42.821917" lon="-0.308328">
        <ele>2195.610</ele>
        <time>2020-07-19T06:36:45Z</time>
      </trkpt>
      <trkpt lat="42.821937" lon="-0.308398">
        <ele>2195.480</ele>
        <time>2020-07-19T06:36:52Z</time>
      </trkpt>
      <trkpt lat="42.821958" lon="-0.308461">
        <ele>2195.292</ele>
        <time>2020-07-19T06:36:57Z</time>
      </trkpt>
      <trkpt lat="42.821976" lon="-0.308530">
        <ele>2194.178</ele>
        <time>2020-07-19T06:37:02Z</time>
      </trkpt>
      <trkpt lat="42.821989" lon="-0.308601">
        <ele>2196.412</ele>
        <time>2020-07-19T06:37:11Z</time>
      </trkpt>
      <trkpt lat="42.821993" lon="-0.308669">
        <ele>2195.832</ele>
        <time>2020-07-19T06:37:18Z</time>
      </trkpt>
      <trkpt lat="42.822013" lon="-0.308730">
        <ele>2197.005</ele>
        <time>2020-07-19T06:37:22Z</time>
      </trkpt>
      <trkpt lat="42.822034" lon="-0.308801">
        <ele>2197.808</ele>
        <time>2020-07-19T06:37:30Z</time>
      </trkpt>
      <trkpt lat="42.822044" lon="-0.308861">
        <ele>2197.566</ele>
        <time>2020-07-19T06:37:34Z</time>
      </trkpt>
      <trkpt lat="42.822060" lon="-0.308921">
        <ele>2197.924</ele>
        <time>2020-07-19T06:37:41Z</time>
      </trkpt>
      <trkpt lat="42.822077" lon="-0.308983">
        <ele>2197.367</ele>
        <time>2020-07-19T06:37:48Z</time>
      </trkpt>
      <trkpt lat="42.822079" lon="-0.309052">
        <ele>2198.914</ele>
        <time>2020-07-19T06:37:54Z</time>
      </trkpt>
      <trkpt lat="42.822073" lon="-0.309118">
        <ele>2199.246</ele>
        <time>2020-07-19T06:38:01Z</time>
      </trkpt>
      <trkpt lat="42.822091" lon="-0.309184">
        <ele>2199.856</ele>
        <time>2020-07-19T06:38:06Z</time>
      </trkpt>
      <trkpt lat="42.822116" lon="-0.309240">
        <ele>2199.918</ele>
        <time>2020-07-19T06:38:14Z</time>
      </trkpt>
      <trkpt lat="42.822146" lon="-0.309293">
        <ele>2200.114</ele>
        <time>2020-07-19T06:38:21Z</time>
      </trkpt>
      <trkpt lat="42.822161" lon="-0.309364">
        <ele>2201.051</ele>
        <time>2020-07-19T06:38:27Z</time>
      </trkpt>
      <trkpt lat="42.822189" lon="-0.309433">
        <ele>2201.201</ele>
        <time>2020-07-19T06:38:34Z</time>
      </trkpt>
      <trkpt lat="42.822214" lon="-0.309490">
        <ele>2201.111</ele>
        <time>2020-07-19T06:38:39Z</time>
      </trkpt>
      <trkpt lat="42.822234" lon="-0.309548">
        <ele>2201.008</ele>
        <time>2020-07-19T06:38:47Z</time>
      </trkpt>
      <trkpt lat="42.822251" lon="-0.309616">
        <ele>2201.140</ele>
        <time>2020-07-19T06:38:53Z</time>
      </trkpt>
      <trkpt lat="42.822271" lon="-0.309679">
        <ele>2201.178</ele>
        <time>2020-07-19T06:38:58Z</time>
      </trkpt>
      <trkpt lat="42.822299" lon="-0.309738">
        <ele>2200.841</ele>
        <time>2020-07-19T06:39:03Z</time>
      </trkpt>
      <trkpt lat="42.822324" lon="-0.309795">
        <ele>2200.478</ele>
        <time>2020-07-19T06:39:08Z</time>
      </trkpt>
      <trkpt lat="42.822352" lon="-0.309855">
        <ele>2201.780</ele>
        <time>2020-07-19T06:39:14Z</time>
      </trkpt>
      <trkpt lat="42.822381" lon="-0.309914">
        <ele>2201.610</ele>
        <time>2020-07-19T06:39:22Z</time>
      </trkpt>
      <trkpt lat="42.822415" lon="-0.309973">
        <ele>2201.262</ele>
        <time>2020-07-19T06:39:29Z</time>
      </trkpt>
      <trkpt lat="42.822435" lon="-0.310036">
        <ele>2200.928</ele>
        <time>2020-07-19T06:39:36Z</time>
      </trkpt>
      <trkpt lat="42.822450" lon="-0.310096">
        <ele>2200.949</ele>
        <time>2020-07-19T06:39:41Z</time>
      </trkpt>
      <trkpt lat="42.822475" lon="-0.310151">
        <ele>2201.302</ele>
        <time>2020-07-19T06:42:09Z</time>
      </trkpt>
      <trkpt lat="42.822491" lon="-0.310223">
        <ele>2200.522</ele>
        <time>2020-07-19T06:42:34Z</time>
      </trkpt>
      <trkpt lat="42.822503" lon="-0.310291">
        <ele>2201.808</ele>
        <time>2020-07-19T06:42:39Z</time>
      </trkpt>
      <trkpt lat="42.822513" lon="-0.310369">
        <ele>2201.899</ele>
        <time>2020-07-19T06:42:46Z</time>
      </trkpt>
      <trkpt lat="42.822529" lon="-0.310428">
        <ele>2201.597</ele>
        <time>2020-07-19T06:42:50Z</time>
      </trkpt>
      <trkpt lat="42.822550" lon="-0.310483">
        <ele>2201.880</ele>
        <time>2020-07-19T06:42:55Z</time>
      </trkpt>
      <trkpt lat="42.822557" lon="-0.310545">
        <ele>2200.717</ele>
        <time>2020-07-19T06:43:00Z</time>
      </trkpt>
      <trkpt lat="42.822587" lon="-0.310596">
        <ele>2201.469</ele>
        <time>2020-07-19T06:43:04Z</time>
      </trkpt>
      <trkpt lat="42.822610" lon="-0.310663">
        <ele>2202.179</ele>
        <time>2020-07-19T06:43:11Z</time>
      </trkpt>
      <trkpt lat="42.822626" lon="-0.310721">
        <ele>2202.471</ele>
        <time>2020-07-19T06:43:15Z</time>
      </trkpt>
      <trkpt lat="42.822643" lon="-0.310779">
        <ele>2202.367</ele>
        <time>2020-07-19T06:43:21Z</time>
      </trkpt>
      <trkpt lat="42.822661" lon="-0.310838">
        <ele>2201.842</ele>
        <time>2020-07-19T06:43:31Z</time>
      </trkpt>
      <trkpt lat="42.822688" lon="-0.310899">
        <ele>2201.522</ele>
        <time>2020-07-19T06:43:38Z</time>
      </trkpt>
      <trkpt lat="42.822709" lon="-0.310959">
        <ele>2201.514</ele>
        <time>2020-07-19T06:43:43Z</time>
      </trkpt>
      <trkpt lat="42.822732" lon="-0.311014">
        <ele>2201.008</ele>
        <time>2020-07-19T06:43:47Z</time>
      </trkpt>
      <trkpt lat="42.822757" lon="-0.311066">
        <ele>2201.039</ele>
        <time>2020-07-19T06:43:53Z</time>
      </trkpt>
      <trkpt lat="42.822778" lon="-0.311121">
        <ele>2200.617</ele>
        <time>2020-07-19T06:44:01Z</time>
      </trkpt>
      <trkpt lat="42.822789" lon="-0.311194">
        <ele>2200.870</ele>
        <time>2020-07-19T06:44:23Z</time>
      </trkpt>
      <trkpt lat="42.822809" lon="-0.311250">
        <ele>2200.197</ele>
        <time>2020-07-19T06:44:29Z</time>
      </trkpt>
      <trkpt lat="42.822837" lon="-0.311309">
        <ele>2199.459</ele>
        <time>2020-07-19T06:44:34Z</time>
      </trkpt>
      <trkpt lat="42.822860" lon="-0.311368">
        <ele>2198.769</ele>
        <time>2020-07-19T06:44:38Z</time>
      </trkpt>
      <trkpt lat="42.822879" lon="-0.311426">
        <ele>2198.571</ele>
        <time>2020-07-19T06:44:45Z</time>
      </trkpt>
      <trkpt lat="42.822904" lon="-0.311494">
        <ele>2197.597</ele>
        <time>2020-07-19T06:44:53Z</time>
      </trkpt>
      <trkpt lat="42.822907" lon="-0.311564">
        <ele>2196.617</ele>
        <time>2020-07-19T06:45:10Z</time>
      </trkpt>
      <trkpt lat="42.822917" lon="-0.311634">
        <ele>2196.387</ele>
        <time>2020-07-19T06:45:16Z</time>
      </trkpt>
      <trkpt lat="42.822932" lon="-0.311701">
        <ele>2195.715</ele>
        <time>2020-07-19T06:45:24Z</time>
      </trkpt>
      <trkpt lat="42.822947" lon="-0.311759">
        <ele>2195.408</ele>
        <time>2020-07-19T06:45:30Z</time>
      </trkpt>
      <trkpt lat="42.822947" lon="-0.311830">
        <ele>2195.346</ele>
        <time>2020-07-19T06:45:44Z</time>
      </trkpt>
      <trkpt lat="42.822950" lon="-0.311894">
        <ele>2192.364</ele>
        <time>2020-07-19T06:45:51Z</time>
      </trkpt>
      <trkpt lat="42.822977" lon="-0.311945">
        <ele>2195.017</ele>
        <time>2020-07-19T06:46:00Z</time>
      </trkpt>
      <trkpt lat="42.823017" lon="-0.311993">
        <ele>2194.624</ele>
        <time>2020-07-19T06:46:08Z</time>
      </trkpt>
      <trkpt lat="42.823023" lon="-0.312063">
        <ele>2193.416</ele>
        <time>2020-07-19T06:46:14Z</time>
      </trkpt>
      <trkpt lat="42.823018" lon="-0.312138">
        <ele>2192.626</ele>
        <time>2020-07-19T06:46:18Z</time>
      </trkpt>
      <trkpt lat="42.823032" lon="-0.312203">
        <ele>2193.458</ele>
        <time>2020-07-19T06:46:24Z</time>
      </trkpt>
      <trkpt lat="42.823044" lon="-0.312273">
        <ele>2192.434</ele>
        <time>2020-07-19T06:46:29Z</time>
      </trkpt>
      <trkpt lat="42.823061" lon="-0.312333">
        <ele>2191.738</ele>
        <time>2020-07-19T06:46:34Z</time>
      </trkpt>
      <trkpt lat="42.823075" lon="-0.312396">
        <ele>2192.170</ele>
        <time>2020-07-19T06:46:39Z</time>
      </trkpt>
      <trkpt lat="42.823088" lon="-0.312468">
        <ele>2191.417</ele>
        <time>2020-07-19T06:46:47Z</time>
      </trkpt>
      <trkpt lat="42.823088" lon="-0.312541">
        <ele>2190.908</ele>
        <time>2020-07-19T06:46:53Z</time>
      </trkpt>
      <trkpt lat="42.823091" lon="-0.312618">
        <ele>2190.358</ele>
        <time>2020-07-19T06:47:00Z</time>
      </trkpt>
      <trkpt lat="42.823107" lon="-0.312680">
        <ele>2189.436</ele>
        <time>2020-07-19T06:47:08Z</time>
      </trkpt>
      <trkpt lat="42.823107" lon="-0.312743">
        <ele>2188.129</ele>
        <time>2020-07-19T06:47:15Z</time>
      </trkpt>
      <trkpt lat="42.823138" lon="-0.312789">
        <ele>2187.246</ele>
        <time>2020-07-19T06:47:47Z</time>
      </trkpt>
      <trkpt lat="42.823162" lon="-0.312842">
        <ele>2187.068</ele>
        <time>2020-07-19T06:47:54Z</time>
      </trkpt>
      <trkpt lat="42.823183" lon="-0.312907">
        <ele>2185.418</ele>
        <time>2020-07-19T06:48:23Z</time>
      </trkpt>
      <trkpt lat="42.823203" lon="-0.312964">
        <ele>2185.270</ele>
        <time>2020-07-19T06:48:28Z</time>
      </trkpt>
      <trkpt lat="42.823216" lon="-0.313029">
        <ele>2184.446</ele>
        <time>2020-07-19T06:48:54Z</time>
      </trkpt>
      <trkpt lat="42.823239" lon="-0.313096">
        <ele>2184.462</ele>
        <time>2020-07-19T06:49:03Z</time>
      </trkpt>
      <trkpt lat="42.823257" lon="-0.313154">
        <ele>2184.483</ele>
        <time>2020-07-19T06:49:10Z</time>
      </trkpt>
      <trkpt lat="42.823266" lon="-0.313221">
        <ele>2183.411</ele>
        <time>2020-07-19T06:49:18Z</time>
      </trkpt>
      <trkpt lat="42.823264" lon="-0.313294">
        <ele>2182.808</ele>
        <time>2020-07-19T06:49:25Z</time>
      </trkpt>
      <trkpt lat="42.823274" lon="-0.313361">
        <ele>2183.451</ele>
        <time>2020-07-19T06:49:30Z</time>
      </trkpt>
      <trkpt lat="42.823279" lon="-0.313424">
        <ele>2183.459</ele>
        <time>2020-07-19T06:49:34Z</time>
      </trkpt>
      <trkpt lat="42.823293" lon="-0.313485">
        <ele>2182.892</ele>
        <time>2020-07-19T06:49:41Z</time>
      </trkpt>
      <trkpt lat="42.823318" lon="-0.313549">
        <ele>2181.879</ele>
        <time>2020-07-19T06:49:46Z</time>
      </trkpt>
      <trkpt lat="42.823347" lon="-0.313597">
        <ele>2181.921</ele>
        <time>2020-07-19T06:49:53Z</time>
      </trkpt>
      <trkpt lat="42.823371" lon="-0.313665">
        <ele>2181.361</ele>
        <time>2020-07-19T06:50:01Z</time>
      </trkpt>
      <trkpt lat="42.823380" lon="-0.313727">
        <ele>2180.693</ele>
        <time>2020-07-19T06:50:07Z</time>
      </trkpt>
      <trkpt lat="42.823381" lon="-0.313800">
        <ele>2180.419</ele>
        <time>2020-07-19T06:50:15Z</time>
      </trkpt>
      <trkpt lat="42.823377" lon="-0.313864">
        <ele>2179.982</ele>
        <time>2020-07-19T06:50:24Z</time>
      </trkpt>
      <trkpt lat="42.823385" lon="-0.313926">
        <ele>2178.943</ele>
        <time>2020-07-19T06:50:31Z</time>
      </trkpt>
      <trkpt lat="42.823382" lon="-0.313987">
        <ele>2178.917</ele>
        <time>2020-07-19T06:50:36Z</time>
      </trkpt>
      <trkpt lat="42.823382" lon="-0.314067">
        <ele>2178.608</ele>
        <time>2020-07-19T06:50:43Z</time>
      </trkpt>
      <trkpt lat="42.823380" lon="-0.314132">
        <ele>2177.913</ele>
        <time>2020-07-19T06:50:49Z</time>
      </trkpt>
      <trkpt lat="42.823396" lon="-0.314197">
        <ele>2177.041</ele>
        <time>2020-07-19T06:50:55Z</time>
      </trkpt>
      <trkpt lat="42.823421" lon="-0.314262">
        <ele>2178.084</ele>
        <time>2020-07-19T06:51:02Z</time>
      </trkpt>
      <trkpt lat="42.823437" lon="-0.314319">
        <ele>2177.091</ele>
        <time>2020-07-19T06:51:08Z</time>
      </trkpt>
      <trkpt lat="42.823467" lon="-0.314372">
        <ele>2176.323</ele>
        <time>2020-07-19T06:51:16Z</time>
      </trkpt>
      <trkpt lat="42.823499" lon="-0.314429">
        <ele>2175.843</ele>
        <time>2020-07-19T06:51:22Z</time>
      </trkpt>
      <trkpt lat="42.823525" lon="-0.314483">
        <ele>2175.295</ele>
        <time>2020-07-19T06:51:28Z</time>
      </trkpt>
      <trkpt lat="42.823556" lon="-0.314536">
        <ele>2176.941</ele>
        <time>2020-07-19T06:51:35Z</time>
      </trkpt>
      <trkpt lat="42.823579" lon="-0.314593">
        <ele>2176.183</ele>
        <time>2020-07-19T06:51:41Z</time>
      </trkpt>
      <trkpt lat="42.823596" lon="-0.314657">
        <ele>2176.425</ele>
        <time>2020-07-19T06:51:49Z</time>
      </trkpt>
      <trkpt lat="42.823600" lon="-0.314722">
        <ele>2175.617</ele>
        <time>2020-07-19T06:52:24Z</time>
      </trkpt>
      <trkpt lat="42.823631" lon="-0.314783">
        <ele>2176.408</ele>
        <time>2020-07-19T06:52:29Z</time>
      </trkpt>
      <trkpt lat="42.823651" lon="-0.314854">
        <ele>2176.083</ele>
        <time>2020-07-19T06:52:36Z</time>
      </trkpt>
      <trkpt lat="42.823659" lon="-0.314929">
        <ele>2176.831</ele>
        <time>2020-07-19T06:52:42Z</time>
      </trkpt>
      <trkpt lat="42.823688" lon="-0.314991">
        <ele>2177.184</ele>
        <time>2020-07-19T06:52:47Z</time>
      </trkpt>
      <trkpt lat="42.823706" lon="-0.315054">
        <ele>2176.081</ele>
        <time>2020-07-19T06:52:53Z</time>
      </trkpt>
      <trkpt lat="42.823714" lon="-0.315130">
        <ele>2175.253</ele>
        <time>2020-07-19T06:53:00Z</time>
      </trkpt>
      <trkpt lat="42.823724" lon="-0.315204">
        <ele>2174.643</ele>
        <time>2020-07-19T06:53:08Z</time>
      </trkpt>
      <trkpt lat="42.823731" lon="-0.315267">
        <ele>2173.845</ele>
        <time>2020-07-19T06:53:13Z</time>
      </trkpt>
      <trkpt lat="42.823726" lon="-0.315331">
        <ele>2173.041</ele>
        <time>2020-07-19T06:53:21Z</time>
      </trkpt>
      <trkpt lat="42.823730" lon="-0.315395">
        <ele>2172.394</ele>
        <time>2020-07-19T06:53:29Z</time>
      </trkpt>
      <trkpt lat="42.823721" lon="-0.315459">
        <ele>2171.857</ele>
        <time>2020-07-19T06:53:37Z</time>
      </trkpt>
      <trkpt lat="42.823739" lon="-0.315522">
        <ele>2171.222</ele>
        <time>2020-07-19T06:53:41Z</time>
      </trkpt>
      <trkpt lat="42.823768" lon="-0.315593">
        <ele>2169.908</ele>
        <time>2020-07-19T06:53:48Z</time>
      </trkpt>
      <trkpt lat="42.823789" lon="-0.315654">
        <ele>2169.084</ele>
        <time>2020-07-19T06:53:56Z</time>
      </trkpt>
      <trkpt lat="42.823798" lon="-0.315715">
        <ele>2167.832</ele>
        <time>2020-07-19T06:54:02Z</time>
      </trkpt>
      <trkpt lat="42.823801" lon="-0.315787">
        <ele>2166.695</ele>
        <time>2020-07-19T06:54:11Z</time>
      </trkpt>
      <trkpt lat="42.823799" lon="-0.315857">
        <ele>2165.352</ele>
        <time>2020-07-19T06:54:19Z</time>
      </trkpt>
      <trkpt lat="42.823803" lon="-0.315912">
        <ele>2165.074</ele>
        <time>2020-07-19T06:54:27Z</time>
      </trkpt>
      <trkpt lat="42.823841" lon="-0.315962">
        <ele>2162.194</ele>
        <time>2020-07-19T06:55:20Z</time>
      </trkpt>
      <trkpt lat="42.823876" lon="-0.316022">
        <ele>2160.946</ele>
        <time>2020-07-19T06:55:26Z</time>
      </trkpt>
      <trkpt lat="42.823913" lon="-0.316064">
        <ele>2160.772</ele>
        <time>2020-07-19T06:55:31Z</time>
      </trkpt>
      <trkpt lat="42.823950" lon="-0.316103">
        <ele>2159.711</ele>
        <time>2020-07-19T06:55:36Z</time>
      </trkpt>
      <trkpt lat="42.823957" lon="-0.316164">
        <ele>2158.821</ele>
        <time>2020-07-19T06:55:46Z</time>
      </trkpt>
      <trkpt lat="42.823956" lon="-0.316229">
        <ele>2158.303</ele>
        <time>2020-07-19T06:55:54Z</time>
      </trkpt>
      <trkpt lat="42.823950" lon="-0.316297">
        <ele>2157.208</ele>
        <time>2020-07-19T06:56:00Z</time>
      </trkpt>
      <trkpt lat="42.823949" lon="-0.316370">
        <ele>2156.996</ele>
        <time>2020-07-19T06:56:08Z</time>
      </trkpt>
      <trkpt lat="42.823978" lon="-0.316425">
        <ele>2155.994</ele>
        <time>2020-07-19T06:56:15Z</time>
      </trkpt>
      <trkpt lat="42.824001" lon="-0.316480">
        <ele>2154.977</ele>
        <time>2020-07-19T06:56:21Z</time>
      </trkpt>
      <trkpt lat="42.824050" lon="-0.316509">
        <ele>2154.334</ele>
        <time>2020-07-19T06:56:29Z</time>
      </trkpt>
      <trkpt lat="42.824084" lon="-0.316559">
        <ele>2153.536</ele>
        <time>2020-07-19T06:56:36Z</time>
      </trkpt>
      <trkpt lat="42.824100" lon="-0.316622">
        <ele>2152.986</ele>
        <time>2020-07-19T06:56:43Z</time>
      </trkpt>
      <trkpt lat="42.824136" lon="-0.316685">
        <ele>2152.058</ele>
        <time>2020-07-19T06:56:51Z</time>
      </trkpt>
      <trkpt lat="42.824172" lon="-0.316740">
        <ele>2150.614</ele>
        <time>2020-07-19T06:56:57Z</time>
      </trkpt>
      <trkpt lat="42.824210" lon="-0.316790">
        <ele>2150.949</ele>
        <time>2020-07-19T06:57:02Z</time>
      </trkpt>
      <trkpt lat="42.824236" lon="-0.316848">
        <ele>2150.102</ele>
        <time>2020-07-19T06:57:08Z</time>
      </trkpt>
      <trkpt lat="42.824268" lon="-0.316909">
        <ele>2150.722</ele>
        <time>2020-07-19T06:57:16Z</time>
      </trkpt>
      <trkpt lat="42.824275" lon="-0.316981">
        <ele>2152.308</ele>
        <time>2020-07-19T06:57:23Z</time>
      </trkpt>
      <trkpt lat="42.824282" lon="-0.317044">
        <ele>2152.879</ele>
        <time>2020-07-19T06:57:29Z</time>
      </trkpt>
      <trkpt lat="42.824278" lon="-0.317105">
        <ele>2152.587</ele>
        <time>2020-07-19T06:57:34Z</time>
      </trkpt>
      <trkpt lat="42.824288" lon="-0.317168">
        <ele>2154.560</ele>
        <time>2020-07-19T06:57:41Z</time>
      </trkpt>
      <trkpt lat="42.824310" lon="-0.317225">
        <ele>2154.427</ele>
        <time>2020-07-19T06:57:48Z</time>
      </trkpt>
      <trkpt lat="42.824319" lon="-0.317288">
        <ele>2155.219</ele>
        <time>2020-07-19T06:57:54Z</time>
      </trkpt>
      <trkpt lat="42.824332" lon="-0.317360">
        <ele>2153.659</ele>
        <time>2020-07-19T06:58:01Z</time>
      </trkpt>
      <trkpt lat="42.824347" lon="-0.317418">
        <ele>2155.321</ele>
        <time>2020-07-19T06:58:07Z</time>
      </trkpt>
      <trkpt lat="42.824381" lon="-0.317472">
        <ele>2157.087</ele>
        <time>2020-07-19T06:58:22Z</time>
      </trkpt>
      <trkpt lat="42.824386" lon="-0.317534">
        <ele>2157.171</ele>
        <time>2020-07-19T06:58:28Z</time>
      </trkpt>
      <trkpt lat="42.824384" lon="-0.317605">
        <ele>2157.941</ele>
        <time>2020-07-19T06:58:36Z</time>
      </trkpt>
      <trkpt lat="42.824404" lon="-0.317664">
        <ele>2158.615</ele>
        <time>2020-07-19T06:58:43Z</time>
      </trkpt>
      <trkpt lat="42.824419" lon="-0.317730">
        <ele>2159.608</ele>
        <time>2020-07-19T06:58:50Z</time>
      </trkpt>
      <trkpt lat="42.824425" lon="-0.317804">
        <ele>2159.482</ele>
        <time>2020-07-19T06:59:01Z</time>
      </trkpt>
      <trkpt lat="42.824429" lon="-0.317867">
        <ele>2160.650</ele>
        <time>2020-07-19T06:59:08Z</time>
      </trkpt>
      <trkpt lat="42.824457" lon="-0.317918">
        <ele>2160.693</ele>
        <time>2020-07-19T06:59:14Z</time>
      </trkpt>
      <trkpt lat="42.824487" lon="-0.317976">
        <ele>2160.860</ele>
        <time>2020-07-19T06:59:21Z</time>
      </trkpt>
      <trkpt lat="42.824513" lon="-0.318032">
        <ele>2160.222</ele>
        <time>2020-07-19T06:59:27Z</time>
      </trkpt>
      <trkpt lat="42.824546" lon="-0.318078">
        <ele>2161.922</ele>
        <time>2020-07-19T06:59:33Z</time>
      </trkpt>
      <trkpt lat="42.824568" lon="-0.318132">
        <ele>2161.674</ele>
        <time>2020-07-19T06:59:38Z</time>
      </trkpt>
      <trkpt lat="42.824583" lon="-0.318190">
        <ele>2162.580</ele>
        <time>2020-07-19T06:59:44Z</time>
      </trkpt>
      <trkpt lat="42.824582" lon="-0.318257">
        <ele>2164.298</ele>
        <time>2020-07-19T06:59:52Z</time>
      </trkpt>
      <trkpt lat="42.824606" lon="-0.318317">
        <ele>2163.215</ele>
        <time>2020-07-19T07:00:04Z</time>
      </trkpt>
      <trkpt lat="42.824628" lon="-0.318376">
        <ele>2166.026</ele>
        <time>2020-07-19T07:00:12Z</time>
      </trkpt>
      <trkpt lat="42.824653" lon="-0.318429">
        <ele>2165.108</ele>
        <time>2020-07-19T07:00:21Z</time>
      </trkpt>
      <trkpt lat="42.824685" lon="-0.318478">
        <ele>2164.934</ele>
        <time>2020-07-19T07:00:27Z</time>
      </trkpt>
      <trkpt lat="42.824723" lon="-0.318514">
        <ele>2168.072</ele>
        <time>2020-07-19T07:00:34Z</time>
      </trkpt>
      <trkpt lat="42.824758" lon="-0.318559">
        <ele>2169.445</ele>
        <time>2020-07-19T07:02:46Z</time>
      </trkpt>
      <trkpt lat="42.824767" lon="-0.318620">
        <ele>2170.412</ele>
        <time>2020-07-19T07:02:53Z</time>
      </trkpt>
      <trkpt lat="42.824788" lon="-0.318681">
        <ele>2170.714</ele>
        <time>2020-07-19T07:02:59Z</time>
      </trkpt>
      <trkpt lat="42.824775" lon="-0.318744">
        <ele>2170.574</ele>
        <time>2020-07-19T07:03:42Z</time>
      </trkpt>
      <trkpt lat="42.824798" lon="-0.318801">
        <ele>2171.476</ele>
        <time>2020-07-19T07:03:47Z</time>
      </trkpt>
      <trkpt lat="42.824819" lon="-0.318865">
        <ele>2173.462</ele>
        <time>2020-07-19T07:03:56Z</time>
      </trkpt>
      <trkpt lat="42.824857" lon="-0.318908">
        <ele>2173.675</ele>
        <time>2020-07-19T07:04:01Z</time>
      </trkpt>
      <trkpt lat="42.824901" lon="-0.318940">
        <ele>2173.928</ele>
        <time>2020-07-19T07:04:07Z</time>
      </trkpt>
      <trkpt lat="42.824928" lon="-0.318992">
        <ele>2174.520</ele>
        <time>2020-07-19T07:04:13Z</time>
      </trkpt>
      <trkpt lat="42.824927" lon="-0.319061">
        <ele>2173.608</ele>
        <time>2020-07-19T07:04:21Z</time>
      </trkpt>
      <trkpt lat="42.824928" lon="-0.319131">
        <ele>2174.852</ele>
        <time>2020-07-19T07:04:28Z</time>
      </trkpt>
      <trkpt lat="42.824941" lon="-0.319197">
        <ele>2176.190</ele>
        <time>2020-07-19T07:04:35Z</time>
      </trkpt>
      <trkpt lat="42.824955" lon="-0.319258">
        <ele>2174.923</ele>
        <time>2020-07-19T07:04:41Z</time>
      </trkpt>
      <trkpt lat="42.824964" lon="-0.319325">
        <ele>2175.410</ele>
        <time>2020-07-19T07:04:48Z</time>
      </trkpt>
      <trkpt lat="42.824966" lon="-0.319389">
        <ele>2177.342</ele>
        <time>2020-07-19T07:04:54Z</time>
      </trkpt>
      <trkpt lat="42.824973" lon="-0.319452">
        <ele>2177.662</ele>
        <time>2020-07-19T07:05:01Z</time>
      </trkpt>
      <trkpt lat="42.824968" lon="-0.319515">
        <ele>2176.764</ele>
        <time>2020-07-19T07:05:09Z</time>
      </trkpt>
      <trkpt lat="42.824986" lon="-0.319571">
        <ele>2178.180</ele>
        <time>2020-07-19T07:05:18Z</time>
      </trkpt>
      <trkpt lat="42.824995" lon="-0.319633">
        <ele>2177.985</ele>
        <time>2020-07-19T07:05:28Z</time>
      </trkpt>
      <trkpt lat="42.824994" lon="-0.319696">
        <ele>2177.889</ele>
        <time>2020-07-19T07:05:33Z</time>
      </trkpt>
      <trkpt lat="42.824998" lon="-0.319760">
        <ele>2179.217</ele>
        <time>2020-07-19T07:05:38Z</time>
      </trkpt>
      <trkpt lat="42.824998" lon="-0.319828">
        <ele>2179.708</ele>
        <time>2020-07-19T07:05:44Z</time>
      </trkpt>
      <trkpt lat="42.825008" lon="-0.319889">
        <ele>2179.113</ele>
        <time>2020-07-19T07:05:50Z</time>
      </trkpt>
      <trkpt lat="42.825037" lon="-0.319928">
        <ele>2178.411</ele>
        <time>2020-07-19T07:06:14Z</time>
      </trkpt>
      <trkpt lat="42.825081" lon="-0.319966">
        <ele>2178.714</ele>
        <time>2020-07-19T07:06:21Z</time>
      </trkpt>
      <trkpt lat="42.825127" lon="-0.320007">
        <ele>2178.711</ele>
        <time>2020-07-19T07:06:28Z</time>
      </trkpt>
      <trkpt lat="42.825166" lon="-0.320055">
        <ele>2178.683</ele>
        <time>2020-07-19T07:06:33Z</time>
      </trkpt>
      <trkpt lat="42.825195" lon="-0.320103">
        <ele>2178.063</ele>
        <time>2020-07-19T07:06:38Z</time>
      </trkpt>
      <trkpt lat="42.825222" lon="-0.320161">
        <ele>2177.685</ele>
        <time>2020-07-19T07:06:43Z</time>
      </trkpt>
      <trkpt lat="42.825246" lon="-0.320225">
        <ele>2178.071</ele>
        <time>2020-07-19T07:06:49Z</time>
      </trkpt>
      <trkpt lat="42.825282" lon="-0.320274">
        <ele>2177.841</ele>
        <time>2020-07-19T07:06:56Z</time>
      </trkpt>
      <trkpt lat="42.825320" lon="-0.320327">
        <ele>2176.981</ele>
        <time>2020-07-19T07:07:26Z</time>
      </trkpt>
      <trkpt lat="42.825353" lon="-0.320382">
        <ele>2177.809</ele>
        <time>2020-07-19T07:07:32Z</time>
      </trkpt>
      <trkpt lat="42.825383" lon="-0.320441">
        <ele>2179.908</ele>
        <time>2020-07-19T07:07:38Z</time>
      </trkpt>
      <trkpt lat="42.825393" lon="-0.320506">
        <ele>2179.479</ele>
        <time>2020-07-19T07:07:45Z</time>
      </trkpt>
      <trkpt lat="42.825423" lon="-0.320532">
        <ele>2179.647</ele>
        <time>2020-07-19T07:10:49Z</time>
      </trkpt>
      <trkpt lat="42.825466" lon="-0.320555">
        <ele>2179.620</ele>
        <time>2020-07-19T07:11:04Z</time>
      </trkpt>
      <trkpt lat="42.825509" lon="-0.320585">
        <ele>2179.757</ele>
        <time>2020-07-19T07:11:18Z</time>
      </trkpt>
      <trkpt lat="42.825541" lon="-0.320629">
        <ele>2180.299</ele>
        <time>2020-07-19T07:11:24Z</time>
      </trkpt>
      <trkpt lat="42.825570" lon="-0.320678">
        <ele>2180.239</ele>
        <time>2020-07-19T07:11:33Z</time>
      </trkpt>
      <trkpt lat="42.825613" lon="-0.320721">
        <ele>2180.911</ele>
        <time>2020-07-19T07:11:46Z</time>
      </trkpt>
      <trkpt lat="42.825649" lon="-0.320766">
        <ele>2179.817</ele>
        <time>2020-07-19T07:11:55Z</time>
      </trkpt>
      <trkpt lat="42.825686" lon="-0.320804">
        <ele>2179.574</ele>
        <time>2020-07-19T07:12:00Z</time>
      </trkpt>
      <trkpt lat="42.825717" lon="-0.320853">
        <ele>2179.256</ele>
        <time>2020-07-19T07:12:06Z</time>
      </trkpt>
      <trkpt lat="42.825754" lon="-0.320898">
        <ele>2178.421</ele>
        <time>2020-07-19T07:12:15Z</time>
      </trkpt>
      <trkpt lat="42.825789" lon="-0.320936">
        <ele>2178.508</ele>
        <time>2020-07-19T07:12:22Z</time>
      </trkpt>
      <trkpt lat="42.825835" lon="-0.320971">
        <ele>2178.462</ele>
        <time>2020-07-19T07:12:30Z</time>
      </trkpt>
      <trkpt lat="42.825889" lon="-0.321004">
        <ele>2177.590</ele>
        <time>2020-07-19T07:12:38Z</time>
      </trkpt>
      <trkpt lat="42.825934" lon="-0.320996">
        <ele>2176.833</ele>
        <time>2020-07-19T07:12:43Z</time>
      </trkpt>
      <trkpt lat="42.825983" lon="-0.321011">
        <ele>2176.550</ele>
        <time>2020-07-19T07:12:49Z</time>
      </trkpt>
      <trkpt lat="42.826032" lon="-0.321027">
        <ele>2176.692</ele>
        <time>2020-07-19T07:12:55Z</time>
      </trkpt>
      <trkpt lat="42.826075" lon="-0.321051">
        <ele>2176.462</ele>
        <time>2020-07-19T07:13:02Z</time>
      </trkpt>
      <trkpt lat="42.826116" lon="-0.321097">
        <ele>2175.684</ele>
        <time>2020-07-19T07:13:10Z</time>
      </trkpt>
      <trkpt lat="42.826164" lon="-0.321103">
        <ele>2176.070</ele>
        <time>2020-07-19T07:13:16Z</time>
      </trkpt>
      <trkpt lat="42.826212" lon="-0.321098">
        <ele>2175.351</ele>
        <time>2020-07-19T07:13:24Z</time>
      </trkpt>
      <trkpt lat="42.826265" lon="-0.321093">
        <ele>2175.101</ele>
        <time>2020-07-19T07:13:32Z</time>
      </trkpt>
      <trkpt lat="42.826315" lon="-0.321099">
        <ele>2174.911</ele>
        <time>2020-07-19T07:13:38Z</time>
      </trkpt>
      <trkpt lat="42.826358" lon="-0.321074">
        <ele>2173.508</ele>
        <time>2020-07-19T07:14:15Z</time>
      </trkpt>
      <trkpt lat="42.826366" lon="-0.321001">
        <ele>2173.140</ele>
        <time>2020-07-19T07:14:27Z</time>
      </trkpt>
      <trkpt lat="42.826366" lon="-0.320933">
        <ele>2172.318</ele>
        <time>2020-07-19T07:14:33Z</time>
      </trkpt>
      <trkpt lat="42.826365" lon="-0.320864">
        <ele>2172.621</ele>
        <time>2020-07-19T07:14:39Z</time>
      </trkpt>
      <trkpt lat="42.826390" lon="-0.320810">
        <ele>2172.048</ele>
        <time>2020-07-19T07:14:48Z</time>
      </trkpt>
      <trkpt lat="42.826405" lon="-0.320747">
        <ele>2171.720</ele>
        <time>2020-07-19T07:15:02Z</time>
      </trkpt>
      <trkpt lat="42.826427" lon="-0.320691">
        <ele>2171.120</ele>
        <time>2020-07-19T07:15:08Z</time>
      </trkpt>
      <trkpt lat="42.826465" lon="-0.320654">
        <ele>2170.472</ele>
        <time>2020-07-19T07:15:13Z</time>
      </trkpt>
      <trkpt lat="42.826511" lon="-0.320651">
        <ele>2170.458</ele>
        <time>2020-07-19T07:15:18Z</time>
      </trkpt>
      <trkpt lat="42.826563" lon="-0.320660">
        <ele>2170.169</ele>
        <time>2020-07-19T07:15:25Z</time>
      </trkpt>
      <trkpt lat="42.826611" lon="-0.320640">
        <ele>2169.104</ele>
        <time>2020-07-19T07:15:30Z</time>
      </trkpt>
      <trkpt lat="42.826663" lon="-0.320615">
        <ele>2168.824</ele>
        <time>2020-07-19T07:15:36Z</time>
      </trkpt>
      <trkpt lat="42.826712" lon="-0.320585">
        <ele>2168.308</ele>
        <time>2020-07-19T07:15:42Z</time>
      </trkpt>
      <trkpt lat="42.826754" lon="-0.320557">
        <ele>2168.621</ele>
        <time>2020-07-19T07:15:48Z</time>
      </trkpt>
      <trkpt lat="42.826811" lon="-0.320554">
        <ele>2167.359</ele>
        <time>2020-07-19T07:15:54Z</time>
      </trkpt>
      <trkpt lat="42.826863" lon="-0.320549">
        <ele>2166.992</ele>
        <time>2020-07-19T07:16:01Z</time>
      </trkpt>
      <trkpt lat="42.826922" lon="-0.320564">
        <ele>2165.929</ele>
        <time>2020-07-19T07:16:08Z</time>
      </trkpt>
      <trkpt lat="42.826972" lon="-0.320593">
        <ele>2165.211</ele>
        <time>2020-07-19T07:16:16Z</time>
      </trkpt>
      <trkpt lat="42.827005" lon="-0.320654">
        <ele>2164.821</ele>
        <time>2020-07-19T07:16:21Z</time>
      </trkpt>
      <trkpt lat="42.827030" lon="-0.320714">
        <ele>2164.653</ele>
        <time>2020-07-19T07:16:27Z</time>
      </trkpt>
      <trkpt lat="42.827056" lon="-0.320774">
        <ele>2163.949</ele>
        <time>2020-07-19T07:16:32Z</time>
      </trkpt>
      <trkpt lat="42.827099" lon="-0.320824">
        <ele>2164.086</ele>
        <time>2020-07-19T07:16:40Z</time>
      </trkpt>
      <trkpt lat="42.827147" lon="-0.320860">
        <ele>2163.060</ele>
        <time>2020-07-19T07:16:46Z</time>
      </trkpt>
      <trkpt lat="42.827186" lon="-0.320903">
        <ele>2162.626</ele>
        <time>2020-07-19T07:16:52Z</time>
      </trkpt>
      <trkpt lat="42.827217" lon="-0.320966">
        <ele>2161.708</ele>
        <time>2020-07-19T07:16:59Z</time>
      </trkpt>
      <trkpt lat="42.827246" lon="-0.321015">
        <ele>2161.643</ele>
        <time>2020-07-19T07:17:05Z</time>
      </trkpt>
      <trkpt lat="42.827273" lon="-0.321066">
        <ele>2161.561</ele>
        <time>2020-07-19T07:17:09Z</time>
      </trkpt>
      <trkpt lat="42.827301" lon="-0.321120">
        <ele>2160.934</ele>
        <time>2020-07-19T07:17:14Z</time>
      </trkpt>
      <trkpt lat="42.827335" lon="-0.321176">
        <ele>2161.711</ele>
        <time>2020-07-19T07:17:21Z</time>
      </trkpt>
      <trkpt lat="42.827358" lon="-0.321232">
        <ele>2159.593</ele>
        <time>2020-07-19T07:17:26Z</time>
      </trkpt>
      <trkpt lat="42.827391" lon="-0.321286">
        <ele>2160.913</ele>
        <time>2020-07-19T07:17:33Z</time>
      </trkpt>
      <trkpt lat="42.827422" lon="-0.321331">
        <ele>2161.685</ele>
        <time>2020-07-19T07:17:38Z</time>
      </trkpt>
      <trkpt lat="42.827449" lon="-0.321395">
        <ele>2162.321</ele>
        <time>2020-07-19T07:17:47Z</time>
      </trkpt>
      <trkpt lat="42.827467" lon="-0.321441">
        <ele>2161.566</ele>
        <time>2020-07-19T07:17:55Z</time>
      </trkpt>
      <trkpt lat="42.827500" lon="-0.321440">
        <ele>2162.829</ele>
        <time>2020-07-19T07:18:30Z</time>
      </trkpt>
      <trkpt lat="42.827543" lon="-0.321476">
        <ele>2161.121</ele>
        <time>2020-07-19T07:18:46Z</time>
      </trkpt>
      <trkpt lat="42.827588" lon="-0.321484">
        <ele>2159.808</ele>
        <time>2020-07-19T07:18:52Z</time>
      </trkpt>
      <trkpt lat="42.827632" lon="-0.321498">
        <ele>2159.531</ele>
        <time>2020-07-19T07:18:58Z</time>
      </trkpt>
      <trkpt lat="42.827682" lon="-0.321515">
        <ele>2158.769</ele>
        <time>2020-07-19T07:19:01Z</time>
      </trkpt>
      <trkpt lat="42.827738" lon="-0.321536">
        <ele>2158.892</ele>
        <time>2020-07-19T07:19:07Z</time>
      </trkpt>
      <trkpt lat="42.827782" lon="-0.321561">
        <ele>2159.029</ele>
        <time>2020-07-19T07:19:12Z</time>
      </trkpt>
      <trkpt lat="42.827808" lon="-0.321624">
        <ele>2157.921</ele>
        <time>2020-07-19T07:19:39Z</time>
      </trkpt>
      <trkpt lat="42.827838" lon="-0.321684">
        <ele>2160.131</ele>
        <time>2020-07-19T07:19:46Z</time>
      </trkpt>
      <trkpt lat="42.827879" lon="-0.321711">
        <ele>2158.853</ele>
        <time>2020-07-19T07:19:52Z</time>
      </trkpt>
      <trkpt lat="42.827933" lon="-0.321734">
        <ele>2160.129</ele>
        <time>2020-07-19T07:19:57Z</time>
      </trkpt>
      <trkpt lat="42.827976" lon="-0.321712">
        <ele>2159.462</ele>
        <time>2020-07-19T07:20:01Z</time>
      </trkpt>
      <trkpt lat="42.828024" lon="-0.321694">
        <ele>2161.683</ele>
        <time>2020-07-19T07:20:07Z</time>
      </trkpt>
      <trkpt lat="42.828073" lon="-0.321694">
        <ele>2162.911</ele>
        <time>2020-07-19T07:20:13Z</time>
      </trkpt>
      <trkpt lat="42.828115" lon="-0.321721">
        <ele>2163.608</ele>
        <time>2020-07-19T07:20:30Z</time>
      </trkpt>
      <trkpt lat="42.828154" lon="-0.321771">
        <ele>2163.691</ele>
        <time>2020-07-19T07:20:35Z</time>
      </trkpt>
      <trkpt lat="42.828201" lon="-0.321812">
        <ele>2162.439</ele>
        <time>2020-07-19T07:20:42Z</time>
      </trkpt>
      <trkpt lat="42.828250" lon="-0.321802">
        <ele>2162.792</ele>
        <time>2020-07-19T07:20:47Z</time>
      </trkpt>
      <trkpt lat="42.828293" lon="-0.321765">
        <ele>2163.079</ele>
        <time>2020-07-19T07:20:58Z</time>
      </trkpt>
      <trkpt lat="42.828329" lon="-0.321712">
        <ele>2162.081</ele>
        <time>2020-07-19T07:21:05Z</time>
      </trkpt>
      <trkpt lat="42.828349" lon="-0.321645">
        <ele>2163.821</ele>
        <time>2020-07-19T07:21:11Z</time>
      </trkpt>
      <trkpt lat="42.828368" lon="-0.321573">
        <ele>2162.713</ele>
        <time>2020-07-19T07:21:17Z</time>
      </trkpt>
      <trkpt lat="42.828404" lon="-0.321519">
        <ele>2165.319</ele>
        <time>2020-07-19T07:21:22Z</time>
      </trkpt>
      <trkpt lat="42.828435" lon="-0.321471">
        <ele>2166.763</ele>
        <time>2020-07-19T07:21:28Z</time>
      </trkpt>
      <trkpt lat="42.828468" lon="-0.321410">
        <ele>2167.144</ele>
        <time>2020-07-19T07:21:37Z</time>
      </trkpt>
      <trkpt lat="42.828498" lon="-0.321358">
        <ele>2167.718</ele>
        <time>2020-07-19T07:21:44Z</time>
      </trkpt>
      <trkpt lat="42.828524" lon="-0.321304">
        <ele>2169.908</ele>
        <time>2020-07-19T07:21:51Z</time>
      </trkpt>
      <trkpt lat="42.828558" lon="-0.321259">
        <ele>2171.211</ele>
        <time>2020-07-19T07:22:01Z</time>
      </trkpt>
      <trkpt lat="42.828598" lon="-0.321220">
        <ele>2170.769</ele>
        <time>2020-07-19T07:22:10Z</time>
      </trkpt>
      <trkpt lat="42.828619" lon="-0.321173">
        <ele>2172.082</ele>
        <time>2020-07-19T07:22:17Z</time>
      </trkpt>
      <trkpt lat="42.828611" lon="-0.321120">
        <ele>2173.499</ele>
        <time>2020-07-19T07:22:33Z</time>
      </trkpt>
      <trkpt lat="42.828618" lon="-0.321055">
        <ele>2174.691</ele>
        <time>2020-07-19T07:23:17Z</time>
      </trkpt>
      <trkpt lat="42.828650" lon="-0.321002">
        <ele>2175.581</ele>
        <time>2020-07-19T07:23:24Z</time>
      </trkpt>
      <trkpt lat="42.828692" lon="-0.320952">
        <ele>2176.233</ele>
        <time>2020-07-19T07:23:30Z</time>
      </trkpt>
      <trkpt lat="42.828721" lon="-0.320904">
        <ele>2176.479</ele>
        <time>2020-07-19T07:23:37Z</time>
      </trkpt>
      <trkpt lat="42.828759" lon="-0.320859">
        <ele>2176.012</ele>
        <time>2020-07-19T07:23:43Z</time>
      </trkpt>
      <trkpt lat="42.828805" lon="-0.320869">
        <ele>2176.332</ele>
        <time>2020-07-19T07:23:48Z</time>
      </trkpt>
      <trkpt lat="42.828854" lon="-0.320901">
        <ele>2176.305</ele>
        <time>2020-07-19T07:23:54Z</time>
      </trkpt>
      <trkpt lat="42.828870" lon="-0.320968">
        <ele>2175.808</ele>
        <time>2020-07-19T07:24:10Z</time>
      </trkpt>
      <trkpt lat="42.828892" lon="-0.321024">
        <ele>2175.966</ele>
        <time>2020-07-19T07:24:17Z</time>
      </trkpt>
      <trkpt lat="42.828924" lon="-0.321082">
        <ele>2175.724</ele>
        <time>2020-07-19T07:24:21Z</time>
      </trkpt>
      <trkpt lat="42.828973" lon="-0.321102">
        <ele>2175.527</ele>
        <time>2020-07-19T07:24:27Z</time>
      </trkpt>
      <trkpt lat="42.829008" lon="-0.321151">
        <ele>2174.964</ele>
        <time>2020-07-19T07:24:38Z</time>
      </trkpt>
      <trkpt lat="42.829019" lon="-0.321222">
        <ele>2173.476</ele>
        <time>2020-07-19T07:24:43Z</time>
      </trkpt>
      <trkpt lat="42.829022" lon="-0.321292">
        <ele>2173.216</ele>
        <time>2020-07-19T07:24:51Z</time>
      </trkpt>
      <trkpt lat="42.829003" lon="-0.321351">
        <ele>2172.428</ele>
        <time>2020-07-19T07:24:57Z</time>
      </trkpt>
      <trkpt lat="42.829005" lon="-0.321424">
        <ele>2171.324</ele>
        <time>2020-07-19T07:25:07Z</time>
      </trkpt>
      <trkpt lat="42.829002" lon="-0.321493">
        <ele>2169.423</ele>
        <time>2020-07-19T07:25:14Z</time>
      </trkpt>
      <trkpt lat="42.829037" lon="-0.321449">
        <ele>2167.583</ele>
        <time>2020-07-19T07:25:27Z</time>
      </trkpt>
      <trkpt lat="42.829053" lon="-0.321375">
        <ele>2167.911</ele>
        <time>2020-07-19T07:25:34Z</time>
      </trkpt>
      <trkpt lat="42.829068" lon="-0.321310">
        <ele>2166.808</ele>
        <time>2020-07-19T07:25:39Z</time>
      </trkpt>
      <trkpt lat="42.829088" lon="-0.321251">
        <ele>2167.047</ele>
        <time>2020-07-19T07:25:43Z</time>
      </trkpt>
      <trkpt lat="42.829117" lon="-0.321192">
        <ele>2167.495</ele>
        <time>2020-07-19T07:25:50Z</time>
      </trkpt>
      <trkpt lat="42.829133" lon="-0.321122">
        <ele>2166.768</ele>
        <time>2020-07-19T07:25:56Z</time>
      </trkpt>
      <trkpt lat="42.829146" lon="-0.321047">
        <ele>2166.995</ele>
        <time>2020-07-19T07:26:02Z</time>
      </trkpt>
      <trkpt lat="42.829169" lon="-0.320977">
        <ele>2166.197</ele>
        <time>2020-07-19T07:26:08Z</time>
      </trkpt>
      <trkpt lat="42.829197" lon="-0.320923">
        <ele>2167.897</ele>
        <time>2020-07-19T07:26:16Z</time>
      </trkpt>
      <trkpt lat="42.829212" lon="-0.320864">
        <ele>2167.319</ele>
        <time>2020-07-19T07:26:22Z</time>
      </trkpt>
      <trkpt lat="42.829220" lon="-0.320798">
        <ele>2166.865</ele>
        <time>2020-07-19T07:26:33Z</time>
      </trkpt>
      <trkpt lat="42.829230" lon="-0.320736">
        <ele>2166.744</ele>
        <time>2020-07-19T07:26:37Z</time>
      </trkpt>
      <trkpt lat="42.829234" lon="-0.320665">
        <ele>2165.205</ele>
        <time>2020-07-19T07:26:42Z</time>
      </trkpt>
      <trkpt lat="42.829248" lon="-0.320600">
        <ele>2165.515</ele>
        <time>2020-07-19T07:26:49Z</time>
      </trkpt>
      <trkpt lat="42.829256" lon="-0.320539">
        <ele>2164.708</ele>
        <time>2020-07-19T07:26:56Z</time>
      </trkpt>
      <trkpt lat="42.829255" lon="-0.320474">
        <ele>2163.239</ele>
        <time>2020-07-19T07:27:03Z</time>
      </trkpt>
      <trkpt lat="42.829248" lon="-0.320413">
        <ele>2163.237</ele>
        <time>2020-07-19T07:27:13Z</time>
      </trkpt>
      <trkpt lat="42.829268" lon="-0.320346">
        <ele>2163.090</ele>
        <time>2020-07-19T07:27:20Z</time>
      </trkpt>
      <trkpt lat="42.829279" lon="-0.320278">
        <ele>2162.587</ele>
        <time>2020-07-19T07:27:26Z</time>
      </trkpt>
      <trkpt lat="42.829278" lon="-0.320211">
        <ele>2162.279</ele>
        <time>2020-07-19T07:27:37Z</time>
      </trkpt>
      <trkpt lat="42.829280" lon="-0.320142">
        <ele>2160.429</ele>
        <time>2020-07-19T07:27:43Z</time>
      </trkpt>
      <trkpt lat="42.829311" lon="-0.320091">
        <ele>2159.991</ele>
        <time>2020-07-19T07:27:50Z</time>
      </trkpt>
      <trkpt lat="42.829351" lon="-0.320120">
        <ele>2159.067</ele>
        <time>2020-07-19T07:27:54Z</time>
      </trkpt>
      <trkpt lat="42.829377" lon="-0.320172">
        <ele>2158.684</ele>
        <time>2020-07-19T07:28:00Z</time>
      </trkpt>
      <trkpt lat="42.829425" lon="-0.320205">
        <ele>2157.707</ele>
        <time>2020-07-19T07:28:07Z</time>
      </trkpt>
      <trkpt lat="42.829463" lon="-0.320165">
        <ele>2158.017</ele>
        <time>2020-07-19T07:28:15Z</time>
      </trkpt>
      <trkpt lat="42.829468" lon="-0.320099">
        <ele>2156.008</ele>
        <time>2020-07-19T07:28:43Z</time>
      </trkpt>
      <trkpt lat="42.829475" lon="-0.320040">
        <ele>2155.323</ele>
        <time>2020-07-19T07:28:51Z</time>
      </trkpt>
      <trkpt lat="42.829511" lon="-0.320008">
        <ele>2154.941</ele>
        <time>2020-07-19T07:29:29Z</time>
      </trkpt>
      <trkpt lat="42.829514" lon="-0.319944">
        <ele>2153.084</ele>
        <time>2020-07-19T07:30:54Z</time>
      </trkpt>
      <trkpt lat="42.829541" lon="-0.319887">
        <ele>2151.241</ele>
        <time>2020-07-19T07:31:06Z</time>
      </trkpt>
      <trkpt lat="42.829541" lon="-0.319815">
        <ele>2150.823</ele>
        <time>2020-07-19T07:31:16Z</time>
      </trkpt>
      <trkpt lat="42.829563" lon="-0.319759">
        <ele>2150.333</ele>
        <time>2020-07-19T07:31:30Z</time>
      </trkpt>
      <trkpt lat="42.829597" lon="-0.319701">
        <ele>2150.025</ele>
        <time>2020-07-19T07:31:38Z</time>
      </trkpt>
      <trkpt lat="42.829622" lon="-0.319642">
        <ele>2149.321</ele>
        <time>2020-07-19T07:31:43Z</time>
      </trkpt>
      <trkpt lat="42.829656" lon="-0.319588">
        <ele>2148.849</ele>
        <time>2020-07-19T07:31:48Z</time>
      </trkpt>
      <trkpt lat="42.829709" lon="-0.319568">
        <ele>2147.702</ele>
        <time>2020-07-19T07:32:07Z</time>
      </trkpt>
      <trkpt lat="42.829744" lon="-0.319523">
        <ele>2147.922</ele>
        <time>2020-07-19T07:32:20Z</time>
      </trkpt>
      <trkpt lat="42.829793" lon="-0.319511">
        <ele>2148.308</ele>
        <time>2020-07-19T07:32:29Z</time>
      </trkpt>
      <trkpt lat="42.829840" lon="-0.319522">
        <ele>2147.189</ele>
        <time>2020-07-19T07:32:37Z</time>
      </trkpt>
      <trkpt lat="42.829896" lon="-0.319520">
        <ele>2149.177</ele>
        <time>2020-07-19T07:32:44Z</time>
      </trkpt>
      <trkpt lat="42.829948" lon="-0.319533">
        <ele>2148.970</ele>
        <time>2020-07-19T07:32:50Z</time>
      </trkpt>
      <trkpt lat="42.829996" lon="-0.319553">
        <ele>2149.027</ele>
        <time>2020-07-19T07:32:56Z</time>
      </trkpt>
      <trkpt lat="42.830035" lon="-0.319589">
        <ele>2149.989</ele>
        <time>2020-07-19T07:33:05Z</time>
      </trkpt>
      <trkpt lat="42.830059" lon="-0.319538">
        <ele>2150.279</ele>
        <time>2020-07-19T07:33:19Z</time>
      </trkpt>
      <trkpt lat="42.830059" lon="-0.319472">
        <ele>2152.141</ele>
        <time>2020-07-19T07:33:24Z</time>
      </trkpt>
      <trkpt lat="42.830071" lon="-0.319406">
        <ele>2153.347</ele>
        <time>2020-07-19T07:33:33Z</time>
      </trkpt>
      <trkpt lat="42.830080" lon="-0.319335">
        <ele>2153.752</ele>
        <time>2020-07-19T07:33:40Z</time>
      </trkpt>
      <trkpt lat="42.830097" lon="-0.319276">
        <ele>2152.753</ele>
        <time>2020-07-19T07:33:48Z</time>
      </trkpt>
      <trkpt lat="42.830119" lon="-0.319222">
        <ele>2156.908</ele>
        <time>2020-07-19T07:33:59Z</time>
      </trkpt>
      <trkpt lat="42.830109" lon="-0.319162">
        <ele>2155.908</ele>
        <time>2020-07-19T07:34:08Z</time>
      </trkpt>
      <trkpt lat="42.830114" lon="-0.319099">
        <ele>2155.910</ele>
        <time>2020-07-19T07:34:37Z</time>
      </trkpt>
      <trkpt lat="42.830115" lon="-0.319031">
        <ele>2156.288</ele>
        <time>2020-07-19T07:34:53Z</time>
      </trkpt>
      <trkpt lat="42.830139" lon="-0.318971">
        <ele>2156.571</ele>
        <time>2020-07-19T07:35:04Z</time>
      </trkpt>
      <trkpt lat="42.830168" lon="-0.318909">
        <ele>2155.198</ele>
        <time>2020-07-19T07:35:09Z</time>
      </trkpt>
      <trkpt lat="42.830191" lon="-0.318848">
        <ele>2156.220</ele>
        <time>2020-07-19T07:35:13Z</time>
      </trkpt>
      <trkpt lat="42.830217" lon="-0.318776">
        <ele>2156.630</ele>
        <time>2020-07-19T07:35:20Z</time>
      </trkpt>
      <trkpt lat="42.830240" lon="-0.318724">
        <ele>2157.812</ele>
        <time>2020-07-19T07:35:27Z</time>
      </trkpt>
      <trkpt lat="42.830243" lon="-0.318647">
        <ele>2157.828</ele>
        <time>2020-07-19T07:35:33Z</time>
      </trkpt>
      <trkpt lat="42.830242" lon="-0.318575">
        <ele>2157.158</ele>
        <time>2020-07-19T07:35:40Z</time>
      </trkpt>
      <trkpt lat="42.830242" lon="-0.318499">
        <ele>2159.052</ele>
        <time>2020-07-19T07:35:47Z</time>
      </trkpt>
      <trkpt lat="42.830264" lon="-0.318428">
        <ele>2160.317</ele>
        <time>2020-07-19T07:35:53Z</time>
      </trkpt>
      <trkpt lat="42.830289" lon="-0.318371">
        <ele>2160.008</ele>
        <time>2020-07-19T07:35:58Z</time>
      </trkpt>
      <trkpt lat="42.830266" lon="-0.318314">
        <ele>2159.330</ele>
        <time>2020-07-19T07:36:03Z</time>
      </trkpt>
      <trkpt lat="42.830228" lon="-0.318267">
        <ele>2159.878</ele>
        <time>2020-07-19T07:36:10Z</time>
      </trkpt>
      <trkpt lat="42.830192" lon="-0.318247">
        <ele>2160.081</ele>
        <time>2020-07-19T07:36:16Z</time>
      </trkpt>
      <trkpt lat="42.830181" lon="-0.318208">
        <ele>2161.548</ele>
        <time>2020-07-19T07:36:26Z</time>
      </trkpt>
      <trkpt lat="42.830189" lon="-0.318165">
        <ele>2161.720</ele>
        <time>2020-07-19T07:55:12Z</time>
      </trkpt>
      <trkpt lat="42.830224" lon="-0.318115">
        <ele>2162.080</ele>
        <time>2020-07-19T07:55:16Z</time>
      </trkpt>
      <trkpt lat="42.830263" lon="-0.318042">
        <ele>2162.122</ele>
        <time>2020-07-19T07:55:21Z</time>
      </trkpt>
      <trkpt lat="42.830285" lon="-0.317983">
        <ele>2161.998</ele>
        <time>2020-07-19T07:55:25Z</time>
      </trkpt>
      <trkpt lat="42.830310" lon="-0.317927">
        <ele>2161.397</ele>
        <time>2020-07-19T07:55:32Z</time>
      </trkpt>
      <trkpt lat="42.830331" lon="-0.317859">
        <ele>2161.123</ele>
        <time>2020-07-19T07:55:40Z</time>
      </trkpt>
      <trkpt lat="42.830356" lon="-0.317805">
        <ele>2162.025</ele>
        <time>2020-07-19T07:55:47Z</time>
      </trkpt>
      <trkpt lat="42.830379" lon="-0.317748">
        <ele>2162.108</ele>
        <time>2020-07-19T07:55:51Z</time>
      </trkpt>
      <trkpt lat="42.830396" lon="-0.317681">
        <ele>2162.174</ele>
        <time>2020-07-19T07:55:57Z</time>
      </trkpt>
      <trkpt lat="42.830420" lon="-0.317625">
        <ele>2162.482</ele>
        <time>2020-07-19T07:56:04Z</time>
      </trkpt>
      <trkpt lat="42.830461" lon="-0.317580">
        <ele>2163.165</ele>
        <time>2020-07-19T07:56:11Z</time>
      </trkpt>
      <trkpt lat="42.830504" lon="-0.317535">
        <ele>2163.672</ele>
        <time>2020-07-19T07:56:19Z</time>
      </trkpt>
      <trkpt lat="42.830543" lon="-0.317497">
        <ele>2161.534</ele>
        <time>2020-07-19T07:56:24Z</time>
      </trkpt>
      <trkpt lat="42.830587" lon="-0.317456">
        <ele>2161.064</ele>
        <time>2020-07-19T07:56:29Z</time>
      </trkpt>
      <trkpt lat="42.830638" lon="-0.317437">
        <ele>2164.876</ele>
        <time>2020-07-19T07:56:36Z</time>
      </trkpt>
      <trkpt lat="42.830689" lon="-0.317423">
        <ele>2165.372</ele>
        <time>2020-07-19T07:56:41Z</time>
      </trkpt>
      <trkpt lat="42.830739" lon="-0.317415">
        <ele>2164.167</ele>
        <time>2020-07-19T07:56:48Z</time>
      </trkpt>
      <trkpt lat="42.830776" lon="-0.317373">
        <ele>2164.181</ele>
        <time>2020-07-19T07:56:56Z</time>
      </trkpt>
      <trkpt lat="42.830765" lon="-0.317305">
        <ele>2162.419</ele>
        <time>2020-07-19T07:57:31Z</time>
      </trkpt>
      <trkpt lat="42.830762" lon="-0.317233">
        <ele>2162.108</ele>
        <time>2020-07-19T07:57:40Z</time>
      </trkpt>
      <trkpt lat="42.830785" lon="-0.317169">
        <ele>2162.511</ele>
        <time>2020-07-19T07:57:45Z</time>
      </trkpt>
      <trkpt lat="42.830814" lon="-0.317117">
        <ele>2162.419</ele>
        <time>2020-07-19T07:57:51Z</time>
      </trkpt>
      <trkpt lat="42.830847" lon="-0.317061">
        <ele>2159.782</ele>
        <time>2020-07-19T07:57:57Z</time>
      </trkpt>
      <trkpt lat="42.830887" lon="-0.317010">
        <ele>2162.379</ele>
        <time>2020-07-19T07:58:03Z</time>
      </trkpt>
      <trkpt lat="42.830928" lon="-0.316966">
        <ele>2163.021</ele>
        <time>2020-07-19T07:58:10Z</time>
      </trkpt>
      <trkpt lat="42.830945" lon="-0.316907">
        <ele>2162.681</ele>
        <time>2020-07-19T07:58:16Z</time>
      </trkpt>
      <trkpt lat="42.830968" lon="-0.316844">
        <ele>2162.813</ele>
        <time>2020-07-19T07:58:24Z</time>
      </trkpt>
      <trkpt lat="42.830990" lon="-0.316790">
        <ele>2162.929</ele>
        <time>2020-07-19T07:58:29Z</time>
      </trkpt>
      <trkpt lat="42.831013" lon="-0.316734">
        <ele>2163.736</ele>
        <time>2020-07-19T07:58:38Z</time>
      </trkpt>
      <trkpt lat="42.831050" lon="-0.316686">
        <ele>2164.117</ele>
        <time>2020-07-19T07:58:46Z</time>
      </trkpt>
      <trkpt lat="42.831076" lon="-0.316628">
        <ele>2164.818</ele>
        <time>2020-07-19T07:58:52Z</time>
      </trkpt>
      <trkpt lat="42.831100" lon="-0.316564">
        <ele>2166.908</ele>
        <time>2020-07-19T07:59:00Z</time>
      </trkpt>
      <trkpt lat="42.831136" lon="-0.316517">
        <ele>2165.428</ele>
        <time>2020-07-19T07:59:09Z</time>
      </trkpt>
      <trkpt lat="42.831156" lon="-0.316454">
        <ele>2164.626</ele>
        <time>2020-07-19T07:59:15Z</time>
      </trkpt>
      <trkpt lat="42.831160" lon="-0.316392">
        <ele>2164.029</ele>
        <time>2020-07-19T07:59:22Z</time>
      </trkpt>
      <trkpt lat="42.831176" lon="-0.316322">
        <ele>2162.866</ele>
        <time>2020-07-19T07:59:31Z</time>
      </trkpt>
      <trkpt lat="42.831196" lon="-0.316265">
        <ele>2163.128</ele>
        <time>2020-07-19T07:59:36Z</time>
      </trkpt>
      <trkpt lat="42.831204" lon="-0.316194">
        <ele>2163.938</ele>
        <time>2020-07-19T07:59:44Z</time>
      </trkpt>
      <trkpt lat="42.831218" lon="-0.316126">
        <ele>2162.560</ele>
        <time>2020-07-19T07:59:51Z</time>
      </trkpt>
      <trkpt lat="42.831238" lon="-0.316070">
        <ele>2162.786</ele>
        <time>2020-07-19T07:59:57Z</time>
      </trkpt>
      <trkpt lat="42.831271" lon="-0.316013">
        <ele>2160.827</ele>
        <time>2020-07-19T08:00:03Z</time>
      </trkpt>
      <trkpt lat="42.831322" lon="-0.315995">
        <ele>2162.168</ele>
        <time>2020-07-19T08:00:10Z</time>
      </trkpt>
      <trkpt lat="42.831373" lon="-0.315991">
        <ele>2163.114</ele>
        <time>2020-07-19T08:00:51Z</time>
      </trkpt>
      <trkpt lat="42.831416" lon="-0.315971">
        <ele>2162.708</ele>
        <time>2020-07-19T08:00:55Z</time>
      </trkpt>
      <trkpt lat="42.831471" lon="-0.315942">
        <ele>2162.887</ele>
        <time>2020-07-19T08:00:59Z</time>
      </trkpt>
      <trkpt lat="42.831521" lon="-0.315920">
        <ele>2160.775</ele>
        <time>2020-07-19T08:01:03Z</time>
      </trkpt>
      <trkpt lat="42.831570" lon="-0.315891">
        <ele>2161.918</ele>
        <time>2020-07-19T08:01:07Z</time>
      </trkpt>
      <trkpt lat="42.831607" lon="-0.315848">
        <ele>2163.195</ele>
        <time>2020-07-19T08:01:12Z</time>
      </trkpt>
      <trkpt lat="42.831660" lon="-0.315817">
        <ele>2161.617</ele>
        <time>2020-07-19T08:01:19Z</time>
      </trkpt>
      <trkpt lat="42.831697" lon="-0.315765">
        <ele>2163.647</ele>
        <time>2020-07-19T08:01:27Z</time>
      </trkpt>
      <trkpt lat="42.831721" lon="-0.315708">
        <ele>2162.759</ele>
        <time>2020-07-19T08:01:31Z</time>
      </trkpt>
      <trkpt lat="42.831729" lon="-0.315634">
        <ele>2164.035</ele>
        <time>2020-07-19T08:01:42Z</time>
      </trkpt>
      <trkpt lat="42.831746" lon="-0.315578">
        <ele>2162.249</ele>
        <time>2020-07-19T08:02:21Z</time>
      </trkpt>
      <trkpt lat="42.831759" lon="-0.315522">
        <ele>2162.802</ele>
        <time>2020-07-19T08:02:45Z</time>
      </trkpt>
      <trkpt lat="42.831807" lon="-0.315509">
        <ele>2162.022</ele>
        <time>2020-07-19T08:03:07Z</time>
      </trkpt>
      <trkpt lat="42.831854" lon="-0.315514">
        <ele>2163.008</ele>
        <time>2020-07-19T08:03:15Z</time>
      </trkpt>
      <trkpt lat="42.831893" lon="-0.315551">
        <ele>2163.549</ele>
        <time>2020-07-19T08:03:25Z</time>
      </trkpt>
      <trkpt lat="42.831930" lon="-0.315600">
        <ele>2162.487</ele>
        <time>2020-07-19T08:03:35Z</time>
      </trkpt>
      <trkpt lat="42.831978" lon="-0.315618">
        <ele>2166.210</ele>
        <time>2020-07-19T08:03:41Z</time>
      </trkpt>
      <trkpt lat="42.832015" lon="-0.315573">
        <ele>2165.627</ele>
        <time>2020-07-19T08:04:16Z</time>
      </trkpt>
      <trkpt lat="42.832065" lon="-0.315586">
        <ele>2164.899</ele>
        <time>2020-07-19T08:04:20Z</time>
      </trkpt>
      <trkpt lat="42.832117" lon="-0.315596">
        <ele>2165.819</ele>
        <time>2020-07-19T08:04:26Z</time>
      </trkpt>
      <trkpt lat="42.832164" lon="-0.315630">
        <ele>2169.451</ele>
        <time>2020-07-19T08:04:33Z</time>
      </trkpt>
      <trkpt lat="42.832212" lon="-0.315628">
        <ele>2167.457</ele>
        <time>2020-07-19T08:04:38Z</time>
      </trkpt>
      <trkpt lat="42.832264" lon="-0.315628">
        <ele>2170.272</ele>
        <time>2020-07-19T08:04:43Z</time>
      </trkpt>
      <trkpt lat="42.832315" lon="-0.315626">
        <ele>2170.713</ele>
        <time>2020-07-19T08:04:49Z</time>
      </trkpt>
      <trkpt lat="42.832365" lon="-0.315612">
        <ele>2171.814</ele>
        <time>2020-07-19T08:04:55Z</time>
      </trkpt>
      <trkpt lat="42.832405" lon="-0.315579">
        <ele>2172.908</ele>
        <time>2020-07-19T08:05:03Z</time>
      </trkpt>
      <trkpt lat="42.832420" lon="-0.315520">
        <ele>2174.082</ele>
        <time>2020-07-19T08:05:09Z</time>
      </trkpt>
      <trkpt lat="42.832434" lon="-0.315455">
        <ele>2173.870</ele>
        <time>2020-07-19T08:05:15Z</time>
      </trkpt>
      <trkpt lat="42.832459" lon="-0.315398">
        <ele>2173.083</ele>
        <time>2020-07-19T08:05:23Z</time>
      </trkpt>
      <trkpt lat="42.832507" lon="-0.315361">
        <ele>2175.740</ele>
        <time>2020-07-19T08:05:30Z</time>
      </trkpt>
      <trkpt lat="42.832556" lon="-0.315352">
        <ele>2176.652</ele>
        <time>2020-07-19T08:05:36Z</time>
      </trkpt>
      <trkpt lat="42.832606" lon="-0.315352">
        <ele>2175.552</ele>
        <time>2020-07-19T08:05:44Z</time>
      </trkpt>
      <trkpt lat="42.832640" lon="-0.315304">
        <ele>2175.354</ele>
        <time>2020-07-19T08:05:52Z</time>
      </trkpt>
      <trkpt lat="42.832680" lon="-0.315265">
        <ele>2178.590</ele>
        <time>2020-07-19T08:06:00Z</time>
      </trkpt>
      <trkpt lat="42.832736" lon="-0.315264">
        <ele>2176.465</ele>
        <time>2020-07-19T08:06:07Z</time>
      </trkpt>
      <trkpt lat="42.832773" lon="-0.315226">
        <ele>2178.268</ele>
        <time>2020-07-19T08:06:19Z</time>
      </trkpt>
      <trkpt lat="42.832823" lon="-0.315222">
        <ele>2177.514</ele>
        <time>2020-07-19T08:06:25Z</time>
      </trkpt>
      <trkpt lat="42.832875" lon="-0.315230">
        <ele>2177.108</ele>
        <time>2020-07-19T08:06:30Z</time>
      </trkpt>
      <trkpt lat="42.832921" lon="-0.315242">
        <ele>2176.981</ele>
        <time>2020-07-19T08:06:34Z</time>
      </trkpt>
      <trkpt lat="42.832975" lon="-0.315242">
        <ele>2177.849</ele>
        <time>2020-07-19T08:06:42Z</time>
      </trkpt>
      <trkpt lat="42.833025" lon="-0.315220">
        <ele>2177.732</ele>
        <time>2020-07-19T08:06:47Z</time>
      </trkpt>
      <trkpt lat="42.833071" lon="-0.315213">
        <ele>2176.919</ele>
        <time>2020-07-19T08:06:52Z</time>
      </trkpt>
      <trkpt lat="42.833116" lon="-0.315229">
        <ele>2177.051</ele>
        <time>2020-07-19T08:07:00Z</time>
      </trkpt>
      <trkpt lat="42.833170" lon="-0.315236">
        <ele>2175.731</ele>
        <time>2020-07-19T08:07:07Z</time>
      </trkpt>
      <trkpt lat="42.833223" lon="-0.315251">
        <ele>2174.973</ele>
        <time>2020-07-19T08:07:13Z</time>
      </trkpt>
      <trkpt lat="42.833280" lon="-0.315264">
        <ele>2177.069</ele>
        <time>2020-07-19T08:07:19Z</time>
      </trkpt>
      <trkpt lat="42.833335" lon="-0.315257">
        <ele>2176.991</ele>
        <time>2020-07-19T08:07:24Z</time>
      </trkpt>
      <trkpt lat="42.833396" lon="-0.315245">
        <ele>2177.081</ele>
        <time>2020-07-19T08:07:30Z</time>
      </trkpt>
      <trkpt lat="42.833445" lon="-0.315229">
        <ele>2178.119</ele>
        <time>2020-07-19T08:07:35Z</time>
      </trkpt>
      <trkpt lat="42.833499" lon="-0.315211">
        <ele>2176.808</ele>
        <time>2020-07-19T08:07:41Z</time>
      </trkpt>
      <trkpt lat="42.833540" lon="-0.315184">
        <ele>2178.124</ele>
        <time>2020-07-19T08:07:48Z</time>
      </trkpt>
      <trkpt lat="42.833571" lon="-0.315126">
        <ele>2176.832</ele>
        <time>2020-07-19T08:07:56Z</time>
      </trkpt>
      <trkpt lat="42.833606" lon="-0.315084">
        <ele>2176.965</ele>
        <time>2020-07-19T08:08:01Z</time>
      </trkpt>
      <trkpt lat="42.833656" lon="-0.315055">
        <ele>2176.992</ele>
        <time>2020-07-19T08:08:06Z</time>
      </trkpt>
      <trkpt lat="42.833696" lon="-0.315013">
        <ele>2176.824</ele>
        <time>2020-07-19T08:08:12Z</time>
      </trkpt>
      <trkpt lat="42.833718" lon="-0.314947">
        <ele>2178.244</ele>
        <time>2020-07-19T08:08:18Z</time>
      </trkpt>
      <trkpt lat="42.833728" lon="-0.314870">
        <ele>2178.956</ele>
        <time>2020-07-19T08:08:22Z</time>
      </trkpt>
      <trkpt lat="42.833720" lon="-0.314791">
        <ele>2179.252</ele>
        <time>2020-07-19T08:08:29Z</time>
      </trkpt>
      <trkpt lat="42.833721" lon="-0.314717">
        <ele>2180.789</ele>
        <time>2020-07-19T08:08:35Z</time>
      </trkpt>
      <trkpt lat="42.833747" lon="-0.314660">
        <ele>2178.706</ele>
        <time>2020-07-19T08:08:41Z</time>
      </trkpt>
      <trkpt lat="42.833792" lon="-0.314624">
        <ele>2181.626</ele>
        <time>2020-07-19T08:08:46Z</time>
      </trkpt>
      <trkpt lat="42.833826" lon="-0.314584">
        <ele>2181.308</ele>
        <time>2020-07-19T08:08:54Z</time>
      </trkpt>
      <trkpt lat="42.833872" lon="-0.314560">
        <ele>2183.063</ele>
        <time>2020-07-19T08:09:01Z</time>
      </trkpt>
      <trkpt lat="42.833919" lon="-0.314565">
        <ele>2182.781</ele>
        <time>2020-07-19T08:09:16Z</time>
      </trkpt>
      <trkpt lat="42.833965" lon="-0.314571">
        <ele>2183.654</ele>
        <time>2020-07-19T08:09:23Z</time>
      </trkpt>
      <trkpt lat="42.833993" lon="-0.314626">
        <ele>2192.651</ele>
        <time>2020-07-19T08:11:15Z</time>
      </trkpt>
      <trkpt lat="42.834015" lon="-0.314676">
        <ele>2190.833</ele>
        <time>2020-07-19T08:11:24Z</time>
      </trkpt>
      <trkpt lat="42.834054" lon="-0.314732">
        <ele>2193.523</ele>
        <time>2020-07-19T08:11:31Z</time>
      </trkpt>
      <trkpt lat="42.834087" lon="-0.314782">
        <ele>2197.055</ele>
        <time>2020-07-19T08:11:41Z</time>
      </trkpt>
      <trkpt lat="42.834086" lon="-0.314845">
        <ele>2199.661</ele>
        <time>2020-07-19T08:12:41Z</time>
      </trkpt>
      <trkpt lat="42.834055" lon="-0.314904">
        <ele>2199.827</ele>
        <time>2020-07-19T08:12:47Z</time>
      </trkpt>
      <trkpt lat="42.834034" lon="-0.314966">
        <ele>2199.668</ele>
        <time>2020-07-19T08:12:51Z</time>
      </trkpt>
      <trkpt lat="42.834003" lon="-0.315026">
        <ele>2196.814</ele>
        <time>2020-07-19T08:12:58Z</time>
      </trkpt>
      <trkpt lat="42.833953" lon="-0.315050">
        <ele>2199.008</ele>
        <time>2020-07-19T08:13:05Z</time>
      </trkpt>
      <trkpt lat="42.833908" lon="-0.315068">
        <ele>2201.637</ele>
        <time>2020-07-19T08:13:10Z</time>
      </trkpt>
      <trkpt lat="42.833878" lon="-0.315126">
        <ele>2201.735</ele>
        <time>2020-07-19T08:13:15Z</time>
      </trkpt>
      <trkpt lat="42.833852" lon="-0.315178">
        <ele>2202.678</ele>
        <time>2020-07-19T08:13:22Z</time>
      </trkpt>
      <trkpt lat="42.833840" lon="-0.315249">
        <ele>2204.515</ele>
        <time>2020-07-19T08:13:28Z</time>
      </trkpt>
      <trkpt lat="42.833830" lon="-0.315314">
        <ele>2204.547</ele>
        <time>2020-07-19T08:13:34Z</time>
      </trkpt>
      <trkpt lat="42.833821" lon="-0.315387">
        <ele>2204.797</ele>
        <time>2020-07-19T08:13:41Z</time>
      </trkpt>
      <trkpt lat="42.833810" lon="-0.315447">
        <ele>2206.879</ele>
        <time>2020-07-19T08:13:49Z</time>
      </trkpt>
      <trkpt lat="42.833824" lon="-0.315518">
        <ele>2208.345</ele>
        <time>2020-07-19T08:13:58Z</time>
      </trkpt>
      <trkpt lat="42.833883" lon="-0.315525">
        <ele>2208.737</ele>
        <time>2020-07-19T08:14:04Z</time>
      </trkpt>
      <trkpt lat="42.833935" lon="-0.315507">
        <ele>2208.049</ele>
        <time>2020-07-19T08:14:11Z</time>
      </trkpt>
      <trkpt lat="42.833973" lon="-0.315472">
        <ele>2211.613</ele>
        <time>2020-07-19T08:14:16Z</time>
      </trkpt>
      <trkpt lat="42.834018" lon="-0.315462">
        <ele>2210.808</ele>
        <time>2020-07-19T08:14:24Z</time>
      </trkpt>
      <trkpt lat="42.834066" lon="-0.315470">
        <ele>2212.788</ele>
        <time>2020-07-19T08:14:36Z</time>
      </trkpt>
      <trkpt lat="42.834099" lon="-0.315516">
        <ele>2214.256</ele>
        <time>2020-07-19T08:15:02Z</time>
      </trkpt>
      <trkpt lat="42.834143" lon="-0.315529">
        <ele>2213.249</ele>
        <time>2020-07-19T08:15:09Z</time>
      </trkpt>
      <trkpt lat="42.834190" lon="-0.315541">
        <ele>2215.996</ele>
        <time>2020-07-19T08:15:16Z</time>
      </trkpt>
      <trkpt lat="42.834236" lon="-0.315552">
        <ele>2215.698</ele>
        <time>2020-07-19T08:15:20Z</time>
      </trkpt>
      <trkpt lat="42.834280" lon="-0.315571">
        <ele>2216.068</ele>
        <time>2020-07-19T08:15:29Z</time>
      </trkpt>
      <trkpt lat="42.834323" lon="-0.315539">
        <ele>2218.270</ele>
        <time>2020-07-19T08:15:36Z</time>
      </trkpt>
      <trkpt lat="42.834346" lon="-0.315478">
        <ele>2218.466</ele>
        <time>2020-07-19T08:15:47Z</time>
      </trkpt>
      <trkpt lat="42.834365" lon="-0.315440">
        <ele>2223.047</ele>
        <time>2020-07-19T08:16:07Z</time>
      </trkpt>
      <trkpt lat="42.834372" lon="-0.315388">
        <ele>2223.929</ele>
        <time>2020-07-19T08:16:16Z</time>
      </trkpt>
      <trkpt lat="42.834410" lon="-0.315344">
        <ele>2224.821</ele>
        <time>2020-07-19T08:16:25Z</time>
      </trkpt>
      <trkpt lat="42.834440" lon="-0.315399">
        <ele>2225.908</ele>
        <time>2020-07-19T08:16:32Z</time>
      </trkpt>
      <trkpt lat="42.834452" lon="-0.315459">
        <ele>2226.559</ele>
        <time>2020-07-19T08:16:37Z</time>
      </trkpt>
      <trkpt lat="42.834456" lon="-0.315534">
        <ele>2227.137</ele>
        <time>2020-07-19T08:16:45Z</time>
      </trkpt>
      <trkpt lat="42.834447" lon="-0.315597">
        <ele>2228.580</ele>
        <time>2020-07-19T08:16:51Z</time>
      </trkpt>
      <trkpt lat="42.834446" lon="-0.315660">
        <ele>2228.557</ele>
        <time>2020-07-19T08:16:57Z</time>
      </trkpt>
      <trkpt lat="42.834458" lon="-0.315726">
        <ele>2227.989</ele>
        <time>2020-07-19T08:17:05Z</time>
      </trkpt>
      <trkpt lat="42.834464" lon="-0.315805">
        <ele>2228.039</ele>
        <time>2020-07-19T08:17:12Z</time>
      </trkpt>
      <trkpt lat="42.834455" lon="-0.315875">
        <ele>2228.451</ele>
        <time>2020-07-19T08:17:19Z</time>
      </trkpt>
      <trkpt lat="42.834431" lon="-0.315930">
        <ele>2228.517</ele>
        <time>2020-07-19T08:18:02Z</time>
      </trkpt>
      <trkpt lat="42.834424" lon="-0.315991">
        <ele>2228.593</ele>
        <time>2020-07-19T08:18:06Z</time>
      </trkpt>
      <trkpt lat="42.834417" lon="-0.316063">
        <ele>2230.465</ele>
        <time>2020-07-19T08:18:11Z</time>
      </trkpt>
      <trkpt lat="42.834437" lon="-0.316131">
        <ele>2231.421</ele>
        <time>2020-07-19T08:18:17Z</time>
      </trkpt>
      <trkpt lat="42.834477" lon="-0.316203">
        <ele>2232.008</ele>
        <time>2020-07-19T08:18:23Z</time>
      </trkpt>
      <trkpt lat="42.834513" lon="-0.316256">
        <ele>2231.984</ele>
        <time>2020-07-19T08:18:30Z</time>
      </trkpt>
      <trkpt lat="42.834488" lon="-0.316311">
        <ele>2230.922</ele>
        <time>2020-07-19T08:20:43Z</time>
      </trkpt>
      <trkpt lat="42.834473" lon="-0.316364">
        <ele>2231.085</ele>
        <time>2020-07-19T08:20:48Z</time>
      </trkpt>
      <trkpt lat="42.834457" lon="-0.316448">
        <ele>2228.852</ele>
        <time>2020-07-19T08:20:54Z</time>
      </trkpt>
      <trkpt lat="42.834435" lon="-0.316520">
        <ele>2230.674</ele>
        <time>2020-07-19T08:20:59Z</time>
      </trkpt>
      <trkpt lat="42.834418" lon="-0.316571">
        <ele>2232.194</ele>
        <time>2020-07-19T08:21:04Z</time>
      </trkpt>
      <trkpt lat="42.834415" lon="-0.316644">
        <ele>2231.376</ele>
        <time>2020-07-19T08:21:10Z</time>
      </trkpt>
      <trkpt lat="42.834419" lon="-0.316711">
        <ele>2230.462</ele>
        <time>2020-07-19T08:21:16Z</time>
      </trkpt>
      <trkpt lat="42.834432" lon="-0.316779">
        <ele>2230.578</ele>
        <time>2020-07-19T08:21:23Z</time>
      </trkpt>
      <trkpt lat="42.834439" lon="-0.316852">
        <ele>2230.733</ele>
        <time>2020-07-19T08:21:30Z</time>
      </trkpt>
      <trkpt lat="42.834436" lon="-0.316916">
        <ele>2230.326</ele>
        <time>2020-07-19T08:21:37Z</time>
      </trkpt>
      <trkpt lat="42.834411" lon="-0.316975">
        <ele>2229.408</ele>
        <time>2020-07-19T08:21:46Z</time>
      </trkpt>
      <trkpt lat="42.834385" lon="-0.317028">
        <ele>2227.712</ele>
        <time>2020-07-19T08:21:51Z</time>
      </trkpt>
      <trkpt lat="42.834347" lon="-0.317080">
        <ele>2229.960</ele>
        <time>2020-07-19T08:21:57Z</time>
      </trkpt>
      <trkpt lat="42.834323" lon="-0.317148">
        <ele>2228.763</ele>
        <time>2020-07-19T08:22:03Z</time>
      </trkpt>
      <trkpt lat="42.834315" lon="-0.317228">
        <ele>2229.590</ele>
        <time>2020-07-19T08:22:09Z</time>
      </trkpt>
      <trkpt lat="42.834310" lon="-0.317304">
        <ele>2229.552</ele>
        <time>2020-07-19T08:22:14Z</time>
      </trkpt>
      <trkpt lat="42.834325" lon="-0.317375">
        <ele>2229.232</ele>
        <time>2020-07-19T08:22:19Z</time>
      </trkpt>
      <trkpt lat="42.834338" lon="-0.317439">
        <ele>2230.124</ele>
        <time>2020-07-19T08:22:24Z</time>
      </trkpt>
      <trkpt lat="42.834347" lon="-0.317506">
        <ele>2231.580</ele>
        <time>2020-07-19T08:22:30Z</time>
      </trkpt>
      <trkpt lat="42.834376" lon="-0.317570">
        <ele>2230.955</ele>
        <time>2020-07-19T08:22:37Z</time>
      </trkpt>
      <trkpt lat="42.834428" lon="-0.317597">
        <ele>2230.107</ele>
        <time>2020-07-19T08:22:44Z</time>
      </trkpt>
      <trkpt lat="42.834482" lon="-0.317594">
        <ele>2230.017</ele>
        <time>2020-07-19T08:22:49Z</time>
      </trkpt>
      <trkpt lat="42.834536" lon="-0.317591">
        <ele>2229.908</ele>
        <time>2020-07-19T08:22:54Z</time>
      </trkpt>
      <trkpt lat="42.834588" lon="-0.317581">
        <ele>2229.960</ele>
        <time>2020-07-19T08:23:01Z</time>
      </trkpt>
      <trkpt lat="42.834636" lon="-0.317574">
        <ele>2229.578</ele>
        <time>2020-07-19T08:23:08Z</time>
      </trkpt>
      <trkpt lat="42.834688" lon="-0.317573">
        <ele>2229.411</ele>
        <time>2020-07-19T08:23:14Z</time>
      </trkpt>
      <trkpt lat="42.834740" lon="-0.317576">
        <ele>2228.768</ele>
        <time>2020-07-19T08:23:21Z</time>
      </trkpt>
      <trkpt lat="42.834788" lon="-0.317555">
        <ele>2228.120</ele>
        <time>2020-07-19T08:23:28Z</time>
      </trkpt>
      <trkpt lat="42.834835" lon="-0.317530">
        <ele>2229.050</ele>
        <time>2020-07-19T08:23:36Z</time>
      </trkpt>
      <trkpt lat="42.834880" lon="-0.317501">
        <ele>2228.792</ele>
        <time>2020-07-19T08:23:44Z</time>
      </trkpt>
      <trkpt lat="42.834924" lon="-0.317470">
        <ele>2227.398</ele>
        <time>2020-07-19T08:23:50Z</time>
      </trkpt>
      <trkpt lat="42.834973" lon="-0.317424">
        <ele>2228.441</ele>
        <time>2020-07-19T08:23:57Z</time>
      </trkpt>
      <trkpt lat="42.835009" lon="-0.317385">
        <ele>2228.081</ele>
        <time>2020-07-19T08:24:02Z</time>
      </trkpt>
      <trkpt lat="42.835047" lon="-0.317340">
        <ele>2227.609</ele>
        <time>2020-07-19T08:24:08Z</time>
      </trkpt>
      <trkpt lat="42.835086" lon="-0.317296">
        <ele>2228.308</ele>
        <time>2020-07-19T08:24:16Z</time>
      </trkpt>
      <trkpt lat="42.835124" lon="-0.317252">
        <ele>2229.219</ele>
        <time>2020-07-19T08:24:23Z</time>
      </trkpt>
      <trkpt lat="42.835170" lon="-0.317231">
        <ele>2228.637</ele>
        <time>2020-07-19T08:24:29Z</time>
      </trkpt>
      <trkpt lat="42.835220" lon="-0.317215">
        <ele>2228.160</ele>
        <time>2020-07-19T08:24:35Z</time>
      </trkpt>
      <trkpt lat="42.835264" lon="-0.317185">
        <ele>2229.157</ele>
        <time>2020-07-19T08:24:41Z</time>
      </trkpt>
      <trkpt lat="42.835293" lon="-0.317132">
        <ele>2229.079</ele>
        <time>2020-07-19T08:24:47Z</time>
      </trkpt>
      <trkpt lat="42.835320" lon="-0.317072">
        <ele>2228.459</ele>
        <time>2020-07-19T08:24:51Z</time>
      </trkpt>
      <trkpt lat="42.835354" lon="-0.317024">
        <ele>2228.311</ele>
        <time>2020-07-19T08:24:57Z</time>
      </trkpt>
      <trkpt lat="42.835397" lon="-0.316994">
        <ele>2227.897</ele>
        <time>2020-07-19T08:25:02Z</time>
      </trkpt>
      <trkpt lat="42.835442" lon="-0.316975">
        <ele>2229.447</ele>
        <time>2020-07-19T08:25:07Z</time>
      </trkpt>
      <trkpt lat="42.835491" lon="-0.316958">
        <ele>2228.629</ele>
        <time>2020-07-19T08:25:15Z</time>
      </trkpt>
      <trkpt lat="42.835541" lon="-0.316928">
        <ele>2228.021</ele>
        <time>2020-07-19T08:25:24Z</time>
      </trkpt>
      <trkpt lat="42.835583" lon="-0.316893">
        <ele>2228.108</ele>
        <time>2020-07-19T08:25:29Z</time>
      </trkpt>
      <trkpt lat="42.835627" lon="-0.316844">
        <ele>2228.019</ele>
        <time>2020-07-19T08:25:36Z</time>
      </trkpt>
      <trkpt lat="42.835642" lon="-0.316786">
        <ele>2227.927</ele>
        <time>2020-07-19T08:25:41Z</time>
      </trkpt>
      <trkpt lat="42.835615" lon="-0.316729">
        <ele>2227.450</ele>
        <time>2020-07-19T08:25:55Z</time>
      </trkpt>
      <trkpt lat="42.835623" lon="-0.316662">
        <ele>2227.967</ele>
        <time>2020-07-19T08:26:00Z</time>
      </trkpt>
      <trkpt lat="42.835658" lon="-0.316620">
        <ele>2227.699</ele>
        <time>2020-07-19T08:26:08Z</time>
      </trkpt>
      <trkpt lat="42.835709" lon="-0.316604">
        <ele>2228.139</ele>
        <time>2020-07-19T08:26:14Z</time>
      </trkpt>
      <trkpt lat="42.835752" lon="-0.316574">
        <ele>2227.881</ele>
        <time>2020-07-19T08:26:19Z</time>
      </trkpt>
      <trkpt lat="42.835790" lon="-0.316539">
        <ele>2227.767</ele>
        <time>2020-07-19T08:26:25Z</time>
      </trkpt>
      <trkpt lat="42.835822" lon="-0.316492">
        <ele>2227.091</ele>
        <time>2020-07-19T08:26:31Z</time>
      </trkpt>
      <trkpt lat="42.835853" lon="-0.316441">
        <ele>2227.081</ele>
        <time>2020-07-19T08:26:36Z</time>
      </trkpt>
      <trkpt lat="42.835880" lon="-0.316386">
        <ele>2226.419</ele>
        <time>2020-07-19T08:26:41Z</time>
      </trkpt>
      <trkpt lat="42.835915" lon="-0.316334">
        <ele>2226.108</ele>
        <time>2020-07-19T08:26:49Z</time>
      </trkpt>
      <trkpt lat="42.835959" lon="-0.316295">
        <ele>2227.674</ele>
        <time>2020-07-19T08:26:54Z</time>
      </trkpt>
      <trkpt lat="42.835999" lon="-0.316251">
        <ele>2225.512</ele>
        <time>2020-07-19T08:26:59Z</time>
      </trkpt>
      <trkpt lat="42.836046" lon="-0.316223">
        <ele>2227.535</ele>
        <time>2020-07-19T08:27:04Z</time>
      </trkpt>
      <trkpt lat="42.836096" lon="-0.316184">
        <ele>2228.732</ele>
        <time>2020-07-19T08:27:11Z</time>
      </trkpt>
      <trkpt lat="42.836138" lon="-0.316152">
        <ele>2226.814</ele>
        <time>2020-07-19T08:27:17Z</time>
      </trkpt>
      <trkpt lat="42.836176" lon="-0.316114">
        <ele>2228.434</ele>
        <time>2020-07-19T08:27:22Z</time>
      </trkpt>
      <trkpt lat="42.836220" lon="-0.316076">
        <ele>2225.576</ele>
        <time>2020-07-19T08:27:29Z</time>
      </trkpt>
      <trkpt lat="42.836264" lon="-0.316047">
        <ele>2227.212</ele>
        <time>2020-07-19T08:27:34Z</time>
      </trkpt>
      <trkpt lat="42.836313" lon="-0.316011">
        <ele>2227.247</ele>
        <time>2020-07-19T08:27:40Z</time>
      </trkpt>
      <trkpt lat="42.836355" lon="-0.315978">
        <ele>2226.829</ele>
        <time>2020-07-19T08:27:45Z</time>
      </trkpt>
      <trkpt lat="42.836400" lon="-0.315953">
        <ele>2228.221</ele>
        <time>2020-07-19T08:27:51Z</time>
      </trkpt>
      <trkpt lat="42.836440" lon="-0.315916">
        <ele>2227.708</ele>
        <time>2020-07-19T08:27:56Z</time>
      </trkpt>
      <trkpt lat="42.836482" lon="-0.315892">
        <ele>2227.689</ele>
        <time>2020-07-19T08:28:01Z</time>
      </trkpt>
      <trkpt lat="42.836526" lon="-0.315856">
        <ele>2227.167</ele>
        <time>2020-07-19T08:28:06Z</time>
      </trkpt>
      <trkpt lat="42.836562" lon="-0.315814">
        <ele>2227.960</ele>
        <time>2020-07-19T08:28:11Z</time>
      </trkpt>
      <trkpt lat="42.836587" lon="-0.315751">
        <ele>2226.937</ele>
        <time>2020-07-19T08:28:17Z</time>
      </trkpt>
      <trkpt lat="42.836601" lon="-0.315680">
        <ele>2227.289</ele>
        <time>2020-07-19T08:28:22Z</time>
      </trkpt>
      <trkpt lat="42.836625" lon="-0.315617">
        <ele>2227.219</ele>
        <time>2020-07-19T08:28:29Z</time>
      </trkpt>
      <trkpt lat="42.836658" lon="-0.315561">
        <ele>2227.111</ele>
        <time>2020-07-19T08:28:35Z</time>
      </trkpt>
      <trkpt lat="42.836693" lon="-0.315501">
        <ele>2226.337</ele>
        <time>2020-07-19T08:28:40Z</time>
      </trkpt>
      <trkpt lat="42.836725" lon="-0.315441">
        <ele>2224.013</ele>
        <time>2020-07-19T08:28:47Z</time>
      </trkpt>
      <trkpt lat="42.836748" lon="-0.315370">
        <ele>2226.843</ele>
        <time>2020-07-19T08:28:52Z</time>
      </trkpt>
      <trkpt lat="42.836780" lon="-0.315322">
        <ele>2228.807</ele>
        <time>2020-07-19T08:28:57Z</time>
      </trkpt>
      <trkpt lat="42.836819" lon="-0.315265">
        <ele>2229.508</ele>
        <time>2020-07-19T08:29:05Z</time>
      </trkpt>
      <trkpt lat="42.836871" lon="-0.315237">
        <ele>2228.436</ele>
        <time>2020-07-19T08:29:10Z</time>
      </trkpt>
      <trkpt lat="42.836918" lon="-0.315205">
        <ele>2228.024</ele>
        <time>2020-07-19T08:29:15Z</time>
      </trkpt>
      <trkpt lat="42.836953" lon="-0.315175">
        <ele>2231.537</ele>
        <time>2020-07-19T08:29:22Z</time>
      </trkpt>
      <trkpt lat="42.836972" lon="-0.315105">
        <ele>2231.664</ele>
        <time>2020-07-19T08:29:28Z</time>
      </trkpt>
      <trkpt lat="42.836966" lon="-0.315062">
        <ele>2232.356</ele>
        <time>2020-07-19T08:29:35Z</time>
      </trkpt>
      <trkpt lat="42.836990" lon="-0.315019">
        <ele>2230.836</ele>
        <time>2020-07-19T08:29:55Z</time>
      </trkpt>
      <trkpt lat="42.837020" lon="-0.314955">
        <ele>2230.818</ele>
        <time>2020-07-19T08:30:00Z</time>
      </trkpt>
      <trkpt lat="42.837065" lon="-0.314901">
        <ele>2229.954</ele>
        <time>2020-07-19T08:30:05Z</time>
      </trkpt>
      <trkpt lat="42.837113" lon="-0.314861">
        <ele>2231.526</ele>
        <time>2020-07-19T08:30:09Z</time>
      </trkpt>
      <trkpt lat="42.837157" lon="-0.314831">
        <ele>2231.947</ele>
        <time>2020-07-19T08:30:13Z</time>
      </trkpt>
      <trkpt lat="42.837204" lon="-0.314817">
        <ele>2233.011</ele>
        <time>2020-07-19T08:30:18Z</time>
      </trkpt>
      <trkpt lat="42.837250" lon="-0.314809">
        <ele>2231.508</ele>
        <time>2020-07-19T08:30:25Z</time>
      </trkpt>
      <trkpt lat="42.837297" lon="-0.314823">
        <ele>2232.467</ele>
        <time>2020-07-19T08:33:26Z</time>
      </trkpt>
      <trkpt lat="42.837323" lon="-0.314885">
        <ele>2232.585</ele>
        <time>2020-07-19T08:33:37Z</time>
      </trkpt>
      <trkpt lat="42.837367" lon="-0.314918">
        <ele>2231.858</ele>
        <time>2020-07-19T08:33:50Z</time>
      </trkpt>
      <trkpt lat="42.837419" lon="-0.314956">
        <ele>2232.125</ele>
        <time>2020-07-19T08:33:57Z</time>
      </trkpt>
      <trkpt lat="42.837466" lon="-0.314997">
        <ele>2232.787</ele>
        <time>2020-07-19T08:34:02Z</time>
      </trkpt>
      <trkpt lat="42.837503" lon="-0.315041">
        <ele>2232.397</ele>
        <time>2020-07-19T08:34:07Z</time>
      </trkpt>
      <trkpt lat="42.837545" lon="-0.315103">
        <ele>2232.149</ele>
        <time>2020-07-19T08:34:14Z</time>
      </trkpt>
      <trkpt lat="42.837584" lon="-0.315153">
        <ele>2231.585</ele>
        <time>2020-07-19T08:34:20Z</time>
      </trkpt>
      <trkpt lat="42.837619" lon="-0.315200">
        <ele>2232.356</ele>
        <time>2020-07-19T08:34:26Z</time>
      </trkpt>
      <trkpt lat="42.837651" lon="-0.315258">
        <ele>2232.059</ele>
        <time>2020-07-19T08:34:33Z</time>
      </trkpt>
      <trkpt lat="42.837683" lon="-0.315321">
        <ele>2231.014</ele>
        <time>2020-07-19T08:34:40Z</time>
      </trkpt>
      <trkpt lat="42.837716" lon="-0.315371">
        <ele>2232.208</ele>
        <time>2020-07-19T08:34:46Z</time>
      </trkpt>
      <trkpt lat="42.837730" lon="-0.315433">
        <ele>2233.010</ele>
        <time>2020-07-19T08:34:52Z</time>
      </trkpt>
      <trkpt lat="42.837741" lon="-0.315495">
        <ele>2233.588</ele>
        <time>2020-07-19T08:34:57Z</time>
      </trkpt>
      <trkpt lat="42.837746" lon="-0.315561">
        <ele>2233.721</ele>
        <time>2020-07-19T08:35:03Z</time>
      </trkpt>
      <trkpt lat="42.837745" lon="-0.315631">
        <ele>2233.838</ele>
        <time>2020-07-19T08:35:10Z</time>
      </trkpt>
      <trkpt lat="42.837742" lon="-0.315705">
        <ele>2233.470</ele>
        <time>2020-07-19T08:35:17Z</time>
      </trkpt>
      <trkpt lat="42.837736" lon="-0.315776">
        <ele>2234.120</ele>
        <time>2020-07-19T08:35:22Z</time>
      </trkpt>
      <trkpt lat="42.837741" lon="-0.315847">
        <ele>2235.292</ele>
        <time>2020-07-19T08:35:29Z</time>
      </trkpt>
      <trkpt lat="42.837745" lon="-0.315916">
        <ele>2233.928</ele>
        <time>2020-07-19T08:35:34Z</time>
      </trkpt>
      <trkpt lat="42.837742" lon="-0.315978">
        <ele>2234.791</ele>
        <time>2020-07-19T08:35:39Z</time>
      </trkpt>
      <trkpt lat="42.837766" lon="-0.316046">
        <ele>2236.381</ele>
        <time>2020-07-19T08:37:38Z</time>
      </trkpt>
      <trkpt lat="42.837795" lon="-0.316108">
        <ele>2236.019</ele>
        <time>2020-07-19T08:37:47Z</time>
      </trkpt>
      <trkpt lat="42.837826" lon="-0.316170">
        <ele>2235.308</ele>
        <time>2020-07-19T08:37:56Z</time>
      </trkpt>
      <trkpt lat="42.837857" lon="-0.316219">
        <ele>2236.144</ele>
        <time>2020-07-19T08:38:02Z</time>
      </trkpt>
      <trkpt lat="42.837889" lon="-0.316269">
        <ele>2235.442</ele>
        <time>2020-07-19T08:38:15Z</time>
      </trkpt>
      <trkpt lat="42.837927" lon="-0.316269">
        <ele>2236.475</ele>
        <time>2020-07-19T08:38:23Z</time>
      </trkpt>
      <trkpt lat="42.837956" lon="-0.316328">
        <ele>2236.562</ele>
        <time>2020-07-19T08:38:51Z</time>
      </trkpt>
      <trkpt lat="42.837953" lon="-0.316390">
        <ele>2235.374</ele>
        <time>2020-07-19T08:39:01Z</time>
      </trkpt>
      <trkpt lat="42.837974" lon="-0.316436">
        <ele>2238.374</ele>
        <time>2020-07-19T08:39:13Z</time>
      </trkpt>
      <trkpt lat="42.838006" lon="-0.316454">
        <ele>2238.796</ele>
        <time>2020-07-19T08:39:54Z</time>
      </trkpt>
      <trkpt lat="42.838038" lon="-0.316508">
        <ele>2236.282</ele>
        <time>2020-07-19T08:40:56Z</time>
      </trkpt>
      <trkpt lat="42.838065" lon="-0.316555">
        <ele>2240.236</ele>
        <time>2020-07-19T08:41:10Z</time>
      </trkpt>
      <trkpt lat="42.838071" lon="-0.316612">
        <ele>2241.217</ele>
        <time>2020-07-19T08:41:22Z</time>
      </trkpt>
      <trkpt lat="42.838090" lon="-0.316675">
        <ele>2241.118</ele>
        <time>2020-07-19T08:41:33Z</time>
      </trkpt>
      <trkpt lat="42.838117" lon="-0.316733">
        <ele>2239.108</ele>
        <time>2020-07-19T08:41:45Z</time>
      </trkpt>
      <trkpt lat="42.838153" lon="-0.316786">
        <ele>2240.258</ele>
        <time>2020-07-19T08:41:52Z</time>
      </trkpt>
      <trkpt lat="42.838179" lon="-0.316837">
        <ele>2241.086</ele>
        <time>2020-07-19T08:42:01Z</time>
      </trkpt>
      <trkpt lat="42.838175" lon="-0.316898">
        <ele>2240.759</ele>
        <time>2020-07-19T08:42:22Z</time>
      </trkpt>
      <trkpt lat="42.838193" lon="-0.316963">
        <ele>2242.716</ele>
        <time>2020-07-19T08:42:36Z</time>
      </trkpt>
      <trkpt lat="42.838196" lon="-0.317029">
        <ele>2240.478</ele>
        <time>2020-07-19T08:42:47Z</time>
      </trkpt>
      <trkpt lat="42.838228" lon="-0.317064">
        <ele>2242.018</ele>
        <time>2020-07-19T08:43:01Z</time>
      </trkpt>
      <trkpt lat="42.838268" lon="-0.317097">
        <ele>2241.180</ele>
        <time>2020-07-19T08:43:15Z</time>
      </trkpt>
      <trkpt lat="42.838316" lon="-0.317109">
        <ele>2241.476</ele>
        <time>2020-07-19T08:43:29Z</time>
      </trkpt>
      <trkpt lat="42.838365" lon="-0.317131">
        <ele>2238.599</ele>
        <time>2020-07-19T08:43:41Z</time>
      </trkpt>
      <trkpt lat="42.838384" lon="-0.317195">
        <ele>2241.507</ele>
        <time>2020-07-19T08:44:34Z</time>
      </trkpt>
      <trkpt lat="42.838422" lon="-0.317240">
        <ele>2239.827</ele>
        <time>2020-07-19T08:44:40Z</time>
      </trkpt>
      <trkpt lat="42.838447" lon="-0.317297">
        <ele>2242.208</ele>
        <time>2020-07-19T08:44:46Z</time>
      </trkpt>
      <trkpt lat="42.838470" lon="-0.317357">
        <ele>2243.984</ele>
        <time>2020-07-19T08:44:52Z</time>
      </trkpt>
      <trkpt lat="42.838509" lon="-0.317392">
        <ele>2244.312</ele>
        <time>2020-07-19T08:45:00Z</time>
      </trkpt>
      <trkpt lat="42.838552" lon="-0.317410">
        <ele>2245.245</ele>
        <time>2020-07-19T08:45:07Z</time>
      </trkpt>
      <trkpt lat="42.838603" lon="-0.317426">
        <ele>2245.882</ele>
        <time>2020-07-19T08:45:18Z</time>
      </trkpt>
      <trkpt lat="42.838651" lon="-0.317417">
        <ele>2245.714</ele>
        <time>2020-07-19T08:45:39Z</time>
      </trkpt>
      <trkpt lat="42.838697" lon="-0.317411">
        <ele>2244.454</ele>
        <time>2020-07-19T08:45:53Z</time>
      </trkpt>
      <trkpt lat="42.838742" lon="-0.317403">
        <ele>2243.646</ele>
        <time>2020-07-19T08:46:05Z</time>
      </trkpt>
      <trkpt lat="42.838786" lon="-0.317431">
        <ele>2242.162</ele>
        <time>2020-07-19T08:46:15Z</time>
      </trkpt>
      <trkpt lat="42.838815" lon="-0.317486">
        <ele>2243.395</ele>
        <time>2020-07-19T08:46:27Z</time>
      </trkpt>
      <trkpt lat="42.838839" lon="-0.317539">
        <ele>2242.249</ele>
        <time>2020-07-19T08:46:35Z</time>
      </trkpt>
      <trkpt lat="42.838878" lon="-0.317576">
        <ele>2245.123</ele>
        <time>2020-07-19T08:46:47Z</time>
      </trkpt>
      <trkpt lat="42.838906" lon="-0.317624">
        <ele>2244.308</ele>
        <time>2020-07-19T08:47:17Z</time>
      </trkpt>
      <trkpt lat="42.838955" lon="-0.317640">
        <ele>2244.784</ele>
        <time>2020-07-19T08:47:28Z</time>
      </trkpt>
      <trkpt lat="42.838997" lon="-0.317683">
        <ele>2244.012</ele>
        <time>2020-07-19T08:47:36Z</time>
      </trkpt>
      <trkpt lat="42.839049" lon="-0.317694">
        <ele>2245.355</ele>
        <time>2020-07-19T08:47:41Z</time>
      </trkpt>
      <trkpt lat="42.839096" lon="-0.317709">
        <ele>2245.712</ele>
        <time>2020-07-19T08:47:46Z</time>
      </trkpt>
      <trkpt lat="42.839144" lon="-0.317721">
        <ele>2246.884</ele>
        <time>2020-07-19T08:47:52Z</time>
      </trkpt>
      <trkpt lat="42.839187" lon="-0.317734">
        <ele>2247.924</ele>
        <time>2020-07-19T08:47:58Z</time>
      </trkpt>
      <trkpt lat="42.839228" lon="-0.317711">
        <ele>2247.876</ele>
        <time>2020-07-19T08:48:13Z</time>
      </trkpt>
      <trkpt lat="42.839268" lon="-0.317692">
        <ele>2246.972</ele>
        <time>2020-07-19T08:49:03Z</time>
      </trkpt>
      <trkpt lat="42.839309" lon="-0.317719">
        <ele>2247.065</ele>
        <time>2020-07-19T08:50:02Z</time>
      </trkpt>
      <trkpt lat="42.839363" lon="-0.317750">
        <ele>2247.668</ele>
        <time>2020-07-19T08:50:12Z</time>
      </trkpt>
      <trkpt lat="42.839409" lon="-0.317737">
        <ele>2250.014</ele>
        <time>2020-07-19T08:50:18Z</time>
      </trkpt>
      <trkpt lat="42.839454" lon="-0.317713">
        <ele>2249.608</ele>
        <time>2020-07-19T08:50:28Z</time>
      </trkpt>
      <trkpt lat="42.839499" lon="-0.317712">
        <ele>2251.591</ele>
        <time>2020-07-19T08:50:35Z</time>
      </trkpt>
      <trkpt lat="42.839534" lon="-0.317755">
        <ele>2251.379</ele>
        <time>2020-07-19T08:50:44Z</time>
      </trkpt>
      <trkpt lat="42.839560" lon="-0.317807">
        <ele>2252.832</ele>
        <time>2020-07-19T08:50:51Z</time>
      </trkpt>
      <trkpt lat="42.839553" lon="-0.317868">
        <ele>2256.979</ele>
        <time>2020-07-19T08:50:57Z</time>
      </trkpt>
      <trkpt lat="42.839544" lon="-0.317935">
        <ele>2258.121</ele>
        <time>2020-07-19T08:51:23Z</time>
      </trkpt>
      <trkpt lat="42.839544" lon="-0.318002">
        <ele>2258.181</ele>
        <time>2020-07-19T08:51:34Z</time>
      </trkpt>
      <trkpt lat="42.839587" lon="-0.318035">
        <ele>2261.223</ele>
        <time>2020-07-19T08:51:57Z</time>
      </trkpt>
      <trkpt lat="42.839632" lon="-0.318016">
        <ele>2261.579</ele>
        <time>2020-07-19T08:52:06Z</time>
      </trkpt>
      <trkpt lat="42.839683" lon="-0.318024">
        <ele>2266.336</ele>
        <time>2020-07-19T08:52:45Z</time>
      </trkpt>
      <trkpt lat="42.839728" lon="-0.318031">
        <ele>2267.417</ele>
        <time>2020-07-19T08:53:18Z</time>
      </trkpt>
      <trkpt lat="42.839736" lon="-0.318086">
        <ele>2274.318</ele>
        <time>2020-07-19T08:54:38Z</time>
      </trkpt>
      <trkpt lat="42.839769" lon="-0.318082">
        <ele>2274.708</ele>
        <time>2020-07-19T08:55:19Z</time>
      </trkpt>
      <trkpt lat="42.839794" lon="-0.318062">
        <ele>2274.848</ele>
        <time>2020-07-19T08:55:30Z</time>
      </trkpt>
      <trkpt lat="42.839803" lon="-0.318116">
        <ele>2275.336</ele>
        <time>2020-07-19T08:55:57Z</time>
      </trkpt>
      <trkpt lat="42.839809" lon="-0.318167">
        <ele>2277.529</ele>
        <time>2020-07-19T08:56:15Z</time>
      </trkpt>
      <trkpt lat="42.839856" lon="-0.318169">
        <ele>2280.056</ele>
        <time>2020-07-19T08:56:29Z</time>
      </trkpt>
      <trkpt lat="42.839898" lon="-0.318192">
        <ele>2283.228</ele>
        <time>2020-07-19T08:56:42Z</time>
      </trkpt>
      <trkpt lat="42.839923" lon="-0.318248">
        <ele>2282.438</ele>
        <time>2020-07-19T08:56:52Z</time>
      </trkpt>
      <trkpt lat="42.839906" lon="-0.318303">
        <ele>2286.550</ele>
        <time>2020-07-19T08:58:15Z</time>
      </trkpt>
      <trkpt lat="42.839938" lon="-0.318336">
        <ele>2290.156</ele>
        <time>2020-07-19T08:58:35Z</time>
      </trkpt>
      <trkpt lat="42.839961" lon="-0.318384">
        <ele>2292.662</ele>
        <time>2020-07-19T08:58:51Z</time>
      </trkpt>
      <trkpt lat="42.839960" lon="-0.318455">
        <ele>2295.883</ele>
        <time>2020-07-19T08:59:18Z</time>
      </trkpt>
      <trkpt lat="42.839999" lon="-0.318474">
        <ele>2299.611</ele>
        <time>2020-07-19T09:02:49Z</time>
      </trkpt>
      <trkpt lat="42.840045" lon="-0.318495">
        <ele>2300.408</ele>
        <time>2020-07-19T09:03:02Z</time>
      </trkpt>
      <trkpt lat="42.840060" lon="-0.318555">
        <ele>2304.081</ele>
        <time>2020-07-19T09:03:23Z</time>
      </trkpt>
      <trkpt lat="42.840070" lon="-0.318620">
        <ele>2307.429</ele>
        <time>2020-07-19T09:03:33Z</time>
      </trkpt>
      <trkpt lat="42.840102" lon="-0.318637">
        <ele>2310.582</ele>
        <time>2020-07-19T09:04:36Z</time>
      </trkpt>
      <trkpt lat="42.840126" lon="-0.318683">
        <ele>2311.329</ele>
        <time>2020-07-19T09:04:47Z</time>
      </trkpt>
      <trkpt lat="42.840162" lon="-0.318670">
        <ele>2308.761</ele>
        <time>2020-07-19T09:06:47Z</time>
      </trkpt>
      <trkpt lat="42.840172" lon="-0.318720">
        <ele>2311.761</ele>
        <time>2020-07-19T09:07:04Z</time>
      </trkpt>
      <trkpt lat="42.840171" lon="-0.318787">
        <ele>2315.553</ele>
        <time>2020-07-19T09:07:30Z</time>
      </trkpt>
      <trkpt lat="42.840155" lon="-0.318845">
        <ele>2318.389</ele>
        <time>2020-07-19T09:07:44Z</time>
      </trkpt>
      <trkpt lat="42.840107" lon="-0.318873">
        <ele>2323.286</ele>
        <time>2020-07-19T09:07:53Z</time>
      </trkpt>
      <trkpt lat="42.840080" lon="-0.318924">
        <ele>2320.960</ele>
        <time>2020-07-19T09:07:59Z</time>
      </trkpt>
      <trkpt lat="42.840048" lon="-0.318978">
        <ele>2324.426</ele>
        <time>2020-07-19T09:08:06Z</time>
      </trkpt>
      <trkpt lat="42.840029" lon="-0.319041">
        <ele>2326.508</ele>
        <time>2020-07-19T09:08:13Z</time>
      </trkpt>
      <trkpt lat="42.839996" lon="-0.319089">
        <ele>2326.123</ele>
        <time>2020-07-19T09:08:22Z</time>
      </trkpt>
      <trkpt lat="42.839965" lon="-0.319138">
        <ele>2328.721</ele>
        <time>2020-07-19T09:08:39Z</time>
      </trkpt>
      <trkpt lat="42.839919" lon="-0.319151">
        <ele>2331.024</ele>
        <time>2020-07-19T09:08:47Z</time>
      </trkpt>
      <trkpt lat="42.839894" lon="-0.319182">
        <ele>2332.711</ele>
        <time>2020-07-19T09:10:07Z</time>
      </trkpt>
      <trkpt lat="42.839899" lon="-0.319238">
        <ele>2331.883</ele>
        <time>2020-07-19T09:14:16Z</time>
      </trkpt>
      <trkpt lat="42.839929" lon="-0.319261">
        <ele>2330.163</ele>
        <time>2020-07-19T09:15:10Z</time>
      </trkpt>
      <trkpt lat="42.839919" lon="-0.319311">
        <ele>2332.745</ele>
        <time>2020-07-19T09:15:24Z</time>
      </trkpt>
      <trkpt lat="42.839869" lon="-0.319335">
        <ele>2333.651</ele>
        <time>2020-07-19T09:15:32Z</time>
      </trkpt>
      <trkpt lat="42.839836" lon="-0.319378">
        <ele>2335.385</ele>
        <time>2020-07-19T09:15:43Z</time>
      </trkpt>
      <trkpt lat="42.839811" lon="-0.319425">
        <ele>2334.889</ele>
        <time>2020-07-19T09:16:04Z</time>
      </trkpt>
      <trkpt lat="42.839768" lon="-0.319424">
        <ele>2341.017</ele>
        <time>2020-07-19T09:16:16Z</time>
      </trkpt>
      <trkpt lat="42.839733" lon="-0.319478">
        <ele>2337.808</ele>
        <time>2020-07-19T09:16:34Z</time>
      </trkpt>
      <trkpt lat="42.839716" lon="-0.319522">
        <ele>2341.363</ele>
        <time>2020-07-19T09:16:46Z</time>
      </trkpt>
      <trkpt lat="42.839741" lon="-0.319566">
        <ele>2347.941</ele>
        <time>2020-07-19T09:17:24Z</time>
      </trkpt>
      <trkpt lat="42.839744" lon="-0.319622">
        <ele>2349.544</ele>
        <time>2020-07-19T09:17:32Z</time>
      </trkpt>
      <trkpt lat="42.839707" lon="-0.319660">
        <ele>2351.781</ele>
        <time>2020-07-19T09:17:46Z</time>
      </trkpt>
      <trkpt lat="42.839671" lon="-0.319704">
        <ele>2353.323</ele>
        <time>2020-07-19T09:17:57Z</time>
      </trkpt>
      <trkpt lat="42.839621" lon="-0.319758">
        <ele>2354.133</ele>
        <time>2020-07-19T09:18:05Z</time>
      </trkpt>
      <trkpt lat="42.839604" lon="-0.319837">
        <ele>2354.135</ele>
        <time>2020-07-19T09:20:54Z</time>
      </trkpt>
      <trkpt lat="42.839585" lon="-0.319893">
        <ele>2356.311</ele>
        <time>2020-07-19T09:21:00Z</time>
      </trkpt>
      <trkpt lat="42.839545" lon="-0.319941">
        <ele>2356.569</ele>
        <time>2020-07-19T09:21:06Z</time>
      </trkpt>
      <trkpt lat="42.839511" lon="-0.319986">
        <ele>2357.704</ele>
        <time>2020-07-19T09:21:13Z</time>
      </trkpt>
      <trkpt lat="42.839477" lon="-0.320030">
        <ele>2363.124</ele>
        <time>2020-07-19T09:21:43Z</time>
      </trkpt>
      <trkpt lat="42.839464" lon="-0.320074">
        <ele>2366.208</ele>
        <time>2020-07-19T09:22:41Z</time>
      </trkpt>
      <trkpt lat="42.839427" lon="-0.320102">
        <ele>2369.021</ele>
        <time>2020-07-19T09:23:06Z</time>
      </trkpt>
      <trkpt lat="42.839400" lon="-0.320123">
        <ele>2368.549</ele>
        <time>2020-07-19T09:23:25Z</time>
      </trkpt>
      <trkpt lat="42.839405" lon="-0.320178">
        <ele>2374.152</ele>
        <time>2020-07-19T09:24:27Z</time>
      </trkpt>
      <trkpt lat="42.839392" lon="-0.320218">
        <ele>2376.989</ele>
        <time>2020-07-19T09:25:11Z</time>
      </trkpt>
      <trkpt lat="42.839402" lon="-0.320279">
        <ele>2379.981</ele>
        <time>2020-07-19T09:25:28Z</time>
      </trkpt>
      <trkpt lat="42.839443" lon="-0.320279">
        <ele>2381.961</ele>
        <time>2020-07-19T09:25:37Z</time>
      </trkpt>
      <trkpt lat="42.839469" lon="-0.320327">
        <ele>2383.033</ele>
        <time>2020-07-19T09:25:57Z</time>
      </trkpt>
      <trkpt lat="42.839515" lon="-0.320311">
        <ele>2384.139</ele>
        <time>2020-07-19T09:26:12Z</time>
      </trkpt>
      <trkpt lat="42.839553" lon="-0.320294">
        <ele>2381.763</ele>
        <time>2020-07-19T09:26:53Z</time>
      </trkpt>
      <trkpt lat="42.839578" lon="-0.320339">
        <ele>2390.244</ele>
        <time>2020-07-19T09:27:25Z</time>
      </trkpt>
      <trkpt lat="42.839569" lon="-0.320400">
        <ele>2391.418</ele>
        <time>2020-07-19T09:27:49Z</time>
      </trkpt>
      <trkpt lat="42.839568" lon="-0.320469">
        <ele>2391.308</ele>
        <time>2020-07-19T09:27:58Z</time>
      </trkpt>
      <trkpt lat="42.839546" lon="-0.320524">
        <ele>2394.571</ele>
        <time>2020-07-19T09:28:16Z</time>
      </trkpt>
      <trkpt lat="42.839520" lon="-0.320577">
        <ele>2397.849</ele>
        <time>2020-07-19T09:28:35Z</time>
      </trkpt>
      <trkpt lat="42.839479" lon="-0.320620">
        <ele>2397.972</ele>
        <time>2020-07-19T09:28:44Z</time>
      </trkpt>
      <trkpt lat="42.839436" lon="-0.320592">
        <ele>2399.989</ele>
        <time>2020-07-19T09:28:51Z</time>
      </trkpt>
      <trkpt lat="42.839392" lon="-0.320627">
        <ele>2402.791</ele>
        <time>2020-07-19T09:29:02Z</time>
      </trkpt>
      <trkpt lat="42.839376" lon="-0.320686">
        <ele>2400.661</ele>
        <time>2020-07-19T09:29:09Z</time>
      </trkpt>
      <trkpt lat="42.839404" lon="-0.320736">
        <ele>2403.443</ele>
        <time>2020-07-19T09:29:40Z</time>
      </trkpt>
      <trkpt lat="42.839415" lon="-0.320797">
        <ele>2403.229</ele>
        <time>2020-07-19T09:30:25Z</time>
      </trkpt>
      <trkpt lat="42.839446" lon="-0.320818">
        <ele>2403.469</ele>
        <time>2020-07-19T09:37:30Z</time>
      </trkpt>
      <trkpt lat="42.839452" lon="-0.320881">
        <ele>2406.504</ele>
        <time>2020-07-19T09:37:37Z</time>
      </trkpt>
      <trkpt lat="42.839473" lon="-0.320942">
        <ele>2405.124</ele>
        <time>2020-07-19T09:37:41Z</time>
      </trkpt>
      <trkpt lat="42.839484" lon="-0.321013">
        <ele>2407.608</ele>
        <time>2020-07-19T09:37:47Z</time>
      </trkpt>
      <trkpt lat="42.839510" lon="-0.321059">
        <ele>2403.821</ele>
        <time>2020-07-19T09:37:58Z</time>
      </trkpt>
      <trkpt lat="42.839554" lon="-0.321074">
        <ele>2410.769</ele>
        <time>2020-07-19T09:38:55Z</time>
      </trkpt>
      <trkpt lat="42.839571" lon="-0.321135">
        <ele>2412.012</ele>
        <time>2020-07-19T09:39:46Z</time>
      </trkpt>
      <trkpt lat="42.839578" lon="-0.321202">
        <ele>2414.569</ele>
        <time>2020-07-19T09:39:52Z</time>
      </trkpt>
      <trkpt lat="42.839559" lon="-0.321264">
        <ele>2417.731</ele>
        <time>2020-07-19T09:39:59Z</time>
      </trkpt>
      <trkpt lat="42.839545" lon="-0.321325">
        <ele>2418.931</ele>
        <time>2020-07-19T09:40:08Z</time>
      </trkpt>
      <trkpt lat="42.839577" lon="-0.321390">
        <ele>2424.463</ele>
        <time>2020-07-19T09:40:25Z</time>
      </trkpt>
      <trkpt lat="42.839624" lon="-0.321413">
        <ele>2430.919</ele>
        <time>2020-07-19T09:40:32Z</time>
      </trkpt>
      <trkpt lat="42.839652" lon="-0.321477">
        <ele>2438.874</ele>
        <time>2020-07-19T09:40:41Z</time>
      </trkpt>
      <trkpt lat="42.839693" lon="-0.321531">
        <ele>2446.656</ele>
        <time>2020-07-19T09:40:49Z</time>
      </trkpt>
      <trkpt lat="42.839725" lon="-0.321561">
        <ele>2438.721</ele>
        <time>2020-07-19T09:40:58Z</time>
      </trkpt>
      <trkpt lat="42.839746" lon="-0.321608">
        <ele>2430.908</ele>
        <time>2020-07-19T09:45:45Z</time>
      </trkpt>
      <trkpt lat="42.839781" lon="-0.321652">
        <ele>2424.462</ele>
        <time>2020-07-19T09:46:04Z</time>
      </trkpt>
      <trkpt lat="42.839827" lon="-0.321665">
        <ele>2420.060</ele>
        <time>2020-07-19T09:46:19Z</time>
      </trkpt>
      <trkpt lat="42.839870" lon="-0.321690">
        <ele>2416.033</ele>
        <time>2020-07-19T09:46:28Z</time>
      </trkpt>
      <trkpt lat="42.839904" lon="-0.321740">
        <ele>2413.230</ele>
        <time>2020-07-19T09:46:42Z</time>
      </trkpt>
      <trkpt lat="42.839949" lon="-0.321753">
        <ele>2412.692</ele>
        <time>2020-07-19T09:46:50Z</time>
      </trkpt>
      <trkpt lat="42.839996" lon="-0.321752">
        <ele>2411.882</ele>
        <time>2020-07-19T09:46:55Z</time>
      </trkpt>
      <trkpt lat="42.840047" lon="-0.321772">
        <ele>2410.914</ele>
        <time>2020-07-19T09:47:05Z</time>
      </trkpt>
      <trkpt lat="42.840079" lon="-0.321825">
        <ele>2409.170</ele>
        <time>2020-07-19T09:47:16Z</time>
      </trkpt>
      <trkpt lat="42.840108" lon="-0.321876">
        <ele>2408.326</ele>
        <time>2020-07-19T09:47:26Z</time>
      </trkpt>
      <trkpt lat="42.840139" lon="-0.321923">
        <ele>2406.547</ele>
        <time>2020-07-19T09:47:39Z</time>
      </trkpt>
      <trkpt lat="42.840194" lon="-0.321939">
        <ele>2406.011</ele>
        <time>2020-07-19T09:47:50Z</time>
      </trkpt>
      <trkpt lat="42.840249" lon="-0.321973">
        <ele>2406.208</ele>
        <time>2020-07-19T09:48:04Z</time>
      </trkpt>
      <trkpt lat="42.840268" lon="-0.322029">
        <ele>2405.947</ele>
        <time>2020-07-19T09:48:10Z</time>
      </trkpt>
      <trkpt lat="42.840311" lon="-0.322061">
        <ele>2405.425</ele>
        <time>2020-07-19T09:48:17Z</time>
      </trkpt>
      <trkpt lat="42.840353" lon="-0.322098">
        <ele>2405.978</ele>
        <time>2020-07-19T09:48:26Z</time>
      </trkpt>
      <trkpt lat="42.840382" lon="-0.322154">
        <ele>2405.455</ele>
        <time>2020-07-19T09:48:30Z</time>
      </trkpt>
      <trkpt lat="42.840383" lon="-0.322221">
        <ele>2403.667</ele>
        <time>2020-07-19T09:48:48Z</time>
      </trkpt>
      <trkpt lat="42.840385" lon="-0.322284">
        <ele>2403.347</ele>
        <time>2020-07-19T09:49:02Z</time>
      </trkpt>
      <trkpt lat="42.840417" lon="-0.322338">
        <ele>2402.079</ele>
        <time>2020-07-19T09:49:18Z</time>
      </trkpt>
      <trkpt lat="42.840437" lon="-0.322403">
        <ele>2400.865</ele>
        <time>2020-07-19T09:49:28Z</time>
      </trkpt>
      <trkpt lat="42.840460" lon="-0.322428">
        <ele>2396.927</ele>
        <time>2020-07-19T09:49:39Z</time>
      </trkpt>
      <trkpt lat="42.840485" lon="-0.322395">
        <ele>2399.468</ele>
        <time>2020-07-19T09:49:45Z</time>
      </trkpt>
      <trkpt lat="42.840540" lon="-0.322388">
        <ele>2401.214</ele>
        <time>2020-07-19T09:49:54Z</time>
      </trkpt>
      <trkpt lat="42.840584" lon="-0.322405">
        <ele>2401.308</ele>
        <time>2020-07-19T09:50:01Z</time>
      </trkpt>
      <trkpt lat="42.840619" lon="-0.322444">
        <ele>2401.267</ele>
        <time>2020-07-19T09:50:19Z</time>
      </trkpt>
      <trkpt lat="42.840653" lon="-0.322474">
        <ele>2399.275</ele>
        <time>2020-07-19T09:50:43Z</time>
      </trkpt>
      <trkpt lat="42.840687" lon="-0.322481">
        <ele>2396.018</ele>
        <time>2020-07-19T09:51:47Z</time>
      </trkpt>
      <trkpt lat="42.840736" lon="-0.322459">
        <ele>2393.365</ele>
        <time>2020-07-19T09:51:59Z</time>
      </trkpt>
      <trkpt lat="42.840774" lon="-0.322436">
        <ele>2392.797</ele>
        <time>2020-07-19T09:52:11Z</time>
      </trkpt>
      <trkpt lat="42.840821" lon="-0.322446">
        <ele>2389.717</ele>
        <time>2020-07-19T09:52:45Z</time>
      </trkpt>
      <trkpt lat="42.840866" lon="-0.322458">
        <ele>2387.579</ele>
        <time>2020-07-19T09:53:08Z</time>
      </trkpt>
      <trkpt lat="42.840912" lon="-0.322456">
        <ele>2386.045</ele>
        <time>2020-07-19T09:53:28Z</time>
      </trkpt>
      <trkpt lat="42.840949" lon="-0.322485">
        <ele>2384.232</ele>
        <time>2020-07-19T09:53:44Z</time>
      </trkpt>
      <trkpt lat="42.840993" lon="-0.322478">
        <ele>2379.192</ele>
        <time>2020-07-19T09:54:25Z</time>
      </trkpt>
      <trkpt lat="42.841041" lon="-0.322500">
        <ele>2379.111</ele>
        <time>2020-07-19T09:54:34Z</time>
      </trkpt>
      <trkpt lat="42.841061" lon="-0.322562">
        <ele>2377.208</ele>
        <time>2020-07-19T09:54:43Z</time>
      </trkpt>
      <trkpt lat="42.841073" lon="-0.322625">
        <ele>2375.878</ele>
        <time>2020-07-19T09:54:52Z</time>
      </trkpt>
      <trkpt lat="42.841107" lon="-0.322644">
        <ele>2374.676</ele>
        <time>2020-07-19T09:55:03Z</time>
      </trkpt>
      <trkpt lat="42.841109" lon="-0.322699">
        <ele>2373.129</ele>
        <time>2020-07-19T09:55:34Z</time>
      </trkpt>
      <trkpt lat="42.841113" lon="-0.322760">
        <ele>2372.456</ele>
        <time>2020-07-19T09:55:44Z</time>
      </trkpt>
      <trkpt lat="42.841150" lon="-0.322784">
        <ele>2371.028</ele>
        <time>2020-07-19T09:55:58Z</time>
      </trkpt>
      <trkpt lat="42.841193" lon="-0.322810">
        <ele>2369.558</ele>
        <time>2020-07-19T09:56:14Z</time>
      </trkpt>
      <trkpt lat="42.841244" lon="-0.322800">
        <ele>2367.810</ele>
        <time>2020-07-19T09:56:23Z</time>
      </trkpt>
      <trkpt lat="42.841288" lon="-0.322821">
        <ele>2366.326</ele>
        <time>2020-07-19T09:56:30Z</time>
      </trkpt>
      <trkpt lat="42.841333" lon="-0.322806">
        <ele>2366.329</ele>
        <time>2020-07-19T09:56:38Z</time>
      </trkpt>
      <trkpt lat="42.841380" lon="-0.322775">
        <ele>2364.600</ele>
        <time>2020-07-19T09:56:45Z</time>
      </trkpt>
      <trkpt lat="42.841423" lon="-0.322744">
        <ele>2365.720</ele>
        <time>2020-07-19T09:56:53Z</time>
      </trkpt>
      <trkpt lat="42.841460" lon="-0.322744">
        <ele>2363.808</ele>
        <time>2020-07-19T09:57:00Z</time>
      </trkpt>
      <trkpt lat="42.841482" lon="-0.322793">
        <ele>2364.177</ele>
        <time>2020-07-19T09:57:08Z</time>
      </trkpt>
      <trkpt lat="42.841523" lon="-0.322829">
        <ele>2362.465</ele>
        <time>2020-07-19T09:57:18Z</time>
      </trkpt>
      <trkpt lat="42.841546" lon="-0.322884">
        <ele>2361.028</ele>
        <time>2020-07-19T09:57:25Z</time>
      </trkpt>
      <trkpt lat="42.841571" lon="-0.322944">
        <ele>2358.985</ele>
        <time>2020-07-19T09:57:36Z</time>
      </trkpt>
      <trkpt lat="42.841614" lon="-0.322959">
        <ele>2357.217</ele>
        <time>2020-07-19T09:57:48Z</time>
      </trkpt>
      <trkpt lat="42.841630" lon="-0.323014">
        <ele>2356.657</ele>
        <time>2020-07-19T09:57:59Z</time>
      </trkpt>
      <trkpt lat="42.841676" lon="-0.323055">
        <ele>2356.769</ele>
        <time>2020-07-19T09:58:07Z</time>
      </trkpt>
      <trkpt lat="42.841725" lon="-0.323067">
        <ele>2356.335</ele>
        <time>2020-07-19T09:58:13Z</time>
      </trkpt>
      <trkpt lat="42.841773" lon="-0.323078">
        <ele>2355.725</ele>
        <time>2020-07-19T09:58:19Z</time>
      </trkpt>
      <trkpt lat="42.841822" lon="-0.323088">
        <ele>2355.326</ele>
        <time>2020-07-19T09:58:25Z</time>
      </trkpt>
      <trkpt lat="42.841868" lon="-0.323109">
        <ele>2354.608</ele>
        <time>2020-07-19T09:58:32Z</time>
      </trkpt>
      <trkpt lat="42.841885" lon="-0.323163">
        <ele>2355.208</ele>
        <time>2020-07-19T09:58:42Z</time>
      </trkpt>
      <trkpt lat="42.841926" lon="-0.323177">
        <ele>2352.647</ele>
        <time>2020-07-19T09:59:03Z</time>
      </trkpt>
      <trkpt lat="42.841967" lon="-0.323157">
        <ele>2352.035</ele>
        <time>2020-07-19T09:59:11Z</time>
      </trkpt>
      <trkpt lat="42.842008" lon="-0.323204">
        <ele>2346.578</ele>
        <time>2020-07-19T10:18:22Z</time>
      </trkpt>
      <trkpt lat="42.842014" lon="-0.323261">
        <ele>2352.265</ele>
        <time>2020-07-19T10:18:40Z</time>
      </trkpt>
      <trkpt lat="42.842014" lon="-0.323327">
        <ele>2350.617</ele>
        <time>2020-07-19T10:18:50Z</time>
      </trkpt>
      <trkpt lat="42.842044" lon="-0.323397">
        <ele>2349.257</ele>
        <time>2020-07-19T10:19:04Z</time>
      </trkpt>
      <trkpt lat="42.842091" lon="-0.323420">
        <ele>2347.689</ele>
        <time>2020-07-19T10:19:15Z</time>
      </trkpt>
      <trkpt lat="42.842133" lon="-0.323440">
        <ele>2345.935</ele>
        <time>2020-07-19T10:19:29Z</time>
      </trkpt>
      <trkpt lat="42.842186" lon="-0.323422">
        <ele>2345.069</ele>
        <time>2020-07-19T10:19:50Z</time>
      </trkpt>
      <trkpt lat="42.842236" lon="-0.323402">
        <ele>2343.304</ele>
        <time>2020-07-19T10:19:59Z</time>
      </trkpt>
      <trkpt lat="42.842273" lon="-0.323397">
        <ele>2343.024</ele>
        <time>2020-07-19T10:20:13Z</time>
      </trkpt>
      <trkpt lat="42.842310" lon="-0.323423">
        <ele>2342.508</ele>
        <time>2020-07-19T10:20:24Z</time>
      </trkpt>
      <trkpt lat="42.842334" lon="-0.323478">
        <ele>2340.121</ele>
        <time>2020-07-19T10:20:35Z</time>
      </trkpt>
      <trkpt lat="42.842319" lon="-0.323526">
        <ele>2338.299</ele>
        <time>2020-07-19T10:20:48Z</time>
      </trkpt>
      <trkpt lat="42.842341" lon="-0.323576">
        <ele>2337.342</ele>
        <time>2020-07-19T10:21:05Z</time>
      </trkpt>
      <trkpt lat="42.842362" lon="-0.323650">
        <ele>2334.189</ele>
        <time>2020-07-19T10:22:02Z</time>
      </trkpt>
      <trkpt lat="42.842402" lon="-0.323652">
        <ele>2329.551</ele>
        <time>2020-07-19T10:22:15Z</time>
      </trkpt>
      <trkpt lat="42.842427" lon="-0.323601">
        <ele>2334.751</ele>
        <time>2020-07-19T10:22:24Z</time>
      </trkpt>
      <trkpt lat="42.842470" lon="-0.323576">
        <ele>2334.253</ele>
        <time>2020-07-19T10:22:32Z</time>
      </trkpt>
      <trkpt lat="42.842515" lon="-0.323606">
        <ele>2333.059</ele>
        <time>2020-07-19T10:22:44Z</time>
      </trkpt>
      <trkpt lat="42.842540" lon="-0.323670">
        <ele>2331.786</ele>
        <time>2020-07-19T10:22:52Z</time>
      </trkpt>
      <trkpt lat="42.842569" lon="-0.323730">
        <ele>2332.260</ele>
        <time>2020-07-19T10:23:02Z</time>
      </trkpt>
      <trkpt lat="42.842602" lon="-0.323782">
        <ele>2331.226</ele>
        <time>2020-07-19T10:23:09Z</time>
      </trkpt>
      <trkpt lat="42.842604" lon="-0.323846">
        <ele>2330.508</ele>
        <time>2020-07-19T10:23:17Z</time>
      </trkpt>
      <trkpt lat="42.842646" lon="-0.323886">
        <ele>2329.033</ele>
        <time>2020-07-19T10:23:24Z</time>
      </trkpt>
      <trkpt lat="42.842689" lon="-0.323907">
        <ele>2327.691</ele>
        <time>2020-07-19T10:23:33Z</time>
      </trkpt>
      <trkpt lat="42.842712" lon="-0.323960">
        <ele>2327.484</ele>
        <time>2020-07-19T10:23:43Z</time>
      </trkpt>
      <trkpt lat="42.842749" lon="-0.324006">
        <ele>2324.371</ele>
        <time>2020-07-19T10:24:01Z</time>
      </trkpt>
      <trkpt lat="42.842754" lon="-0.324080">
        <ele>2323.843</ele>
        <time>2020-07-19T10:24:08Z</time>
      </trkpt>
      <trkpt lat="42.842791" lon="-0.324121">
        <ele>2322.243</ele>
        <time>2020-07-19T10:24:16Z</time>
      </trkpt>
      <trkpt lat="42.842834" lon="-0.324153">
        <ele>2321.115</ele>
        <time>2020-07-19T10:24:26Z</time>
      </trkpt>
      <trkpt lat="42.842870" lon="-0.324194">
        <ele>2319.171</ele>
        <time>2020-07-19T10:24:37Z</time>
      </trkpt>
      <trkpt lat="42.842872" lon="-0.324261">
        <ele>2318.463</ele>
        <time>2020-07-19T10:24:48Z</time>
      </trkpt>
      <trkpt lat="42.842907" lon="-0.324318">
        <ele>2316.644</ele>
        <time>2020-07-19T10:24:57Z</time>
      </trkpt>
      <trkpt lat="42.842951" lon="-0.324352">
        <ele>2315.418</ele>
        <time>2020-07-19T10:25:06Z</time>
      </trkpt>
      <trkpt lat="42.843001" lon="-0.324372">
        <ele>2314.808</ele>
        <time>2020-07-19T10:25:12Z</time>
      </trkpt>
      <trkpt lat="42.843045" lon="-0.324405">
        <ele>2313.121</ele>
        <time>2020-07-19T10:25:18Z</time>
      </trkpt>
      <trkpt lat="42.843090" lon="-0.324384">
        <ele>2315.979</ele>
        <time>2020-07-19T10:25:39Z</time>
      </trkpt>
      <trkpt lat="42.843125" lon="-0.324425">
        <ele>2314.782</ele>
        <time>2020-07-19T10:25:44Z</time>
      </trkpt>
      <trkpt lat="42.843163" lon="-0.324475">
        <ele>2316.479</ele>
        <time>2020-07-19T10:25:49Z</time>
      </trkpt>
      <trkpt lat="42.843212" lon="-0.324506">
        <ele>2316.711</ele>
        <time>2020-07-19T10:25:55Z</time>
      </trkpt>
      <trkpt lat="42.843259" lon="-0.324539">
        <ele>2315.511</ele>
        <time>2020-07-19T10:26:00Z</time>
      </trkpt>
      <trkpt lat="42.843294" lon="-0.324542">
        <ele>2315.353</ele>
        <time>2020-07-19T10:26:07Z</time>
      </trkpt>
      <trkpt lat="42.843316" lon="-0.324589">
        <ele>2313.039</ele>
        <time>2020-07-19T10:26:16Z</time>
      </trkpt>
      <trkpt lat="42.843344" lon="-0.324639">
        <ele>2311.128</ele>
        <time>2020-07-19T10:26:28Z</time>
      </trkpt>
      <trkpt lat="42.843352" lon="-0.324701">
        <ele>2310.389</ele>
        <time>2020-07-19T10:26:37Z</time>
      </trkpt>
      <trkpt lat="42.843387" lon="-0.324744">
        <ele>2307.917</ele>
        <time>2020-07-19T10:26:48Z</time>
      </trkpt>
      <trkpt lat="42.843435" lon="-0.324763">
        <ele>2307.108</ele>
        <time>2020-07-19T10:26:56Z</time>
      </trkpt>
      <trkpt lat="42.843455" lon="-0.324827">
        <ele>2304.747</ele>
        <time>2020-07-19T10:27:11Z</time>
      </trkpt>
      <trkpt lat="42.843511" lon="-0.324824">
        <ele>2304.075</ele>
        <time>2020-07-19T10:27:21Z</time>
      </trkpt>
      <trkpt lat="42.843560" lon="-0.324834">
        <ele>2302.558</ele>
        <time>2020-07-19T10:27:28Z</time>
      </trkpt>
      <trkpt lat="42.843589" lon="-0.324846">
        <ele>2302.625</ele>
        <time>2020-07-19T10:27:35Z</time>
      </trkpt>
      <trkpt lat="42.843602" lon="-0.324878">
        <ele>2304.377</ele>
        <time>2020-07-19T10:27:44Z</time>
      </trkpt>
      <trkpt lat="42.843632" lon="-0.324889">
        <ele>2298.847</ele>
        <time>2020-07-19T10:28:44Z</time>
      </trkpt>
      <trkpt lat="42.843679" lon="-0.324901">
        <ele>2298.459</ele>
        <time>2020-07-19T10:28:57Z</time>
      </trkpt>
      <trkpt lat="42.843717" lon="-0.324863">
        <ele>2296.115</ele>
        <time>2020-07-19T10:29:11Z</time>
      </trkpt>
      <trkpt lat="42.843754" lon="-0.324827">
        <ele>2294.189</ele>
        <time>2020-07-19T10:29:20Z</time>
      </trkpt>
      <trkpt lat="42.843798" lon="-0.324813">
        <ele>2293.806</ele>
        <time>2020-07-19T10:29:34Z</time>
      </trkpt>
      <trkpt lat="42.843839" lon="-0.324844">
        <ele>2289.326</ele>
        <time>2020-07-19T10:29:49Z</time>
      </trkpt>
      <trkpt lat="42.843881" lon="-0.324872">
        <ele>2289.408</ele>
        <time>2020-07-19T10:29:59Z</time>
      </trkpt>
      <trkpt lat="42.843888" lon="-0.324937">
        <ele>2287.543</ele>
        <time>2020-07-19T10:30:13Z</time>
      </trkpt>
      <trkpt lat="42.843891" lon="-0.325001">
        <ele>2285.941</ele>
        <time>2020-07-19T10:30:30Z</time>
      </trkpt>
      <trkpt lat="42.843920" lon="-0.325034">
        <ele>2283.524</ele>
        <time>2020-07-19T10:30:42Z</time>
      </trkpt>
      <trkpt lat="42.843965" lon="-0.325030">
        <ele>2282.791</ele>
        <time>2020-07-19T10:30:53Z</time>
      </trkpt>
      <trkpt lat="42.844009" lon="-0.325014">
        <ele>2282.073</ele>
        <time>2020-07-19T10:31:02Z</time>
      </trkpt>
      <trkpt lat="42.844057" lon="-0.324999">
        <ele>2280.663</ele>
        <time>2020-07-19T10:31:31Z</time>
      </trkpt>
      <trkpt lat="42.844116" lon="-0.325000">
        <ele>2280.625</ele>
        <time>2020-07-19T10:31:38Z</time>
      </trkpt>
      <trkpt lat="42.844166" lon="-0.325021">
        <ele>2279.491</ele>
        <time>2020-07-19T10:31:45Z</time>
      </trkpt>
      <trkpt lat="42.844210" lon="-0.325035">
        <ele>2279.272</ele>
        <time>2020-07-19T10:31:51Z</time>
      </trkpt>
      <trkpt lat="42.844253" lon="-0.325058">
        <ele>2278.013</ele>
        <time>2020-07-19T10:31:58Z</time>
      </trkpt>
      <trkpt lat="42.844284" lon="-0.325104">
        <ele>2278.014</ele>
        <time>2020-07-19T10:32:04Z</time>
      </trkpt>
      <trkpt lat="42.844335" lon="-0.325127">
        <ele>2276.908</ele>
        <time>2020-07-19T10:32:12Z</time>
      </trkpt>
      <trkpt lat="42.844384" lon="-0.325147">
        <ele>2276.312</ele>
        <time>2020-07-19T10:32:18Z</time>
      </trkpt>
      <trkpt lat="42.844411" lon="-0.325176">
        <ele>2275.760</ele>
        <time>2020-07-19T10:32:43Z</time>
      </trkpt>
      <trkpt lat="42.844419" lon="-0.325220">
        <ele>2274.153</ele>
        <time>2020-07-19T10:32:54Z</time>
      </trkpt>
      <trkpt lat="42.844455" lon="-0.325251">
        <ele>2272.480</ele>
        <time>2020-07-19T10:33:08Z</time>
      </trkpt>
      <trkpt lat="42.844492" lon="-0.325290">
        <ele>2268.882</ele>
        <time>2020-07-19T10:33:44Z</time>
      </trkpt>
      <trkpt lat="42.844535" lon="-0.325315">
        <ele>2268.062</ele>
        <time>2020-07-19T10:33:54Z</time>
      </trkpt>
      <trkpt lat="42.844569" lon="-0.325359">
        <ele>2266.534</ele>
        <time>2020-07-19T10:34:02Z</time>
      </trkpt>
      <trkpt lat="42.844626" lon="-0.325374">
        <ele>2267.040</ele>
        <time>2020-07-19T10:34:12Z</time>
      </trkpt>
      <trkpt lat="42.844674" lon="-0.325389">
        <ele>2266.613</ele>
        <time>2020-07-19T10:35:13Z</time>
      </trkpt>
      <trkpt lat="42.844720" lon="-0.325370">
        <ele>2265.843</ele>
        <time>2020-07-19T10:35:22Z</time>
      </trkpt>
      <trkpt lat="42.844773" lon="-0.325383">
        <ele>2264.407</ele>
        <time>2020-07-19T10:35:30Z</time>
      </trkpt>
      <trkpt lat="42.844821" lon="-0.325392">
        <ele>2265.108</ele>
        <time>2020-07-19T10:35:44Z</time>
      </trkpt>
      <trkpt lat="42.844867" lon="-0.325418">
        <ele>2264.516</ele>
        <time>2020-07-19T10:35:57Z</time>
      </trkpt>
      <trkpt lat="42.844898" lon="-0.325466">
        <ele>2266.324</ele>
        <time>2020-07-19T10:36:03Z</time>
      </trkpt>
      <trkpt lat="42.844932" lon="-0.325506">
        <ele>2265.577</ele>
        <time>2020-07-19T10:36:08Z</time>
      </trkpt>
      <trkpt lat="42.844982" lon="-0.325514">
        <ele>2268.154</ele>
        <time>2020-07-19T10:36:16Z</time>
      </trkpt>
      <trkpt lat="42.845020" lon="-0.325562">
        <ele>2265.886</ele>
        <time>2020-07-19T10:36:22Z</time>
      </trkpt>
      <trkpt lat="42.845037" lon="-0.325622">
        <ele>2266.556</ele>
        <time>2020-07-19T10:36:28Z</time>
      </trkpt>
      <trkpt lat="42.845075" lon="-0.325673">
        <ele>2266.678</ele>
        <time>2020-07-19T10:36:34Z</time>
      </trkpt>
      <trkpt lat="42.845089" lon="-0.325725">
        <ele>2268.424</ele>
        <time>2020-07-19T10:37:04Z</time>
      </trkpt>
      <trkpt lat="42.845119" lon="-0.325765">
        <ele>2266.884</ele>
        <time>2020-07-19T10:37:09Z</time>
      </trkpt>
      <trkpt lat="42.845120" lon="-0.325834">
        <ele>2264.507</ele>
        <time>2020-07-19T10:37:40Z</time>
      </trkpt>
      <trkpt lat="42.845119" lon="-0.325906">
        <ele>2263.717</ele>
        <time>2020-07-19T10:37:47Z</time>
      </trkpt>
      <trkpt lat="42.845118" lon="-0.325980">
        <ele>2267.208</ele>
        <time>2020-07-19T10:37:54Z</time>
      </trkpt>
      <trkpt lat="42.845086" lon="-0.326037">
        <ele>2265.693</ele>
        <time>2020-07-19T10:38:01Z</time>
      </trkpt>
      <trkpt lat="42.845087" lon="-0.326103">
        <ele>2268.691</ele>
        <time>2020-07-19T10:38:08Z</time>
      </trkpt>
      <trkpt lat="42.845093" lon="-0.326170">
        <ele>2268.214</ele>
        <time>2020-07-19T10:38:15Z</time>
      </trkpt>
      <trkpt lat="42.845094" lon="-0.326237">
        <ele>2267.041</ele>
        <time>2020-07-19T10:38:23Z</time>
      </trkpt>
      <trkpt lat="42.845122" lon="-0.326293">
        <ele>2265.373</ele>
        <time>2020-07-19T10:38:30Z</time>
      </trkpt>
      <trkpt lat="42.845153" lon="-0.326338">
        <ele>2266.833</ele>
        <time>2020-07-19T10:38:37Z</time>
      </trkpt>
      <trkpt lat="42.845196" lon="-0.326374">
        <ele>2268.975</ele>
        <time>2020-07-19T10:38:45Z</time>
      </trkpt>
      <trkpt lat="42.845217" lon="-0.326407">
        <ele>2268.811</ele>
        <time>2020-07-19T10:38:54Z</time>
      </trkpt>
      <trkpt lat="42.845227" lon="-0.326462">
        <ele>2264.449</ele>
        <time>2020-07-19T10:39:41Z</time>
      </trkpt>
      <trkpt lat="42.845262" lon="-0.326503">
        <ele>2265.902</ele>
        <time>2020-07-19T10:39:50Z</time>
      </trkpt>
      <trkpt lat="42.845273" lon="-0.326566">
        <ele>2271.622</ele>
        <time>2020-07-19T10:39:57Z</time>
      </trkpt>
      <trkpt lat="42.845311" lon="-0.326606">
        <ele>2271.108</ele>
        <time>2020-07-19T10:40:20Z</time>
      </trkpt>
      <trkpt lat="42.845350" lon="-0.326628">
        <ele>2273.669</ele>
        <time>2020-07-19T10:42:32Z</time>
      </trkpt>
      <trkpt lat="42.845387" lon="-0.326667">
        <ele>2272.477</ele>
        <time>2020-07-19T10:42:36Z</time>
      </trkpt>
      <trkpt lat="42.845420" lon="-0.326717">
        <ele>2273.150</ele>
        <time>2020-07-19T10:42:40Z</time>
      </trkpt>
      <trkpt lat="42.845452" lon="-0.326775">
        <ele>2274.377</ele>
        <time>2020-07-19T10:42:46Z</time>
      </trkpt>
      <trkpt lat="42.845478" lon="-0.326827">
        <ele>2274.229</ele>
        <time>2020-07-19T10:42:52Z</time>
      </trkpt>
      <trkpt lat="42.845479" lon="-0.326886">
        <ele>2274.229</ele>
        <time>2020-07-19T10:43:37Z</time>
      </trkpt>
      <trkpt lat="42.845452" lon="-0.326926">
        <ele>2271.711</ele>
        <time>2020-07-19T10:43:41Z</time>
      </trkpt>
      <trkpt lat="42.845425" lon="-0.326983">
        <ele>2272.047</ele>
        <time>2020-07-19T10:43:49Z</time>
      </trkpt>
      <trkpt lat="42.845428" lon="-0.327050">
        <ele>2271.084</ele>
        <time>2020-07-19T10:43:56Z</time>
      </trkpt>
      <trkpt lat="42.845462" lon="-0.327092">
        <ele>2269.207</ele>
        <time>2020-07-19T10:44:02Z</time>
      </trkpt>
      <trkpt lat="42.845497" lon="-0.327140">
        <ele>2270.417</ele>
        <time>2020-07-19T10:44:39Z</time>
      </trkpt>
      <trkpt lat="42.845541" lon="-0.327180">
        <ele>2268.608</ele>
        <time>2020-07-19T10:44:52Z</time>
      </trkpt>
      <trkpt lat="42.845569" lon="-0.327235">
        <ele>2268.753</ele>
        <time>2020-07-19T10:44:58Z</time>
      </trkpt>
      <trkpt lat="42.845605" lon="-0.327271">
        <ele>2269.161</ele>
        <time>2020-07-19T10:45:05Z</time>
      </trkpt>
      <trkpt lat="42.845605" lon="-0.327330">
        <ele>2268.614</ele>
        <time>2020-07-19T10:45:14Z</time>
      </trkpt>
      <trkpt lat="42.845573" lon="-0.327385">
        <ele>2267.161</ele>
        <time>2020-07-19T10:45:23Z</time>
      </trkpt>
      <trkpt lat="42.845546" lon="-0.327437">
        <ele>2266.133</ele>
        <time>2020-07-19T10:45:38Z</time>
      </trkpt>
      <trkpt lat="42.845551" lon="-0.327502">
        <ele>2265.443</ele>
        <time>2020-07-19T10:45:50Z</time>
      </trkpt>
      <trkpt lat="42.845534" lon="-0.327567">
        <ele>2261.915</ele>
        <time>2020-07-19T10:46:19Z</time>
      </trkpt>
      <trkpt lat="42.845508" lon="-0.327599">
        <ele>2260.951</ele>
        <time>2020-07-19T10:46:25Z</time>
      </trkpt>
      <trkpt lat="42.845540" lon="-0.327615">
        <ele>2264.325</ele>
        <time>2020-07-19T10:46:50Z</time>
      </trkpt>
      <trkpt lat="42.845576" lon="-0.327655">
        <ele>2261.426</ele>
        <time>2020-07-19T10:47:01Z</time>
      </trkpt>
      <trkpt lat="42.845605" lon="-0.327705">
        <ele>2267.408</ele>
        <time>2020-07-19T10:47:13Z</time>
      </trkpt>
      <trkpt lat="42.845606" lon="-0.327768">
        <ele>2269.008</ele>
        <time>2020-07-19T10:47:19Z</time>
      </trkpt>
      <trkpt lat="42.845599" lon="-0.327835">
        <ele>2268.387</ele>
        <time>2020-07-19T10:47:29Z</time>
      </trkpt>
      <trkpt lat="42.845589" lon="-0.327905">
        <ele>2269.515</ele>
        <time>2020-07-19T10:47:35Z</time>
      </trkpt>
      <trkpt lat="42.845605" lon="-0.327970">
        <ele>2271.538</ele>
        <time>2020-07-19T10:47:46Z</time>
      </trkpt>
      <trkpt lat="42.845654" lon="-0.328003">
        <ele>2270.085</ele>
        <time>2020-07-19T10:47:52Z</time>
      </trkpt>
      <trkpt lat="42.845687" lon="-0.328053">
        <ele>2270.287</ele>
        <time>2020-07-19T10:48:00Z</time>
      </trkpt>
      <trkpt lat="42.845714" lon="-0.328104">
        <ele>2270.887</ele>
        <time>2020-07-19T10:48:04Z</time>
      </trkpt>
      <trkpt lat="42.845750" lon="-0.328146">
        <ele>2270.939</ele>
        <time>2020-07-19T10:48:10Z</time>
      </trkpt>
      <trkpt lat="42.845751" lon="-0.328226">
        <ele>2269.825</ele>
        <time>2020-07-19T10:48:18Z</time>
      </trkpt>
      <trkpt lat="42.845771" lon="-0.328290">
        <ele>2268.013</ele>
        <time>2020-07-19T10:48:23Z</time>
      </trkpt>
      <trkpt lat="42.845796" lon="-0.328345">
        <ele>2270.343</ele>
        <time>2020-07-19T10:48:29Z</time>
      </trkpt>
      <trkpt lat="42.845839" lon="-0.328379">
        <ele>2268.407</ele>
        <time>2020-07-19T10:48:42Z</time>
      </trkpt>
      <trkpt lat="42.845876" lon="-0.328423">
        <ele>2269.108</ele>
        <time>2020-07-19T10:48:48Z</time>
      </trkpt>
      <trkpt lat="42.845899" lon="-0.328478">
        <ele>2269.286</ele>
        <time>2020-07-19T10:49:01Z</time>
      </trkpt>
      <trkpt lat="42.845905" lon="-0.328540">
        <ele>2269.334</ele>
        <time>2020-07-19T10:49:07Z</time>
      </trkpt>
      <trkpt lat="42.845927" lon="-0.328605">
        <ele>2269.217</ele>
        <time>2020-07-19T10:49:16Z</time>
      </trkpt>
      <trkpt lat="42.845934" lon="-0.328645">
        <ele>2268.394</ele>
        <time>2020-07-19T10:49:24Z</time>
      </trkpt>
      <trkpt lat="42.845899" lon="-0.328641">
        <ele>2268.376</ele>
        <time>2020-07-19T10:49:51Z</time>
      </trkpt>
      <trkpt lat="42.845857" lon="-0.328637">
        <ele>2266.646</ele>
        <time>2020-07-19T10:50:03Z</time>
      </trkpt>
      <trkpt lat="42.845825" lon="-0.328686">
        <ele>2265.488</ele>
        <time>2020-07-19T10:50:11Z</time>
      </trkpt>
      <trkpt lat="42.845831" lon="-0.328753">
        <ele>2264.964</ele>
        <time>2020-07-19T10:50:17Z</time>
      </trkpt>
      <trkpt lat="42.845850" lon="-0.328811">
        <ele>2263.977</ele>
        <time>2020-07-19T10:50:21Z</time>
      </trkpt>
      <trkpt lat="42.845880" lon="-0.328859">
        <ele>2264.861</ele>
        <time>2020-07-19T10:50:25Z</time>
      </trkpt>
      <trkpt lat="42.845911" lon="-0.328907">
        <ele>2264.327</ele>
        <time>2020-07-19T10:50:43Z</time>
      </trkpt>
      <trkpt lat="42.845918" lon="-0.328974">
        <ele>2264.908</ele>
        <time>2020-07-19T10:50:53Z</time>
      </trkpt>
      <trkpt lat="42.845918" lon="-0.329030">
        <ele>2263.992</ele>
        <time>2020-07-19T10:51:44Z</time>
      </trkpt>
      <trkpt lat="42.845924" lon="-0.329094">
        <ele>2263.640</ele>
        <time>2020-07-19T10:51:53Z</time>
      </trkpt>
      <trkpt lat="42.845945" lon="-0.329158">
        <ele>2263.483</ele>
        <time>2020-07-19T10:52:18Z</time>
      </trkpt>
      <trkpt lat="42.845992" lon="-0.329180">
        <ele>2262.530</ele>
        <time>2020-07-19T10:53:28Z</time>
      </trkpt>
      <trkpt lat="42.846023" lon="-0.329200">
        <ele>2262.952</ele>
        <time>2020-07-19T10:53:51Z</time>
      </trkpt>
      <trkpt lat="42.846049" lon="-0.329239">
        <ele>2261.212</ele>
        <time>2020-07-19T10:56:41Z</time>
      </trkpt>
      <trkpt lat="42.846056" lon="-0.329302">
        <ele>2261.484</ele>
        <time>2020-07-19T10:56:44Z</time>
      </trkpt>
      <trkpt lat="42.846099" lon="-0.329367">
        <ele>2262.080</ele>
        <time>2020-07-19T10:56:50Z</time>
      </trkpt>
      <trkpt lat="42.846109" lon="-0.329439">
        <ele>2263.084</ele>
        <time>2020-07-19T10:56:58Z</time>
      </trkpt>
      <trkpt lat="42.846119" lon="-0.329502">
        <ele>2261.107</ele>
        <time>2020-07-19T10:57:04Z</time>
      </trkpt>
      <trkpt lat="42.846115" lon="-0.329575">
        <ele>2262.117</ele>
        <time>2020-07-19T10:57:12Z</time>
      </trkpt>
      <trkpt lat="42.846105" lon="-0.329611">
        <ele>2261.908</ele>
        <time>2020-07-19T10:57:17Z</time>
      </trkpt>
      <trkpt lat="42.846088" lon="-0.329663">
        <ele>2262.453</ele>
        <time>2020-07-19T10:57:24Z</time>
      </trkpt>
      <trkpt lat="42.846102" lon="-0.329714">
        <ele>2261.941</ele>
        <time>2020-07-19T10:57:29Z</time>
      </trkpt>
      <trkpt lat="42.846111" lon="-0.329787">
        <ele>2262.374</ele>
        <time>2020-07-19T10:57:33Z</time>
      </trkpt>
      <trkpt lat="42.846116" lon="-0.329849">
        <ele>2260.111</ele>
        <time>2020-07-19T10:59:21Z</time>
      </trkpt>
      <trkpt lat="42.846160" lon="-0.329862">
        <ele>2257.663</ele>
        <time>2020-07-19T10:59:59Z</time>
      </trkpt>
      <trkpt lat="42.846204" lon="-0.329899">
        <ele>2256.713</ele>
        <time>2020-07-19T11:00:05Z</time>
      </trkpt>
      <trkpt lat="42.846235" lon="-0.329946">
        <ele>2256.855</ele>
        <time>2020-07-19T11:00:11Z</time>
      </trkpt>
      <trkpt lat="42.846270" lon="-0.330012">
        <ele>2255.731</ele>
        <time>2020-07-19T11:00:18Z</time>
      </trkpt>
      <trkpt lat="42.846323" lon="-0.330047">
        <ele>2255.417</ele>
        <time>2020-07-19T11:00:24Z</time>
      </trkpt>
      <trkpt lat="42.846373" lon="-0.330072">
        <ele>2254.787</ele>
        <time>2020-07-19T11:00:31Z</time>
      </trkpt>
      <trkpt lat="42.846405" lon="-0.330130">
        <ele>2252.715</ele>
        <time>2020-07-19T11:00:37Z</time>
      </trkpt>
      <trkpt lat="42.846421" lon="-0.330195">
        <ele>2251.908</ele>
        <time>2020-07-19T11:00:44Z</time>
      </trkpt>
      <trkpt lat="42.846448" lon="-0.330248">
        <ele>2251.696</ele>
        <time>2020-07-19T11:00:53Z</time>
      </trkpt>
      <trkpt lat="42.846474" lon="-0.330304">
        <ele>2247.894</ele>
        <time>2020-07-19T11:01:05Z</time>
      </trkpt>
      <trkpt lat="42.846520" lon="-0.330292">
        <ele>2246.977</ele>
        <time>2020-07-19T11:01:18Z</time>
      </trkpt>
      <trkpt lat="42.846551" lon="-0.330348">
        <ele>2245.734</ele>
        <time>2020-07-19T11:01:28Z</time>
      </trkpt>
      <trkpt lat="42.846592" lon="-0.330375">
        <ele>2243.846</ele>
        <time>2020-07-19T11:01:39Z</time>
      </trkpt>
      <trkpt lat="42.846627" lon="-0.330399">
        <ele>2242.916</ele>
        <time>2020-07-19T11:01:47Z</time>
      </trkpt>
      <trkpt lat="42.846645" lon="-0.330340">
        <ele>2242.568</ele>
        <time>2020-07-19T11:01:54Z</time>
      </trkpt>
      <trkpt lat="42.846670" lon="-0.330286">
        <ele>2241.544</ele>
        <time>2020-07-19T11:02:01Z</time>
      </trkpt>
      <trkpt lat="42.846708" lon="-0.330332">
        <ele>2241.158</ele>
        <time>2020-07-19T11:02:34Z</time>
      </trkpt>
      <trkpt lat="42.846738" lon="-0.330392">
        <ele>2238.852</ele>
        <time>2020-07-19T11:02:43Z</time>
      </trkpt>
      <trkpt lat="42.846763" lon="-0.330454">
        <ele>2238.017</ele>
        <time>2020-07-19T11:02:50Z</time>
      </trkpt>
      <trkpt lat="42.846783" lon="-0.330509">
        <ele>2237.808</ele>
        <time>2020-07-19T11:03:01Z</time>
      </trkpt>
      <trkpt lat="42.846807" lon="-0.330569">
        <ele>2237.270</ele>
        <time>2020-07-19T11:03:09Z</time>
      </trkpt>
      <trkpt lat="42.846835" lon="-0.330630">
        <ele>2237.658</ele>
        <time>2020-07-19T11:03:16Z</time>
      </trkpt>
      <trkpt lat="42.846874" lon="-0.330667">
        <ele>2237.531</ele>
        <time>2020-07-19T11:03:21Z</time>
      </trkpt>
      <trkpt lat="42.846913" lon="-0.330706">
        <ele>2236.928</ele>
        <time>2020-07-19T11:03:26Z</time>
      </trkpt>
      <trkpt lat="42.846958" lon="-0.330733">
        <ele>2237.470</ele>
        <time>2020-07-19T11:03:31Z</time>
      </trkpt>
      <trkpt lat="42.847005" lon="-0.330747">
        <ele>2236.980</ele>
        <time>2020-07-19T11:03:35Z</time>
      </trkpt>
      <trkpt lat="42.847050" lon="-0.330718">
        <ele>2236.852</ele>
        <time>2020-07-19T11:03:38Z</time>
      </trkpt>
      <trkpt lat="42.847093" lon="-0.330688">
        <ele>2235.638</ele>
        <time>2020-07-19T11:03:44Z</time>
      </trkpt>
      <trkpt lat="42.847136" lon="-0.330670">
        <ele>2236.169</ele>
        <time>2020-07-19T11:04:06Z</time>
      </trkpt>
      <trkpt lat="42.847175" lon="-0.330705">
        <ele>2239.304</ele>
        <time>2020-07-19T11:05:11Z</time>
      </trkpt>
      <trkpt lat="42.847208" lon="-0.330754">
        <ele>2239.524</ele>
        <time>2020-07-19T11:05:18Z</time>
      </trkpt>
      <trkpt lat="42.847252" lon="-0.330773">
        <ele>2239.508</ele>
        <time>2020-07-19T11:05:24Z</time>
      </trkpt>
      <trkpt lat="42.847297" lon="-0.330772">
        <ele>2238.191</ele>
        <time>2020-07-19T11:05:29Z</time>
      </trkpt>
      <trkpt lat="42.847314" lon="-0.330703">
        <ele>2237.089</ele>
        <time>2020-07-19T11:05:36Z</time>
      </trkpt>
      <trkpt lat="42.847330" lon="-0.330645">
        <ele>2238.082</ele>
        <time>2020-07-19T11:05:44Z</time>
      </trkpt>
      <trkpt lat="42.847336" lon="-0.330569">
        <ele>2240.339</ele>
        <time>2020-07-19T11:05:52Z</time>
      </trkpt>
      <trkpt lat="42.847394" lon="-0.330544">
        <ele>2243.111</ele>
        <time>2020-07-19T11:06:03Z</time>
      </trkpt>
      <trkpt lat="42.847441" lon="-0.330551">
        <ele>2246.121</ele>
        <time>2020-07-19T11:06:11Z</time>
      </trkpt>
      <trkpt lat="42.847471" lon="-0.330504">
        <ele>2248.133</ele>
        <time>2020-07-19T11:06:24Z</time>
      </trkpt>
      <trkpt lat="42.847498" lon="-0.330445">
        <ele>2246.949</ele>
        <time>2020-07-19T11:06:35Z</time>
      </trkpt>
      <trkpt lat="42.847533" lon="-0.330393">
        <ele>2244.742</ele>
        <time>2020-07-19T11:06:42Z</time>
      </trkpt>
      <trkpt lat="42.847541" lon="-0.330340">
        <ele>2250.022</ele>
        <time>2020-07-19T11:07:10Z</time>
      </trkpt>
      <trkpt lat="42.847579" lon="-0.330361">
        <ele>2246.914</ele>
        <time>2020-07-19T11:07:29Z</time>
      </trkpt>
      <trkpt lat="42.847630" lon="-0.330389">
        <ele>2246.908</ele>
        <time>2020-07-19T11:07:37Z</time>
      </trkpt>
      <trkpt lat="42.847690" lon="-0.330372">
        <ele>2247.749</ele>
        <time>2020-07-19T11:07:43Z</time>
      </trkpt>
      <trkpt lat="42.847713" lon="-0.330427">
        <ele>2251.257</ele>
        <time>2020-07-19T11:07:51Z</time>
      </trkpt>
      <trkpt lat="42.847716" lon="-0.330492">
        <ele>2249.760</ele>
        <time>2020-07-19T11:07:59Z</time>
      </trkpt>
      <trkpt lat="42.847728" lon="-0.330561">
        <ele>2249.717</ele>
        <time>2020-07-19T11:08:07Z</time>
      </trkpt>
      <trkpt lat="42.847749" lon="-0.330624">
        <ele>2249.969</ele>
        <time>2020-07-19T11:08:13Z</time>
      </trkpt>
      <trkpt lat="42.847774" lon="-0.330687">
        <ele>2249.859</ele>
        <time>2020-07-19T11:08:18Z</time>
      </trkpt>
      <trkpt lat="42.847801" lon="-0.330759">
        <ele>2249.381</ele>
        <time>2020-07-19T11:08:27Z</time>
      </trkpt>
      <trkpt lat="42.847837" lon="-0.330816">
        <ele>2249.887</ele>
        <time>2020-07-19T11:08:32Z</time>
      </trkpt>
      <trkpt lat="42.847855" lon="-0.330875">
        <ele>2250.919</ele>
        <time>2020-07-19T11:08:38Z</time>
      </trkpt>
      <trkpt lat="42.847865" lon="-0.330938">
        <ele>2248.809</ele>
        <time>2020-07-19T11:08:44Z</time>
      </trkpt>
      <trkpt lat="42.847914" lon="-0.330942">
        <ele>2252.419</ele>
        <time>2020-07-19T11:08:50Z</time>
      </trkpt>
      <trkpt lat="42.847956" lon="-0.330897">
        <ele>2249.408</ele>
        <time>2020-07-19T11:08:56Z</time>
      </trkpt>
      <trkpt lat="42.847997" lon="-0.330866">
        <ele>2252.176</ele>
        <time>2020-07-19T11:09:02Z</time>
      </trkpt>
      <trkpt lat="42.848045" lon="-0.330848">
        <ele>2252.954</ele>
        <time>2020-07-19T11:09:09Z</time>
      </trkpt>
      <trkpt lat="42.848092" lon="-0.330827">
        <ele>2253.757</ele>
        <time>2020-07-19T11:09:16Z</time>
      </trkpt>
      <trkpt lat="42.848136" lon="-0.330842">
        <ele>2255.454</ele>
        <time>2020-07-19T11:09:25Z</time>
      </trkpt>
      <trkpt lat="42.848146" lon="-0.330903">
        <ele>2255.856</ele>
        <time>2020-07-19T11:09:32Z</time>
      </trkpt>
      <trkpt lat="42.848158" lon="-0.330975">
        <ele>2255.166</ele>
        <time>2020-07-19T11:09:39Z</time>
      </trkpt>
      <trkpt lat="42.848187" lon="-0.331039">
        <ele>2251.778</ele>
        <time>2020-07-19T11:09:47Z</time>
      </trkpt>
      <trkpt lat="42.848228" lon="-0.331074">
        <ele>2256.874</ele>
        <time>2020-07-19T11:09:52Z</time>
      </trkpt>
      <trkpt lat="42.848276" lon="-0.331100">
        <ele>2257.017</ele>
        <time>2020-07-19T11:09:57Z</time>
      </trkpt>
      <trkpt lat="42.848308" lon="-0.331159">
        <ele>2256.587</ele>
        <time>2020-07-19T11:10:04Z</time>
      </trkpt>
      <trkpt lat="42.848315" lon="-0.331225">
        <ele>2257.515</ele>
        <time>2020-07-19T11:10:10Z</time>
      </trkpt>
      <trkpt lat="42.848338" lon="-0.331283">
        <ele>2256.508</ele>
        <time>2020-07-19T11:10:36Z</time>
      </trkpt>
      <trkpt lat="42.848373" lon="-0.331328">
        <ele>2258.146</ele>
        <time>2020-07-19T11:10:41Z</time>
      </trkpt>
      <trkpt lat="42.848417" lon="-0.331365">
        <ele>2257.584</ele>
        <time>2020-07-19T11:10:46Z</time>
      </trkpt>
      <trkpt lat="42.848467" lon="-0.331384">
        <ele>2256.547</ele>
        <time>2020-07-19T11:11:57Z</time>
      </trkpt>
      <trkpt lat="42.848509" lon="-0.331408">
        <ele>2256.124</ele>
        <time>2020-07-19T11:12:02Z</time>
      </trkpt>
      <trkpt lat="42.848544" lon="-0.331458">
        <ele>2255.766</ele>
        <time>2020-07-19T11:12:15Z</time>
      </trkpt>
      <trkpt lat="42.848585" lon="-0.331484">
        <ele>2255.516</ele>
        <time>2020-07-19T11:12:48Z</time>
      </trkpt>
      <trkpt lat="42.848621" lon="-0.331529">
        <ele>2250.178</ele>
        <time>2020-07-19T11:13:07Z</time>
      </trkpt>
      <trkpt lat="42.848634" lon="-0.331593">
        <ele>2250.594</ele>
        <time>2020-07-19T11:14:01Z</time>
      </trkpt>
      <trkpt lat="42.848618" lon="-0.331656">
        <ele>2249.645</ele>
        <time>2020-07-19T11:14:07Z</time>
      </trkpt>
      <trkpt lat="42.848600" lon="-0.331719">
        <ele>2247.547</ele>
        <time>2020-07-19T11:14:12Z</time>
      </trkpt>
      <trkpt lat="42.848603" lon="-0.331784">
        <ele>2247.811</ele>
        <time>2020-07-19T11:14:18Z</time>
      </trkpt>
      <trkpt lat="42.848623" lon="-0.331839">
        <ele>2246.008</ele>
        <time>2020-07-19T11:14:26Z</time>
      </trkpt>
      <trkpt lat="42.848672" lon="-0.331860">
        <ele>2245.449</ele>
        <time>2020-07-19T11:14:35Z</time>
      </trkpt>
      <trkpt lat="42.848725" lon="-0.331845">
        <ele>2243.867</ele>
        <time>2020-07-19T11:14:40Z</time>
      </trkpt>
      <trkpt lat="42.848768" lon="-0.331804">
        <ele>2243.980</ele>
        <time>2020-07-19T11:14:46Z</time>
      </trkpt>
      <trkpt lat="42.848819" lon="-0.331804">
        <ele>2241.117</ele>
        <time>2020-07-19T11:14:55Z</time>
      </trkpt>
      <trkpt lat="42.848853" lon="-0.331852">
        <ele>2241.219</ele>
        <time>2020-07-19T11:15:02Z</time>
      </trkpt>
      <trkpt lat="42.848896" lon="-0.331896">
        <ele>2240.539</ele>
        <time>2020-07-19T11:15:08Z</time>
      </trkpt>
      <trkpt lat="42.848943" lon="-0.331903">
        <ele>2240.411</ele>
        <time>2020-07-19T11:15:17Z</time>
      </trkpt>
      <trkpt lat="42.848990" lon="-0.331925">
        <ele>2239.137</ele>
        <time>2020-07-19T11:15:25Z</time>
      </trkpt>
      <trkpt lat="42.849020" lon="-0.331961">
        <ele>2237.376</ele>
        <time>2020-07-19T11:15:33Z</time>
      </trkpt>
      <trkpt lat="42.849067" lon="-0.331960">
        <ele>2236.990</ele>
        <time>2020-07-19T11:15:39Z</time>
      </trkpt>
      <trkpt lat="42.849110" lon="-0.331938">
        <ele>2235.919</ele>
        <time>2020-07-19T11:15:45Z</time>
      </trkpt>
      <trkpt lat="42.849155" lon="-0.331960">
        <ele>2235.108</ele>
        <time>2020-07-19T11:15:55Z</time>
      </trkpt>
      <trkpt lat="42.849198" lon="-0.332002">
        <ele>2234.072</ele>
        <time>2020-07-19T11:16:03Z</time>
      </trkpt>
      <trkpt lat="42.849235" lon="-0.332061">
        <ele>2232.760</ele>
        <time>2020-07-19T11:16:11Z</time>
      </trkpt>
      <trkpt lat="42.849280" lon="-0.332106">
        <ele>2232.863</ele>
        <time>2020-07-19T11:16:18Z</time>
      </trkpt>
      <trkpt lat="42.849333" lon="-0.332125">
        <ele>2231.550</ele>
        <time>2020-07-19T11:16:25Z</time>
      </trkpt>
      <trkpt lat="42.849347" lon="-0.332180">
        <ele>2230.442</ele>
        <time>2020-07-19T11:16:34Z</time>
      </trkpt>
      <trkpt lat="42.849315" lon="-0.332203">
        <ele>2230.152</ele>
        <time>2020-07-19T11:16:38Z</time>
      </trkpt>
      <trkpt lat="42.849326" lon="-0.332269">
        <ele>2228.774</ele>
        <time>2020-07-19T11:16:49Z</time>
      </trkpt>
      <trkpt lat="42.849371" lon="-0.332280">
        <ele>2226.060</ele>
        <time>2020-07-19T11:16:57Z</time>
      </trkpt>
      <trkpt lat="42.849406" lon="-0.332319">
        <ele>2226.065</ele>
        <time>2020-07-19T11:17:12Z</time>
      </trkpt>
      <trkpt lat="42.849435" lon="-0.332369">
        <ele>2224.468</ele>
        <time>2020-07-19T11:17:26Z</time>
      </trkpt>
      <trkpt lat="42.849439" lon="-0.332450">
        <ele>2223.614</ele>
        <time>2020-07-19T11:17:36Z</time>
      </trkpt>
      <trkpt lat="42.849478" lon="-0.332493">
        <ele>2222.508</ele>
        <time>2020-07-19T11:17:43Z</time>
      </trkpt>
      <trkpt lat="42.849524" lon="-0.332512">
        <ele>2222.511</ele>
        <time>2020-07-19T11:17:51Z</time>
      </trkpt>
      <trkpt lat="42.849576" lon="-0.332487">
        <ele>2218.519</ele>
        <time>2020-07-19T11:18:33Z</time>
      </trkpt>
      <trkpt lat="42.849627" lon="-0.332496">
        <ele>2219.362</ele>
        <time>2020-07-19T11:18:38Z</time>
      </trkpt>
      <trkpt lat="42.849673" lon="-0.332497">
        <ele>2218.749</ele>
        <time>2020-07-19T11:18:43Z</time>
      </trkpt>
      <trkpt lat="42.849724" lon="-0.332482">
        <ele>2217.911</ele>
        <time>2020-07-19T11:18:49Z</time>
      </trkpt>
      <trkpt lat="42.849770" lon="-0.332468">
        <ele>2218.351</ele>
        <time>2020-07-19T11:18:55Z</time>
      </trkpt>
      <trkpt lat="42.849822" lon="-0.332468">
        <ele>2217.353</ele>
        <time>2020-07-19T11:19:01Z</time>
      </trkpt>
      <trkpt lat="42.849876" lon="-0.332468">
        <ele>2218.489</ele>
        <time>2020-07-19T11:19:08Z</time>
      </trkpt>
      <trkpt lat="42.849925" lon="-0.332443">
        <ele>2217.246</ele>
        <time>2020-07-19T11:19:14Z</time>
      </trkpt>
      <trkpt lat="42.849968" lon="-0.332447">
        <ele>2215.488</ele>
        <time>2020-07-19T11:19:22Z</time>
      </trkpt>
      <trkpt lat="42.850016" lon="-0.332475">
        <ele>2213.516</ele>
        <time>2020-07-19T11:19:34Z</time>
      </trkpt>
      <trkpt lat="42.850051" lon="-0.332432">
        <ele>2211.408</ele>
        <time>2020-07-19T11:21:12Z</time>
      </trkpt>
      <trkpt lat="42.850097" lon="-0.332435">
        <ele>2209.569</ele>
        <time>2020-07-19T11:21:23Z</time>
      </trkpt>
      <trkpt lat="42.850131" lon="-0.332492">
        <ele>2209.147</ele>
        <time>2020-07-19T11:21:33Z</time>
      </trkpt>
      <trkpt lat="42.850183" lon="-0.332508">
        <ele>2206.450</ele>
        <time>2020-07-19T11:21:44Z</time>
      </trkpt>
      <trkpt lat="42.850231" lon="-0.332545">
        <ele>2202.657</ele>
        <time>2020-07-19T11:21:54Z</time>
      </trkpt>
      <trkpt lat="42.850205" lon="-0.332611">
        <ele>2203.469</ele>
        <time>2020-07-19T11:22:02Z</time>
      </trkpt>
      <trkpt lat="42.850172" lon="-0.332662">
        <ele>2202.239</ele>
        <time>2020-07-19T11:22:09Z</time>
      </trkpt>
      <trkpt lat="42.850151" lon="-0.332727">
        <ele>2200.731</ele>
        <time>2020-07-19T11:22:18Z</time>
      </trkpt>
      <trkpt lat="42.850124" lon="-0.332792">
        <ele>2199.347</ele>
        <time>2020-07-19T11:22:34Z</time>
      </trkpt>
      <trkpt lat="42.850088" lon="-0.332836">
        <ele>2197.587</ele>
        <time>2020-07-19T11:22:41Z</time>
      </trkpt>
      <trkpt lat="42.850046" lon="-0.332866">
        <ele>2195.742</ele>
        <time>2020-07-19T11:22:48Z</time>
      </trkpt>
      <trkpt lat="42.850003" lon="-0.332896">
        <ele>2194.326</ele>
        <time>2020-07-19T11:22:55Z</time>
      </trkpt>
      <trkpt lat="42.850048" lon="-0.332936">
        <ele>2192.808</ele>
        <time>2020-07-19T11:23:07Z</time>
      </trkpt>
      <trkpt lat="42.850098" lon="-0.332932">
        <ele>2191.273</ele>
        <time>2020-07-19T11:23:13Z</time>
      </trkpt>
      <trkpt lat="42.850151" lon="-0.332920">
        <ele>2190.591</ele>
        <time>2020-07-19T11:23:19Z</time>
      </trkpt>
      <trkpt lat="42.850194" lon="-0.332893">
        <ele>2189.174</ele>
        <time>2020-07-19T11:23:25Z</time>
      </trkpt>
      <trkpt lat="42.850242" lon="-0.332885">
        <ele>2188.681</ele>
        <time>2020-07-19T11:23:32Z</time>
      </trkpt>
      <trkpt lat="42.850274" lon="-0.332930">
        <ele>2187.463</ele>
        <time>2020-07-19T11:23:47Z</time>
      </trkpt>
      <trkpt lat="42.850243" lon="-0.332977">
        <ele>2186.923</ele>
        <time>2020-07-19T11:23:52Z</time>
      </trkpt>
      <trkpt lat="42.850203" lon="-0.332994">
        <ele>2186.265</ele>
        <time>2020-07-19T11:24:02Z</time>
      </trkpt>
      <trkpt lat="42.850155" lon="-0.333044">
        <ele>2184.071</ele>
        <time>2020-07-19T11:24:11Z</time>
      </trkpt>
      <trkpt lat="42.850202" lon="-0.333059">
        <ele>2181.749</ele>
        <time>2020-07-19T11:24:24Z</time>
      </trkpt>
      <trkpt lat="42.850250" lon="-0.333053">
        <ele>2180.502</ele>
        <time>2020-07-19T11:24:33Z</time>
      </trkpt>
      <trkpt lat="42.850302" lon="-0.333061">
        <ele>2180.122</ele>
        <time>2020-07-19T11:24:37Z</time>
      </trkpt>
      <trkpt lat="42.850354" lon="-0.333053">
        <ele>2180.608</ele>
        <time>2020-07-19T11:24:44Z</time>
      </trkpt>
      <trkpt lat="42.850399" lon="-0.333049">
        <ele>2178.899</ele>
        <time>2020-07-19T11:24:50Z</time>
      </trkpt>
      <trkpt lat="42.850364" lon="-0.333108">
        <ele>2178.227</ele>
        <time>2020-07-19T11:24:58Z</time>
      </trkpt>
      <trkpt lat="42.850315" lon="-0.333123">
        <ele>2177.640</ele>
        <time>2020-07-19T11:25:04Z</time>
      </trkpt>
      <trkpt lat="42.850272" lon="-0.333164">
        <ele>2176.227</ele>
        <time>2020-07-19T11:25:12Z</time>
      </trkpt>
      <trkpt lat="42.850236" lon="-0.333207">
        <ele>2174.689</ele>
        <time>2020-07-19T11:25:22Z</time>
      </trkpt>
      <trkpt lat="42.850197" lon="-0.333239">
        <ele>2173.289</ele>
        <time>2020-07-19T11:25:30Z</time>
      </trkpt>
      <trkpt lat="42.850243" lon="-0.333261">
        <ele>2172.131</ele>
        <time>2020-07-19T11:25:37Z</time>
      </trkpt>
      <trkpt lat="42.850291" lon="-0.333265">
        <ele>2170.647</ele>
        <time>2020-07-19T11:25:49Z</time>
      </trkpt>
      <trkpt lat="42.850347" lon="-0.333268">
        <ele>2168.545</ele>
        <time>2020-07-19T11:25:58Z</time>
      </trkpt>
      <trkpt lat="42.850396" lon="-0.333251">
        <ele>2168.447</ele>
        <time>2020-07-19T11:26:07Z</time>
      </trkpt>
      <trkpt lat="42.850366" lon="-0.333307">
        <ele>2167.811</ele>
        <time>2020-07-19T11:26:13Z</time>
      </trkpt>
      <trkpt lat="42.850318" lon="-0.333342">
        <ele>2167.108</ele>
        <time>2020-07-19T11:26:18Z</time>
      </trkpt>
      <trkpt lat="42.850273" lon="-0.333369">
        <ele>2166.999</ele>
        <time>2020-07-19T11:26:23Z</time>
      </trkpt>
      <trkpt lat="42.850230" lon="-0.333388">
        <ele>2166.167</ele>
        <time>2020-07-19T11:26:27Z</time>
      </trkpt>
      <trkpt lat="42.850267" lon="-0.333433">
        <ele>2163.720</ele>
        <time>2020-07-19T11:26:38Z</time>
      </trkpt>
      <trkpt lat="42.850318" lon="-0.333422">
        <ele>2163.157</ele>
        <time>2020-07-19T11:26:42Z</time>
      </trkpt>
      <trkpt lat="42.850363" lon="-0.333426">
        <ele>2161.469</ele>
        <time>2020-07-19T11:26:52Z</time>
      </trkpt>
      <trkpt lat="42.850409" lon="-0.333439">
        <ele>2161.129</ele>
        <time>2020-07-19T11:27:00Z</time>
      </trkpt>
      <trkpt lat="42.850375" lon="-0.333489">
        <ele>2159.531</ele>
        <time>2020-07-19T11:27:15Z</time>
      </trkpt>
      <trkpt lat="42.850328" lon="-0.333514">
        <ele>2158.647</ele>
        <time>2020-07-19T11:27:20Z</time>
      </trkpt>
      <trkpt lat="42.850372" lon="-0.333547">
        <ele>2156.661</ele>
        <time>2020-07-19T11:27:35Z</time>
      </trkpt>
      <trkpt lat="42.850426" lon="-0.333549">
        <ele>2155.521</ele>
        <time>2020-07-19T11:27:42Z</time>
      </trkpt>
      <trkpt lat="42.850475" lon="-0.333545">
        <ele>2154.913</ele>
        <time>2020-07-19T11:27:48Z</time>
      </trkpt>
      <trkpt lat="42.850523" lon="-0.333545">
        <ele>2154.008</ele>
        <time>2020-07-19T11:27:55Z</time>
      </trkpt>
      <trkpt lat="42.850564" lon="-0.333580">
        <ele>2150.351</ele>
        <time>2020-07-19T11:28:40Z</time>
      </trkpt>
      <trkpt lat="42.850613" lon="-0.333587">
        <ele>2149.249</ele>
        <time>2020-07-19T11:28:59Z</time>
      </trkpt>
      <trkpt lat="42.850666" lon="-0.333563">
        <ele>2148.272</ele>
        <time>2020-07-19T11:29:08Z</time>
      </trkpt>
      <trkpt lat="42.850714" lon="-0.333567">
        <ele>2147.579</ele>
        <time>2020-07-19T11:29:14Z</time>
      </trkpt>
      <trkpt lat="42.850761" lon="-0.333579">
        <ele>2146.821</ele>
        <time>2020-07-19T11:29:20Z</time>
      </trkpt>
      <trkpt lat="42.850812" lon="-0.333598">
        <ele>2145.551</ele>
        <time>2020-07-19T11:29:27Z</time>
      </trkpt>
      <trkpt lat="42.850835" lon="-0.333655">
        <ele>2144.793</ele>
        <time>2020-07-19T11:29:35Z</time>
      </trkpt>
      <trkpt lat="42.850866" lon="-0.333699">
        <ele>2144.369</ele>
        <time>2020-07-19T11:29:42Z</time>
      </trkpt>
      <trkpt lat="42.850918" lon="-0.333692">
        <ele>2141.953</ele>
        <time>2020-07-19T11:29:56Z</time>
      </trkpt>
      <trkpt lat="42.850954" lon="-0.333745">
        <ele>2140.104</ele>
        <time>2020-07-19T11:30:07Z</time>
      </trkpt>
      <trkpt lat="42.850914" lon="-0.333795">
        <ele>2138.814</ele>
        <time>2020-07-19T11:30:14Z</time>
      </trkpt>
      <trkpt lat="42.850879" lon="-0.333852">
        <ele>2137.408</ele>
        <time>2020-07-19T11:30:22Z</time>
      </trkpt>
      <trkpt lat="42.850892" lon="-0.333917">
        <ele>2137.070</ele>
        <time>2020-07-19T11:30:33Z</time>
      </trkpt>
      <trkpt lat="42.850932" lon="-0.333962">
        <ele>2134.268</ele>
        <time>2020-07-19T11:30:45Z</time>
      </trkpt>
      <trkpt lat="42.850902" lon="-0.334013">
        <ele>2134.271</ele>
        <time>2020-07-19T11:30:51Z</time>
      </trkpt>
      <trkpt lat="42.850850" lon="-0.334007">
        <ele>2132.868</ele>
        <time>2020-07-19T11:30:58Z</time>
      </trkpt>
      <trkpt lat="42.850800" lon="-0.334015">
        <ele>2130.410</ele>
        <time>2020-07-19T11:31:07Z</time>
      </trkpt>
      <trkpt lat="42.850765" lon="-0.334058">
        <ele>2130.070</ele>
        <time>2020-07-19T11:31:15Z</time>
      </trkpt>
      <trkpt lat="42.850717" lon="-0.334064">
        <ele>2128.542</ele>
        <time>2020-07-19T11:31:23Z</time>
      </trkpt>
      <trkpt lat="42.850686" lon="-0.334110">
        <ele>2127.928</ele>
        <time>2020-07-19T11:31:31Z</time>
      </trkpt>
      <trkpt lat="42.850660" lon="-0.334176">
        <ele>2125.598</ele>
        <time>2020-07-19T11:31:37Z</time>
      </trkpt>
      <trkpt lat="42.850666" lon="-0.334248">
        <ele>2125.015</ele>
        <time>2020-07-19T11:31:48Z</time>
      </trkpt>
      <trkpt lat="42.850668" lon="-0.334313">
        <ele>2124.626</ele>
        <time>2020-07-19T11:31:55Z</time>
      </trkpt>
      <trkpt lat="42.850714" lon="-0.334287">
        <ele>2123.708</ele>
        <time>2020-07-19T11:32:00Z</time>
      </trkpt>
      <trkpt lat="42.850764" lon="-0.334248">
        <ele>2122.374</ele>
        <time>2020-07-19T11:32:07Z</time>
      </trkpt>
      <trkpt lat="42.850810" lon="-0.334253">
        <ele>2122.112</ele>
        <time>2020-07-19T11:32:10Z</time>
      </trkpt>
      <trkpt lat="42.850858" lon="-0.334287">
        <ele>2122.145</ele>
        <time>2020-07-19T11:32:17Z</time>
      </trkpt>
      <trkpt lat="42.850894" lon="-0.334328">
        <ele>2122.122</ele>
        <time>2020-07-19T11:32:22Z</time>
      </trkpt>
      <trkpt lat="42.850939" lon="-0.334352">
        <ele>2121.084</ele>
        <time>2020-07-19T11:32:30Z</time>
      </trkpt>
      <trkpt lat="42.850980" lon="-0.334390">
        <ele>2120.314</ele>
        <time>2020-07-19T11:32:37Z</time>
      </trkpt>
      <trkpt lat="42.851009" lon="-0.334441">
        <ele>2119.336</ele>
        <time>2020-07-19T11:32:45Z</time>
      </trkpt>
      <trkpt lat="42.851047" lon="-0.334481">
        <ele>2118.652</ele>
        <time>2020-07-19T11:32:55Z</time>
      </trkpt>
      <trkpt lat="42.851100" lon="-0.334467">
        <ele>2118.014</ele>
        <time>2020-07-19T11:33:05Z</time>
      </trkpt>
      <trkpt lat="42.851133" lon="-0.334418">
        <ele>2117.154</ele>
        <time>2020-07-19T11:33:12Z</time>
      </trkpt>
      <trkpt lat="42.851174" lon="-0.334378">
        <ele>2116.009</ele>
        <time>2020-07-19T11:33:19Z</time>
      </trkpt>
      <trkpt lat="42.851213" lon="-0.334339">
        <ele>2114.408</ele>
        <time>2020-07-19T11:33:27Z</time>
      </trkpt>
      <trkpt lat="42.851256" lon="-0.334311">
        <ele>2113.126</ele>
        <time>2020-07-19T11:33:57Z</time>
      </trkpt>
      <trkpt lat="42.851306" lon="-0.334290">
        <ele>2110.524</ele>
        <time>2020-07-19T11:34:07Z</time>
      </trkpt>
      <trkpt lat="42.851341" lon="-0.334251">
        <ele>2109.017</ele>
        <time>2020-07-19T11:34:11Z</time>
      </trkpt>
      <trkpt lat="42.851395" lon="-0.334258">
        <ele>2108.224</ele>
        <time>2020-07-19T11:34:20Z</time>
      </trkpt>
      <trkpt lat="42.851442" lon="-0.334257">
        <ele>2107.286</ele>
        <time>2020-07-19T11:34:24Z</time>
      </trkpt>
      <trkpt lat="42.851480" lon="-0.334251">
        <ele>2106.436</ele>
        <time>2020-07-19T11:34:33Z</time>
      </trkpt>
      <trkpt lat="42.851534" lon="-0.334263">
        <ele>2106.038</ele>
        <time>2020-07-19T11:34:40Z</time>
      </trkpt>
      <trkpt lat="42.851497" lon="-0.334304">
        <ele>2104.954</ele>
        <time>2020-07-19T11:34:49Z</time>
      </trkpt>
      <trkpt lat="42.851468" lon="-0.334352">
        <ele>2103.777</ele>
        <time>2020-07-19T11:34:57Z</time>
      </trkpt>
      <trkpt lat="42.851434" lon="-0.334398">
        <ele>2103.161</ele>
        <time>2020-07-19T11:35:03Z</time>
      </trkpt>
      <trkpt lat="42.851410" lon="-0.334456">
        <ele>2102.227</ele>
        <time>2020-07-19T11:35:10Z</time>
      </trkpt>
      <trkpt lat="42.851458" lon="-0.334480">
        <ele>2100.108</ele>
        <time>2020-07-19T11:35:22Z</time>
      </trkpt>
      <trkpt lat="42.851508" lon="-0.334464">
        <ele>2098.522</ele>
        <time>2020-07-19T11:35:30Z</time>
      </trkpt>
      <trkpt lat="42.851558" lon="-0.334445">
        <ele>2098.610</ele>
        <time>2020-07-19T11:35:38Z</time>
      </trkpt>
      <trkpt lat="42.851605" lon="-0.334436">
        <ele>2097.643</ele>
        <time>2020-07-19T11:35:45Z</time>
      </trkpt>
      <trkpt lat="42.851586" lon="-0.334504">
        <ele>2096.070</ele>
        <time>2020-07-19T11:35:53Z</time>
      </trkpt>
      <trkpt lat="42.851563" lon="-0.334572">
        <ele>2094.982</ele>
        <time>2020-07-19T11:36:00Z</time>
      </trkpt>
      <trkpt lat="42.851543" lon="-0.334628">
        <ele>2094.462</ele>
        <time>2020-07-19T11:36:06Z</time>
      </trkpt>
      <trkpt lat="42.851536" lon="-0.334698">
        <ele>2092.844</ele>
        <time>2020-07-19T11:36:15Z</time>
      </trkpt>
      <trkpt lat="42.851577" lon="-0.334647">
        <ele>2092.610</ele>
        <time>2020-07-19T11:36:20Z</time>
      </trkpt>
      <trkpt lat="42.851614" lon="-0.334592">
        <ele>2091.863</ele>
        <time>2020-07-19T11:36:27Z</time>
      </trkpt>
      <trkpt lat="42.851659" lon="-0.334576">
        <ele>2090.644</ele>
        <time>2020-07-19T11:37:17Z</time>
      </trkpt>
      <trkpt lat="42.851699" lon="-0.334548">
        <ele>2091.718</ele>
        <time>2020-07-19T11:37:28Z</time>
      </trkpt>
      <trkpt lat="42.851712" lon="-0.334618">
        <ele>2090.308</ele>
        <time>2020-07-19T11:38:12Z</time>
      </trkpt>
      <trkpt lat="42.851700" lon="-0.334689">
        <ele>2087.571</ele>
        <time>2020-07-19T11:38:23Z</time>
      </trkpt>
      <trkpt lat="42.851699" lon="-0.334751">
        <ele>2086.519</ele>
        <time>2020-07-19T11:38:27Z</time>
      </trkpt>
      <trkpt lat="42.851698" lon="-0.334818">
        <ele>2086.262</ele>
        <time>2020-07-19T11:38:33Z</time>
      </trkpt>
      <trkpt lat="42.851692" lon="-0.334884">
        <ele>2086.389</ele>
        <time>2020-07-19T11:38:39Z</time>
      </trkpt>
      <trkpt lat="42.851699" lon="-0.334946">
        <ele>2086.711</ele>
        <time>2020-07-19T11:38:44Z</time>
      </trkpt>
      <trkpt lat="42.851713" lon="-0.335017">
        <ele>2084.921</ele>
        <time>2020-07-19T11:38:50Z</time>
      </trkpt>
      <trkpt lat="42.851708" lon="-0.335078">
        <ele>2085.693</ele>
        <time>2020-07-19T11:38:54Z</time>
      </trkpt>
      <trkpt lat="42.851691" lon="-0.335143">
        <ele>2085.369</ele>
        <time>2020-07-19T11:39:00Z</time>
      </trkpt>
      <trkpt lat="42.851674" lon="-0.335207">
        <ele>2085.067</ele>
        <time>2020-07-19T11:39:07Z</time>
      </trkpt>
      <trkpt lat="42.851654" lon="-0.335270">
        <ele>2083.481</ele>
        <time>2020-07-19T11:39:14Z</time>
      </trkpt>
      <trkpt lat="42.851704" lon="-0.335244">
        <ele>2082.019</ele>
        <time>2020-07-19T11:39:23Z</time>
      </trkpt>
      <trkpt lat="42.851738" lon="-0.335213">
        <ele>2081.508</ele>
        <time>2020-07-19T11:39:29Z</time>
      </trkpt>
      <trkpt lat="42.851724" lon="-0.335275">
        <ele>2080.471</ele>
        <time>2020-07-19T11:39:36Z</time>
      </trkpt>
      <trkpt lat="42.851715" lon="-0.335341">
        <ele>2079.819</ele>
        <time>2020-07-19T11:39:42Z</time>
      </trkpt>
      <trkpt lat="42.851711" lon="-0.335407">
        <ele>2078.732</ele>
        <time>2020-07-19T11:39:47Z</time>
      </trkpt>
      <trkpt lat="42.851753" lon="-0.335375">
        <ele>2077.679</ele>
        <time>2020-07-19T11:40:03Z</time>
      </trkpt>
      <trkpt lat="42.851776" lon="-0.335310">
        <ele>2076.431</ele>
        <time>2020-07-19T11:40:09Z</time>
      </trkpt>
      <trkpt lat="42.851802" lon="-0.335260">
        <ele>2077.151</ele>
        <time>2020-07-19T11:40:14Z</time>
      </trkpt>
      <trkpt lat="42.851835" lon="-0.335199">
        <ele>2075.713</ele>
        <time>2020-07-19T11:40:21Z</time>
      </trkpt>
      <trkpt lat="42.851865" lon="-0.335256">
        <ele>2074.389</ele>
        <time>2020-07-19T11:40:29Z</time>
      </trkpt>
      <trkpt lat="42.851882" lon="-0.335328">
        <ele>2073.817</ele>
        <time>2020-07-19T11:40:33Z</time>
      </trkpt>
      <trkpt lat="42.851904" lon="-0.335395">
        <ele>2072.187</ele>
        <time>2020-07-19T11:40:39Z</time>
      </trkpt>
      <trkpt lat="42.851926" lon="-0.335452">
        <ele>2072.515</ele>
        <time>2020-07-19T11:40:44Z</time>
      </trkpt>
      <trkpt lat="42.851962" lon="-0.335500">
        <ele>2072.008</ele>
        <time>2020-07-19T11:40:53Z</time>
      </trkpt>
      <trkpt lat="42.851998" lon="-0.335558">
        <ele>2069.416</ele>
        <time>2020-07-19T11:44:12Z</time>
      </trkpt>
      <trkpt lat="42.852024" lon="-0.335626">
        <ele>2069.254</ele>
        <time>2020-07-19T11:44:20Z</time>
      </trkpt>
      <trkpt lat="42.852052" lon="-0.335665">
        <ele>2068.227</ele>
        <time>2020-07-19T11:44:27Z</time>
      </trkpt>
      <trkpt lat="42.852040" lon="-0.335723">
        <ele>2066.714</ele>
        <time>2020-07-19T11:44:47Z</time>
      </trkpt>
      <trkpt lat="42.852050" lon="-0.335784">
        <ele>2066.696</ele>
        <time>2020-07-19T11:44:51Z</time>
      </trkpt>
      <trkpt lat="42.852081" lon="-0.335846">
        <ele>2065.416</ele>
        <time>2020-07-19T11:44:55Z</time>
      </trkpt>
      <trkpt lat="42.852130" lon="-0.335842">
        <ele>2064.328</ele>
        <time>2020-07-19T11:45:00Z</time>
      </trkpt>
      <trkpt lat="42.852160" lon="-0.335772">
        <ele>2064.984</ele>
        <time>2020-07-19T11:45:06Z</time>
      </trkpt>
      <trkpt lat="42.852186" lon="-0.335721">
        <ele>2064.411</ele>
        <time>2020-07-19T11:45:11Z</time>
      </trkpt>
      <trkpt lat="42.852194" lon="-0.335651">
        <ele>2063.321</ele>
        <time>2020-07-19T11:45:18Z</time>
      </trkpt>
      <trkpt lat="42.852205" lon="-0.335586">
        <ele>2061.603</ele>
        <time>2020-07-19T11:45:36Z</time>
      </trkpt>
      <trkpt lat="42.852194" lon="-0.335519">
        <ele>2060.208</ele>
        <time>2020-07-19T11:45:41Z</time>
      </trkpt>
      <trkpt lat="42.852185" lon="-0.335448">
        <ele>2059.886</ele>
        <time>2020-07-19T11:45:47Z</time>
      </trkpt>
      <trkpt lat="42.852199" lon="-0.335390">
        <ele>2059.194</ele>
        <time>2020-07-19T11:45:55Z</time>
      </trkpt>
      <trkpt lat="42.852224" lon="-0.335329">
        <ele>2058.247</ele>
        <time>2020-07-19T11:46:15Z</time>
      </trkpt>
      <trkpt lat="42.852252" lon="-0.335272">
        <ele>2057.484</ele>
        <time>2020-07-19T11:46:20Z</time>
      </trkpt>
      <trkpt lat="42.852285" lon="-0.335228">
        <ele>2056.736</ele>
        <time>2020-07-19T11:46:47Z</time>
      </trkpt>
      <trkpt lat="42.852318" lon="-0.335163">
        <ele>2056.256</ele>
        <time>2020-07-19T11:46:55Z</time>
      </trkpt>
      <trkpt lat="42.852349" lon="-0.335112">
        <ele>2055.058</ele>
        <time>2020-07-19T11:47:02Z</time>
      </trkpt>
      <trkpt lat="42.852351" lon="-0.335187">
        <ele>2053.484</ele>
        <time>2020-07-19T11:47:16Z</time>
      </trkpt>
      <trkpt lat="42.852352" lon="-0.335255">
        <ele>2052.756</ele>
        <time>2020-07-19T11:47:21Z</time>
      </trkpt>
      <trkpt lat="42.852352" lon="-0.335324">
        <ele>2052.759</ele>
        <time>2020-07-19T11:47:27Z</time>
      </trkpt>
      <trkpt lat="42.852351" lon="-0.335388">
        <ele>2051.614</ele>
        <time>2020-07-19T11:47:33Z</time>
      </trkpt>
      <trkpt lat="42.852362" lon="-0.335454">
        <ele>2051.108</ele>
        <time>2020-07-19T11:47:44Z</time>
      </trkpt>
      <trkpt lat="42.852364" lon="-0.335524">
        <ele>2050.490</ele>
        <time>2020-07-19T11:47:54Z</time>
      </trkpt>
      <trkpt lat="42.852381" lon="-0.335587">
        <ele>2050.068</ele>
        <time>2020-07-19T11:48:01Z</time>
      </trkpt>
      <trkpt lat="42.852405" lon="-0.335640">
        <ele>2049.431</ele>
        <time>2020-07-19T11:48:08Z</time>
      </trkpt>
      <trkpt lat="42.852425" lon="-0.335698">
        <ele>2048.528</ele>
        <time>2020-07-19T11:48:15Z</time>
      </trkpt>
      <trkpt lat="42.852443" lon="-0.335759">
        <ele>2047.270</ele>
        <time>2020-07-19T11:48:20Z</time>
      </trkpt>
      <trkpt lat="42.852429" lon="-0.335823">
        <ele>2045.670</ele>
        <time>2020-07-19T11:48:27Z</time>
      </trkpt>
      <trkpt lat="42.852418" lon="-0.335885">
        <ele>2044.252</ele>
        <time>2020-07-19T11:48:35Z</time>
      </trkpt>
      <trkpt lat="42.852401" lon="-0.335948">
        <ele>2042.448</ele>
        <time>2020-07-19T11:48:45Z</time>
      </trkpt>
      <trkpt lat="42.852374" lon="-0.336009">
        <ele>2040.967</ele>
        <time>2020-07-19T11:48:54Z</time>
      </trkpt>
      <trkpt lat="42.852349" lon="-0.336063">
        <ele>2040.581</ele>
        <time>2020-07-19T11:49:00Z</time>
      </trkpt>
      <trkpt lat="42.852315" lon="-0.336112">
        <ele>2039.419</ele>
        <time>2020-07-19T11:49:07Z</time>
      </trkpt>
      <trkpt lat="42.852292" lon="-0.336166">
        <ele>2038.108</ele>
        <time>2020-07-19T11:49:13Z</time>
      </trkpt>
      <trkpt lat="42.852289" lon="-0.336232">
        <ele>2037.151</ele>
        <time>2020-07-19T11:49:19Z</time>
      </trkpt>
      <trkpt lat="42.852275" lon="-0.336296">
        <ele>2036.249</ele>
        <time>2020-07-19T11:49:27Z</time>
      </trkpt>
      <trkpt lat="42.852264" lon="-0.336357">
        <ele>2035.532</ele>
        <time>2020-07-19T11:49:34Z</time>
      </trkpt>
      <trkpt lat="42.852253" lon="-0.336422">
        <ele>2034.389</ele>
        <time>2020-07-19T11:49:41Z</time>
      </trkpt>
      <trkpt lat="42.852226" lon="-0.336473">
        <ele>2033.091</ele>
        <time>2020-07-19T11:49:48Z</time>
      </trkpt>
      <trkpt lat="42.852220" lon="-0.336538">
        <ele>2031.891</ele>
        <time>2020-07-19T11:49:56Z</time>
      </trkpt>
      <trkpt lat="42.852212" lon="-0.336609">
        <ele>2030.963</ele>
        <time>2020-07-19T11:50:04Z</time>
      </trkpt>
      <trkpt lat="42.852209" lon="-0.336677">
        <ele>2030.879</ele>
        <time>2020-07-19T11:50:09Z</time>
      </trkpt>
      <trkpt lat="42.852233" lon="-0.336731">
        <ele>2029.017</ele>
        <time>2020-07-19T11:50:17Z</time>
      </trkpt>
      <trkpt lat="42.852273" lon="-0.336694">
        <ele>2028.687</ele>
        <time>2020-07-19T11:50:24Z</time>
      </trkpt>
      <trkpt lat="42.852305" lon="-0.336651">
        <ele>2028.615</ele>
        <time>2020-07-19T11:50:28Z</time>
      </trkpt>
      <trkpt lat="42.852334" lon="-0.336603">
        <ele>2027.508</ele>
        <time>2020-07-19T11:50:32Z</time>
      </trkpt>
      <trkpt lat="42.852383" lon="-0.336604">
        <ele>2025.786</ele>
        <time>2020-07-19T11:50:38Z</time>
      </trkpt>
      <trkpt lat="42.852413" lon="-0.336661">
        <ele>2026.034</ele>
        <time>2020-07-19T11:50:46Z</time>
      </trkpt>
      <trkpt lat="42.852439" lon="-0.336602">
        <ele>2024.937</ele>
        <time>2020-07-19T11:50:57Z</time>
      </trkpt>
      <trkpt lat="42.852465" lon="-0.336548">
        <ele>2024.174</ele>
        <time>2020-07-19T11:51:04Z</time>
      </trkpt>
      <trkpt lat="42.852500" lon="-0.336503">
        <ele>2023.486</ele>
        <time>2020-07-19T11:51:13Z</time>
      </trkpt>
      <trkpt lat="42.852514" lon="-0.336570">
        <ele>2022.146</ele>
        <time>2020-07-19T11:51:19Z</time>
      </trkpt>
      <trkpt lat="42.852562" lon="-0.336574">
        <ele>2022.158</ele>
        <time>2020-07-19T11:51:27Z</time>
      </trkpt>
      <trkpt lat="42.852603" lon="-0.336542">
        <ele>2020.254</ele>
        <time>2020-07-19T11:51:42Z</time>
      </trkpt>
      <trkpt lat="42.852653" lon="-0.336541">
        <ele>2019.764</ele>
        <time>2020-07-19T11:51:50Z</time>
      </trkpt>
      <trkpt lat="42.852700" lon="-0.336558">
        <ele>2017.706</ele>
        <time>2020-07-19T11:52:01Z</time>
      </trkpt>
      <trkpt lat="42.852701" lon="-0.336624">
        <ele>2017.216</ele>
        <time>2020-07-19T11:52:07Z</time>
      </trkpt>
      <trkpt lat="42.852714" lon="-0.336691">
        <ele>2016.608</ele>
        <time>2020-07-19T11:52:16Z</time>
      </trkpt>
      <trkpt lat="42.852715" lon="-0.336759">
        <ele>2015.741</ele>
        <time>2020-07-19T11:52:23Z</time>
      </trkpt>
      <trkpt lat="42.852726" lon="-0.336827">
        <ele>2015.239</ele>
        <time>2020-07-19T11:52:30Z</time>
      </trkpt>
      <trkpt lat="42.852775" lon="-0.336854">
        <ele>2015.912</ele>
        <time>2020-07-19T11:52:38Z</time>
      </trkpt>
      <trkpt lat="42.852823" lon="-0.336856">
        <ele>2014.879</ele>
        <time>2020-07-19T11:52:43Z</time>
      </trkpt>
      <trkpt lat="42.852869" lon="-0.336867">
        <ele>2014.611</ele>
        <time>2020-07-19T11:52:48Z</time>
      </trkpt>
      <trkpt lat="42.852916" lon="-0.336871">
        <ele>2014.041</ele>
        <time>2020-07-19T11:52:54Z</time>
      </trkpt>
      <trkpt lat="42.852962" lon="-0.336848">
        <ele>2013.393</ele>
        <time>2020-07-19T11:52:59Z</time>
      </trkpt>
      <trkpt lat="42.853011" lon="-0.336852">
        <ele>2013.369</ele>
        <time>2020-07-19T11:53:05Z</time>
      </trkpt>
      <trkpt lat="42.853062" lon="-0.336868">
        <ele>2012.987</ele>
        <time>2020-07-19T11:53:11Z</time>
      </trkpt>
      <trkpt lat="42.853111" lon="-0.336880">
        <ele>2011.942</ele>
        <time>2020-07-19T11:53:16Z</time>
      </trkpt>
      <trkpt lat="42.853158" lon="-0.336889">
        <ele>2013.026</ele>
        <time>2020-07-19T11:53:22Z</time>
      </trkpt>
      <trkpt lat="42.853213" lon="-0.336901">
        <ele>2013.508</ele>
        <time>2020-07-19T11:53:28Z</time>
      </trkpt>
      <trkpt lat="42.853256" lon="-0.336921">
        <ele>2012.783</ele>
        <time>2020-07-19T11:53:33Z</time>
      </trkpt>
      <trkpt lat="42.853302" lon="-0.336944">
        <ele>2011.871</ele>
        <time>2020-07-19T11:53:40Z</time>
      </trkpt>
      <trkpt lat="42.853347" lon="-0.336909">
        <ele>2010.794</ele>
        <time>2020-07-19T11:53:47Z</time>
      </trkpt>
      <trkpt lat="42.853401" lon="-0.336921">
        <ele>2010.911</ele>
        <time>2020-07-19T11:53:56Z</time>
      </trkpt>
      <trkpt lat="42.853445" lon="-0.336940">
        <ele>2010.613</ele>
        <time>2020-07-19T11:54:01Z</time>
      </trkpt>
      <trkpt lat="42.853503" lon="-0.336936">
        <ele>2009.873</ele>
        <time>2020-07-19T11:54:09Z</time>
      </trkpt>
      <trkpt lat="42.853555" lon="-0.336958">
        <ele>2008.815</ele>
        <time>2020-07-19T11:54:16Z</time>
      </trkpt>
      <trkpt lat="42.853601" lon="-0.336958">
        <ele>2008.281</ele>
        <time>2020-07-19T11:54:24Z</time>
      </trkpt>
      <trkpt lat="42.853656" lon="-0.336922">
        <ele>2008.345</ele>
        <time>2020-07-19T11:54:57Z</time>
      </trkpt>
      <trkpt lat="42.853705" lon="-0.336906">
        <ele>2008.547</ele>
        <time>2020-07-19T11:55:00Z</time>
      </trkpt>
      <trkpt lat="42.853758" lon="-0.336890">
        <ele>2007.811</ele>
        <time>2020-07-19T11:55:05Z</time>
      </trkpt>
      <trkpt lat="42.853806" lon="-0.336892">
        <ele>2008.008</ele>
        <time>2020-07-19T11:55:19Z</time>
      </trkpt>
      <trkpt lat="42.853864" lon="-0.336878">
        <ele>2007.569</ele>
        <time>2020-07-19T11:55:26Z</time>
      </trkpt>
      <trkpt lat="42.853915" lon="-0.336860">
        <ele>2008.287</ele>
        <time>2020-07-19T11:55:31Z</time>
      </trkpt>
      <trkpt lat="42.853960" lon="-0.336839">
        <ele>2008.670</ele>
        <time>2020-07-19T11:55:35Z</time>
      </trkpt>
      <trkpt lat="42.854014" lon="-0.336808">
        <ele>2007.987</ele>
        <time>2020-07-19T11:55:39Z</time>
      </trkpt>
      <trkpt lat="42.854058" lon="-0.336790">
        <ele>2007.729</ele>
        <time>2020-07-19T11:55:43Z</time>
      </trkpt>
      <trkpt lat="42.854106" lon="-0.336781">
        <ele>2007.649</ele>
        <time>2020-07-19T11:55:47Z</time>
      </trkpt>
      <trkpt lat="42.854149" lon="-0.336760">
        <ele>2007.721</ele>
        <time>2020-07-19T11:55:52Z</time>
      </trkpt>
      <trkpt lat="42.854186" lon="-0.336722">
        <ele>2006.727</ele>
        <time>2020-07-19T11:55:56Z</time>
      </trkpt>
      <trkpt lat="42.854231" lon="-0.336703">
        <ele>2006.871</ele>
        <time>2020-07-19T11:56:01Z</time>
      </trkpt>
      <trkpt lat="42.854280" lon="-0.336676">
        <ele>2006.941</ele>
        <time>2020-07-19T11:56:07Z</time>
      </trkpt>
      <trkpt lat="42.854321" lon="-0.336648">
        <ele>2006.715</ele>
        <time>2020-07-19T11:56:12Z</time>
      </trkpt>
      <trkpt lat="42.854365" lon="-0.336628">
        <ele>2007.608</ele>
        <time>2020-07-19T11:56:17Z</time>
      </trkpt>
      <trkpt lat="42.854413" lon="-0.336598">
        <ele>2005.842</ele>
        <time>2020-07-19T11:56:23Z</time>
      </trkpt>
      <trkpt lat="42.854453" lon="-0.336558">
        <ele>2005.760</ele>
        <time>2020-07-19T11:56:28Z</time>
      </trkpt>
      <trkpt lat="42.854498" lon="-0.336539">
        <ele>2006.463</ele>
        <time>2020-07-19T11:56:33Z</time>
      </trkpt>
      <trkpt lat="42.854546" lon="-0.336518">
        <ele>2006.810</ele>
        <time>2020-07-19T11:56:39Z</time>
      </trkpt>
      <trkpt lat="42.854606" lon="-0.336492">
        <ele>2006.712</ele>
        <time>2020-07-19T11:56:46Z</time>
      </trkpt>
      <trkpt lat="42.854658" lon="-0.336483">
        <ele>2006.742</ele>
        <time>2020-07-19T11:56:51Z</time>
      </trkpt>
      <trkpt lat="42.854708" lon="-0.336478">
        <ele>2005.754</ele>
        <time>2020-07-19T11:56:56Z</time>
      </trkpt>
      <trkpt lat="42.854743" lon="-0.336473">
        <ele>2006.690</ele>
        <time>2020-07-19T11:57:02Z</time>
      </trkpt>
      <trkpt lat="42.854776" lon="-0.336472">
        <ele>2004.351</ele>
        <time>2020-07-19T11:58:11Z</time>
      </trkpt>
      <trkpt lat="42.854824" lon="-0.336488">
        <ele>2005.101</ele>
        <time>2020-07-19T11:58:14Z</time>
      </trkpt>
      <trkpt lat="42.854879" lon="-0.336491">
        <ele>2004.011</ele>
        <time>2020-07-19T11:58:18Z</time>
      </trkpt>
      <trkpt lat="42.854929" lon="-0.336474">
        <ele>2004.608</ele>
        <time>2020-07-19T11:58:22Z</time>
      </trkpt>
      <trkpt lat="42.854984" lon="-0.336457">
        <ele>2004.520</ele>
        <time>2020-07-19T11:58:27Z</time>
      </trkpt>
      <trkpt lat="42.855032" lon="-0.336427">
        <ele>2003.318</ele>
        <time>2020-07-19T11:58:31Z</time>
      </trkpt>
      <trkpt lat="42.855072" lon="-0.336394">
        <ele>2002.261</ele>
        <time>2020-07-19T11:58:36Z</time>
      </trkpt>
      <trkpt lat="42.855119" lon="-0.336357">
        <ele>2002.848</ele>
        <time>2020-07-19T11:58:42Z</time>
      </trkpt>
      <trkpt lat="42.855170" lon="-0.336334">
        <ele>2003.860</ele>
        <time>2020-07-19T11:58:47Z</time>
      </trkpt>
      <trkpt lat="42.855215" lon="-0.336301">
        <ele>2003.970</ele>
        <time>2020-07-19T11:58:52Z</time>
      </trkpt>
      <trkpt lat="42.855262" lon="-0.336259">
        <ele>2002.712</ele>
        <time>2020-07-19T11:58:58Z</time>
      </trkpt>
      <trkpt lat="42.855309" lon="-0.336241">
        <ele>2003.628</ele>
        <time>2020-07-19T11:59:04Z</time>
      </trkpt>
      <trkpt lat="42.855334" lon="-0.336172">
        <ele>2002.378</ele>
        <time>2020-07-19T11:59:11Z</time>
      </trkpt>
      <trkpt lat="42.855362" lon="-0.336113">
        <ele>2000.733</ele>
        <time>2020-07-19T11:59:17Z</time>
      </trkpt>
      <trkpt lat="42.855413" lon="-0.336082">
        <ele>2000.726</ele>
        <time>2020-07-19T11:59:24Z</time>
      </trkpt>
      <trkpt lat="42.855450" lon="-0.336046">
        <ele>1999.808</ele>
        <time>2020-07-19T11:59:32Z</time>
      </trkpt>
      <trkpt lat="42.855492" lon="-0.336025">
        <ele>1998.012</ele>
        <time>2020-07-19T11:59:41Z</time>
      </trkpt>
      <trkpt lat="42.855535" lon="-0.336035">
        <ele>1998.280</ele>
        <time>2020-07-19T12:12:12Z</time>
      </trkpt>
      <trkpt lat="42.855565" lon="-0.336068">
        <ele>1997.683</ele>
        <time>2020-07-19T12:12:17Z</time>
      </trkpt>
      <trkpt lat="42.855610" lon="-0.336054">
        <ele>1995.860</ele>
        <time>2020-07-19T12:12:24Z</time>
      </trkpt>
      <trkpt lat="42.855655" lon="-0.336005">
        <ele>1997.522</ele>
        <time>2020-07-19T12:12:33Z</time>
      </trkpt>
      <trkpt lat="42.855697" lon="-0.335961">
        <ele>1998.372</ele>
        <time>2020-07-19T12:12:39Z</time>
      </trkpt>
      <trkpt lat="42.855742" lon="-0.335925">
        <ele>1997.574</ele>
        <time>2020-07-19T12:12:44Z</time>
      </trkpt>
      <trkpt lat="42.855788" lon="-0.335909">
        <ele>1996.850</ele>
        <time>2020-07-19T12:12:48Z</time>
      </trkpt>
      <trkpt lat="42.855834" lon="-0.335890">
        <ele>1996.071</ele>
        <time>2020-07-19T12:12:54Z</time>
      </trkpt>
      <trkpt lat="42.855885" lon="-0.335886">
        <ele>1996.641</ele>
        <time>2020-07-19T12:13:00Z</time>
      </trkpt>
      <trkpt lat="42.855943" lon="-0.335915">
        <ele>1995.915</ele>
        <time>2020-07-19T12:13:09Z</time>
      </trkpt>
      <trkpt lat="42.856000" lon="-0.335931">
        <ele>1998.108</ele>
        <time>2020-07-19T12:13:17Z</time>
      </trkpt>
      <trkpt lat="42.856054" lon="-0.335941">
        <ele>1997.692</ele>
        <time>2020-07-19T12:13:24Z</time>
      </trkpt>
      <trkpt lat="42.856111" lon="-0.335958">
        <ele>1996.090</ele>
        <time>2020-07-19T12:13:31Z</time>
      </trkpt>
      <trkpt lat="42.856157" lon="-0.335969">
        <ele>1999.953</ele>
        <time>2020-07-19T12:13:38Z</time>
      </trkpt>
      <trkpt lat="42.856200" lon="-0.335992">
        <ele>1999.510</ele>
        <time>2020-07-19T12:13:44Z</time>
      </trkpt>
      <trkpt lat="42.856244" lon="-0.336010">
        <ele>1999.032</ele>
        <time>2020-07-19T12:13:51Z</time>
      </trkpt>
      <trkpt lat="42.856287" lon="-0.336027">
        <ele>1997.242</ele>
        <time>2020-07-19T12:14:13Z</time>
      </trkpt>
      <trkpt lat="42.856338" lon="-0.336055">
        <ele>1999.354</ele>
        <time>2020-07-19T12:14:23Z</time>
      </trkpt>
      <trkpt lat="42.856391" lon="-0.336051">
        <ele>2002.230</ele>
        <time>2020-07-19T12:14:30Z</time>
      </trkpt>
      <trkpt lat="42.856443" lon="-0.336043">
        <ele>2001.677</ele>
        <time>2020-07-19T12:14:39Z</time>
      </trkpt>
      <trkpt lat="42.856497" lon="-0.336035">
        <ele>2002.961</ele>
        <time>2020-07-19T12:14:43Z</time>
      </trkpt>
      <trkpt lat="42.856544" lon="-0.336057">
        <ele>2003.427</ele>
        <time>2020-07-19T12:14:49Z</time>
      </trkpt>
      <trkpt lat="42.856590" lon="-0.336093">
        <ele>2002.008</ele>
        <time>2020-07-19T12:14:58Z</time>
      </trkpt>
      <trkpt lat="42.856637" lon="-0.336096">
        <ele>2002.432</ele>
        <time>2020-07-19T12:15:07Z</time>
      </trkpt>
      <trkpt lat="42.856683" lon="-0.336054">
        <ele>2004.220</ele>
        <time>2020-07-19T12:15:12Z</time>
      </trkpt>
      <trkpt lat="42.856727" lon="-0.336015">
        <ele>2005.183</ele>
        <time>2020-07-19T12:15:18Z</time>
      </trkpt>
      <trkpt lat="42.856761" lon="-0.335970">
        <ele>2004.630</ele>
        <time>2020-07-19T12:15:25Z</time>
      </trkpt>
      <trkpt lat="42.856808" lon="-0.335962">
        <ele>2004.312</ele>
        <time>2020-07-19T12:15:32Z</time>
      </trkpt>
      <trkpt lat="42.856859" lon="-0.335973">
        <ele>2004.182</ele>
        <time>2020-07-19T12:15:38Z</time>
      </trkpt>
      <trkpt lat="42.856911" lon="-0.335980">
        <ele>2005.414</ele>
        <time>2020-07-19T12:15:47Z</time>
      </trkpt>
      <trkpt lat="42.856963" lon="-0.335997">
        <ele>2004.950</ele>
        <time>2020-07-19T12:15:52Z</time>
      </trkpt>
      <trkpt lat="42.857012" lon="-0.336003">
        <ele>2005.744</ele>
        <time>2020-07-19T12:15:59Z</time>
      </trkpt>
      <trkpt lat="42.857057" lon="-0.336034">
        <ele>2003.305</ele>
        <time>2020-07-19T12:16:06Z</time>
      </trkpt>
      <trkpt lat="42.857104" lon="-0.336062">
        <ele>2004.615</ele>
        <time>2020-07-19T12:16:13Z</time>
      </trkpt>
      <trkpt lat="42.857152" lon="-0.336073">
        <ele>2004.008</ele>
        <time>2020-07-19T12:16:18Z</time>
      </trkpt>
      <trkpt lat="42.857197" lon="-0.336058">
        <ele>2003.569</ele>
        <time>2020-07-19T12:16:26Z</time>
      </trkpt>
      <trkpt lat="42.857243" lon="-0.336052">
        <ele>2002.357</ele>
        <time>2020-07-19T12:16:31Z</time>
      </trkpt>
      <trkpt lat="42.857292" lon="-0.336051">
        <ele>1999.880</ele>
        <time>2020-07-19T12:16:38Z</time>
      </trkpt>
      <trkpt lat="42.857349" lon="-0.336055">
        <ele>2006.677</ele>
        <time>2020-07-19T12:16:45Z</time>
      </trkpt>
      <trkpt lat="42.857394" lon="-0.336036">
        <ele>2005.599</ele>
        <time>2020-07-19T12:16:52Z</time>
      </trkpt>
      <trkpt lat="42.857427" lon="-0.335990">
        <ele>2005.399</ele>
        <time>2020-07-19T12:17:00Z</time>
      </trkpt>
      <trkpt lat="42.857460" lon="-0.335952">
        <ele>2005.041</ele>
        <time>2020-07-19T12:17:05Z</time>
      </trkpt>
      <trkpt lat="42.857508" lon="-0.335931">
        <ele>2005.657</ele>
        <time>2020-07-19T12:17:13Z</time>
      </trkpt>
      <trkpt lat="42.857554" lon="-0.335920">
        <ele>2004.627</ele>
        <time>2020-07-19T12:17:21Z</time>
      </trkpt>
      <trkpt lat="42.857605" lon="-0.335923">
        <ele>2005.568</ele>
        <time>2020-07-19T12:17:32Z</time>
      </trkpt>
      <trkpt lat="42.857657" lon="-0.335905">
        <ele>2004.914</ele>
        <time>2020-07-19T12:17:37Z</time>
      </trkpt>
      <trkpt lat="42.857698" lon="-0.335854">
        <ele>2005.008</ele>
        <time>2020-07-19T12:17:43Z</time>
      </trkpt>
      <trkpt lat="42.857737" lon="-0.335819">
        <ele>2002.957</ele>
        <time>2020-07-19T12:17:50Z</time>
      </trkpt>
      <trkpt lat="42.857779" lon="-0.335785">
        <ele>2002.395</ele>
        <time>2020-07-19T12:17:59Z</time>
      </trkpt>
      <trkpt lat="42.857818" lon="-0.335748">
        <ele>2003.028</ele>
        <time>2020-07-19T12:18:05Z</time>
      </trkpt>
      <trkpt lat="42.857861" lon="-0.335717">
        <ele>2001.835</ele>
        <time>2020-07-19T12:18:11Z</time>
      </trkpt>
      <trkpt lat="42.857908" lon="-0.335699">
        <ele>2001.417</ele>
        <time>2020-07-19T12:18:20Z</time>
      </trkpt>
      <trkpt lat="42.857955" lon="-0.335666">
        <ele>2002.747</ele>
        <time>2020-07-19T12:18:27Z</time>
      </trkpt>
      <trkpt lat="42.858002" lon="-0.335648">
        <ele>2000.469</ele>
        <time>2020-07-19T12:18:36Z</time>
      </trkpt>
      <trkpt lat="42.858043" lon="-0.335622">
        <ele>2000.415</ele>
        <time>2020-07-19T12:18:47Z</time>
      </trkpt>
      <trkpt lat="42.858079" lon="-0.335571">
        <ele>1999.659</ele>
        <time>2020-07-19T12:18:52Z</time>
      </trkpt>
      <trkpt lat="42.858112" lon="-0.335517">
        <ele>1997.603</ele>
        <time>2020-07-19T12:18:59Z</time>
      </trkpt>
      <trkpt lat="42.858153" lon="-0.335494">
        <ele>1997.223</ele>
        <time>2020-07-19T12:19:08Z</time>
      </trkpt>
      <trkpt lat="42.858206" lon="-0.335472">
        <ele>1999.008</ele>
        <time>2020-07-19T12:19:16Z</time>
      </trkpt>
      <trkpt lat="42.858250" lon="-0.335452">
        <ele>1998.420</ele>
        <time>2020-07-19T12:19:19Z</time>
      </trkpt>
      <trkpt lat="42.858297" lon="-0.335439">
        <ele>1998.218</ele>
        <time>2020-07-19T12:19:25Z</time>
      </trkpt>
      <trkpt lat="42.858346" lon="-0.335439">
        <ele>1997.651</ele>
        <time>2020-07-19T12:19:32Z</time>
      </trkpt>
      <trkpt lat="42.858395" lon="-0.335439">
        <ele>1996.688</ele>
        <time>2020-07-19T12:19:38Z</time>
      </trkpt>
      <trkpt lat="42.858447" lon="-0.335447">
        <ele>1998.180</ele>
        <time>2020-07-19T12:19:45Z</time>
      </trkpt>
      <trkpt lat="42.858486" lon="-0.335477">
        <ele>1996.830</ele>
        <time>2020-07-19T12:19:51Z</time>
      </trkpt>
      <trkpt lat="42.858535" lon="-0.335471">
        <ele>1997.632</ele>
        <time>2020-07-19T12:20:04Z</time>
      </trkpt>
      <trkpt lat="42.858579" lon="-0.335492">
        <ele>2000.178</ele>
        <time>2020-07-19T12:20:11Z</time>
      </trkpt>
      <trkpt lat="42.858623" lon="-0.335524">
        <ele>2001.234</ele>
        <time>2020-07-19T12:20:16Z</time>
      </trkpt>
      <trkpt lat="42.858666" lon="-0.335548">
        <ele>2001.355</ele>
        <time>2020-07-19T12:20:23Z</time>
      </trkpt>
      <trkpt lat="42.858712" lon="-0.335573">
        <ele>2001.510</ele>
        <time>2020-07-19T12:20:30Z</time>
      </trkpt>
      <trkpt lat="42.858742" lon="-0.335626">
        <ele>1999.408</ele>
        <time>2020-07-19T12:21:11Z</time>
      </trkpt>
      <trkpt lat="42.858798" lon="-0.335641">
        <ele>2002.318</ele>
        <time>2020-07-19T12:21:16Z</time>
      </trkpt>
      <trkpt lat="42.858844" lon="-0.335655">
        <ele>2000.716</ele>
        <time>2020-07-19T12:21:19Z</time>
      </trkpt>
      <trkpt lat="42.858892" lon="-0.335673">
        <ele>2001.739</ele>
        <time>2020-07-19T12:21:23Z</time>
      </trkpt>
      <trkpt lat="42.858946" lon="-0.335696">
        <ele>2003.086</ele>
        <time>2020-07-19T12:21:28Z</time>
      </trkpt>
      <trkpt lat="42.858995" lon="-0.335702">
        <ele>2000.928</ele>
        <time>2020-07-19T12:21:31Z</time>
      </trkpt>
      <trkpt lat="42.859045" lon="-0.335695">
        <ele>2002.598</ele>
        <time>2020-07-19T12:21:37Z</time>
      </trkpt>
      <trkpt lat="42.859103" lon="-0.335691">
        <ele>2003.960</ele>
        <time>2020-07-19T12:21:44Z</time>
      </trkpt>
      <trkpt lat="42.859150" lon="-0.335687">
        <ele>1997.186</ele>
        <time>2020-07-19T12:21:50Z</time>
      </trkpt>
      <trkpt lat="42.859198" lon="-0.335674">
        <ele>2005.298</ele>
        <time>2020-07-19T12:21:56Z</time>
      </trkpt>
      <trkpt lat="42.859246" lon="-0.335686">
        <ele>2005.315</ele>
        <time>2020-07-19T12:22:05Z</time>
      </trkpt>
      <trkpt lat="42.859281" lon="-0.335659">
        <ele>2003.326</ele>
        <time>2020-07-19T12:22:15Z</time>
      </trkpt>
      <trkpt lat="42.859325" lon="-0.335668">
        <ele>2002.408</ele>
        <time>2020-07-19T12:22:34Z</time>
      </trkpt>
      <trkpt lat="42.859371" lon="-0.335682">
        <ele>2001.174</ele>
        <time>2020-07-19T12:22:43Z</time>
      </trkpt>
      <trkpt lat="42.859418" lon="-0.335654">
        <ele>1998.832</ele>
        <time>2020-07-19T12:23:13Z</time>
      </trkpt>
      <trkpt lat="42.859474" lon="-0.335632">
        <ele>1997.585</ele>
        <time>2020-07-19T12:23:18Z</time>
      </trkpt>
      <trkpt lat="42.859520" lon="-0.335642">
        <ele>1998.962</ele>
        <time>2020-07-19T12:23:24Z</time>
      </trkpt>
      <trkpt lat="42.859553" lon="-0.335686">
        <ele>1997.994</ele>
        <time>2020-07-19T12:23:28Z</time>
      </trkpt>
      <trkpt lat="42.859584" lon="-0.335752">
        <ele>1997.074</ele>
        <time>2020-07-19T12:23:33Z</time>
      </trkpt>
      <trkpt lat="42.859616" lon="-0.335803">
        <ele>1996.226</ele>
        <time>2020-07-19T12:23:38Z</time>
      </trkpt>
      <trkpt lat="42.859662" lon="-0.335805">
        <ele>1999.882</ele>
        <time>2020-07-19T12:23:43Z</time>
      </trkpt>
      <trkpt lat="42.859713" lon="-0.335821">
        <ele>1999.729</ele>
        <time>2020-07-19T12:23:50Z</time>
      </trkpt>
      <trkpt lat="42.859744" lon="-0.335868">
        <ele>1997.600</ele>
        <time>2020-07-19T12:23:54Z</time>
      </trkpt>
      <trkpt lat="42.859774" lon="-0.335924">
        <ele>1999.920</ele>
        <time>2020-07-19T12:24:01Z</time>
      </trkpt>
      <trkpt lat="42.859816" lon="-0.335951">
        <ele>2001.208</ele>
        <time>2020-07-19T12:24:07Z</time>
      </trkpt>
      <trkpt lat="42.859865" lon="-0.335977">
        <ele>1998.287</ele>
        <time>2020-07-19T12:24:14Z</time>
      </trkpt>
      <trkpt lat="42.859911" lon="-0.335972">
        <ele>2004.515</ele>
        <time>2020-07-19T12:24:20Z</time>
      </trkpt>
      <trkpt lat="42.859959" lon="-0.335974">
        <ele>2001.928</ele>
        <time>2020-07-19T12:24:24Z</time>
      </trkpt>
      <trkpt lat="42.860010" lon="-0.335975">
        <ele>2004.775</ele>
        <time>2020-07-19T12:24:31Z</time>
      </trkpt>
      <trkpt lat="42.860059" lon="-0.335948">
        <ele>2001.667</ele>
        <time>2020-07-19T12:24:41Z</time>
      </trkpt>
      <trkpt lat="42.860104" lon="-0.335949">
        <ele>2001.677</ele>
        <time>2020-07-19T12:24:51Z</time>
      </trkpt>
      <trkpt lat="42.860154" lon="-0.335921">
        <ele>2005.519</ele>
        <time>2020-07-19T12:24:59Z</time>
      </trkpt>
      <trkpt lat="42.860184" lon="-0.335898">
        <ele>2006.765</ele>
        <time>2020-07-19T12:25:05Z</time>
      </trkpt>
      <trkpt lat="42.860196" lon="-0.335847">
        <ele>2005.842</ele>
        <time>2020-07-19T12:25:27Z</time>
      </trkpt>
      <trkpt lat="42.860224" lon="-0.335807">
        <ele>2008.222</ele>
        <time>2020-07-19T12:25:32Z</time>
      </trkpt>
      <trkpt lat="42.860265" lon="-0.335780">
        <ele>2007.914</ele>
        <time>2020-07-19T12:25:37Z</time>
      </trkpt>
      <trkpt lat="42.860309" lon="-0.335761">
        <ele>2009.108</ele>
        <time>2020-07-19T12:25:41Z</time>
      </trkpt>
      <trkpt lat="42.860358" lon="-0.335770">
        <ele>2008.019</ele>
        <time>2020-07-19T12:25:45Z</time>
      </trkpt>
      <trkpt lat="42.860410" lon="-0.335755">
        <ele>2009.227</ele>
        <time>2020-07-19T12:25:53Z</time>
      </trkpt>
      <trkpt lat="42.860462" lon="-0.335780">
        <ele>2008.240</ele>
        <time>2020-07-19T12:26:15Z</time>
      </trkpt>
      <trkpt lat="42.860498" lon="-0.335790">
        <ele>2007.237</ele>
        <time>2020-07-19T12:26:23Z</time>
      </trkpt>
      <trkpt lat="42.860504" lon="-0.335852">
        <ele>2005.339</ele>
        <time>2020-07-19T12:26:30Z</time>
      </trkpt>
      <trkpt lat="42.860504" lon="-0.335907">
        <ele>2006.069</ele>
        <time>2020-07-19T12:26:41Z</time>
      </trkpt>
      <trkpt lat="42.860552" lon="-0.335889">
        <ele>2005.041</ele>
        <time>2020-07-19T12:26:53Z</time>
      </trkpt>
      <trkpt lat="42.860568" lon="-0.335819">
        <ele>2003.447</ele>
        <time>2020-07-19T12:27:00Z</time>
      </trkpt>
      <trkpt lat="42.860571" lon="-0.335754">
        <ele>2003.164</ele>
        <time>2020-07-19T12:27:05Z</time>
      </trkpt>
      <trkpt lat="42.860626" lon="-0.335742">
        <ele>2001.006</ele>
        <time>2020-07-19T12:27:23Z</time>
      </trkpt>
      <trkpt lat="42.860657" lon="-0.335794">
        <ele>1999.016</ele>
        <time>2020-07-19T12:27:32Z</time>
      </trkpt>
      <trkpt lat="42.860646" lon="-0.335854">
        <ele>1999.308</ele>
        <time>2020-07-19T12:27:37Z</time>
      </trkpt>
      <trkpt lat="42.860639" lon="-0.335916">
        <ele>1999.191</ele>
        <time>2020-07-19T12:27:49Z</time>
      </trkpt>
      <trkpt lat="42.860630" lon="-0.335981">
        <ele>1996.339</ele>
        <time>2020-07-19T12:28:13Z</time>
      </trkpt>
      <trkpt lat="42.860642" lon="-0.336042">
        <ele>1997.922</ele>
        <time>2020-07-19T12:28:47Z</time>
      </trkpt>
      <trkpt lat="42.860660" lon="-0.336106">
        <ele>1998.059</ele>
        <time>2020-07-19T12:28:52Z</time>
      </trkpt>
      <trkpt lat="42.860682" lon="-0.336165">
        <ele>1997.871</ele>
        <time>2020-07-19T12:28:57Z</time>
      </trkpt>
      <trkpt lat="42.860709" lon="-0.336226">
        <ele>1998.511</ele>
        <time>2020-07-19T12:29:01Z</time>
      </trkpt>
      <trkpt lat="42.860758" lon="-0.336252">
        <ele>1997.693</ele>
        <time>2020-07-19T12:29:08Z</time>
      </trkpt>
      <trkpt lat="42.860801" lon="-0.336296">
        <ele>1999.679</ele>
        <time>2020-07-19T12:29:14Z</time>
      </trkpt>
      <trkpt lat="42.860858" lon="-0.336319">
        <ele>1999.239</ele>
        <time>2020-07-19T12:29:18Z</time>
      </trkpt>
      <trkpt lat="42.860912" lon="-0.336329">
        <ele>1998.801</ele>
        <time>2020-07-19T12:29:22Z</time>
      </trkpt>
      <trkpt lat="42.860953" lon="-0.336382">
        <ele>2001.121</ele>
        <time>2020-07-19T12:29:28Z</time>
      </trkpt>
      <trkpt lat="42.860978" lon="-0.336434">
        <ele>1999.708</ele>
        <time>2020-07-19T12:29:33Z</time>
      </trkpt>
      <trkpt lat="42.861010" lon="-0.336478">
        <ele>1999.598</ele>
        <time>2020-07-19T12:29:38Z</time>
      </trkpt>
      <trkpt lat="42.861052" lon="-0.336508">
        <ele>2000.156</ele>
        <time>2020-07-19T12:29:45Z</time>
      </trkpt>
      <trkpt lat="42.861100" lon="-0.336494">
        <ele>1999.959</ele>
        <time>2020-07-19T12:29:59Z</time>
      </trkpt>
      <trkpt lat="42.861150" lon="-0.336495">
        <ele>1999.356</ele>
        <time>2020-07-19T12:30:05Z</time>
      </trkpt>
      <trkpt lat="42.861218" lon="-0.336510">
        <ele>1999.258</ele>
        <time>2020-07-19T12:30:11Z</time>
      </trkpt>
      <trkpt lat="42.861269" lon="-0.336519">
        <ele>1998.148</ele>
        <time>2020-07-19T12:30:25Z</time>
      </trkpt>
      <trkpt lat="42.861316" lon="-0.336552">
        <ele>1996.910</ele>
        <time>2020-07-19T12:30:40Z</time>
      </trkpt>
      <trkpt lat="42.861359" lon="-0.336577">
        <ele>1997.186</ele>
        <time>2020-07-19T12:30:47Z</time>
      </trkpt>
      <trkpt lat="42.861409" lon="-0.336573">
        <ele>1996.388</ele>
        <time>2020-07-19T12:30:53Z</time>
      </trkpt>
      <trkpt lat="42.861461" lon="-0.336572">
        <ele>1996.124</ele>
        <time>2020-07-19T12:30:59Z</time>
      </trkpt>
      <trkpt lat="42.861509" lon="-0.336592">
        <ele>1996.926</ele>
        <time>2020-07-19T12:31:04Z</time>
      </trkpt>
      <trkpt lat="42.861554" lon="-0.336617">
        <ele>1993.208</ele>
        <time>2020-07-19T12:31:10Z</time>
      </trkpt>
      <trkpt lat="42.861599" lon="-0.336652">
        <ele>1995.643</ele>
        <time>2020-07-19T12:31:17Z</time>
      </trkpt>
      <trkpt lat="42.861641" lon="-0.336701">
        <ele>1996.071</ele>
        <time>2020-07-19T12:31:24Z</time>
      </trkpt>
      <trkpt lat="42.861686" lon="-0.336746">
        <ele>1996.014</ele>
        <time>2020-07-19T12:31:30Z</time>
      </trkpt>
      <trkpt lat="42.861735" lon="-0.336766">
        <ele>1995.081</ele>
        <time>2020-07-19T12:31:35Z</time>
      </trkpt>
      <trkpt lat="42.861779" lon="-0.336784">
        <ele>1995.363</ele>
        <time>2020-07-19T12:31:40Z</time>
      </trkpt>
      <trkpt lat="42.861832" lon="-0.336786">
        <ele>1996.753</ele>
        <time>2020-07-19T12:31:45Z</time>
      </trkpt>
      <trkpt lat="42.861882" lon="-0.336792">
        <ele>1997.945</ele>
        <time>2020-07-19T12:31:51Z</time>
      </trkpt>
      <trkpt lat="42.861925" lon="-0.336768">
        <ele>1996.991</ele>
        <time>2020-07-19T12:31:55Z</time>
      </trkpt>
      <trkpt lat="42.861965" lon="-0.336709">
        <ele>1997.679</ele>
        <time>2020-07-19T12:32:01Z</time>
      </trkpt>
      <trkpt lat="42.861996" lon="-0.336658">
        <ele>1997.805</ele>
        <time>2020-07-19T12:32:22Z</time>
      </trkpt>
      <trkpt lat="42.862032" lon="-0.336613">
        <ele>1997.625</ele>
        <time>2020-07-19T12:32:28Z</time>
      </trkpt>
      <trkpt lat="42.862062" lon="-0.336540">
        <ele>1997.108</ele>
        <time>2020-07-19T12:32:35Z</time>
      </trkpt>
      <trkpt lat="42.862088" lon="-0.336481">
        <ele>1994.472</ele>
        <time>2020-07-19T12:32:40Z</time>
      </trkpt>
      <trkpt lat="42.862114" lon="-0.336417">
        <ele>1995.950</ele>
        <time>2020-07-19T12:32:47Z</time>
      </trkpt>
      <trkpt lat="42.862130" lon="-0.336346">
        <ele>1996.063</ele>
        <time>2020-07-19T12:32:56Z</time>
      </trkpt>
      <trkpt lat="42.862164" lon="-0.336302">
        <ele>1996.090</ele>
        <time>2020-07-19T12:33:04Z</time>
      </trkpt>
      <trkpt lat="42.862195" lon="-0.336251">
        <ele>1995.022</ele>
        <time>2020-07-19T12:34:26Z</time>
      </trkpt>
      <trkpt lat="42.862236" lon="-0.336232">
        <ele>1994.052</ele>
        <time>2020-07-19T12:34:33Z</time>
      </trkpt>
      <trkpt lat="42.862274" lon="-0.336174">
        <ele>1992.514</ele>
        <time>2020-07-19T12:34:39Z</time>
      </trkpt>
      <trkpt lat="42.862301" lon="-0.336123">
        <ele>1992.070</ele>
        <time>2020-07-19T12:35:06Z</time>
      </trkpt>
      <trkpt lat="42.862320" lon="-0.336066">
        <ele>1989.555</ele>
        <time>2020-07-19T12:35:20Z</time>
      </trkpt>
      <trkpt lat="42.862352" lon="-0.336028">
        <ele>1987.707</ele>
        <time>2020-07-19T12:35:30Z</time>
      </trkpt>
      <trkpt lat="42.862380" lon="-0.335994">
        <ele>1988.417</ele>
        <time>2020-07-19T12:35:36Z</time>
      </trkpt>
      <trkpt lat="42.862369" lon="-0.335930">
        <ele>1990.008</ele>
        <time>2020-07-19T12:37:03Z</time>
      </trkpt>
      <trkpt lat="42.862349" lon="-0.335866">
        <ele>1990.310</ele>
        <time>2020-07-19T12:37:09Z</time>
      </trkpt>
      <trkpt lat="42.862319" lon="-0.335797">
        <ele>1993.488</ele>
        <time>2020-07-19T12:37:15Z</time>
      </trkpt>
      <trkpt lat="42.862294" lon="-0.335743">
        <ele>1994.511</ele>
        <time>2020-07-19T12:37:20Z</time>
      </trkpt>
      <trkpt lat="42.862265" lon="-0.335685">
        <ele>1994.138</ele>
        <time>2020-07-19T12:37:27Z</time>
      </trkpt>
      <trkpt lat="42.862220" lon="-0.335660">
        <ele>1993.310</ele>
        <time>2020-07-19T12:37:33Z</time>
      </trkpt>
      <trkpt lat="42.862194" lon="-0.335610">
        <ele>1992.630</ele>
        <time>2020-07-19T12:37:42Z</time>
      </trkpt>
      <trkpt lat="42.862149" lon="-0.335600">
        <ele>1993.152</ele>
        <time>2020-07-19T12:37:49Z</time>
      </trkpt>
      <trkpt lat="42.862102" lon="-0.335563">
        <ele>1991.528</ele>
        <time>2020-07-19T12:37:57Z</time>
      </trkpt>
      <trkpt lat="42.862068" lon="-0.335512">
        <ele>1991.746</ele>
        <time>2020-07-19T12:38:04Z</time>
      </trkpt>
      <trkpt lat="42.862038" lon="-0.335456">
        <ele>1992.588</ele>
        <time>2020-07-19T12:38:09Z</time>
      </trkpt>
      <trkpt lat="42.862033" lon="-0.335386">
        <ele>1991.516</ele>
        <time>2020-07-19T12:38:16Z</time>
      </trkpt>
      <trkpt lat="42.862057" lon="-0.335312">
        <ele>1989.208</ele>
        <time>2020-07-19T12:38:22Z</time>
      </trkpt>
      <trkpt lat="42.862076" lon="-0.335241">
        <ele>1989.629</ele>
        <time>2020-07-19T12:38:27Z</time>
      </trkpt>
      <trkpt lat="42.862106" lon="-0.335178">
        <ele>1993.857</ele>
        <time>2020-07-19T12:38:34Z</time>
      </trkpt>
      <trkpt lat="42.862152" lon="-0.335163">
        <ele>1994.510</ele>
        <time>2020-07-19T12:38:39Z</time>
      </trkpt>
      <trkpt lat="42.862196" lon="-0.335134">
        <ele>1994.977</ele>
        <time>2020-07-19T12:38:46Z</time>
      </trkpt>
      <trkpt lat="42.862209" lon="-0.335071">
        <ele>1990.719</ele>
        <time>2020-07-19T12:38:51Z</time>
      </trkpt>
      <trkpt lat="42.862180" lon="-0.335011">
        <ele>1996.639</ele>
        <time>2020-07-19T12:38:59Z</time>
      </trkpt>
      <trkpt lat="42.862155" lon="-0.334952">
        <ele>1994.221</ele>
        <time>2020-07-19T12:39:07Z</time>
      </trkpt>
      <trkpt lat="42.862161" lon="-0.334887">
        <ele>1995.677</ele>
        <time>2020-07-19T12:39:13Z</time>
      </trkpt>
      <trkpt lat="42.862180" lon="-0.334829">
        <ele>1995.378</ele>
        <time>2020-07-19T12:39:18Z</time>
      </trkpt>
      <trkpt lat="42.862195" lon="-0.334768">
        <ele>1995.933</ele>
        <time>2020-07-19T12:39:25Z</time>
      </trkpt>
      <trkpt lat="42.862207" lon="-0.334707">
        <ele>1998.926</ele>
        <time>2020-07-19T12:39:53Z</time>
      </trkpt>
      <trkpt lat="42.862218" lon="-0.334634">
        <ele>1996.408</ele>
        <time>2020-07-19T12:40:00Z</time>
      </trkpt>
      <trkpt lat="42.862222" lon="-0.334553">
        <ele>1997.162</ele>
        <time>2020-07-19T12:40:05Z</time>
      </trkpt>
      <trkpt lat="42.862229" lon="-0.334474">
        <ele>1996.340</ele>
        <time>2020-07-19T12:40:11Z</time>
      </trkpt>
      <trkpt lat="42.862244" lon="-0.334411">
        <ele>1995.923</ele>
        <time>2020-07-19T12:40:54Z</time>
      </trkpt>
      <trkpt lat="42.862268" lon="-0.334335">
        <ele>1995.190</ele>
        <time>2020-07-19T12:41:00Z</time>
      </trkpt>
      <trkpt lat="42.862311" lon="-0.334316">
        <ele>1997.082</ele>
        <time>2020-07-19T12:42:05Z</time>
      </trkpt>
      <trkpt lat="42.862358" lon="-0.334332">
        <ele>1996.072</ele>
        <time>2020-07-19T12:42:36Z</time>
      </trkpt>
      <trkpt lat="42.862409" lon="-0.334292">
        <ele>1996.014</ele>
        <time>2020-07-19T12:42:43Z</time>
      </trkpt>
      <trkpt lat="42.862436" lon="-0.334224">
        <ele>1996.320</ele>
        <time>2020-07-19T12:42:48Z</time>
      </trkpt>
      <trkpt lat="42.862461" lon="-0.334168">
        <ele>1995.969</ele>
        <time>2020-07-19T12:42:53Z</time>
      </trkpt>
      <trkpt lat="42.862505" lon="-0.334112">
        <ele>1995.704</ele>
        <time>2020-07-19T12:43:00Z</time>
      </trkpt>
      <trkpt lat="42.862551" lon="-0.334093">
        <ele>1995.724</ele>
        <time>2020-07-19T12:43:07Z</time>
      </trkpt>
      <trkpt lat="42.862590" lon="-0.334048">
        <ele>1994.908</ele>
        <time>2020-07-19T12:43:22Z</time>
      </trkpt>
      <trkpt lat="42.862616" lon="-0.333990">
        <ele>1995.191</ele>
        <time>2020-07-19T12:43:29Z</time>
      </trkpt>
      <trkpt lat="42.862613" lon="-0.333932">
        <ele>1995.569</ele>
        <time>2020-07-19T12:43:55Z</time>
      </trkpt>
      <trkpt lat="42.862617" lon="-0.333859">
        <ele>1995.622</ele>
        <time>2020-07-19T12:44:01Z</time>
      </trkpt>
      <trkpt lat="42.862621" lon="-0.333786">
        <ele>1996.049</ele>
        <time>2020-07-19T12:44:06Z</time>
      </trkpt>
      <trkpt lat="42.862630" lon="-0.333730">
        <ele>1994.891</ele>
        <time>2020-07-19T12:44:13Z</time>
      </trkpt>
      <trkpt lat="42.862616" lon="-0.333663">
        <ele>1994.941</ele>
        <time>2020-07-19T12:45:08Z</time>
      </trkpt>
      <trkpt lat="42.862622" lon="-0.333592">
        <ele>1994.363</ele>
        <time>2020-07-19T12:45:16Z</time>
      </trkpt>
      <trkpt lat="42.862640" lon="-0.333520">
        <ele>1994.449</ele>
        <time>2020-07-19T12:45:21Z</time>
      </trkpt>
      <trkpt lat="42.862673" lon="-0.333468">
        <ele>1994.387</ele>
        <time>2020-07-19T12:45:27Z</time>
      </trkpt>
      <trkpt lat="42.862695" lon="-0.333393">
        <ele>1994.442</ele>
        <time>2020-07-19T12:45:34Z</time>
      </trkpt>
      <trkpt lat="42.862695" lon="-0.333321">
        <ele>1994.626</ele>
        <time>2020-07-19T12:45:39Z</time>
      </trkpt>
      <trkpt lat="42.862696" lon="-0.333246">
        <ele>1996.008</ele>
        <time>2020-07-19T12:45:44Z</time>
      </trkpt>
      <trkpt lat="42.862702" lon="-0.333170">
        <ele>1996.983</ele>
        <time>2020-07-19T12:45:49Z</time>
      </trkpt>
      <trkpt lat="42.862716" lon="-0.333099">
        <ele>1996.431</ele>
        <time>2020-07-19T12:45:55Z</time>
      </trkpt>
      <trkpt lat="42.862737" lon="-0.333043">
        <ele>1996.284</ele>
        <time>2020-07-19T12:46:16Z</time>
      </trkpt>
      <trkpt lat="42.862751" lon="-0.332978">
        <ele>1995.641</ele>
        <time>2020-07-19T12:46:23Z</time>
      </trkpt>
      <trkpt lat="42.862770" lon="-0.332911">
        <ele>1995.193</ele>
        <time>2020-07-19T12:46:28Z</time>
      </trkpt>
      <trkpt lat="42.862758" lon="-0.332840">
        <ele>1994.643</ele>
        <time>2020-07-19T12:46:59Z</time>
      </trkpt>
      <trkpt lat="42.862770" lon="-0.332763">
        <ele>1995.575</ele>
        <time>2020-07-19T12:47:04Z</time>
      </trkpt>
      <trkpt lat="42.862791" lon="-0.332695">
        <ele>1996.241</ele>
        <time>2020-07-19T12:47:08Z</time>
      </trkpt>
      <trkpt lat="42.862814" lon="-0.332643">
        <ele>1995.169</ele>
        <time>2020-07-19T12:47:12Z</time>
      </trkpt>
      <trkpt lat="42.862831" lon="-0.332571">
        <ele>1995.004</ele>
        <time>2020-07-19T12:47:17Z</time>
      </trkpt>
      <trkpt lat="42.862860" lon="-0.332518">
        <ele>1994.924</ele>
        <time>2020-07-19T12:47:22Z</time>
      </trkpt>
      <trkpt lat="42.862890" lon="-0.332467">
        <ele>1995.508</ele>
        <time>2020-07-19T12:47:26Z</time>
      </trkpt>
      <trkpt lat="42.862926" lon="-0.332426">
        <ele>1995.341</ele>
        <time>2020-07-19T12:47:35Z</time>
      </trkpt>
      <trkpt lat="42.862946" lon="-0.332367">
        <ele>1994.739</ele>
        <time>2020-07-19T12:47:40Z</time>
      </trkpt>
      <trkpt lat="42.862968" lon="-0.332306">
        <ele>1996.012</ele>
        <time>2020-07-19T12:47:45Z</time>
      </trkpt>
      <trkpt lat="42.863006" lon="-0.332271">
        <ele>1994.469</ele>
        <time>2020-07-19T12:48:02Z</time>
      </trkpt>
      <trkpt lat="42.863056" lon="-0.332291">
        <ele>1996.971</ele>
        <time>2020-07-19T12:48:08Z</time>
      </trkpt>
      <trkpt lat="42.863106" lon="-0.332302">
        <ele>1996.371</ele>
        <time>2020-07-19T12:48:14Z</time>
      </trkpt>
      <trkpt lat="42.863156" lon="-0.332330">
        <ele>1995.693</ele>
        <time>2020-07-19T12:48:24Z</time>
      </trkpt>
      <trkpt lat="42.863208" lon="-0.332345">
        <ele>1995.769</ele>
        <time>2020-07-19T12:48:29Z</time>
      </trkpt>
      <trkpt lat="42.863253" lon="-0.332333">
        <ele>1994.885</ele>
        <time>2020-07-19T12:48:32Z</time>
      </trkpt>
      <trkpt lat="42.863300" lon="-0.332313">
        <ele>1996.589</ele>
        <time>2020-07-19T12:50:16Z</time>
      </trkpt>
      <trkpt lat="42.863349" lon="-0.332322">
        <ele>1996.117</ele>
        <time>2020-07-19T12:50:20Z</time>
      </trkpt>
      <trkpt lat="42.863391" lon="-0.332297">
        <ele>1995.708</ele>
        <time>2020-07-19T12:50:28Z</time>
      </trkpt>
      <trkpt lat="42.863441" lon="-0.332276">
        <ele>1996.313</ele>
        <time>2020-07-19T12:51:03Z</time>
      </trkpt>
      <trkpt lat="42.863500" lon="-0.332300">
        <ele>1996.121</ele>
        <time>2020-07-19T12:51:08Z</time>
      </trkpt>
      <trkpt lat="42.863545" lon="-0.332340">
        <ele>1993.244</ele>
        <time>2020-07-19T12:51:13Z</time>
      </trkpt>
      <trkpt lat="42.863576" lon="-0.332348">
        <ele>1997.871</ele>
        <time>2020-07-19T12:51:17Z</time>
      </trkpt>
      <trkpt lat="42.863599" lon="-0.332300">
        <ele>1996.763</ele>
        <time>2020-07-19T12:51:23Z</time>
      </trkpt>
      <trkpt lat="42.863608" lon="-0.332233">
        <ele>1997.913</ele>
        <time>2020-07-19T12:51:29Z</time>
      </trkpt>
      <trkpt lat="42.863622" lon="-0.332174">
        <ele>1998.285</ele>
        <time>2020-07-19T12:51:32Z</time>
      </trkpt>
      <trkpt lat="42.863650" lon="-0.332104">
        <ele>1998.561</ele>
        <time>2020-07-19T12:51:40Z</time>
      </trkpt>
      <trkpt lat="42.863692" lon="-0.332072">
        <ele>1996.796</ele>
        <time>2020-07-19T12:51:45Z</time>
      </trkpt>
      <trkpt lat="42.863744" lon="-0.332075">
        <ele>2000.831</ele>
        <time>2020-07-19T12:51:52Z</time>
      </trkpt>
      <trkpt lat="42.863802" lon="-0.332075">
        <ele>2000.024</ele>
        <time>2020-07-19T12:51:58Z</time>
      </trkpt>
      <trkpt lat="42.863845" lon="-0.332054">
        <ele>1999.908</ele>
        <time>2020-07-19T12:52:04Z</time>
      </trkpt>
      <trkpt lat="42.863888" lon="-0.332021">
        <ele>1999.464</ele>
        <time>2020-07-19T12:52:22Z</time>
      </trkpt>
      <trkpt lat="42.863914" lon="-0.331962">
        <ele>2001.552</ele>
        <time>2020-07-19T12:52:26Z</time>
      </trkpt>
      <trkpt lat="42.863955" lon="-0.331920">
        <ele>2002.725</ele>
        <time>2020-07-19T12:52:32Z</time>
      </trkpt>
      <trkpt lat="42.863999" lon="-0.331877">
        <ele>2003.722</ele>
        <time>2020-07-19T12:52:44Z</time>
      </trkpt>
      <trkpt lat="42.864038" lon="-0.331844">
        <ele>2006.484</ele>
        <time>2020-07-19T12:52:50Z</time>
      </trkpt>
      <trkpt lat="42.864059" lon="-0.331782">
        <ele>2006.214</ele>
        <time>2020-07-19T12:52:54Z</time>
      </trkpt>
      <trkpt lat="42.864082" lon="-0.331728">
        <ele>2006.326</ele>
        <time>2020-07-19T12:53:00Z</time>
      </trkpt>
      <trkpt lat="42.864113" lon="-0.331758">
        <ele>2008.052</ele>
        <time>2020-07-19T12:53:10Z</time>
      </trkpt>
      <trkpt lat="42.864143" lon="-0.331808">
        <ele>2007.728</ele>
        <time>2020-07-19T12:53:25Z</time>
      </trkpt>
      <trkpt lat="42.864144" lon="-0.331738">
        <ele>2010.889</ele>
        <time>2020-07-19T12:53:37Z</time>
      </trkpt>
      <trkpt lat="42.864152" lon="-0.331673">
        <ele>2011.917</ele>
        <time>2020-07-19T12:53:45Z</time>
      </trkpt>
      <trkpt lat="42.864184" lon="-0.331624">
        <ele>2010.608</ele>
        <time>2020-07-19T12:53:51Z</time>
      </trkpt>
      <trkpt lat="42.864226" lon="-0.331592">
        <ele>2012.127</ele>
        <time>2020-07-19T12:54:01Z</time>
      </trkpt>
      <trkpt lat="42.864272" lon="-0.331572">
        <ele>2008.165</ele>
        <time>2020-07-19T12:54:15Z</time>
      </trkpt>
      <trkpt lat="42.864316" lon="-0.331552">
        <ele>2016.558</ele>
        <time>2020-07-19T12:54:27Z</time>
      </trkpt>
      <trkpt lat="42.864349" lon="-0.331532">
        <ele>2019.045</ele>
        <time>2020-07-19T12:54:39Z</time>
      </trkpt>
      <trkpt lat="42.864308" lon="-0.331488">
        <ele>2018.527</ele>
        <time>2020-07-19T12:55:14Z</time>
      </trkpt>
      <trkpt lat="42.864362" lon="-0.331474">
        <ele>2022.417</ele>
        <time>2020-07-19T12:56:04Z</time>
      </trkpt>
      <trkpt lat="42.864406" lon="-0.331426">
        <ele>2021.549</ele>
        <time>2020-07-19T12:56:13Z</time>
      </trkpt>
      <trkpt lat="42.864447" lon="-0.331373">
        <ele>2026.425</ele>
        <time>2020-07-19T12:56:19Z</time>
      </trkpt>
      <trkpt lat="42.864491" lon="-0.331325">
        <ele>2023.416</ele>
        <time>2020-07-19T12:56:28Z</time>
      </trkpt>
      <trkpt lat="42.864521" lon="-0.331273">
        <ele>2024.276</ele>
        <time>2020-07-19T12:56:37Z</time>
      </trkpt>
      <trkpt lat="42.864565" lon="-0.331239">
        <ele>2029.513</ele>
        <time>2020-07-19T12:56:47Z</time>
      </trkpt>
      <trkpt lat="42.864602" lon="-0.331199">
        <ele>2031.108</ele>
        <time>2020-07-19T12:56:56Z</time>
      </trkpt>
      <trkpt lat="42.864644" lon="-0.331158">
        <ele>2031.316</ele>
        <time>2020-07-19T12:57:04Z</time>
      </trkpt>
      <trkpt lat="42.864674" lon="-0.331112">
        <ele>2031.164</ele>
        <time>2020-07-19T13:00:12Z</time>
      </trkpt>
      <trkpt lat="42.864720" lon="-0.331083">
        <ele>2031.397</ele>
        <time>2020-07-19T13:00:16Z</time>
      </trkpt>
      <trkpt lat="42.864769" lon="-0.331031">
        <ele>2029.564</ele>
        <time>2020-07-19T13:00:19Z</time>
      </trkpt>
      <trkpt lat="42.864811" lon="-0.330981">
        <ele>2030.636</ele>
        <time>2020-07-19T13:00:24Z</time>
      </trkpt>
      <trkpt lat="42.864848" lon="-0.330940">
        <ele>2029.036</ele>
        <time>2020-07-19T13:00:28Z</time>
      </trkpt>
      <trkpt lat="42.864898" lon="-0.330905">
        <ele>2029.318</ele>
        <time>2020-07-19T13:00:32Z</time>
      </trkpt>
      <trkpt lat="42.864937" lon="-0.330872">
        <ele>2032.734</ele>
        <time>2020-07-19T13:00:39Z</time>
      </trkpt>
      <trkpt lat="42.864982" lon="-0.330835">
        <ele>2031.522</ele>
        <time>2020-07-19T13:00:47Z</time>
      </trkpt>
      <trkpt lat="42.865023" lon="-0.330802">
        <ele>2034.662</ele>
        <time>2020-07-19T13:00:53Z</time>
      </trkpt>
      <trkpt lat="42.865068" lon="-0.330799">
        <ele>2029.608</ele>
        <time>2020-07-19T13:01:11Z</time>
      </trkpt>
      <trkpt lat="42.865101" lon="-0.330846">
        <ele>2035.508</ele>
        <time>2020-07-19T13:01:23Z</time>
      </trkpt>
      <trkpt lat="42.865137" lon="-0.330886">
        <ele>2034.797</ele>
        <time>2020-07-19T13:01:29Z</time>
      </trkpt>
      <trkpt lat="42.865186" lon="-0.330870">
        <ele>2033.875</ele>
        <time>2020-07-19T13:01:34Z</time>
      </trkpt>
      <trkpt lat="42.865228" lon="-0.330838">
        <ele>2033.558</ele>
        <time>2020-07-19T13:01:39Z</time>
      </trkpt>
      <trkpt lat="42.865268" lon="-0.330812">
        <ele>2033.995</ele>
        <time>2020-07-19T13:01:44Z</time>
      </trkpt>
      <trkpt lat="42.865323" lon="-0.330810">
        <ele>2034.237</ele>
        <time>2020-07-19T13:01:50Z</time>
      </trkpt>
      <trkpt lat="42.865373" lon="-0.330810">
        <ele>2033.777</ele>
        <time>2020-07-19T13:01:55Z</time>
      </trkpt>
      <trkpt lat="42.865428" lon="-0.330828">
        <ele>2035.479</ele>
        <time>2020-07-19T13:02:02Z</time>
      </trkpt>
      <trkpt lat="42.865480" lon="-0.330840">
        <ele>2035.755</ele>
        <time>2020-07-19T13:02:08Z</time>
      </trkpt>
      <trkpt lat="42.865525" lon="-0.330870">
        <ele>2037.414</ele>
        <time>2020-07-19T13:02:15Z</time>
      </trkpt>
      <trkpt lat="42.865574" lon="-0.330875">
        <ele>2038.354</ele>
        <time>2020-07-19T13:02:21Z</time>
      </trkpt>
      <trkpt lat="42.865619" lon="-0.330879">
        <ele>2035.509</ele>
        <time>2020-07-19T13:02:26Z</time>
      </trkpt>
      <trkpt lat="42.865665" lon="-0.330844">
        <ele>2039.108</ele>
        <time>2020-07-19T13:02:34Z</time>
      </trkpt>
      <trkpt lat="42.865674" lon="-0.330757">
        <ele>2037.526</ele>
        <time>2020-07-19T13:02:39Z</time>
      </trkpt>
      <trkpt lat="42.865713" lon="-0.330724">
        <ele>2038.034</ele>
        <time>2020-07-19T13:02:46Z</time>
      </trkpt>
      <trkpt lat="42.865750" lon="-0.330761">
        <ele>2038.197</ele>
        <time>2020-07-19T13:02:50Z</time>
      </trkpt>
      <trkpt lat="42.865794" lon="-0.330799">
        <ele>2037.674</ele>
        <time>2020-07-19T13:02:56Z</time>
      </trkpt>
      <trkpt lat="42.865825" lon="-0.330814">
        <ele>2037.576</ele>
        <time>2020-07-19T13:04:36Z</time>
      </trkpt>
      <trkpt lat="42.865839" lon="-0.330883">
        <ele>2036.486</ele>
        <time>2020-07-19T13:09:43Z</time>
      </trkpt>
      <trkpt lat="42.865880" lon="-0.330962">
        <ele>2037.038</ele>
        <time>2020-07-19T13:09:47Z</time>
      </trkpt>
      <trkpt lat="42.865918" lon="-0.331005">
        <ele>2036.964</ele>
        <time>2020-07-19T13:09:51Z</time>
      </trkpt>
      <trkpt lat="42.865974" lon="-0.331005">
        <ele>2036.389</ele>
        <time>2020-07-19T13:09:57Z</time>
      </trkpt>
      <trkpt lat="42.866023" lon="-0.330989">
        <ele>2036.806</ele>
        <time>2020-07-19T13:10:01Z</time>
      </trkpt>
      <trkpt lat="42.866070" lon="-0.330989">
        <ele>2036.826</ele>
        <time>2020-07-19T13:10:05Z</time>
      </trkpt>
      <trkpt lat="42.866109" lon="-0.330954">
        <ele>2036.408</ele>
        <time>2020-07-19T13:10:09Z</time>
      </trkpt>
      <trkpt lat="42.866151" lon="-0.330924">
        <ele>2036.963</ele>
        <time>2020-07-19T13:10:15Z</time>
      </trkpt>
      <trkpt lat="42.866204" lon="-0.330925">
        <ele>2036.241</ele>
        <time>2020-07-19T13:10:22Z</time>
      </trkpt>
      <trkpt lat="42.866250" lon="-0.330916">
        <ele>2034.674</ele>
        <time>2020-07-19T13:10:28Z</time>
      </trkpt>
      <trkpt lat="42.866295" lon="-0.330911">
        <ele>2035.161</ele>
        <time>2020-07-19T13:10:36Z</time>
      </trkpt>
      <trkpt lat="42.866346" lon="-0.330920">
        <ele>2034.243</ele>
        <time>2020-07-19T13:10:43Z</time>
      </trkpt>
      <trkpt lat="42.866388" lon="-0.330942">
        <ele>2033.343</ele>
        <time>2020-07-19T13:10:50Z</time>
      </trkpt>
      <trkpt lat="42.866432" lon="-0.330969">
        <ele>2033.355</ele>
        <time>2020-07-19T13:10:56Z</time>
      </trkpt>
      <trkpt lat="42.866481" lon="-0.330985">
        <ele>2032.421</ele>
        <time>2020-07-19T13:11:02Z</time>
      </trkpt>
      <trkpt lat="42.866540" lon="-0.330999">
        <ele>2032.067</ele>
        <time>2020-07-19T13:11:11Z</time>
      </trkpt>
      <trkpt lat="42.866590" lon="-0.330979">
        <ele>2032.281</ele>
        <time>2020-07-19T13:11:17Z</time>
      </trkpt>
      <trkpt lat="42.866638" lon="-0.330963">
        <ele>2033.019</ele>
        <time>2020-07-19T13:11:24Z</time>
      </trkpt>
      <trkpt lat="42.866685" lon="-0.330974">
        <ele>2033.908</ele>
        <time>2020-07-19T13:11:34Z</time>
      </trkpt>
      <trkpt lat="42.866728" lon="-0.330946">
        <ele>2030.241</ele>
        <time>2020-07-19T13:12:04Z</time>
      </trkpt>
      <trkpt lat="42.866778" lon="-0.330939">
        <ele>2030.289</ele>
        <time>2020-07-19T13:12:09Z</time>
      </trkpt>
      <trkpt lat="42.866823" lon="-0.330933">
        <ele>2030.812</ele>
        <time>2020-07-19T13:12:13Z</time>
      </trkpt>
      <trkpt lat="42.866864" lon="-0.330961">
        <ele>2030.289</ele>
        <time>2020-07-19T13:12:17Z</time>
      </trkpt>
      <trkpt lat="42.866892" lon="-0.331009">
        <ele>2030.861</ele>
        <time>2020-07-19T13:12:23Z</time>
      </trkpt>
      <trkpt lat="42.866936" lon="-0.331012">
        <ele>2029.231</ele>
        <time>2020-07-19T13:13:39Z</time>
      </trkpt>
      <trkpt lat="42.866988" lon="-0.331003">
        <ele>2029.473</ele>
        <time>2020-07-19T13:13:44Z</time>
      </trkpt>
      <trkpt lat="42.867030" lon="-0.330975">
        <ele>2029.729</ele>
        <time>2020-07-19T13:13:47Z</time>
      </trkpt>
      <trkpt lat="42.867073" lon="-0.330946">
        <ele>2029.685</ele>
        <time>2020-07-19T13:13:52Z</time>
      </trkpt>
      <trkpt lat="42.867121" lon="-0.330913">
        <ele>2028.189</ele>
        <time>2020-07-19T13:13:56Z</time>
      </trkpt>
      <trkpt lat="42.867177" lon="-0.330930">
        <ele>2029.517</ele>
        <time>2020-07-19T13:14:01Z</time>
      </trkpt>
      <trkpt lat="42.867222" lon="-0.330951">
        <ele>2028.108</ele>
        <time>2020-07-19T13:14:09Z</time>
      </trkpt>
      <trkpt lat="42.867246" lon="-0.331009">
        <ele>2026.153</ele>
        <time>2020-07-19T13:14:30Z</time>
      </trkpt>
      <trkpt lat="42.867282" lon="-0.331046">
        <ele>2024.721</ele>
        <time>2020-07-19T13:14:39Z</time>
      </trkpt>
      <trkpt lat="42.867325" lon="-0.331073">
        <ele>2022.874</ele>
        <time>2020-07-19T13:14:50Z</time>
      </trkpt>
      <trkpt lat="42.867364" lon="-0.331139">
        <ele>2021.411</ele>
        <time>2020-07-19T13:14:57Z</time>
      </trkpt>
      <trkpt lat="42.867318" lon="-0.331147">
        <ele>2019.093</ele>
        <time>2020-07-19T13:15:15Z</time>
      </trkpt>
      <trkpt lat="42.867270" lon="-0.331127">
        <ele>2017.863</ele>
        <time>2020-07-19T13:15:24Z</time>
      </trkpt>
      <trkpt lat="42.867219" lon="-0.331124">
        <ele>2016.595</ele>
        <time>2020-07-19T13:15:32Z</time>
      </trkpt>
      <trkpt lat="42.867224" lon="-0.331185">
        <ele>2015.871</ele>
        <time>2020-07-19T13:15:36Z</time>
      </trkpt>
      <trkpt lat="42.867269" lon="-0.331232">
        <ele>2013.613</ele>
        <time>2020-07-19T13:15:42Z</time>
      </trkpt>
      <trkpt lat="42.867321" lon="-0.331235">
        <ele>2014.643</ele>
        <time>2020-07-19T13:15:46Z</time>
      </trkpt>
      <trkpt lat="42.867373" lon="-0.331223">
        <ele>2013.807</ele>
        <time>2020-07-19T13:15:52Z</time>
      </trkpt>
      <trkpt lat="42.867418" lon="-0.331218">
        <ele>2013.008</ele>
        <time>2020-07-19T13:15:58Z</time>
      </trkpt>
      <trkpt lat="42.867471" lon="-0.331212">
        <ele>2011.556</ele>
        <time>2020-07-19T13:16:06Z</time>
      </trkpt>
      <trkpt lat="42.867519" lon="-0.331210">
        <ele>2010.884</ele>
        <time>2020-07-19T13:16:13Z</time>
      </trkpt>
      <trkpt lat="42.867565" lon="-0.331209">
        <ele>2010.417</ele>
        <time>2020-07-19T13:16:19Z</time>
      </trkpt>
      <trkpt lat="42.867612" lon="-0.331217">
        <ele>2008.924</ele>
        <time>2020-07-19T13:16:30Z</time>
      </trkpt>
      <trkpt lat="42.867655" lon="-0.331253">
        <ele>2007.846</ele>
        <time>2020-07-19T13:16:38Z</time>
      </trkpt>
      <trkpt lat="42.867698" lon="-0.331278">
        <ele>2006.456</ele>
        <time>2020-07-19T13:16:47Z</time>
      </trkpt>
      <trkpt lat="42.867743" lon="-0.331303">
        <ele>2004.758</ele>
        <time>2020-07-19T13:16:54Z</time>
      </trkpt>
      <trkpt lat="42.867794" lon="-0.331293">
        <ele>2004.234</ele>
        <time>2020-07-19T13:17:01Z</time>
      </trkpt>
      <trkpt lat="42.867844" lon="-0.331306">
        <ele>2002.939</ele>
        <time>2020-07-19T13:17:10Z</time>
      </trkpt>
      <trkpt lat="42.867899" lon="-0.331294">
        <ele>2002.701</ele>
        <time>2020-07-19T13:17:17Z</time>
      </trkpt>
      <trkpt lat="42.867945" lon="-0.331274">
        <ele>2001.421</ele>
        <time>2020-07-19T13:17:23Z</time>
      </trkpt>
      <trkpt lat="42.867998" lon="-0.331293">
        <ele>2000.608</ele>
        <time>2020-07-19T13:17:30Z</time>
      </trkpt>
      <trkpt lat="42.868042" lon="-0.331311">
        <ele>1999.118</ele>
        <time>2020-07-19T13:17:39Z</time>
      </trkpt>
      <trkpt lat="42.868089" lon="-0.331326">
        <ele>2001.646</ele>
        <time>2020-07-19T13:17:45Z</time>
      </trkpt>
      <trkpt lat="42.868134" lon="-0.331342">
        <ele>1999.819</ele>
        <time>2020-07-19T13:17:51Z</time>
      </trkpt>
      <trkpt lat="42.868183" lon="-0.331334">
        <ele>2000.586</ele>
        <time>2020-07-19T13:17:56Z</time>
      </trkpt>
      <trkpt lat="42.868232" lon="-0.331308">
        <ele>2000.538</ele>
        <time>2020-07-19T13:18:01Z</time>
      </trkpt>
      <trkpt lat="42.868281" lon="-0.331291">
        <ele>2001.438</ele>
        <time>2020-07-19T13:18:07Z</time>
      </trkpt>
      <trkpt lat="42.868331" lon="-0.331290">
        <ele>1999.970</ele>
        <time>2020-07-19T13:18:21Z</time>
      </trkpt>
      <trkpt lat="42.868376" lon="-0.331263">
        <ele>1999.456</ele>
        <time>2020-07-19T13:18:29Z</time>
      </trkpt>
      <trkpt lat="42.868419" lon="-0.331243">
        <ele>1998.991</ele>
        <time>2020-07-19T13:18:35Z</time>
      </trkpt>
      <trkpt lat="42.868464" lon="-0.331226">
        <ele>2000.281</ele>
        <time>2020-07-19T13:18:41Z</time>
      </trkpt>
      <trkpt lat="42.868511" lon="-0.331208">
        <ele>1999.319</ele>
        <time>2020-07-19T13:18:46Z</time>
      </trkpt>
      <trkpt lat="42.868565" lon="-0.331198">
        <ele>1999.908</ele>
        <time>2020-07-19T13:18:52Z</time>
      </trkpt>
      <trkpt lat="42.868607" lon="-0.331164">
        <ele>1999.254</ele>
        <time>2020-07-19T13:18:57Z</time>
      </trkpt>
      <trkpt lat="42.868665" lon="-0.331149">
        <ele>1999.872</ele>
        <time>2020-07-19T13:19:04Z</time>
      </trkpt>
      <trkpt lat="42.868710" lon="-0.331141">
        <ele>1999.595</ele>
        <time>2020-07-19T13:19:10Z</time>
      </trkpt>
      <trkpt lat="42.868762" lon="-0.331126">
        <ele>2000.912</ele>
        <time>2020-07-19T13:19:16Z</time>
      </trkpt>
      <trkpt lat="42.868803" lon="-0.331088">
        <ele>2000.584</ele>
        <time>2020-07-19T13:19:22Z</time>
      </trkpt>
      <trkpt lat="42.868831" lon="-0.331030">
        <ele>1999.944</ele>
        <time>2020-07-19T13:19:28Z</time>
      </trkpt>
      <trkpt lat="42.868859" lon="-0.330976">
        <ele>1999.156</ele>
        <time>2020-07-19T13:19:34Z</time>
      </trkpt>
      <trkpt lat="42.868896" lon="-0.330933">
        <ele>1998.262</ele>
        <time>2020-07-19T13:19:40Z</time>
      </trkpt>
      <trkpt lat="42.868935" lon="-0.330888">
        <ele>1996.872</ele>
        <time>2020-07-19T13:19:46Z</time>
      </trkpt>
      <trkpt lat="42.868970" lon="-0.330842">
        <ele>1999.013</ele>
        <time>2020-07-19T13:19:52Z</time>
      </trkpt>
      <trkpt lat="42.869014" lon="-0.330813">
        <ele>1997.914</ele>
        <time>2020-07-19T13:19:58Z</time>
      </trkpt>
      <trkpt lat="42.869060" lon="-0.330808">
        <ele>1998.008</ele>
        <time>2020-07-19T13:20:04Z</time>
      </trkpt>
      <trkpt lat="42.869108" lon="-0.330791">
        <ele>1998.852</ele>
        <time>2020-07-19T13:20:10Z</time>
      </trkpt>
      <trkpt lat="42.869155" lon="-0.330771">
        <ele>1997.430</ele>
        <time>2020-07-19T13:20:17Z</time>
      </trkpt>
      <trkpt lat="42.869197" lon="-0.330733">
        <ele>1998.453</ele>
        <time>2020-07-19T13:20:22Z</time>
      </trkpt>
      <trkpt lat="42.869238" lon="-0.330691">
        <ele>1997.610</ele>
        <time>2020-07-19T13:20:27Z</time>
      </trkpt>
      <trkpt lat="42.869281" lon="-0.330649">
        <ele>1997.782</ele>
        <time>2020-07-19T13:20:33Z</time>
      </trkpt>
      <trkpt lat="42.869312" lon="-0.330597">
        <ele>1997.332</ele>
        <time>2020-07-19T13:20:38Z</time>
      </trkpt>
      <trkpt lat="42.869346" lon="-0.330541">
        <ele>1995.784</ele>
        <time>2020-07-19T13:20:46Z</time>
      </trkpt>
      <trkpt lat="42.869361" lon="-0.330478">
        <ele>1994.070</ele>
        <time>2020-07-19T13:20:53Z</time>
      </trkpt>
      <trkpt lat="42.869409" lon="-0.330445">
        <ele>1992.797</ele>
        <time>2020-07-19T13:21:03Z</time>
      </trkpt>
      <trkpt lat="42.869443" lon="-0.330393">
        <ele>1991.923</ele>
        <time>2020-07-19T13:21:09Z</time>
      </trkpt>
      <trkpt lat="42.869461" lon="-0.330336">
        <ele>1990.225</ele>
        <time>2020-07-19T13:21:16Z</time>
      </trkpt>
      <trkpt lat="42.869483" lon="-0.330271">
        <ele>1989.408</ele>
        <time>2020-07-19T13:21:22Z</time>
      </trkpt>
      <trkpt lat="42.869501" lon="-0.330203">
        <ele>1987.354</ele>
        <time>2020-07-19T13:21:29Z</time>
      </trkpt>
      <trkpt lat="42.869535" lon="-0.330156">
        <ele>1990.522</ele>
        <time>2020-07-19T13:21:36Z</time>
      </trkpt>
      <trkpt lat="42.869572" lon="-0.330119">
        <ele>1992.165</ele>
        <time>2020-07-19T13:21:44Z</time>
      </trkpt>
      <trkpt lat="42.869604" lon="-0.330059">
        <ele>1991.882</ele>
        <time>2020-07-19T13:21:51Z</time>
      </trkpt>
      <trkpt lat="42.869640" lon="-0.330014">
        <ele>1993.744</ele>
        <time>2020-07-19T13:21:59Z</time>
      </trkpt>
      <trkpt lat="42.869687" lon="-0.329994">
        <ele>1994.894</ele>
        <time>2020-07-19T13:22:07Z</time>
      </trkpt>
      <trkpt lat="42.869727" lon="-0.329954">
        <ele>1994.736</ele>
        <time>2020-07-19T13:22:14Z</time>
      </trkpt>
      <trkpt lat="42.869761" lon="-0.329899">
        <ele>1995.012</ele>
        <time>2020-07-19T13:22:21Z</time>
      </trkpt>
      <trkpt lat="42.869782" lon="-0.329874">
        <ele>1995.494</ele>
        <time>2020-07-19T13:22:28Z</time>
      </trkpt>
      <trkpt lat="42.869771" lon="-0.329834">
        <ele>1996.757</ele>
        <time>2020-07-19T13:24:40Z</time>
      </trkpt>
      <trkpt lat="42.869795" lon="-0.329788">
        <ele>1998.422</ele>
        <time>2020-07-19T13:24:47Z</time>
      </trkpt>
      <trkpt lat="42.869836" lon="-0.329763">
        <ele>1998.708</ele>
        <time>2020-07-19T13:24:52Z</time>
      </trkpt>
      <trkpt lat="42.869895" lon="-0.329748">
        <ele>1997.484</ele>
        <time>2020-07-19T13:24:58Z</time>
      </trkpt>
      <trkpt lat="42.869941" lon="-0.329736">
        <ele>2000.582</ele>
        <time>2020-07-19T13:25:03Z</time>
      </trkpt>
      <trkpt lat="42.869989" lon="-0.329737">
        <ele>1999.785</ele>
        <time>2020-07-19T13:25:12Z</time>
      </trkpt>
      <trkpt lat="42.870035" lon="-0.329734">
        <ele>1997.762</ele>
        <time>2020-07-19T13:25:20Z</time>
      </trkpt>
      <trkpt lat="42.870080" lon="-0.329700">
        <ele>2002.244</ele>
        <time>2020-07-19T13:25:28Z</time>
      </trkpt>
      <trkpt lat="42.870128" lon="-0.329658">
        <ele>2002.224</ele>
        <time>2020-07-19T13:25:35Z</time>
      </trkpt>
      <trkpt lat="42.870178" lon="-0.329632">
        <ele>2002.396</ele>
        <time>2020-07-19T13:25:42Z</time>
      </trkpt>
      <trkpt lat="42.870231" lon="-0.329614">
        <ele>2002.862</ele>
        <time>2020-07-19T13:25:49Z</time>
      </trkpt>
      <trkpt lat="42.870277" lon="-0.329580">
        <ele>2001.758</ele>
        <time>2020-07-19T13:25:55Z</time>
      </trkpt>
      <trkpt lat="42.870329" lon="-0.329553">
        <ele>2001.652</ele>
        <time>2020-07-19T13:26:02Z</time>
      </trkpt>
      <trkpt lat="42.870380" lon="-0.329541">
        <ele>2002.317</ele>
        <time>2020-07-19T13:26:07Z</time>
      </trkpt>
      <trkpt lat="42.870430" lon="-0.329524">
        <ele>2001.608</ele>
        <time>2020-07-19T13:26:13Z</time>
      </trkpt>
      <trkpt lat="42.870482" lon="-0.329497">
        <ele>2002.450</ele>
        <time>2020-07-19T13:26:19Z</time>
      </trkpt>
      <trkpt lat="42.870539" lon="-0.329472">
        <ele>2001.968</ele>
        <time>2020-07-19T13:26:26Z</time>
      </trkpt>
      <trkpt lat="42.870584" lon="-0.329457">
        <ele>2001.911</ele>
        <time>2020-07-19T13:26:31Z</time>
      </trkpt>
      <trkpt lat="42.870631" lon="-0.329462">
        <ele>2001.048</ele>
        <time>2020-07-19T13:26:38Z</time>
      </trkpt>
      <trkpt lat="42.870677" lon="-0.329453">
        <ele>2001.290</ele>
        <time>2020-07-19T13:26:44Z</time>
      </trkpt>
      <trkpt lat="42.870719" lon="-0.329427">
        <ele>2001.930</ele>
        <time>2020-07-19T13:26:50Z</time>
      </trkpt>
      <trkpt lat="42.870765" lon="-0.329409">
        <ele>2001.252</ele>
        <time>2020-07-19T13:26:58Z</time>
      </trkpt>
      <trkpt lat="42.870813" lon="-0.329397">
        <ele>2001.828</ele>
        <time>2020-07-19T13:27:04Z</time>
      </trkpt>
      <trkpt lat="42.870868" lon="-0.329400">
        <ele>2002.995</ele>
        <time>2020-07-19T13:27:12Z</time>
      </trkpt>
      <trkpt lat="42.870922" lon="-0.329391">
        <ele>2003.049</ele>
        <time>2020-07-19T13:27:19Z</time>
      </trkpt>
      <trkpt lat="42.870967" lon="-0.329361">
        <ele>2003.423</ele>
        <time>2020-07-19T13:27:24Z</time>
      </trkpt>
      <trkpt lat="42.871012" lon="-0.329346">
        <ele>2004.008</ele>
        <time>2020-07-19T13:27:30Z</time>
      </trkpt>
      <trkpt lat="42.871064" lon="-0.329330">
        <ele>2002.884</ele>
        <time>2020-07-19T13:27:35Z</time>
      </trkpt>
      <trkpt lat="42.871110" lon="-0.329304">
        <ele>2003.242</ele>
        <time>2020-07-19T13:27:41Z</time>
      </trkpt>
      <trkpt lat="42.871159" lon="-0.329280">
        <ele>2003.855</ele>
        <time>2020-07-19T13:27:47Z</time>
      </trkpt>
      <trkpt lat="42.871212" lon="-0.329265">
        <ele>2003.182</ele>
        <time>2020-07-19T13:27:53Z</time>
      </trkpt>
      <trkpt lat="42.871263" lon="-0.329267">
        <ele>2001.784</ele>
        <time>2020-07-19T13:27:59Z</time>
      </trkpt>
      <trkpt lat="42.871308" lon="-0.329263">
        <ele>2002.014</ele>
        <time>2020-07-19T13:28:04Z</time>
      </trkpt>
      <trkpt lat="42.871359" lon="-0.329266">
        <ele>2001.976</ele>
        <time>2020-07-19T13:28:11Z</time>
      </trkpt>
      <trkpt lat="42.871407" lon="-0.329286">
        <ele>2002.262</ele>
        <time>2020-07-19T13:28:18Z</time>
      </trkpt>
      <trkpt lat="42.871457" lon="-0.329290">
        <ele>2002.066</ele>
        <time>2020-07-19T13:28:24Z</time>
      </trkpt>
      <trkpt lat="42.871507" lon="-0.329302">
        <ele>2002.029</ele>
        <time>2020-07-19T13:28:29Z</time>
      </trkpt>
      <trkpt lat="42.871556" lon="-0.329309">
        <ele>2001.221</ele>
        <time>2020-07-19T13:28:34Z</time>
      </trkpt>
      <trkpt lat="42.871610" lon="-0.329314">
        <ele>2000.908</ele>
        <time>2020-07-19T13:28:41Z</time>
      </trkpt>
      <trkpt lat="42.871654" lon="-0.329330">
        <ele>2000.631</ele>
        <time>2020-07-19T13:28:46Z</time>
      </trkpt>
      <trkpt lat="42.871693" lon="-0.329368">
        <ele>2001.179</ele>
        <time>2020-07-19T13:28:51Z</time>
      </trkpt>
      <trkpt lat="42.871739" lon="-0.329388">
        <ele>2000.462</ele>
        <time>2020-07-19T13:28:59Z</time>
      </trkpt>
      <trkpt lat="42.871794" lon="-0.329382">
        <ele>2000.279</ele>
        <time>2020-07-19T13:29:06Z</time>
      </trkpt>
      <trkpt lat="42.871843" lon="-0.329408">
        <ele>2000.381</ele>
        <time>2020-07-19T13:29:13Z</time>
      </trkpt>
      <trkpt lat="42.871893" lon="-0.329426">
        <ele>2002.211</ele>
        <time>2020-07-19T13:29:20Z</time>
      </trkpt>
      <trkpt lat="42.871942" lon="-0.329451">
        <ele>2002.143</ele>
        <time>2020-07-19T13:29:29Z</time>
      </trkpt>
      <trkpt lat="42.871989" lon="-0.329458">
        <ele>2001.739</ele>
        <time>2020-07-19T13:29:35Z</time>
      </trkpt>
      <trkpt lat="42.872039" lon="-0.329469">
        <ele>2004.242</ele>
        <time>2020-07-19T13:29:42Z</time>
      </trkpt>
      <trkpt lat="42.872086" lon="-0.329488">
        <ele>2003.422</ele>
        <time>2020-07-19T13:30:07Z</time>
      </trkpt>
      <trkpt lat="42.872129" lon="-0.329462">
        <ele>2002.814</ele>
        <time>2020-07-19T13:30:20Z</time>
      </trkpt>
      <trkpt lat="42.872177" lon="-0.329434">
        <ele>2002.408</ele>
        <time>2020-07-19T13:30:27Z</time>
      </trkpt>
      <trkpt lat="42.872223" lon="-0.329443">
        <ele>2002.989</ele>
        <time>2020-07-19T13:30:32Z</time>
      </trkpt>
      <trkpt lat="42.872268" lon="-0.329462">
        <ele>2001.097</ele>
        <time>2020-07-19T13:30:38Z</time>
      </trkpt>
      <trkpt lat="42.872315" lon="-0.329489">
        <ele>2000.310</ele>
        <time>2020-07-19T13:30:43Z</time>
      </trkpt>
      <trkpt lat="42.872364" lon="-0.329509">
        <ele>2000.067</ele>
        <time>2020-07-19T13:30:52Z</time>
      </trkpt>
      <trkpt lat="42.872404" lon="-0.329541">
        <ele>1998.799</ele>
        <time>2020-07-19T13:30:59Z</time>
      </trkpt>
      <trkpt lat="42.872457" lon="-0.329567">
        <ele>1998.419</ele>
        <time>2020-07-19T13:31:05Z</time>
      </trkpt>
      <trkpt lat="42.872504" lon="-0.329561">
        <ele>1999.011</ele>
        <time>2020-07-19T13:31:09Z</time>
      </trkpt>
      <trkpt lat="42.872546" lon="-0.329589">
        <ele>1997.717</ele>
        <time>2020-07-19T13:31:19Z</time>
      </trkpt>
      <trkpt lat="42.872588" lon="-0.329615">
        <ele>1998.299</ele>
        <time>2020-07-19T13:31:27Z</time>
      </trkpt>
      <trkpt lat="42.872645" lon="-0.329630">
        <ele>1998.207</ele>
        <time>2020-07-19T13:31:33Z</time>
      </trkpt>
      <trkpt lat="42.872695" lon="-0.329663">
        <ele>1997.227</ele>
        <time>2020-07-19T13:31:39Z</time>
      </trkpt>
      <trkpt lat="42.872739" lon="-0.329693">
        <ele>1996.508</ele>
        <time>2020-07-19T13:31:46Z</time>
      </trkpt>
      <trkpt lat="42.872791" lon="-0.329712">
        <ele>1996.264</ele>
        <time>2020-07-19T13:32:11Z</time>
      </trkpt>
      <trkpt lat="42.872844" lon="-0.329724">
        <ele>1994.932</ele>
        <time>2020-07-19T13:32:19Z</time>
      </trkpt>
      <trkpt lat="42.872881" lon="-0.329760">
        <ele>1993.915</ele>
        <time>2020-07-19T13:32:25Z</time>
      </trkpt>
      <trkpt lat="42.872913" lon="-0.329805">
        <ele>1992.582</ele>
        <time>2020-07-19T13:32:34Z</time>
      </trkpt>
      <trkpt lat="42.872972" lon="-0.329816">
        <ele>1990.924</ele>
        <time>2020-07-19T13:32:42Z</time>
      </trkpt>
      <trkpt lat="42.873017" lon="-0.329809">
        <ele>1991.124</ele>
        <time>2020-07-19T13:32:47Z</time>
      </trkpt>
      <trkpt lat="42.873063" lon="-0.329795">
        <ele>1991.426</ele>
        <time>2020-07-19T13:32:53Z</time>
      </trkpt>
      <trkpt lat="42.873111" lon="-0.329775">
        <ele>1992.632</ele>
        <time>2020-07-19T13:32:58Z</time>
      </trkpt>
      <trkpt lat="42.873163" lon="-0.329776">
        <ele>1994.287</ele>
        <time>2020-07-19T13:33:05Z</time>
      </trkpt>
      <trkpt lat="42.873204" lon="-0.329811">
        <ele>1994.142</ele>
        <time>2020-07-19T13:33:11Z</time>
      </trkpt>
      <trkpt lat="42.873255" lon="-0.329830">
        <ele>1994.626</ele>
        <time>2020-07-19T13:33:16Z</time>
      </trkpt>
      <trkpt lat="42.873302" lon="-0.329836">
        <ele>1993.008</ele>
        <time>2020-07-19T13:33:23Z</time>
      </trkpt>
      <trkpt lat="42.873357" lon="-0.329847">
        <ele>1994.523</ele>
        <time>2020-07-19T13:33:30Z</time>
      </trkpt>
      <trkpt lat="42.873401" lon="-0.329857">
        <ele>1995.751</ele>
        <time>2020-07-19T13:33:34Z</time>
      </trkpt>
      <trkpt lat="42.873448" lon="-0.329843">
        <ele>1995.464</ele>
        <time>2020-07-19T13:33:41Z</time>
      </trkpt>
      <trkpt lat="42.873500" lon="-0.329833">
        <ele>1994.081</ele>
        <time>2020-07-19T13:33:49Z</time>
      </trkpt>
      <trkpt lat="42.873548" lon="-0.329833">
        <ele>1994.743</ele>
        <time>2020-07-19T13:33:54Z</time>
      </trkpt>
      <trkpt lat="42.873602" lon="-0.329828">
        <ele>1992.023</ele>
        <time>2020-07-19T13:34:01Z</time>
      </trkpt>
      <trkpt lat="42.873647" lon="-0.329784">
        <ele>1995.155</ele>
        <time>2020-07-19T13:34:08Z</time>
      </trkpt>
      <trkpt lat="42.873676" lon="-0.329730">
        <ele>1994.541</ele>
        <time>2020-07-19T13:34:14Z</time>
      </trkpt>
      <trkpt lat="42.873705" lon="-0.329668">
        <ele>1996.518</ele>
        <time>2020-07-19T13:34:18Z</time>
      </trkpt>
      <trkpt lat="42.873738" lon="-0.329615">
        <ele>1996.198</ele>
        <time>2020-07-19T13:34:25Z</time>
      </trkpt>
      <trkpt lat="42.873759" lon="-0.329553">
        <ele>1996.517</ele>
        <time>2020-07-19T13:34:51Z</time>
      </trkpt>
      <trkpt lat="42.873771" lon="-0.329490">
        <ele>1996.808</ele>
        <time>2020-07-19T13:34:58Z</time>
      </trkpt>
      <trkpt lat="42.873818" lon="-0.329433">
        <ele>1996.786</ele>
        <time>2020-07-19T13:35:03Z</time>
      </trkpt>
      <trkpt lat="42.873859" lon="-0.329396">
        <ele>1996.764</ele>
        <time>2020-07-19T13:35:08Z</time>
      </trkpt>
      <trkpt lat="42.873911" lon="-0.329364">
        <ele>1997.457</ele>
        <time>2020-07-19T13:35:13Z</time>
      </trkpt>
      <trkpt lat="42.873958" lon="-0.329337">
        <ele>1997.274</ele>
        <time>2020-07-19T13:35:18Z</time>
      </trkpt>
      <trkpt lat="42.874004" lon="-0.329304">
        <ele>1998.196</ele>
        <time>2020-07-19T13:35:24Z</time>
      </trkpt>
      <trkpt lat="42.874048" lon="-0.329286">
        <ele>1996.516</ele>
        <time>2020-07-19T13:35:42Z</time>
      </trkpt>
      <trkpt lat="42.874092" lon="-0.329249">
        <ele>1995.148</ele>
        <time>2020-07-19T13:35:49Z</time>
      </trkpt>
      <trkpt lat="42.874111" lon="-0.329185">
        <ele>1994.424</ele>
        <time>2020-07-19T13:35:56Z</time>
      </trkpt>
      <trkpt lat="42.874139" lon="-0.329126">
        <ele>1994.427</ele>
        <time>2020-07-19T13:36:04Z</time>
      </trkpt>
      <trkpt lat="42.874185" lon="-0.329091">
        <ele>1994.368</ele>
        <time>2020-07-19T13:36:11Z</time>
      </trkpt>
      <trkpt lat="42.874216" lon="-0.329037">
        <ele>1993.414</ele>
        <time>2020-07-19T13:36:46Z</time>
      </trkpt>
      <trkpt lat="42.874248" lon="-0.328979">
        <ele>1992.208</ele>
        <time>2020-07-19T13:37:45Z</time>
      </trkpt>
      <trkpt lat="42.874265" lon="-0.328910">
        <ele>1991.897</ele>
        <time>2020-07-19T13:37:50Z</time>
      </trkpt>
      <trkpt lat="42.874284" lon="-0.328844">
        <ele>1992.085</ele>
        <time>2020-07-19T13:37:55Z</time>
      </trkpt>
      <trkpt lat="42.874302" lon="-0.328787">
        <ele>1995.248</ele>
        <time>2020-07-19T13:38:00Z</time>
      </trkpt>
      <trkpt lat="42.874329" lon="-0.328736">
        <ele>1996.515</ele>
        <time>2020-07-19T13:38:04Z</time>
      </trkpt>
      <trkpt lat="42.874364" lon="-0.328683">
        <ele>1996.597</ele>
        <time>2020-07-19T13:38:10Z</time>
      </trkpt>
      <trkpt lat="42.874380" lon="-0.328617">
        <ele>1997.047</ele>
        <time>2020-07-19T13:38:24Z</time>
      </trkpt>
      <trkpt lat="42.874392" lon="-0.328550">
        <ele>1995.979</ele>
        <time>2020-07-19T13:38:29Z</time>
      </trkpt>
      <trkpt lat="42.874391" lon="-0.328487">
        <ele>1997.435</ele>
        <time>2020-07-19T13:38:39Z</time>
      </trkpt>
      <trkpt lat="42.874428" lon="-0.328424">
        <ele>2000.797</ele>
        <time>2020-07-19T13:38:46Z</time>
      </trkpt>
      <trkpt lat="42.874455" lon="-0.328371">
        <ele>2001.223</ele>
        <time>2020-07-19T13:38:51Z</time>
      </trkpt>
      <trkpt lat="42.874502" lon="-0.328341">
        <ele>1998.925</ele>
        <time>2020-07-19T13:39:03Z</time>
      </trkpt>
      <trkpt lat="42.874534" lon="-0.328288">
        <ele>2005.008</ele>
        <time>2020-07-19T13:39:13Z</time>
      </trkpt>
      <trkpt lat="42.874482" lon="-0.328279">
        <ele>2001.164</ele>
        <time>2020-07-19T13:39:24Z</time>
      </trkpt>
      <trkpt lat="42.874434" lon="-0.328257">
        <ele>2000.732</ele>
        <time>2020-07-19T13:39:31Z</time>
      </trkpt>
      <trkpt lat="42.874507" lon="-0.328233">
        <ele>2008.025</ele>
        <time>2020-07-19T13:39:46Z</time>
      </trkpt>
      <trkpt lat="42.874466" lon="-0.328188">
        <ele>2012.312</ele>
        <time>2020-07-19T13:40:58Z</time>
      </trkpt>
      <trkpt lat="42.874406" lon="-0.328185">
        <ele>2013.064</ele>
        <time>2020-07-19T13:41:07Z</time>
      </trkpt>
      <trkpt lat="42.874364" lon="-0.328163">
        <ele>2010.544</ele>
        <time>2020-07-19T13:41:17Z</time>
      </trkpt>
      <trkpt lat="42.874408" lon="-0.328135">
        <ele>2011.016</ele>
        <time>2020-07-19T13:41:42Z</time>
      </trkpt>
      <trkpt lat="42.874453" lon="-0.328116">
        <ele>2020.592</ele>
        <time>2020-07-19T13:43:07Z</time>
      </trkpt>
      <trkpt lat="42.874493" lon="-0.328086">
        <ele>2021.215</ele>
        <time>2020-07-19T13:43:18Z</time>
      </trkpt>
      <trkpt lat="42.874516" lon="-0.328027">
        <ele>2024.465</ele>
        <time>2020-07-19T13:43:27Z</time>
      </trkpt>
      <trkpt lat="42.874552" lon="-0.327961">
        <ele>2025.111</ele>
        <time>2020-07-19T13:43:33Z</time>
      </trkpt>
      <trkpt lat="42.874586" lon="-0.327907">
        <ele>2027.708</ele>
        <time>2020-07-19T13:43:40Z</time>
      </trkpt>
      <trkpt lat="42.874616" lon="-0.327858">
        <ele>2026.546</ele>
        <time>2020-07-19T13:43:47Z</time>
      </trkpt>
      <trkpt lat="42.874650" lon="-0.327813">
        <ele>2023.924</ele>
        <time>2020-07-19T13:43:58Z</time>
      </trkpt>
      <trkpt lat="42.874606" lon="-0.327794">
        <ele>2031.587</ele>
        <time>2020-07-19T13:44:11Z</time>
      </trkpt>
      <trkpt lat="42.874562" lon="-0.327758">
        <ele>2031.884</ele>
        <time>2020-07-19T13:44:23Z</time>
      </trkpt>
      <trkpt lat="42.874572" lon="-0.327698">
        <ele>2029.396</ele>
        <time>2020-07-19T13:44:31Z</time>
      </trkpt>
      <trkpt lat="42.874576" lon="-0.327633">
        <ele>2036.266</ele>
        <time>2020-07-19T13:45:53Z</time>
      </trkpt>
      <trkpt lat="42.874596" lon="-0.327572">
        <ele>2038.088</ele>
        <time>2020-07-19T13:45:59Z</time>
      </trkpt>
      <trkpt lat="42.874637" lon="-0.327528">
        <ele>2034.584</ele>
        <time>2020-07-19T13:46:06Z</time>
      </trkpt>
      <trkpt lat="42.874671" lon="-0.327476">
        <ele>2037.465</ele>
        <time>2020-07-19T13:46:13Z</time>
      </trkpt>
      <trkpt lat="42.874690" lon="-0.327405">
        <ele>2039.568</ele>
        <time>2020-07-19T13:46:21Z</time>
      </trkpt>
      <trkpt lat="42.874699" lon="-0.327332">
        <ele>2041.514</ele>
        <time>2020-07-19T13:46:29Z</time>
      </trkpt>
      <trkpt lat="42.874714" lon="-0.327269">
        <ele>2042.208</ele>
        <time>2020-07-19T13:46:39Z</time>
      </trkpt>
      <trkpt lat="42.874723" lon="-0.327211">
        <ele>2042.531</ele>
        <time>2020-07-19T13:46:50Z</time>
      </trkpt>
      <trkpt lat="42.874753" lon="-0.327182">
        <ele>2042.929</ele>
        <time>2020-07-19T13:48:36Z</time>
      </trkpt>
      <trkpt lat="42.874781" lon="-0.327132">
        <ele>2045.112</ele>
        <time>2020-07-19T13:48:45Z</time>
      </trkpt>
      <trkpt lat="42.874809" lon="-0.327079">
        <ele>2042.599</ele>
        <time>2020-07-19T13:48:50Z</time>
      </trkpt>
      <trkpt lat="42.874827" lon="-0.327022">
        <ele>2044.891</ele>
        <time>2020-07-19T13:48:55Z</time>
      </trkpt>
      <trkpt lat="42.874845" lon="-0.326959">
        <ele>2048.581</ele>
        <time>2020-07-19T13:48:59Z</time>
      </trkpt>
      <trkpt lat="42.874868" lon="-0.326893">
        <ele>2050.193</ele>
        <time>2020-07-19T13:49:09Z</time>
      </trkpt>
      <trkpt lat="42.874885" lon="-0.326831">
        <ele>2052.759</ele>
        <time>2020-07-19T13:49:20Z</time>
      </trkpt>
      <trkpt lat="42.874930" lon="-0.326793">
        <ele>2050.363</ele>
        <time>2020-07-19T13:49:26Z</time>
      </trkpt>
      <trkpt lat="42.874972" lon="-0.326767">
        <ele>2053.744</ele>
        <time>2020-07-19T13:49:32Z</time>
      </trkpt>
      <trkpt lat="42.874992" lon="-0.326705">
        <ele>2053.018</ele>
        <time>2020-07-19T13:49:41Z</time>
      </trkpt>
      <trkpt lat="42.875010" lon="-0.326645">
        <ele>2056.708</ele>
        <time>2020-07-19T13:49:52Z</time>
      </trkpt>
      <trkpt lat="42.875050" lon="-0.326600">
        <ele>2056.761</ele>
        <time>2020-07-19T13:49:59Z</time>
      </trkpt>
      <trkpt lat="42.875061" lon="-0.326531">
        <ele>2057.229</ele>
        <time>2020-07-19T13:52:38Z</time>
      </trkpt>
      <trkpt lat="42.875074" lon="-0.326453">
        <ele>2057.812</ele>
        <time>2020-07-19T13:52:44Z</time>
      </trkpt>
      <trkpt lat="42.875095" lon="-0.326388">
        <ele>2058.889</ele>
        <time>2020-07-19T13:52:49Z</time>
      </trkpt>
      <trkpt lat="42.875112" lon="-0.326326">
        <ele>2057.541</ele>
        <time>2020-07-19T13:52:54Z</time>
      </trkpt>
      <trkpt lat="42.875134" lon="-0.326268">
        <ele>2059.061</ele>
        <time>2020-07-19T13:52:59Z</time>
      </trkpt>
      <trkpt lat="42.875173" lon="-0.326227">
        <ele>2056.223</ele>
        <time>2020-07-19T13:53:06Z</time>
      </trkpt>
      <trkpt lat="42.875199" lon="-0.326170">
        <ele>2063.089</ele>
        <time>2020-07-19T13:53:17Z</time>
      </trkpt>
      <trkpt lat="42.875234" lon="-0.326137">
        <ele>2064.877</ele>
        <time>2020-07-19T13:53:28Z</time>
      </trkpt>
      <trkpt lat="42.875275" lon="-0.326124">
        <ele>2067.061</ele>
        <time>2020-07-19T13:53:38Z</time>
      </trkpt>
      <trkpt lat="42.875264" lon="-0.326056">
        <ele>2068.327</ele>
        <time>2020-07-19T13:53:51Z</time>
      </trkpt>
      <trkpt lat="42.875205" lon="-0.326072">
        <ele>2068.008</ele>
        <time>2020-07-19T13:53:57Z</time>
      </trkpt>
      <trkpt lat="42.875162" lon="-0.326116">
        <ele>2068.262</ele>
        <time>2020-07-19T13:54:01Z</time>
      </trkpt>
      <trkpt lat="42.875128" lon="-0.326158">
        <ele>2068.050</ele>
        <time>2020-07-19T13:54:05Z</time>
      </trkpt>
      <trkpt lat="42.875088" lon="-0.326197">
        <ele>2068.833</ele>
        <time>2020-07-19T13:54:12Z</time>
      </trkpt>
      <trkpt lat="42.875040" lon="-0.326212">
        <ele>2069.440</ele>
        <time>2020-07-19T13:54:19Z</time>
      </trkpt>
      <trkpt lat="42.874985" lon="-0.326215">
        <ele>2065.292</ele>
        <time>2020-07-19T13:54:26Z</time>
      </trkpt>
      <trkpt lat="42.874992" lon="-0.326143">
        <ele>2072.522</ele>
        <time>2020-07-19T13:54:35Z</time>
      </trkpt>
      <trkpt lat="42.875007" lon="-0.326082">
        <ele>2073.414</ele>
        <time>2020-07-19T13:54:41Z</time>
      </trkpt>
      <trkpt lat="42.875046" lon="-0.326039">
        <ele>2073.280</ele>
        <time>2020-07-19T13:54:47Z</time>
      </trkpt>
      <trkpt lat="42.875097" lon="-0.326029">
        <ele>2071.532</ele>
        <time>2020-07-19T13:54:54Z</time>
      </trkpt>
      <trkpt lat="42.875142" lon="-0.326037">
        <ele>2074.092</ele>
        <time>2020-07-19T13:55:02Z</time>
      </trkpt>
      <trkpt lat="42.875119" lon="-0.325986">
        <ele>2074.711</ele>
        <time>2020-07-19T13:55:47Z</time>
      </trkpt>
      <trkpt lat="42.875096" lon="-0.325930">
        <ele>2078.408</ele>
        <time>2020-07-19T13:56:51Z</time>
      </trkpt>
      <trkpt lat="42.875130" lon="-0.325875">
        <ele>2076.538</ele>
        <time>2020-07-19T13:57:00Z</time>
      </trkpt>
      <trkpt lat="42.875158" lon="-0.325825">
        <ele>2079.066</ele>
        <time>2020-07-19T13:57:07Z</time>
      </trkpt>
      <trkpt lat="42.875202" lon="-0.325782">
        <ele>2079.289</ele>
        <time>2020-07-19T13:57:15Z</time>
      </trkpt>
      <trkpt lat="42.875229" lon="-0.325714">
        <ele>2080.996</ele>
        <time>2020-07-19T13:57:22Z</time>
      </trkpt>
      <trkpt lat="42.875253" lon="-0.325649">
        <ele>2083.468</ele>
        <time>2020-07-19T13:57:48Z</time>
      </trkpt>
      <trkpt lat="42.875276" lon="-0.325589">
        <ele>2084.168</ele>
        <time>2020-07-19T13:57:54Z</time>
      </trkpt>
      <trkpt lat="42.875293" lon="-0.325520">
        <ele>2084.860</ele>
        <time>2020-07-19T13:58:00Z</time>
      </trkpt>
      <trkpt lat="42.875333" lon="-0.325464">
        <ele>2082.246</ele>
        <time>2020-07-19T13:58:07Z</time>
      </trkpt>
      <trkpt lat="42.875372" lon="-0.325415">
        <ele>2084.657</ele>
        <time>2020-07-19T13:58:13Z</time>
      </trkpt>
      <trkpt lat="42.875423" lon="-0.325385">
        <ele>2085.900</ele>
        <time>2020-07-19T13:58:22Z</time>
      </trkpt>
      <trkpt lat="42.875459" lon="-0.325342">
        <ele>2086.120</ele>
        <time>2020-07-19T13:58:31Z</time>
      </trkpt>
      <trkpt lat="42.875506" lon="-0.325346">
        <ele>2086.808</ele>
        <time>2020-07-19T13:58:38Z</time>
      </trkpt>
      <trkpt lat="42.875547" lon="-0.325375">
        <ele>2088.810</ele>
        <time>2020-07-19T13:58:47Z</time>
      </trkpt>
      <trkpt lat="42.875556" lon="-0.325453">
        <ele>2087.348</ele>
        <time>2020-07-19T13:58:55Z</time>
      </trkpt>
      <trkpt lat="42.875600" lon="-0.325420">
        <ele>2091.771</ele>
        <time>2020-07-19T13:59:01Z</time>
      </trkpt>
      <trkpt lat="42.875636" lon="-0.325382">
        <ele>2087.288</ele>
        <time>2020-07-19T13:59:06Z</time>
      </trkpt>
      <trkpt lat="42.875670" lon="-0.325332">
        <ele>2093.730</ele>
        <time>2020-07-19T13:59:12Z</time>
      </trkpt>
      <trkpt lat="42.875711" lon="-0.325286">
        <ele>2094.090</ele>
        <time>2020-07-19T13:59:22Z</time>
      </trkpt>
      <trkpt lat="42.875747" lon="-0.325246">
        <ele>2095.212</ele>
        <time>2020-07-19T13:59:30Z</time>
      </trkpt>
      <trkpt lat="42.875796" lon="-0.325231">
        <ele>2093.348</ele>
        <time>2020-07-19T13:59:39Z</time>
      </trkpt>
      <trkpt lat="42.875841" lon="-0.325233">
        <ele>2094.225</ele>
        <time>2020-07-19T13:59:44Z</time>
      </trkpt>
      <trkpt lat="42.875894" lon="-0.325258">
        <ele>2094.826</ele>
        <time>2020-07-19T13:59:50Z</time>
      </trkpt>
      <trkpt lat="42.875942" lon="-0.325259">
        <ele>2097.408</ele>
        <time>2020-07-19T13:59:58Z</time>
      </trkpt>
      <trkpt lat="42.875998" lon="-0.325263">
        <ele>2097.408</ele>
        <time>2020-07-19T14:00:07Z</time>
      </trkpt>
      <trkpt lat="42.876041" lon="-0.325281">
        <ele>2095.667</ele>
        <time>2020-07-19T14:00:12Z</time>
      </trkpt>
      <trkpt lat="42.876089" lon="-0.325299">
        <ele>2097.695</ele>
        <time>2020-07-19T14:00:18Z</time>
      </trkpt>
      <trkpt lat="42.876135" lon="-0.325295">
        <ele>2098.778</ele>
        <time>2020-07-19T14:00:25Z</time>
      </trkpt>
      <trkpt lat="42.876186" lon="-0.325266">
        <ele>2097.465</ele>
        <time>2020-07-19T14:00:32Z</time>
      </trkpt>
      <trkpt lat="42.876237" lon="-0.325268">
        <ele>2099.077</ele>
        <time>2020-07-19T14:00:39Z</time>
      </trkpt>
      <trkpt lat="42.876282" lon="-0.325244">
        <ele>2096.927</ele>
        <time>2020-07-19T14:00:46Z</time>
      </trkpt>
      <trkpt lat="42.876331" lon="-0.325231">
        <ele>2098.099</ele>
        <time>2020-07-19T14:00:51Z</time>
      </trkpt>
      <trkpt lat="42.876376" lon="-0.325180">
        <ele>2099.695</ele>
        <time>2020-07-19T14:00:58Z</time>
      </trkpt>
      <trkpt lat="42.876412" lon="-0.325118">
        <ele>2100.698</ele>
        <time>2020-07-19T14:01:04Z</time>
      </trkpt>
      <trkpt lat="42.876427" lon="-0.325046">
        <ele>2101.115</ele>
        <time>2020-07-19T14:01:11Z</time>
      </trkpt>
      <trkpt lat="42.876429" lon="-0.324981">
        <ele>2098.726</ele>
        <time>2020-07-19T14:01:19Z</time>
      </trkpt>
      <trkpt lat="42.876411" lon="-0.324911">
        <ele>2104.108</ele>
        <time>2020-07-19T14:01:29Z</time>
      </trkpt>
      <trkpt lat="42.876425" lon="-0.324846">
        <ele>2102.834</ele>
        <time>2020-07-19T14:01:36Z</time>
      </trkpt>
      <trkpt lat="42.876394" lon="-0.324795">
        <ele>2104.842</ele>
        <time>2020-07-19T14:01:44Z</time>
      </trkpt>
      <trkpt lat="42.876371" lon="-0.324737">
        <ele>2105.615</ele>
        <time>2020-07-19T14:01:53Z</time>
      </trkpt>
      <trkpt lat="42.876335" lon="-0.324697">
        <ele>2106.562</ele>
        <time>2020-07-19T14:03:18Z</time>
      </trkpt>
      <trkpt lat="42.876320" lon="-0.324633">
        <ele>2109.074</ele>
        <time>2020-07-19T14:03:24Z</time>
      </trkpt>
      <trkpt lat="42.876315" lon="-0.324571">
        <ele>2109.034</ele>
        <time>2020-07-19T14:03:30Z</time>
      </trkpt>
      <trkpt lat="42.876326" lon="-0.324506">
        <ele>2111.266</ele>
        <time>2020-07-19T14:03:35Z</time>
      </trkpt>
      <trkpt lat="42.876343" lon="-0.324444">
        <ele>2111.752</ele>
        <time>2020-07-19T14:03:44Z</time>
      </trkpt>
      <trkpt lat="42.876360" lon="-0.324377">
        <ele>2113.381</ele>
        <time>2020-07-19T14:03:57Z</time>
      </trkpt>
      <trkpt lat="42.876394" lon="-0.324326">
        <ele>2114.161</ele>
        <time>2020-07-19T14:04:05Z</time>
      </trkpt>
      <trkpt lat="42.876411" lon="-0.324266">
        <ele>2118.117</ele>
        <time>2020-07-19T14:04:14Z</time>
      </trkpt>
      <trkpt lat="42.876442" lon="-0.324210">
        <ele>2117.308</ele>
        <time>2020-07-19T14:04:24Z</time>
      </trkpt>
      <trkpt lat="42.876489" lon="-0.324194">
        <ele>2122.473</ele>
        <time>2020-07-19T14:05:59Z</time>
      </trkpt>
      <trkpt lat="42.876524" lon="-0.324153">
        <ele>2121.981</ele>
        <time>2020-07-19T14:06:06Z</time>
      </trkpt>
      <trkpt lat="42.876549" lon="-0.324098">
        <ele>2124.814</ele>
        <time>2020-07-19T14:06:14Z</time>
      </trkpt>
      <trkpt lat="42.876564" lon="-0.324038">
        <ele>2122.151</ele>
        <time>2020-07-19T14:06:20Z</time>
      </trkpt>
      <trkpt lat="42.876563" lon="-0.323967">
        <ele>2123.833</ele>
        <time>2020-07-19T14:06:28Z</time>
      </trkpt>
      <trkpt lat="42.876583" lon="-0.323908">
        <ele>2128.343</ele>
        <time>2020-07-19T14:06:41Z</time>
      </trkpt>
      <trkpt lat="42.876575" lon="-0.323841">
        <ele>2129.615</ele>
        <time>2020-07-19T14:07:02Z</time>
      </trkpt>
      <trkpt lat="42.876581" lon="-0.323792">
        <ele>2126.631</ele>
        <time>2020-07-19T14:07:12Z</time>
      </trkpt>
      <trkpt lat="42.876562" lon="-0.323748">
        <ele>2135.813</ele>
        <time>2020-07-19T14:08:24Z</time>
      </trkpt>
      <trkpt lat="42.876562" lon="-0.323680">
        <ele>2133.043</ele>
        <time>2020-07-19T14:08:44Z</time>
      </trkpt>
      <trkpt lat="42.876570" lon="-0.323615">
        <ele>2142.007</ele>
        <time>2020-07-19T14:09:07Z</time>
      </trkpt>
      <trkpt lat="42.876605" lon="-0.323584">
        <ele>2143.708</ele>
        <time>2020-07-19T14:09:20Z</time>
      </trkpt>
      <trkpt lat="42.876577" lon="-0.323535">
        <ele>2147.146</ele>
        <time>2020-07-19T14:12:41Z</time>
      </trkpt>
      <trkpt lat="42.876540" lon="-0.323497">
        <ele>2148.294</ele>
        <time>2020-07-19T14:12:51Z</time>
      </trkpt>
      <trkpt lat="42.876553" lon="-0.323438">
        <ele>2153.077</ele>
        <time>2020-07-19T14:13:01Z</time>
      </trkpt>
      <trkpt lat="42.876501" lon="-0.323419">
        <ele>2153.734</ele>
        <time>2020-07-19T14:13:15Z</time>
      </trkpt>
      <trkpt lat="42.876503" lon="-0.323348">
        <ele>2153.236</ele>
        <time>2020-07-19T14:13:23Z</time>
      </trkpt>
      <trkpt lat="42.876531" lon="-0.323296">
        <ele>2154.176</ele>
        <time>2020-07-19T14:13:30Z</time>
      </trkpt>
      <trkpt lat="42.876554" lon="-0.323241">
        <ele>2153.978</ele>
        <time>2020-07-19T14:13:40Z</time>
      </trkpt>
      <trkpt lat="42.876589" lon="-0.323198">
        <ele>2155.064</ele>
        <time>2020-07-19T14:13:47Z</time>
      </trkpt>
      <trkpt lat="42.876627" lon="-0.323159">
        <ele>2161.775</ele>
        <time>2020-07-19T14:13:58Z</time>
      </trkpt>
      <trkpt lat="42.876657" lon="-0.323105">
        <ele>2163.028</ele>
        <time>2020-07-19T14:14:09Z</time>
      </trkpt>
      <trkpt lat="42.876698" lon="-0.323067">
        <ele>2163.120</ele>
        <time>2020-07-19T14:14:17Z</time>
      </trkpt>
      <trkpt lat="42.876745" lon="-0.323031">
        <ele>2162.208</ele>
        <time>2020-07-19T14:14:25Z</time>
      </trkpt>
      <trkpt lat="42.876773" lon="-0.322980">
        <ele>2162.142</ele>
        <time>2020-07-19T14:14:32Z</time>
      </trkpt>
      <trkpt lat="42.876798" lon="-0.322922">
        <ele>2163.910</ele>
        <time>2020-07-19T14:14:40Z</time>
      </trkpt>
      <trkpt lat="42.876797" lon="-0.322859">
        <ele>2167.313</ele>
        <time>2020-07-19T14:16:02Z</time>
      </trkpt>
      <trkpt lat="42.876820" lon="-0.322808">
        <ele>2164.740</ele>
        <time>2020-07-19T14:16:12Z</time>
      </trkpt>
      <trkpt lat="42.876842" lon="-0.322751">
        <ele>2168.852</ele>
        <time>2020-07-19T14:16:19Z</time>
      </trkpt>
      <trkpt lat="42.876879" lon="-0.322704">
        <ele>2166.852</ele>
        <time>2020-07-19T14:16:34Z</time>
      </trkpt>
      <trkpt lat="42.876902" lon="-0.322663">
        <ele>2173.294</ele>
        <time>2020-07-19T14:16:42Z</time>
      </trkpt>
      <trkpt lat="42.876907" lon="-0.322604">
        <ele>2172.880</ele>
        <time>2020-07-19T14:16:59Z</time>
      </trkpt>
      <trkpt lat="42.876933" lon="-0.322539">
        <ele>2172.926</ele>
        <time>2020-07-19T14:17:09Z</time>
      </trkpt>
      <trkpt lat="42.876953" lon="-0.322484">
        <ele>2170.747</ele>
        <time>2020-07-19T14:17:18Z</time>
      </trkpt>
      <trkpt lat="42.876976" lon="-0.322428">
        <ele>2177.111</ele>
        <time>2020-07-19T14:17:26Z</time>
      </trkpt>
      <trkpt lat="42.877018" lon="-0.322377">
        <ele>2178.508</ele>
        <time>2020-07-19T14:17:35Z</time>
      </trkpt>
      <trkpt lat="42.877058" lon="-0.322349">
        <ele>2178.037</ele>
        <time>2020-07-19T14:17:40Z</time>
      </trkpt>
      <trkpt lat="42.877102" lon="-0.322326">
        <ele>2177.585</ele>
        <time>2020-07-19T14:17:48Z</time>
      </trkpt>
      <trkpt lat="42.877137" lon="-0.322284">
        <ele>2180.258</ele>
        <time>2020-07-19T14:17:54Z</time>
      </trkpt>
      <trkpt lat="42.877098" lon="-0.322236">
        <ele>2178.985</ele>
        <time>2020-07-19T14:19:36Z</time>
      </trkpt>
      <trkpt lat="42.877117" lon="-0.322175">
        <ele>2182.517</ele>
        <time>2020-07-19T14:19:50Z</time>
      </trkpt>
      <trkpt lat="42.877147" lon="-0.322112">
        <ele>2182.427</ele>
        <time>2020-07-19T14:19:58Z</time>
      </trkpt>
      <trkpt lat="42.877176" lon="-0.322051">
        <ele>2186.149</ele>
        <time>2020-07-19T14:20:06Z</time>
      </trkpt>
      <trkpt lat="42.877201" lon="-0.321993">
        <ele>2183.555</ele>
        <time>2020-07-19T14:20:16Z</time>
      </trkpt>
      <trkpt lat="42.877239" lon="-0.321947">
        <ele>2186.351</ele>
        <time>2020-07-19T14:21:07Z</time>
      </trkpt>
      <trkpt lat="42.877262" lon="-0.321866">
        <ele>2186.301</ele>
        <time>2020-07-19T14:21:14Z</time>
      </trkpt>
      <trkpt lat="42.877272" lon="-0.321798">
        <ele>2185.811</ele>
        <time>2020-07-19T14:21:18Z</time>
      </trkpt>
      <trkpt lat="42.877292" lon="-0.321736">
        <ele>2184.708</ele>
        <time>2020-07-19T14:21:23Z</time>
      </trkpt>
      <trkpt lat="42.877289" lon="-0.321660">
        <ele>2184.980</ele>
        <time>2020-07-19T14:21:29Z</time>
      </trkpt>
      <trkpt lat="42.877289" lon="-0.321595">
        <ele>2184.148</ele>
        <time>2020-07-19T14:21:34Z</time>
      </trkpt>
      <trkpt lat="42.877313" lon="-0.321537">
        <ele>2183.261</ele>
        <time>2020-07-19T14:21:41Z</time>
      </trkpt>
      <trkpt lat="42.877329" lon="-0.321465">
        <ele>2182.948</ele>
        <time>2020-07-19T14:21:49Z</time>
      </trkpt>
      <trkpt lat="42.877339" lon="-0.321402">
        <ele>2181.650</ele>
        <time>2020-07-19T14:21:54Z</time>
      </trkpt>
      <trkpt lat="42.877336" lon="-0.321333">
        <ele>2184.250</ele>
        <time>2020-07-19T14:22:01Z</time>
      </trkpt>
      <trkpt lat="42.877331" lon="-0.321268">
        <ele>2184.082</ele>
        <time>2020-07-19T14:22:08Z</time>
      </trkpt>
      <trkpt lat="42.877326" lon="-0.321204">
        <ele>2183.448</ele>
        <time>2020-07-19T14:22:13Z</time>
      </trkpt>
      <trkpt lat="42.877296" lon="-0.321149">
        <ele>2185.928</ele>
        <time>2020-07-19T14:22:23Z</time>
      </trkpt>
      <trkpt lat="42.877286" lon="-0.321086">
        <ele>2184.389</ele>
        <time>2020-07-19T14:22:33Z</time>
      </trkpt>
      <trkpt lat="42.877304" lon="-0.321030">
        <ele>2183.517</ele>
        <time>2020-07-19T14:22:40Z</time>
      </trkpt>
      <trkpt lat="42.877324" lon="-0.320967">
        <ele>2185.008</ele>
        <time>2020-07-19T14:22:50Z</time>
      </trkpt>
      <trkpt lat="42.877322" lon="-0.320904">
        <ele>2185.977</ele>
        <time>2020-07-19T14:22:58Z</time>
      </trkpt>
      <trkpt lat="42.877325" lon="-0.320832">
        <ele>2186.765</ele>
        <time>2020-07-19T14:23:04Z</time>
      </trkpt>
      <trkpt lat="42.877337" lon="-0.320767">
        <ele>2187.948</ele>
        <time>2020-07-19T14:23:16Z</time>
      </trkpt>
      <trkpt lat="42.877360" lon="-0.320710">
        <ele>2190.545</ele>
        <time>2020-07-19T14:23:29Z</time>
      </trkpt>
      <trkpt lat="42.877373" lon="-0.320641">
        <ele>2189.657</ele>
        <time>2020-07-19T14:23:37Z</time>
      </trkpt>
      <trkpt lat="42.877389" lon="-0.320580">
        <ele>2187.097</ele>
        <time>2020-07-19T14:23:44Z</time>
      </trkpt>
      <trkpt lat="42.877400" lon="-0.320513">
        <ele>2191.849</ele>
        <time>2020-07-19T14:23:50Z</time>
      </trkpt>
      <trkpt lat="42.877414" lon="-0.320456">
        <ele>2190.825</ele>
        <time>2020-07-19T14:24:12Z</time>
      </trkpt>
      <trkpt lat="42.877462" lon="-0.320468">
        <ele>2189.642</ele>
        <time>2020-07-19T14:24:24Z</time>
      </trkpt>
      <trkpt lat="42.877496" lon="-0.320417">
        <ele>2188.122</ele>
        <time>2020-07-19T14:24:31Z</time>
      </trkpt>
      <trkpt lat="42.877511" lon="-0.320357">
        <ele>2192.014</ele>
        <time>2020-07-19T14:24:37Z</time>
      </trkpt>
      <trkpt lat="42.877567" lon="-0.320325">
        <ele>2191.608</ele>
        <time>2020-07-19T14:24:44Z</time>
      </trkpt>
      <trkpt lat="42.877590" lon="-0.320265">
        <ele>2192.829</ele>
        <time>2020-07-19T14:24:51Z</time>
      </trkpt>
      <trkpt lat="42.877603" lon="-0.320202">
        <ele>2191.957</ele>
        <time>2020-07-19T14:24:58Z</time>
      </trkpt>
      <trkpt lat="42.877622" lon="-0.320171">
        <ele>2194.470</ele>
        <time>2020-07-19T14:36:52Z</time>
      </trkpt>
      <trkpt lat="42.877654" lon="-0.320157">
        <ele>2194.087</ele>
        <time>2020-07-19T14:36:59Z</time>
      </trkpt>
      <trkpt lat="42.877697" lon="-0.320117">
        <ele>2196.739</ele>
        <time>2020-07-19T14:37:09Z</time>
      </trkpt>
      <trkpt lat="42.877730" lon="-0.320073">
        <ele>2197.499</ele>
        <time>2020-07-19T14:37:17Z</time>
      </trkpt>
      <trkpt lat="42.877773" lon="-0.320043">
        <ele>2196.051</ele>
        <time>2020-07-19T14:37:27Z</time>
      </trkpt>
      <trkpt lat="42.877803" lon="-0.319981">
        <ele>2196.467</ele>
        <time>2020-07-19T14:37:36Z</time>
      </trkpt>
      <trkpt lat="42.877819" lon="-0.319919">
        <ele>2200.765</ele>
        <time>2020-07-19T14:37:42Z</time>
      </trkpt>
      <trkpt lat="42.877831" lon="-0.319855">
        <ele>2199.268</ele>
        <time>2020-07-19T14:37:51Z</time>
      </trkpt>
      <trkpt lat="42.877848" lon="-0.319791">
        <ele>2199.414</ele>
        <time>2020-07-19T14:37:59Z</time>
      </trkpt>
      <trkpt lat="42.877881" lon="-0.319732">
        <ele>2199.508</ele>
        <time>2020-07-19T14:38:07Z</time>
      </trkpt>
      <trkpt lat="42.877906" lon="-0.319670">
        <ele>2200.961</ele>
        <time>2020-07-19T14:38:12Z</time>
      </trkpt>
      <trkpt lat="42.877942" lon="-0.319606">
        <ele>2201.969</ele>
        <time>2020-07-19T14:38:18Z</time>
      </trkpt>
      <trkpt lat="42.877972" lon="-0.319531">
        <ele>2201.222</ele>
        <time>2020-07-19T14:38:24Z</time>
      </trkpt>
      <trkpt lat="42.877985" lon="-0.319464">
        <ele>2201.619</ele>
        <time>2020-07-19T14:38:29Z</time>
      </trkpt>
      <trkpt lat="42.878002" lon="-0.319407">
        <ele>2202.581</ele>
        <time>2020-07-19T14:38:36Z</time>
      </trkpt>
      <trkpt lat="42.878009" lon="-0.319336">
        <ele>2202.991</ele>
        <time>2020-07-19T14:38:44Z</time>
      </trkpt>
      <trkpt lat="42.878009" lon="-0.319272">
        <ele>2201.653</ele>
        <time>2020-07-19T14:38:52Z</time>
      </trkpt>
      <trkpt lat="42.877992" lon="-0.319200">
        <ele>2203.939</ele>
        <time>2020-07-19T14:38:59Z</time>
      </trkpt>
      <trkpt lat="42.877978" lon="-0.319130">
        <ele>2204.452</ele>
        <time>2020-07-19T14:39:06Z</time>
      </trkpt>
      <trkpt lat="42.877970" lon="-0.319069">
        <ele>2202.153</ele>
        <time>2020-07-19T14:39:12Z</time>
      </trkpt>
      <trkpt lat="42.877982" lon="-0.319012">
        <ele>2204.208</ele>
        <time>2020-07-19T14:39:44Z</time>
      </trkpt>
      <trkpt lat="42.877972" lon="-0.318951">
        <ele>2207.608</ele>
        <time>2020-07-19T14:39:50Z</time>
      </trkpt>
      <trkpt lat="42.877965" lon="-0.318877">
        <ele>2204.960</ele>
        <time>2020-07-19T14:39:55Z</time>
      </trkpt>
      <trkpt lat="42.877961" lon="-0.318813">
        <ele>2205.518</ele>
        <time>2020-07-19T14:39:59Z</time>
      </trkpt>
      <trkpt lat="42.877950" lon="-0.318749">
        <ele>2207.021</ele>
        <time>2020-07-19T14:40:04Z</time>
      </trkpt>
      <trkpt lat="42.877931" lon="-0.318688">
        <ele>2206.438</ele>
        <time>2020-07-19T14:40:10Z</time>
      </trkpt>
      <trkpt lat="42.877950" lon="-0.318623">
        <ele>2208.580</ele>
        <time>2020-07-19T14:40:32Z</time>
      </trkpt>
      <trkpt lat="42.877960" lon="-0.318558">
        <ele>2204.420</ele>
        <time>2020-07-19T14:40:41Z</time>
      </trkpt>
      <trkpt lat="42.877953" lon="-0.318486">
        <ele>2209.282</ele>
        <time>2020-07-19T14:40:47Z</time>
      </trkpt>
      <trkpt lat="42.877926" lon="-0.318425">
        <ele>2205.948</ele>
        <time>2020-07-19T14:40:54Z</time>
      </trkpt>
      <trkpt lat="42.877918" lon="-0.318363">
        <ele>2209.478</ele>
        <time>2020-07-19T14:41:00Z</time>
      </trkpt>
      <trkpt lat="42.877923" lon="-0.318301">
        <ele>2209.433</ele>
        <time>2020-07-19T14:41:07Z</time>
      </trkpt>
      <trkpt lat="42.877934" lon="-0.318239">
        <ele>2209.426</ele>
        <time>2020-07-19T14:41:14Z</time>
      </trkpt>
      <trkpt lat="42.877948" lon="-0.318171">
        <ele>2211.308</ele>
        <time>2020-07-19T14:41:21Z</time>
      </trkpt>
      <trkpt lat="42.877993" lon="-0.318145">
        <ele>2212.122</ele>
        <time>2020-07-19T14:41:53Z</time>
      </trkpt>
      <trkpt lat="42.878022" lon="-0.318095">
        <ele>2209.230</ele>
        <time>2020-07-19T14:42:08Z</time>
      </trkpt>
      <trkpt lat="42.878019" lon="-0.318032">
        <ele>2213.183</ele>
        <time>2020-07-19T14:42:15Z</time>
      </trkpt>
      <trkpt lat="42.878018" lon="-0.317957">
        <ele>2213.220</ele>
        <time>2020-07-19T14:42:21Z</time>
      </trkpt>
      <trkpt lat="42.878004" lon="-0.317890">
        <ele>2213.142</ele>
        <time>2020-07-19T14:42:26Z</time>
      </trkpt>
      <trkpt lat="42.878006" lon="-0.317823">
        <ele>2213.282</ele>
        <time>2020-07-19T14:42:33Z</time>
      </trkpt>
      <trkpt lat="42.878012" lon="-0.317750">
        <ele>2212.684</ele>
        <time>2020-07-19T14:42:40Z</time>
      </trkpt>
      <trkpt lat="42.878022" lon="-0.317685">
        <ele>2211.790</ele>
        <time>2020-07-19T14:42:47Z</time>
      </trkpt>
      <trkpt lat="42.878029" lon="-0.317624">
        <ele>2214.878</ele>
        <time>2020-07-19T14:42:53Z</time>
      </trkpt>
      <trkpt lat="42.878047" lon="-0.317564">
        <ele>2214.233</ele>
        <time>2020-07-19T14:42:59Z</time>
      </trkpt>
      <trkpt lat="42.878034" lon="-0.317487">
        <ele>2214.226</ele>
        <time>2020-07-19T14:43:07Z</time>
      </trkpt>
      <trkpt lat="42.878013" lon="-0.317430">
        <ele>2215.008</ele>
        <time>2020-07-19T14:43:15Z</time>
      </trkpt>
      <trkpt lat="42.877991" lon="-0.317371">
        <ele>2214.342</ele>
        <time>2020-07-19T14:43:20Z</time>
      </trkpt>
      <trkpt lat="42.877961" lon="-0.317313">
        <ele>2215.720</ele>
        <time>2020-07-19T14:43:26Z</time>
      </trkpt>
      <trkpt lat="42.877941" lon="-0.317257">
        <ele>2216.113</ele>
        <time>2020-07-19T14:43:33Z</time>
      </trkpt>
      <trkpt lat="42.877921" lon="-0.317194">
        <ele>2217.590</ele>
        <time>2020-07-19T14:43:42Z</time>
      </trkpt>
      <trkpt lat="42.877882" lon="-0.317152">
        <ele>2216.932</ele>
        <time>2020-07-19T14:43:50Z</time>
      </trkpt>
      <trkpt lat="42.877846" lon="-0.317113">
        <ele>2216.242</ele>
        <time>2020-07-19T14:43:57Z</time>
      </trkpt>
      <trkpt lat="42.877823" lon="-0.317043">
        <ele>2215.394</ele>
        <time>2020-07-19T14:44:04Z</time>
      </trkpt>
      <trkpt lat="42.877813" lon="-0.316971">
        <ele>2216.920</ele>
        <time>2020-07-19T14:44:10Z</time>
      </trkpt>
      <trkpt lat="42.877798" lon="-0.316898">
        <ele>2215.713</ele>
        <time>2020-07-19T14:44:16Z</time>
      </trkpt>
      <trkpt lat="42.877762" lon="-0.316859">
        <ele>2216.643</ele>
        <time>2020-07-19T14:44:23Z</time>
      </trkpt>
      <trkpt lat="42.877724" lon="-0.316828">
        <ele>2220.407</ele>
        <time>2020-07-19T14:44:31Z</time>
      </trkpt>
      <trkpt lat="42.877713" lon="-0.316758">
        <ele>2219.008</ele>
        <time>2020-07-19T14:47:07Z</time>
      </trkpt>
      <trkpt lat="42.877716" lon="-0.316674">
        <ele>2219.196</ele>
        <time>2020-07-19T14:47:12Z</time>
      </trkpt>
      <trkpt lat="42.877710" lon="-0.316600">
        <ele>2220.074</ele>
        <time>2020-07-19T14:47:16Z</time>
      </trkpt>
      <trkpt lat="42.877692" lon="-0.316525">
        <ele>2218.987</ele>
        <time>2020-07-19T14:47:24Z</time>
      </trkpt>
      <trkpt lat="42.877702" lon="-0.316469">
        <ele>2218.534</ele>
        <time>2020-07-19T14:47:31Z</time>
      </trkpt>
      <trkpt lat="42.877724" lon="-0.316452">
        <ele>2219.856</ele>
        <time>2020-07-19T14:47:51Z</time>
      </trkpt>
      <trkpt lat="42.877716" lon="-0.316403">
        <ele>2220.946</ele>
        <time>2020-07-19T14:48:05Z</time>
      </trkpt>
      <trkpt lat="42.877690" lon="-0.316329">
        <ele>2218.638</ele>
        <time>2020-07-19T14:48:12Z</time>
      </trkpt>
      <trkpt lat="42.877684" lon="-0.316260">
        <ele>2223.074</ele>
        <time>2020-07-19T14:48:19Z</time>
      </trkpt>
      <trkpt lat="42.877672" lon="-0.316191">
        <ele>2224.584</ele>
        <time>2020-07-19T14:48:27Z</time>
      </trkpt>
      <trkpt lat="42.877667" lon="-0.316126">
        <ele>2226.807</ele>
        <time>2020-07-19T14:48:33Z</time>
      </trkpt>
      <trkpt lat="42.877643" lon="-0.316059">
        <ele>2227.617</ele>
        <time>2020-07-19T14:48:41Z</time>
      </trkpt>
      <trkpt lat="42.877601" lon="-0.316022">
        <ele>2226.108</ele>
        <time>2020-07-19T14:48:50Z</time>
      </trkpt>
      <trkpt lat="42.877563" lon="-0.315972">
        <ele>2225.543</ele>
        <time>2020-07-19T14:49:02Z</time>
      </trkpt>
      <trkpt lat="42.877533" lon="-0.315918">
        <ele>2229.621</ele>
        <time>2020-07-19T14:49:11Z</time>
      </trkpt>
      <trkpt lat="42.877486" lon="-0.315896">
        <ele>2230.714</ele>
        <time>2020-07-19T14:49:20Z</time>
      </trkpt>
      <trkpt lat="42.877438" lon="-0.315874">
        <ele>2234.281</ele>
        <time>2020-07-19T14:49:31Z</time>
      </trkpt>
      <trkpt lat="42.877396" lon="-0.315842">
        <ele>2233.623</ele>
        <time>2020-07-19T14:49:42Z</time>
      </trkpt>
      <trkpt lat="42.877363" lon="-0.315812">
        <ele>2230.093</ele>
        <time>2020-07-19T14:51:20Z</time>
      </trkpt>
      <trkpt lat="42.877335" lon="-0.315754">
        <ele>2235.965</ele>
        <time>2020-07-19T14:51:27Z</time>
      </trkpt>
      <trkpt lat="42.877308" lon="-0.315703">
        <ele>2235.551</ele>
        <time>2020-07-19T14:51:31Z</time>
      </trkpt>
      <trkpt lat="42.877277" lon="-0.315657">
        <ele>2238.296</ele>
        <time>2020-07-19T14:51:38Z</time>
      </trkpt>
      <trkpt lat="42.877245" lon="-0.315615">
        <ele>2235.931</ele>
        <time>2020-07-19T14:51:45Z</time>
      </trkpt>
      <trkpt lat="42.877195" lon="-0.315572">
        <ele>2236.524</ele>
        <time>2020-07-19T14:51:53Z</time>
      </trkpt>
      <trkpt lat="42.877155" lon="-0.315541">
        <ele>2239.808</ele>
        <time>2020-07-19T14:51:58Z</time>
      </trkpt>
      <trkpt lat="42.877123" lon="-0.315485">
        <ele>2240.434</ele>
        <time>2020-07-19T14:52:08Z</time>
      </trkpt>
      <trkpt lat="42.877098" lon="-0.315431">
        <ele>2242.732</ele>
        <time>2020-07-19T14:52:17Z</time>
      </trkpt>
      <trkpt lat="42.877078" lon="-0.315370">
        <ele>2242.495</ele>
        <time>2020-07-19T14:52:24Z</time>
      </trkpt>
      <trkpt lat="42.877043" lon="-0.315320">
        <ele>2240.542</ele>
        <time>2020-07-19T14:52:34Z</time>
      </trkpt>
      <trkpt lat="42.877024" lon="-0.315255">
        <ele>2245.754</ele>
        <time>2020-07-19T14:52:43Z</time>
      </trkpt>
      <trkpt lat="42.877016" lon="-0.315191">
        <ele>2243.254</ele>
        <time>2020-07-19T14:52:50Z</time>
      </trkpt>
      <trkpt lat="42.877009" lon="-0.315121">
        <ele>2246.196</ele>
        <time>2020-07-19T14:53:00Z</time>
      </trkpt>
      <trkpt lat="42.877023" lon="-0.315055">
        <ele>2250.292</ele>
        <time>2020-07-19T14:55:38Z</time>
      </trkpt>
      <trkpt lat="42.877008" lon="-0.314978">
        <ele>2248.936</ele>
        <time>2020-07-19T14:55:43Z</time>
      </trkpt>
      <trkpt lat="42.877003" lon="-0.314909">
        <ele>2247.917</ele>
        <time>2020-07-19T14:55:49Z</time>
      </trkpt>
      <trkpt lat="42.876999" lon="-0.314844">
        <ele>2251.918</ele>
        <time>2020-07-19T14:55:56Z</time>
      </trkpt>
      <trkpt lat="42.876989" lon="-0.314777">
        <ele>2253.608</ele>
        <time>2020-07-19T14:56:03Z</time>
      </trkpt>
      <trkpt lat="42.876982" lon="-0.314710">
        <ele>2251.298</ele>
        <time>2020-07-19T14:56:11Z</time>
      </trkpt>
      <trkpt lat="42.876992" lon="-0.314650">
        <ele>2254.586</ele>
        <time>2020-07-19T14:56:20Z</time>
      </trkpt>
      <trkpt lat="42.876975" lon="-0.314591">
        <ele>2255.579</ele>
        <time>2020-07-19T14:56:29Z</time>
      </trkpt>
      <trkpt lat="42.876975" lon="-0.314522">
        <ele>2255.656</ele>
        <time>2020-07-19T14:56:39Z</time>
      </trkpt>
      <trkpt lat="42.876967" lon="-0.314461">
        <ele>2258.758</ele>
        <time>2020-07-19T14:56:47Z</time>
      </trkpt>
      <trkpt lat="42.876964" lon="-0.314413">
        <ele>2260.198</ele>
        <time>2020-07-19T14:56:59Z</time>
      </trkpt>
      <trkpt lat="42.876935" lon="-0.314386">
        <ele>2259.810</ele>
        <time>2020-07-19T14:57:46Z</time>
      </trkpt>
      <trkpt lat="42.876894" lon="-0.314350">
        <ele>2262.796</ele>
        <time>2020-07-19T14:58:37Z</time>
      </trkpt>
      <trkpt lat="42.876860" lon="-0.314312">
        <ele>2261.331</ele>
        <time>2020-07-19T14:58:46Z</time>
      </trkpt>
      <trkpt lat="42.876850" lon="-0.314250">
        <ele>2261.161</ele>
        <time>2020-07-19T14:58:51Z</time>
      </trkpt>
      <trkpt lat="42.876831" lon="-0.314163">
        <ele>2264.307</ele>
        <time>2020-07-19T14:59:02Z</time>
      </trkpt>
      <trkpt lat="42.876786" lon="-0.314148">
        <ele>2267.008</ele>
        <time>2020-07-19T14:59:09Z</time>
      </trkpt>
      <trkpt lat="42.876737" lon="-0.314156">
        <ele>2269.098</ele>
        <time>2020-07-19T14:59:27Z</time>
      </trkpt>
      <trkpt lat="42.876697" lon="-0.314139">
        <ele>2268.836</ele>
        <time>2020-07-19T14:59:38Z</time>
      </trkpt>
      <trkpt lat="42.876687" lon="-0.314084">
        <ele>2273.539</ele>
        <time>2020-07-19T15:00:20Z</time>
      </trkpt>
      <trkpt lat="42.876657" lon="-0.314028">
        <ele>2274.836</ele>
        <time>2020-07-19T15:00:30Z</time>
      </trkpt>
      <trkpt lat="42.876624" lon="-0.313987">
        <ele>2273.958</ele>
        <time>2020-07-19T15:00:34Z</time>
      </trkpt>
      <trkpt lat="42.876585" lon="-0.313987">
        <ele>2275.168</ele>
        <time>2020-07-19T15:01:01Z</time>
      </trkpt>
      <trkpt lat="42.876538" lon="-0.313974">
        <ele>2275.730</ele>
        <time>2020-07-19T15:01:10Z</time>
      </trkpt>
      <trkpt lat="42.876509" lon="-0.313924">
        <ele>2276.016</ele>
        <time>2020-07-19T15:01:18Z</time>
      </trkpt>
      <trkpt lat="42.876491" lon="-0.313865">
        <ele>2276.946</ele>
        <time>2020-07-19T15:01:23Z</time>
      </trkpt>
      <trkpt lat="42.876468" lon="-0.313806">
        <ele>2277.088</ele>
        <time>2020-07-19T15:01:28Z</time>
      </trkpt>
      <trkpt lat="42.876422" lon="-0.313786">
        <ele>2278.316</ele>
        <time>2020-07-19T15:03:13Z</time>
      </trkpt>
      <trkpt lat="42.876391" lon="-0.313732">
        <ele>2278.708</ele>
        <time>2020-07-19T15:03:20Z</time>
      </trkpt>
      <trkpt lat="42.876382" lon="-0.313653">
        <ele>2278.499</ele>
        <time>2020-07-19T15:03:28Z</time>
      </trkpt>
      <trkpt lat="42.876374" lon="-0.313589">
        <ele>2280.877</ele>
        <time>2020-07-19T15:03:33Z</time>
      </trkpt>
      <trkpt lat="42.876376" lon="-0.313510">
        <ele>2277.840</ele>
        <time>2020-07-19T15:03:41Z</time>
      </trkpt>
      <trkpt lat="42.876383" lon="-0.313448">
        <ele>2281.947</ele>
        <time>2020-07-19T15:03:46Z</time>
      </trkpt>
      <trkpt lat="42.876378" lon="-0.313379">
        <ele>2281.049</ele>
        <time>2020-07-19T15:03:51Z</time>
      </trkpt>
      <trkpt lat="42.876359" lon="-0.313309">
        <ele>2280.719</ele>
        <time>2020-07-19T15:03:56Z</time>
      </trkpt>
      <trkpt lat="42.876342" lon="-0.313242">
        <ele>2279.861</ele>
        <time>2020-07-19T15:04:03Z</time>
      </trkpt>
      <trkpt lat="42.876310" lon="-0.313189">
        <ele>2282.187</ele>
        <time>2020-07-19T15:04:10Z</time>
      </trkpt>
      <trkpt lat="42.876258" lon="-0.313180">
        <ele>2282.295</ele>
        <time>2020-07-19T15:04:18Z</time>
      </trkpt>
      <trkpt lat="42.876221" lon="-0.313217">
        <ele>2283.249</ele>
        <time>2020-07-19T15:04:28Z</time>
      </trkpt>
      <trkpt lat="42.876174" lon="-0.313212">
        <ele>2282.423</ele>
        <time>2020-07-19T15:04:34Z</time>
      </trkpt>
      <trkpt lat="42.876117" lon="-0.313208">
        <ele>2285.108</ele>
        <time>2020-07-19T15:04:41Z</time>
      </trkpt>
      <trkpt lat="42.876064" lon="-0.313211">
        <ele>2283.164</ele>
        <time>2020-07-19T15:04:48Z</time>
      </trkpt>
      <trkpt lat="42.876015" lon="-0.313209">
        <ele>2286.182</ele>
        <time>2020-07-19T15:04:55Z</time>
      </trkpt>
      <trkpt lat="42.875969" lon="-0.313190">
        <ele>2286.185</ele>
        <time>2020-07-19T15:05:00Z</time>
      </trkpt>
      <trkpt lat="42.875933" lon="-0.313137">
        <ele>2287.582</ele>
        <time>2020-07-19T15:05:07Z</time>
      </trkpt>
      <trkpt lat="42.875914" lon="-0.313074">
        <ele>2288.134</ele>
        <time>2020-07-19T15:05:16Z</time>
      </trkpt>
      <trkpt lat="42.875887" lon="-0.313024">
        <ele>2288.594</ele>
        <time>2020-07-19T15:05:26Z</time>
      </trkpt>
      <trkpt lat="42.875891" lon="-0.312955">
        <ele>2289.986</ele>
        <time>2020-07-19T15:05:57Z</time>
      </trkpt>
      <trkpt lat="42.875901" lon="-0.312892">
        <ele>2294.072</ele>
        <time>2020-07-19T15:07:22Z</time>
      </trkpt>
      <trkpt lat="42.875937" lon="-0.312939">
        <ele>2297.484</ele>
        <time>2020-07-19T15:07:43Z</time>
      </trkpt>
      <trkpt lat="42.875977" lon="-0.312961">
        <ele>2293.507</ele>
        <time>2020-07-19T15:07:55Z</time>
      </trkpt>
      <trkpt lat="42.876025" lon="-0.312963">
        <ele>2298.517</ele>
        <time>2020-07-19T15:08:22Z</time>
      </trkpt>
      <trkpt lat="42.876071" lon="-0.312951">
        <ele>2298.808</ele>
        <time>2020-07-19T15:08:53Z</time>
      </trkpt>
      <trkpt lat="42.876039" lon="-0.312901">
        <ele>2300.873</ele>
        <time>2020-07-19T15:09:07Z</time>
      </trkpt>
      <trkpt lat="42.876022" lon="-0.312842">
        <ele>2302.461</ele>
        <time>2020-07-19T15:09:15Z</time>
      </trkpt>
      <trkpt lat="42.876010" lon="-0.312779">
        <ele>2301.814</ele>
        <time>2020-07-19T15:09:22Z</time>
      </trkpt>
      <trkpt lat="42.876049" lon="-0.312745">
        <ele>2307.481</ele>
        <time>2020-07-19T15:09:40Z</time>
      </trkpt>
      <trkpt lat="42.876089" lon="-0.312783">
        <ele>2308.753</ele>
        <time>2020-07-19T15:10:40Z</time>
      </trkpt>
      <trkpt lat="42.876131" lon="-0.312741">
        <ele>2311.383</ele>
        <time>2020-07-19T15:11:50Z</time>
      </trkpt>
      <trkpt lat="42.876135" lon="-0.312705">
        <ele>2315.835</ele>
        <time>2020-07-19T15:12:06Z</time>
      </trkpt>
      <trkpt lat="42.876140" lon="-0.312667">
        <ele>2318.211</ele>
        <time>2020-07-19T15:12:32Z</time>
      </trkpt>
      <trkpt lat="42.876181" lon="-0.312672">
        <ele>2317.053</ele>
        <time>2020-07-19T15:12:54Z</time>
      </trkpt>
      <trkpt lat="42.876210" lon="-0.312711">
        <ele>2322.404</ele>
        <time>2020-07-19T15:13:08Z</time>
      </trkpt>
      <trkpt lat="42.876246" lon="-0.312713">
        <ele>2321.814</ele>
        <time>2020-07-19T15:14:10Z</time>
      </trkpt>
      <trkpt lat="42.876238" lon="-0.312647">
        <ele>2326.008</ele>
        <time>2020-07-19T15:15:14Z</time>
      </trkpt>
      <trkpt lat="42.876202" lon="-0.312582">
        <ele>2330.370</ele>
        <time>2020-07-19T15:15:22Z</time>
      </trkpt>
      <trkpt lat="42.876177" lon="-0.312530">
        <ele>2329.048</ele>
        <time>2020-07-19T15:15:28Z</time>
      </trkpt>
      <trkpt lat="42.876140" lon="-0.312483">
        <ele>2330.671</ele>
        <time>2020-07-19T15:15:35Z</time>
      </trkpt>
      <trkpt lat="42.876113" lon="-0.312431">
        <ele>2334.058</ele>
        <time>2020-07-19T15:15:45Z</time>
      </trkpt>
      <trkpt lat="42.876073" lon="-0.312402">
        <ele>2336.260</ele>
        <time>2020-07-19T15:16:04Z</time>
      </trkpt>
      <trkpt lat="42.876040" lon="-0.312378">
        <ele>2334.830</ele>
        <time>2020-07-19T15:16:12Z</time>
      </trkpt>
      <trkpt lat="42.876016" lon="-0.312362">
        <ele>2334.822</ele>
        <time>2020-07-19T15:16:25Z</time>
      </trkpt>
      <trkpt lat="42.875988" lon="-0.312330">
        <ele>2334.838</ele>
        <time>2020-07-19T15:17:27Z</time>
      </trkpt>
      <trkpt lat="42.876031" lon="-0.312322">
        <ele>2337.066</ele>
        <time>2020-07-19T15:17:49Z</time>
      </trkpt>
      <trkpt lat="42.876077" lon="-0.312330">
        <ele>2340.329</ele>
        <time>2020-07-19T15:17:57Z</time>
      </trkpt>
      <trkpt lat="42.876106" lon="-0.312272">
        <ele>2338.521</ele>
        <time>2020-07-19T15:18:07Z</time>
      </trkpt>
      <trkpt lat="42.876115" lon="-0.312207">
        <ele>2341.908</ele>
        <time>2020-07-19T15:18:14Z</time>
      </trkpt>
      <trkpt lat="42.876115" lon="-0.312141">
        <ele>2342.641</ele>
        <time>2020-07-19T15:18:21Z</time>
      </trkpt>
      <trkpt lat="42.876088" lon="-0.312091">
        <ele>2343.439</ele>
        <time>2020-07-19T15:18:28Z</time>
      </trkpt>
      <trkpt lat="42.876045" lon="-0.312055">
        <ele>2345.992</ele>
        <time>2020-07-19T15:18:37Z</time>
      </trkpt>
      <trkpt lat="42.875994" lon="-0.312041">
        <ele>2344.829</ele>
        <time>2020-07-19T15:18:44Z</time>
      </trkpt>
      <trkpt lat="42.875967" lon="-0.312024">
        <ele>2347.031</ele>
        <time>2020-07-19T15:20:03Z</time>
      </trkpt>
      <trkpt lat="42.875929" lon="-0.311992">
        <ele>2349.061</ele>
        <time>2020-07-19T15:20:38Z</time>
      </trkpt>
      <trkpt lat="42.875882" lon="-0.311951">
        <ele>2351.213</ele>
        <time>2020-07-19T15:20:47Z</time>
      </trkpt>
      <trkpt lat="42.875830" lon="-0.311926">
        <ele>2349.589</ele>
        <time>2020-07-19T15:20:55Z</time>
      </trkpt>
      <trkpt lat="42.875791" lon="-0.311891">
        <ele>2349.794</ele>
        <time>2020-07-19T15:21:03Z</time>
      </trkpt>
      <trkpt lat="42.875753" lon="-0.311854">
        <ele>2355.257</ele>
        <time>2020-07-19T15:21:14Z</time>
      </trkpt>
      <trkpt lat="42.875764" lon="-0.311792">
        <ele>2357.622</ele>
        <time>2020-07-19T15:21:22Z</time>
      </trkpt>
      <trkpt lat="42.875803" lon="-0.311791">
        <ele>2359.208</ele>
        <time>2020-07-19T15:21:29Z</time>
      </trkpt>
      <trkpt lat="42.875846" lon="-0.311795">
        <ele>2359.184</ele>
        <time>2020-07-19T15:22:33Z</time>
      </trkpt>
      <trkpt lat="42.875815" lon="-0.311740">
        <ele>2363.172</ele>
        <time>2020-07-19T15:23:08Z</time>
      </trkpt>
      <trkpt lat="42.875788" lon="-0.311676">
        <ele>2366.535</ele>
        <time>2020-07-19T15:23:16Z</time>
      </trkpt>
      <trkpt lat="42.875749" lon="-0.311629">
        <ele>2360.592</ele>
        <time>2020-07-19T15:23:27Z</time>
      </trkpt>
      <trkpt lat="42.875713" lon="-0.311587">
        <ele>2366.144</ele>
        <time>2020-07-19T15:23:36Z</time>
      </trkpt>
      <trkpt lat="42.875695" lon="-0.311521">
        <ele>2369.314</ele>
        <time>2020-07-19T15:23:47Z</time>
      </trkpt>
      <trkpt lat="42.875663" lon="-0.311469">
        <ele>2371.046</ele>
        <time>2020-07-19T15:23:54Z</time>
      </trkpt>
      <trkpt lat="42.875631" lon="-0.311418">
        <ele>2368.932</ele>
        <time>2020-07-19T15:24:05Z</time>
      </trkpt>
      <trkpt lat="42.875622" lon="-0.311346">
        <ele>2378.682</ele>
        <time>2020-07-19T15:26:09Z</time>
      </trkpt>
      <trkpt lat="42.875614" lon="-0.311286">
        <ele>2376.043</ele>
        <time>2020-07-19T15:26:19Z</time>
      </trkpt>
      <trkpt lat="42.875665" lon="-0.311302">
        <ele>2377.917</ele>
        <time>2020-07-19T15:26:32Z</time>
      </trkpt>
      <trkpt lat="42.875712" lon="-0.311334">
        <ele>2378.208</ele>
        <time>2020-07-19T15:26:43Z</time>
      </trkpt>
      <trkpt lat="42.875759" lon="-0.311320">
        <ele>2382.793</ele>
        <time>2020-07-19T15:27:17Z</time>
      </trkpt>
      <trkpt lat="42.875807" lon="-0.311325">
        <ele>2382.261</ele>
        <time>2020-07-19T15:27:59Z</time>
      </trkpt>
      <trkpt lat="42.875841" lon="-0.311367">
        <ele>2388.114</ele>
        <time>2020-07-19T15:28:06Z</time>
      </trkpt>
      <trkpt lat="42.875884" lon="-0.311405">
        <ele>2384.691</ele>
        <time>2020-07-19T15:28:14Z</time>
      </trkpt>
      <trkpt lat="42.875933" lon="-0.311415">
        <ele>2389.173</ele>
        <time>2020-07-19T15:28:22Z</time>
      </trkpt>
      <trkpt lat="42.875983" lon="-0.311408">
        <ele>2392.233</ele>
        <time>2020-07-19T15:28:31Z</time>
      </trkpt>
      <trkpt lat="42.876030" lon="-0.311396">
        <ele>2392.915</ele>
        <time>2020-07-19T15:28:39Z</time>
      </trkpt>
      <trkpt lat="42.876080" lon="-0.311398">
        <ele>2393.031</ele>
        <time>2020-07-19T15:28:46Z</time>
      </trkpt>
      <trkpt lat="42.876133" lon="-0.311420">
        <ele>2395.454</ele>
        <time>2020-07-19T15:28:54Z</time>
      </trkpt>
      <trkpt lat="42.876175" lon="-0.311450">
        <ele>2397.456</ele>
        <time>2020-07-19T15:29:03Z</time>
      </trkpt>
      <trkpt lat="42.876219" lon="-0.311484">
        <ele>2397.511</ele>
        <time>2020-07-19T15:29:13Z</time>
      </trkpt>
      <trkpt lat="42.876268" lon="-0.311517">
        <ele>2397.308</ele>
        <time>2020-07-19T15:30:05Z</time>
      </trkpt>
      <trkpt lat="42.876318" lon="-0.311526">
        <ele>2397.630</ele>
        <time>2020-07-19T15:30:22Z</time>
      </trkpt>
      <trkpt lat="42.876278" lon="-0.311474">
        <ele>2396.588</ele>
        <time>2020-07-19T15:30:58Z</time>
      </trkpt>
      <trkpt lat="42.876230" lon="-0.311422">
        <ele>2398.431</ele>
        <time>2020-07-19T15:31:04Z</time>
      </trkpt>
      <trkpt lat="42.876196" lon="-0.311366">
        <ele>2398.738</ele>
        <time>2020-07-19T15:31:08Z</time>
      </trkpt>
      <trkpt lat="42.876172" lon="-0.311312">
        <ele>2401.790</ele>
        <time>2020-07-19T15:31:12Z</time>
      </trkpt>
      <trkpt lat="42.876144" lon="-0.311260">
        <ele>2400.610</ele>
        <time>2020-07-19T15:31:17Z</time>
      </trkpt>
      <trkpt lat="42.876121" lon="-0.311203">
        <ele>2400.092</ele>
        <time>2020-07-19T15:31:22Z</time>
      </trkpt>
      <trkpt lat="42.876098" lon="-0.311150">
        <ele>2401.238</ele>
        <time>2020-07-19T15:31:27Z</time>
      </trkpt>
      <trkpt lat="42.876058" lon="-0.311100">
        <ele>2403.033</ele>
        <time>2020-07-19T15:31:35Z</time>
      </trkpt>
      <trkpt lat="42.876030" lon="-0.311052">
        <ele>2404.823</ele>
        <time>2020-07-19T15:31:41Z</time>
      </trkpt>
      <trkpt lat="42.876011" lon="-0.310994">
        <ele>2405.015</ele>
        <time>2020-07-19T15:31:50Z</time>
      </trkpt>
      <trkpt lat="42.875986" lon="-0.310932">
        <ele>2405.308</ele>
        <time>2020-07-19T15:31:58Z</time>
      </trkpt>
      <trkpt lat="42.875951" lon="-0.310887">
        <ele>2408.118</ele>
        <time>2020-07-19T15:32:07Z</time>
      </trkpt>
      <trkpt lat="42.875920" lon="-0.310831">
        <ele>2408.576</ele>
        <time>2020-07-19T15:32:16Z</time>
      </trkpt>
      <trkpt lat="42.875894" lon="-0.310814">
        <ele>2408.239</ele>
        <time>2020-07-19T15:32:24Z</time>
      </trkpt>
      <trkpt lat="42.875861" lon="-0.310808">
        <ele>2410.726</ele>
        <time>2020-07-19T15:32:49Z</time>
      </trkpt>
      <trkpt lat="42.875822" lon="-0.310775">
        <ele>2414.698</ele>
        <time>2020-07-19T15:33:59Z</time>
      </trkpt>
      <trkpt lat="42.875807" lon="-0.310704">
        <ele>2414.988</ele>
        <time>2020-07-19T15:34:05Z</time>
      </trkpt>
      <trkpt lat="42.875770" lon="-0.310667">
        <ele>2411.530</ele>
        <time>2020-07-19T15:34:09Z</time>
      </trkpt>
      <trkpt lat="42.875723" lon="-0.310631">
        <ele>2416.386</ele>
        <time>2020-07-19T15:34:16Z</time>
      </trkpt>
      <trkpt lat="42.875705" lon="-0.310572">
        <ele>2417.962</ele>
        <time>2020-07-19T15:34:24Z</time>
      </trkpt>
      <trkpt lat="42.875705" lon="-0.310501">
        <ele>2418.283</ele>
        <time>2020-07-19T15:34:32Z</time>
      </trkpt>
      <trkpt lat="42.875701" lon="-0.310427">
        <ele>2418.811</ele>
        <time>2020-07-19T15:34:37Z</time>
      </trkpt>
      <trkpt lat="42.875663" lon="-0.310368">
        <ele>2420.208</ele>
        <time>2020-07-19T15:34:45Z</time>
      </trkpt>
      <trkpt lat="42.875619" lon="-0.310349">
        <ele>2420.971</ele>
        <time>2020-07-19T15:34:52Z</time>
      </trkpt>
      <trkpt lat="42.875566" lon="-0.310331">
        <ele>2418.619</ele>
        <time>2020-07-19T15:35:00Z</time>
      </trkpt>
      <trkpt lat="42.875542" lon="-0.310271">
        <ele>2417.592</ele>
        <time>2020-07-19T15:35:08Z</time>
      </trkpt>
      <trkpt lat="42.875520" lon="-0.310200">
        <ele>2424.229</ele>
        <time>2020-07-19T15:36:16Z</time>
      </trkpt>
      <trkpt lat="42.875482" lon="-0.310165">
        <ele>2425.431</ele>
        <time>2020-07-19T15:36:54Z</time>
      </trkpt>
      <trkpt lat="42.875444" lon="-0.310119">
        <ele>2425.051</ele>
        <time>2020-07-19T15:36:59Z</time>
      </trkpt>
      <trkpt lat="42.875407" lon="-0.310083">
        <ele>2426.753</ele>
        <time>2020-07-19T15:37:06Z</time>
      </trkpt>
      <trkpt lat="42.875368" lon="-0.310029">
        <ele>2426.349</ele>
        <time>2020-07-19T15:37:13Z</time>
      </trkpt>
      <trkpt lat="42.875333" lon="-0.309979">
        <ele>2427.388</ele>
        <time>2020-07-19T15:37:18Z</time>
      </trkpt>
      <trkpt lat="42.875301" lon="-0.309930">
        <ele>2431.824</ele>
        <time>2020-07-19T15:37:25Z</time>
      </trkpt>
      <trkpt lat="42.875289" lon="-0.309860">
        <ele>2433.326</ele>
        <time>2020-07-19T15:37:33Z</time>
      </trkpt>
      <trkpt lat="42.875283" lon="-0.309787">
        <ele>2434.708</ele>
        <time>2020-07-19T15:37:43Z</time>
      </trkpt>
      <trkpt lat="42.875332" lon="-0.309801">
        <ele>2435.623</ele>
        <time>2020-07-19T15:38:49Z</time>
      </trkpt>
      <trkpt lat="42.875388" lon="-0.309840">
        <ele>2438.721</ele>
        <time>2020-07-19T15:40:05Z</time>
      </trkpt>
      <trkpt lat="42.875442" lon="-0.309875">
        <ele>2438.164</ele>
        <time>2020-07-19T15:40:10Z</time>
      </trkpt>
      <trkpt lat="42.875494" lon="-0.309881">
        <ele>2437.981</ele>
        <time>2020-07-19T15:40:16Z</time>
      </trkpt>
      <trkpt lat="42.875544" lon="-0.309916">
        <ele>2438.523</ele>
        <time>2020-07-19T15:40:23Z</time>
      </trkpt>
      <trkpt lat="42.875579" lon="-0.309957">
        <ele>2441.673</ele>
        <time>2020-07-19T15:40:28Z</time>
      </trkpt>
      <trkpt lat="42.875563" lon="-0.309896">
        <ele>2444.385</ele>
        <time>2020-07-19T15:40:37Z</time>
      </trkpt>
      <trkpt lat="42.875534" lon="-0.309841">
        <ele>2445.451</ele>
        <time>2020-07-19T15:40:46Z</time>
      </trkpt>
      <trkpt lat="42.875579" lon="-0.309874">
        <ele>2447.112</ele>
        <time>2020-07-19T15:40:59Z</time>
      </trkpt>
      <trkpt lat="42.875620" lon="-0.309905">
        <ele>2450.532</ele>
        <time>2020-07-19T15:41:10Z</time>
      </trkpt>
      <trkpt lat="42.875650" lon="-0.309953">
        <ele>2457.505</ele>
        <time>2020-07-19T15:41:21Z</time>
      </trkpt>
      <trkpt lat="42.875692" lon="-0.309970">
        <ele>2465.808</ele>
        <time>2020-07-19T15:44:18Z</time>
      </trkpt>
      <trkpt lat="42.875742" lon="-0.310012">
        <ele>2471.636</ele>
        <time>2020-07-19T15:45:57Z</time>
      </trkpt>
      <trkpt lat="42.875720" lon="-0.309937">
        <ele>2465.324</ele>
        <time>2020-07-19T15:46:54Z</time>
      </trkpt>
      <trkpt lat="42.875704" lon="-0.309887">
        <ele>2457.617</ele>
        <time>2020-07-19T15:47:02Z</time>
      </trkpt>
      <trkpt lat="42.875695" lon="-0.309817">
        <ele>2450.854</ele>
        <time>2020-07-19T15:47:07Z</time>
      </trkpt>
      <trkpt lat="42.875671" lon="-0.309741">
        <ele>2447.386</ele>
        <time>2020-07-19T15:47:12Z</time>
      </trkpt>
      <trkpt lat="42.875665" lon="-0.309674">
        <ele>2444.476</ele>
        <time>2020-07-19T15:47:18Z</time>
      </trkpt>
      <trkpt lat="42.875697" lon="-0.309728">
        <ele>2440.128</ele>
        <time>2020-07-19T15:47:35Z</time>
      </trkpt>
      <trkpt lat="42.875733" lon="-0.309811">
        <ele>2439.024</ele>
        <time>2020-07-19T15:47:43Z</time>
      </trkpt>
      <trkpt lat="42.875738" lon="-0.309741">
        <ele>2435.063</ele>
        <time>2020-07-19T15:47:59Z</time>
      </trkpt>
      <trkpt lat="42.875748" lon="-0.309679">
        <ele>2436.244</ele>
        <time>2020-07-19T15:48:04Z</time>
      </trkpt>
      <trkpt lat="42.875765" lon="-0.309621">
        <ele>2434.218</ele>
        <time>2020-07-19T15:48:12Z</time>
      </trkpt>
      <trkpt lat="42.875809" lon="-0.309669">
        <ele>2430.808</ele>
        <time>2020-07-19T15:48:26Z</time>
      </trkpt>
      <trkpt lat="42.875835" lon="-0.309724">
        <ele>2429.111</ele>
        <time>2020-07-19T15:48:35Z</time>
      </trkpt>
      <trkpt lat="42.875876" lon="-0.309759">
        <ele>2428.559</ele>
        <time>2020-07-19T15:48:42Z</time>
      </trkpt>
      <trkpt lat="42.875916" lon="-0.309789">
        <ele>2425.912</ele>
        <time>2020-07-19T15:48:49Z</time>
      </trkpt>
      <trkpt lat="42.875956" lon="-0.309753">
        <ele>2426.239</ele>
        <time>2020-07-19T15:48:57Z</time>
      </trkpt>
      <trkpt lat="42.875934" lon="-0.309693">
        <ele>2425.521</ele>
        <time>2020-07-19T15:49:01Z</time>
      </trkpt>
      <trkpt lat="42.875908" lon="-0.309638">
        <ele>2424.591</ele>
        <time>2020-07-19T15:49:07Z</time>
      </trkpt>
      <trkpt lat="42.875900" lon="-0.309575">
        <ele>2422.963</ele>
        <time>2020-07-19T15:49:14Z</time>
      </trkpt>
      <trkpt lat="42.875885" lon="-0.309508">
        <ele>2421.799</ele>
        <time>2020-07-19T15:49:21Z</time>
      </trkpt>
      <trkpt lat="42.875866" lon="-0.309439">
        <ele>2420.578</ele>
        <time>2020-07-19T15:49:28Z</time>
      </trkpt>
      <trkpt lat="42.875915" lon="-0.309446">
        <ele>2417.133</ele>
        <time>2020-07-19T15:49:50Z</time>
      </trkpt>
      <trkpt lat="42.875951" lon="-0.309495">
        <ele>2416.526</ele>
        <time>2020-07-19T15:49:57Z</time>
      </trkpt>
      <trkpt lat="42.875994" lon="-0.309527">
        <ele>2414.208</ele>
        <time>2020-07-19T15:50:04Z</time>
      </trkpt>
      <trkpt lat="42.876038" lon="-0.309543">
        <ele>2413.182</ele>
        <time>2020-07-19T15:50:09Z</time>
      </trkpt>
      <trkpt lat="42.876086" lon="-0.309561">
        <ele>2410.570</ele>
        <time>2020-07-19T15:50:16Z</time>
      </trkpt>
      <trkpt lat="42.876072" lon="-0.309485">
        <ele>2410.663</ele>
        <time>2020-07-19T15:50:23Z</time>
      </trkpt>
      <trkpt lat="42.876048" lon="-0.309431">
        <ele>2411.170</ele>
        <time>2020-07-19T15:50:28Z</time>
      </trkpt>
      <trkpt lat="42.876027" lon="-0.309372">
        <ele>2409.112</ele>
        <time>2020-07-19T15:50:34Z</time>
      </trkpt>
      <trkpt lat="42.876074" lon="-0.309379">
        <ele>2407.242</ele>
        <time>2020-07-19T15:50:44Z</time>
      </trkpt>
      <trkpt lat="42.876117" lon="-0.309412">
        <ele>2404.914</ele>
        <time>2020-07-19T15:50:53Z</time>
      </trkpt>
      <trkpt lat="42.876165" lon="-0.309439">
        <ele>2405.520</ele>
        <time>2020-07-19T15:51:01Z</time>
      </trkpt>
      <trkpt lat="42.876210" lon="-0.309448">
        <ele>2404.296</ele>
        <time>2020-07-19T15:51:08Z</time>
      </trkpt>
      <trkpt lat="42.876257" lon="-0.309465">
        <ele>2402.531</ele>
        <time>2020-07-19T15:51:13Z</time>
      </trkpt>
      <trkpt lat="42.876303" lon="-0.309455">
        <ele>2401.524</ele>
        <time>2020-07-19T15:51:19Z</time>
      </trkpt>
      <trkpt lat="42.876345" lon="-0.309460">
        <ele>2398.808</ele>
        <time>2020-07-19T15:51:28Z</time>
      </trkpt>
      <trkpt lat="42.876401" lon="-0.309443">
        <ele>2398.794</ele>
        <time>2020-07-19T15:51:34Z</time>
      </trkpt>
      <trkpt lat="42.876359" lon="-0.309390">
        <ele>2398.772</ele>
        <time>2020-07-19T15:51:44Z</time>
      </trkpt>
      <trkpt lat="42.876316" lon="-0.309371">
        <ele>2396.685</ele>
        <time>2020-07-19T15:51:50Z</time>
      </trkpt>
      <trkpt lat="42.876273" lon="-0.309340">
        <ele>2396.032</ele>
        <time>2020-07-19T15:51:56Z</time>
      </trkpt>
      <trkpt lat="42.876227" lon="-0.309306">
        <ele>2393.924</ele>
        <time>2020-07-19T15:52:03Z</time>
      </trkpt>
      <trkpt lat="42.876192" lon="-0.309265">
        <ele>2392.164</ele>
        <time>2020-07-19T15:52:10Z</time>
      </trkpt>
      <trkpt lat="42.876143" lon="-0.309237">
        <ele>2392.276</ele>
        <time>2020-07-19T15:52:17Z</time>
      </trkpt>
      <trkpt lat="42.876103" lon="-0.309205">
        <ele>2391.132</ele>
        <time>2020-07-19T15:52:23Z</time>
      </trkpt>
      <trkpt lat="42.876105" lon="-0.309135">
        <ele>2389.318</ele>
        <time>2020-07-19T15:52:30Z</time>
      </trkpt>
      <trkpt lat="42.876160" lon="-0.309115">
        <ele>2388.698</ele>
        <time>2020-07-19T15:52:35Z</time>
      </trkpt>
      <trkpt lat="42.876209" lon="-0.309119">
        <ele>2386.917</ele>
        <time>2020-07-19T15:52:40Z</time>
      </trkpt>
      <trkpt lat="42.876256" lon="-0.309099">
        <ele>2385.608</ele>
        <time>2020-07-19T15:52:45Z</time>
      </trkpt>
      <trkpt lat="42.876312" lon="-0.309086">
        <ele>2385.976</ele>
        <time>2020-07-19T15:52:52Z</time>
      </trkpt>
      <trkpt lat="42.876358" lon="-0.309071">
        <ele>2384.014</ele>
        <time>2020-07-19T15:52:59Z</time>
      </trkpt>
      <trkpt lat="42.876409" lon="-0.309068">
        <ele>2383.597</ele>
        <time>2020-07-19T15:53:09Z</time>
      </trkpt>
      <trkpt lat="42.876457" lon="-0.309075">
        <ele>2380.744</ele>
        <time>2020-07-19T15:53:19Z</time>
      </trkpt>
      <trkpt lat="42.876503" lon="-0.309046">
        <ele>2380.966</ele>
        <time>2020-07-19T15:53:29Z</time>
      </trkpt>
      <trkpt lat="42.876541" lon="-0.308983">
        <ele>2380.816</ele>
        <time>2020-07-19T15:53:35Z</time>
      </trkpt>
      <trkpt lat="42.876557" lon="-0.308924">
        <ele>2379.048</ele>
        <time>2020-07-19T15:53:40Z</time>
      </trkpt>
      <trkpt lat="42.876607" lon="-0.308900">
        <ele>2378.424</ele>
        <time>2020-07-19T15:53:46Z</time>
      </trkpt>
      <trkpt lat="42.876655" lon="-0.308899">
        <ele>2375.879</ele>
        <time>2020-07-19T15:53:52Z</time>
      </trkpt>
      <trkpt lat="42.876637" lon="-0.308838">
        <ele>2373.305</ele>
        <time>2020-07-19T15:54:05Z</time>
      </trkpt>
      <trkpt lat="42.876680" lon="-0.308811">
        <ele>2371.925</ele>
        <time>2020-07-19T15:54:24Z</time>
      </trkpt>
      <trkpt lat="42.876730" lon="-0.308804">
        <ele>2369.708</ele>
        <time>2020-07-19T15:54:31Z</time>
      </trkpt>
      <trkpt lat="42.876753" lon="-0.308868">
        <ele>2369.162</ele>
        <time>2020-07-19T15:54:41Z</time>
      </trkpt>
      <trkpt lat="42.876767" lon="-0.308935">
        <ele>2367.630</ele>
        <time>2020-07-19T15:54:52Z</time>
      </trkpt>
      <trkpt lat="42.876788" lon="-0.308990">
        <ele>2365.293</ele>
        <time>2020-07-19T15:55:01Z</time>
      </trkpt>
      <trkpt lat="42.876811" lon="-0.308917">
        <ele>2363.480</ele>
        <time>2020-07-19T15:55:09Z</time>
      </trkpt>
      <trkpt lat="42.876802" lon="-0.308846">
        <ele>2362.382</ele>
        <time>2020-07-19T15:55:16Z</time>
      </trkpt>
      <trkpt lat="42.876811" lon="-0.308780">
        <ele>2361.332</ele>
        <time>2020-07-19T15:55:22Z</time>
      </trkpt>
      <trkpt lat="42.876767" lon="-0.308739">
        <ele>2361.444</ele>
        <time>2020-07-19T15:55:30Z</time>
      </trkpt>
      <trkpt lat="42.876731" lon="-0.308726">
        <ele>2359.880</ele>
        <time>2020-07-19T15:55:38Z</time>
      </trkpt>
      <trkpt lat="42.876767" lon="-0.308689">
        <ele>2359.572</ele>
        <time>2020-07-19T15:55:46Z</time>
      </trkpt>
      <trkpt lat="42.876800" lon="-0.308639">
        <ele>2355.313</ele>
        <time>2020-07-19T15:55:59Z</time>
      </trkpt>
      <trkpt lat="42.876842" lon="-0.308615">
        <ele>2354.114</ele>
        <time>2020-07-19T15:56:07Z</time>
      </trkpt>
      <trkpt lat="42.876889" lon="-0.308629">
        <ele>2354.308</ele>
        <time>2020-07-19T15:56:13Z</time>
      </trkpt>
      <trkpt lat="42.876923" lon="-0.308673">
        <ele>2353.242</ele>
        <time>2020-07-19T15:56:19Z</time>
      </trkpt>
      <trkpt lat="42.876967" lon="-0.308639">
        <ele>2352.140</ele>
        <time>2020-07-19T15:56:33Z</time>
      </trkpt>
      <trkpt lat="42.876987" lon="-0.308574">
        <ele>2350.533</ele>
        <time>2020-07-19T15:56:40Z</time>
      </trkpt>
      <trkpt lat="42.877035" lon="-0.308589">
        <ele>2348.110</ele>
        <time>2020-07-19T15:56:54Z</time>
      </trkpt>
      <trkpt lat="42.877063" lon="-0.308648">
        <ele>2347.452</ele>
        <time>2020-07-19T15:57:01Z</time>
      </trkpt>
      <trkpt lat="42.877077" lon="-0.308714">
        <ele>2346.562</ele>
        <time>2020-07-19T15:57:08Z</time>
      </trkpt>
      <trkpt lat="42.877118" lon="-0.308683">
        <ele>2344.624</ele>
        <time>2020-07-19T15:57:14Z</time>
      </trkpt>
      <trkpt lat="42.877133" lon="-0.308618">
        <ele>2343.710</ele>
        <time>2020-07-19T15:57:19Z</time>
      </trkpt>
      <trkpt lat="42.877132" lon="-0.308575">
        <ele>2343.145</ele>
        <time>2020-07-19T15:57:26Z</time>
      </trkpt>
      <trkpt lat="42.877120" lon="-0.308519">
        <ele>2340.947</ele>
        <time>2020-07-19T15:57:36Z</time>
      </trkpt>
      <trkpt lat="42.877129" lon="-0.308446">
        <ele>2340.911</ele>
        <time>2020-07-19T15:57:53Z</time>
      </trkpt>
      <trkpt lat="42.877160" lon="-0.308519">
        <ele>2337.008</ele>
        <time>2020-07-19T16:00:22Z</time>
      </trkpt>
      <trkpt lat="42.877201" lon="-0.308539">
        <ele>2335.619</ele>
        <time>2020-07-19T16:00:32Z</time>
      </trkpt>
      <trkpt lat="42.877238" lon="-0.308497">
        <ele>2335.497</ele>
        <time>2020-07-19T16:00:40Z</time>
      </trkpt>
      <trkpt lat="42.877283" lon="-0.308457">
        <ele>2334.180</ele>
        <time>2020-07-19T16:00:50Z</time>
      </trkpt>
      <trkpt lat="42.877328" lon="-0.308448">
        <ele>2331.797</ele>
        <time>2020-07-19T16:01:07Z</time>
      </trkpt>
      <trkpt lat="42.877364" lon="-0.308512">
        <ele>2329.479</ele>
        <time>2020-07-19T16:01:19Z</time>
      </trkpt>
      <trkpt lat="42.877381" lon="-0.308449">
        <ele>2328.429</ele>
        <time>2020-07-19T16:01:42Z</time>
      </trkpt>
      <trkpt lat="42.877384" lon="-0.308385">
        <ele>2326.131</ele>
        <time>2020-07-19T16:01:53Z</time>
      </trkpt>
      <trkpt lat="42.877379" lon="-0.308312">
        <ele>2324.917</ele>
        <time>2020-07-19T16:02:01Z</time>
      </trkpt>
      <trkpt lat="42.877364" lon="-0.308253">
        <ele>2323.088</ele>
        <time>2020-07-19T16:02:08Z</time>
      </trkpt>
      <trkpt lat="42.877343" lon="-0.308189">
        <ele>2323.124</ele>
        <time>2020-07-19T16:02:15Z</time>
      </trkpt>
      <trkpt lat="42.877387" lon="-0.308202">
        <ele>2320.326</ele>
        <time>2020-07-19T16:02:24Z</time>
      </trkpt>
      <trkpt lat="42.877427" lon="-0.308246">
        <ele>2321.008</ele>
        <time>2020-07-19T16:02:30Z</time>
      </trkpt>
      <trkpt lat="42.877463" lon="-0.308287">
        <ele>2320.743</ele>
        <time>2020-07-19T16:02:35Z</time>
      </trkpt>
      <trkpt lat="42.877510" lon="-0.308309">
        <ele>2320.331</ele>
        <time>2020-07-19T16:02:43Z</time>
      </trkpt>
      <trkpt lat="42.877565" lon="-0.308306">
        <ele>2316.574</ele>
        <time>2020-07-19T16:02:50Z</time>
      </trkpt>
      <trkpt lat="42.877619" lon="-0.308314">
        <ele>2319.291</ele>
        <time>2020-07-19T16:02:57Z</time>
      </trkpt>
      <trkpt lat="42.877654" lon="-0.308363">
        <ele>2318.723</ele>
        <time>2020-07-19T16:03:03Z</time>
      </trkpt>
      <trkpt lat="42.877689" lon="-0.308409">
        <ele>2318.243</ele>
        <time>2020-07-19T16:03:10Z</time>
      </trkpt>
      <trkpt lat="42.877729" lon="-0.308414">
        <ele>2316.665</ele>
        <time>2020-07-19T16:03:20Z</time>
      </trkpt>
      <trkpt lat="42.877758" lon="-0.308466">
        <ele>2316.561</ele>
        <time>2020-07-19T16:03:28Z</time>
      </trkpt>
      <trkpt lat="42.877803" lon="-0.308471">
        <ele>2315.289</ele>
        <time>2020-07-19T16:03:34Z</time>
      </trkpt>
      <trkpt lat="42.877856" lon="-0.308444">
        <ele>2313.306</ele>
        <time>2020-07-19T16:03:39Z</time>
      </trkpt>
      <trkpt lat="42.877908" lon="-0.308427">
        <ele>2314.126</ele>
        <time>2020-07-19T16:03:45Z</time>
      </trkpt>
      <trkpt lat="42.877963" lon="-0.308411">
        <ele>2312.508</ele>
        <time>2020-07-19T16:03:52Z</time>
      </trkpt>
      <trkpt lat="42.878009" lon="-0.308373">
        <ele>2313.783</ele>
        <time>2020-07-19T16:03:57Z</time>
      </trkpt>
      <trkpt lat="42.878040" lon="-0.308318">
        <ele>2311.971</ele>
        <time>2020-07-19T16:04:03Z</time>
      </trkpt>
      <trkpt lat="42.878078" lon="-0.308281">
        <ele>2311.454</ele>
        <time>2020-07-19T16:04:10Z</time>
      </trkpt>
      <trkpt lat="42.878110" lon="-0.308235">
        <ele>2309.181</ele>
        <time>2020-07-19T16:04:17Z</time>
      </trkpt>
      <trkpt lat="42.878161" lon="-0.308217">
        <ele>2308.763</ele>
        <time>2020-07-19T16:04:23Z</time>
      </trkpt>
      <trkpt lat="42.878208" lon="-0.308193">
        <ele>2307.763</ele>
        <time>2020-07-19T16:04:29Z</time>
      </trkpt>
      <trkpt lat="42.878227" lon="-0.308130">
        <ele>2307.595</ele>
        <time>2020-07-19T16:04:37Z</time>
      </trkpt>
      <trkpt lat="42.878225" lon="-0.308063">
        <ele>2306.181</ele>
        <time>2020-07-19T16:04:43Z</time>
      </trkpt>
      <trkpt lat="42.878255" lon="-0.307987">
        <ele>2303.441</ele>
        <time>2020-07-19T16:05:22Z</time>
      </trkpt>
      <trkpt lat="42.878276" lon="-0.307925">
        <ele>2303.181</ele>
        <time>2020-07-19T16:05:25Z</time>
      </trkpt>
      <trkpt lat="42.878299" lon="-0.307862">
        <ele>2302.309</ele>
        <time>2020-07-19T16:05:29Z</time>
      </trkpt>
      <trkpt lat="42.878328" lon="-0.307807">
        <ele>2302.208</ele>
        <time>2020-07-19T16:05:33Z</time>
      </trkpt>
      <trkpt lat="42.878361" lon="-0.307758">
        <ele>2301.979</ele>
        <time>2020-07-19T16:05:40Z</time>
      </trkpt>
      <trkpt lat="42.878351" lon="-0.307694">
        <ele>2300.777</ele>
        <time>2020-07-19T16:05:50Z</time>
      </trkpt>
      <trkpt lat="42.878310" lon="-0.307656">
        <ele>2298.060</ele>
        <time>2020-07-19T16:06:03Z</time>
      </trkpt>
      <trkpt lat="42.878273" lon="-0.307614">
        <ele>2296.717</ele>
        <time>2020-07-19T16:06:09Z</time>
      </trkpt>
      <trkpt lat="42.878221" lon="-0.307585">
        <ele>2296.849</ele>
        <time>2020-07-19T16:06:14Z</time>
      </trkpt>
      <trkpt lat="42.878191" lon="-0.307532">
        <ele>2296.439</ele>
        <time>2020-07-19T16:06:19Z</time>
      </trkpt>
      <trkpt lat="42.878150" lon="-0.307500">
        <ele>2295.531</ele>
        <time>2020-07-19T16:06:25Z</time>
      </trkpt>
      <trkpt lat="42.878103" lon="-0.307481">
        <ele>2295.087</ele>
        <time>2020-07-19T16:06:30Z</time>
      </trkpt>
      <trkpt lat="42.878100" lon="-0.307411">
        <ele>2294.988</ele>
        <time>2020-07-19T16:06:38Z</time>
      </trkpt>
      <trkpt lat="42.878152" lon="-0.307375">
        <ele>2293.924</ele>
        <time>2020-07-19T16:06:43Z</time>
      </trkpt>
      <trkpt lat="42.878194" lon="-0.307351">
        <ele>2293.526</ele>
        <time>2020-07-19T16:06:47Z</time>
      </trkpt>
      <trkpt lat="42.878203" lon="-0.307285">
        <ele>2293.708</ele>
        <time>2020-07-19T16:06:52Z</time>
      </trkpt>
      <trkpt lat="42.878212" lon="-0.307203">
        <ele>2295.083</ele>
        <time>2020-07-19T16:06:57Z</time>
      </trkpt>
      <trkpt lat="42.878233" lon="-0.307149">
        <ele>2295.521</ele>
        <time>2020-07-19T16:07:01Z</time>
      </trkpt>
      <trkpt lat="42.878259" lon="-0.307085">
        <ele>2294.974</ele>
        <time>2020-07-19T16:07:07Z</time>
      </trkpt>
      <trkpt lat="42.878297" lon="-0.307034">
        <ele>2294.251</ele>
        <time>2020-07-19T16:07:12Z</time>
      </trkpt>
      <trkpt lat="42.878338" lon="-0.306998">
        <ele>2292.323</ele>
        <time>2020-07-19T16:07:18Z</time>
      </trkpt>
      <trkpt lat="42.878365" lon="-0.306938">
        <ele>2291.993</ele>
        <time>2020-07-19T16:07:25Z</time>
      </trkpt>
      <trkpt lat="42.878358" lon="-0.306870">
        <ele>2291.925</ele>
        <time>2020-07-19T16:07:38Z</time>
      </trkpt>
      <trkpt lat="42.878383" lon="-0.306812">
        <ele>2290.521</ele>
        <time>2020-07-19T16:07:44Z</time>
      </trkpt>
      <trkpt lat="42.878407" lon="-0.306737">
        <ele>2290.886</ele>
        <time>2020-07-19T16:07:50Z</time>
      </trkpt>
      <trkpt lat="42.878390" lon="-0.306670">
        <ele>2287.660</ele>
        <time>2020-07-19T16:07:55Z</time>
      </trkpt>
      <trkpt lat="42.878384" lon="-0.306593">
        <ele>2291.126</ele>
        <time>2020-07-19T16:08:02Z</time>
      </trkpt>
      <trkpt lat="42.878398" lon="-0.306523">
        <ele>2290.308</ele>
        <time>2020-07-19T16:08:09Z</time>
      </trkpt>
      <trkpt lat="42.878433" lon="-0.306474">
        <ele>2291.433</ele>
        <time>2020-07-19T16:08:33Z</time>
      </trkpt>
      <trkpt lat="42.878474" lon="-0.306443">
        <ele>2290.621</ele>
        <time>2020-07-19T16:08:37Z</time>
      </trkpt>
      <trkpt lat="42.878516" lon="-0.306402">
        <ele>2289.294</ele>
        <time>2020-07-19T16:08:41Z</time>
      </trkpt>
      <trkpt lat="42.878556" lon="-0.306372">
        <ele>2289.861</ele>
        <time>2020-07-19T16:08:45Z</time>
      </trkpt>
      <trkpt lat="42.878609" lon="-0.306367">
        <ele>2288.333</ele>
        <time>2020-07-19T16:08:49Z</time>
      </trkpt>
      <trkpt lat="42.878657" lon="-0.306374">
        <ele>2288.053</ele>
        <time>2020-07-19T16:08:54Z</time>
      </trkpt>
      <trkpt lat="42.878706" lon="-0.306350">
        <ele>2287.735</ele>
        <time>2020-07-19T16:08:59Z</time>
      </trkpt>
      <trkpt lat="42.878757" lon="-0.306333">
        <ele>2287.121</ele>
        <time>2020-07-19T16:09:06Z</time>
      </trkpt>
      <trkpt lat="42.878794" lon="-0.306285">
        <ele>2288.089</ele>
        <time>2020-07-19T16:09:12Z</time>
      </trkpt>
      <trkpt lat="42.878788" lon="-0.306222">
        <ele>2288.106</ele>
        <time>2020-07-19T16:09:18Z</time>
      </trkpt>
      <trkpt lat="42.878768" lon="-0.306148">
        <ele>2288.526</ele>
        <time>2020-07-19T16:09:25Z</time>
      </trkpt>
      <trkpt lat="42.878758" lon="-0.306083">
        <ele>2288.408</ele>
        <time>2020-07-19T16:09:42Z</time>
      </trkpt>
      <trkpt lat="42.878727" lon="-0.306015">
        <ele>2290.453</ele>
        <time>2020-07-19T16:09:47Z</time>
      </trkpt>
      <trkpt lat="42.878698" lon="-0.305951">
        <ele>2289.431</ele>
        <time>2020-07-19T16:09:53Z</time>
      </trkpt>
      <trkpt lat="42.878670" lon="-0.305897">
        <ele>2290.654</ele>
        <time>2020-07-19T16:09:57Z</time>
      </trkpt>
      <trkpt lat="42.878643" lon="-0.305845">
        <ele>2292.071</ele>
        <time>2020-07-19T16:10:01Z</time>
      </trkpt>
      <trkpt lat="42.878606" lon="-0.305787">
        <ele>2291.353</ele>
        <time>2020-07-19T16:10:07Z</time>
      </trkpt>
      <trkpt lat="42.878570" lon="-0.305729">
        <ele>2291.533</ele>
        <time>2020-07-19T16:10:16Z</time>
      </trkpt>
      <trkpt lat="42.878527" lon="-0.305701">
        <ele>2293.385</ele>
        <time>2020-07-19T16:10:22Z</time>
      </trkpt>
      <trkpt lat="42.878482" lon="-0.305682">
        <ele>2292.911</ele>
        <time>2020-07-19T16:10:29Z</time>
      </trkpt>
      <trkpt lat="42.878429" lon="-0.305669">
        <ele>2292.582</ele>
        <time>2020-07-19T16:10:35Z</time>
      </trkpt>
      <trkpt lat="42.878372" lon="-0.305672">
        <ele>2294.643</ele>
        <time>2020-07-19T16:10:41Z</time>
      </trkpt>
      <trkpt lat="42.878326" lon="-0.305643">
        <ele>2293.817</ele>
        <time>2020-07-19T16:10:47Z</time>
      </trkpt>
      <trkpt lat="42.878301" lon="-0.305581">
        <ele>2294.008</ele>
        <time>2020-07-19T16:11:03Z</time>
      </trkpt>
      <trkpt lat="42.878262" lon="-0.305543">
        <ele>2290.823</ele>
        <time>2020-07-19T16:11:09Z</time>
      </trkpt>
      <trkpt lat="42.878242" lon="-0.305482">
        <ele>2289.661</ele>
        <time>2020-07-19T16:11:14Z</time>
      </trkpt>
      <trkpt lat="42.878222" lon="-0.305410">
        <ele>2292.634</ele>
        <time>2020-07-19T16:11:20Z</time>
      </trkpt>
      <trkpt lat="42.878195" lon="-0.305353">
        <ele>2293.411</ele>
        <time>2020-07-19T16:11:26Z</time>
      </trkpt>
      <trkpt lat="42.878161" lon="-0.305297">
        <ele>2291.563</ele>
        <time>2020-07-19T16:11:30Z</time>
      </trkpt>
      <trkpt lat="42.878116" lon="-0.305254">
        <ele>2294.943</ele>
        <time>2020-07-19T16:11:36Z</time>
      </trkpt>
      <trkpt lat="42.878082" lon="-0.305246">
        <ele>2296.045</ele>
        <time>2020-07-19T16:11:40Z</time>
      </trkpt>
      <trkpt lat="42.878068" lon="-0.305299">
        <ele>2296.281</ele>
        <time>2020-07-19T16:11:54Z</time>
      </trkpt>
      <trkpt lat="42.878034" lon="-0.305340">
        <ele>2295.363</ele>
        <time>2020-07-19T16:13:29Z</time>
      </trkpt>
      <trkpt lat="42.877988" lon="-0.305310">
        <ele>2295.444</ele>
        <time>2020-07-19T16:15:12Z</time>
      </trkpt>
      <trkpt lat="42.877957" lon="-0.305262">
        <ele>2296.918</ele>
        <time>2020-07-19T16:15:17Z</time>
      </trkpt>
      <trkpt lat="42.877971" lon="-0.305197">
        <ele>2297.908</ele>
        <time>2020-07-19T16:15:24Z</time>
      </trkpt>
      <trkpt lat="42.877969" lon="-0.305136">
        <ele>2299.831</ele>
        <time>2020-07-19T16:15:34Z</time>
      </trkpt>
      <trkpt lat="42.877963" lon="-0.305067">
        <ele>2297.649</ele>
        <time>2020-07-19T16:15:44Z</time>
      </trkpt>
      <trkpt lat="42.877975" lon="-0.304994">
        <ele>2302.692</ele>
        <time>2020-07-19T16:15:54Z</time>
      </trkpt>
      <trkpt lat="42.877962" lon="-0.304938">
        <ele>2302.629</ele>
        <time>2020-07-19T16:16:01Z</time>
      </trkpt>
      <trkpt lat="42.877913" lon="-0.304906">
        <ele>2303.741</ele>
        <time>2020-07-19T16:16:10Z</time>
      </trkpt>
      <trkpt lat="42.877881" lon="-0.304860">
        <ele>2304.261</ele>
        <time>2020-07-19T16:16:18Z</time>
      </trkpt>
      <trkpt lat="42.877871" lon="-0.304790">
        <ele>2303.263</ele>
        <time>2020-07-19T16:16:24Z</time>
      </trkpt>
      <trkpt lat="42.877891" lon="-0.304732">
        <ele>2304.469</ele>
        <time>2020-07-19T16:16:34Z</time>
      </trkpt>
      <trkpt lat="42.877896" lon="-0.304670">
        <ele>2306.894</ele>
        <time>2020-07-19T16:16:42Z</time>
      </trkpt>
      <trkpt lat="42.877908" lon="-0.304607">
        <ele>2307.057</ele>
        <time>2020-07-19T16:16:50Z</time>
      </trkpt>
      <trkpt lat="42.877921" lon="-0.304537">
        <ele>2307.022</ele>
        <time>2020-07-19T16:16:59Z</time>
      </trkpt>
      <trkpt lat="42.877943" lon="-0.304477">
        <ele>2306.308</ele>
        <time>2020-07-19T16:17:06Z</time>
      </trkpt>
      <trkpt lat="42.877963" lon="-0.304414">
        <ele>2306.124</ele>
        <time>2020-07-19T16:17:11Z</time>
      </trkpt>
      <trkpt lat="42.877963" lon="-0.304346">
        <ele>2305.382</ele>
        <time>2020-07-19T16:17:19Z</time>
      </trkpt>
      <trkpt lat="42.877973" lon="-0.304279">
        <ele>2305.825</ele>
        <time>2020-07-19T16:17:23Z</time>
      </trkpt>
      <trkpt lat="42.877996" lon="-0.304226">
        <ele>2305.682</ele>
        <time>2020-07-19T16:17:30Z</time>
      </trkpt>
      <trkpt lat="42.878024" lon="-0.304175">
        <ele>2305.744</ele>
        <time>2020-07-19T16:17:36Z</time>
      </trkpt>
      <trkpt lat="42.878071" lon="-0.304144">
        <ele>2306.554</ele>
        <time>2020-07-19T16:17:42Z</time>
      </trkpt>
      <trkpt lat="42.878096" lon="-0.304087">
        <ele>2305.226</ele>
        <time>2020-07-19T16:17:48Z</time>
      </trkpt>
      <trkpt lat="42.878102" lon="-0.304013">
        <ele>2305.912</ele>
        <time>2020-07-19T16:17:52Z</time>
      </trkpt>
      <trkpt lat="42.878130" lon="-0.303955">
        <ele>2308.085</ele>
        <time>2020-07-19T16:17:58Z</time>
      </trkpt>
      <trkpt lat="42.878165" lon="-0.303908">
        <ele>2307.089</ele>
        <time>2020-07-19T16:18:06Z</time>
      </trkpt>
      <trkpt lat="42.878195" lon="-0.303856">
        <ele>2306.817</ele>
        <time>2020-07-19T16:18:13Z</time>
      </trkpt>
      <trkpt lat="42.878217" lon="-0.303793">
        <ele>2303.908</ele>
        <time>2020-07-19T16:18:21Z</time>
      </trkpt>
      <trkpt lat="42.878233" lon="-0.303735">
        <ele>2308.043</ele>
        <time>2020-07-19T16:18:27Z</time>
      </trkpt>
      <trkpt lat="42.878252" lon="-0.303677">
        <ele>2307.051</ele>
        <time>2020-07-19T16:18:35Z</time>
      </trkpt>
      <trkpt lat="42.878276" lon="-0.303640">
        <ele>2307.074</ele>
        <time>2020-07-19T16:18:41Z</time>
      </trkpt>
      <trkpt lat="42.878315" lon="-0.303622">
        <ele>2307.981</ele>
        <time>2020-07-19T16:18:52Z</time>
      </trkpt>
      <trkpt lat="42.878357" lon="-0.303589">
        <ele>2309.423</ele>
        <time>2020-07-19T16:18:59Z</time>
      </trkpt>
      <trkpt lat="42.878383" lon="-0.303540">
        <ele>2311.823</ele>
        <time>2020-07-19T16:19:04Z</time>
      </trkpt>
      <trkpt lat="42.878381" lon="-0.303470">
        <ele>2310.385</ele>
        <time>2020-07-19T16:19:10Z</time>
      </trkpt>
      <trkpt lat="42.878352" lon="-0.303406">
        <ele>2310.781</ele>
        <time>2020-07-19T16:19:15Z</time>
      </trkpt>
      <trkpt lat="42.878347" lon="-0.303334">
        <ele>2311.151</ele>
        <time>2020-07-19T16:19:19Z</time>
      </trkpt>
      <trkpt lat="42.878327" lon="-0.303260">
        <ele>2311.901</ele>
        <time>2020-07-19T16:19:26Z</time>
      </trkpt>
      <trkpt lat="42.878334" lon="-0.303194">
        <ele>2311.211</ele>
        <time>2020-07-19T16:19:31Z</time>
      </trkpt>
      <trkpt lat="42.878326" lon="-0.303132">
        <ele>2313.908</ele>
        <time>2020-07-19T16:19:42Z</time>
      </trkpt>
      <trkpt lat="42.878303" lon="-0.303041">
        <ele>2313.540</ele>
        <time>2020-07-19T16:22:05Z</time>
      </trkpt>
      <trkpt lat="42.878321" lon="-0.302973">
        <ele>2315.158</ele>
        <time>2020-07-19T16:22:22Z</time>
      </trkpt>
      <trkpt lat="42.878353" lon="-0.302925">
        <ele>2316.221</ele>
        <time>2020-07-19T16:22:26Z</time>
      </trkpt>
      <trkpt lat="42.878385" lon="-0.302866">
        <ele>2314.898</ele>
        <time>2020-07-19T16:22:34Z</time>
      </trkpt>
      <trkpt lat="42.878419" lon="-0.302814">
        <ele>2316.940</ele>
        <time>2020-07-19T16:22:38Z</time>
      </trkpt>
      <trkpt lat="42.878459" lon="-0.302776">
        <ele>2318.990</ele>
        <time>2020-07-19T16:22:44Z</time>
      </trkpt>
      <trkpt lat="42.878431" lon="-0.302725">
        <ele>2316.492</ele>
        <time>2020-07-19T16:22:57Z</time>
      </trkpt>
      <trkpt lat="42.878378" lon="-0.302715">
        <ele>2322.898</ele>
        <time>2020-07-19T16:23:05Z</time>
      </trkpt>
      <trkpt lat="42.878336" lon="-0.302709">
        <ele>2321.599</ele>
        <time>2020-07-19T16:23:11Z</time>
      </trkpt>
      <trkpt lat="42.878335" lon="-0.302645">
        <ele>2322.507</ele>
        <time>2020-07-19T16:23:27Z</time>
      </trkpt>
      <trkpt lat="42.878359" lon="-0.302587">
        <ele>2325.827</ele>
        <time>2020-07-19T16:23:36Z</time>
      </trkpt>
      <trkpt lat="42.878377" lon="-0.302530">
        <ele>2325.408</ele>
        <time>2020-07-19T16:23:50Z</time>
      </trkpt>
      <trkpt lat="42.878394" lon="-0.302592">
        <ele>2325.084</ele>
        <time>2020-07-19T16:24:02Z</time>
      </trkpt>
      <trkpt lat="42.878416" lon="-0.302537">
        <ele>2328.992</ele>
        <time>2020-07-19T16:24:27Z</time>
      </trkpt>
      <trkpt lat="42.878431" lon="-0.302475">
        <ele>2328.825</ele>
        <time>2020-07-19T16:24:33Z</time>
      </trkpt>
      <trkpt lat="42.878453" lon="-0.302415">
        <ele>2329.192</ele>
        <time>2020-07-19T16:24:44Z</time>
      </trkpt>
      <trkpt lat="42.878449" lon="-0.302351">
        <ele>2330.944</ele>
        <time>2020-07-19T16:24:58Z</time>
      </trkpt>
      <trkpt lat="42.878424" lon="-0.302295">
        <ele>2332.284</ele>
        <time>2020-07-19T16:25:09Z</time>
      </trkpt>
      <trkpt lat="42.878383" lon="-0.302239">
        <ele>2332.136</ele>
        <time>2020-07-19T16:25:15Z</time>
      </trkpt>
      <trkpt lat="42.878389" lon="-0.302164">
        <ele>2333.252</ele>
        <time>2020-07-19T16:25:21Z</time>
      </trkpt>
      <trkpt lat="42.878408" lon="-0.302104">
        <ele>2335.857</ele>
        <time>2020-07-19T16:28:14Z</time>
      </trkpt>
      <trkpt lat="42.878460" lon="-0.302059">
        <ele>2335.400</ele>
        <time>2020-07-19T16:28:19Z</time>
      </trkpt>
      <trkpt lat="42.878507" lon="-0.302053">
        <ele>2335.720</ele>
        <time>2020-07-19T16:28:23Z</time>
      </trkpt>
      <trkpt lat="42.878555" lon="-0.302046">
        <ele>2334.608</ele>
        <time>2020-07-19T16:28:27Z</time>
      </trkpt>
      <trkpt lat="42.878606" lon="-0.302023">
        <ele>2336.020</ele>
        <time>2020-07-19T16:28:34Z</time>
      </trkpt>
      <trkpt lat="42.878638" lon="-0.301968">
        <ele>2335.878</ele>
        <time>2020-07-19T16:28:42Z</time>
      </trkpt>
      <trkpt lat="42.878678" lon="-0.301928">
        <ele>2335.151</ele>
        <time>2020-07-19T16:28:48Z</time>
      </trkpt>
      <trkpt lat="42.878725" lon="-0.301927">
        <ele>2336.318</ele>
        <time>2020-07-19T16:28:54Z</time>
      </trkpt>
      <trkpt lat="42.878766" lon="-0.301889">
        <ele>2338.480</ele>
        <time>2020-07-19T16:29:00Z</time>
      </trkpt>
      <trkpt lat="42.878814" lon="-0.301881">
        <ele>2339.450</ele>
        <time>2020-07-19T16:29:07Z</time>
      </trkpt>
      <trkpt lat="42.878865" lon="-0.301862">
        <ele>2340.232</ele>
        <time>2020-07-19T16:29:15Z</time>
      </trkpt>
      <trkpt lat="42.878919" lon="-0.301861">
        <ele>2339.258</ele>
        <time>2020-07-19T16:29:23Z</time>
      </trkpt>
      <trkpt lat="42.878973" lon="-0.301858">
        <ele>2341.511</ele>
        <time>2020-07-19T16:29:28Z</time>
      </trkpt>
      <trkpt lat="42.879007" lon="-0.301818">
        <ele>2342.121</ele>
        <time>2020-07-19T16:29:35Z</time>
      </trkpt>
      <trkpt lat="42.879042" lon="-0.301776">
        <ele>2342.003</ele>
        <time>2020-07-19T16:29:42Z</time>
      </trkpt>
      <trkpt lat="42.879088" lon="-0.301762">
        <ele>2341.508</ele>
        <time>2020-07-19T16:29:48Z</time>
      </trkpt>
      <trkpt lat="42.879131" lon="-0.301723">
        <ele>2342.016</ele>
        <time>2020-07-19T16:29:57Z</time>
      </trkpt>
      <trkpt lat="42.879177" lon="-0.301695">
        <ele>2342.244</ele>
        <time>2020-07-19T16:30:02Z</time>
      </trkpt>
      <trkpt lat="42.879233" lon="-0.301694">
        <ele>2342.467</ele>
        <time>2020-07-19T16:30:10Z</time>
      </trkpt>
      <trkpt lat="42.879283" lon="-0.301676">
        <ele>2341.344</ele>
        <time>2020-07-19T16:30:20Z</time>
      </trkpt>
      <trkpt lat="42.879331" lon="-0.301668">
        <ele>2339.466</ele>
        <time>2020-07-19T16:30:29Z</time>
      </trkpt>
      <trkpt lat="42.879380" lon="-0.301644">
        <ele>2338.316</ele>
        <time>2020-07-19T16:30:36Z</time>
      </trkpt>
      <trkpt lat="42.879430" lon="-0.301664">
        <ele>2341.388</ele>
        <time>2020-07-19T16:30:44Z</time>
      </trkpt>
      <trkpt lat="42.879478" lon="-0.301672">
        <ele>2339.744</ele>
        <time>2020-07-19T16:30:51Z</time>
      </trkpt>
      <trkpt lat="42.879527" lon="-0.301661">
        <ele>2338.024</ele>
        <time>2020-07-19T16:31:09Z</time>
      </trkpt>
      <trkpt lat="42.879576" lon="-0.301656">
        <ele>2336.104</ele>
        <time>2020-07-19T16:31:18Z</time>
      </trkpt>
      <trkpt lat="42.879628" lon="-0.301638">
        <ele>2335.214</ele>
        <time>2020-07-19T16:31:26Z</time>
      </trkpt>
      <trkpt lat="42.879664" lon="-0.301598">
        <ele>2334.508</ele>
        <time>2020-07-19T16:31:34Z</time>
      </trkpt>
      <trkpt lat="42.879707" lon="-0.301565">
        <ele>2334.087</ele>
        <time>2020-07-19T16:31:40Z</time>
      </trkpt>
      <trkpt lat="42.879763" lon="-0.301558">
        <ele>2333.365</ele>
        <time>2020-07-19T16:31:47Z</time>
      </trkpt>
      <trkpt lat="42.879812" lon="-0.301563">
        <ele>2331.688</ele>
        <time>2020-07-19T16:31:54Z</time>
      </trkpt>
      <trkpt lat="42.879856" lon="-0.301532">
        <ele>2332.635</ele>
        <time>2020-07-19T16:31:58Z</time>
      </trkpt>
      <trkpt lat="42.879893" lon="-0.301494">
        <ele>2332.627</ele>
        <time>2020-07-19T16:32:05Z</time>
      </trkpt>
      <trkpt lat="42.879936" lon="-0.301453">
        <ele>2333.697</ele>
        <time>2020-07-19T16:32:09Z</time>
      </trkpt>
      <trkpt lat="42.879987" lon="-0.301446">
        <ele>2332.249</ele>
        <time>2020-07-19T16:32:18Z</time>
      </trkpt>
      <trkpt lat="42.880010" lon="-0.301393">
        <ele>2331.795</ele>
        <time>2020-07-19T16:32:25Z</time>
      </trkpt>
      <trkpt lat="42.880007" lon="-0.301319">
        <ele>2331.278</ele>
        <time>2020-07-19T16:32:30Z</time>
      </trkpt>
      <trkpt lat="42.880031" lon="-0.301260">
        <ele>2330.133</ele>
        <time>2020-07-19T16:32:37Z</time>
      </trkpt>
      <trkpt lat="42.880076" lon="-0.301238">
        <ele>2329.226</ele>
        <time>2020-07-19T16:32:43Z</time>
      </trkpt>
      <trkpt lat="42.880119" lon="-0.301215">
        <ele>2330.108</ele>
        <time>2020-07-19T16:32:47Z</time>
      </trkpt>
      <trkpt lat="42.880158" lon="-0.301161">
        <ele>2330.272</ele>
        <time>2020-07-19T16:32:52Z</time>
      </trkpt>
      <trkpt lat="42.880202" lon="-0.301116">
        <ele>2331.090</ele>
        <time>2020-07-19T16:33:01Z</time>
      </trkpt>
      <trkpt lat="42.880235" lon="-0.301061">
        <ele>2331.213</ele>
        <time>2020-07-19T16:33:10Z</time>
      </trkpt>
      <trkpt lat="42.880250" lon="-0.301000">
        <ele>2330.470</ele>
        <time>2020-07-19T16:33:15Z</time>
      </trkpt>
      <trkpt lat="42.880295" lon="-0.300962">
        <ele>2330.452</ele>
        <time>2020-07-19T16:33:20Z</time>
      </trkpt>
      <trkpt lat="42.880338" lon="-0.300927">
        <ele>2329.812</ele>
        <time>2020-07-19T16:33:26Z</time>
      </trkpt>
      <trkpt lat="42.880382" lon="-0.300905">
        <ele>2330.814</ele>
        <time>2020-07-19T16:33:30Z</time>
      </trkpt>
      <trkpt lat="42.880416" lon="-0.300845">
        <ele>2329.620</ele>
        <time>2020-07-19T16:33:36Z</time>
      </trkpt>
      <trkpt lat="42.880468" lon="-0.300827">
        <ele>2329.465</ele>
        <time>2020-07-19T16:33:44Z</time>
      </trkpt>
      <trkpt lat="42.880513" lon="-0.300804">
        <ele>2333.368</ele>
        <time>2020-07-19T16:33:51Z</time>
      </trkpt>
      <trkpt lat="42.880561" lon="-0.300792">
        <ele>2334.614</ele>
        <time>2020-07-19T16:33:56Z</time>
      </trkpt>
      <trkpt lat="42.880609" lon="-0.300800">
        <ele>2336.208</ele>
        <time>2020-07-19T16:34:04Z</time>
      </trkpt>
      <trkpt lat="42.880661" lon="-0.300790">
        <ele>2335.721</ele>
        <time>2020-07-19T16:34:11Z</time>
      </trkpt>
      <trkpt lat="42.880693" lon="-0.300739">
        <ele>2334.649</ele>
        <time>2020-07-19T16:34:18Z</time>
      </trkpt>
      <trkpt lat="42.880724" lon="-0.300683">
        <ele>2334.732</ele>
        <time>2020-07-19T16:34:26Z</time>
      </trkpt>
      <trkpt lat="42.880773" lon="-0.300688">
        <ele>2332.839</ele>
        <time>2020-07-19T16:34:35Z</time>
      </trkpt>
      <trkpt lat="42.880801" lon="-0.300630">
        <ele>2331.561</ele>
        <time>2020-07-19T16:34:42Z</time>
      </trkpt>
      <trkpt lat="42.880811" lon="-0.300585">
        <ele>2333.031</ele>
        <time>2020-07-19T16:34:48Z</time>
      </trkpt>
      <trkpt lat="42.880859" lon="-0.300569">
        <ele>2330.443</ele>
        <time>2020-07-19T16:35:00Z</time>
      </trkpt>
      <trkpt lat="42.880891" lon="-0.300525">
        <ele>2329.099</ele>
        <time>2020-07-19T16:35:09Z</time>
      </trkpt>
      <trkpt lat="42.880937" lon="-0.300507">
        <ele>2327.718</ele>
        <time>2020-07-19T16:35:20Z</time>
      </trkpt>
      <trkpt lat="42.880977" lon="-0.300462">
        <ele>2326.898</ele>
        <time>2020-07-19T16:35:29Z</time>
      </trkpt>
      <trkpt lat="42.881024" lon="-0.300458">
        <ele>2326.017</ele>
        <time>2020-07-19T16:35:36Z</time>
      </trkpt>
      <trkpt lat="42.881069" lon="-0.300488">
        <ele>2325.608</ele>
        <time>2020-07-19T16:35:42Z</time>
      </trkpt>
      <trkpt lat="42.881111" lon="-0.300510">
        <ele>2323.996</ele>
        <time>2020-07-19T16:35:47Z</time>
      </trkpt>
      <trkpt lat="42.881157" lon="-0.300523">
        <ele>2324.674</ele>
        <time>2020-07-19T16:35:51Z</time>
      </trkpt>
      <trkpt lat="42.881211" lon="-0.300536">
        <ele>2323.667</ele>
        <time>2020-07-19T16:35:56Z</time>
      </trkpt>
      <trkpt lat="42.881266" lon="-0.300541">
        <ele>2324.814</ele>
        <time>2020-07-19T16:36:02Z</time>
      </trkpt>
      <trkpt lat="42.881312" lon="-0.300533">
        <ele>2324.346</ele>
        <time>2020-07-19T16:36:07Z</time>
      </trkpt>
      <trkpt lat="42.881361" lon="-0.300522">
        <ele>2323.886</ele>
        <time>2020-07-19T16:36:14Z</time>
      </trkpt>
      <trkpt lat="42.881399" lon="-0.300486">
        <ele>2324.128</ele>
        <time>2020-07-19T16:36:21Z</time>
      </trkpt>
      <trkpt lat="42.881443" lon="-0.300454">
        <ele>2322.594</ele>
        <time>2020-07-19T16:36:30Z</time>
      </trkpt>
      <trkpt lat="42.881494" lon="-0.300428">
        <ele>2323.219</ele>
        <time>2020-07-19T16:36:36Z</time>
      </trkpt>
      <trkpt lat="42.881537" lon="-0.300407">
        <ele>2322.709</ele>
        <time>2020-07-19T16:36:40Z</time>
      </trkpt>
      <trkpt lat="42.881575" lon="-0.300356">
        <ele>2323.819</ele>
        <time>2020-07-19T16:36:45Z</time>
      </trkpt>
      <trkpt lat="42.881592" lon="-0.300284">
        <ele>2324.208</ele>
        <time>2020-07-19T16:36:51Z</time>
      </trkpt>
      <trkpt lat="42.881633" lon="-0.300250">
        <ele>2324.136</ele>
        <time>2020-07-19T16:36:57Z</time>
      </trkpt>
      <trkpt lat="42.881676" lon="-0.300214">
        <ele>2325.464</ele>
        <time>2020-07-19T16:37:03Z</time>
      </trkpt>
      <trkpt lat="42.881718" lon="-0.300182">
        <ele>2326.527</ele>
        <time>2020-07-19T16:37:08Z</time>
      </trkpt>
      <trkpt lat="42.881762" lon="-0.300144">
        <ele>2326.454</ele>
        <time>2020-07-19T16:37:15Z</time>
      </trkpt>
      <trkpt lat="42.881808" lon="-0.300107">
        <ele>2323.346</ele>
        <time>2020-07-19T16:37:22Z</time>
      </trkpt>
      <trkpt lat="42.881852" lon="-0.300117">
        <ele>2327.756</ele>
        <time>2020-07-19T16:37:28Z</time>
      </trkpt>
      <trkpt lat="42.881888" lon="-0.300078">
        <ele>2327.488</ele>
        <time>2020-07-19T16:38:11Z</time>
      </trkpt>
      <trkpt lat="42.881933" lon="-0.300042">
        <ele>2326.914</ele>
        <time>2020-07-19T16:38:15Z</time>
      </trkpt>
      <trkpt lat="42.881981" lon="-0.300036">
        <ele>2326.868</ele>
        <time>2020-07-19T16:38:21Z</time>
      </trkpt>
      <trkpt lat="42.882031" lon="-0.300026">
        <ele>2326.442</ele>
        <time>2020-07-19T16:38:28Z</time>
      </trkpt>
      <trkpt lat="42.882079" lon="-0.300016">
        <ele>2325.326</ele>
        <time>2020-07-19T16:38:35Z</time>
      </trkpt>
      <trkpt lat="42.882134" lon="-0.300035">
        <ele>2323.908</ele>
        <time>2020-07-19T16:38:45Z</time>
      </trkpt>
      <trkpt lat="42.882183" lon="-0.300026">
        <ele>2323.611</ele>
        <time>2020-07-19T16:38:51Z</time>
      </trkpt>
      <trkpt lat="42.882230" lon="-0.300036">
        <ele>2320.899</ele>
        <time>2020-07-19T16:38:58Z</time>
      </trkpt>
      <trkpt lat="42.882229" lon="-0.300116">
        <ele>2320.642</ele>
        <time>2020-07-19T16:39:06Z</time>
      </trkpt>
      <trkpt lat="42.882254" lon="-0.300169">
        <ele>2320.819</ele>
        <time>2020-07-19T16:39:18Z</time>
      </trkpt>
      <trkpt lat="42.882299" lon="-0.300156">
        <ele>2314.661</ele>
        <time>2020-07-19T16:39:53Z</time>
      </trkpt>
      <trkpt lat="42.882348" lon="-0.300120">
        <ele>2315.681</ele>
        <time>2020-07-19T16:40:01Z</time>
      </trkpt>
      <trkpt lat="42.882367" lon="-0.300176">
        <ele>2311.423</ele>
        <time>2020-07-19T16:40:16Z</time>
      </trkpt>
      <trkpt lat="42.882407" lon="-0.300144">
        <ele>2310.219</ele>
        <time>2020-07-19T16:40:24Z</time>
      </trkpt>
      <trkpt lat="42.882448" lon="-0.300103">
        <ele>2309.422</ele>
        <time>2020-07-19T16:40:34Z</time>
      </trkpt>
      <trkpt lat="42.882495" lon="-0.300060">
        <ele>2307.862</ele>
        <time>2020-07-19T16:40:40Z</time>
      </trkpt>
      <trkpt lat="42.882535" lon="-0.300024">
        <ele>2309.808</ele>
        <time>2020-07-19T16:40:45Z</time>
      </trkpt>
      <trkpt lat="42.882574" lon="-0.300004">
        <ele>2311.008</ele>
        <time>2020-07-19T16:40:52Z</time>
      </trkpt>
      <trkpt lat="42.882617" lon="-0.300019">
        <ele>2310.557</ele>
        <time>2020-07-19T16:40:59Z</time>
      </trkpt>
      <trkpt lat="42.882663" lon="-0.300008">
        <ele>2313.555</ele>
        <time>2020-07-19T16:41:06Z</time>
      </trkpt>
      <trkpt lat="42.882706" lon="-0.299983">
        <ele>2312.918</ele>
        <time>2020-07-19T16:41:13Z</time>
      </trkpt>
      <trkpt lat="42.882756" lon="-0.299953">
        <ele>2311.245</ele>
        <time>2020-07-19T16:41:23Z</time>
      </trkpt>
      <trkpt lat="42.882802" lon="-0.299967">
        <ele>2309.447</ele>
        <time>2020-07-19T16:41:33Z</time>
      </trkpt>
      <trkpt lat="42.882851" lon="-0.299945">
        <ele>2308.477</ele>
        <time>2020-07-19T16:41:40Z</time>
      </trkpt>
      <trkpt lat="42.882898" lon="-0.299909">
        <ele>2309.189</ele>
        <time>2020-07-19T16:41:46Z</time>
      </trkpt>
      <trkpt lat="42.882935" lon="-0.299860">
        <ele>2310.825</ele>
        <time>2020-07-19T16:41:52Z</time>
      </trkpt>
      <trkpt lat="42.882979" lon="-0.299834">
        <ele>2309.476</ele>
        <time>2020-07-19T16:42:02Z</time>
      </trkpt>
      <trkpt lat="42.883030" lon="-0.299822">
        <ele>2306.890</ele>
        <time>2020-07-19T16:42:12Z</time>
      </trkpt>
      <trkpt lat="42.883077" lon="-0.299812">
        <ele>2306.619</ele>
        <time>2020-07-19T16:42:19Z</time>
      </trkpt>
      <trkpt lat="42.883128" lon="-0.299792">
        <ele>2304.908</ele>
        <time>2020-07-19T16:42:27Z</time>
      </trkpt>
      <trkpt lat="42.883170" lon="-0.299767">
        <ele>2304.522</ele>
        <time>2020-07-19T16:42:34Z</time>
      </trkpt>
      <trkpt lat="42.883218" lon="-0.299768">
        <ele>2303.130</ele>
        <time>2020-07-19T16:42:42Z</time>
      </trkpt>
      <trkpt lat="42.883269" lon="-0.299783">
        <ele>2302.343</ele>
        <time>2020-07-19T16:42:51Z</time>
      </trkpt>
      <trkpt lat="42.883321" lon="-0.299784">
        <ele>2301.120</ele>
        <time>2020-07-19T16:42:58Z</time>
      </trkpt>
      <trkpt lat="42.883377" lon="-0.299773">
        <ele>2300.712</ele>
        <time>2020-07-19T16:43:06Z</time>
      </trkpt>
      <trkpt lat="42.883422" lon="-0.299747">
        <ele>2298.932</ele>
        <time>2020-07-19T16:43:14Z</time>
      </trkpt>
      <trkpt lat="42.883468" lon="-0.299743">
        <ele>2298.314</ele>
        <time>2020-07-19T16:43:26Z</time>
      </trkpt>
      <trkpt lat="42.883518" lon="-0.299741">
        <ele>2295.580</ele>
        <time>2020-07-19T16:43:39Z</time>
      </trkpt>
      <trkpt lat="42.883562" lon="-0.299775">
        <ele>2294.914</ele>
        <time>2020-07-19T16:43:44Z</time>
      </trkpt>
      <trkpt lat="42.883622" lon="-0.299791">
        <ele>2295.154</ele>
        <time>2020-07-19T16:43:49Z</time>
      </trkpt>
      <trkpt lat="42.883678" lon="-0.299822">
        <ele>2295.109</ele>
        <time>2020-07-19T16:43:54Z</time>
      </trkpt>
      <trkpt lat="42.883696" lon="-0.299899">
        <ele>2292.008</ele>
        <time>2020-07-19T16:44:00Z</time>
      </trkpt>
      <trkpt lat="42.883689" lon="-0.299962">
        <ele>2291.146</ele>
        <time>2020-07-19T16:44:07Z</time>
      </trkpt>
      <trkpt lat="42.883665" lon="-0.300028">
        <ele>2291.994</ele>
        <time>2020-07-19T16:44:16Z</time>
      </trkpt>
      <trkpt lat="42.883616" lon="-0.300047">
        <ele>2290.737</ele>
        <time>2020-07-19T16:44:24Z</time>
      </trkpt>
      <trkpt lat="42.883578" lon="-0.300089">
        <ele>2289.134</ele>
        <time>2020-07-19T16:44:31Z</time>
      </trkpt>
      <trkpt lat="42.883594" lon="-0.300153">
        <ele>2287.016</ele>
        <time>2020-07-19T16:44:48Z</time>
      </trkpt>
      <trkpt lat="42.883622" lon="-0.300204">
        <ele>2286.796</ele>
        <time>2020-07-19T16:44:53Z</time>
      </trkpt>
      <trkpt lat="42.883667" lon="-0.300226">
        <ele>2286.058</ele>
        <time>2020-07-19T16:45:01Z</time>
      </trkpt>
      <trkpt lat="42.883708" lon="-0.300186">
        <ele>2285.714</ele>
        <time>2020-07-19T16:45:13Z</time>
      </trkpt>
      <trkpt lat="42.883750" lon="-0.300143">
        <ele>2286.061</ele>
        <time>2020-07-19T16:45:17Z</time>
      </trkpt>
      <trkpt lat="42.883786" lon="-0.300103">
        <ele>2286.521</ele>
        <time>2020-07-19T16:45:21Z</time>
      </trkpt>
      <trkpt lat="42.883826" lon="-0.300067">
        <ele>2286.113</ele>
        <time>2020-07-19T16:45:28Z</time>
      </trkpt>
      <trkpt lat="42.883850" lon="-0.299999">
        <ele>2286.208</ele>
        <time>2020-07-19T16:45:33Z</time>
      </trkpt>
      <trkpt lat="42.883898" lon="-0.299963">
        <ele>2286.371</ele>
        <time>2020-07-19T16:45:39Z</time>
      </trkpt>
      <trkpt lat="42.883939" lon="-0.299915">
        <ele>2284.619</ele>
        <time>2020-07-19T16:45:45Z</time>
      </trkpt>
      <trkpt lat="42.883988" lon="-0.299894">
        <ele>2284.852</ele>
        <time>2020-07-19T16:45:51Z</time>
      </trkpt>
      <trkpt lat="42.884047" lon="-0.299913">
        <ele>2284.279</ele>
        <time>2020-07-19T16:45:57Z</time>
      </trkpt>
      <trkpt lat="42.884093" lon="-0.299936">
        <ele>2284.711</ele>
        <time>2020-07-19T16:46:01Z</time>
      </trkpt>
      <trkpt lat="42.884139" lon="-0.299927">
        <ele>2285.891</ele>
        <time>2020-07-19T16:46:05Z</time>
      </trkpt>
      <trkpt lat="42.884188" lon="-0.299916">
        <ele>2286.193</ele>
        <time>2020-07-19T16:46:10Z</time>
      </trkpt>
      <trkpt lat="42.884233" lon="-0.299926">
        <ele>2285.069</ele>
        <time>2020-07-19T16:46:16Z</time>
      </trkpt>
      <trkpt lat="42.884285" lon="-0.299912">
        <ele>2285.221</ele>
        <time>2020-07-19T16:46:23Z</time>
      </trkpt>
      <trkpt lat="42.884338" lon="-0.299873">
        <ele>2283.541</ele>
        <time>2020-07-19T16:46:30Z</time>
      </trkpt>
      <trkpt lat="42.884389" lon="-0.299845">
        <ele>2284.105</ele>
        <time>2020-07-19T16:46:36Z</time>
      </trkpt>
      <trkpt lat="42.884436" lon="-0.299851">
        <ele>2284.008</ele>
        <time>2020-07-19T16:46:41Z</time>
      </trkpt>
      <trkpt lat="42.884486" lon="-0.299855">
        <ele>2282.937</ele>
        <time>2020-07-19T16:46:46Z</time>
      </trkpt>
      <trkpt lat="42.884545" lon="-0.299825">
        <ele>2283.855</ele>
        <time>2020-07-19T16:46:55Z</time>
      </trkpt>
      <trkpt lat="42.884592" lon="-0.299807">
        <ele>2283.028</ele>
        <time>2020-07-19T16:47:01Z</time>
      </trkpt>
      <trkpt lat="42.884640" lon="-0.299800">
        <ele>2282.635</ele>
        <time>2020-07-19T16:47:06Z</time>
      </trkpt>
      <trkpt lat="42.884685" lon="-0.299808">
        <ele>2281.857</ele>
        <time>2020-07-19T16:47:14Z</time>
      </trkpt>
      <trkpt lat="42.884725" lon="-0.299770">
        <ele>2280.127</ele>
        <time>2020-07-19T16:47:23Z</time>
      </trkpt>
      <trkpt lat="42.884770" lon="-0.299750">
        <ele>2280.219</ele>
        <time>2020-07-19T16:48:02Z</time>
      </trkpt>
      <trkpt lat="42.884811" lon="-0.299779">
        <ele>2275.855</ele>
        <time>2020-07-19T16:48:37Z</time>
      </trkpt>
      <trkpt lat="42.884854" lon="-0.299751">
        <ele>2274.768</ele>
        <time>2020-07-19T16:48:45Z</time>
      </trkpt>
      <trkpt lat="42.884888" lon="-0.299699">
        <ele>2275.042</ele>
        <time>2020-07-19T16:48:50Z</time>
      </trkpt>
      <trkpt lat="42.884917" lon="-0.299647">
        <ele>2275.226</ele>
        <time>2020-07-19T16:48:54Z</time>
      </trkpt>
      <trkpt lat="42.884957" lon="-0.299585">
        <ele>2274.708</ele>
        <time>2020-07-19T16:49:00Z</time>
      </trkpt>
      <trkpt lat="42.884996" lon="-0.299540">
        <ele>2275.031</ele>
        <time>2020-07-19T16:49:06Z</time>
      </trkpt>
      <trkpt lat="42.885045" lon="-0.299509">
        <ele>2276.739</ele>
        <time>2020-07-19T16:49:12Z</time>
      </trkpt>
      <trkpt lat="42.885095" lon="-0.299515">
        <ele>2275.852</ele>
        <time>2020-07-19T16:49:17Z</time>
      </trkpt>
      <trkpt lat="42.885139" lon="-0.299474">
        <ele>2275.239</ele>
        <time>2020-07-19T16:49:23Z</time>
      </trkpt>
      <trkpt lat="42.885169" lon="-0.299405">
        <ele>2275.631</ele>
        <time>2020-07-19T16:49:28Z</time>
      </trkpt>
      <trkpt lat="42.885195" lon="-0.299347">
        <ele>2275.271</ele>
        <time>2020-07-19T16:49:33Z</time>
      </trkpt>
      <trkpt lat="42.885231" lon="-0.299287">
        <ele>2276.823</ele>
        <time>2020-07-19T16:49:39Z</time>
      </trkpt>
      <trkpt lat="42.885269" lon="-0.299250">
        <ele>2275.879</ele>
        <time>2020-07-19T16:49:45Z</time>
      </trkpt>
      <trkpt lat="42.885306" lon="-0.299212">
        <ele>2275.749</ele>
        <time>2020-07-19T16:49:49Z</time>
      </trkpt>
      <trkpt lat="42.885346" lon="-0.299171">
        <ele>2275.102</ele>
        <time>2020-07-19T16:49:55Z</time>
      </trkpt>
      <trkpt lat="42.885364" lon="-0.299110">
        <ele>2276.322</ele>
        <time>2020-07-19T16:50:03Z</time>
      </trkpt>
      <trkpt lat="42.885377" lon="-0.299050">
        <ele>2277.408</ele>
        <time>2020-07-19T16:50:09Z</time>
      </trkpt>
      <trkpt lat="42.885391" lon="-0.298982">
        <ele>2277.389</ele>
        <time>2020-07-19T16:50:16Z</time>
      </trkpt>
      <trkpt lat="42.885423" lon="-0.298935">
        <ele>2277.057</ele>
        <time>2020-07-19T16:50:23Z</time>
      </trkpt>
      <trkpt lat="42.885472" lon="-0.298926">
        <ele>2276.860</ele>
        <time>2020-07-19T16:50:29Z</time>
      </trkpt>
      <trkpt lat="42.885516" lon="-0.298976">
        <ele>2278.057</ele>
        <time>2020-07-19T16:50:36Z</time>
      </trkpt>
      <trkpt lat="42.885564" lon="-0.298956">
        <ele>2278.319</ele>
        <time>2020-07-19T16:50:49Z</time>
      </trkpt>
      <trkpt lat="42.885580" lon="-0.298889">
        <ele>2280.389</ele>
        <time>2020-07-19T16:50:59Z</time>
      </trkpt>
      <trkpt lat="42.885625" lon="-0.298868">
        <ele>2277.091</ele>
        <time>2020-07-19T16:51:04Z</time>
      </trkpt>
      <trkpt lat="42.885666" lon="-0.298849">
        <ele>2278.847</ele>
        <time>2020-07-19T16:51:11Z</time>
      </trkpt>
      <trkpt lat="42.885669" lon="-0.298922">
        <ele>2295.181</ele>
        <time>2020-07-20T06:03:18Z</time>
      </trkpt>
      <trkpt lat="42.885686" lon="-0.298849">
        <ele>2293.961</ele>
        <time>2020-07-20T06:03:25Z</time>
      </trkpt>
      <trkpt lat="42.885678" lon="-0.298752">
        <ele>2294.017</ele>
        <time>2020-07-20T06:03:28Z</time>
      </trkpt>
      <trkpt lat="42.885725" lon="-0.298722">
        <ele>2293.208</ele>
        <time>2020-07-20T06:03:42Z</time>
      </trkpt>
      <trkpt lat="42.885774" lon="-0.298703">
        <ele>2292.343</ele>
        <time>2020-07-20T06:03:51Z</time>
      </trkpt>
      <trkpt lat="42.885806" lon="-0.298647">
        <ele>2291.871</ele>
        <time>2020-07-20T06:04:00Z</time>
      </trkpt>
      <trkpt lat="42.885813" lon="-0.298578">
        <ele>2291.044</ele>
        <time>2020-07-20T06:04:04Z</time>
      </trkpt>
      <trkpt lat="42.885850" lon="-0.298542">
        <ele>2289.682</ele>
        <time>2020-07-20T06:04:13Z</time>
      </trkpt>
      <trkpt lat="42.885859" lon="-0.298606">
        <ele>2290.445</ele>
        <time>2020-07-20T06:04:22Z</time>
      </trkpt>
      <trkpt lat="42.885872" lon="-0.298671">
        <ele>2288.121</ele>
        <time>2020-07-20T06:04:35Z</time>
      </trkpt>
      <trkpt lat="42.885906" lon="-0.298722">
        <ele>2287.072</ele>
        <time>2020-07-20T06:04:46Z</time>
      </trkpt>
      <trkpt lat="42.885924" lon="-0.298768">
        <ele>2286.792</ele>
        <time>2020-07-20T06:04:51Z</time>
      </trkpt>
      <trkpt lat="42.885965" lon="-0.298743">
        <ele>2285.083</ele>
        <time>2020-07-20T06:05:02Z</time>
      </trkpt>
      <trkpt lat="42.886008" lon="-0.298723">
        <ele>2284.925</ele>
        <time>2020-07-20T06:05:11Z</time>
      </trkpt>
      <trkpt lat="42.886055" lon="-0.298773">
        <ele>2284.417</ele>
        <time>2020-07-20T06:05:18Z</time>
      </trkpt>
      <trkpt lat="42.886102" lon="-0.298759">
        <ele>2283.608</ele>
        <time>2020-07-20T06:05:24Z</time>
      </trkpt>
      <trkpt lat="42.886144" lon="-0.298718">
        <ele>2282.543</ele>
        <time>2020-07-20T06:05:33Z</time>
      </trkpt>
      <trkpt lat="42.886186" lon="-0.298747">
        <ele>2282.291</ele>
        <time>2020-07-20T06:05:39Z</time>
      </trkpt>
      <trkpt lat="42.886215" lon="-0.298799">
        <ele>2279.864</ele>
        <time>2020-07-20T06:05:49Z</time>
      </trkpt>
      <trkpt lat="42.886238" lon="-0.298840">
        <ele>2278.412</ele>
        <time>2020-07-20T06:05:57Z</time>
      </trkpt>
      <trkpt lat="42.886279" lon="-0.298801">
        <ele>2276.275</ele>
        <time>2020-07-20T06:06:10Z</time>
      </trkpt>
      <trkpt lat="42.886327" lon="-0.298773">
        <ele>2275.981</ele>
        <time>2020-07-20T06:06:22Z</time>
      </trkpt>
      <trkpt lat="42.886359" lon="-0.298705">
        <ele>2275.192</ele>
        <time>2020-07-20T06:06:27Z</time>
      </trkpt>
      <trkpt lat="42.886384" lon="-0.298629">
        <ele>2276.252</ele>
        <time>2020-07-20T06:06:32Z</time>
      </trkpt>
      <trkpt lat="42.886424" lon="-0.298580">
        <ele>2275.418</ele>
        <time>2020-07-20T06:06:36Z</time>
      </trkpt>
      <trkpt lat="42.886468" lon="-0.298598">
        <ele>2275.698</ele>
        <time>2020-07-20T06:06:43Z</time>
      </trkpt>
      <trkpt lat="42.886509" lon="-0.298647">
        <ele>2274.117</ele>
        <time>2020-07-20T06:06:48Z</time>
      </trkpt>
      <trkpt lat="42.886547" lon="-0.298694">
        <ele>2274.408</ele>
        <time>2020-07-20T06:06:53Z</time>
      </trkpt>
      <trkpt lat="42.886585" lon="-0.298736">
        <ele>2275.126</ele>
        <time>2020-07-20T06:07:00Z</time>
      </trkpt>
      <trkpt lat="42.886629" lon="-0.298759">
        <ele>2275.314</ele>
        <time>2020-07-20T06:07:03Z</time>
      </trkpt>
      <trkpt lat="42.886673" lon="-0.298728">
        <ele>2275.677</ele>
        <time>2020-07-20T06:08:38Z</time>
      </trkpt>
      <trkpt lat="42.886724" lon="-0.298716">
        <ele>2273.335</ele>
        <time>2020-07-20T06:08:41Z</time>
      </trkpt>
      <trkpt lat="42.886766" lon="-0.298675">
        <ele>2276.018</ele>
        <time>2020-07-20T06:08:50Z</time>
      </trkpt>
      <trkpt lat="42.886799" lon="-0.298609">
        <ele>2276.614</ele>
        <time>2020-07-20T06:08:55Z</time>
      </trkpt>
      <trkpt lat="42.886852" lon="-0.298572">
        <ele>2276.655</ele>
        <time>2020-07-20T06:09:00Z</time>
      </trkpt>
      <trkpt lat="42.886898" lon="-0.298577">
        <ele>2276.965</ele>
        <time>2020-07-20T06:09:04Z</time>
      </trkpt>
      <trkpt lat="42.886945" lon="-0.298592">
        <ele>2277.298</ele>
        <time>2020-07-20T06:09:07Z</time>
      </trkpt>
      <trkpt lat="42.886989" lon="-0.298643">
        <ele>2279.315</ele>
        <time>2020-07-20T06:09:15Z</time>
      </trkpt>
      <trkpt lat="42.887016" lon="-0.298704">
        <ele>2278.626</ele>
        <time>2020-07-20T06:09:17Z</time>
      </trkpt>
      <trkpt lat="42.887043" lon="-0.298760">
        <ele>2278.608</ele>
        <time>2020-07-20T06:09:21Z</time>
      </trkpt>
      <trkpt lat="42.887089" lon="-0.298778">
        <ele>2277.584</ele>
        <time>2020-07-20T06:09:31Z</time>
      </trkpt>
      <trkpt lat="42.887141" lon="-0.298763">
        <ele>2277.242</ele>
        <time>2020-07-20T06:09:35Z</time>
      </trkpt>
      <trkpt lat="42.887188" lon="-0.298753">
        <ele>2276.355</ele>
        <time>2020-07-20T06:09:42Z</time>
      </trkpt>
      <trkpt lat="42.887213" lon="-0.298797">
        <ele>2275.553</ele>
        <time>2020-07-20T06:10:03Z</time>
      </trkpt>
      <trkpt lat="42.887254" lon="-0.298819">
        <ele>2274.296</ele>
        <time>2020-07-20T06:10:16Z</time>
      </trkpt>
      <trkpt lat="42.887301" lon="-0.298809">
        <ele>2274.772</ele>
        <time>2020-07-20T06:10:23Z</time>
      </trkpt>
      <trkpt lat="42.887350" lon="-0.298791">
        <ele>2274.853</ele>
        <time>2020-07-20T06:10:32Z</time>
      </trkpt>
      <trkpt lat="42.887408" lon="-0.298791">
        <ele>2275.813</ele>
        <time>2020-07-20T06:10:35Z</time>
      </trkpt>
      <trkpt lat="42.887471" lon="-0.298793">
        <ele>2275.579</ele>
        <time>2020-07-20T06:10:43Z</time>
      </trkpt>
      <trkpt lat="42.887524" lon="-0.298808">
        <ele>2274.305</ele>
        <time>2020-07-20T06:10:50Z</time>
      </trkpt>
      <trkpt lat="42.887569" lon="-0.298829">
        <ele>2274.825</ele>
        <time>2020-07-20T06:10:55Z</time>
      </trkpt>
      <trkpt lat="42.887626" lon="-0.298830">
        <ele>2274.608</ele>
        <time>2020-07-20T06:11:01Z</time>
      </trkpt>
      <trkpt lat="42.887683" lon="-0.298839">
        <ele>2275.952</ele>
        <time>2020-07-20T06:11:04Z</time>
      </trkpt>
      <trkpt lat="42.887735" lon="-0.298812">
        <ele>2275.770</ele>
        <time>2020-07-20T06:11:11Z</time>
      </trkpt>
      <trkpt lat="42.887786" lon="-0.298781">
        <ele>2274.773</ele>
        <time>2020-07-20T06:11:16Z</time>
      </trkpt>
      <trkpt lat="42.887840" lon="-0.298776">
        <ele>2275.071</ele>
        <time>2020-07-20T06:11:21Z</time>
      </trkpt>
      <trkpt lat="42.887893" lon="-0.298772">
        <ele>2275.344</ele>
        <time>2020-07-20T06:11:26Z</time>
      </trkpt>
      <trkpt lat="42.887944" lon="-0.298759">
        <ele>2275.410</ele>
        <time>2020-07-20T06:11:29Z</time>
      </trkpt>
      <trkpt lat="42.888001" lon="-0.298748">
        <ele>2275.531</ele>
        <time>2020-07-20T06:11:34Z</time>
      </trkpt>
      <trkpt lat="42.888048" lon="-0.298747">
        <ele>2275.281</ele>
        <time>2020-07-20T06:11:39Z</time>
      </trkpt>
      <trkpt lat="42.888095" lon="-0.298741">
        <ele>2275.053</ele>
        <time>2020-07-20T06:11:44Z</time>
      </trkpt>
      <trkpt lat="42.888140" lon="-0.298728">
        <ele>2275.104</ele>
        <time>2020-07-20T06:11:52Z</time>
      </trkpt>
      <trkpt lat="42.888186" lon="-0.298693">
        <ele>2275.414</ele>
        <time>2020-07-20T06:11:58Z</time>
      </trkpt>
      <trkpt lat="42.888213" lon="-0.298640">
        <ele>2273.808</ele>
        <time>2020-07-20T06:12:03Z</time>
      </trkpt>
      <trkpt lat="42.888247" lon="-0.298579">
        <ele>2272.990</ele>
        <time>2020-07-20T06:12:11Z</time>
      </trkpt>
      <trkpt lat="42.888257" lon="-0.298525">
        <ele>2272.858</ele>
        <time>2020-07-20T06:12:18Z</time>
      </trkpt>
      <trkpt lat="42.888293" lon="-0.298509">
        <ele>2271.181</ele>
        <time>2020-07-20T06:12:26Z</time>
      </trkpt>
      <trkpt lat="42.888305" lon="-0.298557">
        <ele>2271.329</ele>
        <time>2020-07-20T06:12:32Z</time>
      </trkpt>
      <trkpt lat="42.888312" lon="-0.298624">
        <ele>2271.272</ele>
        <time>2020-07-20T06:12:40Z</time>
      </trkpt>
      <trkpt lat="42.888359" lon="-0.298630">
        <ele>2270.118</ele>
        <time>2020-07-20T06:12:49Z</time>
      </trkpt>
      <trkpt lat="42.888389" lon="-0.298682">
        <ele>2268.769</ele>
        <time>2020-07-20T06:12:59Z</time>
      </trkpt>
      <trkpt lat="42.888431" lon="-0.298687">
        <ele>2267.369</ele>
        <time>2020-07-20T06:13:10Z</time>
      </trkpt>
      <trkpt lat="42.888460" lon="-0.298635">
        <ele>2266.079</ele>
        <time>2020-07-20T06:13:16Z</time>
      </trkpt>
      <trkpt lat="42.888500" lon="-0.298598">
        <ele>2264.205</ele>
        <time>2020-07-20T06:13:23Z</time>
      </trkpt>
      <trkpt lat="42.888549" lon="-0.298607">
        <ele>2264.125</ele>
        <time>2020-07-20T06:13:32Z</time>
      </trkpt>
      <trkpt lat="42.888574" lon="-0.298669">
        <ele>2263.808</ele>
        <time>2020-07-20T06:13:45Z</time>
      </trkpt>
      <trkpt lat="42.888583" lon="-0.298744">
        <ele>2263.062</ele>
        <time>2020-07-20T06:13:52Z</time>
      </trkpt>
      <trkpt lat="42.888598" lon="-0.298807">
        <ele>2263.120</ele>
        <time>2020-07-20T06:13:55Z</time>
      </trkpt>
      <trkpt lat="42.888635" lon="-0.298843">
        <ele>2263.623</ele>
        <time>2020-07-20T06:14:04Z</time>
      </trkpt>
      <trkpt lat="42.888677" lon="-0.298823">
        <ele>2262.611</ele>
        <time>2020-07-20T06:14:09Z</time>
      </trkpt>
      <trkpt lat="42.888708" lon="-0.298765">
        <ele>2262.724</ele>
        <time>2020-07-20T06:14:13Z</time>
      </trkpt>
      <trkpt lat="42.888744" lon="-0.298711">
        <ele>2261.740</ele>
        <time>2020-07-20T06:14:19Z</time>
      </trkpt>
      <trkpt lat="42.888796" lon="-0.298688">
        <ele>2261.951</ele>
        <time>2020-07-20T06:14:25Z</time>
      </trkpt>
      <trkpt lat="42.888841" lon="-0.298665">
        <ele>2261.231</ele>
        <time>2020-07-20T06:14:29Z</time>
      </trkpt>
      <trkpt lat="42.888886" lon="-0.298641">
        <ele>2261.576</ele>
        <time>2020-07-20T06:14:56Z</time>
      </trkpt>
      <trkpt lat="42.888925" lon="-0.298599">
        <ele>2259.990</ele>
        <time>2020-07-20T06:15:04Z</time>
      </trkpt>
      <trkpt lat="42.888962" lon="-0.298561">
        <ele>2258.519</ele>
        <time>2020-07-20T06:15:11Z</time>
      </trkpt>
      <trkpt lat="42.888999" lon="-0.298524">
        <ele>2256.308</ele>
        <time>2020-07-20T06:15:19Z</time>
      </trkpt>
      <trkpt lat="42.889044" lon="-0.298511">
        <ele>2256.582</ele>
        <time>2020-07-20T06:15:26Z</time>
      </trkpt>
      <trkpt lat="42.889092" lon="-0.298535">
        <ele>2254.330</ele>
        <time>2020-07-20T06:15:32Z</time>
      </trkpt>
      <trkpt lat="42.889146" lon="-0.298555">
        <ele>2253.993</ele>
        <time>2020-07-20T06:15:41Z</time>
      </trkpt>
      <trkpt lat="42.889191" lon="-0.298559">
        <ele>2254.111</ele>
        <time>2020-07-20T06:15:47Z</time>
      </trkpt>
      <trkpt lat="42.889230" lon="-0.298524">
        <ele>2254.044</ele>
        <time>2020-07-20T06:15:52Z</time>
      </trkpt>
      <trkpt lat="42.889270" lon="-0.298487">
        <ele>2254.630</ele>
        <time>2020-07-20T06:15:55Z</time>
      </trkpt>
      <trkpt lat="42.889289" lon="-0.298418">
        <ele>2251.961</ele>
        <time>2020-07-20T06:16:04Z</time>
      </trkpt>
      <trkpt lat="42.889321" lon="-0.298371">
        <ele>2253.561</ele>
        <time>2020-07-20T06:16:09Z</time>
      </trkpt>
      <trkpt lat="42.889320" lon="-0.298304">
        <ele>2253.197</ele>
        <time>2020-07-20T06:16:19Z</time>
      </trkpt>
      <trkpt lat="42.889347" lon="-0.298254">
        <ele>2251.923</ele>
        <time>2020-07-20T06:16:24Z</time>
      </trkpt>
      <trkpt lat="42.889380" lon="-0.298200">
        <ele>2251.325</ele>
        <time>2020-07-20T06:16:29Z</time>
      </trkpt>
      <trkpt lat="42.889411" lon="-0.298153">
        <ele>2251.508</ele>
        <time>2020-07-20T06:16:34Z</time>
      </trkpt>
      <trkpt lat="42.889444" lon="-0.298103">
        <ele>2250.824</ele>
        <time>2020-07-20T06:16:42Z</time>
      </trkpt>
      <trkpt lat="42.889474" lon="-0.298047">
        <ele>2250.082</ele>
        <time>2020-07-20T06:16:48Z</time>
      </trkpt>
      <trkpt lat="42.889523" lon="-0.298015">
        <ele>2249.085</ele>
        <time>2020-07-20T06:16:55Z</time>
      </trkpt>
      <trkpt lat="42.889561" lon="-0.297970">
        <ele>2247.533</ele>
        <time>2020-07-20T06:16:59Z</time>
      </trkpt>
      <trkpt lat="42.889588" lon="-0.297906">
        <ele>2248.716</ele>
        <time>2020-07-20T06:17:07Z</time>
      </trkpt>
      <trkpt lat="42.889610" lon="-0.297835">
        <ele>2248.252</ele>
        <time>2020-07-20T06:17:11Z</time>
      </trkpt>
      <trkpt lat="42.889646" lon="-0.297796">
        <ele>2248.173</ele>
        <time>2020-07-20T06:17:17Z</time>
      </trkpt>
      <trkpt lat="42.889696" lon="-0.297781">
        <ele>2246.673</ele>
        <time>2020-07-20T06:17:23Z</time>
      </trkpt>
      <trkpt lat="42.889735" lon="-0.297728">
        <ele>2247.968</ele>
        <time>2020-07-20T06:17:29Z</time>
      </trkpt>
      <trkpt lat="42.889761" lon="-0.297675">
        <ele>2247.442</ele>
        <time>2020-07-20T06:17:32Z</time>
      </trkpt>
      <trkpt lat="42.889793" lon="-0.297627">
        <ele>2248.826</ele>
        <time>2020-07-20T06:17:38Z</time>
      </trkpt>
      <trkpt lat="42.889804" lon="-0.297557">
        <ele>2250.008</ele>
        <time>2020-07-20T06:17:45Z</time>
      </trkpt>
      <trkpt lat="42.889812" lon="-0.297491">
        <ele>2250.741</ele>
        <time>2020-07-20T06:17:52Z</time>
      </trkpt>
      <trkpt lat="42.889818" lon="-0.297419">
        <ele>2249.949</ele>
        <time>2020-07-20T06:17:58Z</time>
      </trkpt>
      <trkpt lat="42.889824" lon="-0.297350">
        <ele>2248.972</ele>
        <time>2020-07-20T06:18:05Z</time>
      </trkpt>
      <trkpt lat="42.889834" lon="-0.297287">
        <ele>2248.380</ele>
        <time>2020-07-20T06:18:11Z</time>
      </trkpt>
      <trkpt lat="42.889820" lon="-0.297226">
        <ele>2247.373</ele>
        <time>2020-07-20T06:18:22Z</time>
      </trkpt>
      <trkpt lat="42.889808" lon="-0.297163">
        <ele>2246.799</ele>
        <time>2020-07-20T06:18:29Z</time>
      </trkpt>
      <trkpt lat="42.889810" lon="-0.297100">
        <ele>2245.890</ele>
        <time>2020-07-20T06:18:36Z</time>
      </trkpt>
      <trkpt lat="42.889821" lon="-0.297031">
        <ele>2245.680</ele>
        <time>2020-07-20T06:18:41Z</time>
      </trkpt>
      <trkpt lat="42.889828" lon="-0.296962">
        <ele>2244.854</ele>
        <time>2020-07-20T06:18:47Z</time>
      </trkpt>
      <trkpt lat="42.889844" lon="-0.296901">
        <ele>2244.456</ele>
        <time>2020-07-20T06:18:54Z</time>
      </trkpt>
      <trkpt lat="42.889861" lon="-0.296833">
        <ele>2243.511</ele>
        <time>2020-07-20T06:19:04Z</time>
      </trkpt>
      <trkpt lat="42.889872" lon="-0.296754">
        <ele>2242.508</ele>
        <time>2020-07-20T06:19:12Z</time>
      </trkpt>
      <trkpt lat="42.889884" lon="-0.296681">
        <ele>2242.490</ele>
        <time>2020-07-20T06:19:18Z</time>
      </trkpt>
      <trkpt lat="42.889899" lon="-0.296610">
        <ele>2242.378</ele>
        <time>2020-07-20T06:19:27Z</time>
      </trkpt>
      <trkpt lat="42.889910" lon="-0.296544">
        <ele>2241.671</ele>
        <time>2020-07-20T06:19:33Z</time>
      </trkpt>
      <trkpt lat="42.889923" lon="-0.296476">
        <ele>2241.029</ele>
        <time>2020-07-20T06:19:38Z</time>
      </trkpt>
      <trkpt lat="42.889944" lon="-0.296411">
        <ele>2241.262</ele>
        <time>2020-07-20T06:19:44Z</time>
      </trkpt>
      <trkpt lat="42.889972" lon="-0.296361">
        <ele>2240.818</ele>
        <time>2020-07-20T06:19:52Z</time>
      </trkpt>
      <trkpt lat="42.889999" lon="-0.296299">
        <ele>2240.559</ele>
        <time>2020-07-20T06:19:58Z</time>
      </trkpt>
      <trkpt lat="42.890022" lon="-0.296237">
        <ele>2239.559</ele>
        <time>2020-07-20T06:20:04Z</time>
      </trkpt>
      <trkpt lat="42.890047" lon="-0.296177">
        <ele>2239.453</ele>
        <time>2020-07-20T06:20:11Z</time>
      </trkpt>
      <trkpt lat="42.890073" lon="-0.296120">
        <ele>2238.604</ele>
        <time>2020-07-20T06:20:16Z</time>
      </trkpt>
      <trkpt lat="42.890103" lon="-0.296060">
        <ele>2237.414</ele>
        <time>2020-07-20T06:20:25Z</time>
      </trkpt>
      <trkpt lat="42.890112" lon="-0.295997">
        <ele>2237.208</ele>
        <time>2020-07-20T06:20:30Z</time>
      </trkpt>
      <trkpt lat="42.890135" lon="-0.295935">
        <ele>2236.670</ele>
        <time>2020-07-20T06:20:36Z</time>
      </trkpt>
      <trkpt lat="42.890145" lon="-0.295867">
        <ele>2235.888</ele>
        <time>2020-07-20T06:20:43Z</time>
      </trkpt>
      <trkpt lat="42.890166" lon="-0.295806">
        <ele>2235.861</ele>
        <time>2020-07-20T06:20:49Z</time>
      </trkpt>
      <trkpt lat="42.890195" lon="-0.295752">
        <ele>2235.349</ele>
        <time>2020-07-20T06:20:54Z</time>
      </trkpt>
      <trkpt lat="42.890236" lon="-0.295702">
        <ele>2234.882</ele>
        <time>2020-07-20T06:21:02Z</time>
      </trkpt>
      <trkpt lat="42.890249" lon="-0.295640">
        <ele>2233.848</ele>
        <time>2020-07-20T06:21:07Z</time>
      </trkpt>
      <trkpt lat="42.890264" lon="-0.295577">
        <ele>2232.759</ele>
        <time>2020-07-20T06:21:16Z</time>
      </trkpt>
      <trkpt lat="42.890268" lon="-0.295511">
        <ele>2232.259</ele>
        <time>2020-07-20T06:21:24Z</time>
      </trkpt>
      <trkpt lat="42.890299" lon="-0.295451">
        <ele>2231.319</ele>
        <time>2020-07-20T06:21:30Z</time>
      </trkpt>
      <trkpt lat="42.890318" lon="-0.295393">
        <ele>2230.809</ele>
        <time>2020-07-20T06:21:39Z</time>
      </trkpt>
      <trkpt lat="42.890340" lon="-0.295331">
        <ele>2229.819</ele>
        <time>2020-07-20T06:21:45Z</time>
      </trkpt>
      <trkpt lat="42.890355" lon="-0.295265">
        <ele>2229.108</ele>
        <time>2020-07-20T06:21:55Z</time>
      </trkpt>
      <trkpt lat="42.890360" lon="-0.295229">
        <ele>2228.666</ele>
        <time>2020-07-20T06:22:03Z</time>
      </trkpt>
      <trkpt lat="42.890358" lon="-0.295184">
        <ele>2227.384</ele>
        <time>2020-07-20T06:22:28Z</time>
      </trkpt>
      <trkpt lat="42.890375" lon="-0.295126">
        <ele>2226.817</ele>
        <time>2020-07-20T06:22:32Z</time>
      </trkpt>
      <trkpt lat="42.890388" lon="-0.295057">
        <ele>2225.475</ele>
        <time>2020-07-20T06:22:38Z</time>
      </trkpt>
      <trkpt lat="42.890408" lon="-0.294991">
        <ele>2226.298</ele>
        <time>2020-07-20T06:22:44Z</time>
      </trkpt>
      <trkpt lat="42.890423" lon="-0.294925">
        <ele>2225.194</ele>
        <time>2020-07-20T06:22:52Z</time>
      </trkpt>
      <trkpt lat="42.890461" lon="-0.294882">
        <ele>2224.465</ele>
        <time>2020-07-20T06:22:58Z</time>
      </trkpt>
      <trkpt lat="42.890494" lon="-0.294834">
        <ele>2223.735</ele>
        <time>2020-07-20T06:23:04Z</time>
      </trkpt>
      <trkpt lat="42.890535" lon="-0.294791">
        <ele>2222.126</ele>
        <time>2020-07-20T06:23:08Z</time>
      </trkpt>
      <trkpt lat="42.890551" lon="-0.294725">
        <ele>2221.647</ele>
        <time>2020-07-20T06:23:17Z</time>
      </trkpt>
      <trkpt lat="42.890573" lon="-0.294663">
        <ele>2218.811</ele>
        <time>2020-07-20T06:23:25Z</time>
      </trkpt>
      <trkpt lat="42.890598" lon="-0.294604">
        <ele>2219.308</ele>
        <time>2020-07-20T06:23:32Z</time>
      </trkpt>
      <trkpt lat="42.890624" lon="-0.294548">
        <ele>2217.987</ele>
        <time>2020-07-20T06:23:38Z</time>
      </trkpt>
      <trkpt lat="42.890670" lon="-0.294519">
        <ele>2216.435</ele>
        <time>2020-07-20T06:23:44Z</time>
      </trkpt>
      <trkpt lat="42.890715" lon="-0.294494">
        <ele>2215.958</ele>
        <time>2020-07-20T06:23:53Z</time>
      </trkpt>
      <trkpt lat="42.890762" lon="-0.294460">
        <ele>2215.136</ele>
        <time>2020-07-20T06:24:00Z</time>
      </trkpt>
      <trkpt lat="42.890795" lon="-0.294405">
        <ele>2214.139</ele>
        <time>2020-07-20T06:24:09Z</time>
      </trkpt>
      <trkpt lat="42.890824" lon="-0.294355">
        <ele>2213.865</ele>
        <time>2020-07-20T06:24:17Z</time>
      </trkpt>
      <trkpt lat="42.890841" lon="-0.294298">
        <ele>2213.146</ele>
        <time>2020-07-20T06:24:20Z</time>
      </trkpt>
      <trkpt lat="42.890839" lon="-0.294230">
        <ele>2211.846</ele>
        <time>2020-07-20T06:24:38Z</time>
      </trkpt>
      <trkpt lat="42.890866" lon="-0.294169">
        <ele>2211.498</ele>
        <time>2020-07-20T06:24:45Z</time>
      </trkpt>
      <trkpt lat="42.890900" lon="-0.294128">
        <ele>2210.415</ele>
        <time>2020-07-20T06:24:53Z</time>
      </trkpt>
      <trkpt lat="42.890930" lon="-0.294076">
        <ele>2209.526</ele>
        <time>2020-07-20T06:24:59Z</time>
      </trkpt>
      <trkpt lat="42.890939" lon="-0.294011">
        <ele>2208.808</ele>
        <time>2020-07-20T06:25:05Z</time>
      </trkpt>
      <trkpt lat="42.890915" lon="-0.293952">
        <ele>2207.124</ele>
        <time>2020-07-20T06:25:11Z</time>
      </trkpt>
      <trkpt lat="42.890908" lon="-0.293887">
        <ele>2206.552</ele>
        <time>2020-07-20T06:25:22Z</time>
      </trkpt>
      <trkpt lat="42.890904" lon="-0.293813">
        <ele>2205.165</ele>
        <time>2020-07-20T06:25:29Z</time>
      </trkpt>
      <trkpt lat="42.890904" lon="-0.293746">
        <ele>2203.863</ele>
        <time>2020-07-20T06:25:33Z</time>
      </trkpt>
      <trkpt lat="42.890918" lon="-0.293676">
        <ele>2203.496</ele>
        <time>2020-07-20T06:25:42Z</time>
      </trkpt>
      <trkpt lat="42.890937" lon="-0.293605">
        <ele>2202.652</ele>
        <time>2020-07-20T06:25:47Z</time>
      </trkpt>
      <trkpt lat="42.890960" lon="-0.293546">
        <ele>2201.783</ele>
        <time>2020-07-20T06:25:50Z</time>
      </trkpt>
      <trkpt lat="42.891005" lon="-0.293511">
        <ele>2201.163</ele>
        <time>2020-07-20T06:25:56Z</time>
      </trkpt>
      <trkpt lat="42.891033" lon="-0.293451">
        <ele>2200.475</ele>
        <time>2020-07-20T06:26:05Z</time>
      </trkpt>
      <trkpt lat="42.891048" lon="-0.293388">
        <ele>2199.828</ele>
        <time>2020-07-20T06:26:09Z</time>
      </trkpt>
      <trkpt lat="42.891064" lon="-0.293326">
        <ele>2198.420</ele>
        <time>2020-07-20T06:26:15Z</time>
      </trkpt>
      <trkpt lat="42.891066" lon="-0.293256">
        <ele>2197.908</ele>
        <time>2020-07-20T06:26:21Z</time>
      </trkpt>
      <trkpt lat="42.891068" lon="-0.293194">
        <ele>2197.062</ele>
        <time>2020-07-20T06:26:27Z</time>
      </trkpt>
      <trkpt lat="42.891089" lon="-0.293133">
        <ele>2196.660</ele>
        <time>2020-07-20T06:26:32Z</time>
      </trkpt>
      <trkpt lat="42.891093" lon="-0.293067">
        <ele>2196.343</ele>
        <time>2020-07-20T06:26:38Z</time>
      </trkpt>
      <trkpt lat="42.891100" lon="-0.292992">
        <ele>2195.711</ele>
        <time>2020-07-20T06:26:44Z</time>
      </trkpt>
      <trkpt lat="42.891131" lon="-0.292933">
        <ele>2194.614</ele>
        <time>2020-07-20T06:26:48Z</time>
      </trkpt>
      <trkpt lat="42.891154" lon="-0.292883">
        <ele>2193.020</ele>
        <time>2020-07-20T06:26:57Z</time>
      </trkpt>
      <trkpt lat="42.891148" lon="-0.292824">
        <ele>2191.451</ele>
        <time>2020-07-20T06:27:04Z</time>
      </trkpt>
      <trkpt lat="42.891165" lon="-0.292764">
        <ele>2190.641</ele>
        <time>2020-07-20T06:27:13Z</time>
      </trkpt>
      <trkpt lat="42.891166" lon="-0.292700">
        <ele>2190.157</ele>
        <time>2020-07-20T06:27:19Z</time>
      </trkpt>
      <trkpt lat="42.891178" lon="-0.292635">
        <ele>2188.500</ele>
        <time>2020-07-20T06:27:26Z</time>
      </trkpt>
      <trkpt lat="42.891200" lon="-0.292575">
        <ele>2186.720</ele>
        <time>2020-07-20T06:27:35Z</time>
      </trkpt>
      <trkpt lat="42.891223" lon="-0.292513">
        <ele>2185.208</ele>
        <time>2020-07-20T06:27:42Z</time>
      </trkpt>
      <trkpt lat="42.891263" lon="-0.292474">
        <ele>2183.770</ele>
        <time>2020-07-20T06:27:51Z</time>
      </trkpt>
      <trkpt lat="42.891290" lon="-0.292418">
        <ele>2183.348</ele>
        <time>2020-07-20T06:27:59Z</time>
      </trkpt>
      <trkpt lat="42.891328" lon="-0.292381">
        <ele>2181.681</ele>
        <time>2020-07-20T06:28:05Z</time>
      </trkpt>
      <trkpt lat="42.891355" lon="-0.292328">
        <ele>2181.849</ele>
        <time>2020-07-20T06:28:11Z</time>
      </trkpt>
      <trkpt lat="42.891392" lon="-0.292285">
        <ele>2181.272</ele>
        <time>2020-07-20T06:28:18Z</time>
      </trkpt>
      <trkpt lat="42.891419" lon="-0.292236">
        <ele>2180.258</ele>
        <time>2020-07-20T06:28:25Z</time>
      </trkpt>
      <trkpt lat="42.891464" lon="-0.292199">
        <ele>2178.229</ele>
        <time>2020-07-20T06:28:32Z</time>
      </trkpt>
      <trkpt lat="42.891493" lon="-0.292146">
        <ele>2177.969</ele>
        <time>2020-07-20T06:28:38Z</time>
      </trkpt>
      <trkpt lat="42.891530" lon="-0.292079">
        <ele>2176.974</ele>
        <time>2020-07-20T06:28:44Z</time>
      </trkpt>
      <trkpt lat="42.891568" lon="-0.292037">
        <ele>2176.356</ele>
        <time>2020-07-20T06:28:49Z</time>
      </trkpt>
      <trkpt lat="42.891610" lon="-0.291994">
        <ele>2175.421</ele>
        <time>2020-07-20T06:28:56Z</time>
      </trkpt>
      <trkpt lat="42.891641" lon="-0.291950">
        <ele>2174.808</ele>
        <time>2020-07-20T06:28:58Z</time>
      </trkpt>
      <trkpt lat="42.891686" lon="-0.291915">
        <ele>2174.352</ele>
        <time>2020-07-20T06:29:06Z</time>
      </trkpt>
      <trkpt lat="42.891725" lon="-0.291859">
        <ele>2172.780</ele>
        <time>2020-07-20T06:29:11Z</time>
      </trkpt>
      <trkpt lat="42.891764" lon="-0.291808">
        <ele>2172.633</ele>
        <time>2020-07-20T06:29:16Z</time>
      </trkpt>
      <trkpt lat="42.891807" lon="-0.291783">
        <ele>2171.761</ele>
        <time>2020-07-20T06:29:23Z</time>
      </trkpt>
      <trkpt lat="42.891854" lon="-0.291790">
        <ele>2172.284</ele>
        <time>2020-07-20T06:29:27Z</time>
      </trkpt>
      <trkpt lat="42.891903" lon="-0.291782">
        <ele>2172.430</ele>
        <time>2020-07-20T06:29:32Z</time>
      </trkpt>
      <trkpt lat="42.891951" lon="-0.291756">
        <ele>2171.481</ele>
        <time>2020-07-20T06:29:37Z</time>
      </trkpt>
      <trkpt lat="42.891994" lon="-0.291726">
        <ele>2172.121</ele>
        <time>2020-07-20T06:29:43Z</time>
      </trkpt>
      <trkpt lat="42.892017" lon="-0.291664">
        <ele>2170.688</ele>
        <time>2020-07-20T06:29:51Z</time>
      </trkpt>
      <trkpt lat="42.892023" lon="-0.291601">
        <ele>2169.824</ele>
        <time>2020-07-20T06:29:55Z</time>
      </trkpt>
      <trkpt lat="42.892035" lon="-0.291532">
        <ele>2168.926</ele>
        <time>2020-07-20T06:30:04Z</time>
      </trkpt>
      <trkpt lat="42.892059" lon="-0.291478">
        <ele>2167.508</ele>
        <time>2020-07-20T06:30:09Z</time>
      </trkpt>
      <trkpt lat="42.892075" lon="-0.291414">
        <ele>2168.283</ele>
        <time>2020-07-20T06:30:19Z</time>
      </trkpt>
      <trkpt lat="42.892103" lon="-0.291361">
        <ele>2167.721</ele>
        <time>2020-07-20T06:30:25Z</time>
      </trkpt>
      <trkpt lat="42.892136" lon="-0.291305">
        <ele>2167.134</ele>
        <time>2020-07-20T06:30:31Z</time>
      </trkpt>
      <trkpt lat="42.892177" lon="-0.291242">
        <ele>2166.592</ele>
        <time>2020-07-20T06:30:34Z</time>
      </trkpt>
      <trkpt lat="42.892183" lon="-0.291167">
        <ele>2169.025</ele>
        <time>2020-07-20T06:30:46Z</time>
      </trkpt>
      <trkpt lat="42.892157" lon="-0.291110">
        <ele>2170.081</ele>
        <time>2020-07-20T06:30:51Z</time>
      </trkpt>
      <trkpt lat="42.892152" lon="-0.291035">
        <ele>2170.152</ele>
        <time>2020-07-20T06:31:16Z</time>
      </trkpt>
      <trkpt lat="42.892147" lon="-0.290958">
        <ele>2168.792</ele>
        <time>2020-07-20T06:31:18Z</time>
      </trkpt>
      <trkpt lat="42.892135" lon="-0.290868">
        <ele>2169.357</ele>
        <time>2020-07-20T06:31:26Z</time>
      </trkpt>
      <trkpt lat="42.892141" lon="-0.290801">
        <ele>2169.400</ele>
        <time>2020-07-20T06:31:30Z</time>
      </trkpt>
      <trkpt lat="42.892165" lon="-0.290739">
        <ele>2167.120</ele>
        <time>2020-07-20T06:31:33Z</time>
      </trkpt>
      <trkpt lat="42.892201" lon="-0.290684">
        <ele>2169.808</ele>
        <time>2020-07-20T06:31:43Z</time>
      </trkpt>
      <trkpt lat="42.892214" lon="-0.290613">
        <ele>2170.580</ele>
        <time>2020-07-20T06:31:50Z</time>
      </trkpt>
      <trkpt lat="42.892218" lon="-0.290540">
        <ele>2170.568</ele>
        <time>2020-07-20T06:31:54Z</time>
      </trkpt>
      <trkpt lat="42.892220" lon="-0.290465">
        <ele>2169.911</ele>
        <time>2020-07-20T06:31:59Z</time>
      </trkpt>
      <trkpt lat="42.892241" lon="-0.290408">
        <ele>2169.589</ele>
        <time>2020-07-20T06:32:04Z</time>
      </trkpt>
      <trkpt lat="42.892276" lon="-0.290359">
        <ele>2170.332</ele>
        <time>2020-07-20T06:32:09Z</time>
      </trkpt>
      <trkpt lat="42.892311" lon="-0.290316">
        <ele>2171.688</ele>
        <time>2020-07-20T06:32:17Z</time>
      </trkpt>
      <trkpt lat="42.892351" lon="-0.290281">
        <ele>2172.359</ele>
        <time>2020-07-20T06:32:23Z</time>
      </trkpt>
      <trkpt lat="42.892394" lon="-0.290234">
        <ele>2172.389</ele>
        <time>2020-07-20T06:32:26Z</time>
      </trkpt>
      <trkpt lat="42.892433" lon="-0.290181">
        <ele>2172.394</ele>
        <time>2020-07-20T06:32:35Z</time>
      </trkpt>
      <trkpt lat="42.892465" lon="-0.290127">
        <ele>2172.857</ele>
        <time>2020-07-20T06:32:41Z</time>
      </trkpt>
      <trkpt lat="42.892496" lon="-0.290069">
        <ele>2172.822</ele>
        <time>2020-07-20T06:32:46Z</time>
      </trkpt>
      <trkpt lat="42.892523" lon="-0.290019">
        <ele>2172.808</ele>
        <time>2020-07-20T06:32:51Z</time>
      </trkpt>
      <trkpt lat="42.892557" lon="-0.289977">
        <ele>2173.694</ele>
        <time>2020-07-20T06:32:53Z</time>
      </trkpt>
      <trkpt lat="42.892602" lon="-0.289946">
        <ele>2174.662</ele>
        <time>2020-07-20T06:33:03Z</time>
      </trkpt>
      <trkpt lat="42.892647" lon="-0.289903">
        <ele>2172.825</ele>
        <time>2020-07-20T06:33:06Z</time>
      </trkpt>
      <trkpt lat="42.892689" lon="-0.289868">
        <ele>2173.913</ele>
        <time>2020-07-20T06:33:12Z</time>
      </trkpt>
      <trkpt lat="42.892723" lon="-0.289808">
        <ele>2173.616</ele>
        <time>2020-07-20T06:33:19Z</time>
      </trkpt>
      <trkpt lat="42.892736" lon="-0.289738">
        <ele>2173.082</ele>
        <time>2020-07-20T06:33:28Z</time>
      </trkpt>
      <trkpt lat="42.892769" lon="-0.289677">
        <ele>2172.993</ele>
        <time>2020-07-20T06:33:30Z</time>
      </trkpt>
      <trkpt lat="42.892790" lon="-0.289619">
        <ele>2172.683</ele>
        <time>2020-07-20T06:33:38Z</time>
      </trkpt>
      <trkpt lat="42.892821" lon="-0.289562">
        <ele>2172.263</ele>
        <time>2020-07-20T06:33:42Z</time>
      </trkpt>
      <trkpt lat="42.892862" lon="-0.289515">
        <ele>2172.044</ele>
        <time>2020-07-20T06:33:47Z</time>
      </trkpt>
      <trkpt lat="42.892884" lon="-0.289460">
        <ele>2171.418</ele>
        <time>2020-07-20T06:33:52Z</time>
      </trkpt>
      <trkpt lat="42.892912" lon="-0.289396">
        <ele>2170.808</ele>
        <time>2020-07-20T06:33:58Z</time>
      </trkpt>
      <trkpt lat="42.892933" lon="-0.289335">
        <ele>2171.371</ele>
        <time>2020-07-20T06:34:03Z</time>
      </trkpt>
      <trkpt lat="42.892951" lon="-0.289270">
        <ele>2171.229</ele>
        <time>2020-07-20T06:34:10Z</time>
      </trkpt>
      <trkpt lat="42.892973" lon="-0.289212">
        <ele>2171.012</ele>
        <time>2020-07-20T06:34:19Z</time>
      </trkpt>
      <trkpt lat="42.892992" lon="-0.289146">
        <ele>2170.460</ele>
        <time>2020-07-20T06:34:26Z</time>
      </trkpt>
      <trkpt lat="42.892991" lon="-0.289068">
        <ele>2169.823</ele>
        <time>2020-07-20T06:34:32Z</time>
      </trkpt>
      <trkpt lat="42.892980" lon="-0.289003">
        <ele>2170.089</ele>
        <time>2020-07-20T06:34:34Z</time>
      </trkpt>
      <trkpt lat="42.892965" lon="-0.288930">
        <ele>2168.570</ele>
        <time>2020-07-20T06:34:41Z</time>
      </trkpt>
      <trkpt lat="42.892966" lon="-0.288859">
        <ele>2169.280</ele>
        <time>2020-07-20T06:34:44Z</time>
      </trkpt>
      <trkpt lat="42.892966" lon="-0.288797">
        <ele>2170.054</ele>
        <time>2020-07-20T06:34:52Z</time>
      </trkpt>
      <trkpt lat="42.892968" lon="-0.288736">
        <ele>2169.356</ele>
        <time>2020-07-20T06:34:57Z</time>
      </trkpt>
      <trkpt lat="42.892960" lon="-0.288675">
        <ele>2169.011</ele>
        <time>2020-07-20T06:35:02Z</time>
      </trkpt>
      <trkpt lat="42.892931" lon="-0.288616">
        <ele>2166.308</ele>
        <time>2020-07-20T06:36:45Z</time>
      </trkpt>
      <trkpt lat="42.892913" lon="-0.288542">
        <ele>2165.540</ele>
        <time>2020-07-20T06:36:47Z</time>
      </trkpt>
      <trkpt lat="42.892884" lon="-0.288492">
        <ele>2164.758</ele>
        <time>2020-07-20T06:36:53Z</time>
      </trkpt>
      <trkpt lat="42.892871" lon="-0.288432">
        <ele>2164.521</ele>
        <time>2020-07-20T06:37:00Z</time>
      </trkpt>
      <trkpt lat="42.892879" lon="-0.288370">
        <ele>2163.979</ele>
        <time>2020-07-20T06:37:04Z</time>
      </trkpt>
      <trkpt lat="42.892858" lon="-0.288314">
        <ele>2161.262</ele>
        <time>2020-07-20T06:37:14Z</time>
      </trkpt>
      <trkpt lat="42.892825" lon="-0.288271">
        <ele>2161.128</ele>
        <time>2020-07-20T06:37:26Z</time>
      </trkpt>
      <trkpt lat="42.892777" lon="-0.288256">
        <ele>2160.059</ele>
        <time>2020-07-20T06:37:33Z</time>
      </trkpt>
      <trkpt lat="42.892732" lon="-0.288216">
        <ele>2158.639</ele>
        <time>2020-07-20T06:37:43Z</time>
      </trkpt>
      <trkpt lat="42.892677" lon="-0.288237">
        <ele>2157.539</ele>
        <time>2020-07-20T06:37:50Z</time>
      </trkpt>
      <trkpt lat="42.892640" lon="-0.288291">
        <ele>2156.101</ele>
        <time>2020-07-20T06:37:57Z</time>
      </trkpt>
      <trkpt lat="42.892600" lon="-0.288319">
        <ele>2155.321</ele>
        <time>2020-07-20T06:38:06Z</time>
      </trkpt>
      <trkpt lat="42.892558" lon="-0.288358">
        <ele>2154.208</ele>
        <time>2020-07-20T06:38:10Z</time>
      </trkpt>
      <trkpt lat="42.892548" lon="-0.288293">
        <ele>2153.788</ele>
        <time>2020-07-20T06:38:21Z</time>
      </trkpt>
      <trkpt lat="42.892564" lon="-0.288230">
        <ele>2152.656</ele>
        <time>2020-07-20T06:38:25Z</time>
      </trkpt>
      <trkpt lat="42.892580" lon="-0.288168">
        <ele>2151.649</ele>
        <time>2020-07-20T06:38:29Z</time>
      </trkpt>
      <trkpt lat="42.892598" lon="-0.288097">
        <ele>2150.177</ele>
        <time>2020-07-20T06:38:36Z</time>
      </trkpt>
      <trkpt lat="42.892627" lon="-0.288036">
        <ele>2149.350</ele>
        <time>2020-07-20T06:38:45Z</time>
      </trkpt>
      <trkpt lat="42.892657" lon="-0.287973">
        <ele>2148.576</ele>
        <time>2020-07-20T06:38:51Z</time>
      </trkpt>
      <trkpt lat="42.892667" lon="-0.287906">
        <ele>2147.377</ele>
        <time>2020-07-20T06:38:57Z</time>
      </trkpt>
      <trkpt lat="42.892672" lon="-0.287843">
        <ele>2147.017</ele>
        <time>2020-07-20T06:39:03Z</time>
      </trkpt>
      <trkpt lat="42.892683" lon="-0.287778">
        <ele>2145.631</ele>
        <time>2020-07-20T06:39:10Z</time>
      </trkpt>
      <trkpt lat="42.892691" lon="-0.287709">
        <ele>2144.961</ele>
        <time>2020-07-20T06:39:13Z</time>
      </trkpt>
      <trkpt lat="42.892684" lon="-0.287642">
        <ele>2143.807</ele>
        <time>2020-07-20T06:39:25Z</time>
      </trkpt>
      <trkpt lat="42.892683" lon="-0.287576">
        <ele>2142.708</ele>
        <time>2020-07-20T06:39:31Z</time>
      </trkpt>
      <trkpt lat="42.892677" lon="-0.287513">
        <ele>2141.878</ele>
        <time>2020-07-20T06:39:38Z</time>
      </trkpt>
      <trkpt lat="42.892680" lon="-0.287452">
        <ele>2141.036</ele>
        <time>2020-07-20T06:39:44Z</time>
      </trkpt>
      <trkpt lat="42.892678" lon="-0.287382">
        <ele>2140.569</ele>
        <time>2020-07-20T06:39:51Z</time>
      </trkpt>
      <trkpt lat="42.892643" lon="-0.287453">
        <ele>2139.237</ele>
        <time>2020-07-20T06:40:00Z</time>
      </trkpt>
      <trkpt lat="42.892634" lon="-0.287527">
        <ele>2138.520</ele>
        <time>2020-07-20T06:40:06Z</time>
      </trkpt>
      <trkpt lat="42.892615" lon="-0.287610">
        <ele>2137.446</ele>
        <time>2020-07-20T06:40:11Z</time>
      </trkpt>
      <trkpt lat="42.892574" lon="-0.287646">
        <ele>2135.997</ele>
        <time>2020-07-20T06:40:14Z</time>
      </trkpt>
      <trkpt lat="42.892537" lon="-0.287609">
        <ele>2134.527</ele>
        <time>2020-07-20T06:40:28Z</time>
      </trkpt>
      <trkpt lat="42.892543" lon="-0.287542">
        <ele>2133.692</ele>
        <time>2020-07-20T06:40:34Z</time>
      </trkpt>
      <trkpt lat="42.892562" lon="-0.287484">
        <ele>2132.773</ele>
        <time>2020-07-20T06:40:45Z</time>
      </trkpt>
      <trkpt lat="42.892563" lon="-0.287417">
        <ele>2132.520</ele>
        <time>2020-07-20T06:40:51Z</time>
      </trkpt>
      <trkpt lat="42.892567" lon="-0.287350">
        <ele>2131.608</ele>
        <time>2020-07-20T06:40:58Z</time>
      </trkpt>
      <trkpt lat="42.892564" lon="-0.287287">
        <ele>2131.164</ele>
        <time>2020-07-20T06:40:59Z</time>
      </trkpt>
      <trkpt lat="42.892578" lon="-0.287229">
        <ele>2130.542</ele>
        <time>2020-07-20T06:41:05Z</time>
      </trkpt>
      <trkpt lat="42.892615" lon="-0.287173">
        <ele>2129.875</ele>
        <time>2020-07-20T06:41:10Z</time>
      </trkpt>
      <trkpt lat="42.892569" lon="-0.287167">
        <ele>2128.753</ele>
        <time>2020-07-20T06:41:14Z</time>
      </trkpt>
      <trkpt lat="42.892539" lon="-0.287218">
        <ele>2128.766</ele>
        <time>2020-07-20T06:41:23Z</time>
      </trkpt>
      <trkpt lat="42.892503" lon="-0.287267">
        <ele>2127.322</ele>
        <time>2020-07-20T06:41:27Z</time>
      </trkpt>
      <trkpt lat="42.892469" lon="-0.287324">
        <ele>2127.033</ele>
        <time>2020-07-20T06:41:32Z</time>
      </trkpt>
      <trkpt lat="42.892472" lon="-0.287250">
        <ele>2125.723</ele>
        <time>2020-07-20T06:41:38Z</time>
      </trkpt>
      <trkpt lat="42.892485" lon="-0.287188">
        <ele>2125.299</ele>
        <time>2020-07-20T06:41:43Z</time>
      </trkpt>
      <trkpt lat="42.892522" lon="-0.287126">
        <ele>2125.307</ele>
        <time>2020-07-20T06:41:48Z</time>
      </trkpt>
      <trkpt lat="42.892545" lon="-0.287061">
        <ele>2124.327</ele>
        <time>2020-07-20T06:41:55Z</time>
      </trkpt>
      <trkpt lat="42.892572" lon="-0.286988">
        <ele>2123.308</ele>
        <time>2020-07-20T06:42:00Z</time>
      </trkpt>
      <trkpt lat="42.892528" lon="-0.287024">
        <ele>2123.274</ele>
        <time>2020-07-20T06:42:07Z</time>
      </trkpt>
      <trkpt lat="42.892489" lon="-0.287083">
        <ele>2122.082</ele>
        <time>2020-07-20T06:42:11Z</time>
      </trkpt>
      <trkpt lat="42.892454" lon="-0.287144">
        <ele>2121.635</ele>
        <time>2020-07-20T06:42:15Z</time>
      </trkpt>
      <trkpt lat="42.892422" lon="-0.287197">
        <ele>2120.483</ele>
        <time>2020-07-20T06:42:21Z</time>
      </trkpt>
      <trkpt lat="42.892438" lon="-0.287125">
        <ele>2119.376</ele>
        <time>2020-07-20T06:42:29Z</time>
      </trkpt>
      <trkpt lat="42.892448" lon="-0.287060">
        <ele>2118.832</ele>
        <time>2020-07-20T06:42:33Z</time>
      </trkpt>
      <trkpt lat="42.892463" lon="-0.286997">
        <ele>2118.073</ele>
        <time>2020-07-20T06:42:37Z</time>
      </trkpt>
      <trkpt lat="42.892477" lon="-0.286930">
        <ele>2117.043</ele>
        <time>2020-07-20T06:42:44Z</time>
      </trkpt>
      <trkpt lat="42.892494" lon="-0.286860">
        <ele>2116.338</ele>
        <time>2020-07-20T06:42:49Z</time>
      </trkpt>
      <trkpt lat="42.892524" lon="-0.286809">
        <ele>2115.370</ele>
        <time>2020-07-20T06:42:55Z</time>
      </trkpt>
      <trkpt lat="42.892508" lon="-0.286745">
        <ele>2114.617</ele>
        <time>2020-07-20T06:43:02Z</time>
      </trkpt>
      <trkpt lat="42.892489" lon="-0.286683">
        <ele>2113.708</ele>
        <time>2020-07-20T06:43:09Z</time>
      </trkpt>
      <trkpt lat="42.892476" lon="-0.286618">
        <ele>2111.568</ele>
        <time>2020-07-20T06:43:20Z</time>
      </trkpt>
      <trkpt lat="42.892429" lon="-0.286595">
        <ele>2111.186</ele>
        <time>2020-07-20T06:43:28Z</time>
      </trkpt>
      <trkpt lat="42.892404" lon="-0.286662">
        <ele>2109.169</ele>
        <time>2020-07-20T06:43:33Z</time>
      </trkpt>
      <trkpt lat="42.892397" lon="-0.286739">
        <ele>2108.737</ele>
        <time>2020-07-20T06:43:36Z</time>
      </trkpt>
      <trkpt lat="42.892378" lon="-0.286799">
        <ele>2107.270</ele>
        <time>2020-07-20T06:43:41Z</time>
      </trkpt>
      <trkpt lat="42.892350" lon="-0.286857">
        <ele>2106.586</ele>
        <time>2020-07-20T06:43:49Z</time>
      </trkpt>
      <trkpt lat="42.892317" lon="-0.286921">
        <ele>2105.847</ele>
        <time>2020-07-20T06:43:53Z</time>
      </trkpt>
      <trkpt lat="42.892297" lon="-0.286845">
        <ele>2103.977</ele>
        <time>2020-07-20T06:44:00Z</time>
      </trkpt>
      <trkpt lat="42.892292" lon="-0.286780">
        <ele>2103.455</ele>
        <time>2020-07-20T06:44:05Z</time>
      </trkpt>
      <trkpt lat="42.892285" lon="-0.286717">
        <ele>2102.707</ele>
        <time>2020-07-20T06:44:09Z</time>
      </trkpt>
      <trkpt lat="42.892285" lon="-0.286652">
        <ele>2100.617</ele>
        <time>2020-07-20T06:44:14Z</time>
      </trkpt>
      <trkpt lat="42.892281" lon="-0.286575">
        <ele>2100.608</ele>
        <time>2020-07-20T06:44:20Z</time>
      </trkpt>
      <trkpt lat="42.892268" lon="-0.286515">
        <ele>2099.720</ele>
        <time>2020-07-20T06:44:24Z</time>
      </trkpt>
      <trkpt lat="42.892219" lon="-0.286552">
        <ele>2097.548</ele>
        <time>2020-07-20T06:44:37Z</time>
      </trkpt>
      <trkpt lat="42.892193" lon="-0.286617">
        <ele>2096.411</ele>
        <time>2020-07-20T06:44:43Z</time>
      </trkpt>
      <trkpt lat="42.892178" lon="-0.286689">
        <ele>2096.019</ele>
        <time>2020-07-20T06:44:47Z</time>
      </trkpt>
      <trkpt lat="42.892166" lon="-0.286753">
        <ele>2095.142</ele>
        <time>2020-07-20T06:44:50Z</time>
      </trkpt>
      <trkpt lat="42.892136" lon="-0.286823">
        <ele>2094.188</ele>
        <time>2020-07-20T06:44:58Z</time>
      </trkpt>
      <trkpt lat="42.892115" lon="-0.286879">
        <ele>2092.969</ele>
        <time>2020-07-20T06:45:03Z</time>
      </trkpt>
      <trkpt lat="42.892092" lon="-0.286945">
        <ele>2093.019</ele>
        <time>2020-07-20T06:45:08Z</time>
      </trkpt>
      <trkpt lat="42.892062" lon="-0.286882">
        <ele>2091.942</ele>
        <time>2020-07-20T06:45:13Z</time>
      </trkpt>
      <trkpt lat="42.892064" lon="-0.286818">
        <ele>2091.222</ele>
        <time>2020-07-20T06:45:17Z</time>
      </trkpt>
      <trkpt lat="42.892053" lon="-0.286749">
        <ele>2090.214</ele>
        <time>2020-07-20T06:45:23Z</time>
      </trkpt>
      <trkpt lat="42.892063" lon="-0.286675">
        <ele>2089.408</ele>
        <time>2020-07-20T06:45:31Z</time>
      </trkpt>
      <trkpt lat="42.892057" lon="-0.286612">
        <ele>2088.989</ele>
        <time>2020-07-20T06:45:36Z</time>
      </trkpt>
      <trkpt lat="42.892057" lon="-0.286542">
        <ele>2087.597</ele>
        <time>2020-07-20T06:45:41Z</time>
      </trkpt>
      <trkpt lat="42.892053" lon="-0.286471">
        <ele>2086.820</ele>
        <time>2020-07-20T06:45:47Z</time>
      </trkpt>
      <trkpt lat="42.892052" lon="-0.286395">
        <ele>2085.688</ele>
        <time>2020-07-20T06:45:54Z</time>
      </trkpt>
      <trkpt lat="42.892042" lon="-0.286324">
        <ele>2084.331</ele>
        <time>2020-07-20T06:46:01Z</time>
      </trkpt>
      <trkpt lat="42.892034" lon="-0.286250">
        <ele>2083.417</ele>
        <time>2020-07-20T06:46:06Z</time>
      </trkpt>
      <trkpt lat="42.892042" lon="-0.286188">
        <ele>2082.568</ele>
        <time>2020-07-20T06:46:12Z</time>
      </trkpt>
      <trkpt lat="42.892055" lon="-0.286128">
        <ele>2081.858</ele>
        <time>2020-07-20T06:46:21Z</time>
      </trkpt>
      <trkpt lat="42.892047" lon="-0.286061">
        <ele>2081.451</ele>
        <time>2020-07-20T06:46:26Z</time>
      </trkpt>
      <trkpt lat="42.892015" lon="-0.286012">
        <ele>2080.101</ele>
        <time>2020-07-20T06:46:32Z</time>
      </trkpt>
      <trkpt lat="42.891993" lon="-0.285947">
        <ele>2079.011</ele>
        <time>2020-07-20T06:46:38Z</time>
      </trkpt>
      <trkpt lat="42.891990" lon="-0.285879">
        <ele>2077.808</ele>
        <time>2020-07-20T06:46:44Z</time>
      </trkpt>
      <trkpt lat="42.891985" lon="-0.285809">
        <ele>2076.570</ele>
        <time>2020-07-20T06:46:54Z</time>
      </trkpt>
      <trkpt lat="42.891976" lon="-0.285748">
        <ele>2075.968</ele>
        <time>2020-07-20T06:47:01Z</time>
      </trkpt>
      <trkpt lat="42.891966" lon="-0.285684">
        <ele>2074.541</ele>
        <time>2020-07-20T06:47:08Z</time>
      </trkpt>
      <trkpt lat="42.891954" lon="-0.285619">
        <ele>2073.239</ele>
        <time>2020-07-20T06:47:16Z</time>
      </trkpt>
      <trkpt lat="42.891928" lon="-0.285559">
        <ele>2071.962</ele>
        <time>2020-07-20T06:47:36Z</time>
      </trkpt>
      <trkpt lat="42.891929" lon="-0.285492">
        <ele>2071.548</ele>
        <time>2020-07-20T06:47:42Z</time>
      </trkpt>
      <trkpt lat="42.891925" lon="-0.285417">
        <ele>2070.579</ele>
        <time>2020-07-20T06:47:46Z</time>
      </trkpt>
      <trkpt lat="42.891926" lon="-0.285355">
        <ele>2069.139</ele>
        <time>2020-07-20T06:47:51Z</time>
      </trkpt>
      <trkpt lat="42.891895" lon="-0.285414">
        <ele>2068.818</ele>
        <time>2020-07-20T06:47:57Z</time>
      </trkpt>
      <trkpt lat="42.891889" lon="-0.285488">
        <ele>2067.898</ele>
        <time>2020-07-20T06:48:02Z</time>
      </trkpt>
      <trkpt lat="42.891863" lon="-0.285545">
        <ele>2066.317</ele>
        <time>2020-07-20T06:48:09Z</time>
      </trkpt>
      <trkpt lat="42.891838" lon="-0.285490">
        <ele>2065.608</ele>
        <time>2020-07-20T06:48:14Z</time>
      </trkpt>
      <trkpt lat="42.891830" lon="-0.285429">
        <ele>2065.316</ele>
        <time>2020-07-20T06:48:20Z</time>
      </trkpt>
      <trkpt lat="42.891820" lon="-0.285348">
        <ele>2064.234</ele>
        <time>2020-07-20T06:48:26Z</time>
      </trkpt>
      <trkpt lat="42.891808" lon="-0.285279">
        <ele>2063.577</ele>
        <time>2020-07-20T06:48:32Z</time>
      </trkpt>
      <trkpt lat="42.891805" lon="-0.285202">
        <ele>2062.415</ele>
        <time>2020-07-20T06:48:38Z</time>
      </trkpt>
      <trkpt lat="42.891816" lon="-0.285139">
        <ele>2061.838</ele>
        <time>2020-07-20T06:48:42Z</time>
      </trkpt>
      <trkpt lat="42.891831" lon="-0.285069">
        <ele>2061.484</ele>
        <time>2020-07-20T06:48:47Z</time>
      </trkpt>
      <trkpt lat="42.891794" lon="-0.285126">
        <ele>2058.715</ele>
        <time>2020-07-20T06:49:00Z</time>
      </trkpt>
      <trkpt lat="42.891782" lon="-0.285186">
        <ele>2058.075</ele>
        <time>2020-07-20T06:49:02Z</time>
      </trkpt>
      <trkpt lat="42.891743" lon="-0.285149">
        <ele>2056.473</ele>
        <time>2020-07-20T06:49:13Z</time>
      </trkpt>
      <trkpt lat="42.891738" lon="-0.285083">
        <ele>2056.085</ele>
        <time>2020-07-20T06:49:17Z</time>
      </trkpt>
      <trkpt lat="42.891751" lon="-0.285020">
        <ele>2056.413</ele>
        <time>2020-07-20T06:49:20Z</time>
      </trkpt>
      <trkpt lat="42.891730" lon="-0.284964">
        <ele>2053.708</ele>
        <time>2020-07-20T06:49:35Z</time>
      </trkpt>
      <trkpt lat="42.891734" lon="-0.284896">
        <ele>2051.932</ele>
        <time>2020-07-20T06:49:42Z</time>
      </trkpt>
      <trkpt lat="42.891689" lon="-0.284929">
        <ele>2051.570</ele>
        <time>2020-07-20T06:49:48Z</time>
      </trkpt>
      <trkpt lat="42.891648" lon="-0.284960">
        <ele>2049.893</ele>
        <time>2020-07-20T06:49:53Z</time>
      </trkpt>
      <trkpt lat="42.891670" lon="-0.284903">
        <ele>2048.941</ele>
        <time>2020-07-20T06:50:10Z</time>
      </trkpt>
      <trkpt lat="42.891698" lon="-0.284848">
        <ele>2048.694</ele>
        <time>2020-07-20T06:50:13Z</time>
      </trkpt>
      <trkpt lat="42.891746" lon="-0.284817">
        <ele>2047.790</ele>
        <time>2020-07-20T06:50:18Z</time>
      </trkpt>
      <trkpt lat="42.891765" lon="-0.284757">
        <ele>2046.471</ele>
        <time>2020-07-20T06:50:24Z</time>
      </trkpt>
      <trkpt lat="42.891712" lon="-0.284746">
        <ele>2045.521</ele>
        <time>2020-07-20T06:50:29Z</time>
      </trkpt>
      <trkpt lat="42.891670" lon="-0.284770">
        <ele>2044.698</ele>
        <time>2020-07-20T06:50:34Z</time>
      </trkpt>
      <trkpt lat="42.891625" lon="-0.284776">
        <ele>2044.415</ele>
        <time>2020-07-20T06:50:40Z</time>
      </trkpt>
      <trkpt lat="42.891577" lon="-0.284784">
        <ele>2043.126</ele>
        <time>2020-07-20T06:50:47Z</time>
      </trkpt>
      <trkpt lat="42.891539" lon="-0.284816">
        <ele>2042.208</ele>
        <time>2020-07-20T06:50:52Z</time>
      </trkpt>
      <trkpt lat="42.891531" lon="-0.284751">
        <ele>2041.474</ele>
        <time>2020-07-20T06:50:58Z</time>
      </trkpt>
      <trkpt lat="42.891550" lon="-0.284681">
        <ele>2041.272</ele>
        <time>2020-07-20T06:51:03Z</time>
      </trkpt>
      <trkpt lat="42.891586" lon="-0.284625">
        <ele>2039.875</ele>
        <time>2020-07-20T06:51:07Z</time>
      </trkpt>
      <trkpt lat="42.891543" lon="-0.284606">
        <ele>2038.663</ele>
        <time>2020-07-20T06:51:14Z</time>
      </trkpt>
      <trkpt lat="42.891507" lon="-0.284654">
        <ele>2037.616</ele>
        <time>2020-07-20T06:51:20Z</time>
      </trkpt>
      <trkpt lat="42.891473" lon="-0.284610">
        <ele>2036.642</ele>
        <time>2020-07-20T06:51:30Z</time>
      </trkpt>
      <trkpt lat="42.891467" lon="-0.284540">
        <ele>2035.433</ele>
        <time>2020-07-20T06:51:35Z</time>
      </trkpt>
      <trkpt lat="42.891480" lon="-0.284474">
        <ele>2034.223</ele>
        <time>2020-07-20T06:51:42Z</time>
      </trkpt>
      <trkpt lat="42.891437" lon="-0.284507">
        <ele>2032.436</ele>
        <time>2020-07-20T06:51:52Z</time>
      </trkpt>
      <trkpt lat="42.891397" lon="-0.284489">
        <ele>2030.917</ele>
        <time>2020-07-20T06:52:02Z</time>
      </trkpt>
      <trkpt lat="42.891403" lon="-0.284423">
        <ele>2030.318</ele>
        <time>2020-07-20T06:52:06Z</time>
      </trkpt>
      <trkpt lat="42.891422" lon="-0.284365">
        <ele>2029.908</ele>
        <time>2020-07-20T06:52:11Z</time>
      </trkpt>
      <trkpt lat="42.891462" lon="-0.284327">
        <ele>2028.658</ele>
        <time>2020-07-20T06:52:15Z</time>
      </trkpt>
      <trkpt lat="42.891415" lon="-0.284321">
        <ele>2027.826</ele>
        <time>2020-07-20T06:52:25Z</time>
      </trkpt>
      <trkpt lat="42.891378" lon="-0.284367">
        <ele>2027.479</ele>
        <time>2020-07-20T06:52:31Z</time>
      </trkpt>
      <trkpt lat="42.891368" lon="-0.284439">
        <ele>2026.457</ele>
        <time>2020-07-20T06:52:33Z</time>
      </trkpt>
      <trkpt lat="42.891360" lon="-0.284506">
        <ele>2025.570</ele>
        <time>2020-07-20T06:52:38Z</time>
      </trkpt>
      <trkpt lat="42.891353" lon="-0.284576">
        <ele>2025.486</ele>
        <time>2020-07-20T06:52:45Z</time>
      </trkpt>
      <trkpt lat="42.891336" lon="-0.284640">
        <ele>2023.947</ele>
        <time>2020-07-20T06:52:49Z</time>
      </trkpt>
      <trkpt lat="42.891289" lon="-0.284591">
        <ele>2022.487</ele>
        <time>2020-07-20T06:53:01Z</time>
      </trkpt>
      <trkpt lat="42.891276" lon="-0.284511">
        <ele>2022.256</ele>
        <time>2020-07-20T06:53:04Z</time>
      </trkpt>
      <trkpt lat="42.891269" lon="-0.284450">
        <ele>2021.759</ele>
        <time>2020-07-20T06:53:08Z</time>
      </trkpt>
      <trkpt lat="42.891275" lon="-0.284378">
        <ele>2020.614</ele>
        <time>2020-07-20T06:53:13Z</time>
      </trkpt>
      <trkpt lat="42.891286" lon="-0.284313">
        <ele>2019.908</ele>
        <time>2020-07-20T06:53:20Z</time>
      </trkpt>
      <trkpt lat="42.891278" lon="-0.284250">
        <ele>2019.010</ele>
        <time>2020-07-20T06:53:25Z</time>
      </trkpt>
      <trkpt lat="42.891248" lon="-0.284312">
        <ele>2017.468</ele>
        <time>2020-07-20T06:53:36Z</time>
      </trkpt>
      <trkpt lat="42.891219" lon="-0.284376">
        <ele>2016.161</ele>
        <time>2020-07-20T06:53:42Z</time>
      </trkpt>
      <trkpt lat="42.891218" lon="-0.284448">
        <ele>2015.439</ele>
        <time>2020-07-20T06:53:48Z</time>
      </trkpt>
      <trkpt lat="42.891210" lon="-0.284516">
        <ele>2014.962</ele>
        <time>2020-07-20T06:53:54Z</time>
      </trkpt>
      <trkpt lat="42.891186" lon="-0.284576">
        <ele>2013.428</ele>
        <time>2020-07-20T06:54:02Z</time>
      </trkpt>
      <trkpt lat="42.891171" lon="-0.284637">
        <ele>2011.869</ele>
        <time>2020-07-20T06:54:08Z</time>
      </trkpt>
      <trkpt lat="42.891160" lon="-0.284704">
        <ele>2011.629</ele>
        <time>2020-07-20T06:54:14Z</time>
      </trkpt>
      <trkpt lat="42.891162" lon="-0.284772">
        <ele>2010.567</ele>
        <time>2020-07-20T06:54:21Z</time>
      </trkpt>
      <trkpt lat="42.891122" lon="-0.284740">
        <ele>2010.281</ele>
        <time>2020-07-20T06:54:25Z</time>
      </trkpt>
      <trkpt lat="42.891104" lon="-0.284681">
        <ele>2009.319</ele>
        <time>2020-07-20T06:54:30Z</time>
      </trkpt>
      <trkpt lat="42.891091" lon="-0.284612">
        <ele>2008.608</ele>
        <time>2020-07-20T06:54:33Z</time>
      </trkpt>
      <trkpt lat="42.891073" lon="-0.284544">
        <ele>2007.931</ele>
        <time>2020-07-20T06:54:39Z</time>
      </trkpt>
      <trkpt lat="42.891064" lon="-0.284480">
        <ele>2006.949</ele>
        <time>2020-07-20T06:54:45Z</time>
      </trkpt>
      <trkpt lat="42.891051" lon="-0.284406">
        <ele>2005.962</ele>
        <time>2020-07-20T06:54:52Z</time>
      </trkpt>
      <trkpt lat="42.891047" lon="-0.284340">
        <ele>2005.240</ele>
        <time>2020-07-20T06:54:59Z</time>
      </trkpt>
      <trkpt lat="42.891040" lon="-0.284277">
        <ele>2004.253</ele>
        <time>2020-07-20T06:55:03Z</time>
      </trkpt>
      <trkpt lat="42.891037" lon="-0.284213">
        <ele>2002.829</ele>
        <time>2020-07-20T06:55:12Z</time>
      </trkpt>
      <trkpt lat="42.890994" lon="-0.284235">
        <ele>2000.360</ele>
        <time>2020-07-20T06:55:26Z</time>
      </trkpt>
      <trkpt lat="42.890976" lon="-0.284304">
        <ele>2000.280</ele>
        <time>2020-07-20T06:55:31Z</time>
      </trkpt>
      <trkpt lat="42.890963" lon="-0.284369">
        <ele>1998.916</ele>
        <time>2020-07-20T06:55:36Z</time>
      </trkpt>
      <trkpt lat="42.890938" lon="-0.284433">
        <ele>1998.676</ele>
        <time>2020-07-20T06:55:41Z</time>
      </trkpt>
      <trkpt lat="42.890919" lon="-0.284492">
        <ele>1997.613</ele>
        <time>2020-07-20T06:55:47Z</time>
      </trkpt>
      <trkpt lat="42.890897" lon="-0.284425">
        <ele>1996.808</ele>
        <time>2020-07-20T06:55:53Z</time>
      </trkpt>
      <trkpt lat="42.890885" lon="-0.284360">
        <ele>1996.026</ele>
        <time>2020-07-20T06:55:56Z</time>
      </trkpt>
      <trkpt lat="42.890870" lon="-0.284288">
        <ele>1995.414</ele>
        <time>2020-07-20T06:56:03Z</time>
      </trkpt>
      <trkpt lat="42.890874" lon="-0.284224">
        <ele>1994.847</ele>
        <time>2020-07-20T06:56:07Z</time>
      </trkpt>
      <trkpt lat="42.890882" lon="-0.284155">
        <ele>1993.755</ele>
        <time>2020-07-20T06:56:12Z</time>
      </trkpt>
      <trkpt lat="42.890906" lon="-0.284095">
        <ele>1993.068</ele>
        <time>2020-07-20T06:56:19Z</time>
      </trkpt>
      <trkpt lat="42.890935" lon="-0.284038">
        <ele>1991.144</ele>
        <time>2020-07-20T06:56:26Z</time>
      </trkpt>
      <trkpt lat="42.890951" lon="-0.283973">
        <ele>1990.865</ele>
        <time>2020-07-20T06:56:29Z</time>
      </trkpt>
      <trkpt lat="42.890922" lon="-0.283922">
        <ele>1988.665</ele>
        <time>2020-07-20T06:56:41Z</time>
      </trkpt>
      <trkpt lat="42.890872" lon="-0.283973">
        <ele>1987.568</ele>
        <time>2020-07-20T06:56:46Z</time>
      </trkpt>
      <trkpt lat="42.890831" lon="-0.284023">
        <ele>1986.542</ele>
        <time>2020-07-20T06:56:51Z</time>
      </trkpt>
      <trkpt lat="42.890796" lon="-0.284066">
        <ele>1986.526</ele>
        <time>2020-07-20T06:56:55Z</time>
      </trkpt>
      <trkpt lat="42.890757" lon="-0.284110">
        <ele>1985.008</ele>
        <time>2020-07-20T06:57:03Z</time>
      </trkpt>
      <trkpt lat="42.890728" lon="-0.284063">
        <ele>1983.961</ele>
        <time>2020-07-20T06:57:12Z</time>
      </trkpt>
      <trkpt lat="42.890743" lon="-0.284000">
        <ele>1982.669</ele>
        <time>2020-07-20T06:57:18Z</time>
      </trkpt>
      <trkpt lat="42.890760" lon="-0.283934">
        <ele>1981.232</ele>
        <time>2020-07-20T06:57:23Z</time>
      </trkpt>
      <trkpt lat="42.890752" lon="-0.283884">
        <ele>1979.810</ele>
        <time>2020-07-20T06:57:33Z</time>
      </trkpt>
      <trkpt lat="42.890776" lon="-0.283839">
        <ele>1978.693</ele>
        <time>2020-07-20T06:57:39Z</time>
      </trkpt>
      <trkpt lat="42.890730" lon="-0.283837">
        <ele>1978.099</ele>
        <time>2020-07-20T06:57:48Z</time>
      </trkpt>
      <trkpt lat="42.890699" lon="-0.283896">
        <ele>1978.020</ele>
        <time>2020-07-20T06:57:51Z</time>
      </trkpt>
      <trkpt lat="42.890654" lon="-0.283883">
        <ele>1975.580</ele>
        <time>2020-07-20T06:58:01Z</time>
      </trkpt>
      <trkpt lat="42.890669" lon="-0.283840">
        <ele>1973.993</ele>
        <time>2020-07-20T06:58:08Z</time>
      </trkpt>
      <trkpt lat="42.890711" lon="-0.283816">
        <ele>1974.565</ele>
        <time>2020-07-20T06:58:29Z</time>
      </trkpt>
      <trkpt lat="42.890676" lon="-0.283765">
        <ele>1971.521</ele>
        <time>2020-07-20T06:58:58Z</time>
      </trkpt>
      <trkpt lat="42.890646" lon="-0.283749">
        <ele>1970.108</ele>
        <time>2020-07-20T06:59:05Z</time>
      </trkpt>
      <trkpt lat="42.890639" lon="-0.283687">
        <ele>1968.564</ele>
        <time>2020-07-20T06:59:19Z</time>
      </trkpt>
      <trkpt lat="42.890681" lon="-0.283648">
        <ele>1966.782</ele>
        <time>2020-07-20T06:59:28Z</time>
      </trkpt>
      <trkpt lat="42.890723" lon="-0.283607">
        <ele>1966.475</ele>
        <time>2020-07-20T06:59:36Z</time>
      </trkpt>
      <trkpt lat="42.890768" lon="-0.283570">
        <ele>1964.353</ele>
        <time>2020-07-20T06:59:40Z</time>
      </trkpt>
      <trkpt lat="42.890765" lon="-0.283507">
        <ele>1963.116</ele>
        <time>2020-07-20T06:59:49Z</time>
      </trkpt>
      <trkpt lat="42.890711" lon="-0.283479">
        <ele>1962.632</ele>
        <time>2020-07-20T06:59:55Z</time>
      </trkpt>
      <trkpt lat="42.890660" lon="-0.283473">
        <ele>1961.073</ele>
        <time>2020-07-20T07:00:00Z</time>
      </trkpt>
      <trkpt lat="42.890612" lon="-0.283483">
        <ele>1961.323</ele>
        <time>2020-07-20T07:00:03Z</time>
      </trkpt>
      <trkpt lat="42.890567" lon="-0.283509">
        <ele>1959.553</ele>
        <time>2020-07-20T07:00:11Z</time>
      </trkpt>
      <trkpt lat="42.890521" lon="-0.283510">
        <ele>1959.004</ele>
        <time>2020-07-20T07:00:17Z</time>
      </trkpt>
      <trkpt lat="42.890473" lon="-0.283493">
        <ele>1957.514</ele>
        <time>2020-07-20T07:00:23Z</time>
      </trkpt>
      <trkpt lat="42.890503" lon="-0.283432">
        <ele>1956.708</ele>
        <time>2020-07-20T07:00:30Z</time>
      </trkpt>
      <trkpt lat="42.890556" lon="-0.283419">
        <ele>1955.240</ele>
        <time>2020-07-20T07:00:33Z</time>
      </trkpt>
      <trkpt lat="42.890600" lon="-0.283405">
        <ele>1955.468</ele>
        <time>2020-07-20T07:00:39Z</time>
      </trkpt>
      <trkpt lat="42.890658" lon="-0.283384">
        <ele>1953.421</ele>
        <time>2020-07-20T07:00:44Z</time>
      </trkpt>
      <trkpt lat="42.890696" lon="-0.283344">
        <ele>1954.019</ele>
        <time>2020-07-20T07:00:48Z</time>
      </trkpt>
      <trkpt lat="42.890736" lon="-0.283307">
        <ele>1952.762</ele>
        <time>2020-07-20T07:00:52Z</time>
      </trkpt>
      <trkpt lat="42.890695" lon="-0.283264">
        <ele>1950.268</ele>
        <time>2020-07-20T07:01:04Z</time>
      </trkpt>
      <trkpt lat="42.890649" lon="-0.283282">
        <ele>1949.899</ele>
        <time>2020-07-20T07:01:07Z</time>
      </trkpt>
      <trkpt lat="42.890593" lon="-0.283288">
        <ele>1948.629</ele>
        <time>2020-07-20T07:01:12Z</time>
      </trkpt>
      <trkpt lat="42.890544" lon="-0.283264">
        <ele>1948.734</ele>
        <time>2020-07-20T07:01:16Z</time>
      </trkpt>
      <trkpt lat="42.890574" lon="-0.283215">
        <ele>1948.155</ele>
        <time>2020-07-20T07:01:25Z</time>
      </trkpt>
      <trkpt lat="42.890614" lon="-0.283223">
        <ele>1947.410</ele>
        <time>2020-07-20T07:01:39Z</time>
      </trkpt>
      <trkpt lat="42.890659" lon="-0.283223">
        <ele>1946.708</ele>
        <time>2020-07-20T07:01:53Z</time>
      </trkpt>
      <trkpt lat="42.890702" lon="-0.283188">
        <ele>1946.228</ele>
        <time>2020-07-20T07:02:00Z</time>
      </trkpt>
      <trkpt lat="42.890667" lon="-0.283141">
        <ele>1945.166</ele>
        <time>2020-07-20T07:02:14Z</time>
      </trkpt>
      <trkpt lat="42.890614" lon="-0.283157">
        <ele>1944.329</ele>
        <time>2020-07-20T07:02:18Z</time>
      </trkpt>
      <trkpt lat="42.890564" lon="-0.283149">
        <ele>1943.487</ele>
        <time>2020-07-20T07:02:25Z</time>
      </trkpt>
      <trkpt lat="42.890517" lon="-0.283157">
        <ele>1942.350</ele>
        <time>2020-07-20T07:02:31Z</time>
      </trkpt>
      <trkpt lat="42.890468" lon="-0.283134">
        <ele>1940.856</ele>
        <time>2020-07-20T07:02:39Z</time>
      </trkpt>
      <trkpt lat="42.890453" lon="-0.283061">
        <ele>1939.377</ele>
        <time>2020-07-20T07:02:46Z</time>
      </trkpt>
      <trkpt lat="42.890406" lon="-0.283054">
        <ele>1935.847</ele>
        <time>2020-07-20T07:02:53Z</time>
      </trkpt>
      <trkpt lat="42.890361" lon="-0.283074">
        <ele>1935.526</ele>
        <time>2020-07-20T07:02:59Z</time>
      </trkpt>
      <trkpt lat="42.890313" lon="-0.283054">
        <ele>1934.947</ele>
        <time>2020-07-20T07:03:09Z</time>
      </trkpt>
      <trkpt lat="42.890303" lon="-0.282992">
        <ele>1933.011</ele>
        <time>2020-07-20T07:03:12Z</time>
      </trkpt>
      <trkpt lat="42.890256" lon="-0.282967">
        <ele>1932.208</ele>
        <time>2020-07-20T07:03:21Z</time>
      </trkpt>
      <trkpt lat="42.890211" lon="-0.282948">
        <ele>1932.097</ele>
        <time>2020-07-20T07:03:28Z</time>
      </trkpt>
      <trkpt lat="42.890154" lon="-0.282942">
        <ele>1931.465</ele>
        <time>2020-07-20T07:03:31Z</time>
      </trkpt>
      <trkpt lat="42.890115" lon="-0.282900">
        <ele>1930.618</ele>
        <time>2020-07-20T07:03:39Z</time>
      </trkpt>
      <trkpt lat="42.890120" lon="-0.282835">
        <ele>1929.746</ele>
        <time>2020-07-20T07:03:43Z</time>
      </trkpt>
      <trkpt lat="42.890165" lon="-0.282815">
        <ele>1930.039</ele>
        <time>2020-07-20T07:04:15Z</time>
      </trkpt>
      <trkpt lat="42.890163" lon="-0.282752">
        <ele>1928.025</ele>
        <time>2020-07-20T07:04:54Z</time>
      </trkpt>
      <trkpt lat="42.890149" lon="-0.282693">
        <ele>1927.146</ele>
        <time>2020-07-20T07:05:01Z</time>
      </trkpt>
      <trkpt lat="42.890182" lon="-0.282646">
        <ele>1925.326</ele>
        <time>2020-07-20T07:05:11Z</time>
      </trkpt>
      <trkpt lat="42.890182" lon="-0.282576">
        <ele>1923.834</ele>
        <time>2020-07-20T07:05:20Z</time>
      </trkpt>
      <trkpt lat="42.890139" lon="-0.282553">
        <ele>1923.155</ele>
        <time>2020-07-20T07:05:29Z</time>
      </trkpt>
      <trkpt lat="42.890126" lon="-0.282490">
        <ele>1921.910</ele>
        <time>2020-07-20T07:05:34Z</time>
      </trkpt>
      <trkpt lat="42.890164" lon="-0.282444">
        <ele>1920.808</ele>
        <time>2020-07-20T07:05:45Z</time>
      </trkpt>
      <trkpt lat="42.890138" lon="-0.282392">
        <ele>1919.188</ele>
        <time>2020-07-20T07:05:59Z</time>
      </trkpt>
      <trkpt lat="42.890087" lon="-0.282400">
        <ele>1917.816</ele>
        <time>2020-07-20T07:06:05Z</time>
      </trkpt>
      <trkpt lat="42.890069" lon="-0.282336">
        <ele>1915.819</ele>
        <time>2020-07-20T07:06:19Z</time>
      </trkpt>
      <trkpt lat="42.890119" lon="-0.282334">
        <ele>1915.877</ele>
        <time>2020-07-20T07:06:40Z</time>
      </trkpt>
      <trkpt lat="42.890160" lon="-0.282295">
        <ele>1914.670</ele>
        <time>2020-07-20T07:06:48Z</time>
      </trkpt>
      <trkpt lat="42.890166" lon="-0.282233">
        <ele>1914.496</ele>
        <time>2020-07-20T07:06:50Z</time>
      </trkpt>
      <trkpt lat="42.890184" lon="-0.282164">
        <ele>1913.157</ele>
        <time>2020-07-20T07:06:59Z</time>
      </trkpt>
      <trkpt lat="42.890204" lon="-0.282106">
        <ele>1913.057</ele>
        <time>2020-07-20T07:07:07Z</time>
      </trkpt>
      <trkpt lat="42.890166" lon="-0.282070">
        <ele>1910.855</ele>
        <time>2020-07-20T07:07:31Z</time>
      </trkpt>
      <trkpt lat="42.890168" lon="-0.281996">
        <ele>1909.807</ele>
        <time>2020-07-20T07:07:36Z</time>
      </trkpt>
      <trkpt lat="42.890144" lon="-0.281939">
        <ele>1909.517</ele>
        <time>2020-07-20T07:07:41Z</time>
      </trkpt>
      <trkpt lat="42.890125" lon="-0.281878">
        <ele>1908.908</ele>
        <time>2020-07-20T07:07:47Z</time>
      </trkpt>
      <trkpt lat="42.890096" lon="-0.281820">
        <ele>1906.970</ele>
        <time>2020-07-20T07:07:54Z</time>
      </trkpt>
      <trkpt lat="42.890122" lon="-0.281759">
        <ele>1904.768</ele>
        <time>2020-07-20T07:08:04Z</time>
      </trkpt>
      <trkpt lat="42.890107" lon="-0.281698">
        <ele>1904.681</ele>
        <time>2020-07-20T07:08:12Z</time>
      </trkpt>
      <trkpt lat="42.890071" lon="-0.281656">
        <ele>1904.199</ele>
        <time>2020-07-20T07:08:22Z</time>
      </trkpt>
      <trkpt lat="42.890022" lon="-0.281665">
        <ele>1901.232</ele>
        <time>2020-07-20T07:09:30Z</time>
      </trkpt>
      <trkpt lat="42.889978" lon="-0.281645">
        <ele>1899.778</ele>
        <time>2020-07-20T07:09:35Z</time>
      </trkpt>
      <trkpt lat="42.889930" lon="-0.281644">
        <ele>1899.489</ele>
        <time>2020-07-20T07:09:45Z</time>
      </trkpt>
      <trkpt lat="42.889882" lon="-0.281613">
        <ele>1897.839</ele>
        <time>2020-07-20T07:09:50Z</time>
      </trkpt>
      <trkpt lat="42.889846" lon="-0.281649">
        <ele>1896.849</ele>
        <time>2020-07-20T07:09:58Z</time>
      </trkpt>
      <trkpt lat="42.889847" lon="-0.281723">
        <ele>1895.102</ele>
        <time>2020-07-20T07:10:04Z</time>
      </trkpt>
      <trkpt lat="42.889861" lon="-0.281782">
        <ele>1895.622</ele>
        <time>2020-07-20T07:10:08Z</time>
      </trkpt>
      <trkpt lat="42.889879" lon="-0.281851">
        <ele>1894.908</ele>
        <time>2020-07-20T07:10:13Z</time>
      </trkpt>
      <trkpt lat="42.889863" lon="-0.281918">
        <ele>1894.159</ele>
        <time>2020-07-20T07:10:19Z</time>
      </trkpt>
      <trkpt lat="42.889817" lon="-0.281889">
        <ele>1892.897</ele>
        <time>2020-07-20T07:10:24Z</time>
      </trkpt>
      <trkpt lat="42.889775" lon="-0.281865">
        <ele>1892.480</ele>
        <time>2020-07-20T07:10:32Z</time>
      </trkpt>
      <trkpt lat="42.889765" lon="-0.281802">
        <ele>1891.798</ele>
        <time>2020-07-20T07:10:34Z</time>
      </trkpt>
      <trkpt lat="42.889765" lon="-0.281721">
        <ele>1890.611</ele>
        <time>2020-07-20T07:10:41Z</time>
      </trkpt>
      <trkpt lat="42.889722" lon="-0.281713">
        <ele>1889.057</ele>
        <time>2020-07-20T07:10:50Z</time>
      </trkpt>
      <trkpt lat="42.889711" lon="-0.281779">
        <ele>1887.988</ele>
        <time>2020-07-20T07:11:00Z</time>
      </trkpt>
      <trkpt lat="42.889685" lon="-0.281727">
        <ele>1886.288</ele>
        <time>2020-07-20T07:11:13Z</time>
      </trkpt>
      <trkpt lat="42.889688" lon="-0.281662">
        <ele>1885.773</ele>
        <time>2020-07-20T07:11:17Z</time>
      </trkpt>
      <trkpt lat="42.889672" lon="-0.281595">
        <ele>1884.885</ele>
        <time>2020-07-20T07:11:25Z</time>
      </trkpt>
      <trkpt lat="42.889668" lon="-0.281526">
        <ele>1883.513</ele>
        <time>2020-07-20T07:11:33Z</time>
      </trkpt>
      <trkpt lat="42.889683" lon="-0.281455">
        <ele>1882.108</ele>
        <time>2020-07-20T07:11:40Z</time>
      </trkpt>
      <trkpt lat="42.889669" lon="-0.281394">
        <ele>1881.192</ele>
        <time>2020-07-20T07:11:47Z</time>
      </trkpt>
      <trkpt lat="42.889694" lon="-0.281341">
        <ele>1880.070</ele>
        <time>2020-07-20T07:11:53Z</time>
      </trkpt>
      <trkpt lat="42.889720" lon="-0.281289">
        <ele>1879.033</ele>
        <time>2020-07-20T07:11:56Z</time>
      </trkpt>
      <trkpt lat="42.889748" lon="-0.281232">
        <ele>1876.531</ele>
        <time>2020-07-20T07:12:02Z</time>
      </trkpt>
      <trkpt lat="42.889787" lon="-0.281194">
        <ele>1876.524</ele>
        <time>2020-07-20T07:12:13Z</time>
      </trkpt>
      <trkpt lat="42.889828" lon="-0.281160">
        <ele>1874.870</ele>
        <time>2020-07-20T07:12:19Z</time>
      </trkpt>
      <trkpt lat="42.889870" lon="-0.281138">
        <ele>1874.391</ele>
        <time>2020-07-20T07:12:26Z</time>
      </trkpt>
      <trkpt lat="42.889914" lon="-0.281094">
        <ele>1873.181</ele>
        <time>2020-07-20T07:12:33Z</time>
      </trkpt>
      <trkpt lat="42.889962" lon="-0.281052">
        <ele>1871.813</ele>
        <time>2020-07-20T07:12:38Z</time>
      </trkpt>
      <trkpt lat="42.889996" lon="-0.281006">
        <ele>1871.143</ele>
        <time>2020-07-20T07:12:47Z</time>
      </trkpt>
      <trkpt lat="42.889961" lon="-0.280965">
        <ele>1868.507</ele>
        <time>2020-07-20T07:13:23Z</time>
      </trkpt>
      <trkpt lat="42.889907" lon="-0.280978">
        <ele>1867.808</ele>
        <time>2020-07-20T07:13:26Z</time>
      </trkpt>
      <trkpt lat="42.889848" lon="-0.280983">
        <ele>1866.456</ele>
        <time>2020-07-20T07:13:33Z</time>
      </trkpt>
      <trkpt lat="42.889796" lon="-0.280983">
        <ele>1866.314</ele>
        <time>2020-07-20T07:13:39Z</time>
      </trkpt>
      <trkpt lat="42.889748" lon="-0.280957">
        <ele>1864.667</ele>
        <time>2020-07-20T07:13:43Z</time>
      </trkpt>
      <trkpt lat="42.889696" lon="-0.280946">
        <ele>1863.085</ele>
        <time>2020-07-20T07:13:52Z</time>
      </trkpt>
      <trkpt lat="42.889649" lon="-0.280965">
        <ele>1862.418</ele>
        <time>2020-07-20T07:13:58Z</time>
      </trkpt>
      <trkpt lat="42.889614" lon="-0.281005">
        <ele>1862.344</ele>
        <time>2020-07-20T07:14:03Z</time>
      </trkpt>
      <trkpt lat="42.889562" lon="-0.281017">
        <ele>1860.445</ele>
        <time>2020-07-20T07:14:10Z</time>
      </trkpt>
      <trkpt lat="42.889587" lon="-0.280956">
        <ele>1859.765</ele>
        <time>2020-07-20T07:14:15Z</time>
      </trkpt>
      <trkpt lat="42.889618" lon="-0.280901">
        <ele>1859.652</ele>
        <time>2020-07-20T07:14:20Z</time>
      </trkpt>
      <trkpt lat="42.889660" lon="-0.280851">
        <ele>1858.653</ele>
        <time>2020-07-20T07:14:25Z</time>
      </trkpt>
      <trkpt lat="42.889708" lon="-0.280813">
        <ele>1857.708</ele>
        <time>2020-07-20T07:14:30Z</time>
      </trkpt>
      <trkpt lat="42.889760" lon="-0.280814">
        <ele>1856.808</ele>
        <time>2020-07-20T07:14:37Z</time>
      </trkpt>
      <trkpt lat="42.889732" lon="-0.280749">
        <ele>1855.720</ele>
        <time>2020-07-20T07:14:41Z</time>
      </trkpt>
      <trkpt lat="42.889702" lon="-0.280684">
        <ele>1855.268</ele>
        <time>2020-07-20T07:14:48Z</time>
      </trkpt>
      <trkpt lat="42.889658" lon="-0.280649">
        <ele>1853.871</ele>
        <time>2020-07-20T07:14:51Z</time>
      </trkpt>
      <trkpt lat="42.889611" lon="-0.280638">
        <ele>1852.359</ele>
        <time>2020-07-20T07:14:59Z</time>
      </trkpt>
      <trkpt lat="42.889564" lon="-0.280626">
        <ele>1852.342</ele>
        <time>2020-07-20T07:15:01Z</time>
      </trkpt>
      <trkpt lat="42.889579" lon="-0.280561">
        <ele>1850.648</ele>
        <time>2020-07-20T07:15:11Z</time>
      </trkpt>
      <trkpt lat="42.889619" lon="-0.280532">
        <ele>1849.639</ele>
        <time>2020-07-20T07:15:18Z</time>
      </trkpt>
      <trkpt lat="42.889667" lon="-0.280550">
        <ele>1848.889</ele>
        <time>2020-07-20T07:15:21Z</time>
      </trkpt>
      <trkpt lat="42.889713" lon="-0.280592">
        <ele>1847.666</ele>
        <time>2020-07-20T07:15:28Z</time>
      </trkpt>
      <trkpt lat="42.889760" lon="-0.280618">
        <ele>1846.129</ele>
        <time>2020-07-20T07:15:34Z</time>
      </trkpt>
      <trkpt lat="42.889805" lon="-0.280637">
        <ele>1844.721</ele>
        <time>2020-07-20T07:15:45Z</time>
      </trkpt>
      <trkpt lat="42.889852" lon="-0.280628">
        <ele>1844.408</ele>
        <time>2020-07-20T07:15:49Z</time>
      </trkpt>
      <trkpt lat="42.889888" lon="-0.280573">
        <ele>1843.671</ele>
        <time>2020-07-20T07:15:55Z</time>
      </trkpt>
      <trkpt lat="42.889918" lon="-0.280507">
        <ele>1842.529</ele>
        <time>2020-07-20T07:16:00Z</time>
      </trkpt>
      <trkpt lat="42.889937" lon="-0.280451">
        <ele>1841.912</ele>
        <time>2020-07-20T07:16:07Z</time>
      </trkpt>
      <trkpt lat="42.889901" lon="-0.280413">
        <ele>1841.290</ele>
        <time>2020-07-20T07:16:13Z</time>
      </trkpt>
      <trkpt lat="42.889853" lon="-0.280415">
        <ele>1840.143</ele>
        <time>2020-07-20T07:16:15Z</time>
      </trkpt>
      <trkpt lat="42.889799" lon="-0.280433">
        <ele>1838.929</ele>
        <time>2020-07-20T07:16:25Z</time>
      </trkpt>
      <trkpt lat="42.889749" lon="-0.280438">
        <ele>1837.820</ele>
        <time>2020-07-20T07:16:29Z</time>
      </trkpt>
      <trkpt lat="42.889778" lon="-0.280372">
        <ele>1836.620</ele>
        <time>2020-07-20T07:16:35Z</time>
      </trkpt>
      <trkpt lat="42.889830" lon="-0.280337">
        <ele>1836.024</ele>
        <time>2020-07-20T07:16:40Z</time>
      </trkpt>
      <trkpt lat="42.889881" lon="-0.280328">
        <ele>1835.804</ele>
        <time>2020-07-20T07:16:47Z</time>
      </trkpt>
      <trkpt lat="42.889930" lon="-0.280340">
        <ele>1835.014</ele>
        <time>2020-07-20T07:16:49Z</time>
      </trkpt>
      <trkpt lat="42.889968" lon="-0.280407">
        <ele>1835.908</ele>
        <time>2020-07-20T07:17:04Z</time>
      </trkpt>
      <trkpt lat="42.890016" lon="-0.280414">
        <ele>1834.617</ele>
        <time>2020-07-20T07:17:11Z</time>
      </trkpt>
      <trkpt lat="42.890063" lon="-0.280396">
        <ele>1832.675</ele>
        <time>2020-07-20T07:17:17Z</time>
      </trkpt>
      <trkpt lat="42.890106" lon="-0.280342">
        <ele>1831.988</ele>
        <time>2020-07-20T07:17:25Z</time>
      </trkpt>
      <trkpt lat="42.890060" lon="-0.280318">
        <ele>1831.026</ele>
        <time>2020-07-20T07:17:30Z</time>
      </trkpt>
      <trkpt lat="42.890012" lon="-0.280297">
        <ele>1830.159</ele>
        <time>2020-07-20T07:17:39Z</time>
      </trkpt>
      <trkpt lat="42.889962" lon="-0.280263">
        <ele>1829.655</ele>
        <time>2020-07-20T07:17:43Z</time>
      </trkpt>
      <trkpt lat="42.889913" lon="-0.280234">
        <ele>1829.136</ele>
        <time>2020-07-20T07:17:47Z</time>
      </trkpt>
      <trkpt lat="42.889862" lon="-0.280218">
        <ele>1828.616</ele>
        <time>2020-07-20T07:17:52Z</time>
      </trkpt>
      <trkpt lat="42.889811" lon="-0.280218">
        <ele>1828.475</ele>
        <time>2020-07-20T07:17:58Z</time>
      </trkpt>
      <trkpt lat="42.889762" lon="-0.280238">
        <ele>1826.628</ele>
        <time>2020-07-20T07:18:01Z</time>
      </trkpt>
      <trkpt lat="42.889709" lon="-0.280241">
        <ele>1826.420</ele>
        <time>2020-07-20T07:18:07Z</time>
      </trkpt>
      <trkpt lat="42.889733" lon="-0.280187">
        <ele>1825.508</ele>
        <time>2020-07-20T07:18:17Z</time>
      </trkpt>
      <trkpt lat="42.889788" lon="-0.280153">
        <ele>1823.912</ele>
        <time>2020-07-20T07:18:21Z</time>
      </trkpt>
      <trkpt lat="42.889738" lon="-0.280129">
        <ele>1821.530</ele>
        <time>2020-07-20T07:18:33Z</time>
      </trkpt>
      <trkpt lat="42.889761" lon="-0.280069">
        <ele>1819.543</ele>
        <time>2020-07-20T07:19:04Z</time>
      </trkpt>
      <trkpt lat="42.889799" lon="-0.280019">
        <ele>1818.441</ele>
        <time>2020-07-20T07:19:06Z</time>
      </trkpt>
      <trkpt lat="42.889839" lon="-0.279982">
        <ele>1817.614</ele>
        <time>2020-07-20T07:19:13Z</time>
      </trkpt>
      <trkpt lat="42.889872" lon="-0.279933">
        <ele>1817.250</ele>
        <time>2020-07-20T07:19:19Z</time>
      </trkpt>
      <trkpt lat="42.889819" lon="-0.279948">
        <ele>1814.861</ele>
        <time>2020-07-20T07:19:33Z</time>
      </trkpt>
      <trkpt lat="42.889770" lon="-0.279965">
        <ele>1814.121</ele>
        <time>2020-07-20T07:19:39Z</time>
      </trkpt>
      <trkpt lat="42.889718" lon="-0.279980">
        <ele>1813.386</ele>
        <time>2020-07-20T07:19:45Z</time>
      </trkpt>
      <trkpt lat="42.889695" lon="-0.279923">
        <ele>1812.960</ele>
        <time>2020-07-20T07:19:53Z</time>
      </trkpt>
      <trkpt lat="42.889739" lon="-0.279878">
        <ele>1811.426</ele>
        <time>2020-07-20T07:19:59Z</time>
      </trkpt>
      <trkpt lat="42.889789" lon="-0.279846">
        <ele>1809.908</ele>
        <time>2020-07-20T07:20:05Z</time>
      </trkpt>
      <trkpt lat="42.889823" lon="-0.279837">
        <ele>1809.743</ele>
        <time>2020-07-20T07:20:09Z</time>
      </trkpt>
      <trkpt lat="42.889865" lon="-0.279851">
        <ele>1810.091</ele>
        <time>2020-07-20T07:20:28Z</time>
      </trkpt>
      <trkpt lat="42.889895" lon="-0.279833">
        <ele>1807.984</ele>
        <time>2020-07-20T07:21:54Z</time>
      </trkpt>
      <trkpt lat="42.889942" lon="-0.279801">
        <ele>1807.812</ele>
        <time>2020-07-20T07:22:02Z</time>
      </trkpt>
      <trkpt lat="42.889984" lon="-0.279763">
        <ele>1806.345</ele>
        <time>2020-07-20T07:22:07Z</time>
      </trkpt>
      <trkpt lat="42.890034" lon="-0.279749">
        <ele>1804.721</ele>
        <time>2020-07-20T07:22:13Z</time>
      </trkpt>
      <trkpt lat="42.890085" lon="-0.279765">
        <ele>1804.312</ele>
        <time>2020-07-20T07:22:15Z</time>
      </trkpt>
      <trkpt lat="42.890133" lon="-0.279793">
        <ele>1802.742</ele>
        <time>2020-07-20T07:22:19Z</time>
      </trkpt>
      <trkpt lat="42.890182" lon="-0.279815">
        <ele>1802.195</ele>
        <time>2020-07-20T07:22:26Z</time>
      </trkpt>
      <trkpt lat="42.890226" lon="-0.279824">
        <ele>1801.249</ele>
        <time>2020-07-20T07:22:31Z</time>
      </trkpt>
      <trkpt lat="42.890184" lon="-0.279768">
        <ele>1799.323</ele>
        <time>2020-07-20T07:22:40Z</time>
      </trkpt>
      <trkpt lat="42.890132" lon="-0.279743">
        <ele>1798.308</ele>
        <time>2020-07-20T07:22:45Z</time>
      </trkpt>
      <trkpt lat="42.890093" lon="-0.279695">
        <ele>1797.434</ele>
        <time>2020-07-20T07:22:51Z</time>
      </trkpt>
      <trkpt lat="42.890090" lon="-0.279652">
        <ele>1796.552</ele>
        <time>2020-07-20T07:22:56Z</time>
      </trkpt>
      <trkpt lat="42.890140" lon="-0.279649">
        <ele>1795.335</ele>
        <time>2020-07-20T07:22:58Z</time>
      </trkpt>
      <trkpt lat="42.890187" lon="-0.279661">
        <ele>1794.963</ele>
        <time>2020-07-20T07:23:03Z</time>
      </trkpt>
      <trkpt lat="42.890229" lon="-0.279693">
        <ele>1793.916</ele>
        <time>2020-07-20T07:23:08Z</time>
      </trkpt>
      <trkpt lat="42.890282" lon="-0.279715">
        <ele>1793.432</ele>
        <time>2020-07-20T07:23:16Z</time>
      </trkpt>
      <trkpt lat="42.890336" lon="-0.279717">
        <ele>1791.953</ele>
        <time>2020-07-20T07:23:22Z</time>
      </trkpt>
      <trkpt lat="42.890379" lon="-0.279697">
        <ele>1791.553</ele>
        <time>2020-07-20T07:23:26Z</time>
      </trkpt>
      <trkpt lat="42.890334" lon="-0.279664">
        <ele>1789.596</ele>
        <time>2020-07-20T07:23:39Z</time>
      </trkpt>
      <trkpt lat="42.890284" lon="-0.279654">
        <ele>1789.631</ele>
        <time>2020-07-20T07:23:42Z</time>
      </trkpt>
      <trkpt lat="42.890235" lon="-0.279626">
        <ele>1788.824</ele>
        <time>2020-07-20T07:23:47Z</time>
      </trkpt>
      <trkpt lat="42.890203" lon="-0.279577">
        <ele>1787.908</ele>
        <time>2020-07-20T07:23:51Z</time>
      </trkpt>
      <trkpt lat="42.890262" lon="-0.279573">
        <ele>1786.754</ele>
        <time>2020-07-20T07:23:59Z</time>
      </trkpt>
      <trkpt lat="42.890310" lon="-0.279564">
        <ele>1786.772</ele>
        <time>2020-07-20T07:24:04Z</time>
      </trkpt>
      <trkpt lat="42.890309" lon="-0.279502">
        <ele>1783.225</ele>
        <time>2020-07-20T07:24:16Z</time>
      </trkpt>
      <trkpt lat="42.890349" lon="-0.279465">
        <ele>1782.033</ele>
        <time>2020-07-20T07:24:25Z</time>
      </trkpt>
      <trkpt lat="42.890390" lon="-0.279436">
        <ele>1780.316</ele>
        <time>2020-07-20T07:24:36Z</time>
      </trkpt>
      <trkpt lat="42.890354" lon="-0.279393">
        <ele>1780.242</ele>
        <time>2020-07-20T07:24:41Z</time>
      </trkpt>
      <trkpt lat="42.890304" lon="-0.279385">
        <ele>1778.663</ele>
        <time>2020-07-20T07:24:45Z</time>
      </trkpt>
      <trkpt lat="42.890251" lon="-0.279375">
        <ele>1778.643</ele>
        <time>2020-07-20T07:24:50Z</time>
      </trkpt>
      <trkpt lat="42.890302" lon="-0.279335">
        <ele>1776.942</ele>
        <time>2020-07-20T07:25:04Z</time>
      </trkpt>
      <trkpt lat="42.890364" lon="-0.279336">
        <ele>1775.622</ele>
        <time>2020-07-20T07:25:09Z</time>
      </trkpt>
      <trkpt lat="42.890344" lon="-0.279273">
        <ele>1775.014</ele>
        <time>2020-07-20T07:25:17Z</time>
      </trkpt>
      <trkpt lat="42.890294" lon="-0.279256">
        <ele>1773.808</ele>
        <time>2020-07-20T07:25:19Z</time>
      </trkpt>
      <trkpt lat="42.890246" lon="-0.279242">
        <ele>1773.659</ele>
        <time>2020-07-20T07:25:27Z</time>
      </trkpt>
      <trkpt lat="42.890291" lon="-0.279204">
        <ele>1773.387</ele>
        <time>2020-07-20T07:25:36Z</time>
      </trkpt>
      <trkpt lat="42.890349" lon="-0.279209">
        <ele>1772.870</ele>
        <time>2020-07-20T07:25:41Z</time>
      </trkpt>
      <trkpt lat="42.890392" lon="-0.279227">
        <ele>1771.498</ele>
        <time>2020-07-20T07:25:45Z</time>
      </trkpt>
      <trkpt lat="42.890444" lon="-0.279236">
        <ele>1770.531</ele>
        <time>2020-07-20T07:25:48Z</time>
      </trkpt>
      <trkpt lat="42.890398" lon="-0.279183">
        <ele>1770.037</ele>
        <time>2020-07-20T07:26:15Z</time>
      </trkpt>
      <trkpt lat="42.890354" lon="-0.279162">
        <ele>1769.518</ele>
        <time>2020-07-20T07:26:32Z</time>
      </trkpt>
      <trkpt lat="42.890313" lon="-0.279118">
        <ele>1769.238</ele>
        <time>2020-07-20T07:26:38Z</time>
      </trkpt>
      <trkpt lat="42.890360" lon="-0.279093">
        <ele>1767.127</ele>
        <time>2020-07-20T07:26:52Z</time>
      </trkpt>
      <trkpt lat="42.890395" lon="-0.279131">
        <ele>1766.868</ele>
        <time>2020-07-20T07:27:06Z</time>
      </trkpt>
      <trkpt lat="42.890446" lon="-0.279136">
        <ele>1766.414</ele>
        <time>2020-07-20T07:27:12Z</time>
      </trkpt>
      <trkpt lat="42.890503" lon="-0.279122">
        <ele>1765.308</ele>
        <time>2020-07-20T07:27:16Z</time>
      </trkpt>
      <trkpt lat="42.890542" lon="-0.279082">
        <ele>1764.797</ele>
        <time>2020-07-20T07:27:22Z</time>
      </trkpt>
      <trkpt lat="42.890553" lon="-0.279022">
        <ele>1763.875</ele>
        <time>2020-07-20T07:27:28Z</time>
      </trkpt>
      <trkpt lat="42.890582" lon="-0.278966">
        <ele>1762.748</ele>
        <time>2020-07-20T07:27:38Z</time>
      </trkpt>
      <trkpt lat="42.890542" lon="-0.278928">
        <ele>1761.656</ele>
        <time>2020-07-20T07:27:43Z</time>
      </trkpt>
      <trkpt lat="42.890492" lon="-0.278940">
        <ele>1761.689</ele>
        <time>2020-07-20T07:27:48Z</time>
      </trkpt>
      <trkpt lat="42.890445" lon="-0.278933">
        <ele>1761.375</ele>
        <time>2020-07-20T07:27:52Z</time>
      </trkpt>
      <trkpt lat="42.890400" lon="-0.278956">
        <ele>1760.226</ele>
        <time>2020-07-20T07:27:57Z</time>
      </trkpt>
      <trkpt lat="42.890354" lon="-0.278939">
        <ele>1759.836</ele>
        <time>2020-07-20T07:28:03Z</time>
      </trkpt>
      <trkpt lat="42.890310" lon="-0.278903">
        <ele>1759.078</ele>
        <time>2020-07-20T07:28:08Z</time>
      </trkpt>
      <trkpt lat="42.890340" lon="-0.278846">
        <ele>1758.133</ele>
        <time>2020-07-20T07:28:16Z</time>
      </trkpt>
      <trkpt lat="42.890387" lon="-0.278824">
        <ele>1757.626</ele>
        <time>2020-07-20T07:28:20Z</time>
      </trkpt>
      <trkpt lat="42.890434" lon="-0.278803">
        <ele>1756.908</ele>
        <time>2020-07-20T07:28:32Z</time>
      </trkpt>
      <trkpt lat="42.890484" lon="-0.278792">
        <ele>1756.212</ele>
        <time>2020-07-20T07:28:42Z</time>
      </trkpt>
      <trkpt lat="42.890441" lon="-0.278766">
        <ele>1754.290</ele>
        <time>2020-07-20T07:28:59Z</time>
      </trkpt>
      <trkpt lat="42.890395" lon="-0.278737">
        <ele>1752.563</ele>
        <time>2020-07-20T07:29:08Z</time>
      </trkpt>
      <trkpt lat="42.890445" lon="-0.278719">
        <ele>1751.921</ele>
        <time>2020-07-20T07:29:15Z</time>
      </trkpt>
      <trkpt lat="42.890493" lon="-0.278696">
        <ele>1751.014</ele>
        <time>2020-07-20T07:29:21Z</time>
      </trkpt>
      <trkpt lat="42.890548" lon="-0.278671">
        <ele>1750.260</ele>
        <time>2020-07-20T07:29:25Z</time>
      </trkpt>
      <trkpt lat="42.890594" lon="-0.278667">
        <ele>1749.421</ele>
        <time>2020-07-20T07:29:31Z</time>
      </trkpt>
      <trkpt lat="42.890653" lon="-0.278659">
        <ele>1748.361</ele>
        <time>2020-07-20T07:29:36Z</time>
      </trkpt>
      <trkpt lat="42.890628" lon="-0.278596">
        <ele>1747.322</ele>
        <time>2020-07-20T07:29:45Z</time>
      </trkpt>
      <trkpt lat="42.890581" lon="-0.278587">
        <ele>1746.462</ele>
        <time>2020-07-20T07:29:50Z</time>
      </trkpt>
      <trkpt lat="42.890534" lon="-0.278559">
        <ele>1746.408</ele>
        <time>2020-07-20T07:29:53Z</time>
      </trkpt>
      <trkpt lat="42.890481" lon="-0.278539">
        <ele>1744.708</ele>
        <time>2020-07-20T07:30:02Z</time>
      </trkpt>
      <trkpt lat="42.890523" lon="-0.278513">
        <ele>1744.187</ele>
        <time>2020-07-20T07:30:13Z</time>
      </trkpt>
      <trkpt lat="42.890573" lon="-0.278534">
        <ele>1743.745</ele>
        <time>2020-07-20T07:30:18Z</time>
      </trkpt>
      <trkpt lat="42.890620" lon="-0.278530">
        <ele>1742.738</ele>
        <time>2020-07-20T07:30:22Z</time>
      </trkpt>
      <trkpt lat="42.890665" lon="-0.278524">
        <ele>1742.556</ele>
        <time>2020-07-20T07:30:26Z</time>
      </trkpt>
      <trkpt lat="42.890712" lon="-0.278494">
        <ele>1742.179</ele>
        <time>2020-07-20T07:30:31Z</time>
      </trkpt>
      <trkpt lat="42.890675" lon="-0.278436">
        <ele>1740.185</ele>
        <time>2020-07-20T07:30:39Z</time>
      </trkpt>
      <trkpt lat="42.890620" lon="-0.278421">
        <ele>1739.916</ele>
        <time>2020-07-20T07:30:43Z</time>
      </trkpt>
      <trkpt lat="42.890572" lon="-0.278405">
        <ele>1738.636</ele>
        <time>2020-07-20T07:30:47Z</time>
      </trkpt>
      <trkpt lat="42.890524" lon="-0.278383">
        <ele>1738.841</ele>
        <time>2020-07-20T07:30:50Z</time>
      </trkpt>
      <trkpt lat="42.890470" lon="-0.278375">
        <ele>1737.881</ele>
        <time>2020-07-20T07:30:55Z</time>
      </trkpt>
      <trkpt lat="42.890418" lon="-0.278364">
        <ele>1737.009</ele>
        <time>2020-07-20T07:30:59Z</time>
      </trkpt>
      <trkpt lat="42.890462" lon="-0.278322">
        <ele>1736.308</ele>
        <time>2020-07-20T07:31:08Z</time>
      </trkpt>
      <trkpt lat="42.890514" lon="-0.278322">
        <ele>1735.849</ele>
        <time>2020-07-20T07:31:13Z</time>
      </trkpt>
      <trkpt lat="42.890570" lon="-0.278323">
        <ele>1735.077</ele>
        <time>2020-07-20T07:31:16Z</time>
      </trkpt>
      <trkpt lat="42.890625" lon="-0.278327">
        <ele>1734.510</ele>
        <time>2020-07-20T07:31:20Z</time>
      </trkpt>
      <trkpt lat="42.890605" lon="-0.278264">
        <ele>1733.658</ele>
        <time>2020-07-20T07:31:28Z</time>
      </trkpt>
      <trkpt lat="42.890562" lon="-0.278242">
        <ele>1732.961</ele>
        <time>2020-07-20T07:31:31Z</time>
      </trkpt>
      <trkpt lat="42.890513" lon="-0.278210">
        <ele>1731.667</ele>
        <time>2020-07-20T07:31:36Z</time>
      </trkpt>
      <trkpt lat="42.890463" lon="-0.278182">
        <ele>1731.518</ele>
        <time>2020-07-20T07:31:42Z</time>
      </trkpt>
      <trkpt lat="42.890509" lon="-0.278161">
        <ele>1730.018</ele>
        <time>2020-07-20T07:31:53Z</time>
      </trkpt>
      <trkpt lat="42.890556" lon="-0.278182">
        <ele>1729.319</ele>
        <time>2020-07-20T07:31:56Z</time>
      </trkpt>
      <trkpt lat="42.890609" lon="-0.278187">
        <ele>1728.309</ele>
        <time>2020-07-20T07:32:02Z</time>
      </trkpt>
      <trkpt lat="42.890659" lon="-0.278188">
        <ele>1728.019</ele>
        <time>2020-07-20T07:32:05Z</time>
      </trkpt>
      <trkpt lat="42.890699" lon="-0.278155">
        <ele>1726.508</ele>
        <time>2020-07-20T07:32:12Z</time>
      </trkpt>
      <trkpt lat="42.890659" lon="-0.278093">
        <ele>1725.066</ele>
        <time>2020-07-20T07:32:18Z</time>
      </trkpt>
      <trkpt lat="42.890607" lon="-0.278058">
        <ele>1724.544</ele>
        <time>2020-07-20T07:32:24Z</time>
      </trkpt>
      <trkpt lat="42.890562" lon="-0.278039">
        <ele>1724.137</ele>
        <time>2020-07-20T07:32:28Z</time>
      </trkpt>
      <trkpt lat="42.890607" lon="-0.278017">
        <ele>1722.145</ele>
        <time>2020-07-20T07:32:43Z</time>
      </trkpt>
      <trkpt lat="42.890660" lon="-0.278025">
        <ele>1721.538</ele>
        <time>2020-07-20T07:32:48Z</time>
      </trkpt>
      <trkpt lat="42.890643" lon="-0.277978">
        <ele>1721.044</ele>
        <time>2020-07-20T07:32:55Z</time>
      </trkpt>
      <trkpt lat="42.890595" lon="-0.277953">
        <ele>1720.095</ele>
        <time>2020-07-20T07:32:59Z</time>
      </trkpt>
      <trkpt lat="42.890549" lon="-0.277923">
        <ele>1719.725</ele>
        <time>2020-07-20T07:33:05Z</time>
      </trkpt>
      <trkpt lat="42.890502" lon="-0.277896">
        <ele>1718.983</ele>
        <time>2020-07-20T07:33:10Z</time>
      </trkpt>
      <trkpt lat="42.890550" lon="-0.277887">
        <ele>1717.425</ele>
        <time>2020-07-20T07:33:25Z</time>
      </trkpt>
      <trkpt lat="42.890603" lon="-0.277898">
        <ele>1716.217</ele>
        <time>2020-07-20T07:33:29Z</time>
      </trkpt>
      <trkpt lat="42.890644" lon="-0.277931">
        <ele>1716.408</ele>
        <time>2020-07-20T07:33:36Z</time>
      </trkpt>
      <trkpt lat="42.890688" lon="-0.277958">
        <ele>1715.673</ele>
        <time>2020-07-20T07:33:40Z</time>
      </trkpt>
      <trkpt lat="42.890687" lon="-0.277893">
        <ele>1714.221</ele>
        <time>2020-07-20T07:33:45Z</time>
      </trkpt>
      <trkpt lat="42.890634" lon="-0.277854">
        <ele>1715.144</ele>
        <time>2020-07-20T07:33:49Z</time>
      </trkpt>
      <trkpt lat="42.890586" lon="-0.277813">
        <ele>1713.732</ele>
        <time>2020-07-20T07:33:52Z</time>
      </trkpt>
      <trkpt lat="42.890549" lon="-0.277777">
        <ele>1713.945</ele>
        <time>2020-07-20T07:33:58Z</time>
      </trkpt>
      <trkpt lat="42.890597" lon="-0.277761">
        <ele>1711.251</ele>
        <time>2020-07-20T07:34:15Z</time>
      </trkpt>
      <trkpt lat="42.890657" lon="-0.277776">
        <ele>1710.712</ele>
        <time>2020-07-20T07:34:21Z</time>
      </trkpt>
      <trkpt lat="42.890715" lon="-0.277768">
        <ele>1709.942</ele>
        <time>2020-07-20T07:34:28Z</time>
      </trkpt>
      <trkpt lat="42.890769" lon="-0.277763">
        <ele>1710.096</ele>
        <time>2020-07-20T07:34:33Z</time>
      </trkpt>
      <trkpt lat="42.890792" lon="-0.277710">
        <ele>1707.831</ele>
        <time>2020-07-20T07:34:42Z</time>
      </trkpt>
      <trkpt lat="42.890744" lon="-0.277676">
        <ele>1707.324</ele>
        <time>2020-07-20T07:34:48Z</time>
      </trkpt>
      <trkpt lat="42.890705" lon="-0.277642">
        <ele>1705.908</ele>
        <time>2020-07-20T07:35:03Z</time>
      </trkpt>
      <trkpt lat="42.890656" lon="-0.277604">
        <ele>1705.814</ele>
        <time>2020-07-20T07:35:10Z</time>
      </trkpt>
      <trkpt lat="42.890702" lon="-0.277579">
        <ele>1703.682</ele>
        <time>2020-07-20T07:35:22Z</time>
      </trkpt>
      <trkpt lat="42.890664" lon="-0.277525">
        <ele>1701.235</ele>
        <time>2020-07-20T07:35:40Z</time>
      </trkpt>
      <trkpt lat="42.890703" lon="-0.277479">
        <ele>1700.053</ele>
        <time>2020-07-20T07:35:51Z</time>
      </trkpt>
      <trkpt lat="42.890758" lon="-0.277493">
        <ele>1699.886</ele>
        <time>2020-07-20T07:35:55Z</time>
      </trkpt>
      <trkpt lat="42.890803" lon="-0.277501">
        <ele>1699.042</ele>
        <time>2020-07-20T07:35:58Z</time>
      </trkpt>
      <trkpt lat="42.890848" lon="-0.277483">
        <ele>1697.843</ele>
        <time>2020-07-20T07:36:05Z</time>
      </trkpt>
      <trkpt lat="42.890820" lon="-0.277431">
        <ele>1696.833</ele>
        <time>2020-07-20T07:36:09Z</time>
      </trkpt>
      <trkpt lat="42.890769" lon="-0.277410">
        <ele>1696.891</ele>
        <time>2020-07-20T07:36:13Z</time>
      </trkpt>
      <trkpt lat="42.890711" lon="-0.277389">
        <ele>1696.481</ele>
        <time>2020-07-20T07:36:21Z</time>
      </trkpt>
      <trkpt lat="42.890749" lon="-0.277343">
        <ele>1693.719</ele>
        <time>2020-07-20T07:36:38Z</time>
      </trkpt>
      <trkpt lat="42.890797" lon="-0.277348">
        <ele>1693.308</ele>
        <time>2020-07-20T07:36:43Z</time>
      </trkpt>
      <trkpt lat="42.890845" lon="-0.277346">
        <ele>1692.614</ele>
        <time>2020-07-20T07:36:47Z</time>
      </trkpt>
      <trkpt lat="42.890900" lon="-0.277335">
        <ele>1691.792</ele>
        <time>2020-07-20T07:36:52Z</time>
      </trkpt>
      <trkpt lat="42.890877" lon="-0.277311">
        <ele>1691.485</ele>
        <time>2020-07-20T07:37:26Z</time>
      </trkpt>
      <trkpt lat="42.890856" lon="-0.277277">
        <ele>1687.033</ele>
        <time>2020-07-20T07:38:42Z</time>
      </trkpt>
      <trkpt lat="42.890820" lon="-0.277218">
        <ele>1687.566</ele>
        <time>2020-07-20T07:38:52Z</time>
      </trkpt>
      <trkpt lat="42.890790" lon="-0.277166">
        <ele>1685.472</ele>
        <time>2020-07-20T07:38:58Z</time>
      </trkpt>
      <trkpt lat="42.890832" lon="-0.277123">
        <ele>1682.443</ele>
        <time>2020-07-20T07:39:14Z</time>
      </trkpt>
      <trkpt lat="42.890888" lon="-0.277145">
        <ele>1681.373</ele>
        <time>2020-07-20T07:39:21Z</time>
      </trkpt>
      <trkpt lat="42.890873" lon="-0.277081">
        <ele>1680.486</ele>
        <time>2020-07-20T07:39:30Z</time>
      </trkpt>
      <trkpt lat="42.890834" lon="-0.277042">
        <ele>1679.760</ele>
        <time>2020-07-20T07:39:35Z</time>
      </trkpt>
      <trkpt lat="42.890791" lon="-0.276992">
        <ele>1679.626</ele>
        <time>2020-07-20T07:39:41Z</time>
      </trkpt>
      <trkpt lat="42.890831" lon="-0.276962">
        <ele>1676.908</ele>
        <time>2020-07-20T07:39:53Z</time>
      </trkpt>
      <trkpt lat="42.890882" lon="-0.276971">
        <ele>1676.283</ele>
        <time>2020-07-20T07:39:59Z</time>
      </trkpt>
      <trkpt lat="42.890857" lon="-0.276916">
        <ele>1674.561</ele>
        <time>2020-07-20T07:40:10Z</time>
      </trkpt>
      <trkpt lat="42.890824" lon="-0.276871">
        <ele>1674.264</ele>
        <time>2020-07-20T07:40:17Z</time>
      </trkpt>
      <trkpt lat="42.890799" lon="-0.276819">
        <ele>1671.812</ele>
        <time>2020-07-20T07:40:29Z</time>
      </trkpt>
      <trkpt lat="42.890846" lon="-0.276822">
        <ele>1671.155</ele>
        <time>2020-07-20T07:40:35Z</time>
      </trkpt>
      <trkpt lat="42.890845" lon="-0.276753">
        <ele>1669.611</ele>
        <time>2020-07-20T07:40:51Z</time>
      </trkpt>
      <trkpt lat="42.890870" lon="-0.276693">
        <ele>1667.692</ele>
        <time>2020-07-20T07:41:00Z</time>
      </trkpt>
      <trkpt lat="42.890920" lon="-0.276713">
        <ele>1666.782</ele>
        <time>2020-07-20T07:41:06Z</time>
      </trkpt>
      <trkpt lat="42.890893" lon="-0.276654">
        <ele>1665.693</ele>
        <time>2020-07-20T07:41:15Z</time>
      </trkpt>
      <trkpt lat="42.890849" lon="-0.276631">
        <ele>1664.365</ele>
        <time>2020-07-20T07:41:21Z</time>
      </trkpt>
      <trkpt lat="42.890893" lon="-0.276617">
        <ele>1663.521</ele>
        <time>2020-07-20T07:41:34Z</time>
      </trkpt>
      <trkpt lat="42.890862" lon="-0.276566">
        <ele>1660.908</ele>
        <time>2020-07-20T07:41:47Z</time>
      </trkpt>
      <trkpt lat="42.890841" lon="-0.276505">
        <ele>1659.064</ele>
        <time>2020-07-20T07:41:57Z</time>
      </trkpt>
      <trkpt lat="42.890900" lon="-0.276484">
        <ele>1657.192</ele>
        <time>2020-07-20T07:42:05Z</time>
      </trkpt>
      <trkpt lat="42.890957" lon="-0.276476">
        <ele>1656.525</ele>
        <time>2020-07-20T07:42:11Z</time>
      </trkpt>
      <trkpt lat="42.890903" lon="-0.276455">
        <ele>1655.763</ele>
        <time>2020-07-20T07:42:23Z</time>
      </trkpt>
      <trkpt lat="42.890862" lon="-0.276418">
        <ele>1654.196</ele>
        <time>2020-07-20T07:42:32Z</time>
      </trkpt>
      <trkpt lat="42.890912" lon="-0.276399">
        <ele>1652.932</ele>
        <time>2020-07-20T07:42:38Z</time>
      </trkpt>
      <trkpt lat="42.890893" lon="-0.276329">
        <ele>1651.163</ele>
        <time>2020-07-20T07:42:53Z</time>
      </trkpt>
      <trkpt lat="42.890849" lon="-0.276285">
        <ele>1649.363</ele>
        <time>2020-07-20T07:42:58Z</time>
      </trkpt>
      <trkpt lat="42.890817" lon="-0.276237">
        <ele>1650.055</ele>
        <time>2020-07-20T07:43:04Z</time>
      </trkpt>
      <trkpt lat="42.890862" lon="-0.276225">
        <ele>1648.307</ele>
        <time>2020-07-20T07:43:11Z</time>
      </trkpt>
      <trkpt lat="42.890911" lon="-0.276220">
        <ele>1647.917</ele>
        <time>2020-07-20T07:43:16Z</time>
      </trkpt>
      <trkpt lat="42.890960" lon="-0.276209">
        <ele>1647.208</ele>
        <time>2020-07-20T07:43:19Z</time>
      </trkpt>
      <trkpt lat="42.891011" lon="-0.276189">
        <ele>1647.250</ele>
        <time>2020-07-20T07:43:24Z</time>
      </trkpt>
      <trkpt lat="42.891040" lon="-0.276138">
        <ele>1646.218</ele>
        <time>2020-07-20T07:43:30Z</time>
      </trkpt>
      <trkpt lat="42.891059" lon="-0.276073">
        <ele>1645.811</ele>
        <time>2020-07-20T07:43:37Z</time>
      </trkpt>
      <trkpt lat="42.891092" lon="-0.276031">
        <ele>1645.379</ele>
        <time>2020-07-20T07:43:40Z</time>
      </trkpt>
      <trkpt lat="42.891054" lon="-0.275999">
        <ele>1642.712</ele>
        <time>2020-07-20T07:43:52Z</time>
      </trkpt>
      <trkpt lat="42.890992" lon="-0.276040">
        <ele>1642.658</ele>
        <time>2020-07-20T07:43:58Z</time>
      </trkpt>
      <trkpt lat="42.890937" lon="-0.276070">
        <ele>1641.579</ele>
        <time>2020-07-20T07:44:04Z</time>
      </trkpt>
      <trkpt lat="42.890883" lon="-0.276074">
        <ele>1640.579</ele>
        <time>2020-07-20T07:44:06Z</time>
      </trkpt>
      <trkpt lat="42.890835" lon="-0.276073">
        <ele>1640.675</ele>
        <time>2020-07-20T07:44:14Z</time>
      </trkpt>
      <trkpt lat="42.890842" lon="-0.276007">
        <ele>1640.128</ele>
        <time>2020-07-20T07:44:19Z</time>
      </trkpt>
      <trkpt lat="42.890896" lon="-0.275997">
        <ele>1638.320</ele>
        <time>2020-07-20T07:44:24Z</time>
      </trkpt>
      <trkpt lat="42.890946" lon="-0.275991">
        <ele>1638.108</ele>
        <time>2020-07-20T07:44:32Z</time>
      </trkpt>
      <trkpt lat="42.890991" lon="-0.275984">
        <ele>1637.872</ele>
        <time>2020-07-20T07:44:35Z</time>
      </trkpt>
      <trkpt lat="42.891040" lon="-0.275950">
        <ele>1637.390</ele>
        <time>2020-07-20T07:44:40Z</time>
      </trkpt>
      <trkpt lat="42.891081" lon="-0.275906">
        <ele>1637.363</ele>
        <time>2020-07-20T07:44:45Z</time>
      </trkpt>
      <trkpt lat="42.891121" lon="-0.275864">
        <ele>1636.661</ele>
        <time>2020-07-20T07:44:49Z</time>
      </trkpt>
      <trkpt lat="42.891156" lon="-0.275816">
        <ele>1635.864</ele>
        <time>2020-07-20T07:44:55Z</time>
      </trkpt>
      <trkpt lat="42.891195" lon="-0.275782">
        <ele>1635.390</ele>
        <time>2020-07-20T07:44:59Z</time>
      </trkpt>
      <trkpt lat="42.891238" lon="-0.275761">
        <ele>1634.841</ele>
        <time>2020-07-20T07:45:04Z</time>
      </trkpt>
      <trkpt lat="42.891284" lon="-0.275757">
        <ele>1634.211</ele>
        <time>2020-07-20T07:45:09Z</time>
      </trkpt>
      <trkpt lat="42.891340" lon="-0.275746">
        <ele>1633.325</ele>
        <time>2020-07-20T07:45:13Z</time>
      </trkpt>
      <trkpt lat="42.891379" lon="-0.275712">
        <ele>1632.826</ele>
        <time>2020-07-20T07:45:19Z</time>
      </trkpt>
      <trkpt lat="42.891420" lon="-0.275669">
        <ele>1631.108</ele>
        <time>2020-07-20T07:45:30Z</time>
      </trkpt>
      <trkpt lat="42.891378" lon="-0.275627">
        <ele>1630.208</ele>
        <time>2020-07-20T07:45:39Z</time>
      </trkpt>
      <trkpt lat="42.891323" lon="-0.275613">
        <ele>1629.017</ele>
        <time>2020-07-20T07:45:41Z</time>
      </trkpt>
      <trkpt lat="42.891277" lon="-0.275604">
        <ele>1628.395</ele>
        <time>2020-07-20T07:45:47Z</time>
      </trkpt>
      <trkpt lat="42.891224" lon="-0.275613">
        <ele>1628.768</ele>
        <time>2020-07-20T07:45:49Z</time>
      </trkpt>
      <trkpt lat="42.891168" lon="-0.275614">
        <ele>1627.736</ele>
        <time>2020-07-20T07:45:57Z</time>
      </trkpt>
      <trkpt lat="42.891118" lon="-0.275608">
        <ele>1626.239</ele>
        <time>2020-07-20T07:46:02Z</time>
      </trkpt>
      <trkpt lat="42.891072" lon="-0.275609">
        <ele>1626.125</ele>
        <time>2020-07-20T07:46:08Z</time>
      </trkpt>
      <trkpt lat="42.891027" lon="-0.275629">
        <ele>1625.326</ele>
        <time>2020-07-20T07:46:13Z</time>
      </trkpt>
      <trkpt lat="42.890993" lon="-0.275671">
        <ele>1624.856</ele>
        <time>2020-07-20T07:46:17Z</time>
      </trkpt>
      <trkpt lat="42.890943" lon="-0.275694">
        <ele>1623.528</ele>
        <time>2020-07-20T07:46:24Z</time>
      </trkpt>
      <trkpt lat="42.890963" lon="-0.275632">
        <ele>1623.089</ele>
        <time>2020-07-20T07:46:29Z</time>
      </trkpt>
      <trkpt lat="42.891019" lon="-0.275600">
        <ele>1621.817</ele>
        <time>2020-07-20T07:46:36Z</time>
      </trkpt>
      <trkpt lat="42.891064" lon="-0.275563">
        <ele>1621.808</ele>
        <time>2020-07-20T07:46:41Z</time>
      </trkpt>
      <trkpt lat="42.891107" lon="-0.275524">
        <ele>1620.387</ele>
        <time>2020-07-20T07:46:47Z</time>
      </trkpt>
      <trkpt lat="42.891151" lon="-0.275500">
        <ele>1619.945</ele>
        <time>2020-07-20T07:46:49Z</time>
      </trkpt>
      <trkpt lat="42.891192" lon="-0.275463">
        <ele>1619.268</ele>
        <time>2020-07-20T07:46:58Z</time>
      </trkpt>
      <trkpt lat="42.891235" lon="-0.275429">
        <ele>1618.246</ele>
        <time>2020-07-20T07:47:02Z</time>
      </trkpt>
      <trkpt lat="42.891275" lon="-0.275402">
        <ele>1617.049</ele>
        <time>2020-07-20T07:47:11Z</time>
      </trkpt>
      <trkpt lat="42.891324" lon="-0.275373">
        <ele>1616.575</ele>
        <time>2020-07-20T07:47:15Z</time>
      </trkpt>
      <trkpt lat="42.891373" lon="-0.275346">
        <ele>1615.636</ele>
        <time>2020-07-20T07:47:23Z</time>
      </trkpt>
      <trkpt lat="42.891325" lon="-0.275310">
        <ele>1612.996</ele>
        <time>2020-07-20T07:47:31Z</time>
      </trkpt>
      <trkpt lat="42.891276" lon="-0.275307">
        <ele>1612.877</ele>
        <time>2020-07-20T07:47:38Z</time>
      </trkpt>
      <trkpt lat="42.891226" lon="-0.275299">
        <ele>1612.661</ele>
        <time>2020-07-20T07:47:42Z</time>
      </trkpt>
      <trkpt lat="42.891174" lon="-0.275293">
        <ele>1611.927</ele>
        <time>2020-07-20T07:47:48Z</time>
      </trkpt>
      <trkpt lat="42.891122" lon="-0.275277">
        <ele>1610.408</ele>
        <time>2020-07-20T07:47:51Z</time>
      </trkpt>
      <trkpt lat="42.891073" lon="-0.275273">
        <ele>1609.832</ele>
        <time>2020-07-20T07:48:00Z</time>
      </trkpt>
      <trkpt lat="42.891035" lon="-0.275317">
        <ele>1608.490</ele>
        <time>2020-07-20T07:48:23Z</time>
      </trkpt>
      <trkpt lat="42.890981" lon="-0.275319">
        <ele>1607.733</ele>
        <time>2020-07-20T07:48:36Z</time>
      </trkpt>
      <trkpt lat="42.890923" lon="-0.275319">
        <ele>1607.221</ele>
        <time>2020-07-20T07:48:40Z</time>
      </trkpt>
      <trkpt lat="42.890869" lon="-0.275317">
        <ele>1606.024</ele>
        <time>2020-07-20T07:48:45Z</time>
      </trkpt>
      <trkpt lat="42.890878" lon="-0.275248">
        <ele>1604.570</ele>
        <time>2020-07-20T07:48:56Z</time>
      </trkpt>
      <trkpt lat="42.890926" lon="-0.275213">
        <ele>1603.841</ele>
        <time>2020-07-20T07:48:58Z</time>
      </trkpt>
      <trkpt lat="42.890975" lon="-0.275180">
        <ele>1603.561</ele>
        <time>2020-07-20T07:49:06Z</time>
      </trkpt>
      <trkpt lat="42.891012" lon="-0.275141">
        <ele>1602.297</ele>
        <time>2020-07-20T07:49:11Z</time>
      </trkpt>
      <trkpt lat="42.891052" lon="-0.275114">
        <ele>1601.523</ele>
        <time>2020-07-20T07:49:15Z</time>
      </trkpt>
      <trkpt lat="42.891093" lon="-0.275081">
        <ele>1600.125</ele>
        <time>2020-07-20T07:49:20Z</time>
      </trkpt>
      <trkpt lat="42.891132" lon="-0.275047">
        <ele>1599.908</ele>
        <time>2020-07-20T07:49:24Z</time>
      </trkpt>
      <trkpt lat="42.891175" lon="-0.275014">
        <ele>1599.124</ele>
        <time>2020-07-20T07:49:30Z</time>
      </trkpt>
      <trkpt lat="42.891225" lon="-0.275000">
        <ele>1598.112</ele>
        <time>2020-07-20T07:49:33Z</time>
      </trkpt>
      <trkpt lat="42.891181" lon="-0.274972">
        <ele>1597.375</ele>
        <time>2020-07-20T07:49:43Z</time>
      </trkpt>
      <trkpt lat="42.891123" lon="-0.274964">
        <ele>1596.663</ele>
        <time>2020-07-20T07:49:48Z</time>
      </trkpt>
      <trkpt lat="42.891069" lon="-0.274973">
        <ele>1595.816</ele>
        <time>2020-07-20T07:49:52Z</time>
      </trkpt>
      <trkpt lat="42.891015" lon="-0.274973">
        <ele>1594.832</ele>
        <time>2020-07-20T07:49:57Z</time>
      </trkpt>
      <trkpt lat="42.890966" lon="-0.274977">
        <ele>1594.213</ele>
        <time>2020-07-20T07:50:01Z</time>
      </trkpt>
      <trkpt lat="42.890915" lon="-0.274991">
        <ele>1593.043</ele>
        <time>2020-07-20T07:50:07Z</time>
      </trkpt>
      <trkpt lat="42.890870" lon="-0.274984">
        <ele>1592.923</ele>
        <time>2020-07-20T07:50:09Z</time>
      </trkpt>
      <trkpt lat="42.890821" lon="-0.274987">
        <ele>1592.383</ele>
        <time>2020-07-20T07:50:17Z</time>
      </trkpt>
      <trkpt lat="42.890764" lon="-0.275001">
        <ele>1590.811</ele>
        <time>2020-07-20T07:50:23Z</time>
      </trkpt>
      <trkpt lat="42.890808" lon="-0.274960">
        <ele>1589.308</ele>
        <time>2020-07-20T07:50:35Z</time>
      </trkpt>
      <trkpt lat="42.890852" lon="-0.274940">
        <ele>1588.197</ele>
        <time>2020-07-20T07:50:43Z</time>
      </trkpt>
      <trkpt lat="42.890894" lon="-0.274903">
        <ele>1587.555</ele>
        <time>2020-07-20T07:50:47Z</time>
      </trkpt>
      <trkpt lat="42.890939" lon="-0.274855">
        <ele>1586.878</ele>
        <time>2020-07-20T07:50:53Z</time>
      </trkpt>
      <trkpt lat="42.890978" lon="-0.274822">
        <ele>1585.636</ele>
        <time>2020-07-20T07:50:57Z</time>
      </trkpt>
      <trkpt lat="42.891022" lon="-0.274783">
        <ele>1585.359</ele>
        <time>2020-07-20T07:51:02Z</time>
      </trkpt>
      <trkpt lat="42.891063" lon="-0.274755">
        <ele>1584.745</ele>
        <time>2020-07-20T07:51:07Z</time>
      </trkpt>
      <trkpt lat="42.891108" lon="-0.274726">
        <ele>1584.086</ele>
        <time>2020-07-20T07:51:10Z</time>
      </trkpt>
      <trkpt lat="42.891155" lon="-0.274691">
        <ele>1582.686</ele>
        <time>2020-07-20T07:51:17Z</time>
      </trkpt>
      <trkpt lat="42.891110" lon="-0.274656">
        <ele>1582.048</ele>
        <time>2020-07-20T07:51:28Z</time>
      </trkpt>
      <trkpt lat="42.891061" lon="-0.274664">
        <ele>1581.661</ele>
        <time>2020-07-20T07:51:32Z</time>
      </trkpt>
      <trkpt lat="42.891011" lon="-0.274658">
        <ele>1581.017</ele>
        <time>2020-07-20T07:51:37Z</time>
      </trkpt>
      <trkpt lat="42.890964" lon="-0.274663">
        <ele>1580.208</ele>
        <time>2020-07-20T07:51:41Z</time>
      </trkpt>
      <trkpt lat="42.890911" lon="-0.274667">
        <ele>1579.159</ele>
        <time>2020-07-20T07:51:47Z</time>
      </trkpt>
      <trkpt lat="42.890858" lon="-0.274653">
        <ele>1578.387</ele>
        <time>2020-07-20T07:51:50Z</time>
      </trkpt>
      <trkpt lat="42.890800" lon="-0.274654">
        <ele>1577.240</ele>
        <time>2020-07-20T07:51:59Z</time>
      </trkpt>
      <trkpt lat="42.890758" lon="-0.274676">
        <ele>1576.368</ele>
        <time>2020-07-20T07:52:04Z</time>
      </trkpt>
      <trkpt lat="42.890710" lon="-0.274705">
        <ele>1575.921</ele>
        <time>2020-07-20T07:52:11Z</time>
      </trkpt>
      <trkpt lat="42.890735" lon="-0.274635">
        <ele>1573.437</ele>
        <time>2020-07-20T07:52:26Z</time>
      </trkpt>
      <trkpt lat="42.890775" lon="-0.274590">
        <ele>1572.728</ele>
        <time>2020-07-20T07:52:30Z</time>
      </trkpt>
      <trkpt lat="42.890816" lon="-0.274551">
        <ele>1572.558</ele>
        <time>2020-07-20T07:52:34Z</time>
      </trkpt>
      <trkpt lat="42.890860" lon="-0.274518">
        <ele>1571.625</ele>
        <time>2020-07-20T07:52:40Z</time>
      </trkpt>
      <trkpt lat="42.890902" lon="-0.274495">
        <ele>1570.126</ele>
        <time>2020-07-20T07:52:42Z</time>
      </trkpt>
      <trkpt lat="42.890945" lon="-0.274465">
        <ele>1569.608</ele>
        <time>2020-07-20T07:52:49Z</time>
      </trkpt>
      <trkpt lat="42.890991" lon="-0.274438">
        <ele>1569.908</ele>
        <time>2020-07-20T07:52:55Z</time>
      </trkpt>
      <trkpt lat="42.891031" lon="-0.274396">
        <ele>1568.957</ele>
        <time>2020-07-20T07:53:00Z</time>
      </trkpt>
      <trkpt lat="42.890994" lon="-0.274351">
        <ele>1567.215</ele>
        <time>2020-07-20T07:53:12Z</time>
      </trkpt>
      <trkpt lat="42.890940" lon="-0.274363">
        <ele>1566.748</ele>
        <time>2020-07-20T07:53:16Z</time>
      </trkpt>
      <trkpt lat="42.890895" lon="-0.274369">
        <ele>1566.326</ele>
        <time>2020-07-20T07:53:17Z</time>
      </trkpt>
      <trkpt lat="42.890839" lon="-0.274372">
        <ele>1565.619</ele>
        <time>2020-07-20T07:53:24Z</time>
      </trkpt>
      <trkpt lat="42.890794" lon="-0.274383">
        <ele>1565.495</ele>
        <time>2020-07-20T07:53:26Z</time>
      </trkpt>
      <trkpt lat="42.890749" lon="-0.274393">
        <ele>1565.096</ele>
        <time>2020-07-20T07:53:31Z</time>
      </trkpt>
      <trkpt lat="42.890700" lon="-0.274415">
        <ele>1563.726</ele>
        <time>2020-07-20T07:53:39Z</time>
      </trkpt>
      <trkpt lat="42.890651" lon="-0.274431">
        <ele>1562.785</ele>
        <time>2020-07-20T07:53:45Z</time>
      </trkpt>
      <trkpt lat="42.890600" lon="-0.274435">
        <ele>1562.789</ele>
        <time>2020-07-20T07:53:49Z</time>
      </trkpt>
      <trkpt lat="42.890622" lon="-0.274387">
        <ele>1561.317</ele>
        <time>2020-07-20T07:53:58Z</time>
      </trkpt>
      <trkpt lat="42.890654" lon="-0.274356">
        <ele>1561.508</ele>
        <time>2020-07-20T07:54:02Z</time>
      </trkpt>
      <trkpt lat="42.890698" lon="-0.274336">
        <ele>1560.553</ele>
        <time>2020-07-20T07:54:06Z</time>
      </trkpt>
      <trkpt lat="42.890741" lon="-0.274294">
        <ele>1559.521</ele>
        <time>2020-07-20T07:54:10Z</time>
      </trkpt>
      <trkpt lat="42.890778" lon="-0.274250">
        <ele>1558.364</ele>
        <time>2020-07-20T07:54:12Z</time>
      </trkpt>
      <trkpt lat="42.890818" lon="-0.274198">
        <ele>1557.662</ele>
        <time>2020-07-20T07:54:21Z</time>
      </trkpt>
      <trkpt lat="42.890857" lon="-0.274138">
        <ele>1556.485</ele>
        <time>2020-07-20T07:54:28Z</time>
      </trkpt>
      <trkpt lat="42.890883" lon="-0.274086">
        <ele>1556.011</ele>
        <time>2020-07-20T07:54:34Z</time>
      </trkpt>
      <trkpt lat="42.890838" lon="-0.274115">
        <ele>1554.822</ele>
        <time>2020-07-20T07:54:41Z</time>
      </trkpt>
      <trkpt lat="42.890790" lon="-0.274141">
        <ele>1553.992</ele>
        <time>2020-07-20T07:54:46Z</time>
      </trkpt>
      <trkpt lat="42.890737" lon="-0.274168">
        <ele>1553.499</ele>
        <time>2020-07-20T07:54:49Z</time>
      </trkpt>
      <trkpt lat="42.890685" lon="-0.274190">
        <ele>1551.607</ele>
        <time>2020-07-20T07:54:54Z</time>
      </trkpt>
      <trkpt lat="42.890628" lon="-0.274210">
        <ele>1551.327</ele>
        <time>2020-07-20T07:55:00Z</time>
      </trkpt>
      <trkpt lat="42.890579" lon="-0.274213">
        <ele>1551.208</ele>
        <time>2020-07-20T07:55:05Z</time>
      </trkpt>
      <trkpt lat="42.890583" lon="-0.274147">
        <ele>1549.924</ele>
        <time>2020-07-20T07:55:20Z</time>
      </trkpt>
      <trkpt lat="42.890618" lon="-0.274093">
        <ele>1549.152</ele>
        <time>2020-07-20T07:55:25Z</time>
      </trkpt>
      <trkpt lat="42.890652" lon="-0.274040">
        <ele>1548.115</ele>
        <time>2020-07-20T07:55:27Z</time>
      </trkpt>
      <trkpt lat="42.890696" lon="-0.274007">
        <ele>1547.963</ele>
        <time>2020-07-20T07:55:35Z</time>
      </trkpt>
      <trkpt lat="42.890730" lon="-0.273959">
        <ele>1545.616</ele>
        <time>2020-07-20T07:55:37Z</time>
      </trkpt>
      <trkpt lat="42.890769" lon="-0.273906">
        <ele>1545.582</ele>
        <time>2020-07-20T07:55:47Z</time>
      </trkpt>
      <trkpt lat="42.890795" lon="-0.273834">
        <ele>1545.073</ele>
        <time>2020-07-20T07:55:53Z</time>
      </trkpt>
      <trkpt lat="42.890751" lon="-0.273842">
        <ele>1542.823</ele>
        <time>2020-07-20T07:56:03Z</time>
      </trkpt>
      <trkpt lat="42.890711" lon="-0.273868">
        <ele>1542.292</ele>
        <time>2020-07-20T07:56:07Z</time>
      </trkpt>
      <trkpt lat="42.890670" lon="-0.273893">
        <ele>1541.573</ele>
        <time>2020-07-20T07:56:14Z</time>
      </trkpt>
      <trkpt lat="42.890624" lon="-0.273925">
        <ele>1540.620</ele>
        <time>2020-07-20T07:56:19Z</time>
      </trkpt>
      <trkpt lat="42.890582" lon="-0.273958">
        <ele>1540.408</ele>
        <time>2020-07-20T07:56:24Z</time>
      </trkpt>
      <trkpt lat="42.890528" lon="-0.273975">
        <ele>1539.674</ele>
        <time>2020-07-20T07:56:30Z</time>
      </trkpt>
      <trkpt lat="42.890474" lon="-0.273981">
        <ele>1539.262</ele>
        <time>2020-07-20T07:56:33Z</time>
      </trkpt>
      <trkpt lat="42.890487" lon="-0.273918">
        <ele>1537.285</ele>
        <time>2020-07-20T07:56:43Z</time>
      </trkpt>
      <trkpt lat="42.890523" lon="-0.273873">
        <ele>1536.763</ele>
        <time>2020-07-20T07:56:47Z</time>
      </trkpt>
      <trkpt lat="42.890566" lon="-0.273838">
        <ele>1535.846</ele>
        <time>2020-07-20T07:56:48Z</time>
      </trkpt>
      <trkpt lat="42.890600" lon="-0.273787">
        <ele>1535.492</ele>
        <time>2020-07-20T07:56:55Z</time>
      </trkpt>
      <trkpt lat="42.890644" lon="-0.273736">
        <ele>1535.083</ele>
        <time>2020-07-20T07:56:59Z</time>
      </trkpt>
      <trkpt lat="42.890681" lon="-0.273689">
        <ele>1534.393</ele>
        <time>2020-07-20T07:57:04Z</time>
      </trkpt>
      <trkpt lat="42.890718" lon="-0.273632">
        <ele>1533.371</ele>
        <time>2020-07-20T07:57:10Z</time>
      </trkpt>
      <trkpt lat="42.890671" lon="-0.273639">
        <ele>1532.341</ele>
        <time>2020-07-20T07:57:16Z</time>
      </trkpt>
      <trkpt lat="42.890627" lon="-0.273665">
        <ele>1531.815</ele>
        <time>2020-07-20T07:57:21Z</time>
      </trkpt>
      <trkpt lat="42.890583" lon="-0.273690">
        <ele>1530.808</ele>
        <time>2020-07-20T07:57:25Z</time>
      </trkpt>
      <trkpt lat="42.890539" lon="-0.273724">
        <ele>1530.382</ele>
        <time>2020-07-20T07:57:32Z</time>
      </trkpt>
      <trkpt lat="42.890496" lon="-0.273757">
        <ele>1530.080</ele>
        <time>2020-07-20T07:57:33Z</time>
      </trkpt>
      <trkpt lat="42.890445" lon="-0.273776">
        <ele>1529.453</ele>
        <time>2020-07-20T07:57:38Z</time>
      </trkpt>
      <trkpt lat="42.890473" lon="-0.273720">
        <ele>1526.741</ele>
        <time>2020-07-20T07:57:49Z</time>
      </trkpt>
      <trkpt lat="42.890506" lon="-0.273663">
        <ele>1527.364</ele>
        <time>2020-07-20T07:57:55Z</time>
      </trkpt>
      <trkpt lat="42.890535" lon="-0.273607">
        <ele>1526.210</ele>
        <time>2020-07-20T07:57:59Z</time>
      </trkpt>
      <trkpt lat="42.890561" lon="-0.273552">
        <ele>1525.651</ele>
        <time>2020-07-20T07:58:01Z</time>
      </trkpt>
      <trkpt lat="42.890592" lon="-0.273497">
        <ele>1525.011</ele>
        <time>2020-07-20T07:58:08Z</time>
      </trkpt>
      <trkpt lat="42.890629" lon="-0.273435">
        <ele>1524.112</ele>
        <time>2020-07-20T07:58:14Z</time>
      </trkpt>
      <trkpt lat="42.890639" lon="-0.273372">
        <ele>1522.832</ele>
        <time>2020-07-20T07:58:19Z</time>
      </trkpt>
      <trkpt lat="42.890589" lon="-0.273398">
        <ele>1522.705</ele>
        <time>2020-07-20T07:58:21Z</time>
      </trkpt>
      <trkpt lat="42.890552" lon="-0.273448">
        <ele>1522.508</ele>
        <time>2020-07-20T07:58:28Z</time>
      </trkpt>
      <trkpt lat="42.890508" lon="-0.273499">
        <ele>1521.656</ele>
        <time>2020-07-20T07:58:30Z</time>
      </trkpt>
      <trkpt lat="42.890467" lon="-0.273553">
        <ele>1521.414</ele>
        <time>2020-07-20T07:58:37Z</time>
      </trkpt>
      <trkpt lat="42.890420" lon="-0.273579">
        <ele>1520.727</ele>
        <time>2020-07-20T07:58:42Z</time>
      </trkpt>
      <trkpt lat="42.890431" lon="-0.273502">
        <ele>1519.915</ele>
        <time>2020-07-20T07:58:49Z</time>
      </trkpt>
      <trkpt lat="42.890462" lon="-0.273433">
        <ele>1518.648</ele>
        <time>2020-07-20T07:58:51Z</time>
      </trkpt>
      <trkpt lat="42.890487" lon="-0.273380">
        <ele>1517.474</ele>
        <time>2020-07-20T07:58:55Z</time>
      </trkpt>
      <trkpt lat="42.890519" lon="-0.273323">
        <ele>1517.685</ele>
        <time>2020-07-20T07:59:00Z</time>
      </trkpt>
      <trkpt lat="42.890542" lon="-0.273269">
        <ele>1516.245</ele>
        <time>2020-07-20T07:59:06Z</time>
      </trkpt>
      <trkpt lat="42.890570" lon="-0.273220">
        <ele>1515.147</ele>
        <time>2020-07-20T07:59:13Z</time>
      </trkpt>
      <trkpt lat="42.890591" lon="-0.273162">
        <ele>1514.629</ele>
        <time>2020-07-20T07:59:18Z</time>
      </trkpt>
      <trkpt lat="42.890618" lon="-0.273086">
        <ele>1514.021</ele>
        <time>2020-07-20T07:59:20Z</time>
      </trkpt>
      <trkpt lat="42.890567" lon="-0.273084">
        <ele>1512.008</ele>
        <time>2020-07-20T07:59:33Z</time>
      </trkpt>
      <trkpt lat="42.890528" lon="-0.273124">
        <ele>1511.389</ele>
        <time>2020-07-20T07:59:39Z</time>
      </trkpt>
      <trkpt lat="42.890489" lon="-0.273183">
        <ele>1510.767</ele>
        <time>2020-07-20T07:59:44Z</time>
      </trkpt>
      <trkpt lat="42.890455" lon="-0.273234">
        <ele>1510.370</ele>
        <time>2020-07-20T07:59:48Z</time>
      </trkpt>
      <trkpt lat="42.890418" lon="-0.273277">
        <ele>1509.878</ele>
        <time>2020-07-20T07:59:52Z</time>
      </trkpt>
      <trkpt lat="42.890424" lon="-0.273211">
        <ele>1507.671</ele>
        <time>2020-07-20T08:00:16Z</time>
      </trkpt>
      <trkpt lat="42.890427" lon="-0.273136">
        <ele>1507.287</ele>
        <time>2020-07-20T08:00:25Z</time>
      </trkpt>
      <trkpt lat="42.890421" lon="-0.273065">
        <ele>1505.918</ele>
        <time>2020-07-20T08:00:30Z</time>
      </trkpt>
      <trkpt lat="42.890432" lon="-0.272987">
        <ele>1505.858</ele>
        <time>2020-07-20T08:00:35Z</time>
      </trkpt>
      <trkpt lat="42.890439" lon="-0.272924">
        <ele>1505.445</ele>
        <time>2020-07-20T08:00:37Z</time>
      </trkpt>
      <trkpt lat="42.890453" lon="-0.272861">
        <ele>1503.747</ele>
        <time>2020-07-20T08:00:45Z</time>
      </trkpt>
      <trkpt lat="42.890408" lon="-0.272857">
        <ele>1502.311</ele>
        <time>2020-07-20T08:00:55Z</time>
      </trkpt>
      <trkpt lat="42.890363" lon="-0.272887">
        <ele>1501.808</ele>
        <time>2020-07-20T08:01:00Z</time>
      </trkpt>
      <trkpt lat="42.890382" lon="-0.272817">
        <ele>1499.579</ele>
        <time>2020-07-20T08:01:09Z</time>
      </trkpt>
      <trkpt lat="42.890424" lon="-0.272766">
        <ele>1500.067</ele>
        <time>2020-07-20T08:01:16Z</time>
      </trkpt>
      <trkpt lat="42.890452" lon="-0.272704">
        <ele>1499.150</ele>
        <time>2020-07-20T08:01:21Z</time>
      </trkpt>
      <trkpt lat="42.890473" lon="-0.272641">
        <ele>1497.728</ele>
        <time>2020-07-20T08:01:26Z</time>
      </trkpt>
      <trkpt lat="42.890530" lon="-0.272622">
        <ele>1497.551</ele>
        <time>2020-07-20T08:01:33Z</time>
      </trkpt>
      <trkpt lat="42.890577" lon="-0.272613">
        <ele>1497.277</ele>
        <time>2020-07-20T08:01:35Z</time>
      </trkpt>
      <trkpt lat="42.890536" lon="-0.272574">
        <ele>1494.428</ele>
        <time>2020-07-20T08:01:49Z</time>
      </trkpt>
      <trkpt lat="42.890491" lon="-0.272582">
        <ele>1493.028</ele>
        <time>2020-07-20T08:01:59Z</time>
      </trkpt>
      <trkpt lat="42.890433" lon="-0.272597">
        <ele>1492.975</ele>
        <time>2020-07-20T08:02:01Z</time>
      </trkpt>
      <trkpt lat="42.890386" lon="-0.272633">
        <ele>1492.328</ele>
        <time>2020-07-20T08:02:09Z</time>
      </trkpt>
      <trkpt lat="42.890371" lon="-0.272693">
        <ele>1492.320</ele>
        <time>2020-07-20T08:02:12Z</time>
      </trkpt>
      <trkpt lat="42.890366" lon="-0.272755">
        <ele>1491.308</ele>
        <time>2020-07-20T08:02:13Z</time>
      </trkpt>
      <trkpt lat="42.890339" lon="-0.272804">
        <ele>1491.152</ele>
        <time>2020-07-20T08:02:19Z</time>
      </trkpt>
      <trkpt lat="42.890300" lon="-0.272837">
        <ele>1490.150</ele>
        <time>2020-07-20T08:02:22Z</time>
      </trkpt>
      <trkpt lat="42.890290" lon="-0.272771">
        <ele>1489.763</ele>
        <time>2020-07-20T08:02:32Z</time>
      </trkpt>
      <trkpt lat="42.890273" lon="-0.272708">
        <ele>1488.461</ele>
        <time>2020-07-20T08:02:38Z</time>
      </trkpt>
      <trkpt lat="42.890241" lon="-0.272642">
        <ele>1486.674</ele>
        <time>2020-07-20T08:02:44Z</time>
      </trkpt>
      <trkpt lat="42.890252" lon="-0.272581">
        <ele>1485.690</ele>
        <time>2020-07-20T08:02:48Z</time>
      </trkpt>
      <trkpt lat="42.890304" lon="-0.272562">
        <ele>1485.241</ele>
        <time>2020-07-20T08:02:55Z</time>
      </trkpt>
      <trkpt lat="42.890341" lon="-0.272517">
        <ele>1483.781</ele>
        <time>2020-07-20T08:03:01Z</time>
      </trkpt>
      <trkpt lat="42.890356" lon="-0.272439">
        <ele>1483.393</ele>
        <time>2020-07-20T08:03:05Z</time>
      </trkpt>
      <trkpt lat="42.890381" lon="-0.272383">
        <ele>1482.865</ele>
        <time>2020-07-20T08:03:13Z</time>
      </trkpt>
      <trkpt lat="42.890332" lon="-0.272355">
        <ele>1481.121</ele>
        <time>2020-07-20T08:03:22Z</time>
      </trkpt>
      <trkpt lat="42.890282" lon="-0.272378">
        <ele>1481.208</ele>
        <time>2020-07-20T08:03:26Z</time>
      </trkpt>
      <trkpt lat="42.890239" lon="-0.272360">
        <ele>1480.184</ele>
        <time>2020-07-20T08:03:31Z</time>
      </trkpt>
      <trkpt lat="42.890217" lon="-0.272296">
        <ele>1478.712</ele>
        <time>2020-07-20T08:03:34Z</time>
      </trkpt>
      <trkpt lat="42.890188" lon="-0.272245">
        <ele>1477.935</ele>
        <time>2020-07-20T08:03:43Z</time>
      </trkpt>
      <trkpt lat="42.890153" lon="-0.272299">
        <ele>1478.053</ele>
        <time>2020-07-20T08:03:47Z</time>
      </trkpt>
      <trkpt lat="42.890129" lon="-0.272358">
        <ele>1477.326</ele>
        <time>2020-07-20T08:03:51Z</time>
      </trkpt>
      <trkpt lat="42.890096" lon="-0.272420">
        <ele>1476.552</ele>
        <time>2020-07-20T08:03:55Z</time>
      </trkpt>
      <trkpt lat="42.890052" lon="-0.272462">
        <ele>1476.013</ele>
        <time>2020-07-20T08:04:00Z</time>
      </trkpt>
      <trkpt lat="42.890072" lon="-0.272388">
        <ele>1474.143</ele>
        <time>2020-07-20T08:04:15Z</time>
      </trkpt>
      <trkpt lat="42.890080" lon="-0.272325">
        <ele>1473.798</ele>
        <time>2020-07-20T08:04:20Z</time>
      </trkpt>
      <trkpt lat="42.890090" lon="-0.272259">
        <ele>1473.115</ele>
        <time>2020-07-20T08:04:22Z</time>
      </trkpt>
      <trkpt lat="42.890111" lon="-0.272193">
        <ele>1472.426</ele>
        <time>2020-07-20T08:04:28Z</time>
      </trkpt>
      <trkpt lat="42.890139" lon="-0.272130">
        <ele>1471.508</ele>
        <time>2020-07-20T08:04:30Z</time>
      </trkpt>
      <trkpt lat="42.890157" lon="-0.272065">
        <ele>1470.854</ele>
        <time>2020-07-20T08:04:35Z</time>
      </trkpt>
      <trkpt lat="42.890109" lon="-0.272102">
        <ele>1470.212</ele>
        <time>2020-07-20T08:04:42Z</time>
      </trkpt>
      <trkpt lat="42.890062" lon="-0.272149">
        <ele>1469.735</ele>
        <time>2020-07-20T08:04:48Z</time>
      </trkpt>
      <trkpt lat="42.890029" lon="-0.272192">
        <ele>1468.823</ele>
        <time>2020-07-20T08:04:53Z</time>
      </trkpt>
      <trkpt lat="42.889992" lon="-0.272257">
        <ele>1468.846</ele>
        <time>2020-07-20T08:04:58Z</time>
      </trkpt>
      <trkpt lat="42.889989" lon="-0.272191">
        <ele>1468.122</ele>
        <time>2020-07-20T08:05:06Z</time>
      </trkpt>
      <trkpt lat="42.890008" lon="-0.272124">
        <ele>1466.763</ele>
        <time>2020-07-20T08:05:08Z</time>
      </trkpt>
      <trkpt lat="42.890042" lon="-0.272056">
        <ele>1466.783</ele>
        <time>2020-07-20T08:05:13Z</time>
      </trkpt>
      <trkpt lat="42.890084" lon="-0.271998">
        <ele>1465.938</ele>
        <time>2020-07-20T08:05:18Z</time>
      </trkpt>
      <trkpt lat="42.890120" lon="-0.271949">
        <ele>1465.170</ele>
        <time>2020-07-20T08:05:20Z</time>
      </trkpt>
      <trkpt lat="42.890152" lon="-0.271894">
        <ele>1464.417</ele>
        <time>2020-07-20T08:05:27Z</time>
      </trkpt>
      <trkpt lat="42.890095" lon="-0.271882">
        <ele>1463.808</ele>
        <time>2020-07-20T08:05:32Z</time>
      </trkpt>
      <trkpt lat="42.890039" lon="-0.271909">
        <ele>1463.228</ele>
        <time>2020-07-20T08:05:34Z</time>
      </trkpt>
      <trkpt lat="42.889993" lon="-0.271950">
        <ele>1462.146</ele>
        <time>2020-07-20T08:05:37Z</time>
      </trkpt>
      <trkpt lat="42.889949" lon="-0.272021">
        <ele>1462.079</ele>
        <time>2020-07-20T08:05:43Z</time>
      </trkpt>
      <trkpt lat="42.889914" lon="-0.272083">
        <ele>1461.227</ele>
        <time>2020-07-20T08:05:46Z</time>
      </trkpt>
      <trkpt lat="42.889865" lon="-0.272132">
        <ele>1461.440</ele>
        <time>2020-07-20T08:05:53Z</time>
      </trkpt>
      <trkpt lat="42.889890" lon="-0.272060">
        <ele>1459.216</ele>
        <time>2020-07-20T08:06:02Z</time>
      </trkpt>
      <trkpt lat="42.889913" lon="-0.271997">
        <ele>1459.147</ele>
        <time>2020-07-20T08:06:07Z</time>
      </trkpt>
      <trkpt lat="42.889938" lon="-0.271937">
        <ele>1457.887</ele>
        <time>2020-07-20T08:06:09Z</time>
      </trkpt>
      <trkpt lat="42.889959" lon="-0.271867">
        <ele>1458.047</ele>
        <time>2020-07-20T08:06:15Z</time>
      </trkpt>
      <trkpt lat="42.889979" lon="-0.271811">
        <ele>1457.329</ele>
        <time>2020-07-20T08:06:19Z</time>
      </trkpt>
      <trkpt lat="42.889991" lon="-0.271752">
        <ele>1456.321</ele>
        <time>2020-07-20T08:06:24Z</time>
      </trkpt>
      <trkpt lat="42.890014" lon="-0.271682">
        <ele>1456.008</ele>
        <time>2020-07-20T08:06:29Z</time>
      </trkpt>
      <trkpt lat="42.890036" lon="-0.271626">
        <ele>1455.099</ele>
        <time>2020-07-20T08:06:37Z</time>
      </trkpt>
      <trkpt lat="42.890058" lon="-0.271554">
        <ele>1454.447</ele>
        <time>2020-07-20T08:06:41Z</time>
      </trkpt>
      <trkpt lat="42.890087" lon="-0.271494">
        <ele>1453.270</ele>
        <time>2020-07-20T08:06:47Z</time>
      </trkpt>
      <trkpt lat="42.890122" lon="-0.271448">
        <ele>1452.868</ele>
        <time>2020-07-20T08:06:54Z</time>
      </trkpt>
      <trkpt lat="42.890141" lon="-0.271392">
        <ele>1450.691</ele>
        <time>2020-07-20T08:07:03Z</time>
      </trkpt>
      <trkpt lat="42.890172" lon="-0.271342">
        <ele>1449.497</ele>
        <time>2020-07-20T08:07:10Z</time>
      </trkpt>
      <trkpt lat="42.890162" lon="-0.271282">
        <ele>1448.838</ele>
        <time>2020-07-20T08:07:17Z</time>
      </trkpt>
      <trkpt lat="42.890137" lon="-0.271225">
        <ele>1447.938</ele>
        <time>2020-07-20T08:07:23Z</time>
      </trkpt>
      <trkpt lat="42.890085" lon="-0.271235">
        <ele>1447.711</ele>
        <time>2020-07-20T08:07:36Z</time>
      </trkpt>
      <trkpt lat="42.890035" lon="-0.271237">
        <ele>1448.021</ele>
        <time>2020-07-20T08:07:57Z</time>
      </trkpt>
      <trkpt lat="42.890030" lon="-0.271164">
        <ele>1447.903</ele>
        <time>2020-07-20T08:08:15Z</time>
      </trkpt>
      <trkpt lat="42.890020" lon="-0.271094">
        <ele>1448.308</ele>
        <time>2020-07-20T08:08:29Z</time>
      </trkpt>
      <trkpt lat="42.889981" lon="-0.271051">
        <ele>1448.266</ele>
        <time>2020-07-20T08:08:52Z</time>
      </trkpt>
      <trkpt lat="42.889945" lon="-0.271021">
        <ele>1447.884</ele>
        <time>2020-07-20T08:09:25Z</time>
      </trkpt>
      <trkpt lat="42.889919" lon="-0.270971">
        <ele>1447.857</ele>
        <time>2020-07-20T08:09:40Z</time>
      </trkpt>
      <trkpt lat="42.889889" lon="-0.270922">
        <ele>1448.155</ele>
        <time>2020-07-20T08:10:30Z</time>
      </trkpt>
      <trkpt lat="42.889848" lon="-0.270895">
        <ele>1448.118</ele>
        <time>2020-07-20T08:10:39Z</time>
      </trkpt>
      <trkpt lat="42.889800" lon="-0.270887">
        <ele>1448.654</ele>
        <time>2020-07-20T08:11:02Z</time>
      </trkpt>
      <trkpt lat="42.889741" lon="-0.270877">
        <ele>1448.725</ele>
        <time>2020-07-20T08:11:06Z</time>
      </trkpt>
      <trkpt lat="42.889698" lon="-0.270840">
        <ele>1448.715</ele>
        <time>2020-07-20T08:11:11Z</time>
      </trkpt>
      <trkpt lat="42.889655" lon="-0.270809">
        <ele>1449.213</ele>
        <time>2020-07-20T08:11:19Z</time>
      </trkpt>
      <trkpt lat="42.889608" lon="-0.270781">
        <ele>1449.543</ele>
        <time>2020-07-20T08:11:21Z</time>
      </trkpt>
      <trkpt lat="42.889553" lon="-0.270777">
        <ele>1449.607</ele>
        <time>2020-07-20T08:11:27Z</time>
      </trkpt>
      <trkpt lat="42.889501" lon="-0.270812">
        <ele>1449.908</ele>
        <time>2020-07-20T08:11:34Z</time>
      </trkpt>
      <trkpt lat="42.889458" lon="-0.270879">
        <ele>1449.856</ele>
        <time>2020-07-20T08:11:41Z</time>
      </trkpt>
      <trkpt lat="42.889421" lon="-0.270927">
        <ele>1449.074</ele>
        <time>2020-07-20T08:11:47Z</time>
      </trkpt>
      <trkpt lat="42.889386" lon="-0.270984">
        <ele>1449.887</ele>
        <time>2020-07-20T08:11:54Z</time>
      </trkpt>
      <trkpt lat="42.889353" lon="-0.271035">
        <ele>1450.085</ele>
        <time>2020-07-20T08:11:59Z</time>
      </trkpt>
      <trkpt lat="42.889317" lon="-0.271087">
        <ele>1450.618</ele>
        <time>2020-07-20T08:12:05Z</time>
      </trkpt>
      <trkpt lat="42.889281" lon="-0.271136">
        <ele>1450.124</ele>
        <time>2020-07-20T08:12:10Z</time>
      </trkpt>
      <trkpt lat="42.889240" lon="-0.271175">
        <ele>1450.845</ele>
        <time>2020-07-20T08:12:15Z</time>
      </trkpt>
      <trkpt lat="42.889200" lon="-0.271210">
        <ele>1451.945</ele>
        <time>2020-07-20T08:12:19Z</time>
      </trkpt>
      <trkpt lat="42.889156" lon="-0.271241">
        <ele>1452.637</ele>
        <time>2020-07-20T08:12:28Z</time>
      </trkpt>
      <trkpt lat="42.889106" lon="-0.271255">
        <ele>1452.049</ele>
        <time>2020-07-20T08:12:34Z</time>
      </trkpt>
      <trkpt lat="42.889060" lon="-0.271275">
        <ele>1452.413</ele>
        <time>2020-07-20T08:12:40Z</time>
      </trkpt>
      <trkpt lat="42.889008" lon="-0.271300">
        <ele>1452.208</ele>
        <time>2020-07-20T08:12:43Z</time>
      </trkpt>
      <trkpt lat="42.888965" lon="-0.271323">
        <ele>1452.648</ele>
        <time>2020-07-20T08:12:49Z</time>
      </trkpt>
      <trkpt lat="42.888921" lon="-0.271344">
        <ele>1452.846</ele>
        <time>2020-07-20T08:12:52Z</time>
      </trkpt>
      <trkpt lat="42.888876" lon="-0.271372">
        <ele>1452.739</ele>
        <time>2020-07-20T08:12:56Z</time>
      </trkpt>
      <trkpt lat="42.888822" lon="-0.271396">
        <ele>1453.627</ele>
        <time>2020-07-20T08:13:01Z</time>
      </trkpt>
      <trkpt lat="42.888775" lon="-0.271426">
        <ele>1454.580</ele>
        <time>2020-07-20T08:13:06Z</time>
      </trkpt>
      <trkpt lat="42.888723" lon="-0.271445">
        <ele>1455.626</ele>
        <time>2020-07-20T08:13:11Z</time>
      </trkpt>
      <trkpt lat="42.888694" lon="-0.271481">
        <ele>1454.297</ele>
        <time>2020-07-20T08:13:19Z</time>
      </trkpt>
      <trkpt lat="42.888678" lon="-0.271536">
        <ele>1456.487</ele>
        <time>2020-07-20T08:13:27Z</time>
      </trkpt>
      <trkpt lat="42.888658" lon="-0.271606">
        <ele>1455.314</ele>
        <time>2020-07-20T08:13:34Z</time>
      </trkpt>
      <trkpt lat="42.888638" lon="-0.271681">
        <ele>1457.254</ele>
        <time>2020-07-20T08:13:41Z</time>
      </trkpt>
      <trkpt lat="42.888611" lon="-0.271734">
        <ele>1457.309</ele>
        <time>2020-07-20T08:13:45Z</time>
      </trkpt>
      <trkpt lat="42.888580" lon="-0.271785">
        <ele>1458.008</ele>
        <time>2020-07-20T08:13:49Z</time>
      </trkpt>
      <trkpt lat="42.888544" lon="-0.271827">
        <ele>1459.146</ele>
        <time>2020-07-20T08:13:52Z</time>
      </trkpt>
      <trkpt lat="42.888497" lon="-0.271855">
        <ele>1459.354</ele>
        <time>2020-07-20T08:14:00Z</time>
      </trkpt>
      <trkpt lat="42.888450" lon="-0.271868">
        <ele>1460.097</ele>
        <time>2020-07-20T08:14:03Z</time>
      </trkpt>
      <trkpt lat="42.888397" lon="-0.271860">
        <ele>1460.425</ele>
        <time>2020-07-20T08:14:10Z</time>
      </trkpt>
      <trkpt lat="42.888358" lon="-0.271830">
        <ele>1462.128</ele>
        <time>2020-07-20T08:14:21Z</time>
      </trkpt>
      <trkpt lat="42.888312" lon="-0.271793">
        <ele>1462.334</ele>
        <time>2020-07-20T08:14:31Z</time>
      </trkpt>
      <trkpt lat="42.888262" lon="-0.271782">
        <ele>1462.735</ele>
        <time>2020-07-20T08:14:35Z</time>
      </trkpt>
      <trkpt lat="42.888217" lon="-0.271774">
        <ele>1464.015</ele>
        <time>2020-07-20T08:14:39Z</time>
      </trkpt>
      <trkpt lat="42.888161" lon="-0.271759">
        <ele>1463.969</ele>
        <time>2020-07-20T08:14:46Z</time>
      </trkpt>
      <trkpt lat="42.888111" lon="-0.271742">
        <ele>1464.104</ele>
        <time>2020-07-20T08:14:50Z</time>
      </trkpt>
      <trkpt lat="42.888059" lon="-0.271738">
        <ele>1463.824</ele>
        <time>2020-07-20T08:14:54Z</time>
      </trkpt>
      <trkpt lat="42.888002" lon="-0.271739">
        <ele>1464.908</ele>
        <time>2020-07-20T08:15:01Z</time>
      </trkpt>
      <trkpt lat="42.887947" lon="-0.271744">
        <ele>1465.761</ele>
        <time>2020-07-20T08:15:05Z</time>
      </trkpt>
      <trkpt lat="42.887902" lon="-0.271761">
        <ele>1465.329</ele>
        <time>2020-07-20T08:15:12Z</time>
      </trkpt>
      <trkpt lat="42.887845" lon="-0.271781">
        <ele>1465.692</ele>
        <time>2020-07-20T08:15:20Z</time>
      </trkpt>
      <trkpt lat="42.887792" lon="-0.271794">
        <ele>1466.480</ele>
        <time>2020-07-20T08:15:26Z</time>
      </trkpt>
      <trkpt lat="42.887743" lon="-0.271793">
        <ele>1465.823</ele>
        <time>2020-07-20T08:15:43Z</time>
      </trkpt>
      <trkpt lat="42.887687" lon="-0.271767">
        <ele>1468.399</ele>
        <time>2020-07-20T08:15:53Z</time>
      </trkpt>
      <trkpt lat="42.887636" lon="-0.271741">
        <ele>1468.650</ele>
        <time>2020-07-20T08:15:57Z</time>
      </trkpt>
      <trkpt lat="42.887583" lon="-0.271728">
        <ele>1468.490</ele>
        <time>2020-07-20T08:16:01Z</time>
      </trkpt>
      <trkpt lat="42.887524" lon="-0.271736">
        <ele>1468.728</ele>
        <time>2020-07-20T08:16:21Z</time>
      </trkpt>
      <trkpt lat="42.887481" lon="-0.271769">
        <ele>1469.989</ele>
        <time>2020-07-20T08:16:31Z</time>
      </trkpt>
      <trkpt lat="42.887434" lon="-0.271789">
        <ele>1469.917</ele>
        <time>2020-07-20T08:16:38Z</time>
      </trkpt>
      <trkpt lat="42.887389" lon="-0.271799">
        <ele>1470.508</ele>
        <time>2020-07-20T08:16:43Z</time>
      </trkpt>
      <trkpt lat="42.887333" lon="-0.271805">
        <ele>1471.177</ele>
        <time>2020-07-20T08:16:49Z</time>
      </trkpt>
      <trkpt lat="42.887279" lon="-0.271794">
        <ele>1471.355</ele>
        <time>2020-07-20T08:16:52Z</time>
      </trkpt>
      <trkpt lat="42.887230" lon="-0.271813">
        <ele>1471.788</ele>
        <time>2020-07-20T08:16:59Z</time>
      </trkpt>
      <trkpt lat="42.887197" lon="-0.271863">
        <ele>1471.956</ele>
        <time>2020-07-20T08:17:08Z</time>
      </trkpt>
      <trkpt lat="42.887162" lon="-0.271912">
        <ele>1471.929</ele>
        <time>2020-07-20T08:17:14Z</time>
      </trkpt>
      <trkpt lat="42.887128" lon="-0.271954">
        <ele>1473.635</ele>
        <time>2020-07-20T08:17:22Z</time>
      </trkpt>
      <trkpt lat="42.887084" lon="-0.272006">
        <ele>1473.396</ele>
        <time>2020-07-20T08:17:27Z</time>
      </trkpt>
      <trkpt lat="42.887041" lon="-0.272058">
        <ele>1473.676</ele>
        <time>2020-07-20T08:17:32Z</time>
      </trkpt>
      <trkpt lat="42.887005" lon="-0.272106">
        <ele>1473.985</ele>
        <time>2020-07-20T08:17:37Z</time>
      </trkpt>
      <trkpt lat="42.886958" lon="-0.272112">
        <ele>1473.989</ele>
        <time>2020-07-20T08:17:42Z</time>
      </trkpt>
      <trkpt lat="42.886911" lon="-0.272085">
        <ele>1475.017</ele>
        <time>2020-07-20T08:17:50Z</time>
      </trkpt>
      <trkpt lat="42.886868" lon="-0.272047">
        <ele>1475.008</ele>
        <time>2020-07-20T08:17:54Z</time>
      </trkpt>
      <trkpt lat="42.886840" lon="-0.271989">
        <ele>1474.483</ele>
        <time>2020-07-20T08:17:59Z</time>
      </trkpt>
      <trkpt lat="42.886840" lon="-0.271931">
        <ele>1475.731</ele>
        <time>2020-07-20T08:18:06Z</time>
      </trkpt>
      <trkpt lat="42.886827" lon="-0.271857">
        <ele>1476.684</ele>
        <time>2020-07-20T08:18:32Z</time>
      </trkpt>
      <trkpt lat="42.886786" lon="-0.271796">
        <ele>1476.962</ele>
        <time>2020-07-20T08:18:40Z</time>
      </trkpt>
      <trkpt lat="42.886756" lon="-0.271743">
        <ele>1478.075</ele>
        <time>2020-07-20T08:18:46Z</time>
      </trkpt>
      <trkpt lat="42.886726" lon="-0.271688">
        <ele>1478.161</ele>
        <time>2020-07-20T08:18:49Z</time>
      </trkpt>
      <trkpt lat="42.886698" lon="-0.271628">
        <ele>1479.092</ele>
        <time>2020-07-20T08:18:54Z</time>
      </trkpt>
      <trkpt lat="42.886675" lon="-0.271559">
        <ele>1479.272</ele>
        <time>2020-07-20T08:19:01Z</time>
      </trkpt>
      <trkpt lat="42.886652" lon="-0.271506">
        <ele>1479.689</ele>
        <time>2020-07-20T08:19:07Z</time>
      </trkpt>
      <trkpt lat="42.886611" lon="-0.271448">
        <ele>1480.606</ele>
        <time>2020-07-20T08:19:13Z</time>
      </trkpt>
      <trkpt lat="42.886567" lon="-0.271410">
        <ele>1479.726</ele>
        <time>2020-07-20T08:19:18Z</time>
      </trkpt>
      <trkpt lat="42.886519" lon="-0.271382">
        <ele>1480.408</ele>
        <time>2020-07-20T08:19:22Z</time>
      </trkpt>
      <trkpt lat="42.886473" lon="-0.271370">
        <ele>1480.563</ele>
        <time>2020-07-20T08:19:26Z</time>
      </trkpt>
      <trkpt lat="42.886420" lon="-0.271360">
        <ele>1480.741</ele>
        <time>2020-07-20T08:19:30Z</time>
      </trkpt>
      <trkpt lat="42.886362" lon="-0.271361">
        <ele>1481.554</ele>
        <time>2020-07-20T08:19:35Z</time>
      </trkpt>
      <trkpt lat="42.886306" lon="-0.271366">
        <ele>1481.742</ele>
        <time>2020-07-20T08:19:37Z</time>
      </trkpt>
      <trkpt lat="42.886252" lon="-0.271377">
        <ele>1482.975</ele>
        <time>2020-07-20T08:19:44Z</time>
      </trkpt>
      <trkpt lat="42.886207" lon="-0.271390">
        <ele>1483.811</ele>
        <time>2020-07-20T08:19:48Z</time>
      </trkpt>
      <trkpt lat="42.886159" lon="-0.271388">
        <ele>1484.452</ele>
        <time>2020-07-20T08:19:51Z</time>
      </trkpt>
      <trkpt lat="42.886122" lon="-0.271350">
        <ele>1484.252</ele>
        <time>2020-07-20T08:19:58Z</time>
      </trkpt>
      <trkpt lat="42.886092" lon="-0.271291">
        <ele>1485.565</ele>
        <time>2020-07-20T08:20:05Z</time>
      </trkpt>
      <trkpt lat="42.886054" lon="-0.271238">
        <ele>1486.068</ele>
        <time>2020-07-20T08:20:12Z</time>
      </trkpt>
      <trkpt lat="42.886015" lon="-0.271192">
        <ele>1485.114</ele>
        <time>2020-07-20T08:20:17Z</time>
      </trkpt>
      <trkpt lat="42.885981" lon="-0.271136">
        <ele>1487.208</ele>
        <time>2020-07-20T08:20:26Z</time>
      </trkpt>
      <trkpt lat="42.885939" lon="-0.271091">
        <ele>1487.161</ele>
        <time>2020-07-20T08:20:32Z</time>
      </trkpt>
      <trkpt lat="42.885909" lon="-0.271039">
        <ele>1487.459</ele>
        <time>2020-07-20T08:20:41Z</time>
      </trkpt>
      <trkpt lat="42.885892" lon="-0.270980">
        <ele>1488.342</ele>
        <time>2020-07-20T08:20:45Z</time>
      </trkpt>
      <trkpt lat="42.885865" lon="-0.270914">
        <ele>1490.180</ele>
        <time>2020-07-20T08:20:53Z</time>
      </trkpt>
      <trkpt lat="42.885833" lon="-0.270852">
        <ele>1489.683</ele>
        <time>2020-07-20T08:20:59Z</time>
      </trkpt>
      <trkpt lat="42.885803" lon="-0.270787">
        <ele>1489.349</ele>
        <time>2020-07-20T08:21:05Z</time>
      </trkpt>
      <trkpt lat="42.885768" lon="-0.270730">
        <ele>1490.150</ele>
        <time>2020-07-20T08:21:10Z</time>
      </trkpt>
      <trkpt lat="42.885731" lon="-0.270693">
        <ele>1490.770</ele>
        <time>2020-07-20T08:21:15Z</time>
      </trkpt>
      <trkpt lat="42.885685" lon="-0.270655">
        <ele>1493.416</ele>
        <time>2020-07-20T08:21:19Z</time>
      </trkpt>
      <trkpt lat="42.885641" lon="-0.270636">
        <ele>1493.076</ele>
        <time>2020-07-20T08:21:24Z</time>
      </trkpt>
      <trkpt lat="42.885589" lon="-0.270623">
        <ele>1494.213</ele>
        <time>2020-07-20T08:21:35Z</time>
      </trkpt>
      <trkpt lat="42.885545" lon="-0.270614">
        <ele>1494.208</ele>
        <time>2020-07-20T08:21:41Z</time>
      </trkpt>
      <trkpt lat="42.885494" lon="-0.270593">
        <ele>1495.236</ele>
        <time>2020-07-20T08:21:46Z</time>
      </trkpt>
      <trkpt lat="42.885449" lon="-0.270564">
        <ele>1495.584</ele>
        <time>2020-07-20T08:21:53Z</time>
      </trkpt>
      <trkpt lat="42.885402" lon="-0.270530">
        <ele>1495.677</ele>
        <time>2020-07-20T08:21:58Z</time>
      </trkpt>
      <trkpt lat="42.885371" lon="-0.270469">
        <ele>1496.045</ele>
        <time>2020-07-20T08:22:08Z</time>
      </trkpt>
      <trkpt lat="42.885353" lon="-0.270413">
        <ele>1496.598</ele>
        <time>2020-07-20T08:22:13Z</time>
      </trkpt>
      <trkpt lat="42.885308" lon="-0.270378">
        <ele>1496.894</ele>
        <time>2020-07-20T08:22:18Z</time>
      </trkpt>
      <trkpt lat="42.885261" lon="-0.270370">
        <ele>1497.575</ele>
        <time>2020-07-20T08:22:22Z</time>
      </trkpt>
      <trkpt lat="42.885212" lon="-0.270380">
        <ele>1497.425</ele>
        <time>2020-07-20T08:22:24Z</time>
      </trkpt>
      <trkpt lat="42.885159" lon="-0.270385">
        <ele>1498.166</ele>
        <time>2020-07-20T08:22:29Z</time>
      </trkpt>
      <trkpt lat="42.885115" lon="-0.270419">
        <ele>1498.129</ele>
        <time>2020-07-20T08:22:33Z</time>
      </trkpt>
      <trkpt lat="42.885064" lon="-0.270443">
        <ele>1498.121</ele>
        <time>2020-07-20T08:22:38Z</time>
      </trkpt>
      <trkpt lat="42.885012" lon="-0.270463">
        <ele>1498.908</ele>
        <time>2020-07-20T08:22:42Z</time>
      </trkpt>
      <trkpt lat="42.884954" lon="-0.270477">
        <ele>1499.251</ele>
        <time>2020-07-20T08:22:44Z</time>
      </trkpt>
      <trkpt lat="42.884888" lon="-0.270482">
        <ele>1500.089</ele>
        <time>2020-07-20T08:22:50Z</time>
      </trkpt>
      <trkpt lat="42.884836" lon="-0.270478">
        <ele>1500.072</ele>
        <time>2020-07-20T08:22:54Z</time>
      </trkpt>
      <trkpt lat="42.884786" lon="-0.270473">
        <ele>1500.550</ele>
        <time>2020-07-20T08:22:58Z</time>
      </trkpt>
      <trkpt lat="42.884730" lon="-0.270482">
        <ele>1500.553</ele>
        <time>2020-07-20T08:23:02Z</time>
      </trkpt>
      <trkpt lat="42.884683" lon="-0.270489">
        <ele>1501.049</ele>
        <time>2020-07-20T08:23:08Z</time>
      </trkpt>
      <trkpt lat="42.884628" lon="-0.270484">
        <ele>1501.990</ele>
        <time>2020-07-20T08:23:14Z</time>
      </trkpt>
      <trkpt lat="42.884580" lon="-0.270473">
        <ele>1501.670</ele>
        <time>2020-07-20T08:23:17Z</time>
      </trkpt>
      <trkpt lat="42.884533" lon="-0.270459">
        <ele>1501.024</ele>
        <time>2020-07-20T08:23:24Z</time>
      </trkpt>
      <trkpt lat="42.884488" lon="-0.270447">
        <ele>1501.304</ele>
        <time>2020-07-20T08:23:30Z</time>
      </trkpt>
      <trkpt lat="42.884439" lon="-0.270419">
        <ele>1502.714</ele>
        <time>2020-07-20T08:23:36Z</time>
      </trkpt>
      <trkpt lat="42.884408" lon="-0.270372">
        <ele>1504.108</ele>
        <time>2020-07-20T08:23:45Z</time>
      </trkpt>
      <trkpt lat="42.884363" lon="-0.270342">
        <ele>1505.287</ele>
        <time>2020-07-20T08:23:56Z</time>
      </trkpt>
      <trkpt lat="42.884321" lon="-0.270317">
        <ele>1505.675</ele>
        <time>2020-07-20T08:24:03Z</time>
      </trkpt>
      <trkpt lat="42.884272" lon="-0.270304">
        <ele>1506.168</ele>
        <time>2020-07-20T08:24:10Z</time>
      </trkpt>
      <trkpt lat="42.884220" lon="-0.270304">
        <ele>1507.316</ele>
        <time>2020-07-20T08:24:14Z</time>
      </trkpt>
      <trkpt lat="42.884167" lon="-0.270317">
        <ele>1507.419</ele>
        <time>2020-07-20T08:24:21Z</time>
      </trkpt>
      <trkpt lat="42.884113" lon="-0.270335">
        <ele>1507.125</ele>
        <time>2020-07-20T08:24:27Z</time>
      </trkpt>
      <trkpt lat="42.884062" lon="-0.270365">
        <ele>1507.566</ele>
        <time>2020-07-20T08:24:31Z</time>
      </trkpt>
      <trkpt lat="42.884003" lon="-0.270382">
        <ele>1508.956</ele>
        <time>2020-07-20T08:24:39Z</time>
      </trkpt>
      <trkpt lat="42.883954" lon="-0.270403">
        <ele>1508.886</ele>
        <time>2020-07-20T08:24:44Z</time>
      </trkpt>
      <trkpt lat="42.883903" lon="-0.270419">
        <ele>1508.560</ele>
        <time>2020-07-20T08:24:49Z</time>
      </trkpt>
      <trkpt lat="42.883856" lon="-0.270436">
        <ele>1508.426</ele>
        <time>2020-07-20T08:24:53Z</time>
      </trkpt>
      <trkpt lat="42.883799" lon="-0.270437">
        <ele>1509.508</ele>
        <time>2020-07-20T08:24:58Z</time>
      </trkpt>
      <trkpt lat="42.883742" lon="-0.270436">
        <ele>1509.983</ele>
        <time>2020-07-20T08:25:04Z</time>
      </trkpt>
      <trkpt lat="42.883695" lon="-0.270439">
        <ele>1510.021</ele>
        <time>2020-07-20T08:25:07Z</time>
      </trkpt>
      <trkpt lat="42.883644" lon="-0.270453">
        <ele>1511.524</ele>
        <time>2020-07-20T08:25:14Z</time>
      </trkpt>
      <trkpt lat="42.883600" lon="-0.270471">
        <ele>1511.652</ele>
        <time>2020-07-20T08:25:18Z</time>
      </trkpt>
      <trkpt lat="42.883543" lon="-0.270488">
        <ele>1511.965</ele>
        <time>2020-07-20T08:25:25Z</time>
      </trkpt>
      <trkpt lat="42.883491" lon="-0.270472">
        <ele>1512.571</ele>
        <time>2020-07-20T08:25:29Z</time>
      </trkpt>
      <trkpt lat="42.883443" lon="-0.270450">
        <ele>1512.992</ele>
        <time>2020-07-20T08:25:38Z</time>
      </trkpt>
      <trkpt lat="42.883396" lon="-0.270448">
        <ele>1513.162</ele>
        <time>2020-07-20T08:25:44Z</time>
      </trkpt>
      <trkpt lat="42.883345" lon="-0.270452">
        <ele>1513.073</ele>
        <time>2020-07-20T08:25:47Z</time>
      </trkpt>
      <trkpt lat="42.883300" lon="-0.270432">
        <ele>1513.185</ele>
        <time>2020-07-20T08:25:55Z</time>
      </trkpt>
      <trkpt lat="42.883255" lon="-0.270409">
        <ele>1513.913</ele>
        <time>2020-07-20T08:26:02Z</time>
      </trkpt>
      <trkpt lat="42.883212" lon="-0.270409">
        <ele>1514.708</ele>
        <time>2020-07-20T08:26:08Z</time>
      </trkpt>
      <trkpt lat="42.883160" lon="-0.270417">
        <ele>1515.472</ele>
        <time>2020-07-20T08:26:11Z</time>
      </trkpt>
      <trkpt lat="42.883106" lon="-0.270425">
        <ele>1515.890</ele>
        <time>2020-07-20T08:26:19Z</time>
      </trkpt>
      <trkpt lat="42.883054" lon="-0.270403">
        <ele>1518.013</ele>
        <time>2020-07-20T08:30:20Z</time>
      </trkpt>
      <trkpt lat="42.882994" lon="-0.270403">
        <ele>1518.061</ele>
        <time>2020-07-20T08:30:26Z</time>
      </trkpt>
      <trkpt lat="42.882944" lon="-0.270428">
        <ele>1517.874</ele>
        <time>2020-07-20T08:30:27Z</time>
      </trkpt>
      <trkpt lat="42.882885" lon="-0.270442">
        <ele>1520.570</ele>
        <time>2020-07-20T08:30:32Z</time>
      </trkpt>
      <trkpt lat="42.882827" lon="-0.270425">
        <ele>1519.361</ele>
        <time>2020-07-20T08:30:41Z</time>
      </trkpt>
      <trkpt lat="42.882781" lon="-0.270423">
        <ele>1519.271</ele>
        <time>2020-07-20T08:30:55Z</time>
      </trkpt>
      <trkpt lat="42.882741" lon="-0.270394">
        <ele>1518.593</ele>
        <time>2020-07-20T08:31:06Z</time>
      </trkpt>
      <trkpt lat="42.882697" lon="-0.270389">
        <ele>1520.065</ele>
        <time>2020-07-20T08:31:22Z</time>
      </trkpt>
      <trkpt lat="42.882669" lon="-0.270359">
        <ele>1519.821</ele>
        <time>2020-07-20T08:31:54Z</time>
      </trkpt>
      <trkpt lat="42.882625" lon="-0.270330">
        <ele>1520.208</ele>
        <time>2020-07-20T08:31:59Z</time>
      </trkpt>
      <trkpt lat="42.882589" lon="-0.270239">
        <ele>1518.284</ele>
        <time>2020-07-20T08:52:06Z</time>
      </trkpt>
      <trkpt lat="42.882587" lon="-0.270188">
        <ele>1517.782</ele>
        <time>2020-07-20T08:52:08Z</time>
      </trkpt>
      <trkpt lat="42.882607" lon="-0.270136">
        <ele>1517.625</ele>
        <time>2020-07-20T08:53:32Z</time>
      </trkpt>
      <trkpt lat="42.882638" lon="-0.270114">
        <ele>1518.063</ele>
        <time>2020-07-20T08:54:34Z</time>
      </trkpt>
      <trkpt lat="42.882662" lon="-0.270057">
        <ele>1517.746</ele>
        <time>2020-07-20T08:54:39Z</time>
      </trkpt>
      <trkpt lat="42.882700" lon="-0.270009">
        <ele>1517.662</ele>
        <time>2020-07-20T08:54:49Z</time>
      </trkpt>
      <trkpt lat="42.882734" lon="-0.269968">
        <ele>1518.213</ele>
        <time>2020-07-20T08:54:56Z</time>
      </trkpt>
      <trkpt lat="42.882773" lon="-0.269937">
        <ele>1518.353</ele>
        <time>2020-07-20T08:55:05Z</time>
      </trkpt>
      <trkpt lat="42.882808" lon="-0.269916">
        <ele>1518.313</ele>
        <time>2020-07-20T08:55:18Z</time>
      </trkpt>
      <trkpt lat="42.882835" lon="-0.269866">
        <ele>1517.443</ele>
        <time>2020-07-20T08:55:54Z</time>
      </trkpt>
      <trkpt lat="42.882852" lon="-0.269805">
        <ele>1521.407</ele>
        <time>2020-07-20T08:56:02Z</time>
      </trkpt>
      <trkpt lat="42.882883" lon="-0.269757">
        <ele>1522.808</ele>
        <time>2020-07-20T08:56:09Z</time>
      </trkpt>
      <trkpt lat="42.882912" lon="-0.269693">
        <ele>1522.826</ele>
        <time>2020-07-20T08:56:13Z</time>
      </trkpt>
      <trkpt lat="42.882949" lon="-0.269646">
        <ele>1523.664</ele>
        <time>2020-07-20T08:56:20Z</time>
      </trkpt>
      <trkpt lat="42.882989" lon="-0.269609">
        <ele>1524.127</ele>
        <time>2020-07-20T08:56:26Z</time>
      </trkpt>
      <trkpt lat="42.883027" lon="-0.269603">
        <ele>1525.575</ele>
        <time>2020-07-20T08:56:36Z</time>
      </trkpt>
      <trkpt lat="42.883077" lon="-0.269599">
        <ele>1524.958</ele>
        <time>2020-07-20T08:56:40Z</time>
      </trkpt>
      <trkpt lat="42.883127" lon="-0.269610">
        <ele>1526.554</ele>
        <time>2020-07-20T08:56:46Z</time>
      </trkpt>
      <trkpt lat="42.883182" lon="-0.269604">
        <ele>1527.125</ele>
        <time>2020-07-20T08:56:55Z</time>
      </trkpt>
      <trkpt lat="42.883143" lon="-0.269552">
        <ele>1526.155</ele>
        <time>2020-07-20T08:57:06Z</time>
      </trkpt>
      <trkpt lat="42.883093" lon="-0.269530">
        <ele>1526.424</ele>
        <time>2020-07-20T08:57:09Z</time>
      </trkpt>
      <trkpt lat="42.883037" lon="-0.269525">
        <ele>1526.804</ele>
        <time>2020-07-20T08:57:15Z</time>
      </trkpt>
      <trkpt lat="42.882987" lon="-0.269505">
        <ele>1529.114</ele>
        <time>2020-07-20T08:57:22Z</time>
      </trkpt>
      <trkpt lat="42.882936" lon="-0.269496">
        <ele>1530.508</ele>
        <time>2020-07-20T08:57:25Z</time>
      </trkpt>
      <trkpt lat="42.882883" lon="-0.269483">
        <ele>1528.937</ele>
        <time>2020-07-20T08:57:31Z</time>
      </trkpt>
      <trkpt lat="42.882839" lon="-0.269475">
        <ele>1528.295</ele>
        <time>2020-07-20T08:57:35Z</time>
      </trkpt>
      <trkpt lat="42.882783" lon="-0.269482">
        <ele>1529.838</ele>
        <time>2020-07-20T08:57:41Z</time>
      </trkpt>
      <trkpt lat="42.882725" lon="-0.269486">
        <ele>1531.176</ele>
        <time>2020-07-20T08:57:45Z</time>
      </trkpt>
      <trkpt lat="42.882682" lon="-0.269466">
        <ele>1533.189</ele>
        <time>2020-07-20T08:57:49Z</time>
      </trkpt>
      <trkpt lat="42.882634" lon="-0.269449">
        <ele>1530.925</ele>
        <time>2020-07-20T08:57:56Z</time>
      </trkpt>
      <trkpt lat="42.882582" lon="-0.269431">
        <ele>1531.476</ele>
        <time>2020-07-20T08:58:02Z</time>
      </trkpt>
      <trkpt lat="42.882539" lon="-0.269400">
        <ele>1534.256</ele>
        <time>2020-07-20T08:58:10Z</time>
      </trkpt>
      <trkpt lat="42.882492" lon="-0.269377">
        <ele>1535.248</ele>
        <time>2020-07-20T08:58:16Z</time>
      </trkpt>
      <trkpt lat="42.882461" lon="-0.269327">
        <ele>1536.761</ele>
        <time>2020-07-20T08:58:22Z</time>
      </trkpt>
      <trkpt lat="42.882442" lon="-0.269267">
        <ele>1536.117</ele>
        <time>2020-07-20T08:58:29Z</time>
      </trkpt>
      <trkpt lat="42.882408" lon="-0.269220">
        <ele>1538.508</ele>
        <time>2020-07-20T08:58:40Z</time>
      </trkpt>
      <trkpt lat="42.882357" lon="-0.269219">
        <ele>1539.399</ele>
        <time>2020-07-20T08:58:46Z</time>
      </trkpt>
      <trkpt lat="42.882312" lon="-0.269224">
        <ele>1538.177</ele>
        <time>2020-07-20T08:58:53Z</time>
      </trkpt>
      <trkpt lat="42.882253" lon="-0.269227">
        <ele>1538.780</ele>
        <time>2020-07-20T08:58:59Z</time>
      </trkpt>
      <trkpt lat="42.882207" lon="-0.269227">
        <ele>1539.878</ele>
        <time>2020-07-20T08:59:04Z</time>
      </trkpt>
      <trkpt lat="42.882162" lon="-0.269199">
        <ele>1540.471</ele>
        <time>2020-07-20T08:59:10Z</time>
      </trkpt>
      <trkpt lat="42.882132" lon="-0.269153">
        <ele>1540.937</ele>
        <time>2020-07-20T08:59:14Z</time>
      </trkpt>
      <trkpt lat="42.882097" lon="-0.269091">
        <ele>1541.128</ele>
        <time>2020-07-20T08:59:20Z</time>
      </trkpt>
      <trkpt lat="42.882083" lon="-0.269016">
        <ele>1539.248</ele>
        <time>2020-07-20T08:59:27Z</time>
      </trkpt>
      <trkpt lat="42.882078" lon="-0.268940">
        <ele>1540.872</ele>
        <time>2020-07-20T08:59:31Z</time>
      </trkpt>
      <trkpt lat="42.882073" lon="-0.268873">
        <ele>1542.113</ele>
        <time>2020-07-20T08:59:37Z</time>
      </trkpt>
      <trkpt lat="42.882112" lon="-0.268912">
        <ele>1543.914</ele>
        <time>2020-07-20T08:59:47Z</time>
      </trkpt>
      <trkpt lat="42.882136" lon="-0.268965">
        <ele>1544.208</ele>
        <time>2020-07-20T08:59:50Z</time>
      </trkpt>
      <trkpt lat="42.882165" lon="-0.269017">
        <ele>1544.412</ele>
        <time>2020-07-20T08:59:56Z</time>
      </trkpt>
      <trkpt lat="42.882212" lon="-0.269054">
        <ele>1546.930</ele>
        <time>2020-07-20T09:00:03Z</time>
      </trkpt>
      <trkpt lat="42.882261" lon="-0.269078">
        <ele>1543.113</ele>
        <time>2020-07-20T09:00:10Z</time>
      </trkpt>
      <trkpt lat="42.882313" lon="-0.269090">
        <ele>1543.911</ele>
        <time>2020-07-20T09:00:14Z</time>
      </trkpt>
      <trkpt lat="42.882358" lon="-0.269067">
        <ele>1547.684</ele>
        <time>2020-07-20T09:00:18Z</time>
      </trkpt>
      <trkpt lat="42.882407" lon="-0.269036">
        <ele>1548.190</ele>
        <time>2020-07-20T09:00:24Z</time>
      </trkpt>
      <trkpt lat="42.882458" lon="-0.269009">
        <ele>1548.651</ele>
        <time>2020-07-20T09:00:28Z</time>
      </trkpt>
      <trkpt lat="42.882498" lon="-0.268977">
        <ele>1548.931</ele>
        <time>2020-07-20T09:00:31Z</time>
      </trkpt>
      <trkpt lat="42.882543" lon="-0.268954">
        <ele>1547.195</ele>
        <time>2020-07-20T09:00:36Z</time>
      </trkpt>
      <trkpt lat="42.882593" lon="-0.268935">
        <ele>1547.249</ele>
        <time>2020-07-20T09:00:44Z</time>
      </trkpt>
      <trkpt lat="42.882638" lon="-0.268917">
        <ele>1549.923</ele>
        <time>2020-07-20T09:00:49Z</time>
      </trkpt>
      <trkpt lat="42.882689" lon="-0.268907">
        <ele>1551.308</ele>
        <time>2020-07-20T09:00:54Z</time>
      </trkpt>
      <trkpt lat="42.882738" lon="-0.268872">
        <ele>1551.644</ele>
        <time>2020-07-20T09:01:01Z</time>
      </trkpt>
      <trkpt lat="42.882781" lon="-0.268847">
        <ele>1551.962</ele>
        <time>2020-07-20T09:01:07Z</time>
      </trkpt>
      <trkpt lat="42.882818" lon="-0.268811">
        <ele>1552.155</ele>
        <time>2020-07-20T09:01:11Z</time>
      </trkpt>
      <trkpt lat="42.882801" lon="-0.268753">
        <ele>1553.423</ele>
        <time>2020-07-20T09:01:18Z</time>
      </trkpt>
      <trkpt lat="42.882756" lon="-0.268732">
        <ele>1553.326</ele>
        <time>2020-07-20T09:01:20Z</time>
      </trkpt>
      <trkpt lat="42.882700" lon="-0.268719">
        <ele>1554.062</ele>
        <time>2020-07-20T09:01:26Z</time>
      </trkpt>
      <trkpt lat="42.882644" lon="-0.268721">
        <ele>1555.423</ele>
        <time>2020-07-20T09:01:32Z</time>
      </trkpt>
      <trkpt lat="42.882599" lon="-0.268732">
        <ele>1556.373</ele>
        <time>2020-07-20T09:01:38Z</time>
      </trkpt>
      <trkpt lat="42.882547" lon="-0.268702">
        <ele>1554.255</ele>
        <time>2020-07-20T09:01:45Z</time>
      </trkpt>
      <trkpt lat="42.882507" lon="-0.268652">
        <ele>1557.707</ele>
        <time>2020-07-20T09:01:50Z</time>
      </trkpt>
      <trkpt lat="42.882467" lon="-0.268614">
        <ele>1555.317</ele>
        <time>2020-07-20T09:01:57Z</time>
      </trkpt>
      <trkpt lat="42.882417" lon="-0.268595">
        <ele>1555.608</ele>
        <time>2020-07-20T09:02:04Z</time>
      </trkpt>
      <trkpt lat="42.882373" lon="-0.268572">
        <ele>1558.640</ele>
        <time>2020-07-20T09:02:09Z</time>
      </trkpt>
      <trkpt lat="42.882322" lon="-0.268529">
        <ele>1557.638</ele>
        <time>2020-07-20T09:02:16Z</time>
      </trkpt>
      <trkpt lat="42.882275" lon="-0.268491">
        <ele>1560.721</ele>
        <time>2020-07-20T09:02:24Z</time>
      </trkpt>
      <trkpt lat="42.882231" lon="-0.268452">
        <ele>1558.359</ele>
        <time>2020-07-20T09:02:31Z</time>
      </trkpt>
      <trkpt lat="42.882183" lon="-0.268422">
        <ele>1562.962</ele>
        <time>2020-07-20T09:02:37Z</time>
      </trkpt>
      <trkpt lat="42.882146" lon="-0.268381">
        <ele>1562.618</ele>
        <time>2020-07-20T09:02:45Z</time>
      </trkpt>
      <trkpt lat="42.882125" lon="-0.268324">
        <ele>1561.649</ele>
        <time>2020-07-20T09:02:51Z</time>
      </trkpt>
      <trkpt lat="42.882103" lon="-0.268276">
        <ele>1564.019</ele>
        <time>2020-07-20T09:02:59Z</time>
      </trkpt>
      <trkpt lat="42.882060" lon="-0.268234">
        <ele>1564.677</ele>
        <time>2020-07-20T09:03:03Z</time>
      </trkpt>
      <trkpt lat="42.882016" lon="-0.268214">
        <ele>1564.561</ele>
        <time>2020-07-20T09:03:07Z</time>
      </trkpt>
      <trkpt lat="42.881969" lon="-0.268207">
        <ele>1563.427</ele>
        <time>2020-07-20T09:03:13Z</time>
      </trkpt>
      <trkpt lat="42.881916" lon="-0.268178">
        <ele>1566.508</ele>
        <time>2020-07-20T09:03:19Z</time>
      </trkpt>
      <trkpt lat="42.881880" lon="-0.268129">
        <ele>1567.192</ele>
        <time>2020-07-20T09:03:25Z</time>
      </trkpt>
      <trkpt lat="42.881860" lon="-0.268074">
        <ele>1566.080</ele>
        <time>2020-07-20T09:03:31Z</time>
      </trkpt>
      <trkpt lat="42.881916" lon="-0.268054">
        <ele>1568.093</ele>
        <time>2020-07-20T09:03:38Z</time>
      </trkpt>
      <trkpt lat="42.881971" lon="-0.268085">
        <ele>1568.761</ele>
        <time>2020-07-20T09:03:43Z</time>
      </trkpt>
      <trkpt lat="42.882016" lon="-0.268116">
        <ele>1569.094</ele>
        <time>2020-07-20T09:03:47Z</time>
      </trkpt>
      <trkpt lat="42.882062" lon="-0.268137">
        <ele>1570.480</ele>
        <time>2020-07-20T09:03:51Z</time>
      </trkpt>
      <trkpt lat="42.882111" lon="-0.268149">
        <ele>1567.791</ele>
        <time>2020-07-20T09:03:58Z</time>
      </trkpt>
      <trkpt lat="42.882162" lon="-0.268147">
        <ele>1571.811</ele>
        <time>2020-07-20T09:04:04Z</time>
      </trkpt>
      <trkpt lat="42.882209" lon="-0.268135">
        <ele>1570.249</ele>
        <time>2020-07-20T09:04:11Z</time>
      </trkpt>
      <trkpt lat="42.882250" lon="-0.268101">
        <ele>1571.702</ele>
        <time>2020-07-20T09:04:15Z</time>
      </trkpt>
      <trkpt lat="42.882294" lon="-0.268076">
        <ele>1573.722</ele>
        <time>2020-07-20T09:04:22Z</time>
      </trkpt>
      <trkpt lat="42.882337" lon="-0.268039">
        <ele>1575.308</ele>
        <time>2020-07-20T09:04:28Z</time>
      </trkpt>
      <trkpt lat="42.882298" lon="-0.268004">
        <ele>1573.579</ele>
        <time>2020-07-20T09:04:35Z</time>
      </trkpt>
      <trkpt lat="42.882251" lon="-0.267994">
        <ele>1571.017</ele>
        <time>2020-07-20T09:04:38Z</time>
      </trkpt>
      <trkpt lat="42.882204" lon="-0.267978">
        <ele>1573.940</ele>
        <time>2020-07-20T09:04:41Z</time>
      </trkpt>
      <trkpt lat="42.882157" lon="-0.267965">
        <ele>1573.338</ele>
        <time>2020-07-20T09:04:44Z</time>
      </trkpt>
      <trkpt lat="42.882103" lon="-0.267953">
        <ele>1574.641</ele>
        <time>2020-07-20T09:04:48Z</time>
      </trkpt>
      <trkpt lat="42.882059" lon="-0.267935">
        <ele>1576.417</ele>
        <time>2020-07-20T09:04:50Z</time>
      </trkpt>
      <trkpt lat="42.882008" lon="-0.267918">
        <ele>1575.018</ele>
        <time>2020-07-20T09:04:58Z</time>
      </trkpt>
      <trkpt lat="42.881963" lon="-0.267894">
        <ele>1574.358</ele>
        <time>2020-07-20T09:05:05Z</time>
      </trkpt>
      <trkpt lat="42.881919" lon="-0.267873">
        <ele>1573.673</ele>
        <time>2020-07-20T09:05:11Z</time>
      </trkpt>
      <trkpt lat="42.881866" lon="-0.267863">
        <ele>1576.685</ele>
        <time>2020-07-20T09:05:16Z</time>
      </trkpt>
      <trkpt lat="42.881814" lon="-0.267856">
        <ele>1575.913</ele>
        <time>2020-07-20T09:05:25Z</time>
      </trkpt>
      <trkpt lat="42.881767" lon="-0.267843">
        <ele>1577.108</ele>
        <time>2020-07-20T09:05:29Z</time>
      </trkpt>
      <trkpt lat="42.881716" lon="-0.267826">
        <ele>1576.172</ele>
        <time>2020-07-20T09:05:37Z</time>
      </trkpt>
      <trkpt lat="42.881662" lon="-0.267806">
        <ele>1576.190</ele>
        <time>2020-07-20T09:05:42Z</time>
      </trkpt>
      <trkpt lat="42.881616" lon="-0.267773">
        <ele>1580.533</ele>
        <time>2020-07-20T09:05:50Z</time>
      </trkpt>
      <trkpt lat="42.881575" lon="-0.267720">
        <ele>1581.021</ele>
        <time>2020-07-20T09:05:56Z</time>
      </trkpt>
      <trkpt lat="42.881534" lon="-0.267677">
        <ele>1581.754</ele>
        <time>2020-07-20T09:05:59Z</time>
      </trkpt>
      <trkpt lat="42.881492" lon="-0.267637">
        <ele>1580.090</ele>
        <time>2020-07-20T09:06:07Z</time>
      </trkpt>
      <trkpt lat="42.881455" lon="-0.267594">
        <ele>1582.931</ele>
        <time>2020-07-20T09:06:14Z</time>
      </trkpt>
      <trkpt lat="42.881420" lon="-0.267555">
        <ele>1582.621</ele>
        <time>2020-07-20T09:06:22Z</time>
      </trkpt>
      <trkpt lat="42.881368" lon="-0.267549">
        <ele>1582.149</ele>
        <time>2020-07-20T09:07:29Z</time>
      </trkpt>
      <trkpt lat="42.881329" lon="-0.267519">
        <ele>1582.202</ele>
        <time>2020-07-20T09:07:33Z</time>
      </trkpt>
      <trkpt lat="42.881290" lon="-0.267470">
        <ele>1581.622</ele>
        <time>2020-07-20T09:08:44Z</time>
      </trkpt>
      <trkpt lat="42.881235" lon="-0.267417">
        <ele>1580.308</ele>
        <time>2020-07-20T09:08:49Z</time>
      </trkpt>
      <trkpt lat="42.881195" lon="-0.267382">
        <ele>1582.699</ele>
        <time>2020-07-20T09:08:53Z</time>
      </trkpt>
      <trkpt lat="42.881147" lon="-0.267339">
        <ele>1581.537</ele>
        <time>2020-07-20T09:08:57Z</time>
      </trkpt>
      <trkpt lat="42.881095" lon="-0.267316">
        <ele>1581.850</ele>
        <time>2020-07-20T09:09:03Z</time>
      </trkpt>
      <trkpt lat="42.881053" lon="-0.267283">
        <ele>1582.818</ele>
        <time>2020-07-20T09:09:08Z</time>
      </trkpt>
      <trkpt lat="42.881011" lon="-0.267253">
        <ele>1582.111</ele>
        <time>2020-07-20T09:09:14Z</time>
      </trkpt>
      <trkpt lat="42.880967" lon="-0.267217">
        <ele>1581.737</ele>
        <time>2020-07-20T09:09:20Z</time>
      </trkpt>
      <trkpt lat="42.880919" lon="-0.267202">
        <ele>1583.068</ele>
        <time>2020-07-20T09:09:28Z</time>
      </trkpt>
      <trkpt lat="42.880872" lon="-0.267205">
        <ele>1582.248</ele>
        <time>2020-07-20T09:09:35Z</time>
      </trkpt>
      <trkpt lat="42.880825" lon="-0.267212">
        <ele>1581.999</ele>
        <time>2020-07-20T09:09:40Z</time>
      </trkpt>
      <trkpt lat="42.880775" lon="-0.267214">
        <ele>1582.707</ele>
        <time>2020-07-20T09:09:45Z</time>
      </trkpt>
      <trkpt lat="42.880727" lon="-0.267215">
        <ele>1581.827</ele>
        <time>2020-07-20T09:09:50Z</time>
      </trkpt>
      <trkpt lat="42.880697" lon="-0.267232">
        <ele>1584.108</ele>
        <time>2020-07-20T09:09:55Z</time>
      </trkpt>
      <trkpt lat="42.880663" lon="-0.267231">
        <ele>1582.284</ele>
        <time>2020-07-20T09:10:20Z</time>
      </trkpt>
      <trkpt lat="42.880619" lon="-0.267209">
        <ele>1582.622</ele>
        <time>2020-07-20T09:10:21Z</time>
      </trkpt>
      <trkpt lat="42.880570" lon="-0.267206">
        <ele>1582.935</ele>
        <time>2020-07-20T09:10:25Z</time>
      </trkpt>
      <trkpt lat="42.880514" lon="-0.267234">
        <ele>1583.513</ele>
        <time>2020-07-20T09:10:34Z</time>
      </trkpt>
      <trkpt lat="42.880477" lon="-0.267291">
        <ele>1584.146</ele>
        <time>2020-07-20T09:10:39Z</time>
      </trkpt>
      <trkpt lat="42.880452" lon="-0.267360">
        <ele>1584.512</ele>
        <time>2020-07-20T09:10:44Z</time>
      </trkpt>
      <trkpt lat="42.880430" lon="-0.267396">
        <ele>1585.373</ele>
        <time>2020-07-20T09:11:03Z</time>
      </trkpt>
      <trkpt lat="42.880400" lon="-0.267419">
        <ele>1585.283</ele>
        <time>2020-07-20T09:11:11Z</time>
      </trkpt>
      <trkpt lat="42.880346" lon="-0.267424">
        <ele>1584.699</ele>
        <time>2020-07-20T09:11:13Z</time>
      </trkpt>
      <trkpt lat="42.880297" lon="-0.267448">
        <ele>1584.207</ele>
        <time>2020-07-20T09:11:17Z</time>
      </trkpt>
      <trkpt lat="42.880248" lon="-0.267467">
        <ele>1584.127</ele>
        <time>2020-07-20T09:11:24Z</time>
      </trkpt>
      <trkpt lat="42.880192" lon="-0.267499">
        <ele>1583.808</ele>
        <time>2020-07-20T09:11:27Z</time>
      </trkpt>
      <trkpt lat="42.880150" lon="-0.267529">
        <ele>1584.214</ele>
        <time>2020-07-20T09:11:28Z</time>
      </trkpt>
      <trkpt lat="42.880107" lon="-0.267557">
        <ele>1584.952</ele>
        <time>2020-07-20T09:11:34Z</time>
      </trkpt>
      <trkpt lat="42.880055" lon="-0.267573">
        <ele>1584.885</ele>
        <time>2020-07-20T09:11:35Z</time>
      </trkpt>
      <trkpt lat="42.880009" lon="-0.267574">
        <ele>1585.023</ele>
        <time>2020-07-20T09:11:41Z</time>
      </trkpt>
      <trkpt lat="42.879962" lon="-0.267600">
        <ele>1584.386</ele>
        <time>2020-07-20T09:11:46Z</time>
      </trkpt>
      <trkpt lat="42.879932" lon="-0.267658">
        <ele>1583.592</ele>
        <time>2020-07-20T09:11:51Z</time>
      </trkpt>
      <trkpt lat="42.879894" lon="-0.267707">
        <ele>1585.143</ele>
        <time>2020-07-20T09:11:56Z</time>
      </trkpt>
      <trkpt lat="42.879848" lon="-0.267713">
        <ele>1585.333</ele>
        <time>2020-07-20T09:12:04Z</time>
      </trkpt>
      <trkpt lat="42.879803" lon="-0.267684">
        <ele>1585.625</ele>
        <time>2020-07-20T09:12:07Z</time>
      </trkpt>
      <trkpt lat="42.879748" lon="-0.267657">
        <ele>1585.226</ele>
        <time>2020-07-20T09:12:12Z</time>
      </trkpt>
      <trkpt lat="42.879699" lon="-0.267647">
        <ele>1585.108</ele>
        <time>2020-07-20T09:12:18Z</time>
      </trkpt>
      <trkpt lat="42.879647" lon="-0.267666">
        <ele>1584.108</ele>
        <time>2020-07-20T09:12:23Z</time>
      </trkpt>
      <trkpt lat="42.879601" lon="-0.267667">
        <ele>1583.777</ele>
        <time>2020-07-20T09:12:25Z</time>
      </trkpt>
      <trkpt lat="42.879555" lon="-0.267661">
        <ele>1583.735</ele>
        <time>2020-07-20T09:12:30Z</time>
      </trkpt>
      <trkpt lat="42.879499" lon="-0.267650">
        <ele>1583.738</ele>
        <time>2020-07-20T09:12:38Z</time>
      </trkpt>
      <trkpt lat="42.879454" lon="-0.267658">
        <ele>1583.826</ele>
        <time>2020-07-20T09:12:42Z</time>
      </trkpt>
      <trkpt lat="42.879387" lon="-0.267676">
        <ele>1582.579</ele>
        <time>2020-07-20T09:12:48Z</time>
      </trkpt>
      <trkpt lat="42.879338" lon="-0.267700">
        <ele>1582.575</ele>
        <time>2020-07-20T09:12:52Z</time>
      </trkpt>
      <trkpt lat="42.879295" lon="-0.267729">
        <ele>1582.846</ele>
        <time>2020-07-20T09:12:57Z</time>
      </trkpt>
      <trkpt lat="42.879270" lon="-0.267798">
        <ele>1580.816</ele>
        <time>2020-07-20T09:13:03Z</time>
      </trkpt>
      <trkpt lat="42.879242" lon="-0.267847">
        <ele>1582.014</ele>
        <time>2020-07-20T09:13:08Z</time>
      </trkpt>
      <trkpt lat="42.879194" lon="-0.267870">
        <ele>1581.854</ele>
        <time>2020-07-20T09:13:15Z</time>
      </trkpt>
      <trkpt lat="42.879148" lon="-0.267872">
        <ele>1581.709</ele>
        <time>2020-07-20T09:13:20Z</time>
      </trkpt>
      <trkpt lat="42.879105" lon="-0.267905">
        <ele>1581.508</ele>
        <time>2020-07-20T09:13:25Z</time>
      </trkpt>
      <trkpt lat="42.879058" lon="-0.267931">
        <ele>1582.076</ele>
        <time>2020-07-20T09:13:28Z</time>
      </trkpt>
      <trkpt lat="42.879006" lon="-0.267943">
        <ele>1581.534</ele>
        <time>2020-07-20T09:13:38Z</time>
      </trkpt>
      <trkpt lat="42.878960" lon="-0.267934">
        <ele>1582.067</ele>
        <time>2020-07-20T09:13:43Z</time>
      </trkpt>
      <trkpt lat="42.878906" lon="-0.267930">
        <ele>1580.495</ele>
        <time>2020-07-20T09:13:49Z</time>
      </trkpt>
      <trkpt lat="42.878855" lon="-0.267926">
        <ele>1580.758</ele>
        <time>2020-07-20T09:13:55Z</time>
      </trkpt>
      <trkpt lat="42.878798" lon="-0.267923">
        <ele>1580.544</ele>
        <time>2020-07-20T09:13:59Z</time>
      </trkpt>
      <trkpt lat="42.878746" lon="-0.267905">
        <ele>1581.055</ele>
        <time>2020-07-20T09:14:01Z</time>
      </trkpt>
      <trkpt lat="42.878704" lon="-0.267873">
        <ele>1581.025</ele>
        <time>2020-07-20T09:14:08Z</time>
      </trkpt>
      <trkpt lat="42.878657" lon="-0.267823">
        <ele>1579.181</ele>
        <time>2020-07-20T09:14:11Z</time>
      </trkpt>
      <trkpt lat="42.878617" lon="-0.267791">
        <ele>1580.261</ele>
        <time>2020-07-20T09:14:19Z</time>
      </trkpt>
      <trkpt lat="42.878580" lon="-0.267747">
        <ele>1579.617</ele>
        <time>2020-07-20T09:14:26Z</time>
      </trkpt>
      <trkpt lat="42.878536" lon="-0.267725">
        <ele>1579.608</ele>
        <time>2020-07-20T09:14:32Z</time>
      </trkpt>
      <trkpt lat="42.878490" lon="-0.267741">
        <ele>1578.593</ele>
        <time>2020-07-20T09:14:38Z</time>
      </trkpt>
      <trkpt lat="42.878456" lon="-0.267791">
        <ele>1579.681</ele>
        <time>2020-07-20T09:14:43Z</time>
      </trkpt>
      <trkpt lat="42.878408" lon="-0.267809">
        <ele>1579.584</ele>
        <time>2020-07-20T09:14:49Z</time>
      </trkpt>
      <trkpt lat="42.878362" lon="-0.267805">
        <ele>1579.262</ele>
        <time>2020-07-20T09:14:59Z</time>
      </trkpt>
      <trkpt lat="42.878315" lon="-0.267801">
        <ele>1578.915</ele>
        <time>2020-07-20T09:15:02Z</time>
      </trkpt>
      <trkpt lat="42.878260" lon="-0.267787">
        <ele>1578.431</ele>
        <time>2020-07-20T09:15:11Z</time>
      </trkpt>
      <trkpt lat="42.878207" lon="-0.267776">
        <ele>1578.412</ele>
        <time>2020-07-20T09:15:15Z</time>
      </trkpt>
      <trkpt lat="42.878153" lon="-0.267768">
        <ele>1578.372</ele>
        <time>2020-07-20T09:15:20Z</time>
      </trkpt>
      <trkpt lat="42.878096" lon="-0.267774">
        <ele>1578.298</ele>
        <time>2020-07-20T09:15:25Z</time>
      </trkpt>
      <trkpt lat="42.878053" lon="-0.267753">
        <ele>1578.415</ele>
        <time>2020-07-20T09:15:26Z</time>
      </trkpt>
      <trkpt lat="42.878022" lon="-0.267715">
        <ele>1577.526</ele>
        <time>2020-07-20T09:15:48Z</time>
      </trkpt>
      <trkpt lat="42.877980" lon="-0.267672">
        <ele>1577.908</ele>
        <time>2020-07-20T09:15:52Z</time>
      </trkpt>
      <trkpt lat="42.877936" lon="-0.267637">
        <ele>1578.074</ele>
        <time>2020-07-20T09:15:58Z</time>
      </trkpt>
      <trkpt lat="42.877870" lon="-0.267614">
        <ele>1577.912</ele>
        <time>2020-07-20T09:16:03Z</time>
      </trkpt>
      <trkpt lat="42.877813" lon="-0.267602">
        <ele>1577.225</ele>
        <time>2020-07-20T09:16:07Z</time>
      </trkpt>
      <trkpt lat="42.877753" lon="-0.267576">
        <ele>1577.423</ele>
        <time>2020-07-20T09:16:10Z</time>
      </trkpt>
      <trkpt lat="42.877703" lon="-0.267554">
        <ele>1576.036</ele>
        <time>2020-07-20T09:16:15Z</time>
      </trkpt>
      <trkpt lat="42.877659" lon="-0.267547">
        <ele>1577.062</ele>
        <time>2020-07-20T09:17:04Z</time>
      </trkpt>
      <trkpt lat="42.877617" lon="-0.267524">
        <ele>1576.673</ele>
        <time>2020-07-20T09:17:12Z</time>
      </trkpt>
      <trkpt lat="42.877583" lon="-0.267479">
        <ele>1576.183</ele>
        <time>2020-07-20T09:17:15Z</time>
      </trkpt>
      <trkpt lat="42.877528" lon="-0.267412">
        <ele>1577.352</ele>
        <time>2020-07-20T09:17:19Z</time>
      </trkpt>
      <trkpt lat="42.877470" lon="-0.267364">
        <ele>1575.753</ele>
        <time>2020-07-20T09:17:23Z</time>
      </trkpt>
      <trkpt lat="42.877423" lon="-0.267322">
        <ele>1575.708</ele>
        <time>2020-07-20T09:17:28Z</time>
      </trkpt>
      <trkpt lat="42.877385" lon="-0.267282">
        <ele>1575.608</ele>
        <time>2020-07-20T09:17:34Z</time>
      </trkpt>
      <trkpt lat="42.877343" lon="-0.267237">
        <ele>1575.110</ele>
        <time>2020-07-20T09:17:40Z</time>
      </trkpt>
      <trkpt lat="42.877300" lon="-0.267209">
        <ele>1573.858</ele>
        <time>2020-07-20T09:17:43Z</time>
      </trkpt>
      <trkpt lat="42.877259" lon="-0.267177">
        <ele>1574.291</ele>
        <time>2020-07-20T09:17:50Z</time>
      </trkpt>
      <trkpt lat="42.877227" lon="-0.267132">
        <ele>1574.189</ele>
        <time>2020-07-20T09:17:58Z</time>
      </trkpt>
      <trkpt lat="42.877191" lon="-0.267095">
        <ele>1573.752</ele>
        <time>2020-07-20T09:18:03Z</time>
      </trkpt>
      <trkpt lat="42.877165" lon="-0.267035">
        <ele>1573.578</ele>
        <time>2020-07-20T09:18:09Z</time>
      </trkpt>
      <trkpt lat="42.877137" lon="-0.266978">
        <ele>1573.379</ele>
        <time>2020-07-20T09:18:12Z</time>
      </trkpt>
      <trkpt lat="42.877096" lon="-0.266935">
        <ele>1573.379</ele>
        <time>2020-07-20T09:18:21Z</time>
      </trkpt>
      <trkpt lat="42.877051" lon="-0.266887">
        <ele>1572.966</ele>
        <time>2020-07-20T09:18:28Z</time>
      </trkpt>
      <trkpt lat="42.877019" lon="-0.266837">
        <ele>1573.029</ele>
        <time>2020-07-20T09:18:33Z</time>
      </trkpt>
      <trkpt lat="42.876986" lon="-0.266779">
        <ele>1573.421</ele>
        <time>2020-07-20T09:18:39Z</time>
      </trkpt>
      <trkpt lat="42.876958" lon="-0.266722">
        <ele>1572.908</ele>
        <time>2020-07-20T09:18:45Z</time>
      </trkpt>
      <trkpt lat="42.876920" lon="-0.266676">
        <ele>1572.911</ele>
        <time>2020-07-20T09:18:50Z</time>
      </trkpt>
      <trkpt lat="42.876885" lon="-0.266623">
        <ele>1574.049</ele>
        <time>2020-07-20T09:18:57Z</time>
      </trkpt>
      <trkpt lat="42.876835" lon="-0.266575">
        <ele>1572.812</ele>
        <time>2020-07-20T09:19:01Z</time>
      </trkpt>
      <trkpt lat="42.876808" lon="-0.266519">
        <ele>1572.730</ele>
        <time>2020-07-20T09:19:06Z</time>
      </trkpt>
      <trkpt lat="42.876765" lon="-0.266496">
        <ele>1572.773</ele>
        <time>2020-07-20T09:19:14Z</time>
      </trkpt>
      <trkpt lat="42.876720" lon="-0.266487">
        <ele>1573.559</ele>
        <time>2020-07-20T09:19:19Z</time>
      </trkpt>
      <trkpt lat="42.876677" lon="-0.266460">
        <ele>1572.530</ele>
        <time>2020-07-20T09:19:25Z</time>
      </trkpt>
      <trkpt lat="42.876638" lon="-0.266404">
        <ele>1571.740</ele>
        <time>2020-07-20T09:19:28Z</time>
      </trkpt>
      <trkpt lat="42.876603" lon="-0.266355">
        <ele>1572.294</ele>
        <time>2020-07-20T09:19:36Z</time>
      </trkpt>
      <trkpt lat="42.876567" lon="-0.266313">
        <ele>1571.757</ele>
        <time>2020-07-20T09:19:39Z</time>
      </trkpt>
      <trkpt lat="42.876539" lon="-0.266256">
        <ele>1571.822</ele>
        <time>2020-07-20T09:19:45Z</time>
      </trkpt>
      <trkpt lat="42.876504" lon="-0.266199">
        <ele>1571.708</ele>
        <time>2020-07-20T09:19:55Z</time>
      </trkpt>
      <trkpt lat="42.876459" lon="-0.266172">
        <ele>1571.454</ele>
        <time>2020-07-20T09:19:59Z</time>
      </trkpt>
      <trkpt lat="42.876405" lon="-0.266142">
        <ele>1572.062</ele>
        <time>2020-07-20T09:20:02Z</time>
      </trkpt>
      <trkpt lat="42.876353" lon="-0.266129">
        <ele>1570.725</ele>
        <time>2020-07-20T09:20:07Z</time>
      </trkpt>
      <trkpt lat="42.876314" lon="-0.266077">
        <ele>1571.263</ele>
        <time>2020-07-20T09:20:12Z</time>
      </trkpt>
      <trkpt lat="42.876284" lon="-0.266025">
        <ele>1570.676</ele>
        <time>2020-07-20T09:20:17Z</time>
      </trkpt>
      <trkpt lat="42.876258" lon="-0.265972">
        <ele>1571.832</ele>
        <time>2020-07-20T09:20:25Z</time>
      </trkpt>
      <trkpt lat="42.876230" lon="-0.265916">
        <ele>1571.933</ele>
        <time>2020-07-20T09:20:30Z</time>
      </trkpt>
      <trkpt lat="42.876186" lon="-0.265880">
        <ele>1572.883</ele>
        <time>2020-07-20T09:20:34Z</time>
      </trkpt>
      <trkpt lat="42.876144" lon="-0.265856">
        <ele>1573.146</ele>
        <time>2020-07-20T09:20:43Z</time>
      </trkpt>
      <trkpt lat="42.876101" lon="-0.265884">
        <ele>1573.288</ele>
        <time>2020-07-20T09:20:48Z</time>
      </trkpt>
      <trkpt lat="42.876059" lon="-0.265930">
        <ele>1573.116</ele>
        <time>2020-07-20T09:20:53Z</time>
      </trkpt>
      <trkpt lat="42.876028" lon="-0.265988">
        <ele>1573.308</ele>
        <time>2020-07-20T09:20:57Z</time>
      </trkpt>
      <trkpt lat="42.875997" lon="-0.266039">
        <ele>1571.699</ele>
        <time>2020-07-20T09:21:02Z</time>
      </trkpt>
      <trkpt lat="42.875952" lon="-0.266063">
        <ele>1572.497</ele>
        <time>2020-07-20T09:21:07Z</time>
      </trkpt>
      <trkpt lat="42.875907" lon="-0.266090">
        <ele>1572.740</ele>
        <time>2020-07-20T09:21:16Z</time>
      </trkpt>
      <trkpt lat="42.875888" lon="-0.266158">
        <ele>1571.828</ele>
        <time>2020-07-20T09:21:22Z</time>
      </trkpt>
      <trkpt lat="42.875874" lon="-0.266234">
        <ele>1569.481</ele>
        <time>2020-07-20T09:21:27Z</time>
      </trkpt>
      <trkpt lat="42.875823" lon="-0.266260">
        <ele>1572.237</ele>
        <time>2020-07-20T09:21:36Z</time>
      </trkpt>
      <trkpt lat="42.875776" lon="-0.266243">
        <ele>1573.018</ele>
        <time>2020-07-20T09:21:40Z</time>
      </trkpt>
      <trkpt lat="42.875721" lon="-0.266207">
        <ele>1572.538</ele>
        <time>2020-07-20T09:21:45Z</time>
      </trkpt>
      <trkpt lat="42.875667" lon="-0.266191">
        <ele>1572.888</ele>
        <time>2020-07-20T09:21:50Z</time>
      </trkpt>
      <trkpt lat="42.875617" lon="-0.266195">
        <ele>1573.324</ele>
        <time>2020-07-20T09:21:54Z</time>
      </trkpt>
      <trkpt lat="42.875572" lon="-0.266225">
        <ele>1574.426</ele>
        <time>2020-07-20T09:22:00Z</time>
      </trkpt>
      <trkpt lat="42.875521" lon="-0.266204">
        <ele>1574.508</ele>
        <time>2020-07-20T09:22:03Z</time>
      </trkpt>
      <trkpt lat="42.875476" lon="-0.266174">
        <ele>1573.953</ele>
        <time>2020-07-20T09:22:11Z</time>
      </trkpt>
      <trkpt lat="42.875427" lon="-0.266138">
        <ele>1573.011</ele>
        <time>2020-07-20T09:22:13Z</time>
      </trkpt>
      <trkpt lat="42.875384" lon="-0.266114">
        <ele>1574.074</ele>
        <time>2020-07-20T09:22:23Z</time>
      </trkpt>
      <trkpt lat="42.875329" lon="-0.266122">
        <ele>1575.452</ele>
        <time>2020-07-20T09:22:28Z</time>
      </trkpt>
      <trkpt lat="42.875278" lon="-0.266126">
        <ele>1575.295</ele>
        <time>2020-07-20T09:22:33Z</time>
      </trkpt>
      <trkpt lat="42.875228" lon="-0.266119">
        <ele>1574.861</ele>
        <time>2020-07-20T09:22:34Z</time>
      </trkpt>
      <trkpt lat="42.875180" lon="-0.266161">
        <ele>1576.982</ele>
        <time>2020-07-20T09:22:43Z</time>
      </trkpt>
      <trkpt lat="42.875172" lon="-0.266214">
        <ele>1576.542</ele>
        <time>2020-07-20T09:22:50Z</time>
      </trkpt>
      <trkpt lat="42.875133" lon="-0.266238">
        <ele>1576.615</ele>
        <time>2020-07-20T09:23:14Z</time>
      </trkpt>
      <trkpt lat="42.875083" lon="-0.266210">
        <ele>1574.965</ele>
        <time>2020-07-20T09:23:19Z</time>
      </trkpt>
      <trkpt lat="42.875035" lon="-0.266170">
        <ele>1578.711</ele>
        <time>2020-07-20T09:23:25Z</time>
      </trkpt>
      <trkpt lat="42.874987" lon="-0.266161">
        <ele>1578.908</ele>
        <time>2020-07-20T09:23:30Z</time>
      </trkpt>
      <trkpt lat="42.874936" lon="-0.266160">
        <ele>1579.176</ele>
        <time>2020-07-20T09:23:33Z</time>
      </trkpt>
      <trkpt lat="42.874892" lon="-0.266176">
        <ele>1578.764</ele>
        <time>2020-07-20T09:23:40Z</time>
      </trkpt>
      <trkpt lat="42.874847" lon="-0.266196">
        <ele>1579.487</ele>
        <time>2020-07-20T09:23:45Z</time>
      </trkpt>
      <trkpt lat="42.874792" lon="-0.266205">
        <ele>1579.925</ele>
        <time>2020-07-20T09:23:53Z</time>
      </trkpt>
      <trkpt lat="42.874737" lon="-0.266215">
        <ele>1579.588</ele>
        <time>2020-07-20T09:23:58Z</time>
      </trkpt>
      <trkpt lat="42.874688" lon="-0.266214">
        <ele>1578.264</ele>
        <time>2020-07-20T09:24:02Z</time>
      </trkpt>
      <trkpt lat="42.874639" lon="-0.266209">
        <ele>1578.495</ele>
        <time>2020-07-20T09:24:10Z</time>
      </trkpt>
      <trkpt lat="42.874585" lon="-0.266206">
        <ele>1580.875</ele>
        <time>2020-07-20T09:24:14Z</time>
      </trkpt>
      <trkpt lat="42.874530" lon="-0.266200">
        <ele>1580.148</ele>
        <time>2020-07-20T09:24:21Z</time>
      </trkpt>
      <trkpt lat="42.874495" lon="-0.266233">
        <ele>1582.161</ele>
        <time>2020-07-20T09:24:27Z</time>
      </trkpt>
      <trkpt lat="42.874461" lon="-0.266280">
        <ele>1584.117</ele>
        <time>2020-07-20T09:24:34Z</time>
      </trkpt>
      <trkpt lat="42.874419" lon="-0.266310">
        <ele>1583.908</ele>
        <time>2020-07-20T09:24:40Z</time>
      </trkpt>
      <trkpt lat="42.874365" lon="-0.266334">
        <ele>1583.519</ele>
        <time>2020-07-20T09:24:48Z</time>
      </trkpt>
      <trkpt lat="42.874312" lon="-0.266332">
        <ele>1585.937</ele>
        <time>2020-07-20T09:24:53Z</time>
      </trkpt>
      <trkpt lat="42.874273" lon="-0.266300">
        <ele>1585.650</ele>
        <time>2020-07-20T09:24:56Z</time>
      </trkpt>
      <trkpt lat="42.874236" lon="-0.266273">
        <ele>1586.178</ele>
        <time>2020-07-20T09:25:07Z</time>
      </trkpt>
      <trkpt lat="42.874189" lon="-0.266280">
        <ele>1583.461</ele>
        <time>2020-07-20T09:25:56Z</time>
      </trkpt>
      <trkpt lat="42.874142" lon="-0.266305">
        <ele>1585.237</ele>
        <time>2020-07-20T09:26:04Z</time>
      </trkpt>
      <trkpt lat="42.874087" lon="-0.266309">
        <ele>1585.418</ele>
        <time>2020-07-20T09:26:06Z</time>
      </trkpt>
      <trkpt lat="42.874039" lon="-0.266314">
        <ele>1585.688</ele>
        <time>2020-07-20T09:26:10Z</time>
      </trkpt>
      <trkpt lat="42.874003" lon="-0.266352">
        <ele>1584.968</ele>
        <time>2020-07-20T09:26:17Z</time>
      </trkpt>
      <trkpt lat="42.873969" lon="-0.266410">
        <ele>1585.442</ele>
        <time>2020-07-20T09:26:19Z</time>
      </trkpt>
      <trkpt lat="42.873916" lon="-0.266439">
        <ele>1584.926</ele>
        <time>2020-07-20T09:26:24Z</time>
      </trkpt>
      <trkpt lat="42.873859" lon="-0.266420">
        <ele>1583.608</ele>
        <time>2020-07-20T09:26:32Z</time>
      </trkpt>
      <trkpt lat="42.873814" lon="-0.266421">
        <ele>1585.031</ele>
        <time>2020-07-20T09:26:35Z</time>
      </trkpt>
      <trkpt lat="42.873759" lon="-0.266437">
        <ele>1585.069</ele>
        <time>2020-07-20T09:26:41Z</time>
      </trkpt>
      <trkpt lat="42.873714" lon="-0.266479">
        <ele>1584.832</ele>
        <time>2020-07-20T09:26:45Z</time>
      </trkpt>
      <trkpt lat="42.873690" lon="-0.266533">
        <ele>1585.380</ele>
        <time>2020-07-20T09:26:50Z</time>
      </trkpt>
      <trkpt lat="42.873662" lon="-0.266585">
        <ele>1584.063</ele>
        <time>2020-07-20T09:26:54Z</time>
      </trkpt>
      <trkpt lat="42.873610" lon="-0.266606">
        <ele>1584.589</ele>
        <time>2020-07-20T09:27:00Z</time>
      </trkpt>
      <trkpt lat="42.873559" lon="-0.266609">
        <ele>1585.370</ele>
        <time>2020-07-20T09:27:05Z</time>
      </trkpt>
      <trkpt lat="42.873515" lon="-0.266623">
        <ele>1584.730</ele>
        <time>2020-07-20T09:27:08Z</time>
      </trkpt>
      <trkpt lat="42.873464" lon="-0.266644">
        <ele>1584.134</ele>
        <time>2020-07-20T09:27:12Z</time>
      </trkpt>
      <trkpt lat="42.873424" lon="-0.266679">
        <ele>1584.855</ele>
        <time>2020-07-20T09:27:17Z</time>
      </trkpt>
      <trkpt lat="42.873378" lon="-0.266706">
        <ele>1585.210</ele>
        <time>2020-07-20T09:27:24Z</time>
      </trkpt>
      <trkpt lat="42.873323" lon="-0.266684">
        <ele>1585.108</ele>
        <time>2020-07-20T09:27:29Z</time>
      </trkpt>
      <trkpt lat="42.873270" lon="-0.266660">
        <ele>1585.378</ele>
        <time>2020-07-20T09:27:34Z</time>
      </trkpt>
      <trkpt lat="42.873225" lon="-0.266670">
        <ele>1584.146</ele>
        <time>2020-07-20T09:27:39Z</time>
      </trkpt>
      <trkpt lat="42.873171" lon="-0.266681">
        <ele>1584.329</ele>
        <time>2020-07-20T09:27:46Z</time>
      </trkpt>
      <trkpt lat="42.873110" lon="-0.266680">
        <ele>1584.167</ele>
        <time>2020-07-20T09:27:52Z</time>
      </trkpt>
      <trkpt lat="42.873056" lon="-0.266676">
        <ele>1584.580</ele>
        <time>2020-07-20T09:27:58Z</time>
      </trkpt>
      <trkpt lat="42.873002" lon="-0.266680">
        <ele>1584.276</ele>
        <time>2020-07-20T09:28:05Z</time>
      </trkpt>
      <trkpt lat="42.872954" lon="-0.266674">
        <ele>1584.557</ele>
        <time>2020-07-20T09:28:11Z</time>
      </trkpt>
      <trkpt lat="42.872905" lon="-0.266689">
        <ele>1584.357</ele>
        <time>2020-07-20T09:28:14Z</time>
      </trkpt>
      <trkpt lat="42.872857" lon="-0.266712">
        <ele>1584.647</ele>
        <time>2020-07-20T09:28:21Z</time>
      </trkpt>
      <trkpt lat="42.872809" lon="-0.266761">
        <ele>1583.729</ele>
        <time>2020-07-20T09:28:27Z</time>
      </trkpt>
      <trkpt lat="42.872775" lon="-0.266814">
        <ele>1583.121</ele>
        <time>2020-07-20T09:28:32Z</time>
      </trkpt>
      <trkpt lat="42.872730" lon="-0.266871">
        <ele>1583.908</ele>
        <time>2020-07-20T09:28:37Z</time>
      </trkpt>
      <trkpt lat="42.872686" lon="-0.266899">
        <ele>1584.879</ele>
        <time>2020-07-20T09:28:42Z</time>
      </trkpt>
      <trkpt lat="42.872640" lon="-0.266917">
        <ele>1584.677</ele>
        <time>2020-07-20T09:28:45Z</time>
      </trkpt>
      <trkpt lat="42.872588" lon="-0.266908">
        <ele>1584.270</ele>
        <time>2020-07-20T09:28:51Z</time>
      </trkpt>
      <trkpt lat="42.872538" lon="-0.266914">
        <ele>1584.018</ele>
        <time>2020-07-20T09:28:57Z</time>
      </trkpt>
      <trkpt lat="42.872509" lon="-0.266966">
        <ele>1583.261</ele>
        <time>2020-07-20T09:29:04Z</time>
      </trkpt>
      <trkpt lat="42.872464" lon="-0.267006">
        <ele>1583.917</ele>
        <time>2020-07-20T09:29:10Z</time>
      </trkpt>
      <trkpt lat="42.872410" lon="-0.266995">
        <ele>1583.628</ele>
        <time>2020-07-20T09:29:15Z</time>
      </trkpt>
      <trkpt lat="42.872365" lon="-0.266960">
        <ele>1584.158</ele>
        <time>2020-07-20T09:29:21Z</time>
      </trkpt>
      <trkpt lat="42.872317" lon="-0.266952">
        <ele>1583.536</ele>
        <time>2020-07-20T09:29:24Z</time>
      </trkpt>
      <trkpt lat="42.872264" lon="-0.266969">
        <ele>1584.517</ele>
        <time>2020-07-20T09:29:29Z</time>
      </trkpt>
      <trkpt lat="42.872216" lon="-0.266957">
        <ele>1583.218</ele>
        <time>2020-07-20T09:29:35Z</time>
      </trkpt>
      <trkpt lat="42.872182" lon="-0.266910">
        <ele>1583.908</ele>
        <time>2020-07-20T09:29:43Z</time>
      </trkpt>
      <trkpt lat="42.872141" lon="-0.266872">
        <ele>1583.788</ele>
        <time>2020-07-20T09:29:48Z</time>
      </trkpt>
      <trkpt lat="42.872089" lon="-0.266862">
        <ele>1583.116</ele>
        <time>2020-07-20T09:29:54Z</time>
      </trkpt>
      <trkpt lat="42.872042" lon="-0.266859">
        <ele>1583.629</ele>
        <time>2020-07-20T09:29:59Z</time>
      </trkpt>
      <trkpt lat="42.871992" lon="-0.266865">
        <ele>1584.017</ele>
        <time>2020-07-20T09:30:04Z</time>
      </trkpt>
      <trkpt lat="42.871934" lon="-0.266884">
        <ele>1584.450</ele>
        <time>2020-07-20T09:30:09Z</time>
      </trkpt>
      <trkpt lat="42.871881" lon="-0.266897">
        <ele>1583.866</ele>
        <time>2020-07-20T09:30:14Z</time>
      </trkpt>
      <trkpt lat="42.871831" lon="-0.266881">
        <ele>1584.097</ele>
        <time>2020-07-20T09:30:18Z</time>
      </trkpt>
      <trkpt lat="42.871791" lon="-0.266854">
        <ele>1584.117</ele>
        <time>2020-07-20T09:30:23Z</time>
      </trkpt>
      <trkpt lat="42.871738" lon="-0.266833">
        <ele>1584.196</ele>
        <time>2020-07-20T09:30:32Z</time>
      </trkpt>
      <trkpt lat="42.871676" lon="-0.266830">
        <ele>1583.031</ele>
        <time>2020-07-20T09:30:37Z</time>
      </trkpt>
      <trkpt lat="42.871629" lon="-0.266846">
        <ele>1584.324</ele>
        <time>2020-07-20T09:30:45Z</time>
      </trkpt>
      <trkpt lat="42.871581" lon="-0.266869">
        <ele>1584.308</ele>
        <time>2020-07-20T09:30:50Z</time>
      </trkpt>
      <trkpt lat="42.871541" lon="-0.266902">
        <ele>1584.314</ele>
        <time>2020-07-20T09:30:55Z</time>
      </trkpt>
      <trkpt lat="42.871509" lon="-0.266962">
        <ele>1583.832</ele>
        <time>2020-07-20T09:31:01Z</time>
      </trkpt>
      <trkpt lat="42.871471" lon="-0.267016">
        <ele>1583.425</ele>
        <time>2020-07-20T09:31:05Z</time>
      </trkpt>
      <trkpt lat="42.871423" lon="-0.267020">
        <ele>1583.843</ele>
        <time>2020-07-20T09:31:12Z</time>
      </trkpt>
      <trkpt lat="42.871369" lon="-0.266996">
        <ele>1584.816</ele>
        <time>2020-07-20T09:31:17Z</time>
      </trkpt>
      <trkpt lat="42.871319" lon="-0.266950">
        <ele>1583.322</ele>
        <time>2020-07-20T09:31:22Z</time>
      </trkpt>
      <trkpt lat="42.871271" lon="-0.266895">
        <ele>1584.253</ele>
        <time>2020-07-20T09:31:27Z</time>
      </trkpt>
      <trkpt lat="42.871228" lon="-0.266850">
        <ele>1583.993</ele>
        <time>2020-07-20T09:31:32Z</time>
      </trkpt>
      <trkpt lat="42.871210" lon="-0.266782">
        <ele>1583.131</ele>
        <time>2020-07-20T09:32:16Z</time>
      </trkpt>
      <trkpt lat="42.871195" lon="-0.266707">
        <ele>1581.961</ele>
        <time>2020-07-20T09:32:19Z</time>
      </trkpt>
      <trkpt lat="42.871164" lon="-0.266649">
        <ele>1583.507</ele>
        <time>2020-07-20T09:32:23Z</time>
      </trkpt>
      <trkpt lat="42.871133" lon="-0.266597">
        <ele>1583.008</ele>
        <time>2020-07-20T09:32:28Z</time>
      </trkpt>
      <trkpt lat="42.871101" lon="-0.266524">
        <ele>1582.618</ele>
        <time>2020-07-20T09:32:34Z</time>
      </trkpt>
      <trkpt lat="42.871059" lon="-0.266497">
        <ele>1582.746</ele>
        <time>2020-07-20T09:32:36Z</time>
      </trkpt>
      <trkpt lat="42.871005" lon="-0.266474">
        <ele>1583.559</ele>
        <time>2020-07-20T09:32:43Z</time>
      </trkpt>
      <trkpt lat="42.870961" lon="-0.266442">
        <ele>1583.327</ele>
        <time>2020-07-20T09:32:48Z</time>
      </trkpt>
      <trkpt lat="42.870930" lon="-0.266389">
        <ele>1582.750</ele>
        <time>2020-07-20T09:32:54Z</time>
      </trkpt>
      <trkpt lat="42.870893" lon="-0.266331">
        <ele>1583.326</ele>
        <time>2020-07-20T09:32:59Z</time>
      </trkpt>
      <trkpt lat="42.870838" lon="-0.266316">
        <ele>1582.877</ele>
        <time>2020-07-20T09:33:07Z</time>
      </trkpt>
      <trkpt lat="42.870783" lon="-0.266345">
        <ele>1583.057</ele>
        <time>2020-07-20T09:33:13Z</time>
      </trkpt>
      <trkpt lat="42.870733" lon="-0.266352">
        <ele>1582.824</ele>
        <time>2020-07-20T09:33:17Z</time>
      </trkpt>
      <trkpt lat="42.870681" lon="-0.266319">
        <ele>1582.104</ele>
        <time>2020-07-20T09:33:23Z</time>
      </trkpt>
      <trkpt lat="42.870640" lon="-0.266262">
        <ele>1582.314</ele>
        <time>2020-07-20T09:33:30Z</time>
      </trkpt>
      <trkpt lat="42.870606" lon="-0.266206">
        <ele>1583.608</ele>
        <time>2020-07-20T09:33:33Z</time>
      </trkpt>
      <trkpt lat="42.870608" lon="-0.266138">
        <ele>1582.777</ele>
        <time>2020-07-20T09:33:40Z</time>
      </trkpt>
      <trkpt lat="42.870616" lon="-0.266074">
        <ele>1582.565</ele>
        <time>2020-07-20T09:33:44Z</time>
      </trkpt>
      <trkpt lat="42.870601" lon="-0.266014">
        <ele>1582.878</ele>
        <time>2020-07-20T09:33:50Z</time>
      </trkpt>
      <trkpt lat="42.870565" lon="-0.265965">
        <ele>1583.056</ele>
        <time>2020-07-20T09:33:54Z</time>
      </trkpt>
      <trkpt lat="42.870531" lon="-0.265922">
        <ele>1583.629</ele>
        <time>2020-07-20T09:33:59Z</time>
      </trkpt>
      <trkpt lat="42.870484" lon="-0.265884">
        <ele>1583.265</ele>
        <time>2020-07-20T09:34:04Z</time>
      </trkpt>
      <trkpt lat="42.870441" lon="-0.265843">
        <ele>1582.796</ele>
        <time>2020-07-20T09:34:09Z</time>
      </trkpt>
      <trkpt lat="42.870399" lon="-0.265804">
        <ele>1582.676</ele>
        <time>2020-07-20T09:34:15Z</time>
      </trkpt>
      <trkpt lat="42.870358" lon="-0.265777">
        <ele>1583.257</ele>
        <time>2020-07-20T09:34:21Z</time>
      </trkpt>
      <trkpt lat="42.870309" lon="-0.265786">
        <ele>1583.500</ele>
        <time>2020-07-20T09:34:26Z</time>
      </trkpt>
      <trkpt lat="42.870258" lon="-0.265822">
        <ele>1582.320</ele>
        <time>2020-07-20T09:34:29Z</time>
      </trkpt>
      <trkpt lat="42.870235" lon="-0.265876">
        <ele>1583.608</ele>
        <time>2020-07-20T09:34:34Z</time>
      </trkpt>
      <trkpt lat="42.870229" lon="-0.265947">
        <ele>1583.760</ele>
        <time>2020-07-20T09:34:39Z</time>
      </trkpt>
      <trkpt lat="42.870214" lon="-0.266024">
        <ele>1583.768</ele>
        <time>2020-07-20T09:34:43Z</time>
      </trkpt>
      <trkpt lat="42.870193" lon="-0.266078">
        <ele>1582.911</ele>
        <time>2020-07-20T09:34:47Z</time>
      </trkpt>
      <trkpt lat="42.870156" lon="-0.266120">
        <ele>1584.029</ele>
        <time>2020-07-20T09:34:52Z</time>
      </trkpt>
      <trkpt lat="42.870098" lon="-0.266111">
        <ele>1584.112</ele>
        <time>2020-07-20T09:34:55Z</time>
      </trkpt>
      <trkpt lat="42.870051" lon="-0.266082">
        <ele>1584.048</ele>
        <time>2020-07-20T09:35:01Z</time>
      </trkpt>
      <trkpt lat="42.869997" lon="-0.266073">
        <ele>1582.839</ele>
        <time>2020-07-20T09:35:06Z</time>
      </trkpt>
      <trkpt lat="42.869959" lon="-0.266103">
        <ele>1583.249</ele>
        <time>2020-07-20T09:35:25Z</time>
      </trkpt>
      <trkpt lat="42.869903" lon="-0.266098">
        <ele>1581.595</ele>
        <time>2020-07-20T09:35:32Z</time>
      </trkpt>
      <trkpt lat="42.869862" lon="-0.266071">
        <ele>1583.349</ele>
        <time>2020-07-20T09:35:36Z</time>
      </trkpt>
      <trkpt lat="42.869812" lon="-0.266042">
        <ele>1583.423</ele>
        <time>2020-07-20T09:35:40Z</time>
      </trkpt>
      <trkpt lat="42.869763" lon="-0.266028">
        <ele>1584.008</ele>
        <time>2020-07-20T09:35:45Z</time>
      </trkpt>
      <trkpt lat="42.869706" lon="-0.266028">
        <ele>1583.194</ele>
        <time>2020-07-20T09:35:49Z</time>
      </trkpt>
      <trkpt lat="42.869655" lon="-0.266045">
        <ele>1583.472</ele>
        <time>2020-07-20T09:35:52Z</time>
      </trkpt>
      <trkpt lat="42.869599" lon="-0.266036">
        <ele>1583.155</ele>
        <time>2020-07-20T09:35:58Z</time>
      </trkpt>
      <trkpt lat="42.869545" lon="-0.266012">
        <ele>1584.413</ele>
        <time>2020-07-20T09:36:04Z</time>
      </trkpt>
      <trkpt lat="42.869491" lon="-0.265970">
        <ele>1583.866</ele>
        <time>2020-07-20T09:36:09Z</time>
      </trkpt>
      <trkpt lat="42.869443" lon="-0.265948">
        <ele>1584.432</ele>
        <time>2020-07-20T09:36:13Z</time>
      </trkpt>
      <trkpt lat="42.869399" lon="-0.265971">
        <ele>1583.633</ele>
        <time>2020-07-20T09:36:17Z</time>
      </trkpt>
      <trkpt lat="42.869356" lon="-0.266023">
        <ele>1584.493</ele>
        <time>2020-07-20T09:36:25Z</time>
      </trkpt>
      <trkpt lat="42.869309" lon="-0.266039">
        <ele>1583.678</ele>
        <time>2020-07-20T09:36:28Z</time>
      </trkpt>
      <trkpt lat="42.869261" lon="-0.266049">
        <ele>1583.833</ele>
        <time>2020-07-20T09:36:33Z</time>
      </trkpt>
      <trkpt lat="42.869210" lon="-0.266037">
        <ele>1582.926</ele>
        <time>2020-07-20T09:36:39Z</time>
      </trkpt>
      <trkpt lat="42.869162" lon="-0.266037">
        <ele>1583.108</ele>
        <time>2020-07-20T09:36:44Z</time>
      </trkpt>
      <trkpt lat="42.869117" lon="-0.266041">
        <ele>1583.312</ele>
        <time>2020-07-20T09:36:47Z</time>
      </trkpt>
      <trkpt lat="42.869070" lon="-0.266066">
        <ele>1583.320</ele>
        <time>2020-07-20T09:36:59Z</time>
      </trkpt>
      <trkpt lat="42.869025" lon="-0.266077">
        <ele>1584.843</ele>
        <time>2020-07-20T09:37:34Z</time>
      </trkpt>
      <trkpt lat="42.869009" lon="-0.266122">
        <ele>1583.441</ele>
        <time>2020-07-20T09:38:33Z</time>
      </trkpt>
      <trkpt lat="42.868968" lon="-0.266147">
        <ele>1583.644</ele>
        <time>2020-07-20T09:38:38Z</time>
      </trkpt>
      <trkpt lat="42.868925" lon="-0.266177">
        <ele>1583.470</ele>
        <time>2020-07-20T09:39:00Z</time>
      </trkpt>
      <trkpt lat="42.868891" lon="-0.266151">
        <ele>1583.251</ele>
        <time>2020-07-20T09:39:16Z</time>
      </trkpt>
      <trkpt lat="42.868850" lon="-0.266103">
        <ele>1583.261</ele>
        <time>2020-07-20T09:39:23Z</time>
      </trkpt>
      <trkpt lat="42.868801" lon="-0.266063">
        <ele>1583.913</ele>
        <time>2020-07-20T09:39:29Z</time>
      </trkpt>
      <trkpt lat="42.868747" lon="-0.266026">
        <ele>1583.543</ele>
        <time>2020-07-20T09:39:34Z</time>
      </trkpt>
      <trkpt lat="42.868691" lon="-0.265999">
        <ele>1583.607</ele>
        <time>2020-07-20T09:39:39Z</time>
      </trkpt>
      <trkpt lat="42.868644" lon="-0.265993">
        <ele>1585.608</ele>
        <time>2020-07-20T09:39:45Z</time>
      </trkpt>
      <trkpt lat="42.868583" lon="-0.266032">
        <ele>1589.986</ele>
        <time>2020-07-20T10:27:09Z</time>
      </trkpt>
      <trkpt lat="42.868547" lon="-0.266079">
        <ele>1592.334</ele>
        <time>2020-07-20T10:27:26Z</time>
      </trkpt>
      <trkpt lat="42.868545" lon="-0.266141">
        <ele>1592.227</ele>
        <time>2020-07-20T10:27:33Z</time>
      </trkpt>
      <trkpt lat="42.868537" lon="-0.266209">
        <ele>1591.335</ele>
        <time>2020-07-20T10:27:38Z</time>
      </trkpt>
      <trkpt lat="42.868494" lon="-0.266241">
        <ele>1595.878</ele>
        <time>2020-07-20T10:27:47Z</time>
      </trkpt>
      <trkpt lat="42.868448" lon="-0.266224">
        <ele>1592.574</ele>
        <time>2020-07-20T10:27:58Z</time>
      </trkpt>
      <trkpt lat="42.868398" lon="-0.266239">
        <ele>1598.525</ele>
        <time>2020-07-20T10:28:12Z</time>
      </trkpt>
      <trkpt lat="42.868359" lon="-0.266282">
        <ele>1601.015</ele>
        <time>2020-07-20T10:28:23Z</time>
      </trkpt>
      <trkpt lat="42.868345" lon="-0.266324">
        <ele>1602.325</ele>
        <time>2020-07-20T10:28:32Z</time>
      </trkpt>
      <trkpt lat="42.868378" lon="-0.266349">
        <ele>1599.626</ele>
        <time>2020-07-20T10:28:40Z</time>
      </trkpt>
      <trkpt lat="42.868397" lon="-0.266416">
        <ele>1602.808</ele>
        <time>2020-07-20T10:28:47Z</time>
      </trkpt>
      <trkpt lat="42.868402" lon="-0.266485">
        <ele>1602.808</ele>
        <time>2020-07-20T10:28:53Z</time>
      </trkpt>
      <trkpt lat="42.868380" lon="-0.266533">
        <ele>1604.327</ele>
        <time>2020-07-20T10:29:14Z</time>
      </trkpt>
      <trkpt lat="42.868372" lon="-0.266596">
        <ele>1602.775</ele>
        <time>2020-07-20T10:29:21Z</time>
      </trkpt>
      <trkpt lat="42.868376" lon="-0.266676">
        <ele>1605.148</ele>
        <time>2020-07-20T10:29:28Z</time>
      </trkpt>
      <trkpt lat="42.868386" lon="-0.266760">
        <ele>1608.386</ele>
        <time>2020-07-20T10:29:35Z</time>
      </trkpt>
      <trkpt lat="42.868388" lon="-0.266828">
        <ele>1608.639</ele>
        <time>2020-07-20T10:29:44Z</time>
      </trkpt>
      <trkpt lat="42.868386" lon="-0.266901">
        <ele>1609.415</ele>
        <time>2020-07-20T10:29:50Z</time>
      </trkpt>
      <trkpt lat="42.868405" lon="-0.266960">
        <ele>1607.816</ele>
        <time>2020-07-20T10:29:55Z</time>
      </trkpt>
      <trkpt lat="42.868433" lon="-0.267020">
        <ele>1608.236</ele>
        <time>2020-07-20T10:30:01Z</time>
      </trkpt>
      <trkpt lat="42.868447" lon="-0.267092">
        <ele>1610.452</ele>
        <time>2020-07-20T10:30:08Z</time>
      </trkpt>
      <trkpt lat="42.868483" lon="-0.267142">
        <ele>1611.853</ele>
        <time>2020-07-20T10:30:21Z</time>
      </trkpt>
      <trkpt lat="42.868518" lon="-0.267195">
        <ele>1609.008</ele>
        <time>2020-07-20T10:30:27Z</time>
      </trkpt>
      <trkpt lat="42.868547" lon="-0.267249">
        <ele>1614.108</ele>
        <time>2020-07-20T10:30:39Z</time>
      </trkpt>
      <trkpt lat="42.868573" lon="-0.267304">
        <ele>1611.250</ele>
        <time>2020-07-20T10:30:46Z</time>
      </trkpt>
      <trkpt lat="42.868612" lon="-0.267347">
        <ele>1613.058</ele>
        <time>2020-07-20T10:30:50Z</time>
      </trkpt>
      <trkpt lat="42.868628" lon="-0.267407">
        <ele>1615.821</ele>
        <time>2020-07-20T10:30:57Z</time>
      </trkpt>
      <trkpt lat="42.868643" lon="-0.267477">
        <ele>1611.789</ele>
        <time>2020-07-20T10:31:05Z</time>
      </trkpt>
      <trkpt lat="42.868679" lon="-0.267516">
        <ele>1613.352</ele>
        <time>2020-07-20T10:31:16Z</time>
      </trkpt>
      <trkpt lat="42.868703" lon="-0.267571">
        <ele>1615.928</ele>
        <time>2020-07-20T10:31:26Z</time>
      </trkpt>
      <trkpt lat="42.868757" lon="-0.267584">
        <ele>1617.519</ele>
        <time>2020-07-20T10:31:35Z</time>
      </trkpt>
      <trkpt lat="42.868795" lon="-0.267584">
        <ele>1619.159</ele>
        <time>2020-07-20T10:32:02Z</time>
      </trkpt>
      <trkpt lat="42.868828" lon="-0.267619">
        <ele>1620.556</ele>
        <time>2020-07-20T10:32:09Z</time>
      </trkpt>
      <trkpt lat="42.868851" lon="-0.267672">
        <ele>1621.859</ele>
        <time>2020-07-20T10:32:17Z</time>
      </trkpt>
      <trkpt lat="42.868861" lon="-0.267742">
        <ele>1620.814</ele>
        <time>2020-07-20T10:32:24Z</time>
      </trkpt>
      <trkpt lat="42.868913" lon="-0.267771">
        <ele>1623.508</ele>
        <time>2020-07-20T10:32:27Z</time>
      </trkpt>
      <trkpt lat="42.868945" lon="-0.267820">
        <ele>1623.250</ele>
        <time>2020-07-20T10:32:35Z</time>
      </trkpt>
      <trkpt lat="42.868997" lon="-0.267835">
        <ele>1625.818</ele>
        <time>2020-07-20T10:32:49Z</time>
      </trkpt>
      <trkpt lat="42.869035" lon="-0.267883">
        <ele>1627.041</ele>
        <time>2020-07-20T10:32:54Z</time>
      </trkpt>
      <trkpt lat="42.869056" lon="-0.267945">
        <ele>1627.629</ele>
        <time>2020-07-20T10:33:05Z</time>
      </trkpt>
      <trkpt lat="42.869087" lon="-0.267999">
        <ele>1628.372</ele>
        <time>2020-07-20T10:33:11Z</time>
      </trkpt>
      <trkpt lat="42.869120" lon="-0.268055">
        <ele>1630.168</ele>
        <time>2020-07-20T10:33:20Z</time>
      </trkpt>
      <trkpt lat="42.869177" lon="-0.268054">
        <ele>1632.569</ele>
        <time>2020-07-20T10:33:26Z</time>
      </trkpt>
      <trkpt lat="42.869224" lon="-0.268008">
        <ele>1632.479</ele>
        <time>2020-07-20T10:33:35Z</time>
      </trkpt>
      <trkpt lat="42.869261" lon="-0.267970">
        <ele>1631.159</ele>
        <time>2020-07-20T10:33:37Z</time>
      </trkpt>
      <trkpt lat="42.869307" lon="-0.267994">
        <ele>1633.603</ele>
        <time>2020-07-20T10:33:46Z</time>
      </trkpt>
      <trkpt lat="42.869289" lon="-0.268047">
        <ele>1634.323</ele>
        <time>2020-07-20T10:34:55Z</time>
      </trkpt>
      <trkpt lat="42.869292" lon="-0.268108">
        <ele>1635.008</ele>
        <time>2020-07-20T10:36:21Z</time>
      </trkpt>
      <trkpt lat="42.869288" lon="-0.268183">
        <ele>1635.750</ele>
        <time>2020-07-20T10:36:26Z</time>
      </trkpt>
      <trkpt lat="42.869272" lon="-0.268243">
        <ele>1636.538</ele>
        <time>2020-07-20T10:36:30Z</time>
      </trkpt>
      <trkpt lat="42.869264" lon="-0.268313">
        <ele>1639.081</ele>
        <time>2020-07-20T10:36:38Z</time>
      </trkpt>
      <trkpt lat="42.869253" lon="-0.268377">
        <ele>1639.769</ele>
        <time>2020-07-20T10:36:43Z</time>
      </trkpt>
      <trkpt lat="42.869253" lon="-0.268441">
        <ele>1639.942</ele>
        <time>2020-07-20T10:36:51Z</time>
      </trkpt>
      <trkpt lat="42.869230" lon="-0.268490">
        <ele>1642.638</ele>
        <time>2020-07-20T10:36:59Z</time>
      </trkpt>
      <trkpt lat="42.869203" lon="-0.268546">
        <ele>1640.429</ele>
        <time>2020-07-20T10:37:10Z</time>
      </trkpt>
      <trkpt lat="42.869212" lon="-0.268608">
        <ele>1643.079</ele>
        <time>2020-07-20T10:37:18Z</time>
      </trkpt>
      <trkpt lat="42.869247" lon="-0.268650">
        <ele>1645.438</ele>
        <time>2020-07-20T10:37:23Z</time>
      </trkpt>
      <trkpt lat="42.869285" lon="-0.268686">
        <ele>1647.070</ele>
        <time>2020-07-20T10:37:30Z</time>
      </trkpt>
      <trkpt lat="42.869330" lon="-0.268714">
        <ele>1648.317</ele>
        <time>2020-07-20T10:37:37Z</time>
      </trkpt>
      <trkpt lat="42.869380" lon="-0.268698">
        <ele>1648.508</ele>
        <time>2020-07-20T10:37:43Z</time>
      </trkpt>
      <trkpt lat="42.869430" lon="-0.268725">
        <ele>1645.968</ele>
        <time>2020-07-20T10:37:50Z</time>
      </trkpt>
      <trkpt lat="42.869445" lon="-0.268796">
        <ele>1646.716</ele>
        <time>2020-07-20T10:37:54Z</time>
      </trkpt>
      <trkpt lat="42.869462" lon="-0.268858">
        <ele>1650.979</ele>
        <time>2020-07-20T10:38:02Z</time>
      </trkpt>
      <trkpt lat="42.869502" lon="-0.268898">
        <ele>1650.317</ele>
        <time>2020-07-20T10:38:05Z</time>
      </trkpt>
      <trkpt lat="42.869546" lon="-0.268920">
        <ele>1646.970</ele>
        <time>2020-07-20T10:38:13Z</time>
      </trkpt>
      <trkpt lat="42.869579" lon="-0.268977">
        <ele>1647.166</ele>
        <time>2020-07-20T10:38:19Z</time>
      </trkpt>
      <trkpt lat="42.869577" lon="-0.269045">
        <ele>1650.847</ele>
        <time>2020-07-20T10:38:24Z</time>
      </trkpt>
      <trkpt lat="42.869574" lon="-0.269101">
        <ele>1653.497</ele>
        <time>2020-07-20T10:38:30Z</time>
      </trkpt>
      <trkpt lat="42.869592" lon="-0.269155">
        <ele>1649.215</ele>
        <time>2020-07-20T10:38:40Z</time>
      </trkpt>
      <trkpt lat="42.869605" lon="-0.269199">
        <ele>1650.365</ele>
        <time>2020-07-20T10:38:50Z</time>
      </trkpt>
      <trkpt lat="42.869595" lon="-0.269245">
        <ele>1653.511</ele>
        <time>2020-07-20T10:38:58Z</time>
      </trkpt>
      <trkpt lat="42.869572" lon="-0.269290">
        <ele>1655.808</ele>
        <time>2020-07-20T10:39:09Z</time>
      </trkpt>
      <trkpt lat="42.869539" lon="-0.269323">
        <ele>1665.176</ele>
        <time>2020-07-20T10:40:48Z</time>
      </trkpt>
      <trkpt lat="42.869509" lon="-0.269372">
        <ele>1664.854</ele>
        <time>2020-07-20T10:40:56Z</time>
      </trkpt>
      <trkpt lat="42.869484" lon="-0.269432">
        <ele>1661.497</ele>
        <time>2020-07-20T10:41:03Z</time>
      </trkpt>
      <trkpt lat="42.869454" lon="-0.269480">
        <ele>1666.155</ele>
        <time>2020-07-20T10:41:09Z</time>
      </trkpt>
      <trkpt lat="42.869416" lon="-0.269504">
        <ele>1667.278</ele>
        <time>2020-07-20T10:41:22Z</time>
      </trkpt>
      <trkpt lat="42.869403" lon="-0.269563">
        <ele>1669.314</ele>
        <time>2020-07-20T10:41:32Z</time>
      </trkpt>
      <trkpt lat="42.869420" lon="-0.269622">
        <ele>1673.555</ele>
        <time>2020-07-20T10:41:39Z</time>
      </trkpt>
      <trkpt lat="42.869447" lon="-0.269680">
        <ele>1669.345</ele>
        <time>2020-07-20T10:41:47Z</time>
      </trkpt>
      <trkpt lat="42.869486" lon="-0.269711">
        <ele>1671.226</ele>
        <time>2020-07-20T10:41:51Z</time>
      </trkpt>
      <trkpt lat="42.869500" lon="-0.269769">
        <ele>1672.747</ele>
        <time>2020-07-20T10:42:06Z</time>
      </trkpt>
      <trkpt lat="42.869501" lon="-0.269836">
        <ele>1674.011</ele>
        <time>2020-07-20T10:42:12Z</time>
      </trkpt>
      <trkpt lat="42.869504" lon="-0.269900">
        <ele>1675.008</ele>
        <time>2020-07-20T10:42:15Z</time>
      </trkpt>
      <trkpt lat="42.869502" lon="-0.269966">
        <ele>1675.577</ele>
        <time>2020-07-20T10:42:26Z</time>
      </trkpt>
      <trkpt lat="42.869475" lon="-0.270014">
        <ele>1673.595</ele>
        <time>2020-07-20T10:42:35Z</time>
      </trkpt>
      <trkpt lat="42.869432" lon="-0.270035">
        <ele>1677.128</ele>
        <time>2020-07-20T10:42:46Z</time>
      </trkpt>
      <trkpt lat="42.869395" lon="-0.270070">
        <ele>1680.956</ele>
        <time>2020-07-20T10:42:59Z</time>
      </trkpt>
      <trkpt lat="42.869350" lon="-0.270106">
        <ele>1683.739</ele>
        <time>2020-07-20T10:43:11Z</time>
      </trkpt>
      <trkpt lat="42.869318" lon="-0.270172">
        <ele>1684.415</ele>
        <time>2020-07-20T10:43:22Z</time>
      </trkpt>
      <trkpt lat="42.869317" lon="-0.270222">
        <ele>1686.116</ele>
        <time>2020-07-20T10:45:47Z</time>
      </trkpt>
      <trkpt lat="42.869322" lon="-0.270296">
        <ele>1693.116</ele>
        <time>2020-07-20T10:45:53Z</time>
      </trkpt>
      <trkpt lat="42.869308" lon="-0.270356">
        <ele>1692.246</ele>
        <time>2020-07-20T10:45:59Z</time>
      </trkpt>
      <trkpt lat="42.869300" lon="-0.270439">
        <ele>1694.988</ele>
        <time>2020-07-20T10:46:10Z</time>
      </trkpt>
      <trkpt lat="42.869318" lon="-0.270503">
        <ele>1695.416</ele>
        <time>2020-07-20T10:46:15Z</time>
      </trkpt>
      <trkpt lat="42.869316" lon="-0.270568">
        <ele>1698.408</ele>
        <time>2020-07-20T10:46:30Z</time>
      </trkpt>
      <trkpt lat="42.869292" lon="-0.270632">
        <ele>1696.499</ele>
        <time>2020-07-20T10:46:35Z</time>
      </trkpt>
      <trkpt lat="42.869284" lon="-0.270705">
        <ele>1699.447</ele>
        <time>2020-07-20T10:46:43Z</time>
      </trkpt>
      <trkpt lat="42.869289" lon="-0.270770">
        <ele>1701.610</ele>
        <time>2020-07-20T10:46:52Z</time>
      </trkpt>
      <trkpt lat="42.869310" lon="-0.270826">
        <ele>1701.338</ele>
        <time>2020-07-20T10:47:00Z</time>
      </trkpt>
      <trkpt lat="42.869307" lon="-0.270892">
        <ele>1700.661</ele>
        <time>2020-07-20T10:47:13Z</time>
      </trkpt>
      <trkpt lat="42.869313" lon="-0.270962">
        <ele>1699.937</ele>
        <time>2020-07-20T10:47:25Z</time>
      </trkpt>
      <trkpt lat="42.869318" lon="-0.271029">
        <ele>1701.498</ele>
        <time>2020-07-20T10:47:34Z</time>
      </trkpt>
      <trkpt lat="42.869333" lon="-0.271093">
        <ele>1706.068</ele>
        <time>2020-07-20T10:47:41Z</time>
      </trkpt>
      <trkpt lat="42.869344" lon="-0.271148">
        <ele>1707.724</ele>
        <time>2020-07-20T10:48:46Z</time>
      </trkpt>
      <trkpt lat="42.869349" lon="-0.271209">
        <ele>1708.704</ele>
        <time>2020-07-20T10:49:50Z</time>
      </trkpt>
      <trkpt lat="42.869332" lon="-0.271259">
        <ele>1708.814</ele>
        <time>2020-07-20T10:50:10Z</time>
      </trkpt>
      <trkpt lat="42.869333" lon="-0.271328">
        <ele>1710.908</ele>
        <time>2020-07-20T10:50:36Z</time>
      </trkpt>
      <trkpt lat="42.869328" lon="-0.271395">
        <ele>1713.677</ele>
        <time>2020-07-20T10:50:40Z</time>
      </trkpt>
      <trkpt lat="42.869328" lon="-0.271467">
        <ele>1710.835</ele>
        <time>2020-07-20T10:50:48Z</time>
      </trkpt>
      <trkpt lat="42.869342" lon="-0.271535">
        <ele>1715.828</ele>
        <time>2020-07-20T10:50:56Z</time>
      </trkpt>
      <trkpt lat="42.869351" lon="-0.271601">
        <ele>1718.966</ele>
        <time>2020-07-20T10:51:07Z</time>
      </trkpt>
      <trkpt lat="42.869388" lon="-0.271640">
        <ele>1721.479</ele>
        <time>2020-07-20T10:51:37Z</time>
      </trkpt>
      <trkpt lat="42.869401" lon="-0.271685">
        <ele>1722.365</ele>
        <time>2020-07-20T10:51:54Z</time>
      </trkpt>
      <trkpt lat="42.869356" lon="-0.271718">
        <ele>1727.146</ele>
        <time>2020-07-20T10:52:31Z</time>
      </trkpt>
      <trkpt lat="42.869326" lon="-0.271749">
        <ele>1731.096</ele>
        <time>2020-07-20T10:52:48Z</time>
      </trkpt>
      <trkpt lat="42.869331" lon="-0.271817">
        <ele>1730.886</ele>
        <time>2020-07-20T10:52:55Z</time>
      </trkpt>
      <trkpt lat="42.869298" lon="-0.271861">
        <ele>1732.560</ele>
        <time>2020-07-20T10:53:04Z</time>
      </trkpt>
      <trkpt lat="42.869269" lon="-0.271919">
        <ele>1731.826</ele>
        <time>2020-07-20T10:53:09Z</time>
      </trkpt>
      <trkpt lat="42.869268" lon="-0.271983">
        <ele>1731.808</ele>
        <time>2020-07-20T10:53:15Z</time>
      </trkpt>
      <trkpt lat="42.869317" lon="-0.271990">
        <ele>1731.933</ele>
        <time>2020-07-20T10:53:27Z</time>
      </trkpt>
      <trkpt lat="42.869345" lon="-0.271951">
        <ele>1732.481</ele>
        <time>2020-07-20T10:54:11Z</time>
      </trkpt>
      <trkpt lat="42.869365" lon="-0.272006">
        <ele>1735.754</ele>
        <time>2020-07-20T10:54:46Z</time>
      </trkpt>
      <trkpt lat="42.869370" lon="-0.272080">
        <ele>1735.722</ele>
        <time>2020-07-20T10:54:52Z</time>
      </trkpt>
      <trkpt lat="42.869383" lon="-0.272149">
        <ele>1736.025</ele>
        <time>2020-07-20T10:54:55Z</time>
      </trkpt>
      <trkpt lat="42.869387" lon="-0.272218">
        <ele>1735.391</ele>
        <time>2020-07-20T10:55:01Z</time>
      </trkpt>
      <trkpt lat="42.869386" lon="-0.272280">
        <ele>1737.282</ele>
        <time>2020-07-20T10:55:12Z</time>
      </trkpt>
      <trkpt lat="42.869381" lon="-0.272359">
        <ele>1739.092</ele>
        <time>2020-07-20T10:55:19Z</time>
      </trkpt>
      <trkpt lat="42.869379" lon="-0.272428">
        <ele>1739.972</ele>
        <time>2020-07-20T10:55:29Z</time>
      </trkpt>
      <trkpt lat="42.869344" lon="-0.272480">
        <ele>1739.313</ele>
        <time>2020-07-20T10:55:40Z</time>
      </trkpt>
      <trkpt lat="42.869326" lon="-0.272543">
        <ele>1740.314</ele>
        <time>2020-07-20T10:55:50Z</time>
      </trkpt>
      <trkpt lat="42.869284" lon="-0.272578">
        <ele>1741.208</ele>
        <time>2020-07-20T10:55:59Z</time>
      </trkpt>
      <trkpt lat="42.869244" lon="-0.272617">
        <ele>1741.792</ele>
        <time>2020-07-20T10:56:05Z</time>
      </trkpt>
      <trkpt lat="42.869209" lon="-0.272663">
        <ele>1743.270</ele>
        <time>2020-07-20T10:56:18Z</time>
      </trkpt>
      <trkpt lat="42.869189" lon="-0.272719">
        <ele>1743.053</ele>
        <time>2020-07-20T10:56:27Z</time>
      </trkpt>
      <trkpt lat="42.869197" lon="-0.272781">
        <ele>1746.891</ele>
        <time>2020-07-20T10:56:36Z</time>
      </trkpt>
      <trkpt lat="42.869178" lon="-0.272821">
        <ele>1749.524</ele>
        <time>2020-07-20T10:57:03Z</time>
      </trkpt>
      <trkpt lat="42.869151" lon="-0.272857">
        <ele>1750.730</ele>
        <time>2020-07-20T10:57:19Z</time>
      </trkpt>
      <trkpt lat="42.869144" lon="-0.272924">
        <ele>1754.591</ele>
        <time>2020-07-20T10:59:43Z</time>
      </trkpt>
      <trkpt lat="42.869126" lon="-0.273003">
        <ele>1754.551</ele>
        <time>2020-07-20T10:59:48Z</time>
      </trkpt>
      <trkpt lat="42.869100" lon="-0.273058">
        <ele>1756.279</ele>
        <time>2020-07-20T10:59:51Z</time>
      </trkpt>
      <trkpt lat="42.869074" lon="-0.273116">
        <ele>1756.405</ele>
        <time>2020-07-20T10:59:57Z</time>
      </trkpt>
      <trkpt lat="42.869059" lon="-0.273176">
        <ele>1756.625</ele>
        <time>2020-07-20T11:00:01Z</time>
      </trkpt>
      <trkpt lat="42.869067" lon="-0.273249">
        <ele>1754.408</ele>
        <time>2020-07-20T11:00:06Z</time>
      </trkpt>
      <trkpt lat="42.869072" lon="-0.273322">
        <ele>1753.552</ele>
        <time>2020-07-20T11:00:12Z</time>
      </trkpt>
      <trkpt lat="42.869070" lon="-0.273390">
        <ele>1756.510</ele>
        <time>2020-07-20T11:00:18Z</time>
      </trkpt>
      <trkpt lat="42.869061" lon="-0.273465">
        <ele>1760.183</ele>
        <time>2020-07-20T11:00:25Z</time>
      </trkpt>
      <trkpt lat="42.869038" lon="-0.273519">
        <ele>1759.311</ele>
        <time>2020-07-20T11:00:34Z</time>
      </trkpt>
      <trkpt lat="42.869024" lon="-0.273581">
        <ele>1761.054</ele>
        <time>2020-07-20T11:00:44Z</time>
      </trkpt>
      <trkpt lat="42.869036" lon="-0.273647">
        <ele>1760.110</ele>
        <time>2020-07-20T11:00:52Z</time>
      </trkpt>
      <trkpt lat="42.869047" lon="-0.273717">
        <ele>1760.851</ele>
        <time>2020-07-20T11:01:02Z</time>
      </trkpt>
      <trkpt lat="42.869068" lon="-0.273769">
        <ele>1757.481</ele>
        <time>2020-07-20T11:01:08Z</time>
      </trkpt>
      <trkpt lat="42.869064" lon="-0.273832">
        <ele>1760.727</ele>
        <time>2020-07-20T11:01:14Z</time>
      </trkpt>
      <trkpt lat="42.869038" lon="-0.273883">
        <ele>1760.068</ele>
        <time>2020-07-20T11:01:20Z</time>
      </trkpt>
      <trkpt lat="42.869037" lon="-0.273953">
        <ele>1763.514</ele>
        <time>2020-07-20T11:01:28Z</time>
      </trkpt>
      <trkpt lat="42.869062" lon="-0.274003">
        <ele>1763.208</ele>
        <time>2020-07-20T11:01:37Z</time>
      </trkpt>
      <trkpt lat="42.869058" lon="-0.274060">
        <ele>1764.547</ele>
        <time>2020-07-20T11:01:52Z</time>
      </trkpt>
      <trkpt lat="42.869043" lon="-0.274117">
        <ele>1762.795</ele>
        <time>2020-07-20T11:01:57Z</time>
      </trkpt>
      <trkpt lat="42.869053" lon="-0.274182">
        <ele>1763.378</ele>
        <time>2020-07-20T11:02:03Z</time>
      </trkpt>
      <trkpt lat="42.869070" lon="-0.274252">
        <ele>1762.096</ele>
        <time>2020-07-20T11:02:10Z</time>
      </trkpt>
      <trkpt lat="42.869058" lon="-0.274318">
        <ele>1763.579</ele>
        <time>2020-07-20T11:02:17Z</time>
      </trkpt>
      <trkpt lat="42.869039" lon="-0.274386">
        <ele>1764.525</ele>
        <time>2020-07-20T11:02:24Z</time>
      </trkpt>
      <trkpt lat="42.869021" lon="-0.274443">
        <ele>1764.186</ele>
        <time>2020-07-20T11:02:29Z</time>
      </trkpt>
      <trkpt lat="42.869037" lon="-0.274513">
        <ele>1763.676</ele>
        <time>2020-07-20T11:02:37Z</time>
      </trkpt>
      <trkpt lat="42.869082" lon="-0.274545">
        <ele>1764.183</ele>
        <time>2020-07-20T11:02:43Z</time>
      </trkpt>
      <trkpt lat="42.869124" lon="-0.274579">
        <ele>1761.825</ele>
        <time>2020-07-20T11:02:47Z</time>
      </trkpt>
      <trkpt lat="42.869155" lon="-0.274632">
        <ele>1762.517</ele>
        <time>2020-07-20T11:02:52Z</time>
      </trkpt>
      <trkpt lat="42.869195" lon="-0.274680">
        <ele>1765.808</ele>
        <time>2020-07-20T11:02:59Z</time>
      </trkpt>
      <trkpt lat="42.869229" lon="-0.274715">
        <ele>1767.183</ele>
        <time>2020-07-20T11:03:04Z</time>
      </trkpt>
      <trkpt lat="42.869245" lon="-0.274779">
        <ele>1765.871</ele>
        <time>2020-07-20T11:03:15Z</time>
      </trkpt>
      <trkpt lat="42.869264" lon="-0.274831">
        <ele>1770.424</ele>
        <time>2020-07-20T11:03:21Z</time>
      </trkpt>
      <trkpt lat="42.869296" lon="-0.274836">
        <ele>1771.882</ele>
        <time>2020-07-20T11:03:30Z</time>
      </trkpt>
      <trkpt lat="42.869343" lon="-0.274855">
        <ele>1773.795</ele>
        <time>2020-07-20T11:03:39Z</time>
      </trkpt>
      <trkpt lat="42.869381" lon="-0.274848">
        <ele>1774.221</ele>
        <time>2020-07-20T11:03:48Z</time>
      </trkpt>
      <trkpt lat="42.869383" lon="-0.274908">
        <ele>1770.272</ele>
        <time>2020-07-20T11:04:44Z</time>
      </trkpt>
      <trkpt lat="42.869413" lon="-0.274955">
        <ele>1770.452</ele>
        <time>2020-07-20T11:04:53Z</time>
      </trkpt>
      <trkpt lat="42.869440" lon="-0.274928">
        <ele>1769.841</ele>
        <time>2020-07-20T11:05:08Z</time>
      </trkpt>
      <trkpt lat="42.869472" lon="-0.274899">
        <ele>1769.381</ele>
        <time>2020-07-20T11:05:25Z</time>
      </trkpt>
      <trkpt lat="42.869473" lon="-0.274949">
        <ele>1769.509</ele>
        <time>2020-07-20T11:06:50Z</time>
      </trkpt>
      <trkpt lat="42.869476" lon="-0.275000">
        <ele>1769.008</ele>
        <time>2020-07-20T11:06:54Z</time>
      </trkpt>
      <trkpt lat="42.869495" lon="-0.275067">
        <ele>1768.249</ele>
        <time>2020-07-20T11:06:58Z</time>
      </trkpt>
      <trkpt lat="42.869521" lon="-0.275135">
        <ele>1767.157</ele>
        <time>2020-07-20T11:07:04Z</time>
      </trkpt>
      <trkpt lat="42.869548" lon="-0.275189">
        <ele>1770.760</ele>
        <time>2020-07-20T11:07:13Z</time>
      </trkpt>
      <trkpt lat="42.869529" lon="-0.275262">
        <ele>1770.548</ele>
        <time>2020-07-20T11:07:19Z</time>
      </trkpt>
      <trkpt lat="42.869495" lon="-0.275312">
        <ele>1772.211</ele>
        <time>2020-07-20T11:07:25Z</time>
      </trkpt>
      <trkpt lat="42.869470" lon="-0.275358">
        <ele>1774.017</ele>
        <time>2020-07-20T11:07:31Z</time>
      </trkpt>
      <trkpt lat="42.869490" lon="-0.275411">
        <ele>1775.728</ele>
        <time>2020-07-20T11:07:41Z</time>
      </trkpt>
      <trkpt lat="42.869477" lon="-0.275477">
        <ele>1777.638</ele>
        <time>2020-07-20T11:07:51Z</time>
      </trkpt>
      <trkpt lat="42.869435" lon="-0.275517">
        <ele>1778.759</ele>
        <time>2020-07-20T11:07:57Z</time>
      </trkpt>
      <trkpt lat="42.869416" lon="-0.275575">
        <ele>1777.203</ele>
        <time>2020-07-20T11:08:04Z</time>
      </trkpt>
      <trkpt lat="42.869402" lon="-0.275634">
        <ele>1776.923</ele>
        <time>2020-07-20T11:08:12Z</time>
      </trkpt>
      <trkpt lat="42.869394" lon="-0.275703">
        <ele>1781.808</ele>
        <time>2020-07-20T11:08:24Z</time>
      </trkpt>
      <trkpt lat="42.869362" lon="-0.275756">
        <ele>1780.890</ele>
        <time>2020-07-20T11:08:50Z</time>
      </trkpt>
      <trkpt lat="42.869344" lon="-0.275825">
        <ele>1782.068</ele>
        <time>2020-07-20T11:08:59Z</time>
      </trkpt>
      <trkpt lat="42.869315" lon="-0.275879">
        <ele>1780.351</ele>
        <time>2020-07-20T11:09:02Z</time>
      </trkpt>
      <trkpt lat="42.869311" lon="-0.275964">
        <ele>1782.289</ele>
        <time>2020-07-20T11:09:09Z</time>
      </trkpt>
      <trkpt lat="42.869313" lon="-0.276032">
        <ele>1781.252</ele>
        <time>2020-07-20T11:09:16Z</time>
      </trkpt>
      <trkpt lat="42.869336" lon="-0.276096">
        <ele>1783.428</ele>
        <time>2020-07-20T11:09:23Z</time>
      </trkpt>
      <trkpt lat="42.869349" lon="-0.276162">
        <ele>1782.339</ele>
        <time>2020-07-20T11:09:29Z</time>
      </trkpt>
      <trkpt lat="42.869346" lon="-0.276225">
        <ele>1783.929</ele>
        <time>2020-07-20T11:09:35Z</time>
      </trkpt>
      <trkpt lat="42.869321" lon="-0.276279">
        <ele>1782.535</ele>
        <time>2020-07-20T11:09:39Z</time>
      </trkpt>
      <trkpt lat="42.869274" lon="-0.276295">
        <ele>1782.086</ele>
        <time>2020-07-20T11:09:46Z</time>
      </trkpt>
      <trkpt lat="42.869233" lon="-0.276338">
        <ele>1782.614</ele>
        <time>2020-07-20T11:09:56Z</time>
      </trkpt>
      <trkpt lat="42.869186" lon="-0.276353">
        <ele>1783.808</ele>
        <time>2020-07-20T11:10:03Z</time>
      </trkpt>
      <trkpt lat="42.869145" lon="-0.276382">
        <ele>1783.358</ele>
        <time>2020-07-20T11:10:11Z</time>
      </trkpt>
      <trkpt lat="42.869131" lon="-0.276449">
        <ele>1781.586</ele>
        <time>2020-07-20T11:10:51Z</time>
      </trkpt>
      <trkpt lat="42.869124" lon="-0.276530">
        <ele>1782.919</ele>
        <time>2020-07-20T11:10:55Z</time>
      </trkpt>
      <trkpt lat="42.869119" lon="-0.276594">
        <ele>1779.897</ele>
        <time>2020-07-20T11:11:00Z</time>
      </trkpt>
      <trkpt lat="42.869103" lon="-0.276666">
        <ele>1780.960</ele>
        <time>2020-07-20T11:11:04Z</time>
      </trkpt>
      <trkpt lat="42.869085" lon="-0.276727">
        <ele>1782.746</ele>
        <time>2020-07-20T11:11:08Z</time>
      </trkpt>
      <trkpt lat="42.869058" lon="-0.276793">
        <ele>1784.847</ele>
        <time>2020-07-20T11:11:14Z</time>
      </trkpt>
      <trkpt lat="42.869036" lon="-0.276849">
        <ele>1784.487</ele>
        <time>2020-07-20T11:11:20Z</time>
      </trkpt>
      <trkpt lat="42.869002" lon="-0.276906">
        <ele>1784.434</ele>
        <time>2020-07-20T11:11:25Z</time>
      </trkpt>
      <trkpt lat="42.868973" lon="-0.276963">
        <ele>1784.555</ele>
        <time>2020-07-20T11:11:27Z</time>
      </trkpt>
      <trkpt lat="42.868935" lon="-0.276991">
        <ele>1782.910</ele>
        <time>2020-07-20T11:11:37Z</time>
      </trkpt>
      <trkpt lat="42.868916" lon="-0.277052">
        <ele>1783.308</ele>
        <time>2020-07-20T11:11:42Z</time>
      </trkpt>
      <trkpt lat="42.868920" lon="-0.277116">
        <ele>1784.558</ele>
        <time>2020-07-20T11:11:45Z</time>
      </trkpt>
      <trkpt lat="42.868925" lon="-0.277181">
        <ele>1781.516</ele>
        <time>2020-07-20T11:11:53Z</time>
      </trkpt>
      <trkpt lat="42.868946" lon="-0.277239">
        <ele>1787.269</ele>
        <time>2020-07-20T11:11:56Z</time>
      </trkpt>
      <trkpt lat="42.868936" lon="-0.277299">
        <ele>1786.687</ele>
        <time>2020-07-20T11:12:04Z</time>
      </trkpt>
      <trkpt lat="42.868904" lon="-0.277343">
        <ele>1785.720</ele>
        <time>2020-07-20T11:12:07Z</time>
      </trkpt>
      <trkpt lat="42.868873" lon="-0.277386">
        <ele>1785.476</ele>
        <time>2020-07-20T11:12:58Z</time>
      </trkpt>
      <trkpt lat="42.868881" lon="-0.277457">
        <ele>1784.257</ele>
        <time>2020-07-20T11:14:14Z</time>
      </trkpt>
      <trkpt lat="42.868881" lon="-0.277523">
        <ele>1787.457</ele>
        <time>2020-07-20T11:14:19Z</time>
      </trkpt>
      <trkpt lat="42.868874" lon="-0.277584">
        <ele>1786.466</ele>
        <time>2020-07-20T11:14:25Z</time>
      </trkpt>
      <trkpt lat="42.868883" lon="-0.277649">
        <ele>1786.229</ele>
        <time>2020-07-20T11:14:42Z</time>
      </trkpt>
      <trkpt lat="42.868919" lon="-0.277678">
        <ele>1786.721</ele>
        <time>2020-07-20T11:14:59Z</time>
      </trkpt>
      <trkpt lat="42.868932" lon="-0.277742">
        <ele>1785.708</ele>
        <time>2020-07-20T11:15:08Z</time>
      </trkpt>
      <trkpt lat="42.868932" lon="-0.277818">
        <ele>1786.421</ele>
        <time>2020-07-20T11:15:14Z</time>
      </trkpt>
      <trkpt lat="42.868943" lon="-0.277889">
        <ele>1784.769</ele>
        <time>2020-07-20T11:15:27Z</time>
      </trkpt>
      <trkpt lat="42.868959" lon="-0.277956">
        <ele>1785.422</ele>
        <time>2020-07-20T11:15:33Z</time>
      </trkpt>
      <trkpt lat="42.868978" lon="-0.278031">
        <ele>1785.560</ele>
        <time>2020-07-20T11:15:37Z</time>
      </trkpt>
      <trkpt lat="42.868985" lon="-0.278091">
        <ele>1785.923</ele>
        <time>2020-07-20T11:15:45Z</time>
      </trkpt>
      <trkpt lat="42.868982" lon="-0.278154">
        <ele>1785.799</ele>
        <time>2020-07-20T11:15:52Z</time>
      </trkpt>
      <trkpt lat="42.868993" lon="-0.278228">
        <ele>1787.040</ele>
        <time>2020-07-20T11:15:58Z</time>
      </trkpt>
      <trkpt lat="42.868996" lon="-0.278296">
        <ele>1786.340</ele>
        <time>2020-07-20T11:16:05Z</time>
      </trkpt>
      <trkpt lat="42.868997" lon="-0.278362">
        <ele>1786.464</ele>
        <time>2020-07-20T11:16:11Z</time>
      </trkpt>
      <trkpt lat="42.868983" lon="-0.278438">
        <ele>1786.706</ele>
        <time>2020-07-20T11:16:21Z</time>
      </trkpt>
      <trkpt lat="42.868951" lon="-0.278492">
        <ele>1785.916</ele>
        <time>2020-07-20T11:16:29Z</time>
      </trkpt>
      <trkpt lat="42.868924" lon="-0.278555">
        <ele>1788.108</ele>
        <time>2020-07-20T11:16:36Z</time>
      </trkpt>
      <trkpt lat="42.868897" lon="-0.278618">
        <ele>1787.441</ele>
        <time>2020-07-20T11:16:43Z</time>
      </trkpt>
      <trkpt lat="42.868859" lon="-0.278658">
        <ele>1789.089</ele>
        <time>2020-07-20T11:16:53Z</time>
      </trkpt>
      <trkpt lat="42.868822" lon="-0.278708">
        <ele>1787.842</ele>
        <time>2020-07-20T11:16:56Z</time>
      </trkpt>
      <trkpt lat="42.868785" lon="-0.278747">
        <ele>1789.460</ele>
        <time>2020-07-20T11:17:03Z</time>
      </trkpt>
      <trkpt lat="42.868736" lon="-0.278772">
        <ele>1785.623</ele>
        <time>2020-07-20T11:17:14Z</time>
      </trkpt>
      <trkpt lat="42.868690" lon="-0.278795">
        <ele>1784.229</ele>
        <time>2020-07-20T11:17:20Z</time>
      </trkpt>
      <trkpt lat="42.868643" lon="-0.278812">
        <ele>1787.450</ele>
        <time>2020-07-20T11:17:25Z</time>
      </trkpt>
      <trkpt lat="42.868592" lon="-0.278822">
        <ele>1784.450</ele>
        <time>2020-07-20T11:17:31Z</time>
      </trkpt>
      <trkpt lat="42.868545" lon="-0.278841">
        <ele>1786.466</ele>
        <time>2020-07-20T11:17:37Z</time>
      </trkpt>
      <trkpt lat="42.868510" lon="-0.278881">
        <ele>1786.429</ele>
        <time>2020-07-20T11:17:41Z</time>
      </trkpt>
      <trkpt lat="42.868461" lon="-0.278902">
        <ele>1784.521</ele>
        <time>2020-07-20T11:17:49Z</time>
      </trkpt>
      <trkpt lat="42.868415" lon="-0.278894">
        <ele>1785.408</ele>
        <time>2020-07-20T11:17:59Z</time>
      </trkpt>
      <trkpt lat="42.868372" lon="-0.278874">
        <ele>1785.111</ele>
        <time>2020-07-20T11:18:05Z</time>
      </trkpt>
      <trkpt lat="42.868333" lon="-0.278900">
        <ele>1785.519</ele>
        <time>2020-07-20T11:18:12Z</time>
      </trkpt>
      <trkpt lat="42.868291" lon="-0.278946">
        <ele>1786.022</ele>
        <time>2020-07-20T11:18:17Z</time>
      </trkpt>
      <trkpt lat="42.868254" lon="-0.278984">
        <ele>1786.380</ele>
        <time>2020-07-20T11:18:23Z</time>
      </trkpt>
      <trkpt lat="42.868227" lon="-0.279033">
        <ele>1786.863</ele>
        <time>2020-07-20T11:18:26Z</time>
      </trkpt>
      <trkpt lat="42.868186" lon="-0.279056">
        <ele>1785.789</ele>
        <time>2020-07-20T11:18:36Z</time>
      </trkpt>
      <trkpt lat="42.868158" lon="-0.279111">
        <ele>1787.890</ele>
        <time>2020-07-20T11:18:40Z</time>
      </trkpt>
      <trkpt lat="42.868121" lon="-0.279163">
        <ele>1786.650</ele>
        <time>2020-07-20T11:18:46Z</time>
      </trkpt>
      <trkpt lat="42.868121" lon="-0.279235">
        <ele>1786.245</ele>
        <time>2020-07-20T11:18:51Z</time>
      </trkpt>
      <trkpt lat="42.868101" lon="-0.279289">
        <ele>1785.747</ele>
        <time>2020-07-20T11:20:40Z</time>
      </trkpt>
      <trkpt lat="42.868057" lon="-0.279306">
        <ele>1786.211</ele>
        <time>2020-07-20T11:21:02Z</time>
      </trkpt>
      <trkpt lat="42.868012" lon="-0.279329">
        <ele>1785.608</ele>
        <time>2020-07-20T11:21:06Z</time>
      </trkpt>
      <trkpt lat="42.867961" lon="-0.279357">
        <ele>1782.439</ele>
        <time>2020-07-20T11:21:13Z</time>
      </trkpt>
      <trkpt lat="42.867913" lon="-0.279373">
        <ele>1786.967</ele>
        <time>2020-07-20T11:21:18Z</time>
      </trkpt>
      <trkpt lat="42.867867" lon="-0.279405">
        <ele>1784.480</ele>
        <time>2020-07-20T11:21:23Z</time>
      </trkpt>
      <trkpt lat="42.867814" lon="-0.279418">
        <ele>1785.298</ele>
        <time>2020-07-20T11:21:32Z</time>
      </trkpt>
      <trkpt lat="42.867757" lon="-0.279413">
        <ele>1785.061</ele>
        <time>2020-07-20T11:21:38Z</time>
      </trkpt>
      <trkpt lat="42.867712" lon="-0.279424">
        <ele>1785.867</ele>
        <time>2020-07-20T11:21:43Z</time>
      </trkpt>
      <trkpt lat="42.867666" lon="-0.279437">
        <ele>1787.278</ele>
        <time>2020-07-20T11:21:48Z</time>
      </trkpt>
      <trkpt lat="42.867639" lon="-0.279488">
        <ele>1785.858</ele>
        <time>2020-07-20T11:21:53Z</time>
      </trkpt>
      <trkpt lat="42.867613" lon="-0.279545">
        <ele>1785.714</ele>
        <time>2020-07-20T11:21:57Z</time>
      </trkpt>
      <trkpt lat="42.867575" lon="-0.279597">
        <ele>1788.254</ele>
        <time>2020-07-20T11:22:05Z</time>
      </trkpt>
      <trkpt lat="42.867574" lon="-0.279680">
        <ele>1785.809</ele>
        <time>2020-07-20T11:22:10Z</time>
      </trkpt>
      <trkpt lat="42.867585" lon="-0.279746">
        <ele>1787.208</ele>
        <time>2020-07-20T11:22:14Z</time>
      </trkpt>
      <trkpt lat="42.867546" lon="-0.279799">
        <ele>1787.476</ele>
        <time>2020-07-20T11:22:24Z</time>
      </trkpt>
      <trkpt lat="42.867494" lon="-0.279807">
        <ele>1787.764</ele>
        <time>2020-07-20T11:22:32Z</time>
      </trkpt>
      <trkpt lat="42.867461" lon="-0.279860">
        <ele>1787.867</ele>
        <time>2020-07-20T11:22:40Z</time>
      </trkpt>
      <trkpt lat="42.867426" lon="-0.279916">
        <ele>1788.195</ele>
        <time>2020-07-20T11:22:47Z</time>
      </trkpt>
      <trkpt lat="42.867402" lon="-0.279980">
        <ele>1787.248</ele>
        <time>2020-07-20T11:22:54Z</time>
      </trkpt>
      <trkpt lat="42.867400" lon="-0.280057">
        <ele>1789.014</ele>
        <time>2020-07-20T11:23:00Z</time>
      </trkpt>
      <trkpt lat="42.867390" lon="-0.280124">
        <ele>1788.415</ele>
        <time>2020-07-20T11:23:05Z</time>
      </trkpt>
      <trkpt lat="42.867378" lon="-0.280192">
        <ele>1790.225</ele>
        <time>2020-07-20T11:23:11Z</time>
      </trkpt>
      <trkpt lat="42.867381" lon="-0.280260">
        <ele>1790.688</ele>
        <time>2020-07-20T11:23:22Z</time>
      </trkpt>
      <trkpt lat="42.867361" lon="-0.280315">
        <ele>1788.924</ele>
        <time>2020-07-20T11:23:28Z</time>
      </trkpt>
      <trkpt lat="42.867331" lon="-0.280374">
        <ele>1787.926</ele>
        <time>2020-07-20T11:23:35Z</time>
      </trkpt>
      <trkpt lat="42.867298" lon="-0.280428">
        <ele>1790.308</ele>
        <time>2020-07-20T11:23:37Z</time>
      </trkpt>
      <trkpt lat="42.867268" lon="-0.280474">
        <ele>1791.123</ele>
        <time>2020-07-20T11:23:42Z</time>
      </trkpt>
      <trkpt lat="42.867246" lon="-0.280540">
        <ele>1789.461</ele>
        <time>2020-07-20T11:23:52Z</time>
      </trkpt>
      <trkpt lat="42.867209" lon="-0.280594">
        <ele>1790.064</ele>
        <time>2020-07-20T11:24:02Z</time>
      </trkpt>
      <trkpt lat="42.867161" lon="-0.280621">
        <ele>1790.322</ele>
        <time>2020-07-20T11:24:07Z</time>
      </trkpt>
      <trkpt lat="42.867100" lon="-0.280642">
        <ele>1791.145</ele>
        <time>2020-07-20T11:24:13Z</time>
      </trkpt>
      <trkpt lat="42.867058" lon="-0.280682">
        <ele>1792.051</ele>
        <time>2020-07-20T11:24:16Z</time>
      </trkpt>
      <trkpt lat="42.867042" lon="-0.280746">
        <ele>1791.882</ele>
        <time>2020-07-20T11:24:24Z</time>
      </trkpt>
      <trkpt lat="42.867041" lon="-0.280811">
        <ele>1791.182</ele>
        <time>2020-07-20T11:24:34Z</time>
      </trkpt>
      <trkpt lat="42.867024" lon="-0.280872">
        <ele>1791.891</ele>
        <time>2020-07-20T11:25:14Z</time>
      </trkpt>
      <trkpt lat="42.867007" lon="-0.280940">
        <ele>1791.381</ele>
        <time>2020-07-20T11:25:18Z</time>
      </trkpt>
      <trkpt lat="42.866988" lon="-0.281017">
        <ele>1791.619</ele>
        <time>2020-07-20T11:25:22Z</time>
      </trkpt>
      <trkpt lat="42.866974" lon="-0.281079">
        <ele>1790.808</ele>
        <time>2020-07-20T11:25:25Z</time>
      </trkpt>
      <trkpt lat="42.866960" lon="-0.281149">
        <ele>1791.594</ele>
        <time>2020-07-20T11:25:29Z</time>
      </trkpt>
      <trkpt lat="42.866946" lon="-0.281219">
        <ele>1791.262</ele>
        <time>2020-07-20T11:25:33Z</time>
      </trkpt>
      <trkpt lat="42.866937" lon="-0.281279">
        <ele>1792.045</ele>
        <time>2020-07-20T11:25:36Z</time>
      </trkpt>
      <trkpt lat="42.866954" lon="-0.281355">
        <ele>1793.163</ele>
        <time>2020-07-20T11:25:46Z</time>
      </trkpt>
      <trkpt lat="42.866978" lon="-0.281409">
        <ele>1791.766</ele>
        <time>2020-07-20T11:25:50Z</time>
      </trkpt>
      <trkpt lat="42.867009" lon="-0.281462">
        <ele>1791.632</ele>
        <time>2020-07-20T11:25:52Z</time>
      </trkpt>
      <trkpt lat="42.867001" lon="-0.281531">
        <ele>1792.253</ele>
        <time>2020-07-20T11:26:00Z</time>
      </trkpt>
      <trkpt lat="42.866968" lon="-0.281569">
        <ele>1791.013</ele>
        <time>2020-07-20T11:26:02Z</time>
      </trkpt>
      <trkpt lat="42.866931" lon="-0.281617">
        <ele>1791.951</ele>
        <time>2020-07-20T11:26:12Z</time>
      </trkpt>
      <trkpt lat="42.866883" lon="-0.281626">
        <ele>1791.801</ele>
        <time>2020-07-20T11:26:17Z</time>
      </trkpt>
      <trkpt lat="42.866838" lon="-0.281613">
        <ele>1791.911</ele>
        <time>2020-07-20T11:26:25Z</time>
      </trkpt>
      <trkpt lat="42.866793" lon="-0.281645">
        <ele>1791.208</ele>
        <time>2020-07-20T11:26:34Z</time>
      </trkpt>
      <trkpt lat="42.866754" lon="-0.281693">
        <ele>1791.320</ele>
        <time>2020-07-20T11:26:36Z</time>
      </trkpt>
      <trkpt lat="42.866731" lon="-0.281757">
        <ele>1789.158</ele>
        <time>2020-07-20T11:26:44Z</time>
      </trkpt>
      <trkpt lat="42.866697" lon="-0.281818">
        <ele>1787.151</ele>
        <time>2020-07-20T11:26:50Z</time>
      </trkpt>
      <trkpt lat="42.866657" lon="-0.281873">
        <ele>1793.279</ele>
        <time>2020-07-20T11:26:57Z</time>
      </trkpt>
      <trkpt lat="42.866612" lon="-0.281911">
        <ele>1795.322</ele>
        <time>2020-07-20T11:27:04Z</time>
      </trkpt>
      <trkpt lat="42.866582" lon="-0.281963">
        <ele>1792.828</ele>
        <time>2020-07-20T11:27:11Z</time>
      </trkpt>
      <trkpt lat="42.866543" lon="-0.281995">
        <ele>1793.359</ele>
        <time>2020-07-20T11:27:17Z</time>
      </trkpt>
      <trkpt lat="42.866495" lon="-0.282000">
        <ele>1793.429</ele>
        <time>2020-07-20T11:27:21Z</time>
      </trkpt>
      <trkpt lat="42.866465" lon="-0.281986">
        <ele>1793.129</ele>
        <time>2020-07-20T11:27:33Z</time>
      </trkpt>
      <trkpt lat="42.866440" lon="-0.281984">
        <ele>1791.100</ele>
        <time>2020-07-20T11:29:38Z</time>
      </trkpt>
      <trkpt lat="42.866414" lon="-0.282006">
        <ele>1793.120</ele>
        <time>2020-07-20T11:39:15Z</time>
      </trkpt>
      <trkpt lat="42.866383" lon="-0.282008">
        <ele>1793.008</ele>
        <time>2020-07-20T11:39:17Z</time>
      </trkpt>
      <trkpt lat="42.866337" lon="-0.282018">
        <ele>1792.667</ele>
        <time>2020-07-20T11:39:21Z</time>
      </trkpt>
      <trkpt lat="42.866288" lon="-0.282040">
        <ele>1792.555</ele>
        <time>2020-07-20T11:39:24Z</time>
      </trkpt>
      <trkpt lat="42.866236" lon="-0.282070">
        <ele>1793.958</ele>
        <time>2020-07-20T11:39:28Z</time>
      </trkpt>
      <trkpt lat="42.866200" lon="-0.282123">
        <ele>1792.626</ele>
        <time>2020-07-20T11:39:32Z</time>
      </trkpt>
      <trkpt lat="42.866166" lon="-0.282168">
        <ele>1793.369</ele>
        <time>2020-07-20T11:39:34Z</time>
      </trkpt>
      <trkpt lat="42.866117" lon="-0.282217">
        <ele>1792.985</ele>
        <time>2020-07-20T11:39:38Z</time>
      </trkpt>
      <trkpt lat="42.866071" lon="-0.282268">
        <ele>1792.736</ele>
        <time>2020-07-20T11:39:42Z</time>
      </trkpt>
      <trkpt lat="42.866038" lon="-0.282311">
        <ele>1793.176</ele>
        <time>2020-07-20T11:39:45Z</time>
      </trkpt>
      <trkpt lat="42.866011" lon="-0.282380">
        <ele>1793.163</ele>
        <time>2020-07-20T11:39:50Z</time>
      </trkpt>
      <trkpt lat="42.865986" lon="-0.282441">
        <ele>1793.544</ele>
        <time>2020-07-20T11:39:53Z</time>
      </trkpt>
      <trkpt lat="42.865947" lon="-0.282495">
        <ele>1793.918</ele>
        <time>2020-07-20T11:40:00Z</time>
      </trkpt>
      <trkpt lat="42.865904" lon="-0.282546">
        <ele>1793.408</ele>
        <time>2020-07-20T11:40:06Z</time>
      </trkpt>
      <trkpt lat="42.865872" lon="-0.282608">
        <ele>1795.111</ele>
        <time>2020-07-20T11:40:13Z</time>
      </trkpt>
      <trkpt lat="42.865825" lon="-0.282628">
        <ele>1793.159</ele>
        <time>2020-07-20T11:40:19Z</time>
      </trkpt>
      <trkpt lat="42.865778" lon="-0.282608">
        <ele>1793.692</ele>
        <time>2020-07-20T11:40:24Z</time>
      </trkpt>
      <trkpt lat="42.865736" lon="-0.282641">
        <ele>1795.350</ele>
        <time>2020-07-20T11:40:31Z</time>
      </trkpt>
      <trkpt lat="42.865692" lon="-0.282674">
        <ele>1795.963</ele>
        <time>2020-07-20T11:40:38Z</time>
      </trkpt>
      <trkpt lat="42.865646" lon="-0.282727">
        <ele>1796.279</ele>
        <time>2020-07-20T11:40:41Z</time>
      </trkpt>
      <trkpt lat="42.865597" lon="-0.282764">
        <ele>1796.410</ele>
        <time>2020-07-20T11:40:48Z</time>
      </trkpt>
      <trkpt lat="42.865551" lon="-0.282784">
        <ele>1796.150</ele>
        <time>2020-07-20T11:40:53Z</time>
      </trkpt>
      <trkpt lat="42.865504" lon="-0.282796">
        <ele>1796.698</ele>
        <time>2020-07-20T11:40:59Z</time>
      </trkpt>
      <trkpt lat="42.865455" lon="-0.282801">
        <ele>1798.015</ele>
        <time>2020-07-20T11:41:05Z</time>
      </trkpt>
      <trkpt lat="42.865409" lon="-0.282800">
        <ele>1797.926</ele>
        <time>2020-07-20T11:41:09Z</time>
      </trkpt>
      <trkpt lat="42.865361" lon="-0.282757">
        <ele>1796.808</ele>
        <time>2020-07-20T11:41:14Z</time>
      </trkpt>
      <trkpt lat="42.865317" lon="-0.282718">
        <ele>1797.094</ele>
        <time>2020-07-20T11:41:21Z</time>
      </trkpt>
      <trkpt lat="42.865270" lon="-0.282731">
        <ele>1796.292</ele>
        <time>2020-07-20T11:41:27Z</time>
      </trkpt>
      <trkpt lat="42.865226" lon="-0.282736">
        <ele>1796.385</ele>
        <time>2020-07-20T11:41:31Z</time>
      </trkpt>
      <trkpt lat="42.865189" lon="-0.282703">
        <ele>1796.873</ele>
        <time>2020-07-20T11:41:37Z</time>
      </trkpt>
      <trkpt lat="42.865145" lon="-0.282722">
        <ele>1796.976</ele>
        <time>2020-07-20T11:41:45Z</time>
      </trkpt>
      <trkpt lat="42.865126" lon="-0.282793">
        <ele>1796.752</ele>
        <time>2020-07-20T11:41:51Z</time>
      </trkpt>
      <trkpt lat="42.865122" lon="-0.282871">
        <ele>1797.283</ele>
        <time>2020-07-20T11:41:55Z</time>
      </trkpt>
      <trkpt lat="42.865108" lon="-0.282944">
        <ele>1797.133</ele>
        <time>2020-07-20T11:42:00Z</time>
      </trkpt>
      <trkpt lat="42.865082" lon="-0.283009">
        <ele>1798.767</ele>
        <time>2020-07-20T11:42:06Z</time>
      </trkpt>
      <trkpt lat="42.865060" lon="-0.283066">
        <ele>1798.181</ele>
        <time>2020-07-20T11:42:11Z</time>
      </trkpt>
      <trkpt lat="42.865045" lon="-0.283133">
        <ele>1797.419</ele>
        <time>2020-07-20T11:42:17Z</time>
      </trkpt>
      <trkpt lat="42.865008" lon="-0.283194">
        <ele>1798.908</ele>
        <time>2020-07-20T11:42:26Z</time>
      </trkpt>
      <trkpt lat="42.864971" lon="-0.283232">
        <ele>1797.961</ele>
        <time>2020-07-20T11:42:30Z</time>
      </trkpt>
      <trkpt lat="42.864936" lon="-0.283288">
        <ele>1798.979</ele>
        <time>2020-07-20T11:42:33Z</time>
      </trkpt>
      <trkpt lat="42.864895" lon="-0.283350">
        <ele>1800.012</ele>
        <time>2020-07-20T11:42:40Z</time>
      </trkpt>
      <trkpt lat="42.864854" lon="-0.283401">
        <ele>1798.350</ele>
        <time>2020-07-20T11:42:46Z</time>
      </trkpt>
      <trkpt lat="42.864826" lon="-0.283451">
        <ele>1799.083</ele>
        <time>2020-07-20T11:42:49Z</time>
      </trkpt>
      <trkpt lat="42.864814" lon="-0.283523">
        <ele>1798.559</ele>
        <time>2020-07-20T11:42:54Z</time>
      </trkpt>
      <trkpt lat="42.864805" lon="-0.283594">
        <ele>1799.940</ele>
        <time>2020-07-20T11:43:00Z</time>
      </trkpt>
      <trkpt lat="42.864791" lon="-0.283659">
        <ele>1801.410</ele>
        <time>2020-07-20T11:43:07Z</time>
      </trkpt>
      <trkpt lat="42.864758" lon="-0.283726">
        <ele>1800.687</ele>
        <time>2020-07-20T11:43:13Z</time>
      </trkpt>
      <trkpt lat="42.864737" lon="-0.283785">
        <ele>1798.142</ele>
        <time>2020-07-20T11:43:17Z</time>
      </trkpt>
      <trkpt lat="42.864715" lon="-0.283841">
        <ele>1800.726</ele>
        <time>2020-07-20T11:43:24Z</time>
      </trkpt>
      <trkpt lat="42.864671" lon="-0.283885">
        <ele>1799.808</ele>
        <time>2020-07-20T11:43:30Z</time>
      </trkpt>
      <trkpt lat="42.864659" lon="-0.283947">
        <ele>1801.773</ele>
        <time>2020-07-20T11:43:36Z</time>
      </trkpt>
      <trkpt lat="42.864615" lon="-0.283968">
        <ele>1803.881</ele>
        <time>2020-07-20T11:43:41Z</time>
      </trkpt>
      <trkpt lat="42.864574" lon="-0.283941">
        <ele>1801.914</ele>
        <time>2020-07-20T11:43:46Z</time>
      </trkpt>
      <trkpt lat="42.864550" lon="-0.284002">
        <ele>1806.642</ele>
        <time>2020-07-20T11:43:57Z</time>
      </trkpt>
      <trkpt lat="42.864570" lon="-0.284070">
        <ele>1807.445</ele>
        <time>2020-07-20T11:44:05Z</time>
      </trkpt>
      <trkpt lat="42.864543" lon="-0.284125">
        <ele>1807.681</ele>
        <time>2020-07-20T11:44:11Z</time>
      </trkpt>
      <trkpt lat="42.864507" lon="-0.284165">
        <ele>1810.292</ele>
        <time>2020-07-20T11:44:20Z</time>
      </trkpt>
      <trkpt lat="42.864514" lon="-0.284226">
        <ele>1809.612</ele>
        <time>2020-07-20T11:44:28Z</time>
      </trkpt>
      <trkpt lat="42.864537" lon="-0.284292">
        <ele>1808.884</ele>
        <time>2020-07-20T11:45:04Z</time>
      </trkpt>
      <trkpt lat="42.864567" lon="-0.284325">
        <ele>1812.507</ele>
        <time>2020-07-20T11:45:13Z</time>
      </trkpt>
      <trkpt lat="42.864562" lon="-0.284380">
        <ele>1816.817</ele>
        <time>2020-07-20T11:48:40Z</time>
      </trkpt>
      <trkpt lat="42.864515" lon="-0.284403">
        <ele>1818.908</ele>
        <time>2020-07-20T11:48:46Z</time>
      </trkpt>
      <trkpt lat="42.864464" lon="-0.284437">
        <ele>1818.673</ele>
        <time>2020-07-20T11:48:52Z</time>
      </trkpt>
      <trkpt lat="42.864421" lon="-0.284461">
        <ele>1818.121</ele>
        <time>2020-07-20T11:48:58Z</time>
      </trkpt>
      <trkpt lat="42.864367" lon="-0.284477">
        <ele>1817.484</ele>
        <time>2020-07-20T11:49:03Z</time>
      </trkpt>
      <trkpt lat="42.864317" lon="-0.284496">
        <ele>1817.512</ele>
        <time>2020-07-20T11:49:07Z</time>
      </trkpt>
      <trkpt lat="42.864274" lon="-0.284515">
        <ele>1819.515</ele>
        <time>2020-07-20T11:49:14Z</time>
      </trkpt>
      <trkpt lat="42.864228" lon="-0.284518">
        <ele>1817.631</ele>
        <time>2020-07-20T11:49:20Z</time>
      </trkpt>
      <trkpt lat="42.864182" lon="-0.284540">
        <ele>1817.772</ele>
        <time>2020-07-20T11:49:26Z</time>
      </trkpt>
      <trkpt lat="42.864137" lon="-0.284583">
        <ele>1820.112</ele>
        <time>2020-07-20T11:49:35Z</time>
      </trkpt>
      <trkpt lat="42.864142" lon="-0.284655">
        <ele>1820.628</ele>
        <time>2020-07-20T11:49:39Z</time>
      </trkpt>
      <trkpt lat="42.864162" lon="-0.284716">
        <ele>1821.289</ele>
        <time>2020-07-20T11:49:45Z</time>
      </trkpt>
      <trkpt lat="42.864163" lon="-0.284782">
        <ele>1822.217</ele>
        <time>2020-07-20T11:49:50Z</time>
      </trkpt>
      <trkpt lat="42.864193" lon="-0.284832">
        <ele>1823.008</ele>
        <time>2020-07-20T11:49:55Z</time>
      </trkpt>
      <trkpt lat="42.864191" lon="-0.284901">
        <ele>1823.657</ele>
        <time>2020-07-20T11:50:01Z</time>
      </trkpt>
      <trkpt lat="42.864152" lon="-0.284939">
        <ele>1824.125</ele>
        <time>2020-07-20T11:50:12Z</time>
      </trkpt>
      <trkpt lat="42.864119" lon="-0.284987">
        <ele>1823.818</ele>
        <time>2020-07-20T11:50:19Z</time>
      </trkpt>
      <trkpt lat="42.864116" lon="-0.285057">
        <ele>1825.366</ele>
        <time>2020-07-20T11:50:27Z</time>
      </trkpt>
      <trkpt lat="42.864095" lon="-0.285119">
        <ele>1825.599</ele>
        <time>2020-07-20T11:50:34Z</time>
      </trkpt>
      <trkpt lat="42.864045" lon="-0.285149">
        <ele>1824.155</ele>
        <time>2020-07-20T11:50:42Z</time>
      </trkpt>
      <trkpt lat="42.863999" lon="-0.285152">
        <ele>1827.576</ele>
        <time>2020-07-20T11:50:46Z</time>
      </trkpt>
      <trkpt lat="42.863966" lon="-0.285095">
        <ele>1828.056</ele>
        <time>2020-07-20T11:50:58Z</time>
      </trkpt>
      <trkpt lat="42.863950" lon="-0.285154">
        <ele>1830.632</ele>
        <time>2020-07-20T11:51:06Z</time>
      </trkpt>
      <trkpt lat="42.863926" lon="-0.285207">
        <ele>1832.192</ele>
        <time>2020-07-20T11:51:19Z</time>
      </trkpt>
      <trkpt lat="42.863898" lon="-0.285255">
        <ele>1833.011</ele>
        <time>2020-07-20T11:51:25Z</time>
      </trkpt>
      <trkpt lat="42.863886" lon="-0.285317">
        <ele>1832.708</ele>
        <time>2020-07-20T11:51:35Z</time>
      </trkpt>
      <trkpt lat="42.863864" lon="-0.285371">
        <ele>1831.288</ele>
        <time>2020-07-20T11:51:43Z</time>
      </trkpt>
      <trkpt lat="42.863867" lon="-0.285446">
        <ele>1834.066</ele>
        <time>2020-07-20T11:51:49Z</time>
      </trkpt>
      <trkpt lat="42.863859" lon="-0.285506">
        <ele>1834.659</ele>
        <time>2020-07-20T11:52:02Z</time>
      </trkpt>
      <trkpt lat="42.863823" lon="-0.285534">
        <ele>1839.327</ele>
        <time>2020-07-20T11:52:09Z</time>
      </trkpt>
      <trkpt lat="42.863801" lon="-0.285596">
        <ele>1839.680</ele>
        <time>2020-07-20T11:52:21Z</time>
      </trkpt>
      <trkpt lat="42.863836" lon="-0.285650">
        <ele>1839.396</ele>
        <time>2020-07-20T11:53:35Z</time>
      </trkpt>
      <trkpt lat="42.863838" lon="-0.285722">
        <ele>1836.727</ele>
        <time>2020-07-20T11:53:44Z</time>
      </trkpt>
      <trkpt lat="42.863801" lon="-0.285775">
        <ele>1842.417</ele>
        <time>2020-07-20T11:53:51Z</time>
      </trkpt>
      <trkpt lat="42.863778" lon="-0.285837">
        <ele>1843.367</ele>
        <time>2020-07-20T11:53:54Z</time>
      </trkpt>
      <trkpt lat="42.863733" lon="-0.285851">
        <ele>1845.481</ele>
        <time>2020-07-20T11:54:04Z</time>
      </trkpt>
      <trkpt lat="42.863681" lon="-0.285817">
        <ele>1845.119</ele>
        <time>2020-07-20T11:54:12Z</time>
      </trkpt>
      <trkpt lat="42.863686" lon="-0.285751">
        <ele>1845.908</ele>
        <time>2020-07-20T11:54:15Z</time>
      </trkpt>
      <trkpt lat="42.863706" lon="-0.285690">
        <ele>1845.171</ele>
        <time>2020-07-20T11:54:23Z</time>
      </trkpt>
      <trkpt lat="42.863704" lon="-0.285618">
        <ele>1847.889</ele>
        <time>2020-07-20T11:54:30Z</time>
      </trkpt>
      <trkpt lat="42.863665" lon="-0.285595">
        <ele>1848.392</ele>
        <time>2020-07-20T11:54:39Z</time>
      </trkpt>
      <trkpt lat="42.863631" lon="-0.285658">
        <ele>1847.030</ele>
        <time>2020-07-20T11:54:44Z</time>
      </trkpt>
      <trkpt lat="42.863610" lon="-0.285715">
        <ele>1846.943</ele>
        <time>2020-07-20T11:54:52Z</time>
      </trkpt>
      <trkpt lat="42.863566" lon="-0.285750">
        <ele>1852.319</ele>
        <time>2020-07-20T11:55:03Z</time>
      </trkpt>
      <trkpt lat="42.863530" lon="-0.285703">
        <ele>1852.420</ele>
        <time>2020-07-20T11:55:15Z</time>
      </trkpt>
      <trkpt lat="42.863507" lon="-0.285745">
        <ele>1853.810</ele>
        <time>2020-07-20T11:55:21Z</time>
      </trkpt>
      <trkpt lat="42.863467" lon="-0.285801">
        <ele>1854.185</ele>
        <time>2020-07-20T11:55:28Z</time>
      </trkpt>
      <trkpt lat="42.863478" lon="-0.285726">
        <ele>1856.389</ele>
        <time>2020-07-20T11:56:09Z</time>
      </trkpt>
      <trkpt lat="42.863426" lon="-0.285740">
        <ele>1856.517</ele>
        <time>2020-07-20T11:56:20Z</time>
      </trkpt>
      <trkpt lat="42.863391" lon="-0.285780">
        <ele>1858.608</ele>
        <time>2020-07-20T11:56:28Z</time>
      </trkpt>
      <trkpt lat="42.863393" lon="-0.285709">
        <ele>1858.013</ele>
        <time>2020-07-20T11:56:40Z</time>
      </trkpt>
      <trkpt lat="42.863359" lon="-0.285674">
        <ele>1862.141</ele>
        <time>2020-07-20T11:56:54Z</time>
      </trkpt>
      <trkpt lat="42.863355" lon="-0.285603">
        <ele>1861.234</ele>
        <time>2020-07-20T11:57:04Z</time>
      </trkpt>
      <trkpt lat="42.863378" lon="-0.285543">
        <ele>1864.122</ele>
        <time>2020-07-20T11:57:07Z</time>
      </trkpt>
      <trkpt lat="42.863327" lon="-0.285552">
        <ele>1866.085</ele>
        <time>2020-07-20T11:57:23Z</time>
      </trkpt>
      <trkpt lat="42.863289" lon="-0.285595">
        <ele>1865.041</ele>
        <time>2020-07-20T11:57:33Z</time>
      </trkpt>
      <trkpt lat="42.863238" lon="-0.285603">
        <ele>1867.052</ele>
        <time>2020-07-20T11:57:38Z</time>
      </trkpt>
      <trkpt lat="42.863195" lon="-0.285624">
        <ele>1867.132</ele>
        <time>2020-07-20T11:57:44Z</time>
      </trkpt>
      <trkpt lat="42.863152" lon="-0.285596">
        <ele>1868.129</ele>
        <time>2020-07-20T11:57:53Z</time>
      </trkpt>
      <trkpt lat="42.863106" lon="-0.285585">
        <ele>1866.800</ele>
        <time>2020-07-20T11:58:00Z</time>
      </trkpt>
      <trkpt lat="42.863062" lon="-0.285616">
        <ele>1869.220</ele>
        <time>2020-07-20T11:58:09Z</time>
      </trkpt>
      <trkpt lat="42.863022" lon="-0.285654">
        <ele>1868.508</ele>
        <time>2020-07-20T11:58:15Z</time>
      </trkpt>
      <trkpt lat="42.862993" lon="-0.285711">
        <ele>1869.087</ele>
        <time>2020-07-20T11:58:22Z</time>
      </trkpt>
      <trkpt lat="42.862962" lon="-0.285764">
        <ele>1870.485</ele>
        <time>2020-07-20T11:58:27Z</time>
      </trkpt>
      <trkpt lat="42.862919" lon="-0.285778">
        <ele>1871.778</ele>
        <time>2020-07-20T11:58:33Z</time>
      </trkpt>
      <trkpt lat="42.862880" lon="-0.285817">
        <ele>1871.396</ele>
        <time>2020-07-20T11:58:37Z</time>
      </trkpt>
      <trkpt lat="42.862869" lon="-0.285885">
        <ele>1867.179</ele>
        <time>2020-07-20T11:58:49Z</time>
      </trkpt>
      <trkpt lat="42.862857" lon="-0.285944">
        <ele>1873.125</ele>
        <time>2020-07-20T11:58:55Z</time>
      </trkpt>
      <trkpt lat="42.862822" lon="-0.285985">
        <ele>1872.936</ele>
        <time>2020-07-20T11:58:59Z</time>
      </trkpt>
      <trkpt lat="42.862779" lon="-0.286024">
        <ele>1874.526</ele>
        <time>2020-07-20T11:59:13Z</time>
      </trkpt>
      <trkpt lat="42.862744" lon="-0.286071">
        <ele>1873.547</ele>
        <time>2020-07-20T11:59:16Z</time>
      </trkpt>
      <trkpt lat="42.862691" lon="-0.286072">
        <ele>1869.229</ele>
        <time>2020-07-20T12:01:37Z</time>
      </trkpt>
      <trkpt lat="42.862644" lon="-0.286073">
        <ele>1878.921</ele>
        <time>2020-07-20T12:01:52Z</time>
      </trkpt>
      <trkpt lat="42.862593" lon="-0.286073">
        <ele>1875.608</ele>
        <time>2020-07-20T12:02:00Z</time>
      </trkpt>
      <trkpt lat="42.862546" lon="-0.286039">
        <ele>1881.489</ele>
        <time>2020-07-20T12:02:04Z</time>
      </trkpt>
      <trkpt lat="42.862499" lon="-0.286009">
        <ele>1879.477</ele>
        <time>2020-07-20T12:02:17Z</time>
      </trkpt>
      <trkpt lat="42.862451" lon="-0.286038">
        <ele>1881.920</ele>
        <time>2020-07-20T12:02:23Z</time>
      </trkpt>
      <trkpt lat="42.862413" lon="-0.286080">
        <ele>1883.718</ele>
        <time>2020-07-20T12:02:33Z</time>
      </trkpt>
      <trkpt lat="42.862369" lon="-0.286102">
        <ele>1885.761</ele>
        <time>2020-07-20T12:02:39Z</time>
      </trkpt>
      <trkpt lat="42.862356" lon="-0.286163">
        <ele>1883.287</ele>
        <time>2020-07-20T12:02:46Z</time>
      </trkpt>
      <trkpt lat="42.862338" lon="-0.286227">
        <ele>1886.848</ele>
        <time>2020-07-20T12:02:57Z</time>
      </trkpt>
      <trkpt lat="42.862293" lon="-0.286270">
        <ele>1886.498</ele>
        <time>2020-07-20T12:03:01Z</time>
      </trkpt>
      <trkpt lat="42.862245" lon="-0.286276">
        <ele>1888.825</ele>
        <time>2020-07-20T12:03:07Z</time>
      </trkpt>
      <trkpt lat="42.862198" lon="-0.286246">
        <ele>1889.526</ele>
        <time>2020-07-20T12:03:15Z</time>
      </trkpt>
      <trkpt lat="42.862151" lon="-0.286247">
        <ele>1890.408</ele>
        <time>2020-07-20T12:03:23Z</time>
      </trkpt>
      <trkpt lat="42.862105" lon="-0.286246">
        <ele>1889.908</ele>
        <time>2020-07-20T12:03:34Z</time>
      </trkpt>
      <trkpt lat="42.862067" lon="-0.286288">
        <ele>1889.727</ele>
        <time>2020-07-20T12:03:42Z</time>
      </trkpt>
      <trkpt lat="42.862042" lon="-0.286342">
        <ele>1890.835</ele>
        <time>2020-07-20T12:03:48Z</time>
      </trkpt>
      <trkpt lat="42.861993" lon="-0.286353">
        <ele>1895.218</ele>
        <time>2020-07-20T12:03:53Z</time>
      </trkpt>
      <trkpt lat="42.861949" lon="-0.286338">
        <ele>1892.956</ele>
        <time>2020-07-20T12:04:01Z</time>
      </trkpt>
      <trkpt lat="42.861905" lon="-0.286321">
        <ele>1896.539</ele>
        <time>2020-07-20T12:04:07Z</time>
      </trkpt>
      <trkpt lat="42.861859" lon="-0.286322">
        <ele>1892.815</ele>
        <time>2020-07-20T12:04:11Z</time>
      </trkpt>
      <trkpt lat="42.861821" lon="-0.286379">
        <ele>1897.216</ele>
        <time>2020-07-20T12:04:19Z</time>
      </trkpt>
      <trkpt lat="42.861770" lon="-0.286413">
        <ele>1896.516</ele>
        <time>2020-07-20T12:04:28Z</time>
      </trkpt>
      <trkpt lat="42.861721" lon="-0.286443">
        <ele>1897.653</ele>
        <time>2020-07-20T12:04:34Z</time>
      </trkpt>
      <trkpt lat="42.861674" lon="-0.286439">
        <ele>1896.904</ele>
        <time>2020-07-20T12:04:41Z</time>
      </trkpt>
      <trkpt lat="42.861635" lon="-0.286484">
        <ele>1898.114</ele>
        <time>2020-07-20T12:04:46Z</time>
      </trkpt>
      <trkpt lat="42.861584" lon="-0.286487">
        <ele>1900.508</ele>
        <time>2020-07-20T12:04:57Z</time>
      </trkpt>
      <trkpt lat="42.861554" lon="-0.286539">
        <ele>1898.770</ele>
        <time>2020-07-20T12:05:04Z</time>
      </trkpt>
      <trkpt lat="42.861512" lon="-0.286564">
        <ele>1900.118</ele>
        <time>2020-07-20T12:05:10Z</time>
      </trkpt>
      <trkpt lat="42.861462" lon="-0.286554">
        <ele>1902.191</ele>
        <time>2020-07-20T12:05:20Z</time>
      </trkpt>
      <trkpt lat="42.861413" lon="-0.286565">
        <ele>1903.269</ele>
        <time>2020-07-20T12:05:25Z</time>
      </trkpt>
      <trkpt lat="42.861373" lon="-0.286597">
        <ele>1900.732</ele>
        <time>2020-07-20T12:05:34Z</time>
      </trkpt>
      <trkpt lat="42.861336" lon="-0.286630">
        <ele>1905.528</ele>
        <time>2020-07-20T12:05:42Z</time>
      </trkpt>
      <trkpt lat="42.861320" lon="-0.286659">
        <ele>1909.149</ele>
        <time>2020-07-20T12:07:01Z</time>
      </trkpt>
      <trkpt lat="42.861295" lon="-0.286722">
        <ele>1905.939</ele>
        <time>2020-07-20T12:07:08Z</time>
      </trkpt>
      <trkpt lat="42.861281" lon="-0.286787">
        <ele>1907.824</ele>
        <time>2020-07-20T12:07:17Z</time>
      </trkpt>
      <trkpt lat="42.861264" lon="-0.286852">
        <ele>1907.804</ele>
        <time>2020-07-20T12:07:23Z</time>
      </trkpt>
      <trkpt lat="42.861229" lon="-0.286891">
        <ele>1907.614</ele>
        <time>2020-07-20T12:07:26Z</time>
      </trkpt>
      <trkpt lat="42.861192" lon="-0.286927">
        <ele>1906.608</ele>
        <time>2020-07-20T12:07:33Z</time>
      </trkpt>
      <trkpt lat="42.861140" lon="-0.286961">
        <ele>1911.067</ele>
        <time>2020-07-20T12:07:44Z</time>
      </trkpt>
      <trkpt lat="42.861128" lon="-0.286884">
        <ele>1911.795</ele>
        <time>2020-07-20T12:07:52Z</time>
      </trkpt>
      <trkpt lat="42.861081" lon="-0.286899">
        <ele>1913.748</ele>
        <time>2020-07-20T12:08:01Z</time>
      </trkpt>
      <trkpt lat="42.861056" lon="-0.286846">
        <ele>1915.656</ele>
        <time>2020-07-20T12:08:14Z</time>
      </trkpt>
      <trkpt lat="42.861043" lon="-0.286779">
        <ele>1914.559</ele>
        <time>2020-07-20T12:08:19Z</time>
      </trkpt>
      <trkpt lat="42.861004" lon="-0.286816">
        <ele>1916.475</ele>
        <time>2020-07-20T12:08:29Z</time>
      </trkpt>
      <trkpt lat="42.860958" lon="-0.286795">
        <ele>1919.256</ele>
        <time>2020-07-20T12:08:54Z</time>
      </trkpt>
      <trkpt lat="42.860912" lon="-0.286794">
        <ele>1919.796</ele>
        <time>2020-07-20T12:09:07Z</time>
      </trkpt>
      <trkpt lat="42.860876" lon="-0.286835">
        <ele>1920.884</ele>
        <time>2020-07-20T12:09:23Z</time>
      </trkpt>
      <trkpt lat="42.860831" lon="-0.286856">
        <ele>1924.307</ele>
        <time>2020-07-20T12:09:42Z</time>
      </trkpt>
      <trkpt lat="42.860831" lon="-0.286932">
        <ele>1926.117</ele>
        <time>2020-07-20T12:09:49Z</time>
      </trkpt>
      <trkpt lat="42.860846" lon="-0.286990">
        <ele>1924.508</ele>
        <time>2020-07-20T12:09:52Z</time>
      </trkpt>
      <trkpt lat="42.860842" lon="-0.287057">
        <ele>1925.833</ele>
        <time>2020-07-20T12:10:00Z</time>
      </trkpt>
      <trkpt lat="42.860815" lon="-0.287082">
        <ele>1924.311</ele>
        <time>2020-07-20T12:10:12Z</time>
      </trkpt>
      <trkpt lat="42.860807" lon="-0.287036">
        <ele>1928.354</ele>
        <time>2020-07-20T12:10:44Z</time>
      </trkpt>
      <trkpt lat="42.860780" lon="-0.287010">
        <ele>1928.792</ele>
        <time>2020-07-20T12:11:27Z</time>
      </trkpt>
      <trkpt lat="42.860748" lon="-0.287040">
        <ele>1927.975</ele>
        <time>2020-07-20T12:11:33Z</time>
      </trkpt>
      <trkpt lat="42.860700" lon="-0.287052">
        <ele>1932.211</ele>
        <time>2020-07-20T12:11:38Z</time>
      </trkpt>
      <trkpt lat="42.860673" lon="-0.287102">
        <ele>1933.712</ele>
        <time>2020-07-20T12:11:42Z</time>
      </trkpt>
      <trkpt lat="42.860631" lon="-0.287136">
        <ele>1934.792</ele>
        <time>2020-07-20T12:11:54Z</time>
      </trkpt>
      <trkpt lat="42.860587" lon="-0.287141">
        <ele>1936.538</ele>
        <time>2020-07-20T12:12:03Z</time>
      </trkpt>
      <trkpt lat="42.860597" lon="-0.287075">
        <ele>1940.670</ele>
        <time>2020-07-20T12:12:21Z</time>
      </trkpt>
      <trkpt lat="42.860586" lon="-0.287011">
        <ele>1939.117</ele>
        <time>2020-07-20T12:12:30Z</time>
      </trkpt>
      <trkpt lat="42.860545" lon="-0.286972">
        <ele>1940.908</ele>
        <time>2020-07-20T12:12:36Z</time>
      </trkpt>
      <trkpt lat="42.860507" lon="-0.287018">
        <ele>1940.488</ele>
        <time>2020-07-20T12:12:43Z</time>
      </trkpt>
      <trkpt lat="42.860502" lon="-0.287080">
        <ele>1942.886</ele>
        <time>2020-07-20T12:12:47Z</time>
      </trkpt>
      <trkpt lat="42.860504" lon="-0.287162">
        <ele>1943.539</ele>
        <time>2020-07-20T12:12:54Z</time>
      </trkpt>
      <trkpt lat="42.860476" lon="-0.287208">
        <ele>1943.157</ele>
        <time>2020-07-20T12:14:10Z</time>
      </trkpt>
      <trkpt lat="42.860465" lon="-0.287144">
        <ele>1944.240</ele>
        <time>2020-07-20T12:14:46Z</time>
      </trkpt>
      <trkpt lat="42.860464" lon="-0.287069">
        <ele>1945.766</ele>
        <time>2020-07-20T12:14:52Z</time>
      </trkpt>
      <trkpt lat="42.860466" lon="-0.287007">
        <ele>1947.637</ele>
        <time>2020-07-20T12:14:57Z</time>
      </trkpt>
      <trkpt lat="42.860476" lon="-0.286939">
        <ele>1945.577</ele>
        <time>2020-07-20T12:15:02Z</time>
      </trkpt>
      <trkpt lat="42.860476" lon="-0.286861">
        <ele>1947.146</ele>
        <time>2020-07-20T12:15:08Z</time>
      </trkpt>
      <trkpt lat="42.860452" lon="-0.286793">
        <ele>1948.588</ele>
        <time>2020-07-20T12:15:14Z</time>
      </trkpt>
      <trkpt lat="42.860405" lon="-0.286787">
        <ele>1950.816</ele>
        <time>2020-07-20T12:15:25Z</time>
      </trkpt>
      <trkpt lat="42.860378" lon="-0.286735">
        <ele>1951.508</ele>
        <time>2020-07-20T12:15:38Z</time>
      </trkpt>
      <trkpt lat="42.860329" lon="-0.286736">
        <ele>1953.889</ele>
        <time>2020-07-20T12:15:49Z</time>
      </trkpt>
      <trkpt lat="42.860302" lon="-0.286796">
        <ele>1952.687</ele>
        <time>2020-07-20T12:15:54Z</time>
      </trkpt>
      <trkpt lat="42.860258" lon="-0.286783">
        <ele>1956.790</ele>
        <time>2020-07-20T12:16:09Z</time>
      </trkpt>
      <trkpt lat="42.860244" lon="-0.286718">
        <ele>1957.428</ele>
        <time>2020-07-20T12:16:19Z</time>
      </trkpt>
      <trkpt lat="42.860195" lon="-0.286711">
        <ele>1957.831</ele>
        <time>2020-07-20T12:16:32Z</time>
      </trkpt>
      <trkpt lat="42.860212" lon="-0.286643">
        <ele>1961.867</ele>
        <time>2020-07-20T12:16:59Z</time>
      </trkpt>
      <trkpt lat="42.860228" lon="-0.286583">
        <ele>1961.598</ele>
        <time>2020-07-20T12:17:07Z</time>
      </trkpt>
      <trkpt lat="42.860217" lon="-0.286520">
        <ele>1964.028</ele>
        <time>2020-07-20T12:17:13Z</time>
      </trkpt>
      <trkpt lat="42.860188" lon="-0.286467">
        <ele>1965.415</ele>
        <time>2020-07-20T12:17:18Z</time>
      </trkpt>
      <trkpt lat="42.860184" lon="-0.286414">
        <ele>1967.865</ele>
        <time>2020-07-20T12:18:05Z</time>
      </trkpt>
      <trkpt lat="42.860141" lon="-0.286417">
        <ele>1966.611</ele>
        <time>2020-07-20T12:18:33Z</time>
      </trkpt>
      <trkpt lat="42.860123" lon="-0.286361">
        <ele>1972.508</ele>
        <time>2020-07-20T12:19:49Z</time>
      </trkpt>
      <trkpt lat="42.860083" lon="-0.286332">
        <ele>1974.246</ele>
        <time>2020-07-20T12:20:01Z</time>
      </trkpt>
      <trkpt lat="42.860058" lon="-0.286272">
        <ele>1976.974</ele>
        <time>2020-07-20T12:20:44Z</time>
      </trkpt>
      <trkpt lat="42.860012" lon="-0.286253">
        <ele>1978.927</ele>
        <time>2020-07-20T12:20:52Z</time>
      </trkpt>
      <trkpt lat="42.859981" lon="-0.286206">
        <ele>1978.555</ele>
        <time>2020-07-20T12:20:58Z</time>
      </trkpt>
      <trkpt lat="42.859989" lon="-0.286141">
        <ele>1979.218</ele>
        <time>2020-07-20T12:21:05Z</time>
      </trkpt>
      <trkpt lat="42.860021" lon="-0.286086">
        <ele>1979.994</ele>
        <time>2020-07-20T12:21:12Z</time>
      </trkpt>
      <trkpt lat="42.860059" lon="-0.286049">
        <ele>1981.245</ele>
        <time>2020-07-20T12:21:15Z</time>
      </trkpt>
      <trkpt lat="42.860098" lon="-0.286011">
        <ele>1978.125</ele>
        <time>2020-07-20T12:21:23Z</time>
      </trkpt>
      <trkpt lat="42.860098" lon="-0.285946">
        <ele>1981.855</ele>
        <time>2020-07-20T12:21:31Z</time>
      </trkpt>
      <trkpt lat="42.860086" lon="-0.285869">
        <ele>1981.607</ele>
        <time>2020-07-20T12:21:38Z</time>
      </trkpt>
      <trkpt lat="42.860051" lon="-0.285829">
        <ele>1982.617</ele>
        <time>2020-07-20T12:21:43Z</time>
      </trkpt>
      <trkpt lat="42.859997" lon="-0.285856">
        <ele>1982.808</ele>
        <time>2020-07-20T12:21:48Z</time>
      </trkpt>
      <trkpt lat="42.859949" lon="-0.285886">
        <ele>1981.980</ele>
        <time>2020-07-20T12:21:56Z</time>
      </trkpt>
      <trkpt lat="42.859914" lon="-0.285927">
        <ele>1985.688</ele>
        <time>2020-07-20T12:22:03Z</time>
      </trkpt>
      <trkpt lat="42.859873" lon="-0.285965">
        <ele>1986.251</ele>
        <time>2020-07-20T12:22:12Z</time>
      </trkpt>
      <trkpt lat="42.859851" lon="-0.286006">
        <ele>1988.779</ele>
        <time>2020-07-20T12:23:47Z</time>
      </trkpt>
      <trkpt lat="42.859804" lon="-0.286034">
        <ele>1989.232</ele>
        <time>2020-07-20T12:23:53Z</time>
      </trkpt>
      <trkpt lat="42.859775" lon="-0.286082">
        <ele>1990.258</ele>
        <time>2020-07-20T12:24:01Z</time>
      </trkpt>
      <trkpt lat="42.859744" lon="-0.286125">
        <ele>1987.649</ele>
        <time>2020-07-20T12:24:07Z</time>
      </trkpt>
      <trkpt lat="42.859720" lon="-0.286182">
        <ele>1990.819</ele>
        <time>2020-07-20T12:24:14Z</time>
      </trkpt>
      <trkpt lat="42.859672" lon="-0.286191">
        <ele>1986.588</ele>
        <time>2020-07-20T12:24:22Z</time>
      </trkpt>
      <trkpt lat="42.859648" lon="-0.286250">
        <ele>1995.624</ele>
        <time>2020-07-20T12:24:31Z</time>
      </trkpt>
      <trkpt lat="42.859644" lon="-0.286323">
        <ele>1994.226</ele>
        <time>2020-07-20T12:24:41Z</time>
      </trkpt>
      <trkpt lat="42.859633" lon="-0.286389">
        <ele>1996.808</ele>
        <time>2020-07-20T12:24:46Z</time>
      </trkpt>
      <trkpt lat="42.859658" lon="-0.286459">
        <ele>1999.233</ele>
        <time>2020-07-20T12:24:56Z</time>
      </trkpt>
      <trkpt lat="42.859615" lon="-0.286479">
        <ele>1999.611</ele>
        <time>2020-07-20T12:25:10Z</time>
      </trkpt>
      <trkpt lat="42.859576" lon="-0.286430">
        <ele>1998.644</ele>
        <time>2020-07-20T12:25:17Z</time>
      </trkpt>
      <trkpt lat="42.859532" lon="-0.286393">
        <ele>2002.932</ele>
        <time>2020-07-20T12:25:25Z</time>
      </trkpt>
      <trkpt lat="42.859507" lon="-0.286338">
        <ele>1999.135</ele>
        <time>2020-07-20T12:25:29Z</time>
      </trkpt>
      <trkpt lat="42.859467" lon="-0.286310">
        <ele>2006.881</ele>
        <time>2020-07-20T12:27:32Z</time>
      </trkpt>
      <trkpt lat="42.859427" lon="-0.286350">
        <ele>2008.842</ele>
        <time>2020-07-20T12:27:39Z</time>
      </trkpt>
      <trkpt lat="42.859391" lon="-0.286304">
        <ele>2006.462</ele>
        <time>2020-07-20T12:27:55Z</time>
      </trkpt>
      <trkpt lat="42.859341" lon="-0.286289">
        <ele>2006.962</ele>
        <time>2020-07-20T12:28:05Z</time>
      </trkpt>
      <trkpt lat="42.859309" lon="-0.286334">
        <ele>2009.683</ele>
        <time>2020-07-20T12:28:12Z</time>
      </trkpt>
      <trkpt lat="42.859264" lon="-0.286318">
        <ele>2012.011</ele>
        <time>2020-07-20T12:28:21Z</time>
      </trkpt>
      <trkpt lat="42.859216" lon="-0.286284">
        <ele>2012.208</ele>
        <time>2020-07-20T12:28:30Z</time>
      </trkpt>
      <trkpt lat="42.859171" lon="-0.286280">
        <ele>2013.671</ele>
        <time>2020-07-20T12:28:39Z</time>
      </trkpt>
      <trkpt lat="42.859143" lon="-0.286330">
        <ele>2015.089</ele>
        <time>2020-07-20T12:28:45Z</time>
      </trkpt>
      <trkpt lat="42.859116" lon="-0.286381">
        <ele>2013.682</ele>
        <time>2020-07-20T12:28:48Z</time>
      </trkpt>
      <trkpt lat="42.859109" lon="-0.286453">
        <ele>2014.580</ele>
        <time>2020-07-20T12:28:52Z</time>
      </trkpt>
      <trkpt lat="42.859094" lon="-0.286512">
        <ele>2015.923</ele>
        <time>2020-07-20T12:29:00Z</time>
      </trkpt>
      <trkpt lat="42.859122" lon="-0.286569">
        <ele>2016.269</ele>
        <time>2020-07-20T12:29:24Z</time>
      </trkpt>
      <trkpt lat="42.859094" lon="-0.286619">
        <ele>2015.860</ele>
        <time>2020-07-20T12:29:34Z</time>
      </trkpt>
      <trkpt lat="42.859043" lon="-0.286627">
        <ele>2016.330</ele>
        <time>2020-07-20T12:29:37Z</time>
      </trkpt>
      <trkpt lat="42.859000" lon="-0.286667">
        <ele>2018.235</ele>
        <time>2020-07-20T12:29:45Z</time>
      </trkpt>
      <trkpt lat="42.858988" lon="-0.286730">
        <ele>2017.386</ele>
        <time>2020-07-20T12:29:51Z</time>
      </trkpt>
      <trkpt lat="42.858959" lon="-0.286783">
        <ele>2016.214</ele>
        <time>2020-07-20T12:29:57Z</time>
      </trkpt>
      <trkpt lat="42.858941" lon="-0.286847">
        <ele>2014.708</ele>
        <time>2020-07-20T12:30:11Z</time>
      </trkpt>
      <trkpt lat="42.858952" lon="-0.286920">
        <ele>2018.898</ele>
        <time>2020-07-20T12:30:21Z</time>
      </trkpt>
      <trkpt lat="42.858955" lon="-0.286986">
        <ele>2022.316</ele>
        <time>2020-07-20T12:32:20Z</time>
      </trkpt>
      <trkpt lat="42.858938" lon="-0.287040">
        <ele>2022.559</ele>
        <time>2020-07-20T12:33:47Z</time>
      </trkpt>
      <trkpt lat="42.858917" lon="-0.287101">
        <ele>2022.197</ele>
        <time>2020-07-20T12:33:57Z</time>
      </trkpt>
      <trkpt lat="42.858941" lon="-0.287158">
        <ele>2020.360</ele>
        <time>2020-07-20T12:33:59Z</time>
      </trkpt>
      <trkpt lat="42.858975" lon="-0.287221">
        <ele>2024.376</ele>
        <time>2020-07-20T12:34:10Z</time>
      </trkpt>
      <trkpt lat="42.858978" lon="-0.287287">
        <ele>2022.817</ele>
        <time>2020-07-20T12:34:14Z</time>
      </trkpt>
      <trkpt lat="42.858984" lon="-0.287360">
        <ele>2022.347</ele>
        <time>2020-07-20T12:34:24Z</time>
      </trkpt>
      <trkpt lat="42.858975" lon="-0.287421">
        <ele>2024.662</ele>
        <time>2020-07-20T12:34:32Z</time>
      </trkpt>
      <trkpt lat="42.858929" lon="-0.287405">
        <ele>2027.583</ele>
        <time>2020-07-20T12:34:54Z</time>
      </trkpt>
      <trkpt lat="42.858897" lon="-0.287442">
        <ele>2026.611</ele>
        <time>2020-07-20T12:35:04Z</time>
      </trkpt>
      <trkpt lat="42.858865" lon="-0.287496">
        <ele>2026.808</ele>
        <time>2020-07-20T12:35:10Z</time>
      </trkpt>
      <trkpt lat="42.858856" lon="-0.287564">
        <ele>2029.951</ele>
        <time>2020-07-20T12:35:16Z</time>
      </trkpt>
      <trkpt lat="42.858831" lon="-0.287633">
        <ele>2029.259</ele>
        <time>2020-07-20T12:35:23Z</time>
      </trkpt>
      <trkpt lat="42.858824" lon="-0.287708">
        <ele>2030.822</ele>
        <time>2020-07-20T12:35:29Z</time>
      </trkpt>
      <trkpt lat="42.858784" lon="-0.287753">
        <ele>2034.580</ele>
        <time>2020-07-20T12:35:41Z</time>
      </trkpt>
      <trkpt lat="42.858755" lon="-0.287804">
        <ele>2034.563</ele>
        <time>2020-07-20T12:35:49Z</time>
      </trkpt>
      <trkpt lat="42.858703" lon="-0.287821">
        <ele>2035.549</ele>
        <time>2020-07-20T12:35:54Z</time>
      </trkpt>
      <trkpt lat="42.858662" lon="-0.287865">
        <ele>2036.840</ele>
        <time>2020-07-20T12:36:06Z</time>
      </trkpt>
      <trkpt lat="42.858639" lon="-0.287921">
        <ele>2037.620</ele>
        <time>2020-07-20T12:36:12Z</time>
      </trkpt>
      <trkpt lat="42.858601" lon="-0.287958">
        <ele>2041.381</ele>
        <time>2020-07-20T12:36:22Z</time>
      </trkpt>
      <trkpt lat="42.858560" lon="-0.288000">
        <ele>2039.461</ele>
        <time>2020-07-20T12:36:29Z</time>
      </trkpt>
      <trkpt lat="42.858515" lon="-0.288001">
        <ele>2041.017</ele>
        <time>2020-07-20T12:36:37Z</time>
      </trkpt>
      <trkpt lat="42.858458" lon="-0.288001">
        <ele>2040.308</ele>
        <time>2020-07-20T12:36:44Z</time>
      </trkpt>
      <trkpt lat="42.858425" lon="-0.288045">
        <ele>2040.413</ele>
        <time>2020-07-20T12:36:58Z</time>
      </trkpt>
      <trkpt lat="42.858414" lon="-0.288114">
        <ele>2045.271</ele>
        <time>2020-07-20T12:37:09Z</time>
      </trkpt>
      <trkpt lat="42.858371" lon="-0.288141">
        <ele>2044.994</ele>
        <time>2020-07-20T12:37:20Z</time>
      </trkpt>
      <trkpt lat="42.858326" lon="-0.288120">
        <ele>2045.852</ele>
        <time>2020-07-20T12:37:32Z</time>
      </trkpt>
      <trkpt lat="42.858277" lon="-0.288102">
        <ele>2045.525</ele>
        <time>2020-07-20T12:37:36Z</time>
      </trkpt>
      <trkpt lat="42.858235" lon="-0.288141">
        <ele>2048.811</ele>
        <time>2020-07-20T12:37:47Z</time>
      </trkpt>
      <trkpt lat="42.858183" lon="-0.288162">
        <ele>2048.872</ele>
        <time>2020-07-20T12:37:56Z</time>
      </trkpt>
      <trkpt lat="42.858163" lon="-0.288219">
        <ele>2048.222</ele>
        <time>2020-07-20T12:38:05Z</time>
      </trkpt>
      <trkpt lat="42.858174" lon="-0.288263">
        <ele>2050.417</ele>
        <time>2020-07-20T12:38:58Z</time>
      </trkpt>
      <trkpt lat="42.858153" lon="-0.288300">
        <ele>2053.987</ele>
        <time>2020-07-20T12:39:12Z</time>
      </trkpt>
      <trkpt lat="42.858131" lon="-0.288357">
        <ele>2053.815</ele>
        <time>2020-07-20T12:39:17Z</time>
      </trkpt>
      <trkpt lat="42.858098" lon="-0.288399">
        <ele>2050.208</ele>
        <time>2020-07-20T12:39:25Z</time>
      </trkpt>
      <trkpt lat="42.858100" lon="-0.288464">
        <ele>2057.416</ele>
        <time>2020-07-20T12:39:35Z</time>
      </trkpt>
      <trkpt lat="42.858104" lon="-0.288522">
        <ele>2059.274</ele>
        <time>2020-07-20T12:39:46Z</time>
      </trkpt>
      <trkpt lat="42.858072" lon="-0.288564">
        <ele>2061.867</ele>
        <time>2020-07-20T12:40:01Z</time>
      </trkpt>
      <trkpt lat="42.858050" lon="-0.288619">
        <ele>2063.345</ele>
        <time>2020-07-20T12:40:10Z</time>
      </trkpt>
      <trkpt lat="42.858071" lon="-0.288691">
        <ele>2066.958</ele>
        <time>2020-07-20T12:40:24Z</time>
      </trkpt>
      <trkpt lat="42.858102" lon="-0.288739">
        <ele>2069.354</ele>
        <time>2020-07-20T12:40:36Z</time>
      </trkpt>
      <trkpt lat="42.858132" lon="-0.288819">
        <ele>2072.725</ele>
        <time>2020-07-20T12:40:57Z</time>
      </trkpt>
      <trkpt lat="42.858114" lon="-0.288778">
        <ele>2066.895</ele>
        <time>2020-07-21T05:42:51Z</time>
      </trkpt>
      <trkpt lat="42.858076" lon="-0.288711">
        <ele>2062.549</ele>
        <time>2020-07-21T05:43:24Z</time>
      </trkpt>
      <trkpt lat="42.858049" lon="-0.288666">
        <ele>2061.323</ele>
        <time>2020-07-21T05:43:27Z</time>
      </trkpt>
      <trkpt lat="42.858043" lon="-0.288608">
        <ele>2059.308</ele>
        <time>2020-07-21T05:43:31Z</time>
      </trkpt>
      <trkpt lat="42.858071" lon="-0.288537">
        <ele>2059.754</ele>
        <time>2020-07-21T05:43:32Z</time>
      </trkpt>
      <trkpt lat="42.858101" lon="-0.288500">
        <ele>2057.192</ele>
        <time>2020-07-21T05:43:38Z</time>
      </trkpt>
      <trkpt lat="42.858095" lon="-0.288414">
        <ele>2056.796</ele>
        <time>2020-07-21T05:43:44Z</time>
      </trkpt>
      <trkpt lat="42.858108" lon="-0.288364">
        <ele>2055.351</ele>
        <time>2020-07-21T05:43:50Z</time>
      </trkpt>
      <trkpt lat="42.858143" lon="-0.288317">
        <ele>2052.328</ele>
        <time>2020-07-21T05:43:59Z</time>
      </trkpt>
      <trkpt lat="42.858162" lon="-0.288247">
        <ele>2052.837</ele>
        <time>2020-07-21T05:44:06Z</time>
      </trkpt>
      <trkpt lat="42.858158" lon="-0.288190">
        <ele>2049.331</ele>
        <time>2020-07-21T05:44:14Z</time>
      </trkpt>
      <trkpt lat="42.858197" lon="-0.288147">
        <ele>2048.320</ele>
        <time>2020-07-21T05:44:20Z</time>
      </trkpt>
      <trkpt lat="42.858244" lon="-0.288122">
        <ele>2047.192</ele>
        <time>2020-07-21T05:44:25Z</time>
      </trkpt>
      <trkpt lat="42.858288" lon="-0.288100">
        <ele>2046.573</ele>
        <time>2020-07-21T05:44:29Z</time>
      </trkpt>
      <trkpt lat="42.858336" lon="-0.288122">
        <ele>2046.020</ele>
        <time>2020-07-21T05:44:34Z</time>
      </trkpt>
      <trkpt lat="42.858374" lon="-0.288130">
        <ele>2044.608</ele>
        <time>2020-07-21T05:44:38Z</time>
      </trkpt>
      <trkpt lat="42.858424" lon="-0.288094">
        <ele>2042.894</ele>
        <time>2020-07-21T05:44:42Z</time>
      </trkpt>
      <trkpt lat="42.858448" lon="-0.288031">
        <ele>2043.262</ele>
        <time>2020-07-21T05:44:48Z</time>
      </trkpt>
      <trkpt lat="42.858494" lon="-0.288020">
        <ele>2042.136</ele>
        <time>2020-07-21T05:44:53Z</time>
      </trkpt>
      <trkpt lat="42.858520" lon="-0.287979">
        <ele>2038.591</ele>
        <time>2020-07-21T05:46:24Z</time>
      </trkpt>
      <trkpt lat="42.858582" lon="-0.287980">
        <ele>2035.958</ele>
        <time>2020-07-21T05:46:30Z</time>
      </trkpt>
      <trkpt lat="42.858634" lon="-0.287910">
        <ele>2036.167</ele>
        <time>2020-07-21T05:46:35Z</time>
      </trkpt>
      <trkpt lat="42.858662" lon="-0.287856">
        <ele>2035.011</ele>
        <time>2020-07-21T05:46:40Z</time>
      </trkpt>
      <trkpt lat="42.858692" lon="-0.287825">
        <ele>2034.760</ele>
        <time>2020-07-21T05:46:45Z</time>
      </trkpt>
      <trkpt lat="42.858741" lon="-0.287801">
        <ele>2033.586</ele>
        <time>2020-07-21T05:46:50Z</time>
      </trkpt>
      <trkpt lat="42.858787" lon="-0.287755">
        <ele>2031.660</ele>
        <time>2020-07-21T05:46:55Z</time>
      </trkpt>
      <trkpt lat="42.858821" lon="-0.287688">
        <ele>2032.426</ele>
        <time>2020-07-21T05:46:58Z</time>
      </trkpt>
      <trkpt lat="42.858825" lon="-0.287617">
        <ele>2030.908</ele>
        <time>2020-07-21T05:47:08Z</time>
      </trkpt>
      <trkpt lat="42.858853" lon="-0.287573">
        <ele>2030.243</ele>
        <time>2020-07-21T05:47:14Z</time>
      </trkpt>
      <trkpt lat="42.858859" lon="-0.287508">
        <ele>2029.111</ele>
        <time>2020-07-21T05:47:21Z</time>
      </trkpt>
      <trkpt lat="42.858874" lon="-0.287444">
        <ele>2028.235</ele>
        <time>2020-07-21T05:47:26Z</time>
      </trkpt>
      <trkpt lat="42.858910" lon="-0.287400">
        <ele>2026.040</ele>
        <time>2020-07-21T05:47:30Z</time>
      </trkpt>
      <trkpt lat="42.858978" lon="-0.287413">
        <ele>2026.227</ele>
        <time>2020-07-21T05:47:39Z</time>
      </trkpt>
      <trkpt lat="42.858972" lon="-0.287295">
        <ele>2024.656</ele>
        <time>2020-07-21T05:47:47Z</time>
      </trkpt>
      <trkpt lat="42.858974" lon="-0.287233">
        <ele>2024.050</ele>
        <time>2020-07-21T05:47:52Z</time>
      </trkpt>
      <trkpt lat="42.858964" lon="-0.287180">
        <ele>2022.369</ele>
        <time>2020-07-21T05:47:59Z</time>
      </trkpt>
      <trkpt lat="42.858924" lon="-0.287122">
        <ele>2020.872</ele>
        <time>2020-07-21T05:48:04Z</time>
      </trkpt>
      <trkpt lat="42.858947" lon="-0.287055">
        <ele>2020.913</ele>
        <time>2020-07-21T05:48:14Z</time>
      </trkpt>
      <trkpt lat="42.858960" lon="-0.286990">
        <ele>2020.814</ele>
        <time>2020-07-21T05:48:20Z</time>
      </trkpt>
      <trkpt lat="42.858968" lon="-0.286932">
        <ele>2020.308</ele>
        <time>2020-07-21T05:48:27Z</time>
      </trkpt>
      <trkpt lat="42.858955" lon="-0.286864">
        <ele>2019.262</ele>
        <time>2020-07-21T05:48:33Z</time>
      </trkpt>
      <trkpt lat="42.858969" lon="-0.286790">
        <ele>2018.090</ele>
        <time>2020-07-21T05:48:41Z</time>
      </trkpt>
      <trkpt lat="42.858982" lon="-0.286726">
        <ele>2016.794</ele>
        <time>2020-07-21T05:48:58Z</time>
      </trkpt>
      <trkpt lat="42.859019" lon="-0.286669">
        <ele>2016.139</ele>
        <time>2020-07-21T05:49:04Z</time>
      </trkpt>
      <trkpt lat="42.859055" lon="-0.286633">
        <ele>2015.046</ele>
        <time>2020-07-21T05:49:06Z</time>
      </trkpt>
      <trkpt lat="42.859104" lon="-0.286595">
        <ele>2014.395</ele>
        <time>2020-07-21T05:49:16Z</time>
      </trkpt>
      <trkpt lat="42.859121" lon="-0.286539">
        <ele>2012.989</ele>
        <time>2020-07-21T05:49:18Z</time>
      </trkpt>
      <trkpt lat="42.859111" lon="-0.286468">
        <ele>2013.558</ele>
        <time>2020-07-21T05:49:27Z</time>
      </trkpt>
      <trkpt lat="42.859136" lon="-0.286378">
        <ele>2012.533</ele>
        <time>2020-07-21T05:49:33Z</time>
      </trkpt>
      <trkpt lat="42.859161" lon="-0.286308">
        <ele>2011.723</ele>
        <time>2020-07-21T05:49:34Z</time>
      </trkpt>
      <trkpt lat="42.859202" lon="-0.286275">
        <ele>2011.915</ele>
        <time>2020-07-21T05:49:43Z</time>
      </trkpt>
      <trkpt lat="42.859250" lon="-0.286298">
        <ele>2011.608</ele>
        <time>2020-07-21T05:49:49Z</time>
      </trkpt>
      <trkpt lat="42.859302" lon="-0.286322">
        <ele>2010.758</ele>
        <time>2020-07-21T05:49:54Z</time>
      </trkpt>
      <trkpt lat="42.859329" lon="-0.286281">
        <ele>2009.486</ele>
        <time>2020-07-21T05:50:02Z</time>
      </trkpt>
      <trkpt lat="42.859358" lon="-0.286277">
        <ele>2006.710</ele>
        <time>2020-07-21T05:50:16Z</time>
      </trkpt>
      <trkpt lat="42.859383" lon="-0.286283">
        <ele>2005.695</ele>
        <time>2020-07-21T05:50:27Z</time>
      </trkpt>
      <trkpt lat="42.859408" lon="-0.286298">
        <ele>2004.542</ele>
        <time>2020-07-21T05:50:32Z</time>
      </trkpt>
      <trkpt lat="42.859429" lon="-0.286346">
        <ele>2001.921</ele>
        <time>2020-07-21T05:50:48Z</time>
      </trkpt>
      <trkpt lat="42.859493" lon="-0.286320">
        <ele>2000.545</ele>
        <time>2020-07-21T05:50:59Z</time>
      </trkpt>
      <trkpt lat="42.859525" lon="-0.286369">
        <ele>1999.484</ele>
        <time>2020-07-21T05:51:02Z</time>
      </trkpt>
      <trkpt lat="42.859579" lon="-0.286416">
        <ele>1997.874</ele>
        <time>2020-07-21T05:51:12Z</time>
      </trkpt>
      <trkpt lat="42.859629" lon="-0.286467">
        <ele>1997.656</ele>
        <time>2020-07-21T05:51:19Z</time>
      </trkpt>
      <trkpt lat="42.859665" lon="-0.286462">
        <ele>1994.821</ele>
        <time>2020-07-21T05:51:27Z</time>
      </trkpt>
      <trkpt lat="42.859648" lon="-0.286419">
        <ele>1995.308</ele>
        <time>2020-07-21T05:51:36Z</time>
      </trkpt>
      <trkpt lat="42.859650" lon="-0.286375">
        <ele>1994.662</ele>
        <time>2020-07-21T05:51:44Z</time>
      </trkpt>
      <trkpt lat="42.859644" lon="-0.286311">
        <ele>1994.330</ele>
        <time>2020-07-21T05:51:49Z</time>
      </trkpt>
      <trkpt lat="42.859651" lon="-0.286253">
        <ele>1993.784</ele>
        <time>2020-07-21T05:51:54Z</time>
      </trkpt>
      <trkpt lat="42.859673" lon="-0.286215">
        <ele>1993.239</ele>
        <time>2020-07-21T05:52:00Z</time>
      </trkpt>
      <trkpt lat="42.859694" lon="-0.286171">
        <ele>1991.536</ele>
        <time>2020-07-21T05:52:10Z</time>
      </trkpt>
      <trkpt lat="42.859733" lon="-0.286147">
        <ele>1989.795</ele>
        <time>2020-07-21T05:52:19Z</time>
      </trkpt>
      <trkpt lat="42.859767" lon="-0.286068">
        <ele>1987.769</ele>
        <time>2020-07-21T05:52:28Z</time>
      </trkpt>
      <trkpt lat="42.859804" lon="-0.286037">
        <ele>1987.078</ele>
        <time>2020-07-21T05:52:36Z</time>
      </trkpt>
      <trkpt lat="42.859844" lon="-0.285991">
        <ele>1985.245</ele>
        <time>2020-07-21T05:52:44Z</time>
      </trkpt>
      <trkpt lat="42.859857" lon="-0.285957">
        <ele>1983.647</ele>
        <time>2020-07-21T05:52:54Z</time>
      </trkpt>
      <trkpt lat="42.859891" lon="-0.285928">
        <ele>1983.211</ele>
        <time>2020-07-21T05:53:02Z</time>
      </trkpt>
      <trkpt lat="42.859931" lon="-0.285898">
        <ele>1983.008</ele>
        <time>2020-07-21T05:53:08Z</time>
      </trkpt>
      <trkpt lat="42.859980" lon="-0.285871">
        <ele>1981.429</ele>
        <time>2020-07-21T05:53:19Z</time>
      </trkpt>
      <trkpt lat="42.860056" lon="-0.285849">
        <ele>1979.917</ele>
        <time>2020-07-21T05:53:26Z</time>
      </trkpt>
      <trkpt lat="42.860089" lon="-0.285884">
        <ele>1979.031</ele>
        <time>2020-07-21T05:53:32Z</time>
      </trkpt>
      <trkpt lat="42.860097" lon="-0.285987">
        <ele>1978.446</ele>
        <time>2020-07-21T05:53:36Z</time>
      </trkpt>
      <trkpt lat="42.860054" lon="-0.286082">
        <ele>1977.173</ele>
        <time>2020-07-21T05:53:36Z</time>
      </trkpt>
      <trkpt lat="42.860014" lon="-0.286111">
        <ele>1977.572</ele>
        <time>2020-07-21T05:53:46Z</time>
      </trkpt>
      <trkpt lat="42.859987" lon="-0.286195">
        <ele>1976.286</ele>
        <time>2020-07-21T05:53:54Z</time>
      </trkpt>
      <trkpt lat="42.860025" lon="-0.286249">
        <ele>1975.035</ele>
        <time>2020-07-21T05:54:05Z</time>
      </trkpt>
      <trkpt lat="42.860052" lon="-0.286257">
        <ele>1973.648</ele>
        <time>2020-07-21T05:54:14Z</time>
      </trkpt>
      <trkpt lat="42.860084" lon="-0.286310">
        <ele>1973.161</ele>
        <time>2020-07-21T05:54:18Z</time>
      </trkpt>
      <trkpt lat="42.860106" lon="-0.286343">
        <ele>1971.817</ele>
        <time>2020-07-21T05:54:32Z</time>
      </trkpt>
      <trkpt lat="42.860128" lon="-0.286359">
        <ele>1970.508</ele>
        <time>2020-07-21T05:54:46Z</time>
      </trkpt>
      <trkpt lat="42.860131" lon="-0.286411">
        <ele>1966.179</ele>
        <time>2020-07-21T05:55:50Z</time>
      </trkpt>
      <trkpt lat="42.860167" lon="-0.286398">
        <ele>1962.987</ele>
        <time>2020-07-21T05:56:18Z</time>
      </trkpt>
      <trkpt lat="42.860186" lon="-0.286459">
        <ele>1960.921</ele>
        <time>2020-07-21T05:56:28Z</time>
      </trkpt>
      <trkpt lat="42.860215" lon="-0.286517">
        <ele>1959.346</ele>
        <time>2020-07-21T05:56:40Z</time>
      </trkpt>
      <trkpt lat="42.860222" lon="-0.286587">
        <ele>1958.993</ele>
        <time>2020-07-21T05:56:45Z</time>
      </trkpt>
      <trkpt lat="42.860202" lon="-0.286679">
        <ele>1958.522</ele>
        <time>2020-07-21T05:56:49Z</time>
      </trkpt>
      <trkpt lat="42.860204" lon="-0.286722">
        <ele>1957.826</ele>
        <time>2020-07-21T05:56:54Z</time>
      </trkpt>
      <trkpt lat="42.860230" lon="-0.286715">
        <ele>1954.245</ele>
        <time>2020-07-21T05:57:15Z</time>
      </trkpt>
      <trkpt lat="42.860258" lon="-0.286771">
        <ele>1953.044</ele>
        <time>2020-07-21T05:57:27Z</time>
      </trkpt>
      <trkpt lat="42.860298" lon="-0.286795">
        <ele>1951.905</ele>
        <time>2020-07-21T05:57:35Z</time>
      </trkpt>
      <trkpt lat="42.860328" lon="-0.286732">
        <ele>1951.315</ele>
        <time>2020-07-21T05:57:40Z</time>
      </trkpt>
      <trkpt lat="42.860376" lon="-0.286739">
        <ele>1949.508</ele>
        <time>2020-07-21T05:57:50Z</time>
      </trkpt>
      <trkpt lat="42.860398" lon="-0.286782">
        <ele>1948.379</ele>
        <time>2020-07-21T05:58:04Z</time>
      </trkpt>
      <trkpt lat="42.860431" lon="-0.286802">
        <ele>1946.577</ele>
        <time>2020-07-21T05:58:12Z</time>
      </trkpt>
      <trkpt lat="42.860455" lon="-0.286845">
        <ele>1945.351</ele>
        <time>2020-07-21T05:58:20Z</time>
      </trkpt>
      <trkpt lat="42.860466" lon="-0.286914">
        <ele>1943.376</ele>
        <time>2020-07-21T05:58:28Z</time>
      </trkpt>
      <trkpt lat="42.860456" lon="-0.286979">
        <ele>1942.793</ele>
        <time>2020-07-21T05:58:33Z</time>
      </trkpt>
      <trkpt lat="42.860459" lon="-0.287042">
        <ele>1941.912</ele>
        <time>2020-07-21T05:58:39Z</time>
      </trkpt>
      <trkpt lat="42.860462" lon="-0.287109">
        <ele>1941.336</ele>
        <time>2020-07-21T05:58:43Z</time>
      </trkpt>
      <trkpt lat="42.860478" lon="-0.287180">
        <ele>1940.785</ele>
        <time>2020-07-21T05:58:50Z</time>
      </trkpt>
      <trkpt lat="42.860482" lon="-0.287223">
        <ele>1939.365</ele>
        <time>2020-07-21T05:58:58Z</time>
      </trkpt>
      <trkpt lat="42.860506" lon="-0.287140">
        <ele>1938.868</ele>
        <time>2020-07-21T05:59:04Z</time>
      </trkpt>
      <trkpt lat="42.860508" lon="-0.287056">
        <ele>1938.314</ele>
        <time>2020-07-21T05:59:09Z</time>
      </trkpt>
      <trkpt lat="42.860529" lon="-0.286975">
        <ele>1936.808</ele>
        <time>2020-07-21T05:59:17Z</time>
      </trkpt>
      <trkpt lat="42.860579" lon="-0.287006">
        <ele>1935.361</ele>
        <time>2020-07-21T05:59:25Z</time>
      </trkpt>
      <trkpt lat="42.860588" lon="-0.287132">
        <ele>1935.329</ele>
        <time>2020-07-21T05:59:29Z</time>
      </trkpt>
      <trkpt lat="42.860650" lon="-0.287133">
        <ele>1932.213</ele>
        <time>2020-07-21T05:59:44Z</time>
      </trkpt>
      <trkpt lat="42.860680" lon="-0.287067">
        <ele>1931.048</ele>
        <time>2020-07-21T05:59:52Z</time>
      </trkpt>
      <trkpt lat="42.860707" lon="-0.287031">
        <ele>1930.995</ele>
        <time>2020-07-21T05:59:58Z</time>
      </trkpt>
      <trkpt lat="42.860747" lon="-0.287038">
        <ele>1930.024</ele>
        <time>2020-07-21T06:00:04Z</time>
      </trkpt>
      <trkpt lat="42.860775" lon="-0.287012">
        <ele>1928.328</ele>
        <time>2020-07-21T06:00:11Z</time>
      </trkpt>
      <trkpt lat="42.860807" lon="-0.287044">
        <ele>1927.377</ele>
        <time>2020-07-21T06:00:22Z</time>
      </trkpt>
      <trkpt lat="42.860820" lon="-0.287084">
        <ele>1926.061</ele>
        <time>2020-07-21T06:00:30Z</time>
      </trkpt>
      <trkpt lat="42.860848" lon="-0.287042">
        <ele>1925.221</ele>
        <time>2020-07-21T06:00:33Z</time>
      </trkpt>
      <trkpt lat="42.860860" lon="-0.286983">
        <ele>1923.713</ele>
        <time>2020-07-21T06:00:43Z</time>
      </trkpt>
      <trkpt lat="42.860830" lon="-0.286917">
        <ele>1922.708</ele>
        <time>2020-07-21T06:00:49Z</time>
      </trkpt>
      <trkpt lat="42.860843" lon="-0.286846">
        <ele>1921.521</ele>
        <time>2020-07-21T06:00:54Z</time>
      </trkpt>
      <trkpt lat="42.860881" lon="-0.286813">
        <ele>1921.159</ele>
        <time>2020-07-21T06:00:57Z</time>
      </trkpt>
      <trkpt lat="42.860923" lon="-0.286787">
        <ele>1920.173</ele>
        <time>2020-07-21T06:01:05Z</time>
      </trkpt>
      <trkpt lat="42.860958" lon="-0.286792">
        <ele>1919.248</ele>
        <time>2020-07-21T06:01:13Z</time>
      </trkpt>
      <trkpt lat="42.860986" lon="-0.286822">
        <ele>1918.455</ele>
        <time>2020-07-21T06:01:18Z</time>
      </trkpt>
      <trkpt lat="42.861010" lon="-0.286821">
        <ele>1915.044</ele>
        <time>2020-07-21T06:01:38Z</time>
      </trkpt>
      <trkpt lat="42.861039" lon="-0.286783">
        <ele>1914.298</ele>
        <time>2020-07-21T06:01:44Z</time>
      </trkpt>
      <trkpt lat="42.861060" lon="-0.286859">
        <ele>1912.327</ele>
        <time>2020-07-21T06:01:57Z</time>
      </trkpt>
      <trkpt lat="42.861088" lon="-0.286903">
        <ele>1911.322</ele>
        <time>2020-07-21T06:02:03Z</time>
      </trkpt>
      <trkpt lat="42.861115" lon="-0.286876">
        <ele>1909.862</ele>
        <time>2020-07-21T06:02:10Z</time>
      </trkpt>
      <trkpt lat="42.861139" lon="-0.286953">
        <ele>1908.408</ele>
        <time>2020-07-21T06:02:21Z</time>
      </trkpt>
      <trkpt lat="42.861207" lon="-0.286911">
        <ele>1904.508</ele>
        <time>2020-07-21T06:02:35Z</time>
      </trkpt>
      <trkpt lat="42.861238" lon="-0.286859">
        <ele>1904.827</ele>
        <time>2020-07-21T06:02:44Z</time>
      </trkpt>
      <trkpt lat="42.861268" lon="-0.286802">
        <ele>1903.385</ele>
        <time>2020-07-21T06:02:49Z</time>
      </trkpt>
      <trkpt lat="42.861288" lon="-0.286735">
        <ele>1903.489</ele>
        <time>2020-07-21T06:02:57Z</time>
      </trkpt>
      <trkpt lat="42.861305" lon="-0.286674">
        <ele>1902.264</ele>
        <time>2020-07-21T06:03:02Z</time>
      </trkpt>
      <trkpt lat="42.861344" lon="-0.286630">
        <ele>1901.651</ele>
        <time>2020-07-21T06:03:05Z</time>
      </trkpt>
      <trkpt lat="42.861364" lon="-0.286582">
        <ele>1900.840</ele>
        <time>2020-07-21T06:03:15Z</time>
      </trkpt>
      <trkpt lat="42.861404" lon="-0.286560">
        <ele>1900.114</ele>
        <time>2020-07-21T06:03:21Z</time>
      </trkpt>
      <trkpt lat="42.861448" lon="-0.286537">
        <ele>1898.723</ele>
        <time>2020-07-21T06:03:28Z</time>
      </trkpt>
      <trkpt lat="42.861496" lon="-0.286557">
        <ele>1897.219</ele>
        <time>2020-07-21T06:03:35Z</time>
      </trkpt>
      <trkpt lat="42.861550" lon="-0.286530">
        <ele>1896.709</ele>
        <time>2020-07-21T06:03:40Z</time>
      </trkpt>
      <trkpt lat="42.861593" lon="-0.286504">
        <ele>1895.419</ele>
        <time>2020-07-21T06:03:46Z</time>
      </trkpt>
      <trkpt lat="42.861633" lon="-0.286457">
        <ele>1894.708</ele>
        <time>2020-07-21T06:03:52Z</time>
      </trkpt>
      <trkpt lat="42.861688" lon="-0.286440">
        <ele>1893.386</ele>
        <time>2020-07-21T06:04:22Z</time>
      </trkpt>
      <trkpt lat="42.861743" lon="-0.286420">
        <ele>1893.994</ele>
        <time>2020-07-21T06:04:27Z</time>
      </trkpt>
      <trkpt lat="42.861793" lon="-0.286376">
        <ele>1892.598</ele>
        <time>2020-07-21T06:04:34Z</time>
      </trkpt>
      <trkpt lat="42.861837" lon="-0.286325">
        <ele>1891.513</ele>
        <time>2020-07-21T06:04:37Z</time>
      </trkpt>
      <trkpt lat="42.861865" lon="-0.286319">
        <ele>1890.690</ele>
        <time>2020-07-21T06:04:44Z</time>
      </trkpt>
      <trkpt lat="42.861911" lon="-0.286311">
        <ele>1890.549</ele>
        <time>2020-07-21T06:04:49Z</time>
      </trkpt>
      <trkpt lat="42.861953" lon="-0.286332">
        <ele>1889.523</ele>
        <time>2020-07-21T06:04:53Z</time>
      </trkpt>
      <trkpt lat="42.861991" lon="-0.286340">
        <ele>1889.252</ele>
        <time>2020-07-21T06:04:57Z</time>
      </trkpt>
      <trkpt lat="42.862030" lon="-0.286341">
        <ele>1888.158</ele>
        <time>2020-07-21T06:05:02Z</time>
      </trkpt>
      <trkpt lat="42.862070" lon="-0.286316">
        <ele>1886.952</ele>
        <time>2020-07-21T06:05:07Z</time>
      </trkpt>
      <trkpt lat="42.862093" lon="-0.286283">
        <ele>1886.517</ele>
        <time>2020-07-21T06:05:13Z</time>
      </trkpt>
      <trkpt lat="42.862134" lon="-0.286239">
        <ele>1885.708</ele>
        <time>2020-07-21T06:05:19Z</time>
      </trkpt>
      <trkpt lat="42.862173" lon="-0.286260">
        <ele>1884.470</ele>
        <time>2020-07-21T06:05:26Z</time>
      </trkpt>
      <trkpt lat="42.862213" lon="-0.286254">
        <ele>1882.528</ele>
        <time>2020-07-21T06:05:33Z</time>
      </trkpt>
      <trkpt lat="42.862257" lon="-0.286269">
        <ele>1882.162</ele>
        <time>2020-07-21T06:05:43Z</time>
      </trkpt>
      <trkpt lat="42.862304" lon="-0.286245">
        <ele>1881.277</ele>
        <time>2020-07-21T06:05:50Z</time>
      </trkpt>
      <trkpt lat="42.862346" lon="-0.286199">
        <ele>1880.984</ele>
        <time>2020-07-21T06:05:57Z</time>
      </trkpt>
      <trkpt lat="42.862372" lon="-0.286141">
        <ele>1880.883</ele>
        <time>2020-07-21T06:06:01Z</time>
      </trkpt>
      <trkpt lat="42.862388" lon="-0.286078">
        <ele>1879.797</ele>
        <time>2020-07-21T06:06:03Z</time>
      </trkpt>
      <trkpt lat="42.862424" lon="-0.286053">
        <ele>1878.466</ele>
        <time>2020-07-21T06:06:09Z</time>
      </trkpt>
      <trkpt lat="42.862455" lon="-0.286051">
        <ele>1877.982</ele>
        <time>2020-07-21T06:06:19Z</time>
      </trkpt>
      <trkpt lat="42.862488" lon="-0.286008">
        <ele>1876.443</ele>
        <time>2020-07-21T06:06:27Z</time>
      </trkpt>
      <trkpt lat="42.862525" lon="-0.286004">
        <ele>1875.617</ele>
        <time>2020-07-21T06:06:33Z</time>
      </trkpt>
      <trkpt lat="42.862557" lon="-0.286039">
        <ele>1874.608</ele>
        <time>2020-07-21T06:06:41Z</time>
      </trkpt>
      <trkpt lat="42.862600" lon="-0.286066">
        <ele>1873.763</ele>
        <time>2020-07-21T06:06:47Z</time>
      </trkpt>
      <trkpt lat="42.862652" lon="-0.286080">
        <ele>1872.651</ele>
        <time>2020-07-21T06:06:55Z</time>
      </trkpt>
      <trkpt lat="42.862724" lon="-0.286077">
        <ele>1871.865</ele>
        <time>2020-07-21T06:07:01Z</time>
      </trkpt>
      <trkpt lat="42.862780" lon="-0.286021">
        <ele>1870.250</ele>
        <time>2020-07-21T06:07:07Z</time>
      </trkpt>
      <trkpt lat="42.862817" lon="-0.285961">
        <ele>1869.637</ele>
        <time>2020-07-21T06:07:19Z</time>
      </trkpt>
      <trkpt lat="42.862842" lon="-0.285925">
        <ele>1868.916</ele>
        <time>2020-07-21T06:07:25Z</time>
      </trkpt>
      <trkpt lat="42.862863" lon="-0.285873">
        <ele>1867.990</ele>
        <time>2020-07-21T06:07:31Z</time>
      </trkpt>
      <trkpt lat="42.862866" lon="-0.285806">
        <ele>1867.289</ele>
        <time>2020-07-21T06:07:39Z</time>
      </trkpt>
      <trkpt lat="42.862898" lon="-0.285776">
        <ele>1866.412</ele>
        <time>2020-07-21T06:07:50Z</time>
      </trkpt>
      <trkpt lat="42.862955" lon="-0.285750">
        <ele>1866.432</ele>
        <time>2020-07-21T06:07:53Z</time>
      </trkpt>
      <trkpt lat="42.862987" lon="-0.285697">
        <ele>1864.905</ele>
        <time>2020-07-21T06:08:02Z</time>
      </trkpt>
      <trkpt lat="42.863015" lon="-0.285667">
        <ele>1863.808</ele>
        <time>2020-07-21T06:08:08Z</time>
      </trkpt>
      <trkpt lat="42.863049" lon="-0.285635">
        <ele>1864.066</ele>
        <time>2020-07-21T06:08:15Z</time>
      </trkpt>
      <trkpt lat="42.863078" lon="-0.285594">
        <ele>1863.654</ele>
        <time>2020-07-21T06:08:21Z</time>
      </trkpt>
      <trkpt lat="42.863121" lon="-0.285568">
        <ele>1863.878</ele>
        <time>2020-07-21T06:08:28Z</time>
      </trkpt>
      <trkpt lat="42.863166" lon="-0.285583">
        <ele>1863.453</ele>
        <time>2020-07-21T06:08:34Z</time>
      </trkpt>
      <trkpt lat="42.863206" lon="-0.285616">
        <ele>1862.110</ele>
        <time>2020-07-21T06:08:43Z</time>
      </trkpt>
      <trkpt lat="42.863261" lon="-0.285594">
        <ele>1861.749</ele>
        <time>2020-07-21T06:08:47Z</time>
      </trkpt>
      <trkpt lat="42.863313" lon="-0.285567">
        <ele>1860.423</ele>
        <time>2020-07-21T06:08:56Z</time>
      </trkpt>
      <trkpt lat="42.863352" lon="-0.285530">
        <ele>1859.182</ele>
        <time>2020-07-21T06:09:02Z</time>
      </trkpt>
      <trkpt lat="42.863374" lon="-0.285527">
        <ele>1858.943</ele>
        <time>2020-07-21T06:09:05Z</time>
      </trkpt>
      <trkpt lat="42.863377" lon="-0.285569">
        <ele>1857.564</ele>
        <time>2020-07-21T06:09:16Z</time>
      </trkpt>
      <trkpt lat="42.863367" lon="-0.285615">
        <ele>1856.510</ele>
        <time>2020-07-21T06:09:20Z</time>
      </trkpt>
      <trkpt lat="42.863356" lon="-0.285675">
        <ele>1856.308</ele>
        <time>2020-07-21T06:09:24Z</time>
      </trkpt>
      <trkpt lat="42.863383" lon="-0.285701">
        <ele>1855.189</ele>
        <time>2020-07-21T06:09:30Z</time>
      </trkpt>
      <trkpt lat="42.863403" lon="-0.285721">
        <ele>1854.867</ele>
        <time>2020-07-21T06:09:38Z</time>
      </trkpt>
      <trkpt lat="42.863384" lon="-0.285774">
        <ele>1852.421</ele>
        <time>2020-07-21T06:09:51Z</time>
      </trkpt>
      <trkpt lat="42.863448" lon="-0.285739">
        <ele>1851.116</ele>
        <time>2020-07-21T06:09:57Z</time>
      </trkpt>
      <trkpt lat="42.863481" lon="-0.285774">
        <ele>1850.323</ele>
        <time>2020-07-21T06:10:07Z</time>
      </trkpt>
      <trkpt lat="42.863531" lon="-0.285716">
        <ele>1847.422</ele>
        <time>2020-07-21T06:10:25Z</time>
      </trkpt>
      <trkpt lat="42.863577" lon="-0.285735">
        <ele>1846.746</ele>
        <time>2020-07-21T06:10:31Z</time>
      </trkpt>
      <trkpt lat="42.863626" lon="-0.285677">
        <ele>1845.325</ele>
        <time>2020-07-21T06:10:35Z</time>
      </trkpt>
      <trkpt lat="42.863656" lon="-0.285610">
        <ele>1844.423</ele>
        <time>2020-07-21T06:10:46Z</time>
      </trkpt>
      <trkpt lat="42.863684" lon="-0.285585">
        <ele>1842.983</ele>
        <time>2020-07-21T06:10:51Z</time>
      </trkpt>
      <trkpt lat="42.863703" lon="-0.285604">
        <ele>1842.011</ele>
        <time>2020-07-21T06:10:59Z</time>
      </trkpt>
      <trkpt lat="42.863716" lon="-0.285645">
        <ele>1840.108</ele>
        <time>2020-07-21T06:11:08Z</time>
      </trkpt>
      <trkpt lat="42.863712" lon="-0.285685">
        <ele>1840.087</ele>
        <time>2020-07-21T06:11:12Z</time>
      </trkpt>
      <trkpt lat="42.863700" lon="-0.285733">
        <ele>1839.635</ele>
        <time>2020-07-21T06:11:15Z</time>
      </trkpt>
      <trkpt lat="42.863692" lon="-0.285796">
        <ele>1838.619</ele>
        <time>2020-07-21T06:11:19Z</time>
      </trkpt>
      <trkpt lat="42.863722" lon="-0.285839">
        <ele>1838.044</ele>
        <time>2020-07-21T06:11:27Z</time>
      </trkpt>
      <trkpt lat="42.863785" lon="-0.285822">
        <ele>1835.871</ele>
        <time>2020-07-21T06:11:33Z</time>
      </trkpt>
      <trkpt lat="42.863814" lon="-0.285756">
        <ele>1835.550</ele>
        <time>2020-07-21T06:11:41Z</time>
      </trkpt>
      <trkpt lat="42.863829" lon="-0.285693">
        <ele>1833.754</ele>
        <time>2020-07-21T06:11:47Z</time>
      </trkpt>
      <trkpt lat="42.863831" lon="-0.285626">
        <ele>1832.943</ele>
        <time>2020-07-21T06:11:53Z</time>
      </trkpt>
      <trkpt lat="42.863812" lon="-0.285554">
        <ele>1832.482</ele>
        <time>2020-07-21T06:11:57Z</time>
      </trkpt>
      <trkpt lat="42.863859" lon="-0.285477">
        <ele>1832.543</ele>
        <time>2020-07-21T06:12:02Z</time>
      </trkpt>
      <trkpt lat="42.863860" lon="-0.285397">
        <ele>1832.517</ele>
        <time>2020-07-21T06:12:07Z</time>
      </trkpt>
      <trkpt lat="42.863866" lon="-0.285345">
        <ele>1831.808</ele>
        <time>2020-07-21T06:12:12Z</time>
      </trkpt>
      <trkpt lat="42.863899" lon="-0.285310">
        <ele>1829.863</ele>
        <time>2020-07-21T06:12:21Z</time>
      </trkpt>
      <trkpt lat="42.863915" lon="-0.285255">
        <ele>1827.571</ele>
        <time>2020-07-21T06:12:34Z</time>
      </trkpt>
      <trkpt lat="42.863928" lon="-0.285192">
        <ele>1826.895</ele>
        <time>2020-07-21T06:12:41Z</time>
      </trkpt>
      <trkpt lat="42.863953" lon="-0.285137">
        <ele>1825.690</ele>
        <time>2020-07-21T06:12:50Z</time>
      </trkpt>
      <trkpt lat="42.863986" lon="-0.285095">
        <ele>1824.117</ele>
        <time>2020-07-21T06:12:57Z</time>
      </trkpt>
      <trkpt lat="42.864028" lon="-0.285148">
        <ele>1823.196</ele>
        <time>2020-07-21T06:13:03Z</time>
      </trkpt>
      <trkpt lat="42.864091" lon="-0.285128">
        <ele>1821.930</ele>
        <time>2020-07-21T06:13:13Z</time>
      </trkpt>
      <trkpt lat="42.864117" lon="-0.285062">
        <ele>1820.539</ele>
        <time>2020-07-21T06:13:21Z</time>
      </trkpt>
      <trkpt lat="42.864124" lon="-0.284997">
        <ele>1820.352</ele>
        <time>2020-07-21T06:13:28Z</time>
      </trkpt>
      <trkpt lat="42.864145" lon="-0.284955">
        <ele>1819.053</ele>
        <time>2020-07-21T06:13:38Z</time>
      </trkpt>
      <trkpt lat="42.864177" lon="-0.284931">
        <ele>1818.508</ele>
        <time>2020-07-21T06:13:45Z</time>
      </trkpt>
      <trkpt lat="42.864184" lon="-0.284869">
        <ele>1818.108</ele>
        <time>2020-07-21T06:13:50Z</time>
      </trkpt>
      <trkpt lat="42.864191" lon="-0.284799">
        <ele>1817.070</ele>
        <time>2020-07-21T06:14:01Z</time>
      </trkpt>
      <trkpt lat="42.864164" lon="-0.284755">
        <ele>1815.748</ele>
        <time>2020-07-21T06:14:09Z</time>
      </trkpt>
      <trkpt lat="42.864164" lon="-0.284688">
        <ele>1814.592</ele>
        <time>2020-07-21T06:14:16Z</time>
      </trkpt>
      <trkpt lat="42.864139" lon="-0.284616">
        <ele>1814.217</ele>
        <time>2020-07-21T06:14:24Z</time>
      </trkpt>
      <trkpt lat="42.864171" lon="-0.284575">
        <ele>1813.034</ele>
        <time>2020-07-21T06:14:30Z</time>
      </trkpt>
      <trkpt lat="42.864188" lon="-0.284544">
        <ele>1812.463</ele>
        <time>2020-07-21T06:14:38Z</time>
      </trkpt>
      <trkpt lat="42.864222" lon="-0.284509">
        <ele>1811.447</ele>
        <time>2020-07-21T06:14:43Z</time>
      </trkpt>
      <trkpt lat="42.864270" lon="-0.284507">
        <ele>1810.196</ele>
        <time>2020-07-21T06:14:47Z</time>
      </trkpt>
      <trkpt lat="42.864318" lon="-0.284489">
        <ele>1811.279</ele>
        <time>2020-07-21T06:14:49Z</time>
      </trkpt>
      <trkpt lat="42.864378" lon="-0.284478">
        <ele>1811.605</ele>
        <time>2020-07-21T06:14:53Z</time>
      </trkpt>
      <trkpt lat="42.864427" lon="-0.284444">
        <ele>1811.425</ele>
        <time>2020-07-21T06:15:01Z</time>
      </trkpt>
      <trkpt lat="42.864464" lon="-0.284435">
        <ele>1810.708</ele>
        <time>2020-07-21T06:15:06Z</time>
      </trkpt>
      <trkpt lat="42.864497" lon="-0.284394">
        <ele>1812.272</ele>
        <time>2020-07-21T06:15:11Z</time>
      </trkpt>
      <trkpt lat="42.864544" lon="-0.284363">
        <ele>1810.550</ele>
        <time>2020-07-21T06:15:19Z</time>
      </trkpt>
      <trkpt lat="42.864580" lon="-0.284352">
        <ele>1809.754</ele>
        <time>2020-07-21T06:15:25Z</time>
      </trkpt>
      <trkpt lat="42.864578" lon="-0.284306">
        <ele>1808.819</ele>
        <time>2020-07-21T06:15:37Z</time>
      </trkpt>
      <trkpt lat="42.864534" lon="-0.284264">
        <ele>1807.256</ele>
        <time>2020-07-21T06:15:44Z</time>
      </trkpt>
      <trkpt lat="42.864525" lon="-0.284199">
        <ele>1807.075</ele>
        <time>2020-07-21T06:15:51Z</time>
      </trkpt>
      <trkpt lat="42.864537" lon="-0.284150">
        <ele>1805.599</ele>
        <time>2020-07-21T06:15:58Z</time>
      </trkpt>
      <trkpt lat="42.864570" lon="-0.284118">
        <ele>1804.888</ele>
        <time>2020-07-21T06:16:06Z</time>
      </trkpt>
      <trkpt lat="42.864574" lon="-0.284050">
        <ele>1800.982</ele>
        <time>2020-07-21T06:16:28Z</time>
      </trkpt>
      <trkpt lat="42.864567" lon="-0.283981">
        <ele>1800.543</ele>
        <time>2020-07-21T06:16:34Z</time>
      </trkpt>
      <trkpt lat="42.864646" lon="-0.283945">
        <ele>1799.317</ele>
        <time>2020-07-21T06:16:39Z</time>
      </trkpt>
      <trkpt lat="42.864665" lon="-0.283882">
        <ele>1797.608</ele>
        <time>2020-07-21T06:16:52Z</time>
      </trkpt>
      <trkpt lat="42.864719" lon="-0.283864">
        <ele>1796.173</ele>
        <time>2020-07-21T06:16:58Z</time>
      </trkpt>
      <trkpt lat="42.864748" lon="-0.283812">
        <ele>1795.761</ele>
        <time>2020-07-21T06:17:05Z</time>
      </trkpt>
      <trkpt lat="42.864767" lon="-0.283755">
        <ele>1795.225</ele>
        <time>2020-07-21T06:17:09Z</time>
      </trkpt>
      <trkpt lat="42.864788" lon="-0.283693">
        <ele>1794.050</ele>
        <time>2020-07-21T06:17:14Z</time>
      </trkpt>
      <trkpt lat="42.864812" lon="-0.283639">
        <ele>1795.627</ele>
        <time>2020-07-21T06:17:19Z</time>
      </trkpt>
      <trkpt lat="42.864818" lon="-0.283573">
        <ele>1794.016</ele>
        <time>2020-07-21T06:17:24Z</time>
      </trkpt>
      <trkpt lat="42.864828" lon="-0.283505">
        <ele>1793.570</ele>
        <time>2020-07-21T06:17:29Z</time>
      </trkpt>
      <trkpt lat="42.864840" lon="-0.283434">
        <ele>1793.519</ele>
        <time>2020-07-21T06:17:33Z</time>
      </trkpt>
      <trkpt lat="42.864874" lon="-0.283387">
        <ele>1792.912</ele>
        <time>2020-07-21T06:17:37Z</time>
      </trkpt>
      <trkpt lat="42.864904" lon="-0.283324">
        <ele>1792.232</ele>
        <time>2020-07-21T06:17:43Z</time>
      </trkpt>
      <trkpt lat="42.864947" lon="-0.283276">
        <ele>1792.405</ele>
        <time>2020-07-21T06:17:49Z</time>
      </trkpt>
      <trkpt lat="42.864977" lon="-0.283226">
        <ele>1791.808</ele>
        <time>2020-07-21T06:17:54Z</time>
      </trkpt>
      <trkpt lat="42.864998" lon="-0.283165">
        <ele>1791.996</ele>
        <time>2020-07-21T06:17:58Z</time>
      </trkpt>
      <trkpt lat="42.865039" lon="-0.283122">
        <ele>1791.994</ele>
        <time>2020-07-21T06:18:04Z</time>
      </trkpt>
      <trkpt lat="42.865071" lon="-0.283071">
        <ele>1790.498</ele>
        <time>2020-07-21T06:18:11Z</time>
      </trkpt>
      <trkpt lat="42.865098" lon="-0.283004">
        <ele>1790.593</ele>
        <time>2020-07-21T06:18:55Z</time>
      </trkpt>
      <trkpt lat="42.865118" lon="-0.282924">
        <ele>1790.250</ele>
        <time>2020-07-21T06:18:59Z</time>
      </trkpt>
      <trkpt lat="42.865127" lon="-0.282810">
        <ele>1789.669</ele>
        <time>2020-07-21T06:19:02Z</time>
      </trkpt>
      <trkpt lat="42.865167" lon="-0.282712">
        <ele>1789.243</ele>
        <time>2020-07-21T06:19:06Z</time>
      </trkpt>
      <trkpt lat="42.865227" lon="-0.282742">
        <ele>1788.922</ele>
        <time>2020-07-21T06:19:06Z</time>
      </trkpt>
      <trkpt lat="42.865266" lon="-0.282718">
        <ele>1789.477</ele>
        <time>2020-07-21T06:19:12Z</time>
      </trkpt>
      <trkpt lat="42.865311" lon="-0.282737">
        <ele>1789.961</ele>
        <time>2020-07-21T06:19:23Z</time>
      </trkpt>
      <trkpt lat="42.865355" lon="-0.282746">
        <ele>1788.027</ele>
        <time>2020-07-21T06:19:29Z</time>
      </trkpt>
      <trkpt lat="42.865403" lon="-0.282802">
        <ele>1788.408</ele>
        <time>2020-07-21T06:19:57Z</time>
      </trkpt>
      <trkpt lat="42.865472" lon="-0.282791">
        <ele>1788.572</ele>
        <time>2020-07-21T06:20:01Z</time>
      </trkpt>
      <trkpt lat="42.865554" lon="-0.282774">
        <ele>1788.610</ele>
        <time>2020-07-21T06:20:05Z</time>
      </trkpt>
      <trkpt lat="42.865627" lon="-0.282740">
        <ele>1788.464</ele>
        <time>2020-07-21T06:20:09Z</time>
      </trkpt>
      <trkpt lat="42.865676" lon="-0.282692">
        <ele>1787.939</ele>
        <time>2020-07-21T06:20:12Z</time>
      </trkpt>
      <trkpt lat="42.865724" lon="-0.282655">
        <ele>1787.576</ele>
        <time>2020-07-21T06:20:16Z</time>
      </trkpt>
      <trkpt lat="42.865773" lon="-0.282620">
        <ele>1786.865</ele>
        <time>2020-07-21T06:20:20Z</time>
      </trkpt>
      <trkpt lat="42.865822" lon="-0.282611">
        <ele>1787.389</ele>
        <time>2020-07-21T06:20:25Z</time>
      </trkpt>
      <trkpt lat="42.865872" lon="-0.282588">
        <ele>1787.728</ele>
        <time>2020-07-21T06:20:30Z</time>
      </trkpt>
      <trkpt lat="42.865900" lon="-0.282559">
        <ele>1786.733</ele>
        <time>2020-07-21T06:20:35Z</time>
      </trkpt>
      <trkpt lat="42.865933" lon="-0.282524">
        <ele>1786.423</ele>
        <time>2020-07-21T06:20:38Z</time>
      </trkpt>
      <trkpt lat="42.865951" lon="-0.282461">
        <ele>1787.415</ele>
        <time>2020-07-21T06:20:49Z</time>
      </trkpt>
      <trkpt lat="42.865997" lon="-0.282418">
        <ele>1787.308</ele>
        <time>2020-07-21T06:20:55Z</time>
      </trkpt>
      <trkpt lat="42.866038" lon="-0.282352">
        <ele>1786.588</ele>
        <time>2020-07-21T06:21:00Z</time>
      </trkpt>
      <trkpt lat="42.866071" lon="-0.282292">
        <ele>1785.626</ele>
        <time>2020-07-21T06:21:05Z</time>
      </trkpt>
      <trkpt lat="42.866088" lon="-0.282234">
        <ele>1786.010</ele>
        <time>2020-07-21T06:21:08Z</time>
      </trkpt>
      <trkpt lat="42.866117" lon="-0.282175">
        <ele>1785.965</ele>
        <time>2020-07-21T06:21:13Z</time>
      </trkpt>
      <trkpt lat="42.866158" lon="-0.282135">
        <ele>1786.022</ele>
        <time>2020-07-21T06:21:18Z</time>
      </trkpt>
      <trkpt lat="42.866194" lon="-0.282079">
        <ele>1785.741</ele>
        <time>2020-07-21T06:21:23Z</time>
      </trkpt>
      <trkpt lat="42.866241" lon="-0.282043">
        <ele>1786.015</ele>
        <time>2020-07-21T06:21:28Z</time>
      </trkpt>
      <trkpt lat="42.866287" lon="-0.282029">
        <ele>1785.984</ele>
        <time>2020-07-21T06:21:32Z</time>
      </trkpt>
      <trkpt lat="42.866333" lon="-0.281993">
        <ele>1785.715</ele>
        <time>2020-07-21T06:21:34Z</time>
      </trkpt>
      <trkpt lat="42.866394" lon="-0.281992">
        <ele>1785.165</ele>
        <time>2020-07-21T06:21:55Z</time>
      </trkpt>
      <trkpt lat="42.866445" lon="-0.281967">
        <ele>1783.711</ele>
        <time>2020-07-21T06:21:59Z</time>
      </trkpt>
      <trkpt lat="42.866497" lon="-0.281958">
        <ele>1785.508</ele>
        <time>2020-07-21T06:22:04Z</time>
      </trkpt>
      <trkpt lat="42.866541" lon="-0.281977">
        <ele>1785.016</ele>
        <time>2020-07-21T06:22:10Z</time>
      </trkpt>
      <trkpt lat="42.866592" lon="-0.281967">
        <ele>1785.184</ele>
        <time>2020-07-21T06:22:18Z</time>
      </trkpt>
      <trkpt lat="42.866636" lon="-0.281917">
        <ele>1785.338</ele>
        <time>2020-07-21T06:22:20Z</time>
      </trkpt>
      <trkpt lat="42.866667" lon="-0.281860">
        <ele>1785.233</ele>
        <time>2020-07-21T06:22:29Z</time>
      </trkpt>
      <trkpt lat="42.866710" lon="-0.281820">
        <ele>1785.120</ele>
        <time>2020-07-21T06:22:35Z</time>
      </trkpt>
      <trkpt lat="42.866734" lon="-0.281772">
        <ele>1784.759</ele>
        <time>2020-07-21T06:22:38Z</time>
      </trkpt>
      <trkpt lat="42.866756" lon="-0.281702">
        <ele>1784.023</ele>
        <time>2020-07-21T06:22:48Z</time>
      </trkpt>
      <trkpt lat="42.866792" lon="-0.281645">
        <ele>1783.822</ele>
        <time>2020-07-21T06:22:56Z</time>
      </trkpt>
      <trkpt lat="42.866865" lon="-0.281629">
        <ele>1784.896</ele>
        <time>2020-07-21T06:23:01Z</time>
      </trkpt>
      <trkpt lat="42.866929" lon="-0.281649">
        <ele>1783.631</ele>
        <time>2020-07-21T06:23:08Z</time>
      </trkpt>
      <trkpt lat="42.866970" lon="-0.281614">
        <ele>1783.424</ele>
        <time>2020-07-21T06:23:15Z</time>
      </trkpt>
      <trkpt lat="42.867014" lon="-0.281558">
        <ele>1782.108</ele>
        <time>2020-07-21T06:23:22Z</time>
      </trkpt>
      <trkpt lat="42.867024" lon="-0.281506">
        <ele>1783.824</ele>
        <time>2020-07-21T06:23:28Z</time>
      </trkpt>
      <trkpt lat="42.867025" lon="-0.281455">
        <ele>1783.632</ele>
        <time>2020-07-21T06:23:33Z</time>
      </trkpt>
      <trkpt lat="42.866996" lon="-0.281417">
        <ele>1783.596</ele>
        <time>2020-07-21T06:23:38Z</time>
      </trkpt>
      <trkpt lat="42.866973" lon="-0.281364">
        <ele>1784.031</ele>
        <time>2020-07-21T06:23:42Z</time>
      </trkpt>
      <trkpt lat="42.866959" lon="-0.281304">
        <ele>1784.068</ele>
        <time>2020-07-21T06:23:47Z</time>
      </trkpt>
      <trkpt lat="42.866950" lon="-0.281218">
        <ele>1783.657</ele>
        <time>2020-07-21T06:23:48Z</time>
      </trkpt>
      <trkpt lat="42.866973" lon="-0.281128">
        <ele>1783.421</ele>
        <time>2020-07-21T06:23:56Z</time>
      </trkpt>
      <trkpt lat="42.866995" lon="-0.281051">
        <ele>1783.090</ele>
        <time>2020-07-21T06:24:01Z</time>
      </trkpt>
      <trkpt lat="42.867002" lon="-0.280989">
        <ele>1783.583</ele>
        <time>2020-07-21T06:24:02Z</time>
      </trkpt>
      <trkpt lat="42.867023" lon="-0.280911">
        <ele>1783.225</ele>
        <time>2020-07-21T06:24:43Z</time>
      </trkpt>
      <trkpt lat="42.867047" lon="-0.280848">
        <ele>1783.017</ele>
        <time>2020-07-21T06:24:46Z</time>
      </trkpt>
      <trkpt lat="42.867054" lon="-0.280760">
        <ele>1782.608</ele>
        <time>2020-07-21T06:24:54Z</time>
      </trkpt>
      <trkpt lat="42.867077" lon="-0.280667">
        <ele>1782.923</ele>
        <time>2020-07-21T06:24:58Z</time>
      </trkpt>
      <trkpt lat="42.867152" lon="-0.280655">
        <ele>1782.861</ele>
        <time>2020-07-21T06:25:02Z</time>
      </trkpt>
      <trkpt lat="42.867200" lon="-0.280630">
        <ele>1782.715</ele>
        <time>2020-07-21T06:25:05Z</time>
      </trkpt>
      <trkpt lat="42.867234" lon="-0.280591">
        <ele>1783.350</ele>
        <time>2020-07-21T06:25:09Z</time>
      </trkpt>
      <trkpt lat="42.867267" lon="-0.280543">
        <ele>1782.947</ele>
        <time>2020-07-21T06:25:10Z</time>
      </trkpt>
      <trkpt lat="42.867272" lon="-0.280498">
        <ele>1781.396</ele>
        <time>2020-07-21T06:25:17Z</time>
      </trkpt>
      <trkpt lat="42.867308" lon="-0.280446">
        <ele>1781.590</ele>
        <time>2020-07-21T06:25:21Z</time>
      </trkpt>
      <trkpt lat="42.867340" lon="-0.280381">
        <ele>1781.659</ele>
        <time>2020-07-21T06:25:26Z</time>
      </trkpt>
      <trkpt lat="42.867384" lon="-0.280329">
        <ele>1780.934</ele>
        <time>2020-07-21T06:25:32Z</time>
      </trkpt>
      <trkpt lat="42.867389" lon="-0.280280">
        <ele>1781.555</ele>
        <time>2020-07-21T06:25:34Z</time>
      </trkpt>
      <trkpt lat="42.867385" lon="-0.280232">
        <ele>1781.210</ele>
        <time>2020-07-21T06:25:43Z</time>
      </trkpt>
      <trkpt lat="42.867396" lon="-0.280170">
        <ele>1780.808</ele>
        <time>2020-07-21T06:25:51Z</time>
      </trkpt>
      <trkpt lat="42.867415" lon="-0.280106">
        <ele>1779.918</ele>
        <time>2020-07-21T06:25:57Z</time>
      </trkpt>
      <trkpt lat="42.867419" lon="-0.280033">
        <ele>1779.426</ele>
        <time>2020-07-21T06:26:04Z</time>
      </trkpt>
      <trkpt lat="42.867435" lon="-0.279952">
        <ele>1778.560</ele>
        <time>2020-07-21T06:26:12Z</time>
      </trkpt>
      <trkpt lat="42.867476" lon="-0.279847">
        <ele>1779.395</ele>
        <time>2020-07-21T06:26:20Z</time>
      </trkpt>
      <trkpt lat="42.867526" lon="-0.279819">
        <ele>1778.292</ele>
        <time>2020-07-21T06:26:26Z</time>
      </trkpt>
      <trkpt lat="42.867572" lon="-0.279774">
        <ele>1778.611</ele>
        <time>2020-07-21T06:26:32Z</time>
      </trkpt>
      <trkpt lat="42.867588" lon="-0.279702">
        <ele>1778.815</ele>
        <time>2020-07-21T06:26:39Z</time>
      </trkpt>
      <trkpt lat="42.867593" lon="-0.279629">
        <ele>1778.124</ele>
        <time>2020-07-21T06:26:49Z</time>
      </trkpt>
      <trkpt lat="42.867624" lon="-0.279565">
        <ele>1778.181</ele>
        <time>2020-07-21T06:26:55Z</time>
      </trkpt>
      <trkpt lat="42.867659" lon="-0.279488">
        <ele>1777.161</ele>
        <time>2020-07-21T06:26:59Z</time>
      </trkpt>
      <trkpt lat="42.867723" lon="-0.279432">
        <ele>1776.817</ele>
        <time>2020-07-21T06:27:03Z</time>
      </trkpt>
      <trkpt lat="42.867800" lon="-0.279447">
        <ele>1777.708</ele>
        <time>2020-07-21T06:27:26Z</time>
      </trkpt>
      <trkpt lat="42.867851" lon="-0.279434">
        <ele>1777.323</ele>
        <time>2020-07-21T06:27:33Z</time>
      </trkpt>
      <trkpt lat="42.867902" lon="-0.279418">
        <ele>1776.311</ele>
        <time>2020-07-21T06:27:40Z</time>
      </trkpt>
      <trkpt lat="42.867947" lon="-0.279389">
        <ele>1778.085</ele>
        <time>2020-07-21T06:27:47Z</time>
      </trkpt>
      <trkpt lat="42.867989" lon="-0.279372">
        <ele>1778.040</ele>
        <time>2020-07-21T06:27:53Z</time>
      </trkpt>
      <trkpt lat="42.868037" lon="-0.279330">
        <ele>1777.777</ele>
        <time>2020-07-21T06:27:59Z</time>
      </trkpt>
      <trkpt lat="42.868087" lon="-0.279300">
        <ele>1776.646</ele>
        <time>2020-07-21T06:28:01Z</time>
      </trkpt>
      <trkpt lat="42.868115" lon="-0.279285">
        <ele>1776.990</ele>
        <time>2020-07-21T06:28:07Z</time>
      </trkpt>
      <trkpt lat="42.868134" lon="-0.279198">
        <ele>1777.369</ele>
        <time>2020-07-21T06:28:17Z</time>
      </trkpt>
      <trkpt lat="42.868148" lon="-0.279148">
        <ele>1778.035</ele>
        <time>2020-07-21T06:28:21Z</time>
      </trkpt>
      <trkpt lat="42.868179" lon="-0.279108">
        <ele>1777.086</ele>
        <time>2020-07-21T06:28:33Z</time>
      </trkpt>
      <trkpt lat="42.868204" lon="-0.279048">
        <ele>1775.714</ele>
        <time>2020-07-21T06:28:39Z</time>
      </trkpt>
      <trkpt lat="42.868240" lon="-0.279017">
        <ele>1775.308</ele>
        <time>2020-07-21T06:28:47Z</time>
      </trkpt>
      <trkpt lat="42.868272" lon="-0.278979">
        <ele>1776.888</ele>
        <time>2020-07-21T06:28:56Z</time>
      </trkpt>
      <trkpt lat="42.868302" lon="-0.278950">
        <ele>1777.076</ele>
        <time>2020-07-21T06:29:05Z</time>
      </trkpt>
      <trkpt lat="42.868338" lon="-0.278938">
        <ele>1776.920</ele>
        <time>2020-07-21T06:29:11Z</time>
      </trkpt>
      <trkpt lat="42.868367" lon="-0.278875">
        <ele>1776.455</ele>
        <time>2020-07-21T06:29:16Z</time>
      </trkpt>
      <trkpt lat="42.868405" lon="-0.278875">
        <ele>1776.632</ele>
        <time>2020-07-21T06:29:21Z</time>
      </trkpt>
      <trkpt lat="42.868452" lon="-0.278879">
        <ele>1777.291</ele>
        <time>2020-07-21T06:29:27Z</time>
      </trkpt>
      <trkpt lat="42.868502" lon="-0.278867">
        <ele>1776.415</ele>
        <time>2020-07-21T06:29:35Z</time>
      </trkpt>
      <trkpt lat="42.868545" lon="-0.278836">
        <ele>1777.644</ele>
        <time>2020-07-21T06:29:41Z</time>
      </trkpt>
      <trkpt lat="42.868588" lon="-0.278800">
        <ele>1777.666</ele>
        <time>2020-07-21T06:29:48Z</time>
      </trkpt>
      <trkpt lat="42.868635" lon="-0.278791">
        <ele>1777.029</ele>
        <time>2020-07-21T06:29:53Z</time>
      </trkpt>
      <trkpt lat="42.868687" lon="-0.278786">
        <ele>1777.721</ele>
        <time>2020-07-21T06:30:00Z</time>
      </trkpt>
      <trkpt lat="42.868733" lon="-0.278755">
        <ele>1777.908</ele>
        <time>2020-07-21T06:30:07Z</time>
      </trkpt>
      <trkpt lat="42.868793" lon="-0.278711">
        <ele>1779.311</ele>
        <time>2020-07-21T06:30:31Z</time>
      </trkpt>
      <trkpt lat="42.868825" lon="-0.278674">
        <ele>1779.099</ele>
        <time>2020-07-21T06:30:36Z</time>
      </trkpt>
      <trkpt lat="42.868847" lon="-0.278628">
        <ele>1779.543</ele>
        <time>2020-07-21T06:30:41Z</time>
      </trkpt>
      <trkpt lat="42.868884" lon="-0.278588">
        <ele>1779.788</ele>
        <time>2020-07-21T06:30:46Z</time>
      </trkpt>
      <trkpt lat="42.868916" lon="-0.278539">
        <ele>1779.545</ele>
        <time>2020-07-21T06:30:51Z</time>
      </trkpt>
      <trkpt lat="42.868946" lon="-0.278487">
        <ele>1778.884</ele>
        <time>2020-07-21T06:30:56Z</time>
      </trkpt>
      <trkpt lat="42.868972" lon="-0.278424">
        <ele>1778.078</ele>
        <time>2020-07-21T06:31:02Z</time>
      </trkpt>
      <trkpt lat="42.868995" lon="-0.278368">
        <ele>1778.237</ele>
        <time>2020-07-21T06:31:07Z</time>
      </trkpt>
      <trkpt lat="42.869005" lon="-0.278301">
        <ele>1778.377</ele>
        <time>2020-07-21T06:31:14Z</time>
      </trkpt>
      <trkpt lat="42.869002" lon="-0.278234">
        <ele>1778.061</ele>
        <time>2020-07-21T06:31:20Z</time>
      </trkpt>
      <trkpt lat="42.869004" lon="-0.278167">
        <ele>1777.127</ele>
        <time>2020-07-21T06:31:28Z</time>
      </trkpt>
      <trkpt lat="42.868988" lon="-0.278099">
        <ele>1776.708</ele>
        <time>2020-07-21T06:31:36Z</time>
      </trkpt>
      <trkpt lat="42.868988" lon="-0.278044">
        <ele>1776.892</ele>
        <time>2020-07-21T06:31:41Z</time>
      </trkpt>
      <trkpt lat="42.868970" lon="-0.277972">
        <ele>1775.810</ele>
        <time>2020-07-21T06:31:47Z</time>
      </trkpt>
      <trkpt lat="42.868968" lon="-0.277911">
        <ele>1775.654</ele>
        <time>2020-07-21T06:31:54Z</time>
      </trkpt>
      <trkpt lat="42.868949" lon="-0.277848">
        <ele>1775.819</ele>
        <time>2020-07-21T06:31:57Z</time>
      </trkpt>
      <trkpt lat="42.868941" lon="-0.277779">
        <ele>1776.266</ele>
        <time>2020-07-21T06:32:03Z</time>
      </trkpt>
      <trkpt lat="42.868930" lon="-0.277704">
        <ele>1777.285</ele>
        <time>2020-07-21T06:32:14Z</time>
      </trkpt>
      <trkpt lat="42.868913" lon="-0.277655">
        <ele>1777.059</ele>
        <time>2020-07-21T06:32:20Z</time>
      </trkpt>
      <trkpt lat="42.868884" lon="-0.277590">
        <ele>1776.018</ele>
        <time>2020-07-21T06:32:28Z</time>
      </trkpt>
      <trkpt lat="42.868887" lon="-0.277505">
        <ele>1776.752</ele>
        <time>2020-07-21T06:32:34Z</time>
      </trkpt>
      <trkpt lat="42.868871" lon="-0.277442">
        <ele>1777.353</ele>
        <time>2020-07-21T06:32:37Z</time>
      </trkpt>
      <trkpt lat="42.868862" lon="-0.277374">
        <ele>1776.508</ele>
        <time>2020-07-21T06:32:47Z</time>
      </trkpt>
      <trkpt lat="42.868895" lon="-0.277331">
        <ele>1775.408</ele>
        <time>2020-07-21T06:32:54Z</time>
      </trkpt>
      <trkpt lat="42.868927" lon="-0.277269">
        <ele>1776.210</ele>
        <time>2020-07-21T06:33:01Z</time>
      </trkpt>
      <trkpt lat="42.868920" lon="-0.277200">
        <ele>1775.578</ele>
        <time>2020-07-21T06:33:07Z</time>
      </trkpt>
      <trkpt lat="42.868921" lon="-0.277131">
        <ele>1776.132</ele>
        <time>2020-07-21T06:33:12Z</time>
      </trkpt>
      <trkpt lat="42.868907" lon="-0.277041">
        <ele>1776.247</ele>
        <time>2020-07-21T06:33:19Z</time>
      </trkpt>
      <trkpt lat="42.868935" lon="-0.276968">
        <ele>1774.754</ele>
        <time>2020-07-21T06:33:27Z</time>
      </trkpt>
      <trkpt lat="42.868979" lon="-0.276930">
        <ele>1774.823</ele>
        <time>2020-07-21T06:33:33Z</time>
      </trkpt>
      <trkpt lat="42.869021" lon="-0.276867">
        <ele>1774.057</ele>
        <time>2020-07-21T06:33:41Z</time>
      </trkpt>
      <trkpt lat="42.869046" lon="-0.276802">
        <ele>1774.566</ele>
        <time>2020-07-21T06:33:50Z</time>
      </trkpt>
      <trkpt lat="42.869058" lon="-0.276744">
        <ele>1774.746</ele>
        <time>2020-07-21T06:33:56Z</time>
      </trkpt>
      <trkpt lat="42.869088" lon="-0.276677">
        <ele>1774.488</ele>
        <time>2020-07-21T06:34:02Z</time>
      </trkpt>
      <trkpt lat="42.869109" lon="-0.276600">
        <ele>1773.316</ele>
        <time>2020-07-21T06:34:05Z</time>
      </trkpt>
      <trkpt lat="42.869131" lon="-0.276521">
        <ele>1772.708</ele>
        <time>2020-07-21T06:34:16Z</time>
      </trkpt>
      <trkpt lat="42.869136" lon="-0.276471">
        <ele>1771.989</ele>
        <time>2020-07-21T06:34:23Z</time>
      </trkpt>
      <trkpt lat="42.869141" lon="-0.276414">
        <ele>1772.137</ele>
        <time>2020-07-21T06:34:29Z</time>
      </trkpt>
      <trkpt lat="42.869167" lon="-0.276368">
        <ele>1771.431</ele>
        <time>2020-07-21T06:34:35Z</time>
      </trkpt>
      <trkpt lat="42.869227" lon="-0.276321">
        <ele>1772.166</ele>
        <time>2020-07-21T06:34:42Z</time>
      </trkpt>
      <trkpt lat="42.869288" lon="-0.276302">
        <ele>1774.063</ele>
        <time>2020-07-21T06:34:45Z</time>
      </trkpt>
      <trkpt lat="42.869338" lon="-0.276233">
        <ele>1774.112</ele>
        <time>2020-07-21T06:34:56Z</time>
      </trkpt>
      <trkpt lat="42.869347" lon="-0.276162">
        <ele>1774.116</ele>
        <time>2020-07-21T06:35:02Z</time>
      </trkpt>
      <trkpt lat="42.869326" lon="-0.276074">
        <ele>1774.175</ele>
        <time>2020-07-21T06:35:09Z</time>
      </trkpt>
      <trkpt lat="42.869314" lon="-0.276043">
        <ele>1774.644</ele>
        <time>2020-07-21T06:35:15Z</time>
      </trkpt>
      <trkpt lat="42.869329" lon="-0.276010">
        <ele>1774.905</ele>
        <time>2020-07-21T06:35:19Z</time>
      </trkpt>
      <trkpt lat="42.869311" lon="-0.275965">
        <ele>1774.615</ele>
        <time>2020-07-21T06:35:30Z</time>
      </trkpt>
      <trkpt lat="42.869316" lon="-0.275903">
        <ele>1773.408</ele>
        <time>2020-07-21T06:35:39Z</time>
      </trkpt>
      <trkpt lat="42.869352" lon="-0.275832">
        <ele>1772.469</ele>
        <time>2020-07-21T06:35:43Z</time>
      </trkpt>
      <trkpt lat="42.869376" lon="-0.275759">
        <ele>1771.897</ele>
        <time>2020-07-21T06:35:53Z</time>
      </trkpt>
      <trkpt lat="42.869377" lon="-0.275705">
        <ele>1771.281</ele>
        <time>2020-07-21T06:36:00Z</time>
      </trkpt>
      <trkpt lat="42.869395" lon="-0.275648">
        <ele>1770.456</ele>
        <time>2020-07-21T06:36:08Z</time>
      </trkpt>
      <trkpt lat="42.869404" lon="-0.275594">
        <ele>1770.783</ele>
        <time>2020-07-21T06:36:13Z</time>
      </trkpt>
      <trkpt lat="42.869419" lon="-0.275526">
        <ele>1770.342</ele>
        <time>2020-07-21T06:36:17Z</time>
      </trkpt>
      <trkpt lat="42.869468" lon="-0.275443">
        <ele>1769.696</ele>
        <time>2020-07-21T06:36:29Z</time>
      </trkpt>
      <trkpt lat="42.869461" lon="-0.275359">
        <ele>1768.335</ele>
        <time>2020-07-21T06:36:38Z</time>
      </trkpt>
      <trkpt lat="42.869508" lon="-0.275298">
        <ele>1766.657</ele>
        <time>2020-07-21T06:36:49Z</time>
      </trkpt>
      <trkpt lat="42.869537" lon="-0.275214">
        <ele>1764.700</ele>
        <time>2020-07-21T06:37:01Z</time>
      </trkpt>
      <trkpt lat="42.869513" lon="-0.275139">
        <ele>1763.920</ele>
        <time>2020-07-21T06:37:09Z</time>
      </trkpt>
      <trkpt lat="42.869492" lon="-0.275087">
        <ele>1762.208</ele>
        <time>2020-07-21T06:37:19Z</time>
      </trkpt>
      <trkpt lat="42.869472" lon="-0.275039">
        <ele>1761.590</ele>
        <time>2020-07-21T06:37:28Z</time>
      </trkpt>
      <trkpt lat="42.869475" lon="-0.274980">
        <ele>1761.228</ele>
        <time>2020-07-21T06:37:35Z</time>
      </trkpt>
      <trkpt lat="42.869483" lon="-0.274927">
        <ele>1760.892</ele>
        <time>2020-07-21T06:37:42Z</time>
      </trkpt>
      <trkpt lat="42.869471" lon="-0.274879">
        <ele>1760.637</ele>
        <time>2020-07-21T06:37:50Z</time>
      </trkpt>
      <trkpt lat="42.869429" lon="-0.274942">
        <ele>1760.024</ele>
        <time>2020-07-21T06:37:57Z</time>
      </trkpt>
      <trkpt lat="42.869402" lon="-0.274920">
        <ele>1759.953</ele>
        <time>2020-07-21T06:38:04Z</time>
      </trkpt>
      <trkpt lat="42.869378" lon="-0.274860">
        <ele>1759.757</ele>
        <time>2020-07-21T06:38:13Z</time>
      </trkpt>
      <trkpt lat="42.869335" lon="-0.274839">
        <ele>1762.276</ele>
        <time>2020-07-21T06:38:47Z</time>
      </trkpt>
      <trkpt lat="42.869286" lon="-0.274837">
        <ele>1761.412</ele>
        <time>2020-07-21T06:38:50Z</time>
      </trkpt>
      <trkpt lat="42.869251" lon="-0.274770">
        <ele>1761.732</ele>
        <time>2020-07-21T06:39:08Z</time>
      </trkpt>
      <trkpt lat="42.869217" lon="-0.274712">
        <ele>1760.805</ele>
        <time>2020-07-21T06:39:18Z</time>
      </trkpt>
      <trkpt lat="42.869169" lon="-0.274656">
        <ele>1759.208</ele>
        <time>2020-07-21T06:39:26Z</time>
      </trkpt>
      <trkpt lat="42.869129" lon="-0.274613">
        <ele>1759.186</ele>
        <time>2020-07-21T06:39:35Z</time>
      </trkpt>
      <trkpt lat="42.869102" lon="-0.274575">
        <ele>1756.274</ele>
        <time>2020-07-21T06:39:45Z</time>
      </trkpt>
      <trkpt lat="42.869074" lon="-0.274552">
        <ele>1753.928</ele>
        <time>2020-07-21T06:39:56Z</time>
      </trkpt>
      <trkpt lat="42.869038" lon="-0.274493">
        <ele>1754.413</ele>
        <time>2020-07-21T06:40:04Z</time>
      </trkpt>
      <trkpt lat="42.869034" lon="-0.274439">
        <ele>1754.340</ele>
        <time>2020-07-21T06:40:17Z</time>
      </trkpt>
      <trkpt lat="42.869034" lon="-0.274380">
        <ele>1753.739</ele>
        <time>2020-07-21T06:40:26Z</time>
      </trkpt>
      <trkpt lat="42.869054" lon="-0.274313">
        <ele>1752.923</ele>
        <time>2020-07-21T06:40:40Z</time>
      </trkpt>
      <trkpt lat="42.869066" lon="-0.274241">
        <ele>1753.512</ele>
        <time>2020-07-21T06:40:48Z</time>
      </trkpt>
      <trkpt lat="42.869048" lon="-0.274183">
        <ele>1753.022</ele>
        <time>2020-07-21T06:40:50Z</time>
      </trkpt>
      <trkpt lat="42.869041" lon="-0.274124">
        <ele>1753.662</ele>
        <time>2020-07-21T06:40:54Z</time>
      </trkpt>
      <trkpt lat="42.869068" lon="-0.274070">
        <ele>1753.508</ele>
        <time>2020-07-21T06:41:01Z</time>
      </trkpt>
      <trkpt lat="42.869063" lon="-0.274014">
        <ele>1752.608</ele>
        <time>2020-07-21T06:41:04Z</time>
      </trkpt>
      <trkpt lat="42.869043" lon="-0.273944">
        <ele>1752.827</ele>
        <time>2020-07-21T06:41:13Z</time>
      </trkpt>
      <trkpt lat="42.869062" lon="-0.273870">
        <ele>1754.195</ele>
        <time>2020-07-21T06:41:19Z</time>
      </trkpt>
      <trkpt lat="42.869051" lon="-0.273805">
        <ele>1753.769</ele>
        <time>2020-07-21T06:41:27Z</time>
      </trkpt>
      <trkpt lat="42.869038" lon="-0.273729">
        <ele>1751.974</ele>
        <time>2020-07-21T06:41:35Z</time>
      </trkpt>
      <trkpt lat="42.869016" lon="-0.273667">
        <ele>1750.551</ele>
        <time>2020-07-21T06:41:42Z</time>
      </trkpt>
      <trkpt lat="42.869012" lon="-0.273588">
        <ele>1751.430</ele>
        <time>2020-07-21T06:41:49Z</time>
      </trkpt>
      <trkpt lat="42.869026" lon="-0.273530">
        <ele>1751.424</ele>
        <time>2020-07-21T06:41:55Z</time>
      </trkpt>
      <trkpt lat="42.869050" lon="-0.273470">
        <ele>1750.523</ele>
        <time>2020-07-21T06:42:05Z</time>
      </trkpt>
      <trkpt lat="42.869065" lon="-0.273403">
        <ele>1749.584</ele>
        <time>2020-07-21T06:42:10Z</time>
      </trkpt>
      <trkpt lat="42.869063" lon="-0.273339">
        <ele>1749.007</ele>
        <time>2020-07-21T06:42:21Z</time>
      </trkpt>
      <trkpt lat="42.869054" lon="-0.273281">
        <ele>1746.317</ele>
        <time>2020-07-21T06:42:29Z</time>
      </trkpt>
      <trkpt lat="42.869067" lon="-0.273222">
        <ele>1746.708</ele>
        <time>2020-07-21T06:42:35Z</time>
      </trkpt>
      <trkpt lat="42.869076" lon="-0.273147">
        <ele>1747.813</ele>
        <time>2020-07-21T06:42:42Z</time>
      </trkpt>
      <trkpt lat="42.869096" lon="-0.273085">
        <ele>1746.761</ele>
        <time>2020-07-21T06:42:46Z</time>
      </trkpt>
      <trkpt lat="42.869135" lon="-0.273022">
        <ele>1746.615</ele>
        <time>2020-07-21T06:42:55Z</time>
      </trkpt>
      <trkpt lat="42.869152" lon="-0.272968">
        <ele>1747.480</ele>
        <time>2020-07-21T06:42:58Z</time>
      </trkpt>
      <trkpt lat="42.869152" lon="-0.272894">
        <ele>1746.337</ele>
        <time>2020-07-21T06:43:05Z</time>
      </trkpt>
      <trkpt lat="42.869180" lon="-0.272824">
        <ele>1746.316</ele>
        <time>2020-07-21T06:43:11Z</time>
      </trkpt>
      <trkpt lat="42.869206" lon="-0.272778">
        <ele>1744.520</ele>
        <time>2020-07-21T06:43:19Z</time>
      </trkpt>
      <trkpt lat="42.869196" lon="-0.272721">
        <ele>1742.569</ele>
        <time>2020-07-21T06:43:30Z</time>
      </trkpt>
      <trkpt lat="42.869221" lon="-0.272646">
        <ele>1740.954</ele>
        <time>2020-07-21T06:43:46Z</time>
      </trkpt>
      <trkpt lat="42.869266" lon="-0.272642">
        <ele>1737.656</ele>
        <time>2020-07-21T06:44:11Z</time>
      </trkpt>
      <trkpt lat="42.869297" lon="-0.272591">
        <ele>1736.211</ele>
        <time>2020-07-21T06:44:24Z</time>
      </trkpt>
      <trkpt lat="42.869331" lon="-0.272548">
        <ele>1735.008</ele>
        <time>2020-07-21T06:44:32Z</time>
      </trkpt>
      <trkpt lat="42.869354" lon="-0.272490">
        <ele>1733.280</ele>
        <time>2020-07-21T06:44:39Z</time>
      </trkpt>
      <trkpt lat="42.869363" lon="-0.272427">
        <ele>1733.328</ele>
        <time>2020-07-21T06:44:48Z</time>
      </trkpt>
      <trkpt lat="42.869389" lon="-0.272365">
        <ele>1732.182</ele>
        <time>2020-07-21T06:45:01Z</time>
      </trkpt>
      <trkpt lat="42.869399" lon="-0.272309">
        <ele>1732.637</ele>
        <time>2020-07-21T06:45:08Z</time>
      </trkpt>
      <trkpt lat="42.869403" lon="-0.272248">
        <ele>1731.864</ele>
        <time>2020-07-21T06:45:14Z</time>
      </trkpt>
      <trkpt lat="42.869394" lon="-0.272188">
        <ele>1731.063</ele>
        <time>2020-07-21T06:45:23Z</time>
      </trkpt>
      <trkpt lat="42.869385" lon="-0.272119">
        <ele>1729.627</ele>
        <time>2020-07-21T06:45:29Z</time>
      </trkpt>
      <trkpt lat="42.869381" lon="-0.272037">
        <ele>1729.046</ele>
        <time>2020-07-21T06:45:37Z</time>
      </trkpt>
      <trkpt lat="42.869357" lon="-0.271974">
        <ele>1728.328</ele>
        <time>2020-07-21T06:45:45Z</time>
      </trkpt>
      <trkpt lat="42.869299" lon="-0.271998">
        <ele>1727.689</ele>
        <time>2020-07-21T06:45:52Z</time>
      </trkpt>
      <trkpt lat="42.869266" lon="-0.271935">
        <ele>1727.117</ele>
        <time>2020-07-21T06:46:00Z</time>
      </trkpt>
      <trkpt lat="42.869307" lon="-0.271839">
        <ele>1725.008</ele>
        <time>2020-07-21T06:46:12Z</time>
      </trkpt>
      <trkpt lat="42.869329" lon="-0.271784">
        <ele>1723.677</ele>
        <time>2020-07-21T06:46:24Z</time>
      </trkpt>
      <trkpt lat="42.869344" lon="-0.271713">
        <ele>1724.035</ele>
        <time>2020-07-21T06:46:32Z</time>
      </trkpt>
      <trkpt lat="42.869407" lon="-0.271672">
        <ele>1722.499</ele>
        <time>2020-07-21T06:46:48Z</time>
      </trkpt>
      <trkpt lat="42.869364" lon="-0.271603">
        <ele>1721.744</ele>
        <time>2020-07-21T06:46:54Z</time>
      </trkpt>
      <trkpt lat="42.869357" lon="-0.271565">
        <ele>1716.021</ele>
        <time>2020-07-21T06:47:27Z</time>
      </trkpt>
      <trkpt lat="42.869352" lon="-0.271511">
        <ele>1715.510</ele>
        <time>2020-07-21T06:47:32Z</time>
      </trkpt>
      <trkpt lat="42.869334" lon="-0.271431">
        <ele>1714.984</ele>
        <time>2020-07-21T06:47:38Z</time>
      </trkpt>
      <trkpt lat="42.869336" lon="-0.271374">
        <ele>1713.453</ele>
        <time>2020-07-21T06:47:46Z</time>
      </trkpt>
      <trkpt lat="42.869342" lon="-0.271317">
        <ele>1710.679</ele>
        <time>2020-07-21T06:48:02Z</time>
      </trkpt>
      <trkpt lat="42.869332" lon="-0.271265">
        <ele>1709.305</ele>
        <time>2020-07-21T06:48:15Z</time>
      </trkpt>
      <trkpt lat="42.869347" lon="-0.271202">
        <ele>1706.625</ele>
        <time>2020-07-21T06:48:28Z</time>
      </trkpt>
      <trkpt lat="42.869321" lon="-0.271138">
        <ele>1705.108</ele>
        <time>2020-07-21T06:48:39Z</time>
      </trkpt>
      <trkpt lat="42.869309" lon="-0.271075">
        <ele>1704.462</ele>
        <time>2020-07-21T06:48:44Z</time>
      </trkpt>
      <trkpt lat="42.869298" lon="-0.271004">
        <ele>1703.960</ele>
        <time>2020-07-21T06:48:53Z</time>
      </trkpt>
      <trkpt lat="42.869321" lon="-0.270939">
        <ele>1702.154</ele>
        <time>2020-07-21T06:49:02Z</time>
      </trkpt>
      <trkpt lat="42.869319" lon="-0.270878">
        <ele>1701.419</ele>
        <time>2020-07-21T06:49:09Z</time>
      </trkpt>
      <trkpt lat="42.869319" lon="-0.270816">
        <ele>1700.776</ele>
        <time>2020-07-21T06:49:14Z</time>
      </trkpt>
      <trkpt lat="42.869301" lon="-0.270759">
        <ele>1699.175</ele>
        <time>2020-07-21T06:49:27Z</time>
      </trkpt>
      <trkpt lat="42.869294" lon="-0.270685">
        <ele>1697.659</ele>
        <time>2020-07-21T06:49:34Z</time>
      </trkpt>
      <trkpt lat="42.869309" lon="-0.270629">
        <ele>1696.448</ele>
        <time>2020-07-21T06:49:47Z</time>
      </trkpt>
      <trkpt lat="42.869298" lon="-0.270568">
        <ele>1694.131</ele>
        <time>2020-07-21T06:49:59Z</time>
      </trkpt>
      <trkpt lat="42.869290" lon="-0.270504">
        <ele>1695.161</ele>
        <time>2020-07-21T06:50:07Z</time>
      </trkpt>
      <trkpt lat="42.869291" lon="-0.270431">
        <ele>1693.907</ele>
        <time>2020-07-21T06:50:15Z</time>
      </trkpt>
      <trkpt lat="42.869289" lon="-0.270359">
        <ele>1691.908</ele>
        <time>2020-07-21T06:50:31Z</time>
      </trkpt>
      <trkpt lat="42.869312" lon="-0.270286">
        <ele>1689.558</ele>
        <time>2020-07-21T06:50:42Z</time>
      </trkpt>
      <trkpt lat="42.869294" lon="-0.270214">
        <ele>1688.566</ele>
        <time>2020-07-21T06:50:52Z</time>
      </trkpt>
      <trkpt lat="42.869307" lon="-0.270144">
        <ele>1686.040</ele>
        <time>2020-07-21T06:51:05Z</time>
      </trkpt>
      <trkpt lat="42.869340" lon="-0.270115">
        <ele>1685.475</ele>
        <time>2020-07-21T06:51:21Z</time>
      </trkpt>
      <trkpt lat="42.869362" lon="-0.270107">
        <ele>1682.442</ele>
        <time>2020-07-21T06:52:16Z</time>
      </trkpt>
      <trkpt lat="42.869394" lon="-0.270083">
        <ele>1681.231</ele>
        <time>2020-07-21T06:52:32Z</time>
      </trkpt>
      <trkpt lat="42.869426" lon="-0.270064">
        <ele>1679.745</ele>
        <time>2020-07-21T06:52:44Z</time>
      </trkpt>
      <trkpt lat="42.869453" lon="-0.270017">
        <ele>1678.214</ele>
        <time>2020-07-21T06:52:52Z</time>
      </trkpt>
      <trkpt lat="42.869486" lon="-0.269989">
        <ele>1677.587</ele>
        <time>2020-07-21T06:52:56Z</time>
      </trkpt>
      <trkpt lat="42.869493" lon="-0.269927">
        <ele>1676.142</ele>
        <time>2020-07-21T06:53:06Z</time>
      </trkpt>
      <trkpt lat="42.869494" lon="-0.269864">
        <ele>1675.426</ele>
        <time>2020-07-21T06:53:14Z</time>
      </trkpt>
      <trkpt lat="42.869495" lon="-0.269790">
        <ele>1674.608</ele>
        <time>2020-07-21T06:53:20Z</time>
      </trkpt>
      <trkpt lat="42.869479" lon="-0.269720">
        <ele>1673.423</ele>
        <time>2020-07-21T06:53:28Z</time>
      </trkpt>
      <trkpt lat="42.869433" lon="-0.269671">
        <ele>1671.261</ele>
        <time>2020-07-21T06:53:42Z</time>
      </trkpt>
      <trkpt lat="42.869405" lon="-0.269631">
        <ele>1669.895</ele>
        <time>2020-07-21T06:53:48Z</time>
      </trkpt>
      <trkpt lat="42.869404" lon="-0.269572">
        <ele>1670.140</ele>
        <time>2020-07-21T06:53:54Z</time>
      </trkpt>
      <trkpt lat="42.869425" lon="-0.269516">
        <ele>1666.457</ele>
        <time>2020-07-21T06:54:22Z</time>
      </trkpt>
      <trkpt lat="42.869464" lon="-0.269475">
        <ele>1664.276</ele>
        <time>2020-07-21T06:54:30Z</time>
      </trkpt>
      <trkpt lat="42.869492" lon="-0.269436">
        <ele>1663.540</ele>
        <time>2020-07-21T06:54:40Z</time>
      </trkpt>
      <trkpt lat="42.869513" lon="-0.269370">
        <ele>1662.839</ele>
        <time>2020-07-21T06:54:50Z</time>
      </trkpt>
      <trkpt lat="42.869547" lon="-0.269340">
        <ele>1661.639</ele>
        <time>2020-07-21T06:54:56Z</time>
      </trkpt>
      <trkpt lat="42.869569" lon="-0.269298">
        <ele>1662.101</ele>
        <time>2020-07-21T06:55:10Z</time>
      </trkpt>
      <trkpt lat="42.869591" lon="-0.269279">
        <ele>1660.721</ele>
        <time>2020-07-21T06:55:28Z</time>
      </trkpt>
      <trkpt lat="42.869600" lon="-0.269250">
        <ele>1659.408</ele>
        <time>2020-07-21T06:55:38Z</time>
      </trkpt>
      <trkpt lat="42.869612" lon="-0.269210">
        <ele>1658.518</ele>
        <time>2020-07-21T06:55:46Z</time>
      </trkpt>
      <trkpt lat="42.869604" lon="-0.269166">
        <ele>1657.376</ele>
        <time>2020-07-21T06:55:54Z</time>
      </trkpt>
      <trkpt lat="42.869583" lon="-0.269121">
        <ele>1656.610</ele>
        <time>2020-07-21T06:55:58Z</time>
      </trkpt>
      <trkpt lat="42.869570" lon="-0.269055">
        <ele>1655.475</ele>
        <time>2020-07-21T06:56:04Z</time>
      </trkpt>
      <trkpt lat="42.869562" lon="-0.268976">
        <ele>1654.642</ele>
        <time>2020-07-21T06:56:10Z</time>
      </trkpt>
      <trkpt lat="42.869524" lon="-0.268913">
        <ele>1654.551</ele>
        <time>2020-07-21T06:56:16Z</time>
      </trkpt>
      <trkpt lat="42.869476" lon="-0.268873">
        <ele>1653.515</ele>
        <time>2020-07-21T06:56:20Z</time>
      </trkpt>
      <trkpt lat="42.869461" lon="-0.268807">
        <ele>1653.594</ele>
        <time>2020-07-21T06:56:26Z</time>
      </trkpt>
      <trkpt lat="42.869427" lon="-0.268723">
        <ele>1652.948</ele>
        <time>2020-07-21T06:56:32Z</time>
      </trkpt>
      <trkpt lat="42.869354" lon="-0.268717">
        <ele>1651.561</ele>
        <time>2020-07-21T06:56:38Z</time>
      </trkpt>
      <trkpt lat="42.869304" lon="-0.268698">
        <ele>1650.817</ele>
        <time>2020-07-21T06:56:44Z</time>
      </trkpt>
      <trkpt lat="42.869243" lon="-0.268657">
        <ele>1650.108</ele>
        <time>2020-07-21T06:56:50Z</time>
      </trkpt>
      <trkpt lat="42.869212" lon="-0.268621">
        <ele>1648.789</ele>
        <time>2020-07-21T06:56:56Z</time>
      </trkpt>
      <trkpt lat="42.869201" lon="-0.268565">
        <ele>1647.487</ele>
        <time>2020-07-21T06:57:02Z</time>
      </trkpt>
      <trkpt lat="42.869210" lon="-0.268499">
        <ele>1645.851</ele>
        <time>2020-07-21T06:57:12Z</time>
      </trkpt>
      <trkpt lat="42.869236" lon="-0.268465">
        <ele>1644.186</ele>
        <time>2020-07-21T06:57:18Z</time>
      </trkpt>
      <trkpt lat="42.869248" lon="-0.268418">
        <ele>1642.933</ele>
        <time>2020-07-21T06:57:24Z</time>
      </trkpt>
      <trkpt lat="42.869257" lon="-0.268348">
        <ele>1642.062</ele>
        <time>2020-07-21T06:57:32Z</time>
      </trkpt>
      <trkpt lat="42.869286" lon="-0.268252">
        <ele>1640.996</ele>
        <time>2020-07-21T06:57:38Z</time>
      </trkpt>
      <trkpt lat="42.869295" lon="-0.268142">
        <ele>1640.545</ele>
        <time>2020-07-21T06:57:39Z</time>
      </trkpt>
      <trkpt lat="42.869308" lon="-0.268038">
        <ele>1639.458</ele>
        <time>2020-07-21T06:57:44Z</time>
      </trkpt>
      <trkpt lat="42.869266" lon="-0.267964">
        <ele>1637.852</ele>
        <time>2020-07-21T06:57:50Z</time>
      </trkpt>
      <trkpt lat="42.869188" lon="-0.268056">
        <ele>1637.817</ele>
        <time>2020-07-21T06:57:56Z</time>
      </trkpt>
      <trkpt lat="42.869121" lon="-0.268045">
        <ele>1636.808</ele>
        <time>2020-07-21T06:58:01Z</time>
      </trkpt>
      <trkpt lat="42.869096" lon="-0.267983">
        <ele>1634.090</ele>
        <time>2020-07-21T06:58:27Z</time>
      </trkpt>
      <trkpt lat="42.869047" lon="-0.267958">
        <ele>1632.938</ele>
        <time>2020-07-21T06:58:33Z</time>
      </trkpt>
      <trkpt lat="42.869016" lon="-0.267898">
        <ele>1632.472</ele>
        <time>2020-07-21T06:58:41Z</time>
      </trkpt>
      <trkpt lat="42.868974" lon="-0.267834">
        <ele>1632.037</ele>
        <time>2020-07-21T06:58:47Z</time>
      </trkpt>
      <trkpt lat="42.868927" lon="-0.267809">
        <ele>1630.414</ele>
        <time>2020-07-21T06:58:57Z</time>
      </trkpt>
      <trkpt lat="42.868891" lon="-0.267770">
        <ele>1628.183</ele>
        <time>2020-07-21T06:59:05Z</time>
      </trkpt>
      <trkpt lat="42.868841" lon="-0.267738">
        <ele>1626.777</ele>
        <time>2020-07-21T06:59:15Z</time>
      </trkpt>
      <trkpt lat="42.868839" lon="-0.267657">
        <ele>1626.976</ele>
        <time>2020-07-21T06:59:23Z</time>
      </trkpt>
      <trkpt lat="42.868781" lon="-0.267595">
        <ele>1625.632</ele>
        <time>2020-07-21T06:59:31Z</time>
      </trkpt>
      <trkpt lat="42.868736" lon="-0.267600">
        <ele>1624.592</ele>
        <time>2020-07-21T06:59:41Z</time>
      </trkpt>
      <trkpt lat="42.868695" lon="-0.267564">
        <ele>1621.811</ele>
        <time>2020-07-21T06:59:53Z</time>
      </trkpt>
      <trkpt lat="42.868658" lon="-0.267525">
        <ele>1621.308</ele>
        <time>2020-07-21T06:59:59Z</time>
      </trkpt>
      <trkpt lat="42.868630" lon="-0.267464">
        <ele>1621.148</ele>
        <time>2020-07-21T07:00:05Z</time>
      </trkpt>
      <trkpt lat="42.868615" lon="-0.267392">
        <ele>1620.796</ele>
        <time>2020-07-21T07:00:15Z</time>
      </trkpt>
      <trkpt lat="42.868591" lon="-0.267312">
        <ele>1619.840</ele>
        <time>2020-07-21T07:00:23Z</time>
      </trkpt>
      <trkpt lat="42.868560" lon="-0.267298">
        <ele>1619.465</ele>
        <time>2020-07-21T07:00:31Z</time>
      </trkpt>
      <trkpt lat="42.868520" lon="-0.267236">
        <ele>1619.822</ele>
        <time>2020-07-21T07:00:39Z</time>
      </trkpt>
      <trkpt lat="42.868486" lon="-0.267169">
        <ele>1618.121</ele>
        <time>2020-07-21T07:00:47Z</time>
      </trkpt>
      <trkpt lat="42.868442" lon="-0.267111">
        <ele>1617.255</ele>
        <time>2020-07-21T07:00:57Z</time>
      </trkpt>
      <trkpt lat="42.868420" lon="-0.267046">
        <ele>1617.644</ele>
        <time>2020-07-21T07:01:03Z</time>
      </trkpt>
      <trkpt lat="42.868398" lon="-0.267010">
        <ele>1616.484</ele>
        <time>2020-07-21T07:01:09Z</time>
      </trkpt>
      <trkpt lat="42.868383" lon="-0.266951">
        <ele>1615.207</ele>
        <time>2020-07-21T07:01:19Z</time>
      </trkpt>
      <trkpt lat="42.868367" lon="-0.266884">
        <ele>1614.717</ele>
        <time>2020-07-21T07:01:25Z</time>
      </trkpt>
      <trkpt lat="42.868372" lon="-0.266819">
        <ele>1614.108</ele>
        <time>2020-07-21T07:01:31Z</time>
      </trkpt>
      <trkpt lat="42.868370" lon="-0.266753">
        <ele>1614.013</ele>
        <time>2020-07-21T07:01:37Z</time>
      </trkpt>
      <trkpt lat="42.868370" lon="-0.266695">
        <ele>1612.941</ele>
        <time>2020-07-21T07:01:51Z</time>
      </trkpt>
      <trkpt lat="42.868357" lon="-0.266631">
        <ele>1612.245</ele>
        <time>2020-07-21T07:01:57Z</time>
      </trkpt>
      <trkpt lat="42.868370" lon="-0.266555">
        <ele>1611.480</ele>
        <time>2020-07-21T07:02:07Z</time>
      </trkpt>
      <trkpt lat="42.868387" lon="-0.266499">
        <ele>1609.797</ele>
        <time>2020-07-21T07:02:15Z</time>
      </trkpt>
      <trkpt lat="42.868392" lon="-0.266415">
        <ele>1608.816</ele>
        <time>2020-07-21T07:02:23Z</time>
      </trkpt>
      <trkpt lat="42.868344" lon="-0.266341">
        <ele>1607.960</ele>
        <time>2020-07-21T07:02:31Z</time>
      </trkpt>
      <trkpt lat="42.868336" lon="-0.266284">
        <ele>1607.379</ele>
        <time>2020-07-21T07:02:47Z</time>
      </trkpt>
      <trkpt lat="42.868372" lon="-0.266247">
        <ele>1607.491</ele>
        <time>2020-07-21T07:02:55Z</time>
      </trkpt>
      <trkpt lat="42.868407" lon="-0.266229">
        <ele>1604.181</ele>
        <time>2020-07-21T07:03:11Z</time>
      </trkpt>
      <trkpt lat="42.868446" lon="-0.266219">
        <ele>1603.819</ele>
        <time>2020-07-21T07:03:27Z</time>
      </trkpt>
      <trkpt lat="42.868490" lon="-0.266252">
        <ele>1606.208</ele>
        <time>2020-07-21T07:03:43Z</time>
      </trkpt>
      <trkpt lat="42.868523" lon="-0.266225">
        <ele>1604.894</ele>
        <time>2020-07-21T07:03:49Z</time>
      </trkpt>
      <trkpt lat="42.868527" lon="-0.266160">
        <ele>1603.592</ele>
        <time>2020-07-21T07:03:55Z</time>
      </trkpt>
      <trkpt lat="42.868528" lon="-0.266111">
        <ele>1600.256</ele>
        <time>2020-07-21T07:04:11Z</time>
      </trkpt>
      <trkpt lat="42.868546" lon="-0.266066">
        <ele>1596.561</ele>
        <time>2020-07-21T07:04:21Z</time>
      </trkpt>
      <trkpt lat="42.868585" lon="-0.266040">
        <ele>1596.718</ele>
        <time>2020-07-21T07:04:29Z</time>
      </trkpt>
      <trkpt lat="42.868555" lon="-0.265997">
        <ele>1594.717</ele>
        <time>2020-07-21T07:05:27Z</time>
      </trkpt>
      <trkpt lat="42.868541" lon="-0.265937">
        <ele>1595.771</ele>
        <time>2020-07-21T07:05:53Z</time>
      </trkpt>
      <trkpt lat="42.868517" lon="-0.265871">
        <ele>1596.270</ele>
        <time>2020-07-21T07:05:59Z</time>
      </trkpt>
      <trkpt lat="42.868491" lon="-0.265814">
        <ele>1595.255</ele>
        <time>2020-07-21T07:06:05Z</time>
      </trkpt>
      <trkpt lat="42.868458" lon="-0.265765">
        <ele>1596.407</ele>
        <time>2020-07-21T07:06:25Z</time>
      </trkpt>
      <trkpt lat="42.868428" lon="-0.265730">
        <ele>1596.817</ele>
        <time>2020-07-21T07:08:43Z</time>
      </trkpt>
      <trkpt lat="42.868376" lon="-0.265725">
        <ele>1598.608</ele>
        <time>2020-07-21T07:08:51Z</time>
      </trkpt>
      <trkpt lat="42.868325" lon="-0.265678">
        <ele>1600.220</ele>
        <time>2020-07-21T07:08:57Z</time>
      </trkpt>
      <trkpt lat="42.868280" lon="-0.265630">
        <ele>1601.278</ele>
        <time>2020-07-21T07:09:05Z</time>
      </trkpt>
      <trkpt lat="42.868228" lon="-0.265617">
        <ele>1603.052</ele>
        <time>2020-07-21T07:09:13Z</time>
      </trkpt>
      <trkpt lat="42.868183" lon="-0.265597">
        <ele>1602.337</ele>
        <time>2020-07-21T07:09:17Z</time>
      </trkpt>
      <trkpt lat="42.868157" lon="-0.265545">
        <ele>1602.824</ele>
        <time>2020-07-21T07:09:23Z</time>
      </trkpt>
      <trkpt lat="42.868134" lon="-0.265477">
        <ele>1601.273</ele>
        <time>2020-07-21T07:09:31Z</time>
      </trkpt>
      <trkpt lat="42.868123" lon="-0.265412">
        <ele>1604.537</ele>
        <time>2020-07-21T07:09:41Z</time>
      </trkpt>
      <trkpt lat="42.868096" lon="-0.265342">
        <ele>1605.256</ele>
        <time>2020-07-21T07:09:49Z</time>
      </trkpt>
      <trkpt lat="42.868063" lon="-0.265295">
        <ele>1607.447</ele>
        <time>2020-07-21T07:09:59Z</time>
      </trkpt>
      <trkpt lat="42.868016" lon="-0.265278">
        <ele>1608.729</ele>
        <time>2020-07-21T07:10:07Z</time>
      </trkpt>
      <trkpt lat="42.867981" lon="-0.265239">
        <ele>1608.121</ele>
        <time>2020-07-21T07:10:17Z</time>
      </trkpt>
      <trkpt lat="42.867970" lon="-0.265163">
        <ele>1609.208</ele>
        <time>2020-07-21T07:10:31Z</time>
      </trkpt>
      <trkpt lat="42.867969" lon="-0.265091">
        <ele>1612.539</ele>
        <time>2020-07-21T07:10:37Z</time>
      </trkpt>
      <trkpt lat="42.867956" lon="-0.265028">
        <ele>1611.657</ele>
        <time>2020-07-21T07:10:45Z</time>
      </trkpt>
      <trkpt lat="42.867939" lon="-0.264963">
        <ele>1614.511</ele>
        <time>2020-07-21T07:10:55Z</time>
      </trkpt>
      <trkpt lat="42.867905" lon="-0.264934">
        <ele>1615.246</ele>
        <time>2020-07-21T07:11:01Z</time>
      </trkpt>
      <trkpt lat="42.867875" lon="-0.264970">
        <ele>1615.853</ele>
        <time>2020-07-21T07:11:57Z</time>
      </trkpt>
      <trkpt lat="42.867825" lon="-0.264975">
        <ele>1616.752</ele>
        <time>2020-07-21T07:12:13Z</time>
      </trkpt>
      <trkpt lat="42.867780" lon="-0.264930">
        <ele>1617.126</ele>
        <time>2020-07-21T07:12:21Z</time>
      </trkpt>
      <trkpt lat="42.867748" lon="-0.264883">
        <ele>1620.295</ele>
        <time>2020-07-21T07:12:31Z</time>
      </trkpt>
      <trkpt lat="42.867696" lon="-0.264835">
        <ele>1621.643</ele>
        <time>2020-07-21T07:12:39Z</time>
      </trkpt>
      <trkpt lat="42.867638" lon="-0.264826">
        <ele>1622.464</ele>
        <time>2020-07-21T07:12:49Z</time>
      </trkpt>
      <trkpt lat="42.867611" lon="-0.264789">
        <ele>1622.710</ele>
        <time>2020-07-21T07:12:59Z</time>
      </trkpt>
      <trkpt lat="42.867575" lon="-0.264763">
        <ele>1626.208</ele>
        <time>2020-07-21T07:13:15Z</time>
      </trkpt>
      <trkpt lat="42.867570" lon="-0.264718">
        <ele>1630.899</ele>
        <time>2020-07-21T07:13:41Z</time>
      </trkpt>
      <trkpt lat="42.867540" lon="-0.264656">
        <ele>1631.687</ele>
        <time>2020-07-21T07:14:01Z</time>
      </trkpt>
      <trkpt lat="42.867498" lon="-0.264632">
        <ele>1635.371</ele>
        <time>2020-07-21T07:14:15Z</time>
      </trkpt>
      <trkpt lat="42.867487" lon="-0.264578">
        <ele>1638.556</ele>
        <time>2020-07-21T07:14:35Z</time>
      </trkpt>
      <trkpt lat="42.867518" lon="-0.264528">
        <ele>1638.583</ele>
        <time>2020-07-21T07:14:49Z</time>
      </trkpt>
      <trkpt lat="42.867529" lon="-0.264464">
        <ele>1638.762</ele>
        <time>2020-07-21T07:14:55Z</time>
      </trkpt>
      <trkpt lat="42.867557" lon="-0.264400">
        <ele>1641.876</ele>
        <time>2020-07-21T07:15:07Z</time>
      </trkpt>
      <trkpt lat="42.867582" lon="-0.264341">
        <ele>1642.055</ele>
        <time>2020-07-21T07:15:13Z</time>
      </trkpt>
      <trkpt lat="42.867578" lon="-0.264277">
        <ele>1642.782</ele>
        <time>2020-07-21T07:15:35Z</time>
      </trkpt>
      <trkpt lat="42.867612" lon="-0.264213">
        <ele>1644.843</ele>
        <time>2020-07-21T07:15:45Z</time>
      </trkpt>
      <trkpt lat="42.867594" lon="-0.264151">
        <ele>1645.417</ele>
        <time>2020-07-21T07:15:49Z</time>
      </trkpt>
      <trkpt lat="42.867556" lon="-0.264101">
        <ele>1646.608</ele>
        <time>2020-07-21T07:15:55Z</time>
      </trkpt>
      <trkpt lat="42.867509" lon="-0.264092">
        <ele>1647.993</ele>
        <time>2020-07-21T07:16:05Z</time>
      </trkpt>
      <trkpt lat="42.867461" lon="-0.264086">
        <ele>1648.161</ele>
        <time>2020-07-21T07:16:15Z</time>
      </trkpt>
      <trkpt lat="42.867420" lon="-0.264049">
        <ele>1649.215</ele>
        <time>2020-07-21T07:16:21Z</time>
      </trkpt>
      <trkpt lat="42.867377" lon="-0.264016">
        <ele>1650.280</ele>
        <time>2020-07-21T07:16:31Z</time>
      </trkpt>
      <trkpt lat="42.867322" lon="-0.263980">
        <ele>1650.377</ele>
        <time>2020-07-21T07:17:47Z</time>
      </trkpt>
      <trkpt lat="42.867279" lon="-0.263953">
        <ele>1649.636</ele>
        <time>2020-07-21T07:17:53Z</time>
      </trkpt>
      <trkpt lat="42.867233" lon="-0.263941">
        <ele>1653.040</ele>
        <time>2020-07-21T07:18:01Z</time>
      </trkpt>
      <trkpt lat="42.867203" lon="-0.263891">
        <ele>1652.849</ele>
        <time>2020-07-21T07:18:09Z</time>
      </trkpt>
      <trkpt lat="42.867154" lon="-0.263878">
        <ele>1657.628</ele>
        <time>2020-07-21T07:18:25Z</time>
      </trkpt>
      <trkpt lat="42.867135" lon="-0.263817">
        <ele>1658.289</ele>
        <time>2020-07-21T07:18:35Z</time>
      </trkpt>
      <trkpt lat="42.867107" lon="-0.263746">
        <ele>1659.317</ele>
        <time>2020-07-21T07:18:44Z</time>
      </trkpt>
      <trkpt lat="42.867085" lon="-0.263683">
        <ele>1660.808</ele>
        <time>2020-07-21T07:18:52Z</time>
      </trkpt>
      <trkpt lat="42.867040" lon="-0.263657">
        <ele>1662.657</ele>
        <time>2020-07-21T07:19:06Z</time>
      </trkpt>
      <trkpt lat="42.866991" lon="-0.263626">
        <ele>1664.065</ele>
        <time>2020-07-21T07:20:28Z</time>
      </trkpt>
      <trkpt lat="42.866939" lon="-0.263632">
        <ele>1665.939</ele>
        <time>2020-07-21T07:20:36Z</time>
      </trkpt>
      <trkpt lat="42.866893" lon="-0.263616">
        <ele>1667.494</ele>
        <time>2020-07-21T07:20:48Z</time>
      </trkpt>
      <trkpt lat="42.866853" lon="-0.263576">
        <ele>1669.951</ele>
        <time>2020-07-21T07:21:00Z</time>
      </trkpt>
      <trkpt lat="42.866850" lon="-0.263510">
        <ele>1672.460</ele>
        <time>2020-07-21T07:21:12Z</time>
      </trkpt>
      <trkpt lat="42.866811" lon="-0.263469">
        <ele>1672.934</ele>
        <time>2020-07-21T07:21:20Z</time>
      </trkpt>
      <trkpt lat="42.866791" lon="-0.263400">
        <ele>1673.933</ele>
        <time>2020-07-21T07:21:28Z</time>
      </trkpt>
      <trkpt lat="42.866745" lon="-0.263352">
        <ele>1677.037</ele>
        <time>2020-07-21T07:22:29Z</time>
      </trkpt>
      <trkpt lat="42.866733" lon="-0.263286">
        <ele>1675.949</ele>
        <time>2020-07-21T07:22:35Z</time>
      </trkpt>
      <trkpt lat="42.866728" lon="-0.263212">
        <ele>1678.713</ele>
        <time>2020-07-21T07:22:41Z</time>
      </trkpt>
      <trkpt lat="42.866695" lon="-0.263168">
        <ele>1679.408</ele>
        <time>2020-07-21T07:22:49Z</time>
      </trkpt>
      <trkpt lat="42.866674" lon="-0.263109">
        <ele>1680.858</ele>
        <time>2020-07-21T07:22:59Z</time>
      </trkpt>
      <trkpt lat="42.866644" lon="-0.263047">
        <ele>1684.366</ele>
        <time>2020-07-21T07:23:19Z</time>
      </trkpt>
      <trkpt lat="42.866623" lon="-0.262979">
        <ele>1685.040</ele>
        <time>2020-07-21T07:23:27Z</time>
      </trkpt>
      <trkpt lat="42.866593" lon="-0.262922">
        <ele>1686.035</ele>
        <time>2020-07-21T07:23:35Z</time>
      </trkpt>
      <trkpt lat="42.866548" lon="-0.262908">
        <ele>1688.092</ele>
        <time>2020-07-21T07:23:53Z</time>
      </trkpt>
      <trkpt lat="42.866501" lon="-0.262909">
        <ele>1689.141</ele>
        <time>2020-07-21T07:24:01Z</time>
      </trkpt>
      <trkpt lat="42.866458" lon="-0.262876">
        <ele>1690.785</ele>
        <time>2020-07-21T07:24:11Z</time>
      </trkpt>
      <trkpt lat="42.866420" lon="-0.262836">
        <ele>1692.534</ele>
        <time>2020-07-21T07:24:21Z</time>
      </trkpt>
      <trkpt lat="42.866374" lon="-0.262820">
        <ele>1694.883</ele>
        <time>2020-07-21T07:24:33Z</time>
      </trkpt>
      <trkpt lat="42.866349" lon="-0.262769">
        <ele>1696.325</ele>
        <time>2020-07-21T07:25:51Z</time>
      </trkpt>
      <trkpt lat="42.866294" lon="-0.262756">
        <ele>1697.517</ele>
        <time>2020-07-21T07:25:57Z</time>
      </trkpt>
      <trkpt lat="42.866284" lon="-0.262823">
        <ele>1699.908</ele>
        <time>2020-07-21T07:26:11Z</time>
      </trkpt>
      <trkpt lat="42.866249" lon="-0.262851">
        <ele>1701.193</ele>
        <time>2020-07-21T07:26:29Z</time>
      </trkpt>
      <trkpt lat="42.866211" lon="-0.262802">
        <ele>1702.581</ele>
        <time>2020-07-21T07:26:37Z</time>
      </trkpt>
      <trkpt lat="42.866180" lon="-0.262747">
        <ele>1703.585</ele>
        <time>2020-07-21T07:26:45Z</time>
      </trkpt>
      <trkpt lat="42.866140" lon="-0.262710">
        <ele>1707.520</ele>
        <time>2020-07-21T07:27:03Z</time>
      </trkpt>
      <trkpt lat="42.866092" lon="-0.262710">
        <ele>1710.817</ele>
        <time>2020-07-21T07:27:19Z</time>
      </trkpt>
      <trkpt lat="42.866040" lon="-0.262714">
        <ele>1710.166</ele>
        <time>2020-07-21T07:27:27Z</time>
      </trkpt>
      <trkpt lat="42.865994" lon="-0.262670">
        <ele>1711.550</ele>
        <time>2020-07-21T07:27:35Z</time>
      </trkpt>
      <trkpt lat="42.865981" lon="-0.262601">
        <ele>1712.289</ele>
        <time>2020-07-21T07:27:45Z</time>
      </trkpt>
      <trkpt lat="42.865954" lon="-0.262566">
        <ele>1713.553</ele>
        <time>2020-07-21T07:28:36Z</time>
      </trkpt>
      <trkpt lat="42.865904" lon="-0.262587">
        <ele>1714.504</ele>
        <time>2020-07-21T07:29:08Z</time>
      </trkpt>
      <trkpt lat="42.865861" lon="-0.262544">
        <ele>1714.814</ele>
        <time>2020-07-21T07:29:14Z</time>
      </trkpt>
      <trkpt lat="42.865829" lon="-0.262485">
        <ele>1714.808</ele>
        <time>2020-07-21T07:29:20Z</time>
      </trkpt>
      <trkpt lat="42.865786" lon="-0.262435">
        <ele>1715.590</ele>
        <time>2020-07-21T07:29:26Z</time>
      </trkpt>
      <trkpt lat="42.865748" lon="-0.262394">
        <ele>1717.658</ele>
        <time>2020-07-21T07:29:38Z</time>
      </trkpt>
      <trkpt lat="42.865697" lon="-0.262380">
        <ele>1719.252</ele>
        <time>2020-07-21T07:29:46Z</time>
      </trkpt>
      <trkpt lat="42.865653" lon="-0.262365">
        <ele>1721.017</ele>
        <time>2020-07-21T07:29:54Z</time>
      </trkpt>
      <trkpt lat="42.865617" lon="-0.262322">
        <ele>1720.614</ele>
        <time>2020-07-21T07:30:02Z</time>
      </trkpt>
      <trkpt lat="42.865564" lon="-0.262293">
        <ele>1719.323</ele>
        <time>2020-07-21T07:30:14Z</time>
      </trkpt>
      <trkpt lat="42.865522" lon="-0.262238">
        <ele>1721.627</ele>
        <time>2020-07-21T07:30:22Z</time>
      </trkpt>
      <trkpt lat="42.865512" lon="-0.262178">
        <ele>1722.886</ele>
        <time>2020-07-21T07:30:30Z</time>
      </trkpt>
      <trkpt lat="42.865496" lon="-0.262113">
        <ele>1724.033</ele>
        <time>2020-07-21T07:30:38Z</time>
      </trkpt>
      <trkpt lat="42.865456" lon="-0.262084">
        <ele>1724.823</ele>
        <time>2020-07-21T07:32:09Z</time>
      </trkpt>
      <trkpt lat="42.865402" lon="-0.262074">
        <ele>1725.415</ele>
        <time>2020-07-21T07:32:15Z</time>
      </trkpt>
      <trkpt lat="42.865340" lon="-0.262070">
        <ele>1726.708</ele>
        <time>2020-07-21T07:32:21Z</time>
      </trkpt>
      <trkpt lat="42.865288" lon="-0.262058">
        <ele>1727.488</ele>
        <time>2020-07-21T07:32:29Z</time>
      </trkpt>
      <trkpt lat="42.865233" lon="-0.262058">
        <ele>1729.076</ele>
        <time>2020-07-21T07:32:37Z</time>
      </trkpt>
      <trkpt lat="42.865184" lon="-0.262046">
        <ele>1728.790</ele>
        <time>2020-07-21T07:33:01Z</time>
      </trkpt>
      <trkpt lat="42.865143" lon="-0.261988">
        <ele>1729.455</ele>
        <time>2020-07-21T07:33:19Z</time>
      </trkpt>
      <trkpt lat="42.865096" lon="-0.261974">
        <ele>1729.652</ele>
        <time>2020-07-21T07:33:25Z</time>
      </trkpt>
      <trkpt lat="42.865047" lon="-0.261972">
        <ele>1729.521</ele>
        <time>2020-07-21T07:33:29Z</time>
      </trkpt>
      <trkpt lat="42.864998" lon="-0.261959">
        <ele>1730.335</ele>
        <time>2020-07-21T07:33:35Z</time>
      </trkpt>
      <trkpt lat="42.864950" lon="-0.261916">
        <ele>1729.824</ele>
        <time>2020-07-21T07:33:41Z</time>
      </trkpt>
      <trkpt lat="42.864893" lon="-0.261881">
        <ele>1729.077</ele>
        <time>2020-07-21T07:33:47Z</time>
      </trkpt>
      <trkpt lat="42.864852" lon="-0.261845">
        <ele>1730.361</ele>
        <time>2020-07-21T07:33:53Z</time>
      </trkpt>
      <trkpt lat="42.864790" lon="-0.261821">
        <ele>1730.327</ele>
        <time>2020-07-21T07:33:59Z</time>
      </trkpt>
      <trkpt lat="42.864742" lon="-0.261811">
        <ele>1730.308</ele>
        <time>2020-07-21T07:34:05Z</time>
      </trkpt>
      <trkpt lat="42.864695" lon="-0.261790">
        <ele>1730.572</ele>
        <time>2020-07-21T07:34:11Z</time>
      </trkpt>
      <trkpt lat="42.864642" lon="-0.261772">
        <ele>1730.780</ele>
        <time>2020-07-21T07:34:17Z</time>
      </trkpt>
      <trkpt lat="42.864598" lon="-0.261735">
        <ele>1730.084</ele>
        <time>2020-07-21T07:34:25Z</time>
      </trkpt>
      <trkpt lat="42.864565" lon="-0.261700">
        <ele>1729.059</ele>
        <time>2020-07-21T07:34:31Z</time>
      </trkpt>
      <trkpt lat="42.864555" lon="-0.261635">
        <ele>1730.436</ele>
        <time>2020-07-21T07:34:55Z</time>
      </trkpt>
      <trkpt lat="42.864518" lon="-0.261593">
        <ele>1730.815</ele>
        <time>2020-07-21T07:35:01Z</time>
      </trkpt>
      <trkpt lat="42.864463" lon="-0.261570">
        <ele>1730.669</ele>
        <time>2020-07-21T07:35:07Z</time>
      </trkpt>
      <trkpt lat="42.864411" lon="-0.261556">
        <ele>1730.118</ele>
        <time>2020-07-21T07:35:13Z</time>
      </trkpt>
      <trkpt lat="42.864361" lon="-0.261527">
        <ele>1731.446</ele>
        <time>2020-07-21T07:36:13Z</time>
      </trkpt>
      <trkpt lat="42.864320" lon="-0.261499">
        <ele>1730.188</ele>
        <time>2020-07-21T07:36:17Z</time>
      </trkpt>
      <trkpt lat="42.864280" lon="-0.261468">
        <ele>1731.416</ele>
        <time>2020-07-21T07:36:21Z</time>
      </trkpt>
      <trkpt lat="42.864246" lon="-0.261408">
        <ele>1732.608</ele>
        <time>2020-07-21T07:36:29Z</time>
      </trkpt>
      <trkpt lat="42.864201" lon="-0.261370">
        <ele>1732.259</ele>
        <time>2020-07-21T07:36:35Z</time>
      </trkpt>
      <trkpt lat="42.864155" lon="-0.261320">
        <ele>1731.517</ele>
        <time>2020-07-21T07:36:43Z</time>
      </trkpt>
      <trkpt lat="42.864113" lon="-0.261297">
        <ele>1730.511</ele>
        <time>2020-07-21T07:36:49Z</time>
      </trkpt>
      <trkpt lat="42.864074" lon="-0.261264">
        <ele>1730.646</ele>
        <time>2020-07-21T07:36:55Z</time>
      </trkpt>
      <trkpt lat="42.864035" lon="-0.261215">
        <ele>1729.733</ele>
        <time>2020-07-21T07:37:03Z</time>
      </trkpt>
      <trkpt lat="42.863991" lon="-0.261161">
        <ele>1729.422</ele>
        <time>2020-07-21T07:37:11Z</time>
      </trkpt>
      <trkpt lat="42.863937" lon="-0.261138">
        <ele>1728.646</ele>
        <time>2020-07-21T07:37:17Z</time>
      </trkpt>
      <trkpt lat="42.863891" lon="-0.261120">
        <ele>1729.045</ele>
        <time>2020-07-21T07:37:23Z</time>
      </trkpt>
      <trkpt lat="42.863860" lon="-0.261071">
        <ele>1729.123</ele>
        <time>2020-07-21T07:37:29Z</time>
      </trkpt>
      <trkpt lat="42.863836" lon="-0.261016">
        <ele>1727.883</ele>
        <time>2020-07-21T07:37:35Z</time>
      </trkpt>
      <trkpt lat="42.863799" lon="-0.260981">
        <ele>1728.311</ele>
        <time>2020-07-21T07:37:41Z</time>
      </trkpt>
      <trkpt lat="42.863753" lon="-0.260953">
        <ele>1727.608</ele>
        <time>2020-07-21T07:37:47Z</time>
      </trkpt>
      <trkpt lat="42.863708" lon="-0.260933">
        <ele>1727.467</ele>
        <time>2020-07-21T07:37:53Z</time>
      </trkpt>
      <trkpt lat="42.863654" lon="-0.260903">
        <ele>1728.325</ele>
        <time>2020-07-21T07:38:01Z</time>
      </trkpt>
      <trkpt lat="42.863610" lon="-0.260879">
        <ele>1727.139</ele>
        <time>2020-07-21T07:38:07Z</time>
      </trkpt>
      <trkpt lat="42.863544" lon="-0.260861">
        <ele>1727.664</ele>
        <time>2020-07-21T07:38:15Z</time>
      </trkpt>
      <trkpt lat="42.863490" lon="-0.260837">
        <ele>1727.341</ele>
        <time>2020-07-21T07:38:21Z</time>
      </trkpt>
      <trkpt lat="42.863446" lon="-0.260797">
        <ele>1727.740</ele>
        <time>2020-07-21T07:38:27Z</time>
      </trkpt>
      <trkpt lat="42.863408" lon="-0.260771">
        <ele>1727.854</ele>
        <time>2020-07-21T07:38:33Z</time>
      </trkpt>
      <trkpt lat="42.863361" lon="-0.260764">
        <ele>1728.833</ele>
        <time>2020-07-21T07:38:39Z</time>
      </trkpt>
      <trkpt lat="42.863303" lon="-0.260759">
        <ele>1728.349</ele>
        <time>2020-07-21T07:38:45Z</time>
      </trkpt>
      <trkpt lat="42.863249" lon="-0.260756">
        <ele>1729.002</ele>
        <time>2020-07-21T07:38:53Z</time>
      </trkpt>
      <trkpt lat="42.863197" lon="-0.260754">
        <ele>1729.622</ele>
        <time>2020-07-21T07:39:01Z</time>
      </trkpt>
      <trkpt lat="42.863148" lon="-0.260750">
        <ele>1730.208</ele>
        <time>2020-07-21T07:39:09Z</time>
      </trkpt>
      <trkpt lat="42.863110" lon="-0.260710">
        <ele>1730.839</ele>
        <time>2020-07-21T07:39:17Z</time>
      </trkpt>
      <trkpt lat="42.863076" lon="-0.260663">
        <ele>1731.347</ele>
        <time>2020-07-21T07:39:25Z</time>
      </trkpt>
      <trkpt lat="42.863033" lon="-0.260620">
        <ele>1731.411</ele>
        <time>2020-07-21T07:39:34Z</time>
      </trkpt>
      <trkpt lat="42.862979" lon="-0.260593">
        <ele>1730.826</ele>
        <time>2020-07-21T07:39:42Z</time>
      </trkpt>
      <trkpt lat="42.862924" lon="-0.260553">
        <ele>1730.453</ele>
        <time>2020-07-21T07:39:48Z</time>
      </trkpt>
      <trkpt lat="42.862869" lon="-0.260516">
        <ele>1732.412</ele>
        <time>2020-07-21T07:39:56Z</time>
      </trkpt>
      <trkpt lat="42.862822" lon="-0.260498">
        <ele>1731.166</ele>
        <time>2020-07-21T07:40:02Z</time>
      </trkpt>
      <trkpt lat="42.862769" lon="-0.260472">
        <ele>1732.235</ele>
        <time>2020-07-21T07:40:08Z</time>
      </trkpt>
      <trkpt lat="42.862723" lon="-0.260453">
        <ele>1731.663</ele>
        <time>2020-07-21T07:40:14Z</time>
      </trkpt>
      <trkpt lat="42.862671" lon="-0.260435">
        <ele>1730.844</ele>
        <time>2020-07-21T07:40:20Z</time>
      </trkpt>
      <trkpt lat="42.862623" lon="-0.260410">
        <ele>1731.418</ele>
        <time>2020-07-21T07:40:30Z</time>
      </trkpt>
      <trkpt lat="42.862573" lon="-0.260399">
        <ele>1731.908</ele>
        <time>2020-07-21T07:40:36Z</time>
      </trkpt>
      <trkpt lat="42.862515" lon="-0.260382">
        <ele>1731.931</ele>
        <time>2020-07-21T07:40:42Z</time>
      </trkpt>
      <trkpt lat="42.862463" lon="-0.260367">
        <ele>1731.089</ele>
        <time>2020-07-21T07:40:48Z</time>
      </trkpt>
      <trkpt lat="42.862403" lon="-0.260351">
        <ele>1732.963</ele>
        <time>2020-07-21T07:40:54Z</time>
      </trkpt>
      <trkpt lat="42.862351" lon="-0.260336">
        <ele>1733.458</ele>
        <time>2020-07-21T07:41:00Z</time>
      </trkpt>
      <trkpt lat="42.862288" lon="-0.260308">
        <ele>1735.365</ele>
        <time>2020-07-21T07:41:08Z</time>
      </trkpt>
      <trkpt lat="42.862228" lon="-0.260300">
        <ele>1735.014</ele>
        <time>2020-07-21T07:41:14Z</time>
      </trkpt>
      <trkpt lat="42.862170" lon="-0.260305">
        <ele>1736.258</ele>
        <time>2020-07-21T07:41:22Z</time>
      </trkpt>
      <trkpt lat="42.862123" lon="-0.260315">
        <ele>1736.737</ele>
        <time>2020-07-21T07:41:28Z</time>
      </trkpt>
      <trkpt lat="42.862067" lon="-0.260297">
        <ele>1737.521</ele>
        <time>2020-07-21T07:41:34Z</time>
      </trkpt>
      <trkpt lat="42.862012" lon="-0.260298">
        <ele>1737.141</ele>
        <time>2020-07-21T07:41:42Z</time>
      </trkpt>
      <trkpt lat="42.861958" lon="-0.260296">
        <ele>1738.705</ele>
        <time>2020-07-21T07:41:50Z</time>
      </trkpt>
      <trkpt lat="42.861907" lon="-0.260310">
        <ele>1739.108</ele>
        <time>2020-07-21T07:41:56Z</time>
      </trkpt>
      <trkpt lat="42.861843" lon="-0.260317">
        <ele>1738.687</ele>
        <time>2020-07-21T07:42:06Z</time>
      </trkpt>
      <trkpt lat="42.861789" lon="-0.260340">
        <ele>1740.245</ele>
        <time>2020-07-21T07:42:12Z</time>
      </trkpt>
      <trkpt lat="42.861741" lon="-0.260344">
        <ele>1740.489</ele>
        <time>2020-07-21T07:42:18Z</time>
      </trkpt>
      <trkpt lat="42.861697" lon="-0.260368">
        <ele>1741.814</ele>
        <time>2020-07-21T07:42:26Z</time>
      </trkpt>
      <trkpt lat="42.861651" lon="-0.260403">
        <ele>1743.521</ele>
        <time>2020-07-21T07:42:36Z</time>
      </trkpt>
      <trkpt lat="42.861602" lon="-0.260446">
        <ele>1744.510</ele>
        <time>2020-07-21T07:42:44Z</time>
      </trkpt>
      <trkpt lat="42.861552" lon="-0.260459">
        <ele>1743.794</ele>
        <time>2020-07-21T07:42:52Z</time>
      </trkpt>
      <trkpt lat="42.861498" lon="-0.260501">
        <ele>1744.433</ele>
        <time>2020-07-21T07:43:00Z</time>
      </trkpt>
      <trkpt lat="42.861451" lon="-0.260522">
        <ele>1744.576</ele>
        <time>2020-07-21T07:43:04Z</time>
      </trkpt>
      <trkpt lat="42.861400" lon="-0.260553">
        <ele>1746.390</ele>
        <time>2020-07-21T07:43:14Z</time>
      </trkpt>
      <trkpt lat="42.861358" lon="-0.260576">
        <ele>1746.519</ele>
        <time>2020-07-21T07:43:18Z</time>
      </trkpt>
      <trkpt lat="42.861315" lon="-0.260603">
        <ele>1746.708</ele>
        <time>2020-07-21T07:43:24Z</time>
      </trkpt>
      <trkpt lat="42.861266" lon="-0.260630">
        <ele>1747.882</ele>
        <time>2020-07-21T07:43:30Z</time>
      </trkpt>
      <trkpt lat="42.861222" lon="-0.260666">
        <ele>1748.810</ele>
        <time>2020-07-21T07:43:38Z</time>
      </trkpt>
      <trkpt lat="42.861176" lon="-0.260686">
        <ele>1749.274</ele>
        <time>2020-07-21T07:43:44Z</time>
      </trkpt>
      <trkpt lat="42.861117" lon="-0.260700">
        <ele>1749.359</ele>
        <time>2020-07-21T07:43:50Z</time>
      </trkpt>
      <trkpt lat="42.861065" lon="-0.260715">
        <ele>1751.846</ele>
        <time>2020-07-21T07:43:58Z</time>
      </trkpt>
      <trkpt lat="42.861014" lon="-0.260739">
        <ele>1751.835</ele>
        <time>2020-07-21T07:44:04Z</time>
      </trkpt>
      <trkpt lat="42.860958" lon="-0.260736">
        <ele>1752.379</ele>
        <time>2020-07-21T07:44:12Z</time>
      </trkpt>
      <trkpt lat="42.860913" lon="-0.260737">
        <ele>1753.778</ele>
        <time>2020-07-21T07:44:16Z</time>
      </trkpt>
      <trkpt lat="42.860862" lon="-0.260717">
        <ele>1754.954</ele>
        <time>2020-07-21T07:44:22Z</time>
      </trkpt>
      <trkpt lat="42.860812" lon="-0.260698">
        <ele>1756.056</ele>
        <time>2020-07-21T07:44:28Z</time>
      </trkpt>
      <trkpt lat="42.860759" lon="-0.260698">
        <ele>1754.911</ele>
        <time>2020-07-21T07:44:36Z</time>
      </trkpt>
      <trkpt lat="42.860701" lon="-0.260691">
        <ele>1754.108</ele>
        <time>2020-07-21T07:44:44Z</time>
      </trkpt>
      <trkpt lat="42.860641" lon="-0.260680">
        <ele>1753.870</ele>
        <time>2020-07-21T07:46:00Z</time>
      </trkpt>
      <trkpt lat="42.860596" lon="-0.260655">
        <ele>1753.378</ele>
        <time>2020-07-21T07:46:04Z</time>
      </trkpt>
      <trkpt lat="42.860543" lon="-0.260629">
        <ele>1752.952</ele>
        <time>2020-07-21T07:46:10Z</time>
      </trkpt>
      <trkpt lat="42.860478" lon="-0.260611">
        <ele>1752.327</ele>
        <time>2020-07-21T07:46:16Z</time>
      </trkpt>
      <trkpt lat="42.860415" lon="-0.260597">
        <ele>1752.584</ele>
        <time>2020-07-21T07:46:22Z</time>
      </trkpt>
      <trkpt lat="42.860366" lon="-0.260572">
        <ele>1752.333</ele>
        <time>2020-07-21T07:46:28Z</time>
      </trkpt>
      <trkpt lat="42.860308" lon="-0.260548">
        <ele>1752.237</ele>
        <time>2020-07-21T07:46:34Z</time>
      </trkpt>
      <trkpt lat="42.860261" lon="-0.260505">
        <ele>1752.986</ele>
        <time>2020-07-21T07:46:40Z</time>
      </trkpt>
      <trkpt lat="42.860199" lon="-0.260481">
        <ele>1752.133</ele>
        <time>2020-07-21T07:46:46Z</time>
      </trkpt>
      <trkpt lat="42.860155" lon="-0.260430">
        <ele>1752.223</ele>
        <time>2020-07-21T07:46:52Z</time>
      </trkpt>
      <trkpt lat="42.860103" lon="-0.260402">
        <ele>1750.715</ele>
        <time>2020-07-21T07:46:58Z</time>
      </trkpt>
      <trkpt lat="42.860046" lon="-0.260383">
        <ele>1751.708</ele>
        <time>2020-07-21T07:47:04Z</time>
      </trkpt>
      <trkpt lat="42.859985" lon="-0.260356">
        <ele>1751.888</ele>
        <time>2020-07-21T07:47:10Z</time>
      </trkpt>
      <trkpt lat="42.859919" lon="-0.260366">
        <ele>1748.676</ele>
        <time>2020-07-21T07:47:16Z</time>
      </trkpt>
      <trkpt lat="42.859869" lon="-0.260347">
        <ele>1751.890</ele>
        <time>2020-07-21T07:47:22Z</time>
      </trkpt>
      <trkpt lat="42.859828" lon="-0.260313">
        <ele>1751.845</ele>
        <time>2020-07-21T07:47:26Z</time>
      </trkpt>
      <trkpt lat="42.859766" lon="-0.260277">
        <ele>1751.712</ele>
        <time>2020-07-21T07:47:32Z</time>
      </trkpt>
      <trkpt lat="42.859706" lon="-0.260256">
        <ele>1751.041</ele>
        <time>2020-07-21T07:47:38Z</time>
      </trkpt>
      <trkpt lat="42.859662" lon="-0.260229">
        <ele>1750.365</ele>
        <time>2020-07-21T07:47:42Z</time>
      </trkpt>
      <trkpt lat="42.859615" lon="-0.260196">
        <ele>1751.274</ele>
        <time>2020-07-21T07:47:48Z</time>
      </trkpt>
      <trkpt lat="42.859554" lon="-0.260174">
        <ele>1751.184</ele>
        <time>2020-07-21T07:47:54Z</time>
      </trkpt>
      <trkpt lat="42.859504" lon="-0.260191">
        <ele>1751.007</ele>
        <time>2020-07-21T07:48:12Z</time>
      </trkpt>
      <trkpt lat="42.859453" lon="-0.260168">
        <ele>1750.317</ele>
        <time>2020-07-21T07:48:18Z</time>
      </trkpt>
      <trkpt lat="42.859390" lon="-0.260149">
        <ele>1749.708</ele>
        <time>2020-07-21T07:48:24Z</time>
      </trkpt>
      <trkpt lat="42.859326" lon="-0.260114">
        <ele>1750.113</ele>
        <time>2020-07-21T07:48:30Z</time>
      </trkpt>
      <trkpt lat="42.859274" lon="-0.260097">
        <ele>1750.341</ele>
        <time>2020-07-21T07:48:36Z</time>
      </trkpt>
      <trkpt lat="42.859220" lon="-0.260104">
        <ele>1750.575</ele>
        <time>2020-07-21T07:48:42Z</time>
      </trkpt>
      <trkpt lat="42.859164" lon="-0.260132">
        <ele>1750.430</ele>
        <time>2020-07-21T07:48:48Z</time>
      </trkpt>
      <trkpt lat="42.859101" lon="-0.260148">
        <ele>1749.887</ele>
        <time>2020-07-21T07:48:54Z</time>
      </trkpt>
      <trkpt lat="42.859037" lon="-0.260178">
        <ele>1750.156</ele>
        <time>2020-07-21T07:48:58Z</time>
      </trkpt>
      <trkpt lat="42.858989" lon="-0.260192">
        <ele>1751.330</ele>
        <time>2020-07-21T07:49:02Z</time>
      </trkpt>
      <trkpt lat="42.858936" lon="-0.260194">
        <ele>1751.289</ele>
        <time>2020-07-21T07:49:08Z</time>
      </trkpt>
      <trkpt lat="42.858883" lon="-0.260207">
        <ele>1752.335</ele>
        <time>2020-07-21T07:49:16Z</time>
      </trkpt>
      <trkpt lat="42.858821" lon="-0.260223">
        <ele>1753.086</ele>
        <time>2020-07-21T07:49:26Z</time>
      </trkpt>
      <trkpt lat="42.858761" lon="-0.260244">
        <ele>1754.614</ele>
        <time>2020-07-21T07:49:34Z</time>
      </trkpt>
      <trkpt lat="42.858713" lon="-0.260281">
        <ele>1753.208</ele>
        <time>2020-07-21T07:49:40Z</time>
      </trkpt>
      <trkpt lat="42.858668" lon="-0.260286">
        <ele>1751.828</ele>
        <time>2020-07-21T07:49:46Z</time>
      </trkpt>
      <trkpt lat="42.858611" lon="-0.260309">
        <ele>1751.686</ele>
        <time>2020-07-21T07:49:52Z</time>
      </trkpt>
      <trkpt lat="42.858585" lon="-0.260361">
        <ele>1751.430</ele>
        <time>2020-07-21T07:49:58Z</time>
      </trkpt>
      <trkpt lat="42.858547" lon="-0.260404">
        <ele>1751.865</ele>
        <time>2020-07-21T07:50:02Z</time>
      </trkpt>
      <trkpt lat="42.858506" lon="-0.260438">
        <ele>1752.822</ele>
        <time>2020-07-21T07:50:08Z</time>
      </trkpt>
      <trkpt lat="42.858452" lon="-0.260488">
        <ele>1752.131</ele>
        <time>2020-07-21T07:50:16Z</time>
      </trkpt>
      <trkpt lat="42.858400" lon="-0.260512">
        <ele>1751.985</ele>
        <time>2020-07-21T07:50:20Z</time>
      </trkpt>
      <trkpt lat="42.858355" lon="-0.260531">
        <ele>1753.474</ele>
        <time>2020-07-21T07:50:26Z</time>
      </trkpt>
      <trkpt lat="42.858292" lon="-0.260561">
        <ele>1752.995</ele>
        <time>2020-07-21T07:50:32Z</time>
      </trkpt>
      <trkpt lat="42.858244" lon="-0.260578">
        <ele>1753.649</ele>
        <time>2020-07-21T07:50:37Z</time>
      </trkpt>
      <trkpt lat="42.858174" lon="-0.260585">
        <ele>1754.223</ele>
        <time>2020-07-21T07:50:46Z</time>
      </trkpt>
      <trkpt lat="42.858126" lon="-0.260588">
        <ele>1755.108</ele>
        <time>2020-07-21T07:50:50Z</time>
      </trkpt>
      <trkpt lat="42.858074" lon="-0.260610">
        <ele>1753.984</ele>
        <time>2020-07-21T07:50:56Z</time>
      </trkpt>
      <trkpt lat="42.858022" lon="-0.260624">
        <ele>1755.332</ele>
        <time>2020-07-21T07:51:03Z</time>
      </trkpt>
      <trkpt lat="42.857974" lon="-0.260607">
        <ele>1757.356</ele>
        <time>2020-07-21T07:51:09Z</time>
      </trkpt>
      <trkpt lat="42.857925" lon="-0.260573">
        <ele>1756.371</ele>
        <time>2020-07-21T07:51:15Z</time>
      </trkpt>
      <trkpt lat="42.857876" lon="-0.260575">
        <ele>1756.268</ele>
        <time>2020-07-21T07:51:21Z</time>
      </trkpt>
      <trkpt lat="42.857823" lon="-0.260554">
        <ele>1756.587</ele>
        <time>2020-07-21T07:51:27Z</time>
      </trkpt>
      <trkpt lat="42.857768" lon="-0.260534">
        <ele>1755.941</ele>
        <time>2020-07-21T07:51:35Z</time>
      </trkpt>
      <trkpt lat="42.857711" lon="-0.260531">
        <ele>1757.120</ele>
        <time>2020-07-21T07:51:45Z</time>
      </trkpt>
      <trkpt lat="42.857659" lon="-0.260527">
        <ele>1758.946</ele>
        <time>2020-07-21T07:51:53Z</time>
      </trkpt>
      <trkpt lat="42.857622" lon="-0.260488">
        <ele>1759.788</ele>
        <time>2020-07-21T07:51:59Z</time>
      </trkpt>
      <trkpt lat="42.857587" lon="-0.260477">
        <ele>1758.816</ele>
        <time>2020-07-21T07:52:27Z</time>
      </trkpt>
      <trkpt lat="42.857556" lon="-0.260431">
        <ele>1759.108</ele>
        <time>2020-07-21T07:53:10Z</time>
      </trkpt>
      <trkpt lat="42.857515" lon="-0.260438">
        <ele>1758.739</ele>
        <time>2020-07-21T07:53:18Z</time>
      </trkpt>
      <trkpt lat="42.857470" lon="-0.260412">
        <ele>1760.637</ele>
        <time>2020-07-21T07:53:26Z</time>
      </trkpt>
      <trkpt lat="42.857441" lon="-0.260442">
        <ele>1760.571</ele>
        <time>2020-07-21T07:53:48Z</time>
      </trkpt>
      <trkpt lat="42.857399" lon="-0.260460">
        <ele>1759.966</ele>
        <time>2020-07-21T07:53:54Z</time>
      </trkpt>
      <trkpt lat="42.857357" lon="-0.260500">
        <ele>1759.863</ele>
        <time>2020-07-21T07:54:00Z</time>
      </trkpt>
      <trkpt lat="42.857310" lon="-0.260503">
        <ele>1761.932</ele>
        <time>2020-07-21T07:54:08Z</time>
      </trkpt>
      <trkpt lat="42.857270" lon="-0.260545">
        <ele>1760.646</ele>
        <time>2020-07-21T07:54:14Z</time>
      </trkpt>
      <trkpt lat="42.857217" lon="-0.260552">
        <ele>1761.685</ele>
        <time>2020-07-21T07:54:22Z</time>
      </trkpt>
      <trkpt lat="42.857171" lon="-0.260529">
        <ele>1761.952</ele>
        <time>2020-07-21T07:54:30Z</time>
      </trkpt>
      <trkpt lat="42.857123" lon="-0.260508">
        <ele>1762.053</ele>
        <time>2020-07-21T07:54:36Z</time>
      </trkpt>
      <trkpt lat="42.857084" lon="-0.260468">
        <ele>1763.308</ele>
        <time>2020-07-21T07:54:42Z</time>
      </trkpt>
      <trkpt lat="42.857039" lon="-0.260439">
        <ele>1763.908</ele>
        <time>2020-07-21T07:54:48Z</time>
      </trkpt>
      <trkpt lat="42.856989" lon="-0.260434">
        <ele>1758.410</ele>
        <time>2020-07-21T07:54:54Z</time>
      </trkpt>
      <trkpt lat="42.856932" lon="-0.260397">
        <ele>1765.368</ele>
        <time>2020-07-21T07:55:02Z</time>
      </trkpt>
      <trkpt lat="42.856891" lon="-0.260342">
        <ele>1767.312</ele>
        <time>2020-07-21T07:55:16Z</time>
      </trkpt>
      <trkpt lat="42.856881" lon="-0.260277">
        <ele>1767.977</ele>
        <time>2020-07-21T07:55:20Z</time>
      </trkpt>
      <trkpt lat="42.856853" lon="-0.260221">
        <ele>1767.444</ele>
        <time>2020-07-21T07:55:26Z</time>
      </trkpt>
      <trkpt lat="42.856809" lon="-0.260178">
        <ele>1768.853</ele>
        <time>2020-07-21T07:55:32Z</time>
      </trkpt>
      <trkpt lat="42.856772" lon="-0.260128">
        <ele>1769.857</ele>
        <time>2020-07-21T07:55:38Z</time>
      </trkpt>
      <trkpt lat="42.856722" lon="-0.260115">
        <ele>1768.976</ele>
        <time>2020-07-21T07:55:48Z</time>
      </trkpt>
      <trkpt lat="42.856696" lon="-0.260057">
        <ele>1769.417</ele>
        <time>2020-07-21T07:55:56Z</time>
      </trkpt>
      <trkpt lat="42.856706" lon="-0.259987">
        <ele>1769.987</ele>
        <time>2020-07-21T07:56:02Z</time>
      </trkpt>
      <trkpt lat="42.856676" lon="-0.259926">
        <ele>1770.915</ele>
        <time>2020-07-21T07:56:12Z</time>
      </trkpt>
      <trkpt lat="42.856634" lon="-0.259905">
        <ele>1770.508</ele>
        <time>2020-07-21T07:56:16Z</time>
      </trkpt>
      <trkpt lat="42.856585" lon="-0.259896">
        <ele>1771.296</ele>
        <time>2020-07-21T07:56:22Z</time>
      </trkpt>
      <trkpt lat="42.856535" lon="-0.259882">
        <ele>1771.074</ele>
        <time>2020-07-21T07:56:28Z</time>
      </trkpt>
      <trkpt lat="42.856487" lon="-0.259859">
        <ele>1770.928</ele>
        <time>2020-07-21T07:56:34Z</time>
      </trkpt>
      <trkpt lat="42.856429" lon="-0.259866">
        <ele>1771.013</ele>
        <time>2020-07-21T07:56:40Z</time>
      </trkpt>
      <trkpt lat="42.856385" lon="-0.259873">
        <ele>1771.640</ele>
        <time>2020-07-21T07:56:44Z</time>
      </trkpt>
      <trkpt lat="42.856329" lon="-0.259901">
        <ele>1771.959</ele>
        <time>2020-07-21T07:56:50Z</time>
      </trkpt>
      <trkpt lat="42.856295" lon="-0.259951">
        <ele>1772.813</ele>
        <time>2020-07-21T07:56:58Z</time>
      </trkpt>
      <trkpt lat="42.856263" lon="-0.260015">
        <ele>1773.212</ele>
        <time>2020-07-21T07:57:06Z</time>
      </trkpt>
      <trkpt lat="42.856215" lon="-0.260056">
        <ele>1772.559</ele>
        <time>2020-07-21T07:57:12Z</time>
      </trkpt>
      <trkpt lat="42.856176" lon="-0.260095">
        <ele>1773.303</ele>
        <time>2020-07-21T07:57:18Z</time>
      </trkpt>
      <trkpt lat="42.856131" lon="-0.260099">
        <ele>1774.423</ele>
        <time>2020-07-21T07:57:52Z</time>
      </trkpt>
      <trkpt lat="42.856082" lon="-0.260070">
        <ele>1774.908</ele>
        <time>2020-07-21T07:57:56Z</time>
      </trkpt>
      <trkpt lat="42.856025" lon="-0.260066">
        <ele>1775.060</ele>
        <time>2020-07-21T07:58:02Z</time>
      </trkpt>
      <trkpt lat="42.855979" lon="-0.260043">
        <ele>1776.038</ele>
        <time>2020-07-21T07:58:08Z</time>
      </trkpt>
      <trkpt lat="42.855936" lon="-0.260009">
        <ele>1774.372</ele>
        <time>2020-07-21T07:58:14Z</time>
      </trkpt>
      <trkpt lat="42.855903" lon="-0.259941">
        <ele>1776.587</ele>
        <time>2020-07-21T07:58:22Z</time>
      </trkpt>
      <trkpt lat="42.855908" lon="-0.259866">
        <ele>1777.884</ele>
        <time>2020-07-21T07:58:30Z</time>
      </trkpt>
      <trkpt lat="42.855914" lon="-0.259783">
        <ele>1777.783</ele>
        <time>2020-07-21T07:58:36Z</time>
      </trkpt>
      <trkpt lat="42.855925" lon="-0.259712">
        <ele>1779.317</ele>
        <time>2020-07-21T07:58:44Z</time>
      </trkpt>
      <trkpt lat="42.855914" lon="-0.259635">
        <ele>1778.586</ele>
        <time>2020-07-21T07:58:52Z</time>
      </trkpt>
      <trkpt lat="42.855896" lon="-0.259576">
        <ele>1778.698</ele>
        <time>2020-07-21T07:58:58Z</time>
      </trkpt>
      <trkpt lat="42.855883" lon="-0.259503">
        <ele>1778.715</ele>
        <time>2020-07-21T07:59:04Z</time>
      </trkpt>
      <trkpt lat="42.855873" lon="-0.259438">
        <ele>1780.326</ele>
        <time>2020-07-21T07:59:10Z</time>
      </trkpt>
      <trkpt lat="42.855829" lon="-0.259380">
        <ele>1780.608</ele>
        <time>2020-07-21T07:59:16Z</time>
      </trkpt>
      <trkpt lat="42.855787" lon="-0.259348">
        <ele>1781.494</ele>
        <time>2020-07-21T07:59:22Z</time>
      </trkpt>
      <trkpt lat="42.855734" lon="-0.259324">
        <ele>1783.012</ele>
        <time>2020-07-21T07:59:30Z</time>
      </trkpt>
      <trkpt lat="42.855685" lon="-0.259305">
        <ele>1782.646</ele>
        <time>2020-07-21T07:59:34Z</time>
      </trkpt>
      <trkpt lat="42.855632" lon="-0.259284">
        <ele>1784.331</ele>
        <time>2020-07-21T07:59:40Z</time>
      </trkpt>
      <trkpt lat="42.855586" lon="-0.259272">
        <ele>1783.928</ele>
        <time>2020-07-21T07:59:46Z</time>
      </trkpt>
      <trkpt lat="42.855538" lon="-0.259261">
        <ele>1784.157</ele>
        <time>2020-07-21T07:59:52Z</time>
      </trkpt>
      <trkpt lat="42.855486" lon="-0.259254">
        <ele>1785.351</ele>
        <time>2020-07-21T08:00:00Z</time>
      </trkpt>
      <trkpt lat="42.855443" lon="-0.259234">
        <ele>1785.740</ele>
        <time>2020-07-21T08:00:06Z</time>
      </trkpt>
      <trkpt lat="42.855393" lon="-0.259212">
        <ele>1785.659</ele>
        <time>2020-07-21T08:00:12Z</time>
      </trkpt>
      <trkpt lat="42.855334" lon="-0.259166">
        <ele>1787.203</ele>
        <time>2020-07-21T08:00:20Z</time>
      </trkpt>
      <trkpt lat="42.855291" lon="-0.259138">
        <ele>1789.223</ele>
        <time>2020-07-21T08:00:26Z</time>
      </trkpt>
      <trkpt lat="42.855242" lon="-0.259117">
        <ele>1788.608</ele>
        <time>2020-07-21T08:00:35Z</time>
      </trkpt>
      <trkpt lat="42.855190" lon="-0.259099">
        <ele>1789.920</ele>
        <time>2020-07-21T08:00:43Z</time>
      </trkpt>
      <trkpt lat="42.855137" lon="-0.259086">
        <ele>1791.238</ele>
        <time>2020-07-21T08:00:51Z</time>
      </trkpt>
      <trkpt lat="42.855091" lon="-0.259067">
        <ele>1790.612</ele>
        <time>2020-07-21T08:00:59Z</time>
      </trkpt>
      <trkpt lat="42.855030" lon="-0.259054">
        <ele>1792.067</ele>
        <time>2020-07-21T08:01:09Z</time>
      </trkpt>
      <trkpt lat="42.854974" lon="-0.259021">
        <ele>1794.424</ele>
        <time>2020-07-21T08:01:17Z</time>
      </trkpt>
      <trkpt lat="42.855001" lon="-0.258963">
        <ele>1795.463</ele>
        <time>2020-07-21T08:02:23Z</time>
      </trkpt>
      <trkpt lat="42.855037" lon="-0.258908">
        <ele>1795.947</ele>
        <time>2020-07-21T08:02:29Z</time>
      </trkpt>
      <trkpt lat="42.855077" lon="-0.258860">
        <ele>1797.726</ele>
        <time>2020-07-21T08:02:35Z</time>
      </trkpt>
      <trkpt lat="42.855124" lon="-0.258802">
        <ele>1797.024</ele>
        <time>2020-07-21T08:02:43Z</time>
      </trkpt>
      <trkpt lat="42.855152" lon="-0.258751">
        <ele>1798.504</ele>
        <time>2020-07-21T08:02:49Z</time>
      </trkpt>
      <trkpt lat="42.855188" lon="-0.258703">
        <ele>1799.714</ele>
        <time>2020-07-21T08:02:55Z</time>
      </trkpt>
      <trkpt lat="42.855240" lon="-0.258661">
        <ele>1801.108</ele>
        <time>2020-07-21T08:03:03Z</time>
      </trkpt>
      <trkpt lat="42.855283" lon="-0.258620">
        <ele>1801.777</ele>
        <time>2020-07-21T08:03:09Z</time>
      </trkpt>
      <trkpt lat="42.855314" lon="-0.258552">
        <ele>1802.745</ele>
        <time>2020-07-21T08:03:17Z</time>
      </trkpt>
      <trkpt lat="42.855335" lon="-0.258498">
        <ele>1802.199</ele>
        <time>2020-07-21T08:03:25Z</time>
      </trkpt>
      <trkpt lat="42.855370" lon="-0.258436">
        <ele>1804.914</ele>
        <time>2020-07-21T08:03:35Z</time>
      </trkpt>
      <trkpt lat="42.855382" lon="-0.258370">
        <ele>1804.951</ele>
        <time>2020-07-21T08:03:41Z</time>
      </trkpt>
      <trkpt lat="42.855420" lon="-0.258320">
        <ele>1805.030</ele>
        <time>2020-07-21T08:03:47Z</time>
      </trkpt>
      <trkpt lat="42.855467" lon="-0.258288">
        <ele>1804.214</ele>
        <time>2020-07-21T08:03:53Z</time>
      </trkpt>
      <trkpt lat="42.855508" lon="-0.258250">
        <ele>1805.823</ele>
        <time>2020-07-21T08:03:59Z</time>
      </trkpt>
      <trkpt lat="42.855549" lon="-0.258192">
        <ele>1806.476</ele>
        <time>2020-07-21T08:04:05Z</time>
      </trkpt>
      <trkpt lat="42.855589" lon="-0.258151">
        <ele>1805.090</ele>
        <time>2020-07-21T08:04:11Z</time>
      </trkpt>
      <trkpt lat="42.855531" lon="-0.258126">
        <ele>1808.319</ele>
        <time>2020-07-21T08:04:25Z</time>
      </trkpt>
      <trkpt lat="42.855481" lon="-0.258139">
        <ele>1807.108</ele>
        <time>2020-07-21T08:04:29Z</time>
      </trkpt>
      <trkpt lat="42.855433" lon="-0.258148">
        <ele>1808.282</ele>
        <time>2020-07-21T08:04:37Z</time>
      </trkpt>
      <trkpt lat="42.855378" lon="-0.258148">
        <ele>1809.250</ele>
        <time>2020-07-21T08:04:45Z</time>
      </trkpt>
      <trkpt lat="42.855325" lon="-0.258156">
        <ele>1810.744</ele>
        <time>2020-07-21T08:04:53Z</time>
      </trkpt>
      <trkpt lat="42.855278" lon="-0.258176">
        <ele>1811.529</ele>
        <time>2020-07-21T08:04:59Z</time>
      </trkpt>
      <trkpt lat="42.855225" lon="-0.258199">
        <ele>1812.636</ele>
        <time>2020-07-21T08:05:07Z</time>
      </trkpt>
      <trkpt lat="42.855177" lon="-0.258223">
        <ele>1813.575</ele>
        <time>2020-07-21T08:05:21Z</time>
      </trkpt>
      <trkpt lat="42.855123" lon="-0.258237">
        <ele>1815.339</ele>
        <time>2020-07-21T08:05:29Z</time>
      </trkpt>
      <trkpt lat="42.855076" lon="-0.258218">
        <ele>1816.078</ele>
        <time>2020-07-21T08:05:35Z</time>
      </trkpt>
      <trkpt lat="42.855015" lon="-0.258205">
        <ele>1816.832</ele>
        <time>2020-07-21T08:05:41Z</time>
      </trkpt>
      <trkpt lat="42.854973" lon="-0.258192">
        <ele>1818.092</ele>
        <time>2020-07-21T08:05:51Z</time>
      </trkpt>
      <trkpt lat="42.854928" lon="-0.258186">
        <ele>1818.511</ele>
        <time>2020-07-21T08:05:59Z</time>
      </trkpt>
      <trkpt lat="42.854964" lon="-0.258124">
        <ele>1819.908</ele>
        <time>2020-07-21T08:06:07Z</time>
      </trkpt>
      <trkpt lat="42.855013" lon="-0.258094">
        <ele>1820.838</ele>
        <time>2020-07-21T08:06:11Z</time>
      </trkpt>
      <trkpt lat="42.855054" lon="-0.258063">
        <ele>1820.686</ele>
        <time>2020-07-21T08:06:17Z</time>
      </trkpt>
      <trkpt lat="42.855103" lon="-0.258030">
        <ele>1822.290</ele>
        <time>2020-07-21T08:06:25Z</time>
      </trkpt>
      <trkpt lat="42.855046" lon="-0.257996">
        <ele>1823.355</ele>
        <time>2020-07-21T08:06:35Z</time>
      </trkpt>
      <trkpt lat="42.855000" lon="-0.258016">
        <ele>1823.832</ele>
        <time>2020-07-21T08:07:27Z</time>
      </trkpt>
      <trkpt lat="42.854954" lon="-0.258036">
        <ele>1823.271</ele>
        <time>2020-07-21T08:07:31Z</time>
      </trkpt>
      <trkpt lat="42.854904" lon="-0.258039">
        <ele>1824.275</ele>
        <time>2020-07-21T08:07:35Z</time>
      </trkpt>
      <trkpt lat="42.854852" lon="-0.258053">
        <ele>1825.434</ele>
        <time>2020-07-21T08:07:43Z</time>
      </trkpt>
      <trkpt lat="42.854803" lon="-0.258042">
        <ele>1825.786</ele>
        <time>2020-07-21T08:07:49Z</time>
      </trkpt>
      <trkpt lat="42.854756" lon="-0.258042">
        <ele>1826.460</ele>
        <time>2020-07-21T08:07:55Z</time>
      </trkpt>
      <trkpt lat="42.854707" lon="-0.258061">
        <ele>1825.226</ele>
        <time>2020-07-21T08:08:03Z</time>
      </trkpt>
      <trkpt lat="42.854659" lon="-0.258086">
        <ele>1828.008</ele>
        <time>2020-07-21T08:08:09Z</time>
      </trkpt>
      <trkpt lat="42.854599" lon="-0.258090">
        <ele>1829.253</ele>
        <time>2020-07-21T08:08:17Z</time>
      </trkpt>
      <trkpt lat="42.854553" lon="-0.258093">
        <ele>1828.811</ele>
        <time>2020-07-21T08:08:25Z</time>
      </trkpt>
      <trkpt lat="42.854506" lon="-0.258076">
        <ele>1828.975</ele>
        <time>2020-07-21T08:08:31Z</time>
      </trkpt>
      <trkpt lat="42.854449" lon="-0.258080">
        <ele>1831.330</ele>
        <time>2020-07-21T08:08:37Z</time>
      </trkpt>
      <trkpt lat="42.854401" lon="-0.258076">
        <ele>1830.577</ele>
        <time>2020-07-21T08:08:45Z</time>
      </trkpt>
      <trkpt lat="42.854352" lon="-0.258066">
        <ele>1831.476</ele>
        <time>2020-07-21T08:08:53Z</time>
      </trkpt>
      <trkpt lat="42.854303" lon="-0.258070">
        <ele>1832.310</ele>
        <time>2020-07-21T08:08:59Z</time>
      </trkpt>
      <trkpt lat="42.854254" lon="-0.258068">
        <ele>1832.499</ele>
        <time>2020-07-21T08:09:07Z</time>
      </trkpt>
      <trkpt lat="42.854208" lon="-0.258062">
        <ele>1835.252</ele>
        <time>2020-07-21T08:09:13Z</time>
      </trkpt>
      <trkpt lat="42.854156" lon="-0.258072">
        <ele>1835.553</ele>
        <time>2020-07-21T08:09:25Z</time>
      </trkpt>
      <trkpt lat="42.854101" lon="-0.258093">
        <ele>1837.208</ele>
        <time>2020-07-21T08:09:33Z</time>
      </trkpt>
      <trkpt lat="42.854046" lon="-0.258115">
        <ele>1838.508</ele>
        <time>2020-07-21T08:09:41Z</time>
      </trkpt>
      <trkpt lat="42.853994" lon="-0.258127">
        <ele>1839.160</ele>
        <time>2020-07-21T08:09:47Z</time>
      </trkpt>
      <trkpt lat="42.854016" lon="-0.258059">
        <ele>1841.588</ele>
        <time>2020-07-21T08:10:05Z</time>
      </trkpt>
      <trkpt lat="42.854052" lon="-0.258017">
        <ele>1843.532</ele>
        <time>2020-07-21T08:10:11Z</time>
      </trkpt>
      <trkpt lat="42.854102" lon="-0.257962">
        <ele>1843.457</ele>
        <time>2020-07-21T08:10:17Z</time>
      </trkpt>
      <trkpt lat="42.854138" lon="-0.257911">
        <ele>1844.224</ele>
        <time>2020-07-21T08:10:25Z</time>
      </trkpt>
      <trkpt lat="42.854174" lon="-0.257862">
        <ele>1843.133</ele>
        <time>2020-07-21T08:10:33Z</time>
      </trkpt>
      <trkpt lat="42.854206" lon="-0.257813">
        <ele>1845.047</ele>
        <time>2020-07-21T08:10:39Z</time>
      </trkpt>
      <trkpt lat="42.854244" lon="-0.257778">
        <ele>1845.446</ele>
        <time>2020-07-21T08:10:43Z</time>
      </trkpt>
      <trkpt lat="42.854289" lon="-0.257741">
        <ele>1846.428</ele>
        <time>2020-07-21T08:10:51Z</time>
      </trkpt>
      <trkpt lat="42.854333" lon="-0.257710">
        <ele>1846.789</ele>
        <time>2020-07-21T08:10:57Z</time>
      </trkpt>
      <trkpt lat="42.854395" lon="-0.257692">
        <ele>1847.817</ele>
        <time>2020-07-21T08:11:03Z</time>
      </trkpt>
      <trkpt lat="42.854447" lon="-0.257686">
        <ele>1847.908</ele>
        <time>2020-07-21T08:11:09Z</time>
      </trkpt>
      <trkpt lat="42.854495" lon="-0.257640">
        <ele>1849.427</ele>
        <time>2020-07-21T08:11:17Z</time>
      </trkpt>
      <trkpt lat="42.854438" lon="-0.257617">
        <ele>1850.145</ele>
        <time>2020-07-21T08:11:23Z</time>
      </trkpt>
      <trkpt lat="42.854389" lon="-0.257598">
        <ele>1851.399</ele>
        <time>2020-07-21T08:11:29Z</time>
      </trkpt>
      <trkpt lat="42.854344" lon="-0.257578">
        <ele>1851.934</ele>
        <time>2020-07-21T08:11:37Z</time>
      </trkpt>
      <trkpt lat="42.854295" lon="-0.257567">
        <ele>1853.511</ele>
        <time>2020-07-21T08:11:45Z</time>
      </trkpt>
      <trkpt lat="42.854239" lon="-0.257586">
        <ele>1853.270</ele>
        <time>2020-07-21T08:11:53Z</time>
      </trkpt>
      <trkpt lat="42.854186" lon="-0.257615">
        <ele>1853.654</ele>
        <time>2020-07-21T08:11:59Z</time>
      </trkpt>
      <trkpt lat="42.854138" lon="-0.257645">
        <ele>1854.883</ele>
        <time>2020-07-21T08:12:05Z</time>
      </trkpt>
      <trkpt lat="42.854090" lon="-0.257666">
        <ele>1855.581</ele>
        <time>2020-07-21T08:12:13Z</time>
      </trkpt>
      <trkpt lat="42.854043" lon="-0.257670">
        <ele>1856.061</ele>
        <time>2020-07-21T08:12:19Z</time>
      </trkpt>
      <trkpt lat="42.853995" lon="-0.257685">
        <ele>1856.517</ele>
        <time>2020-07-21T08:12:25Z</time>
      </trkpt>
      <trkpt lat="42.853946" lon="-0.257694">
        <ele>1857.708</ele>
        <time>2020-07-21T08:12:31Z</time>
      </trkpt>
      <trkpt lat="42.853889" lon="-0.257690">
        <ele>1858.773</ele>
        <time>2020-07-21T08:12:39Z</time>
      </trkpt>
      <trkpt lat="42.853831" lon="-0.257687">
        <ele>1859.871</ele>
        <time>2020-07-21T08:12:45Z</time>
      </trkpt>
      <trkpt lat="42.853870" lon="-0.257642">
        <ele>1861.445</ele>
        <time>2020-07-21T08:12:59Z</time>
      </trkpt>
      <trkpt lat="42.853924" lon="-0.257608">
        <ele>1862.070</ele>
        <time>2020-07-21T08:13:05Z</time>
      </trkpt>
      <trkpt lat="42.853980" lon="-0.257570">
        <ele>1862.737</ele>
        <time>2020-07-21T08:13:11Z</time>
      </trkpt>
      <trkpt lat="42.854019" lon="-0.257518">
        <ele>1864.116</ele>
        <time>2020-07-21T08:13:17Z</time>
      </trkpt>
      <trkpt lat="42.854065" lon="-0.257478">
        <ele>1864.320</ele>
        <time>2020-07-21T08:13:23Z</time>
      </trkpt>
      <trkpt lat="42.854103" lon="-0.257435">
        <ele>1864.959</ele>
        <time>2020-07-21T08:13:29Z</time>
      </trkpt>
      <trkpt lat="42.854136" lon="-0.257387">
        <ele>1865.576</ele>
        <time>2020-07-21T08:13:35Z</time>
      </trkpt>
      <trkpt lat="42.854178" lon="-0.257330">
        <ele>1865.190</ele>
        <time>2020-07-21T08:13:41Z</time>
      </trkpt>
      <trkpt lat="42.854233" lon="-0.257316">
        <ele>1865.119</ele>
        <time>2020-07-21T08:13:49Z</time>
      </trkpt>
      <trkpt lat="42.854278" lon="-0.257283">
        <ele>1865.108</ele>
        <time>2020-07-21T08:13:55Z</time>
      </trkpt>
      <trkpt lat="42.854326" lon="-0.257268">
        <ele>1866.682</ele>
        <time>2020-07-21T08:14:03Z</time>
      </trkpt>
      <trkpt lat="42.854368" lon="-0.257223">
        <ele>1867.710</ele>
        <time>2020-07-21T08:14:11Z</time>
      </trkpt>
      <trkpt lat="42.854327" lon="-0.257196">
        <ele>1869.844</ele>
        <time>2020-07-21T08:14:23Z</time>
      </trkpt>
      <trkpt lat="42.854279" lon="-0.257176">
        <ele>1869.059</ele>
        <time>2020-07-21T08:14:35Z</time>
      </trkpt>
      <trkpt lat="42.854220" lon="-0.257170">
        <ele>1869.886</ele>
        <time>2020-07-21T08:14:41Z</time>
      </trkpt>
      <trkpt lat="42.854171" lon="-0.257193">
        <ele>1870.975</ele>
        <time>2020-07-21T08:14:47Z</time>
      </trkpt>
      <trkpt lat="42.854124" lon="-0.257236">
        <ele>1871.019</ele>
        <time>2020-07-21T08:14:53Z</time>
      </trkpt>
      <trkpt lat="42.854069" lon="-0.257246">
        <ele>1871.538</ele>
        <time>2020-07-21T08:14:59Z</time>
      </trkpt>
      <trkpt lat="42.854017" lon="-0.257245">
        <ele>1872.458</ele>
        <time>2020-07-21T08:15:05Z</time>
      </trkpt>
      <trkpt lat="42.853955" lon="-0.257259">
        <ele>1872.852</ele>
        <time>2020-07-21T08:15:13Z</time>
      </trkpt>
      <trkpt lat="42.853914" lon="-0.257285">
        <ele>1874.817</ele>
        <time>2020-07-21T08:15:17Z</time>
      </trkpt>
      <trkpt lat="42.853859" lon="-0.257290">
        <ele>1875.908</ele>
        <time>2020-07-21T08:15:25Z</time>
      </trkpt>
      <trkpt lat="42.853901" lon="-0.257247">
        <ele>1876.710</ele>
        <time>2020-07-21T08:16:31Z</time>
      </trkpt>
      <trkpt lat="42.853941" lon="-0.257191">
        <ele>1879.318</ele>
        <time>2020-07-21T08:16:41Z</time>
      </trkpt>
      <trkpt lat="42.853988" lon="-0.257139">
        <ele>1881.422</ele>
        <time>2020-07-21T08:16:49Z</time>
      </trkpt>
      <trkpt lat="42.854018" lon="-0.257080">
        <ele>1882.397</ele>
        <time>2020-07-21T08:16:57Z</time>
      </trkpt>
      <trkpt lat="42.854056" lon="-0.257028">
        <ele>1883.494</ele>
        <time>2020-07-21T08:17:07Z</time>
      </trkpt>
      <trkpt lat="42.854101" lon="-0.256965">
        <ele>1883.453</ele>
        <time>2020-07-21T08:17:13Z</time>
      </trkpt>
      <trkpt lat="42.854138" lon="-0.256903">
        <ele>1883.717</ele>
        <time>2020-07-21T08:17:19Z</time>
      </trkpt>
      <trkpt lat="42.854179" lon="-0.256860">
        <ele>1884.876</ele>
        <time>2020-07-21T08:17:25Z</time>
      </trkpt>
      <trkpt lat="42.854222" lon="-0.256834">
        <ele>1886.485</ele>
        <time>2020-07-21T08:17:33Z</time>
      </trkpt>
      <trkpt lat="42.854267" lon="-0.256801">
        <ele>1887.489</ele>
        <time>2020-07-21T08:17:39Z</time>
      </trkpt>
      <trkpt lat="42.854221" lon="-0.256795">
        <ele>1889.517</ele>
        <time>2020-07-21T08:17:51Z</time>
      </trkpt>
      <trkpt lat="42.854175" lon="-0.256795">
        <ele>1890.508</ele>
        <time>2020-07-21T08:17:55Z</time>
      </trkpt>
      <trkpt lat="42.854119" lon="-0.256806">
        <ele>1890.963</ele>
        <time>2020-07-21T08:18:01Z</time>
      </trkpt>
      <trkpt lat="42.854084" lon="-0.256850">
        <ele>1889.421</ele>
        <time>2020-07-21T08:18:07Z</time>
      </trkpt>
      <trkpt lat="42.854024" lon="-0.256869">
        <ele>1890.125</ele>
        <time>2020-07-21T08:18:13Z</time>
      </trkpt>
      <trkpt lat="42.853977" lon="-0.256879">
        <ele>1892.150</ele>
        <time>2020-07-21T08:18:21Z</time>
      </trkpt>
      <trkpt lat="42.853931" lon="-0.256878">
        <ele>1892.277</ele>
        <time>2020-07-21T08:18:27Z</time>
      </trkpt>
      <trkpt lat="42.853879" lon="-0.256890">
        <ele>1893.666</ele>
        <time>2020-07-21T08:18:35Z</time>
      </trkpt>
      <trkpt lat="42.853821" lon="-0.256897">
        <ele>1891.210</ele>
        <time>2020-07-21T08:18:43Z</time>
      </trkpt>
      <trkpt lat="42.853764" lon="-0.256917">
        <ele>1895.369</ele>
        <time>2020-07-21T08:18:51Z</time>
      </trkpt>
      <trkpt lat="42.853708" lon="-0.256933">
        <ele>1895.864</ele>
        <time>2020-07-21T08:18:57Z</time>
      </trkpt>
      <trkpt lat="42.853660" lon="-0.256921">
        <ele>1897.206</ele>
        <time>2020-07-21T08:19:03Z</time>
      </trkpt>
      <trkpt lat="42.853607" lon="-0.256918">
        <ele>1897.216</ele>
        <time>2020-07-21T08:19:09Z</time>
      </trkpt>
      <trkpt lat="42.853567" lon="-0.256875">
        <ele>1898.308</ele>
        <time>2020-07-21T08:19:19Z</time>
      </trkpt>
      <trkpt lat="42.853528" lon="-0.256846">
        <ele>1900.221</ele>
        <time>2020-07-21T08:19:31Z</time>
      </trkpt>
      <trkpt lat="42.853489" lon="-0.256861">
        <ele>1899.869</ele>
        <time>2020-07-21T08:19:35Z</time>
      </trkpt>
      <trkpt lat="42.853441" lon="-0.256862">
        <ele>1900.273</ele>
        <time>2020-07-21T08:19:41Z</time>
      </trkpt>
      <trkpt lat="42.853390" lon="-0.256843">
        <ele>1902.878</ele>
        <time>2020-07-21T08:19:51Z</time>
      </trkpt>
      <trkpt lat="42.853344" lon="-0.256820">
        <ele>1904.895</ele>
        <time>2020-07-21T08:19:59Z</time>
      </trkpt>
      <trkpt lat="42.853295" lon="-0.256801">
        <ele>1903.574</ele>
        <time>2020-07-21T08:20:03Z</time>
      </trkpt>
      <trkpt lat="42.853255" lon="-0.256763">
        <ele>1906.218</ele>
        <time>2020-07-21T08:20:15Z</time>
      </trkpt>
      <trkpt lat="42.853207" lon="-0.256753">
        <ele>1907.627</ele>
        <time>2020-07-21T08:20:21Z</time>
      </trkpt>
      <trkpt lat="42.853154" lon="-0.256773">
        <ele>1907.112</ele>
        <time>2020-07-21T08:20:27Z</time>
      </trkpt>
      <trkpt lat="42.853108" lon="-0.256787">
        <ele>1907.132</ele>
        <time>2020-07-21T08:20:35Z</time>
      </trkpt>
      <trkpt lat="42.853052" lon="-0.256796">
        <ele>1908.605</ele>
        <time>2020-07-21T08:20:41Z</time>
      </trkpt>
      <trkpt lat="42.853000" lon="-0.256827">
        <ele>1908.608</ele>
        <time>2020-07-21T08:20:47Z</time>
      </trkpt>
      <trkpt lat="42.852957" lon="-0.256845">
        <ele>1910.576</ele>
        <time>2020-07-21T08:20:55Z</time>
      </trkpt>
      <trkpt lat="42.852986" lon="-0.256792">
        <ele>1913.024</ele>
        <time>2020-07-21T08:22:22Z</time>
      </trkpt>
      <trkpt lat="42.853016" lon="-0.256748">
        <ele>1913.388</ele>
        <time>2020-07-21T08:22:28Z</time>
      </trkpt>
      <trkpt lat="42.853060" lon="-0.256692">
        <ele>1913.973</ele>
        <time>2020-07-21T08:22:34Z</time>
      </trkpt>
      <trkpt lat="42.853102" lon="-0.256654">
        <ele>1914.660</ele>
        <time>2020-07-21T08:22:40Z</time>
      </trkpt>
      <trkpt lat="42.853169" lon="-0.256632">
        <ele>1914.939</ele>
        <time>2020-07-21T08:22:46Z</time>
      </trkpt>
      <trkpt lat="42.853224" lon="-0.256625">
        <ele>1914.053</ele>
        <time>2020-07-21T08:22:52Z</time>
      </trkpt>
      <trkpt lat="42.853278" lon="-0.256623">
        <ele>1915.092</ele>
        <time>2020-07-21T08:22:58Z</time>
      </trkpt>
      <trkpt lat="42.853333" lon="-0.256608">
        <ele>1916.813</ele>
        <time>2020-07-21T08:23:04Z</time>
      </trkpt>
      <trkpt lat="42.853384" lon="-0.256583">
        <ele>1917.343</ele>
        <time>2020-07-21T08:23:12Z</time>
      </trkpt>
      <trkpt lat="42.853431" lon="-0.256565">
        <ele>1916.907</ele>
        <time>2020-07-21T08:23:18Z</time>
      </trkpt>
      <trkpt lat="42.853393" lon="-0.256527">
        <ele>1919.708</ele>
        <time>2020-07-21T08:23:30Z</time>
      </trkpt>
      <trkpt lat="42.853347" lon="-0.256506">
        <ele>1920.536</ele>
        <time>2020-07-21T08:23:34Z</time>
      </trkpt>
      <trkpt lat="42.853291" lon="-0.256483">
        <ele>1919.934</ele>
        <time>2020-07-21T08:23:40Z</time>
      </trkpt>
      <trkpt lat="42.853236" lon="-0.256481">
        <ele>1920.378</ele>
        <time>2020-07-21T08:23:46Z</time>
      </trkpt>
      <trkpt lat="42.853184" lon="-0.256495">
        <ele>1921.523</ele>
        <time>2020-07-21T08:23:52Z</time>
      </trkpt>
      <trkpt lat="42.853117" lon="-0.256479">
        <ele>1922.340</ele>
        <time>2020-07-21T08:23:58Z</time>
      </trkpt>
      <trkpt lat="42.853069" lon="-0.256489">
        <ele>1922.599</ele>
        <time>2020-07-21T08:24:06Z</time>
      </trkpt>
      <trkpt lat="42.853022" lon="-0.256526">
        <ele>1923.113</ele>
        <time>2020-07-21T08:24:16Z</time>
      </trkpt>
      <trkpt lat="42.852965" lon="-0.256541">
        <ele>1925.332</ele>
        <time>2020-07-21T08:24:28Z</time>
      </trkpt>
      <trkpt lat="42.852909" lon="-0.256545">
        <ele>1924.085</ele>
        <time>2020-07-21T08:24:34Z</time>
      </trkpt>
      <trkpt lat="42.852856" lon="-0.256549">
        <ele>1927.789</ele>
        <time>2020-07-21T08:24:40Z</time>
      </trkpt>
      <trkpt lat="42.852807" lon="-0.256540">
        <ele>1926.317</ele>
        <time>2020-07-21T08:24:48Z</time>
      </trkpt>
      <trkpt lat="42.852748" lon="-0.256530">
        <ele>1927.808</ele>
        <time>2020-07-21T08:24:54Z</time>
      </trkpt>
      <trkpt lat="42.852699" lon="-0.256518">
        <ele>1927.963</ele>
        <time>2020-07-21T08:25:00Z</time>
      </trkpt>
      <trkpt lat="42.852650" lon="-0.256532">
        <ele>1930.091</ele>
        <time>2020-07-21T08:25:08Z</time>
      </trkpt>
      <trkpt lat="42.852601" lon="-0.256557">
        <ele>1929.345</ele>
        <time>2020-07-21T08:25:14Z</time>
      </trkpt>
      <trkpt lat="42.852550" lon="-0.256574">
        <ele>1930.030</ele>
        <time>2020-07-21T08:25:20Z</time>
      </trkpt>
      <trkpt lat="42.852504" lon="-0.256596">
        <ele>1931.977</ele>
        <time>2020-07-21T08:25:28Z</time>
      </trkpt>
      <trkpt lat="42.852458" lon="-0.256604">
        <ele>1932.146</ele>
        <time>2020-07-21T08:25:36Z</time>
      </trkpt>
      <trkpt lat="42.852388" lon="-0.256612">
        <ele>1933.070</ele>
        <time>2020-07-21T08:25:44Z</time>
      </trkpt>
      <trkpt lat="42.852342" lon="-0.256610">
        <ele>1934.279</ele>
        <time>2020-07-21T08:25:50Z</time>
      </trkpt>
      <trkpt lat="42.852297" lon="-0.256626">
        <ele>1935.682</ele>
        <time>2020-07-21T08:25:56Z</time>
      </trkpt>
      <trkpt lat="42.852241" lon="-0.256623">
        <ele>1935.443</ele>
        <time>2020-07-21T08:26:06Z</time>
      </trkpt>
      <trkpt lat="42.852196" lon="-0.256621">
        <ele>1937.717</ele>
        <time>2020-07-21T08:26:14Z</time>
      </trkpt>
      <trkpt lat="42.852145" lon="-0.256613">
        <ele>1937.408</ele>
        <time>2020-07-21T08:26:22Z</time>
      </trkpt>
      <trkpt lat="42.852088" lon="-0.256622">
        <ele>1938.283</ele>
        <time>2020-07-21T08:26:32Z</time>
      </trkpt>
      <trkpt lat="42.852036" lon="-0.256600">
        <ele>1940.251</ele>
        <time>2020-07-21T08:26:40Z</time>
      </trkpt>
      <trkpt lat="42.851969" lon="-0.256591">
        <ele>1942.385</ele>
        <time>2020-07-21T08:26:48Z</time>
      </trkpt>
      <trkpt lat="42.851915" lon="-0.256582">
        <ele>1941.820</ele>
        <time>2020-07-21T08:26:54Z</time>
      </trkpt>
      <trkpt lat="42.851864" lon="-0.256582">
        <ele>1942.787</ele>
        <time>2020-07-21T08:27:00Z</time>
      </trkpt>
      <trkpt lat="42.851818" lon="-0.256568">
        <ele>1943.226</ele>
        <time>2020-07-21T08:27:08Z</time>
      </trkpt>
      <trkpt lat="42.851765" lon="-0.256558">
        <ele>1945.360</ele>
        <time>2020-07-21T08:27:18Z</time>
      </trkpt>
      <trkpt lat="42.851700" lon="-0.256556">
        <ele>1945.879</ele>
        <time>2020-07-21T08:27:26Z</time>
      </trkpt>
      <trkpt lat="42.851660" lon="-0.256547">
        <ele>1946.866</ele>
        <time>2020-07-21T08:27:32Z</time>
      </trkpt>
      <trkpt lat="42.851604" lon="-0.256541">
        <ele>1947.829</ele>
        <time>2020-07-21T08:27:40Z</time>
      </trkpt>
      <trkpt lat="42.851549" lon="-0.256525">
        <ele>1949.221</ele>
        <time>2020-07-21T08:27:46Z</time>
      </trkpt>
      <trkpt lat="42.851502" lon="-0.256496">
        <ele>1950.108</ele>
        <time>2020-07-21T08:27:54Z</time>
      </trkpt>
      <trkpt lat="42.851557" lon="-0.256468">
        <ele>1951.261</ele>
        <time>2020-07-21T08:29:36Z</time>
      </trkpt>
      <trkpt lat="42.851616" lon="-0.256471">
        <ele>1952.379</ele>
        <time>2020-07-21T08:29:42Z</time>
      </trkpt>
      <trkpt lat="42.851667" lon="-0.256466">
        <ele>1952.453</ele>
        <time>2020-07-21T08:29:48Z</time>
      </trkpt>
      <trkpt lat="42.851716" lon="-0.256448">
        <ele>1952.068</ele>
        <time>2020-07-21T08:29:54Z</time>
      </trkpt>
      <trkpt lat="42.851766" lon="-0.256425">
        <ele>1953.715</ele>
        <time>2020-07-21T08:30:02Z</time>
      </trkpt>
      <trkpt lat="42.851815" lon="-0.256386">
        <ele>1953.274</ele>
        <time>2020-07-21T08:30:10Z</time>
      </trkpt>
      <trkpt lat="42.851865" lon="-0.256362">
        <ele>1952.688</ele>
        <time>2020-07-21T08:30:16Z</time>
      </trkpt>
      <trkpt lat="42.851913" lon="-0.256352">
        <ele>1953.927</ele>
        <time>2020-07-21T08:30:20Z</time>
      </trkpt>
      <trkpt lat="42.851969" lon="-0.256323">
        <ele>1954.415</ele>
        <time>2020-07-21T08:30:26Z</time>
      </trkpt>
      <trkpt lat="42.852027" lon="-0.256293">
        <ele>1956.165</ele>
        <time>2020-07-21T08:30:34Z</time>
      </trkpt>
      <trkpt lat="42.852081" lon="-0.256265">
        <ele>1957.011</ele>
        <time>2020-07-21T08:30:40Z</time>
      </trkpt>
      <trkpt lat="42.852130" lon="-0.256227">
        <ele>1955.908</ele>
        <time>2020-07-21T08:30:48Z</time>
      </trkpt>
      <trkpt lat="42.852182" lon="-0.256184">
        <ele>1958.086</ele>
        <time>2020-07-21T08:30:56Z</time>
      </trkpt>
      <trkpt lat="42.852222" lon="-0.256137">
        <ele>1959.764</ele>
        <time>2020-07-21T08:31:06Z</time>
      </trkpt>
      <trkpt lat="42.852267" lon="-0.256104">
        <ele>1958.668</ele>
        <time>2020-07-21T08:31:12Z</time>
      </trkpt>
      <trkpt lat="42.852322" lon="-0.256041">
        <ele>1961.183</ele>
        <time>2020-07-21T08:31:18Z</time>
      </trkpt>
      <trkpt lat="42.852259" lon="-0.256002">
        <ele>1963.530</ele>
        <time>2020-07-21T08:31:34Z</time>
      </trkpt>
      <trkpt lat="42.852187" lon="-0.256014">
        <ele>1963.719</ele>
        <time>2020-07-21T08:31:40Z</time>
      </trkpt>
      <trkpt lat="42.852140" lon="-0.256049">
        <ele>1965.233</ele>
        <time>2020-07-21T08:31:44Z</time>
      </trkpt>
      <trkpt lat="42.852087" lon="-0.256056">
        <ele>1963.412</ele>
        <time>2020-07-21T08:31:52Z</time>
      </trkpt>
      <trkpt lat="42.852035" lon="-0.256051">
        <ele>1964.932</ele>
        <time>2020-07-21T08:32:02Z</time>
      </trkpt>
      <trkpt lat="42.851977" lon="-0.256046">
        <ele>1966.992</ele>
        <time>2020-07-21T08:32:10Z</time>
      </trkpt>
      <trkpt lat="42.851918" lon="-0.256040">
        <ele>1969.011</ele>
        <time>2020-07-21T08:32:18Z</time>
      </trkpt>
      <trkpt lat="42.851870" lon="-0.256032">
        <ele>1969.708</ele>
        <time>2020-07-21T08:32:26Z</time>
      </trkpt>
      <trkpt lat="42.851808" lon="-0.256019">
        <ele>1969.868</ele>
        <time>2020-07-21T08:32:34Z</time>
      </trkpt>
      <trkpt lat="42.851750" lon="-0.256020">
        <ele>1970.326</ele>
        <time>2020-07-21T08:32:40Z</time>
      </trkpt>
      <trkpt lat="42.851702" lon="-0.256007">
        <ele>1971.420</ele>
        <time>2020-07-21T08:32:50Z</time>
      </trkpt>
      <trkpt lat="42.851656" lon="-0.255989">
        <ele>1974.265</ele>
        <time>2020-07-21T08:32:56Z</time>
      </trkpt>
      <trkpt lat="42.851608" lon="-0.255958">
        <ele>1973.692</ele>
        <time>2020-07-21T08:33:04Z</time>
      </trkpt>
      <trkpt lat="42.851551" lon="-0.255957">
        <ele>1974.371</ele>
        <time>2020-07-21T08:33:12Z</time>
      </trkpt>
      <trkpt lat="42.851487" lon="-0.255912">
        <ele>1974.445</ele>
        <time>2020-07-21T08:33:18Z</time>
      </trkpt>
      <trkpt lat="42.851428" lon="-0.255877">
        <ele>1976.584</ele>
        <time>2020-07-21T08:33:22Z</time>
      </trkpt>
      <trkpt lat="42.851396" lon="-0.255824">
        <ele>1976.669</ele>
        <time>2020-07-21T08:33:30Z</time>
      </trkpt>
      <trkpt lat="42.851363" lon="-0.255779">
        <ele>1978.404</ele>
        <time>2020-07-21T08:33:46Z</time>
      </trkpt>
      <trkpt lat="42.851323" lon="-0.255742">
        <ele>1979.724</ele>
        <time>2020-07-21T08:33:52Z</time>
      </trkpt>
      <trkpt lat="42.851289" lon="-0.255693">
        <ele>1979.708</ele>
        <time>2020-07-21T08:34:00Z</time>
      </trkpt>
      <trkpt lat="42.851264" lon="-0.255660">
        <ele>1981.241</ele>
        <time>2020-07-21T08:34:06Z</time>
      </trkpt>
      <trkpt lat="42.851236" lon="-0.255616">
        <ele>1982.639</ele>
        <time>2020-07-21T08:35:22Z</time>
      </trkpt>
      <trkpt lat="42.851213" lon="-0.255561">
        <ele>1983.473</ele>
        <time>2020-07-21T08:35:28Z</time>
      </trkpt>
      <trkpt lat="42.851178" lon="-0.255523">
        <ele>1984.448</ele>
        <time>2020-07-21T08:35:34Z</time>
      </trkpt>
      <trkpt lat="42.851128" lon="-0.255493">
        <ele>1984.885</ele>
        <time>2020-07-21T08:35:38Z</time>
      </trkpt>
      <trkpt lat="42.851086" lon="-0.255453">
        <ele>1986.984</ele>
        <time>2020-07-21T08:35:46Z</time>
      </trkpt>
      <trkpt lat="42.851030" lon="-0.255435">
        <ele>1986.538</ele>
        <time>2020-07-21T08:55:45Z</time>
      </trkpt>
      <trkpt lat="42.850973" lon="-0.255457">
        <ele>1987.527</ele>
        <time>2020-07-21T08:55:55Z</time>
      </trkpt>
      <trkpt lat="42.850912" lon="-0.255471">
        <ele>1987.958</ele>
        <time>2020-07-21T08:56:01Z</time>
      </trkpt>
      <trkpt lat="42.850854" lon="-0.255442">
        <ele>1987.052</ele>
        <time>2020-07-21T08:56:07Z</time>
      </trkpt>
      <trkpt lat="42.850804" lon="-0.255416">
        <ele>1990.717</ele>
        <time>2020-07-21T08:56:17Z</time>
      </trkpt>
      <trkpt lat="42.850777" lon="-0.255365">
        <ele>1992.708</ele>
        <time>2020-07-21T08:56:29Z</time>
      </trkpt>
      <trkpt lat="42.850750" lon="-0.255301">
        <ele>1993.290</ele>
        <time>2020-07-21T08:56:41Z</time>
      </trkpt>
      <trkpt lat="42.850708" lon="-0.255257">
        <ele>1994.038</ele>
        <time>2020-07-21T08:56:51Z</time>
      </trkpt>
      <trkpt lat="42.850664" lon="-0.255225">
        <ele>1993.332</ele>
        <time>2020-07-21T08:56:57Z</time>
      </trkpt>
      <trkpt lat="42.850625" lon="-0.255190">
        <ele>1996.057</ele>
        <time>2020-07-21T08:57:03Z</time>
      </trkpt>
      <trkpt lat="42.850583" lon="-0.255165">
        <ele>1996.744</ele>
        <time>2020-07-21T08:57:09Z</time>
      </trkpt>
      <trkpt lat="42.850523" lon="-0.255137">
        <ele>1998.393</ele>
        <time>2020-07-21T08:57:17Z</time>
      </trkpt>
      <trkpt lat="42.850482" lon="-0.255100">
        <ele>1998.747</ele>
        <time>2020-07-21T08:57:25Z</time>
      </trkpt>
      <trkpt lat="42.850449" lon="-0.255049">
        <ele>1999.366</ele>
        <time>2020-07-21T08:57:33Z</time>
      </trkpt>
      <trkpt lat="42.850405" lon="-0.255029">
        <ele>2000.264</ele>
        <time>2020-07-21T08:57:39Z</time>
      </trkpt>
      <trkpt lat="42.850358" lon="-0.255006">
        <ele>2001.306</ele>
        <time>2020-07-21T08:57:45Z</time>
      </trkpt>
      <trkpt lat="42.850306" lon="-0.254983">
        <ele>2001.516</ele>
        <time>2020-07-21T08:57:53Z</time>
      </trkpt>
      <trkpt lat="42.850263" lon="-0.254954">
        <ele>2000.008</ele>
        <time>2020-07-21T08:58:01Z</time>
      </trkpt>
      <trkpt lat="42.850217" lon="-0.254954">
        <ele>2001.881</ele>
        <time>2020-07-21T08:58:07Z</time>
      </trkpt>
      <trkpt lat="42.850170" lon="-0.254955">
        <ele>2003.339</ele>
        <time>2020-07-21T08:58:17Z</time>
      </trkpt>
      <trkpt lat="42.850123" lon="-0.254971">
        <ele>2004.853</ele>
        <time>2020-07-21T08:58:25Z</time>
      </trkpt>
      <trkpt lat="42.850062" lon="-0.254978">
        <ele>2004.748</ele>
        <time>2020-07-21T08:58:31Z</time>
      </trkpt>
      <trkpt lat="42.850008" lon="-0.254989">
        <ele>2005.465</ele>
        <time>2020-07-21T08:58:37Z</time>
      </trkpt>
      <trkpt lat="42.849959" lon="-0.254995">
        <ele>2005.674</ele>
        <time>2020-07-21T08:58:43Z</time>
      </trkpt>
      <trkpt lat="42.849911" lon="-0.255000">
        <ele>2007.618</ele>
        <time>2020-07-21T08:58:51Z</time>
      </trkpt>
      <trkpt lat="42.849859" lon="-0.255036">
        <ele>2006.777</ele>
        <time>2020-07-21T08:58:55Z</time>
      </trkpt>
      <trkpt lat="42.849810" lon="-0.255070">
        <ele>2008.729</ele>
        <time>2020-07-21T08:59:01Z</time>
      </trkpt>
      <trkpt lat="42.849747" lon="-0.255071">
        <ele>2008.800</ele>
        <time>2020-07-21T08:59:11Z</time>
      </trkpt>
      <trkpt lat="42.849701" lon="-0.255055">
        <ele>2009.520</ele>
        <time>2020-07-21T08:59:19Z</time>
      </trkpt>
      <trkpt lat="42.849645" lon="-0.255049">
        <ele>2008.708</ele>
        <time>2020-07-21T08:59:27Z</time>
      </trkpt>
      <trkpt lat="42.849590" lon="-0.255040">
        <ele>2010.697</ele>
        <time>2020-07-21T08:59:33Z</time>
      </trkpt>
      <trkpt lat="42.849528" lon="-0.255057">
        <ele>2011.675</ele>
        <time>2020-07-21T08:59:41Z</time>
      </trkpt>
      <trkpt lat="42.849481" lon="-0.255054">
        <ele>2012.259</ele>
        <time>2020-07-21T08:59:47Z</time>
      </trkpt>
      <trkpt lat="42.849421" lon="-0.255079">
        <ele>2012.514</ele>
        <time>2020-07-21T08:59:55Z</time>
      </trkpt>
      <trkpt lat="42.849376" lon="-0.255098">
        <ele>2012.591</ele>
        <time>2020-07-21T09:00:01Z</time>
      </trkpt>
      <trkpt lat="42.849329" lon="-0.255106">
        <ele>2013.030</ele>
        <time>2020-07-21T09:00:07Z</time>
      </trkpt>
      <trkpt lat="42.849281" lon="-0.255105">
        <ele>2013.394</ele>
        <time>2020-07-21T09:00:13Z</time>
      </trkpt>
      <trkpt lat="42.849233" lon="-0.255114">
        <ele>2012.883</ele>
        <time>2020-07-21T09:00:19Z</time>
      </trkpt>
      <trkpt lat="42.849181" lon="-0.255144">
        <ele>2012.772</ele>
        <time>2020-07-21T09:00:25Z</time>
      </trkpt>
      <trkpt lat="42.849123" lon="-0.255178">
        <ele>2013.213</ele>
        <time>2020-07-21T09:00:31Z</time>
      </trkpt>
      <trkpt lat="42.849073" lon="-0.255203">
        <ele>2013.914</ele>
        <time>2020-07-21T09:00:37Z</time>
      </trkpt>
      <trkpt lat="42.849029" lon="-0.255223">
        <ele>2012.808</ele>
        <time>2020-07-21T09:00:43Z</time>
      </trkpt>
      <trkpt lat="42.848968" lon="-0.255245">
        <ele>2014.412</ele>
        <time>2020-07-21T09:00:51Z</time>
      </trkpt>
      <trkpt lat="42.848915" lon="-0.255239">
        <ele>2012.590</ele>
        <time>2020-07-21T09:00:55Z</time>
      </trkpt>
      <trkpt lat="42.848859" lon="-0.255236">
        <ele>2014.744</ele>
        <time>2020-07-21T09:01:01Z</time>
      </trkpt>
      <trkpt lat="42.848802" lon="-0.255231">
        <ele>2014.669</ele>
        <time>2020-07-21T09:01:09Z</time>
      </trkpt>
      <trkpt lat="42.848744" lon="-0.255211">
        <ele>2017.186</ele>
        <time>2020-07-21T09:01:17Z</time>
      </trkpt>
      <trkpt lat="42.848686" lon="-0.255213">
        <ele>2015.875</ele>
        <time>2020-07-21T09:01:25Z</time>
      </trkpt>
      <trkpt lat="42.848640" lon="-0.255226">
        <ele>2016.089</ele>
        <time>2020-07-21T09:01:31Z</time>
      </trkpt>
      <trkpt lat="42.848587" lon="-0.255224">
        <ele>2018.398</ele>
        <time>2020-07-21T09:01:37Z</time>
      </trkpt>
      <trkpt lat="42.848540" lon="-0.255219">
        <ele>2019.423</ele>
        <time>2020-07-21T09:01:43Z</time>
      </trkpt>
      <trkpt lat="42.848487" lon="-0.255205">
        <ele>2018.983</ele>
        <time>2020-07-21T09:01:49Z</time>
      </trkpt>
      <trkpt lat="42.848419" lon="-0.255205">
        <ele>2019.311</ele>
        <time>2020-07-21T09:01:57Z</time>
      </trkpt>
      <trkpt lat="42.848370" lon="-0.255205">
        <ele>2020.008</ele>
        <time>2020-07-21T09:02:03Z</time>
      </trkpt>
      <trkpt lat="42.848316" lon="-0.255207">
        <ele>2018.947</ele>
        <time>2020-07-21T09:02:13Z</time>
      </trkpt>
      <trkpt lat="42.848263" lon="-0.255192">
        <ele>2019.015</ele>
        <time>2020-07-21T09:02:19Z</time>
      </trkpt>
      <trkpt lat="42.848214" lon="-0.255173">
        <ele>2019.779</ele>
        <time>2020-07-21T09:02:25Z</time>
      </trkpt>
      <trkpt lat="42.848156" lon="-0.255158">
        <ele>2020.484</ele>
        <time>2020-07-21T09:02:31Z</time>
      </trkpt>
      <trkpt lat="42.848099" lon="-0.255148">
        <ele>2021.021</ele>
        <time>2020-07-21T09:02:37Z</time>
      </trkpt>
      <trkpt lat="42.848039" lon="-0.255148">
        <ele>2020.280</ele>
        <time>2020-07-21T09:02:43Z</time>
      </trkpt>
      <trkpt lat="42.847986" lon="-0.255183">
        <ele>2019.934</ele>
        <time>2020-07-21T09:02:49Z</time>
      </trkpt>
      <trkpt lat="42.847931" lon="-0.255198">
        <ele>2019.773</ele>
        <time>2020-07-21T09:02:55Z</time>
      </trkpt>
      <trkpt lat="42.847892" lon="-0.255234">
        <ele>2020.115</ele>
        <time>2020-07-21T09:03:01Z</time>
      </trkpt>
      <trkpt lat="42.847865" lon="-0.255295">
        <ele>2021.465</ele>
        <time>2020-07-21T09:03:17Z</time>
      </trkpt>
      <trkpt lat="42.847833" lon="-0.255324">
        <ele>2020.811</ele>
        <time>2020-07-21T09:03:23Z</time>
      </trkpt>
      <trkpt lat="42.847790" lon="-0.255343">
        <ele>2020.608</ele>
        <time>2020-07-21T09:03:26Z</time>
      </trkpt>
      <trkpt lat="42.847743" lon="-0.255350">
        <ele>2020.476</ele>
        <time>2020-07-21T09:03:30Z</time>
      </trkpt>
      <trkpt lat="42.847677" lon="-0.255345">
        <ele>2021.684</ele>
        <time>2020-07-21T09:03:36Z</time>
      </trkpt>
      <trkpt lat="42.847620" lon="-0.255325">
        <ele>2022.748</ele>
        <time>2020-07-21T09:03:42Z</time>
      </trkpt>
      <trkpt lat="42.847564" lon="-0.255321">
        <ele>2021.773</ele>
        <time>2020-07-21T09:03:48Z</time>
      </trkpt>
      <trkpt lat="42.847503" lon="-0.255335">
        <ele>2023.940</ele>
        <time>2020-07-21T09:03:56Z</time>
      </trkpt>
      <trkpt lat="42.847446" lon="-0.255353">
        <ele>2023.479</ele>
        <time>2020-07-21T09:04:02Z</time>
      </trkpt>
      <trkpt lat="42.847397" lon="-0.255378">
        <ele>2023.393</ele>
        <time>2020-07-21T09:04:08Z</time>
      </trkpt>
      <trkpt lat="42.847332" lon="-0.255383">
        <ele>2021.412</ele>
        <time>2020-07-21T09:04:16Z</time>
      </trkpt>
      <trkpt lat="42.847286" lon="-0.255397">
        <ele>2022.727</ele>
        <time>2020-07-21T09:04:20Z</time>
      </trkpt>
      <trkpt lat="42.847223" lon="-0.255401">
        <ele>2022.568</ele>
        <time>2020-07-21T09:04:26Z</time>
      </trkpt>
      <trkpt lat="42.847175" lon="-0.255394">
        <ele>2023.314</ele>
        <time>2020-07-21T09:04:30Z</time>
      </trkpt>
      <trkpt lat="42.847127" lon="-0.255380">
        <ele>2024.008</ele>
        <time>2020-07-21T09:04:34Z</time>
      </trkpt>
      <trkpt lat="42.847075" lon="-0.255388">
        <ele>2023.757</ele>
        <time>2020-07-21T09:04:40Z</time>
      </trkpt>
      <trkpt lat="42.847021" lon="-0.255399">
        <ele>2024.115</ele>
        <time>2020-07-21T09:04:46Z</time>
      </trkpt>
      <trkpt lat="42.846966" lon="-0.255426">
        <ele>2024.669</ele>
        <time>2020-07-21T09:04:52Z</time>
      </trkpt>
      <trkpt lat="42.846921" lon="-0.255429">
        <ele>2024.724</ele>
        <time>2020-07-21T09:04:56Z</time>
      </trkpt>
      <trkpt lat="42.846871" lon="-0.255435">
        <ele>2025.171</ele>
        <time>2020-07-21T09:05:02Z</time>
      </trkpt>
      <trkpt lat="42.846807" lon="-0.255436">
        <ele>2024.210</ele>
        <time>2020-07-21T09:05:08Z</time>
      </trkpt>
      <trkpt lat="42.846752" lon="-0.255439">
        <ele>2025.174</ele>
        <time>2020-07-21T09:05:14Z</time>
      </trkpt>
      <trkpt lat="42.846695" lon="-0.255419">
        <ele>2023.983</ele>
        <time>2020-07-21T09:05:22Z</time>
      </trkpt>
      <trkpt lat="42.846649" lon="-0.255418">
        <ele>2024.048</ele>
        <time>2020-07-21T09:05:28Z</time>
      </trkpt>
      <trkpt lat="42.846597" lon="-0.255432">
        <ele>2024.561</ele>
        <time>2020-07-21T09:05:34Z</time>
      </trkpt>
      <trkpt lat="42.846539" lon="-0.255447">
        <ele>2025.217</ele>
        <time>2020-07-21T09:05:40Z</time>
      </trkpt>
      <trkpt lat="42.846477" lon="-0.255444">
        <ele>2024.708</ele>
        <time>2020-07-21T09:05:46Z</time>
      </trkpt>
      <trkpt lat="42.846426" lon="-0.255451">
        <ele>2025.389</ele>
        <time>2020-07-21T09:05:50Z</time>
      </trkpt>
      <trkpt lat="42.846362" lon="-0.255454">
        <ele>2025.767</ele>
        <time>2020-07-21T09:05:56Z</time>
      </trkpt>
      <trkpt lat="42.846303" lon="-0.255477">
        <ele>2025.161</ele>
        <time>2020-07-21T09:06:02Z</time>
      </trkpt>
      <trkpt lat="42.846251" lon="-0.255509">
        <ele>2026.626</ele>
        <time>2020-07-21T09:06:08Z</time>
      </trkpt>
      <trkpt lat="42.846207" lon="-0.255529">
        <ele>2026.173</ele>
        <time>2020-07-21T09:06:12Z</time>
      </trkpt>
      <trkpt lat="42.846153" lon="-0.255553">
        <ele>2027.622</ele>
        <time>2020-07-21T09:06:18Z</time>
      </trkpt>
      <trkpt lat="42.846092" lon="-0.255560">
        <ele>2026.526</ele>
        <time>2020-07-21T09:06:24Z</time>
      </trkpt>
      <trkpt lat="42.846035" lon="-0.255574">
        <ele>2027.755</ele>
        <time>2020-07-21T09:06:32Z</time>
      </trkpt>
      <trkpt lat="42.845974" lon="-0.255562">
        <ele>2028.956</ele>
        <time>2020-07-21T09:06:40Z</time>
      </trkpt>
      <trkpt lat="42.845925" lon="-0.255564">
        <ele>2028.959</ele>
        <time>2020-07-21T09:06:46Z</time>
      </trkpt>
      <trkpt lat="42.845874" lon="-0.255537">
        <ele>2027.614</ele>
        <time>2020-07-21T09:07:06Z</time>
      </trkpt>
      <trkpt lat="42.845820" lon="-0.255518">
        <ele>2026.408</ele>
        <time>2020-07-21T09:07:14Z</time>
      </trkpt>
      <trkpt lat="42.845771" lon="-0.255481">
        <ele>2027.070</ele>
        <time>2020-07-21T09:07:22Z</time>
      </trkpt>
      <trkpt lat="42.845725" lon="-0.255451">
        <ele>2025.628</ele>
        <time>2020-07-21T09:07:28Z</time>
      </trkpt>
      <trkpt lat="42.845673" lon="-0.255422">
        <ele>2028.742</ele>
        <time>2020-07-21T09:07:36Z</time>
      </trkpt>
      <trkpt lat="42.845626" lon="-0.255414">
        <ele>2028.567</ele>
        <time>2020-07-21T09:07:42Z</time>
      </trkpt>
      <trkpt lat="42.845582" lon="-0.255394">
        <ele>2028.174</ele>
        <time>2020-07-21T09:07:48Z</time>
      </trkpt>
      <trkpt lat="42.845521" lon="-0.255374">
        <ele>2028.373</ele>
        <time>2020-07-21T09:07:54Z</time>
      </trkpt>
      <trkpt lat="42.845467" lon="-0.255359">
        <ele>2029.837</ele>
        <time>2020-07-21T09:08:02Z</time>
      </trkpt>
      <trkpt lat="42.845419" lon="-0.255350">
        <ele>2027.786</ele>
        <time>2020-07-21T09:08:08Z</time>
      </trkpt>
      <trkpt lat="42.845363" lon="-0.255327">
        <ele>2030.544</ele>
        <time>2020-07-21T09:08:16Z</time>
      </trkpt>
      <trkpt lat="42.845314" lon="-0.255318">
        <ele>2030.605</ele>
        <time>2020-07-21T09:08:24Z</time>
      </trkpt>
      <trkpt lat="42.845255" lon="-0.255310">
        <ele>2029.815</ele>
        <time>2020-07-21T09:08:32Z</time>
      </trkpt>
      <trkpt lat="42.845202" lon="-0.255293">
        <ele>2029.308</ele>
        <time>2020-07-21T09:08:38Z</time>
      </trkpt>
      <trkpt lat="42.845143" lon="-0.255279">
        <ele>2030.179</ele>
        <time>2020-07-21T09:08:44Z</time>
      </trkpt>
      <trkpt lat="42.845097" lon="-0.255266">
        <ele>2030.787</ele>
        <time>2020-07-21T09:08:50Z</time>
      </trkpt>
      <trkpt lat="42.845039" lon="-0.255253">
        <ele>2031.311</ele>
        <time>2020-07-21T09:08:58Z</time>
      </trkpt>
      <trkpt lat="42.844984" lon="-0.255242">
        <ele>2031.126</ele>
        <time>2020-07-21T09:09:04Z</time>
      </trkpt>
      <trkpt lat="42.844928" lon="-0.255232">
        <ele>2031.173</ele>
        <time>2020-07-21T09:09:10Z</time>
      </trkpt>
      <trkpt lat="42.844867" lon="-0.255222">
        <ele>2031.892</ele>
        <time>2020-07-21T09:09:16Z</time>
      </trkpt>
      <trkpt lat="42.844805" lon="-0.255218">
        <ele>2032.246</ele>
        <time>2020-07-21T09:09:22Z</time>
      </trkpt>
      <trkpt lat="42.844755" lon="-0.255213">
        <ele>2032.785</ele>
        <time>2020-07-21T09:09:28Z</time>
      </trkpt>
      <trkpt lat="42.844694" lon="-0.255180">
        <ele>2033.655</ele>
        <time>2020-07-21T09:09:36Z</time>
      </trkpt>
      <trkpt lat="42.844648" lon="-0.255162">
        <ele>2032.907</ele>
        <time>2020-07-21T09:09:41Z</time>
      </trkpt>
      <trkpt lat="42.844597" lon="-0.255131">
        <ele>2033.617</ele>
        <time>2020-07-21T09:09:47Z</time>
      </trkpt>
      <trkpt lat="42.844544" lon="-0.255092">
        <ele>2035.008</ele>
        <time>2020-07-21T09:10:31Z</time>
      </trkpt>
      <trkpt lat="42.844501" lon="-0.255071">
        <ele>2034.040</ele>
        <time>2020-07-21T09:10:37Z</time>
      </trkpt>
      <trkpt lat="42.844446" lon="-0.255040">
        <ele>2034.638</ele>
        <time>2020-07-21T09:10:43Z</time>
      </trkpt>
      <trkpt lat="42.844384" lon="-0.255011">
        <ele>2034.422</ele>
        <time>2020-07-21T09:10:49Z</time>
      </trkpt>
      <trkpt lat="42.844330" lon="-0.254988">
        <ele>2035.497</ele>
        <time>2020-07-21T09:10:57Z</time>
      </trkpt>
      <trkpt lat="42.844291" lon="-0.254946">
        <ele>2034.464</ele>
        <time>2020-07-21T09:11:03Z</time>
      </trkpt>
      <trkpt lat="42.844242" lon="-0.254916">
        <ele>2035.563</ele>
        <time>2020-07-21T09:11:09Z</time>
      </trkpt>
      <trkpt lat="42.844201" lon="-0.254889">
        <ele>2034.947</ele>
        <time>2020-07-21T09:11:15Z</time>
      </trkpt>
      <trkpt lat="42.844155" lon="-0.254866">
        <ele>2035.266</ele>
        <time>2020-07-21T09:11:21Z</time>
      </trkpt>
      <trkpt lat="42.844112" lon="-0.254837">
        <ele>2035.228</ele>
        <time>2020-07-21T09:11:27Z</time>
      </trkpt>
      <trkpt lat="42.844065" lon="-0.254814">
        <ele>2036.789</ele>
        <time>2020-07-21T09:11:33Z</time>
      </trkpt>
      <trkpt lat="42.844012" lon="-0.254793">
        <ele>2036.817</ele>
        <time>2020-07-21T09:11:41Z</time>
      </trkpt>
      <trkpt lat="42.843959" lon="-0.254767">
        <ele>2037.608</ele>
        <time>2020-07-21T09:11:49Z</time>
      </trkpt>
      <trkpt lat="42.843906" lon="-0.254752">
        <ele>2039.637</ele>
        <time>2020-07-21T09:11:57Z</time>
      </trkpt>
      <trkpt lat="42.843853" lon="-0.254746">
        <ele>2040.585</ele>
        <time>2020-07-21T09:12:03Z</time>
      </trkpt>
      <trkpt lat="42.843805" lon="-0.254739">
        <ele>2040.579</ele>
        <time>2020-07-21T09:12:11Z</time>
      </trkpt>
      <trkpt lat="42.843756" lon="-0.254718">
        <ele>2041.634</ele>
        <time>2020-07-21T09:12:17Z</time>
      </trkpt>
      <trkpt lat="42.843704" lon="-0.254701">
        <ele>2042.121</ele>
        <time>2020-07-21T09:12:23Z</time>
      </trkpt>
      <trkpt lat="42.843644" lon="-0.254703">
        <ele>2043.550</ele>
        <time>2020-07-21T09:12:29Z</time>
      </trkpt>
      <trkpt lat="42.843597" lon="-0.254675">
        <ele>2043.744</ele>
        <time>2020-07-21T09:12:39Z</time>
      </trkpt>
      <trkpt lat="42.843554" lon="-0.254650">
        <ele>2046.593</ele>
        <time>2020-07-21T09:12:47Z</time>
      </trkpt>
      <trkpt lat="42.843512" lon="-0.254622">
        <ele>2045.749</ele>
        <time>2020-07-21T09:12:55Z</time>
      </trkpt>
      <trkpt lat="42.843463" lon="-0.254600">
        <ele>2048.602</ele>
        <time>2020-07-21T09:13:05Z</time>
      </trkpt>
      <trkpt lat="42.843414" lon="-0.254578">
        <ele>2048.922</ele>
        <time>2020-07-21T09:13:11Z</time>
      </trkpt>
      <trkpt lat="42.843367" lon="-0.254551">
        <ele>2048.008</ele>
        <time>2020-07-21T09:13:19Z</time>
      </trkpt>
      <trkpt lat="42.843320" lon="-0.254529">
        <ele>2050.819</ele>
        <time>2020-07-21T09:13:27Z</time>
      </trkpt>
      <trkpt lat="42.843278" lon="-0.254486">
        <ele>2050.677</ele>
        <time>2020-07-21T09:13:33Z</time>
      </trkpt>
      <trkpt lat="42.843238" lon="-0.254440">
        <ele>2051.881</ele>
        <time>2020-07-21T09:13:43Z</time>
      </trkpt>
      <trkpt lat="42.843193" lon="-0.254387">
        <ele>2051.626</ele>
        <time>2020-07-21T09:13:49Z</time>
      </trkpt>
      <trkpt lat="42.843160" lon="-0.254337">
        <ele>2053.013</ele>
        <time>2020-07-21T09:13:53Z</time>
      </trkpt>
      <trkpt lat="42.843111" lon="-0.254291">
        <ele>2052.692</ele>
        <time>2020-07-21T09:13:59Z</time>
      </trkpt>
      <trkpt lat="42.843083" lon="-0.254242">
        <ele>2052.856</ele>
        <time>2020-07-21T09:14:07Z</time>
      </trkpt>
      <trkpt lat="42.843046" lon="-0.254190">
        <ele>2053.065</ele>
        <time>2020-07-21T09:14:13Z</time>
      </trkpt>
      <trkpt lat="42.843022" lon="-0.254129">
        <ele>2054.493</ele>
        <time>2020-07-21T09:14:21Z</time>
      </trkpt>
      <trkpt lat="42.842986" lon="-0.254070">
        <ele>2053.165</ele>
        <time>2020-07-21T09:14:29Z</time>
      </trkpt>
      <trkpt lat="42.842950" lon="-0.254011">
        <ele>2054.421</ele>
        <time>2020-07-21T09:14:35Z</time>
      </trkpt>
      <trkpt lat="42.842903" lon="-0.253978">
        <ele>2056.308</ele>
        <time>2020-07-21T09:14:41Z</time>
      </trkpt>
      <trkpt lat="42.842866" lon="-0.253937">
        <ele>2055.454</ele>
        <time>2020-07-21T09:14:47Z</time>
      </trkpt>
      <trkpt lat="42.842824" lon="-0.253893">
        <ele>2055.282</ele>
        <time>2020-07-21T09:14:53Z</time>
      </trkpt>
      <trkpt lat="42.842781" lon="-0.253834">
        <ele>2055.916</ele>
        <time>2020-07-21T09:15:03Z</time>
      </trkpt>
      <trkpt lat="42.842734" lon="-0.253795">
        <ele>2056.521</ele>
        <time>2020-07-21T09:15:09Z</time>
      </trkpt>
      <trkpt lat="42.842682" lon="-0.253756">
        <ele>2056.048</ele>
        <time>2020-07-21T09:15:15Z</time>
      </trkpt>
      <trkpt lat="42.842636" lon="-0.253739">
        <ele>2055.847</ele>
        <time>2020-07-21T09:15:19Z</time>
      </trkpt>
      <trkpt lat="42.842592" lon="-0.253723">
        <ele>2056.481</ele>
        <time>2020-07-21T09:15:23Z</time>
      </trkpt>
      <trkpt lat="42.842535" lon="-0.253722">
        <ele>2057.640</ele>
        <time>2020-07-21T09:15:29Z</time>
      </trkpt>
      <trkpt lat="42.842485" lon="-0.253711">
        <ele>2058.931</ele>
        <time>2020-07-21T09:15:35Z</time>
      </trkpt>
      <trkpt lat="42.842450" lon="-0.253672">
        <ele>2058.561</ele>
        <time>2020-07-21T09:15:39Z</time>
      </trkpt>
      <trkpt lat="42.842402" lon="-0.253651">
        <ele>2059.107</ele>
        <time>2020-07-21T09:15:45Z</time>
      </trkpt>
      <trkpt lat="42.842354" lon="-0.253659">
        <ele>2059.708</ele>
        <time>2020-07-21T09:15:49Z</time>
      </trkpt>
      <trkpt lat="42.842303" lon="-0.253670">
        <ele>2059.048</ele>
        <time>2020-07-21T09:15:55Z</time>
      </trkpt>
      <trkpt lat="42.842247" lon="-0.253663">
        <ele>2058.776</ele>
        <time>2020-07-21T09:16:01Z</time>
      </trkpt>
      <trkpt lat="42.842199" lon="-0.253641">
        <ele>2059.730</ele>
        <time>2020-07-21T09:16:07Z</time>
      </trkpt>
      <trkpt lat="42.842153" lon="-0.253610">
        <ele>2059.035</ele>
        <time>2020-07-21T09:16:13Z</time>
      </trkpt>
      <trkpt lat="42.842100" lon="-0.253586">
        <ele>2060.932</ele>
        <time>2020-07-21T09:16:19Z</time>
      </trkpt>
      <trkpt lat="42.842032" lon="-0.253565">
        <ele>2061.211</ele>
        <time>2020-07-21T09:16:25Z</time>
      </trkpt>
      <trkpt lat="42.841979" lon="-0.253541">
        <ele>2060.475</ele>
        <time>2020-07-21T09:16:31Z</time>
      </trkpt>
      <trkpt lat="42.841927" lon="-0.253511">
        <ele>2062.334</ele>
        <time>2020-07-21T09:16:37Z</time>
      </trkpt>
      <trkpt lat="42.841874" lon="-0.253484">
        <ele>2061.739</ele>
        <time>2020-07-21T09:16:45Z</time>
      </trkpt>
      <trkpt lat="42.841819" lon="-0.253490">
        <ele>2062.701</ele>
        <time>2020-07-21T09:16:51Z</time>
      </trkpt>
      <trkpt lat="42.841757" lon="-0.253498">
        <ele>2062.321</ele>
        <time>2020-07-21T09:16:59Z</time>
      </trkpt>
      <trkpt lat="42.841701" lon="-0.253517">
        <ele>2063.408</ele>
        <time>2020-07-21T09:17:05Z</time>
      </trkpt>
      <trkpt lat="42.841647" lon="-0.253541">
        <ele>2064.538</ele>
        <time>2020-07-21T09:17:13Z</time>
      </trkpt>
      <trkpt lat="42.841607" lon="-0.253584">
        <ele>2064.936</ele>
        <time>2020-07-21T09:17:19Z</time>
      </trkpt>
      <trkpt lat="42.841567" lon="-0.253615">
        <ele>2065.130</ele>
        <time>2020-07-21T09:17:23Z</time>
      </trkpt>
      <trkpt lat="42.841512" lon="-0.253638">
        <ele>2064.815</ele>
        <time>2020-07-21T09:17:29Z</time>
      </trkpt>
      <trkpt lat="42.841456" lon="-0.253649">
        <ele>2066.052</ele>
        <time>2020-07-21T09:17:35Z</time>
      </trkpt>
      <trkpt lat="42.841409" lon="-0.253643">
        <ele>2063.761</ele>
        <time>2020-07-21T09:17:41Z</time>
      </trkpt>
      <trkpt lat="42.841357" lon="-0.253661">
        <ele>2066.365</ele>
        <time>2020-07-21T09:17:47Z</time>
      </trkpt>
      <trkpt lat="42.841306" lon="-0.253672">
        <ele>2067.464</ele>
        <time>2020-07-21T09:17:53Z</time>
      </trkpt>
      <trkpt lat="42.841257" lon="-0.253683">
        <ele>2066.947</ele>
        <time>2020-07-21T09:17:59Z</time>
      </trkpt>
      <trkpt lat="42.841212" lon="-0.253723">
        <ele>2067.929</ele>
        <time>2020-07-21T09:18:05Z</time>
      </trkpt>
      <trkpt lat="42.841171" lon="-0.253752">
        <ele>2068.521</ele>
        <time>2020-07-21T09:18:11Z</time>
      </trkpt>
      <trkpt lat="42.841119" lon="-0.253765">
        <ele>2068.408</ele>
        <time>2020-07-21T09:18:19Z</time>
      </trkpt>
      <trkpt lat="42.841075" lon="-0.253791">
        <ele>2070.219</ele>
        <time>2020-07-21T09:18:25Z</time>
      </trkpt>
      <trkpt lat="42.841022" lon="-0.253824">
        <ele>2070.277</ele>
        <time>2020-07-21T09:18:33Z</time>
      </trkpt>
      <trkpt lat="42.840976" lon="-0.253855">
        <ele>2070.571</ele>
        <time>2020-07-21T09:18:41Z</time>
      </trkpt>
      <trkpt lat="42.840932" lon="-0.253878">
        <ele>2071.346</ele>
        <time>2020-07-21T09:18:47Z</time>
      </trkpt>
      <trkpt lat="42.840882" lon="-0.253887">
        <ele>2070.693</ele>
        <time>2020-07-21T09:18:53Z</time>
      </trkpt>
      <trkpt lat="42.840832" lon="-0.253902">
        <ele>2071.732</ele>
        <time>2020-07-21T09:19:01Z</time>
      </trkpt>
      <trkpt lat="42.840778" lon="-0.253915">
        <ele>2071.436</ele>
        <time>2020-07-21T09:19:07Z</time>
      </trkpt>
      <trkpt lat="42.840726" lon="-0.253912">
        <ele>2072.935</ele>
        <time>2020-07-21T09:19:13Z</time>
      </trkpt>
      <trkpt lat="42.840674" lon="-0.253912">
        <ele>2073.487</ele>
        <time>2020-07-21T09:19:19Z</time>
      </trkpt>
      <trkpt lat="42.840624" lon="-0.253924">
        <ele>2073.442</ele>
        <time>2020-07-21T09:19:25Z</time>
      </trkpt>
      <trkpt lat="42.840574" lon="-0.253907">
        <ele>2071.926</ele>
        <time>2020-07-21T09:19:33Z</time>
      </trkpt>
      <trkpt lat="42.840523" lon="-0.253891">
        <ele>2072.308</ele>
        <time>2020-07-21T09:19:59Z</time>
      </trkpt>
      <trkpt lat="42.840475" lon="-0.253881">
        <ele>2072.413</ele>
        <time>2020-07-21T09:21:45Z</time>
      </trkpt>
      <trkpt lat="42.840416" lon="-0.253865">
        <ele>2072.981</ele>
        <time>2020-07-21T09:21:53Z</time>
      </trkpt>
      <trkpt lat="42.840357" lon="-0.253858">
        <ele>2071.765</ele>
        <time>2020-07-21T09:21:59Z</time>
      </trkpt>
      <trkpt lat="42.840310" lon="-0.253835">
        <ele>2071.790</ele>
        <time>2020-07-21T09:22:05Z</time>
      </trkpt>
      <trkpt lat="42.840258" lon="-0.253833">
        <ele>2073.137</ele>
        <time>2020-07-21T09:22:13Z</time>
      </trkpt>
      <trkpt lat="42.840204" lon="-0.253813">
        <ele>2071.646</ele>
        <time>2020-07-21T09:22:19Z</time>
      </trkpt>
      <trkpt lat="42.840159" lon="-0.253796">
        <ele>2071.620</ele>
        <time>2020-07-21T09:22:25Z</time>
      </trkpt>
      <trkpt lat="42.840112" lon="-0.253800">
        <ele>2071.469</ele>
        <time>2020-07-21T09:22:31Z</time>
      </trkpt>
      <trkpt lat="42.840058" lon="-0.253784">
        <ele>2070.427</ele>
        <time>2020-07-21T09:22:39Z</time>
      </trkpt>
      <trkpt lat="42.840014" lon="-0.253733">
        <ele>2069.768</ele>
        <time>2020-07-21T09:22:45Z</time>
      </trkpt>
      <trkpt lat="42.839980" lon="-0.253685">
        <ele>2070.014</ele>
        <time>2020-07-21T09:22:49Z</time>
      </trkpt>
      <trkpt lat="42.839952" lon="-0.253637">
        <ele>2070.208</ele>
        <time>2020-07-21T09:22:55Z</time>
      </trkpt>
      <trkpt lat="42.839903" lon="-0.253600">
        <ele>2069.157</ele>
        <time>2020-07-21T09:23:03Z</time>
      </trkpt>
      <trkpt lat="42.839847" lon="-0.253603">
        <ele>2070.365</ele>
        <time>2020-07-21T09:23:11Z</time>
      </trkpt>
      <trkpt lat="42.839790" lon="-0.253605">
        <ele>2069.889</ele>
        <time>2020-07-21T09:23:17Z</time>
      </trkpt>
      <trkpt lat="42.839743" lon="-0.253601">
        <ele>2070.414</ele>
        <time>2020-07-21T09:23:29Z</time>
      </trkpt>
      <trkpt lat="42.839685" lon="-0.253586">
        <ele>2070.061</ele>
        <time>2020-07-21T09:23:45Z</time>
      </trkpt>
      <trkpt lat="42.839640" lon="-0.253573">
        <ele>2070.410</ele>
        <time>2020-07-21T09:23:52Z</time>
      </trkpt>
      <trkpt lat="42.839591" lon="-0.253528">
        <ele>2070.174</ele>
        <time>2020-07-21T09:23:58Z</time>
      </trkpt>
      <trkpt lat="42.839531" lon="-0.253532">
        <ele>2070.943</ele>
        <time>2020-07-21T09:24:04Z</time>
      </trkpt>
      <trkpt lat="42.839479" lon="-0.253536">
        <ele>2071.036</ele>
        <time>2020-07-21T09:24:10Z</time>
      </trkpt>
      <trkpt lat="42.839435" lon="-0.253588">
        <ele>2069.017</ele>
        <time>2020-07-21T09:24:16Z</time>
      </trkpt>
      <trkpt lat="42.839380" lon="-0.253610">
        <ele>2071.918</ele>
        <time>2020-07-21T09:24:22Z</time>
      </trkpt>
      <trkpt lat="42.839329" lon="-0.253632">
        <ele>2069.808</ele>
        <time>2020-07-21T09:24:30Z</time>
      </trkpt>
      <trkpt lat="42.839268" lon="-0.253644">
        <ele>2070.578</ele>
        <time>2020-07-21T09:24:38Z</time>
      </trkpt>
      <trkpt lat="42.839219" lon="-0.253674">
        <ele>2071.236</ele>
        <time>2020-07-21T09:24:44Z</time>
      </trkpt>
      <trkpt lat="42.839160" lon="-0.253714">
        <ele>2071.740</ele>
        <time>2020-07-21T09:24:50Z</time>
      </trkpt>
      <trkpt lat="42.839112" lon="-0.253722">
        <ele>2071.625</ele>
        <time>2020-07-21T09:24:54Z</time>
      </trkpt>
      <trkpt lat="42.839050" lon="-0.253724">
        <ele>2071.442</ele>
        <time>2020-07-21T09:25:00Z</time>
      </trkpt>
      <trkpt lat="42.839004" lon="-0.253732">
        <ele>2070.881</ele>
        <time>2020-07-21T09:25:06Z</time>
      </trkpt>
      <trkpt lat="42.838947" lon="-0.253732">
        <ele>2071.225</ele>
        <time>2020-07-21T09:25:12Z</time>
      </trkpt>
      <trkpt lat="42.838884" lon="-0.253729">
        <ele>2072.614</ele>
        <time>2020-07-21T09:25:18Z</time>
      </trkpt>
      <trkpt lat="42.838822" lon="-0.253736">
        <ele>2071.724</ele>
        <time>2020-07-21T09:25:24Z</time>
      </trkpt>
      <trkpt lat="42.838758" lon="-0.253725">
        <ele>2072.704</ele>
        <time>2020-07-21T09:25:30Z</time>
      </trkpt>
      <trkpt lat="42.838696" lon="-0.253703">
        <ele>2072.814</ele>
        <time>2020-07-21T09:25:36Z</time>
      </trkpt>
      <trkpt lat="42.838645" lon="-0.253674">
        <ele>2071.208</ele>
        <time>2020-07-21T09:25:42Z</time>
      </trkpt>
      <trkpt lat="42.838594" lon="-0.253638">
        <ele>2071.817</ele>
        <time>2020-07-21T09:25:48Z</time>
      </trkpt>
      <trkpt lat="42.838542" lon="-0.253605">
        <ele>2070.295</ele>
        <time>2020-07-21T09:25:54Z</time>
      </trkpt>
      <trkpt lat="42.838487" lon="-0.253562">
        <ele>2071.849</ele>
        <time>2020-07-21T09:26:00Z</time>
      </trkpt>
      <trkpt lat="42.838430" lon="-0.253552">
        <ele>2071.244</ele>
        <time>2020-07-21T09:26:06Z</time>
      </trkpt>
      <trkpt lat="42.838384" lon="-0.253580">
        <ele>2071.471</ele>
        <time>2020-07-21T09:26:12Z</time>
      </trkpt>
      <trkpt lat="42.838322" lon="-0.253593">
        <ele>2071.210</ele>
        <time>2020-07-21T09:26:18Z</time>
      </trkpt>
      <trkpt lat="42.838275" lon="-0.253612">
        <ele>2070.734</ele>
        <time>2020-07-21T09:26:24Z</time>
      </trkpt>
      <trkpt lat="42.838230" lon="-0.253607">
        <ele>2071.023</ele>
        <time>2020-07-21T09:26:28Z</time>
      </trkpt>
      <trkpt lat="42.838173" lon="-0.253634">
        <ele>2071.276</ele>
        <time>2020-07-21T09:26:34Z</time>
      </trkpt>
      <trkpt lat="42.838127" lon="-0.253668">
        <ele>2070.890</ele>
        <time>2020-07-21T09:26:40Z</time>
      </trkpt>
      <trkpt lat="42.838081" lon="-0.253722">
        <ele>2071.319</ele>
        <time>2020-07-21T09:26:46Z</time>
      </trkpt>
      <trkpt lat="42.838046" lon="-0.253771">
        <ele>2070.908</ele>
        <time>2020-07-21T09:27:14Z</time>
      </trkpt>
      <trkpt lat="42.837985" lon="-0.253777">
        <ele>2070.842</ele>
        <time>2020-07-21T09:27:20Z</time>
      </trkpt>
      <trkpt lat="42.837920" lon="-0.253759">
        <ele>2070.780</ele>
        <time>2020-07-21T09:27:26Z</time>
      </trkpt>
      <trkpt lat="42.837866" lon="-0.253738">
        <ele>2070.374</ele>
        <time>2020-07-21T09:27:32Z</time>
      </trkpt>
      <trkpt lat="42.837814" lon="-0.253724">
        <ele>2070.399</ele>
        <time>2020-07-21T09:27:38Z</time>
      </trkpt>
      <trkpt lat="42.837755" lon="-0.253723">
        <ele>2070.216</ele>
        <time>2020-07-21T09:27:44Z</time>
      </trkpt>
      <trkpt lat="42.837704" lon="-0.253731">
        <ele>2068.655</ele>
        <time>2020-07-21T09:27:50Z</time>
      </trkpt>
      <trkpt lat="42.837658" lon="-0.253744">
        <ele>2068.759</ele>
        <time>2020-07-21T09:27:56Z</time>
      </trkpt>
      <trkpt lat="42.837601" lon="-0.253733">
        <ele>2068.228</ele>
        <time>2020-07-21T09:28:02Z</time>
      </trkpt>
      <trkpt lat="42.837541" lon="-0.253710">
        <ele>2067.556</ele>
        <time>2020-07-21T09:28:08Z</time>
      </trkpt>
      <trkpt lat="42.837484" lon="-0.253698">
        <ele>2068.759</ele>
        <time>2020-07-21T09:28:14Z</time>
      </trkpt>
      <trkpt lat="42.837423" lon="-0.253716">
        <ele>2068.414</ele>
        <time>2020-07-21T09:28:20Z</time>
      </trkpt>
      <trkpt lat="42.837366" lon="-0.253718">
        <ele>2069.508</ele>
        <time>2020-07-21T09:28:26Z</time>
      </trkpt>
      <trkpt lat="42.837310" lon="-0.253736">
        <ele>2070.870</ele>
        <time>2020-07-21T09:28:32Z</time>
      </trkpt>
      <trkpt lat="42.837267" lon="-0.253762">
        <ele>2070.788</ele>
        <time>2020-07-21T09:28:38Z</time>
      </trkpt>
      <trkpt lat="42.837224" lon="-0.253798">
        <ele>2072.652</ele>
        <time>2020-07-21T09:28:44Z</time>
      </trkpt>
      <trkpt lat="42.837180" lon="-0.253835">
        <ele>2073.147</ele>
        <time>2020-07-21T09:28:48Z</time>
      </trkpt>
      <trkpt lat="42.837133" lon="-0.253856">
        <ele>2071.294</ele>
        <time>2020-07-21T09:28:52Z</time>
      </trkpt>
      <trkpt lat="42.837076" lon="-0.253877">
        <ele>2073.943</ele>
        <time>2020-07-21T09:29:00Z</time>
      </trkpt>
      <trkpt lat="42.837047" lon="-0.253938">
        <ele>2075.067</ele>
        <time>2020-07-21T09:29:06Z</time>
      </trkpt>
      <trkpt lat="42.837041" lon="-0.254016">
        <ele>2076.026</ele>
        <time>2020-07-21T09:29:12Z</time>
      </trkpt>
      <trkpt lat="42.837010" lon="-0.254064">
        <ele>2076.839</ele>
        <time>2020-07-21T09:29:18Z</time>
      </trkpt>
      <trkpt lat="42.836967" lon="-0.254100">
        <ele>2079.301</ele>
        <time>2020-07-21T09:29:28Z</time>
      </trkpt>
      <trkpt lat="42.836923" lon="-0.254144">
        <ele>2077.821</ele>
        <time>2020-07-21T09:29:36Z</time>
      </trkpt>
      <trkpt lat="42.836875" lon="-0.254161">
        <ele>2079.108</ele>
        <time>2020-07-21T09:29:42Z</time>
      </trkpt>
      <trkpt lat="42.836823" lon="-0.254153">
        <ele>2078.868</ele>
        <time>2020-07-21T09:29:48Z</time>
      </trkpt>
      <trkpt lat="42.836767" lon="-0.254174">
        <ele>2080.296</ele>
        <time>2020-07-21T09:29:56Z</time>
      </trkpt>
      <trkpt lat="42.836723" lon="-0.254185">
        <ele>2081.310</ele>
        <time>2020-07-21T09:30:02Z</time>
      </trkpt>
      <trkpt lat="42.836677" lon="-0.254216">
        <ele>2080.685</ele>
        <time>2020-07-21T09:30:08Z</time>
      </trkpt>
      <trkpt lat="42.836629" lon="-0.254261">
        <ele>2081.052</ele>
        <time>2020-07-21T09:30:16Z</time>
      </trkpt>
      <trkpt lat="42.836585" lon="-0.254299">
        <ele>2080.321</ele>
        <time>2020-07-21T09:30:22Z</time>
      </trkpt>
      <trkpt lat="42.836536" lon="-0.254341">
        <ele>2082.525</ele>
        <time>2020-07-21T09:30:30Z</time>
      </trkpt>
      <trkpt lat="42.836491" lon="-0.254393">
        <ele>2082.354</ele>
        <time>2020-07-21T09:30:36Z</time>
      </trkpt>
      <trkpt lat="42.836459" lon="-0.254442">
        <ele>2081.763</ele>
        <time>2020-07-21T09:30:40Z</time>
      </trkpt>
      <trkpt lat="42.836426" lon="-0.254490">
        <ele>2083.844</ele>
        <time>2020-07-21T09:30:46Z</time>
      </trkpt>
      <trkpt lat="42.836378" lon="-0.254526">
        <ele>2083.618</ele>
        <time>2020-07-21T09:30:54Z</time>
      </trkpt>
      <trkpt lat="42.836332" lon="-0.254557">
        <ele>2084.808</ele>
        <time>2020-07-21T09:31:00Z</time>
      </trkpt>
      <trkpt lat="42.836280" lon="-0.254585">
        <ele>2083.851</ele>
        <time>2020-07-21T09:31:06Z</time>
      </trkpt>
      <trkpt lat="42.836230" lon="-0.254596">
        <ele>2087.679</ele>
        <time>2020-07-21T09:31:14Z</time>
      </trkpt>
      <trkpt lat="42.836178" lon="-0.254612">
        <ele>2089.083</ele>
        <time>2020-07-21T09:31:24Z</time>
      </trkpt>
      <trkpt lat="42.836122" lon="-0.254639">
        <ele>2089.868</ele>
        <time>2020-07-21T09:31:30Z</time>
      </trkpt>
      <trkpt lat="42.836069" lon="-0.254674">
        <ele>2090.635</ele>
        <time>2020-07-21T09:31:36Z</time>
      </trkpt>
      <trkpt lat="42.836019" lon="-0.254691">
        <ele>2089.184</ele>
        <time>2020-07-21T09:31:42Z</time>
      </trkpt>
      <trkpt lat="42.835976" lon="-0.254728">
        <ele>2089.258</ele>
        <time>2020-07-21T09:31:50Z</time>
      </trkpt>
      <trkpt lat="42.835921" lon="-0.254738">
        <ele>2088.477</ele>
        <time>2020-07-21T09:31:56Z</time>
      </trkpt>
      <trkpt lat="42.835877" lon="-0.254751">
        <ele>2088.863</ele>
        <time>2020-07-21T09:32:00Z</time>
      </trkpt>
      <trkpt lat="42.835822" lon="-0.254751">
        <ele>2088.744</ele>
        <time>2020-07-21T09:32:06Z</time>
      </trkpt>
      <trkpt lat="42.835773" lon="-0.254764">
        <ele>2088.518</ele>
        <time>2020-07-21T09:32:12Z</time>
      </trkpt>
      <trkpt lat="42.835721" lon="-0.254768">
        <ele>2087.908</ele>
        <time>2020-07-21T09:32:16Z</time>
      </trkpt>
      <trkpt lat="42.835666" lon="-0.254737">
        <ele>2088.991</ele>
        <time>2020-07-21T09:32:22Z</time>
      </trkpt>
      <trkpt lat="42.835621" lon="-0.254722">
        <ele>2089.589</ele>
        <time>2020-07-21T09:32:26Z</time>
      </trkpt>
      <trkpt lat="42.835569" lon="-0.254733">
        <ele>2089.893</ele>
        <time>2020-07-21T09:32:32Z</time>
      </trkpt>
      <trkpt lat="42.835512" lon="-0.254735">
        <ele>2090.328</ele>
        <time>2020-07-21T09:32:38Z</time>
      </trkpt>
      <trkpt lat="42.835454" lon="-0.254739">
        <ele>2090.035</ele>
        <time>2020-07-21T09:32:44Z</time>
      </trkpt>
      <trkpt lat="42.835409" lon="-0.254760">
        <ele>2089.934</ele>
        <time>2020-07-21T09:32:50Z</time>
      </trkpt>
      <trkpt lat="42.835355" lon="-0.254774">
        <ele>2090.678</ele>
        <time>2020-07-21T09:32:58Z</time>
      </trkpt>
      <trkpt lat="42.835303" lon="-0.254791">
        <ele>2090.187</ele>
        <time>2020-07-21T09:33:04Z</time>
      </trkpt>
      <trkpt lat="42.835244" lon="-0.254800">
        <ele>2091.134</ele>
        <time>2020-07-21T09:33:10Z</time>
      </trkpt>
      <trkpt lat="42.835201" lon="-0.254843">
        <ele>2092.155</ele>
        <time>2020-07-21T09:33:16Z</time>
      </trkpt>
      <trkpt lat="42.835139" lon="-0.254845">
        <ele>2092.410</ele>
        <time>2020-07-21T09:33:24Z</time>
      </trkpt>
      <trkpt lat="42.835079" lon="-0.254846">
        <ele>2091.008</ele>
        <time>2020-07-21T09:33:30Z</time>
      </trkpt>
      <trkpt lat="42.835026" lon="-0.254880">
        <ele>2092.488</ele>
        <time>2020-07-21T09:33:38Z</time>
      </trkpt>
      <trkpt lat="42.834979" lon="-0.254895">
        <ele>2094.356</ele>
        <time>2020-07-21T09:33:44Z</time>
      </trkpt>
      <trkpt lat="42.834931" lon="-0.254909">
        <ele>2095.150</ele>
        <time>2020-07-21T09:33:50Z</time>
      </trkpt>
      <trkpt lat="42.834879" lon="-0.254905">
        <ele>2095.495</ele>
        <time>2020-07-21T09:33:56Z</time>
      </trkpt>
      <trkpt lat="42.834829" lon="-0.254899">
        <ele>2095.272</ele>
        <time>2020-07-21T09:34:02Z</time>
      </trkpt>
      <trkpt lat="42.834778" lon="-0.254919">
        <ele>2094.691</ele>
        <time>2020-07-21T09:34:08Z</time>
      </trkpt>
      <trkpt lat="42.834720" lon="-0.254937">
        <ele>2094.715</ele>
        <time>2020-07-21T09:34:14Z</time>
      </trkpt>
      <trkpt lat="42.834668" lon="-0.254936">
        <ele>2096.714</ele>
        <time>2020-07-21T09:34:20Z</time>
      </trkpt>
      <trkpt lat="42.834614" lon="-0.254943">
        <ele>2096.071</ele>
        <time>2020-07-21T09:34:26Z</time>
      </trkpt>
      <trkpt lat="42.834568" lon="-0.254945">
        <ele>2097.341</ele>
        <time>2020-07-21T09:34:30Z</time>
      </trkpt>
      <trkpt lat="42.834529" lon="-0.254979">
        <ele>2096.815</ele>
        <time>2020-07-21T09:34:36Z</time>
      </trkpt>
      <trkpt lat="42.834486" lon="-0.255014">
        <ele>2098.908</ele>
        <time>2020-07-21T09:34:42Z</time>
      </trkpt>
      <trkpt lat="42.834444" lon="-0.255036">
        <ele>2098.592</ele>
        <time>2020-07-21T09:34:48Z</time>
      </trkpt>
      <trkpt lat="42.834392" lon="-0.255080">
        <ele>2099.910</ele>
        <time>2020-07-21T09:34:54Z</time>
      </trkpt>
      <trkpt lat="42.834342" lon="-0.255135">
        <ele>2099.634</ele>
        <time>2020-07-21T09:35:00Z</time>
      </trkpt>
      <trkpt lat="42.834299" lon="-0.255187">
        <ele>2097.829</ele>
        <time>2020-07-21T09:35:06Z</time>
      </trkpt>
      <trkpt lat="42.834239" lon="-0.255230">
        <ele>2100.016</ele>
        <time>2020-07-21T09:35:12Z</time>
      </trkpt>
      <trkpt lat="42.834175" lon="-0.255246">
        <ele>2099.515</ele>
        <time>2020-07-21T09:35:18Z</time>
      </trkpt>
      <trkpt lat="42.834131" lon="-0.255286">
        <ele>2099.399</ele>
        <time>2020-07-21T09:40:28Z</time>
      </trkpt>
      <trkpt lat="42.834102" lon="-0.255354">
        <ele>2098.198</ele>
        <time>2020-07-21T09:41:46Z</time>
      </trkpt>
      <trkpt lat="42.834057" lon="-0.255391">
        <ele>2098.189</ele>
        <time>2020-07-21T09:41:52Z</time>
      </trkpt>
      <trkpt lat="42.834002" lon="-0.255420">
        <ele>2098.906</ele>
        <time>2020-07-21T09:41:58Z</time>
      </trkpt>
      <trkpt lat="42.833947" lon="-0.255419">
        <ele>2099.626</ele>
        <time>2020-07-21T09:42:04Z</time>
      </trkpt>
      <trkpt lat="42.833895" lon="-0.255426">
        <ele>2099.108</ele>
        <time>2020-07-21T09:42:12Z</time>
      </trkpt>
      <trkpt lat="42.833852" lon="-0.255459">
        <ele>2099.433</ele>
        <time>2020-07-21T09:42:20Z</time>
      </trkpt>
      <trkpt lat="42.833799" lon="-0.255483">
        <ele>2099.911</ele>
        <time>2020-07-21T09:42:26Z</time>
      </trkpt>
      <trkpt lat="42.833752" lon="-0.255477">
        <ele>2100.315</ele>
        <time>2020-07-21T09:42:32Z</time>
      </trkpt>
      <trkpt lat="42.833703" lon="-0.255482">
        <ele>2103.080</ele>
        <time>2020-07-21T09:42:40Z</time>
      </trkpt>
      <trkpt lat="42.833658" lon="-0.255522">
        <ele>2103.667</ele>
        <time>2020-07-21T09:42:48Z</time>
      </trkpt>
      <trkpt lat="42.833617" lon="-0.255577">
        <ele>2103.966</ele>
        <time>2020-07-21T09:42:54Z</time>
      </trkpt>
      <trkpt lat="42.833566" lon="-0.255624">
        <ele>2104.640</ele>
        <time>2020-07-21T09:43:02Z</time>
      </trkpt>
      <trkpt lat="42.833530" lon="-0.255679">
        <ele>2103.619</ele>
        <time>2020-07-21T09:43:08Z</time>
      </trkpt>
      <trkpt lat="42.833488" lon="-0.255727">
        <ele>2104.221</ele>
        <time>2020-07-21T09:43:14Z</time>
      </trkpt>
      <trkpt lat="42.833438" lon="-0.255756">
        <ele>2104.741</ele>
        <time>2020-07-21T09:43:20Z</time>
      </trkpt>
      <trkpt lat="42.833390" lon="-0.255773">
        <ele>2106.005</ele>
        <time>2020-07-21T09:43:26Z</time>
      </trkpt>
      <trkpt lat="42.833330" lon="-0.255774">
        <ele>2106.808</ele>
        <time>2020-07-21T09:43:32Z</time>
      </trkpt>
      <trkpt lat="42.833278" lon="-0.255785">
        <ele>2106.897</ele>
        <time>2020-07-21T09:43:38Z</time>
      </trkpt>
      <trkpt lat="42.833233" lon="-0.255800">
        <ele>2107.165</ele>
        <time>2020-07-21T09:43:44Z</time>
      </trkpt>
      <trkpt lat="42.833187" lon="-0.255819">
        <ele>2107.779</ele>
        <time>2020-07-21T09:43:50Z</time>
      </trkpt>
      <trkpt lat="42.833140" lon="-0.255835">
        <ele>2108.274</ele>
        <time>2020-07-21T09:43:54Z</time>
      </trkpt>
      <trkpt lat="42.833093" lon="-0.255852">
        <ele>2108.531</ele>
        <time>2020-07-21T09:44:00Z</time>
      </trkpt>
      <trkpt lat="42.833047" lon="-0.255871">
        <ele>2108.450</ele>
        <time>2020-07-21T09:44:08Z</time>
      </trkpt>
      <trkpt lat="42.833007" lon="-0.255937">
        <ele>2108.464</ele>
        <time>2020-07-21T09:44:14Z</time>
      </trkpt>
      <trkpt lat="42.832965" lon="-0.255978">
        <ele>2108.653</ele>
        <time>2020-07-21T09:44:20Z</time>
      </trkpt>
      <trkpt lat="42.832913" lon="-0.256028">
        <ele>2109.224</ele>
        <time>2020-07-21T09:44:27Z</time>
      </trkpt>
      <trkpt lat="42.832881" lon="-0.256078">
        <ele>2109.904</ele>
        <time>2020-07-21T09:44:31Z</time>
      </trkpt>
      <trkpt lat="42.832865" lon="-0.256144">
        <ele>2109.814</ele>
        <time>2020-07-21T09:44:37Z</time>
      </trkpt>
      <trkpt lat="42.832825" lon="-0.256188">
        <ele>2110.808</ele>
        <time>2020-07-21T09:44:43Z</time>
      </trkpt>
      <trkpt lat="42.832768" lon="-0.256216">
        <ele>2111.187</ele>
        <time>2020-07-21T09:44:49Z</time>
      </trkpt>
      <trkpt lat="42.832719" lon="-0.256231">
        <ele>2112.665</ele>
        <time>2020-07-21T09:44:57Z</time>
      </trkpt>
      <trkpt lat="42.832687" lon="-0.256293">
        <ele>2113.329</ele>
        <time>2020-07-21T09:45:05Z</time>
      </trkpt>
      <trkpt lat="42.832641" lon="-0.256323">
        <ele>2114.274</ele>
        <time>2020-07-21T09:45:13Z</time>
      </trkpt>
      <trkpt lat="42.832595" lon="-0.256346">
        <ele>2115.181</ele>
        <time>2020-07-21T09:45:19Z</time>
      </trkpt>
      <trkpt lat="42.832544" lon="-0.256359">
        <ele>2115.470</ele>
        <time>2020-07-21T09:45:25Z</time>
      </trkpt>
      <trkpt lat="42.832498" lon="-0.256378">
        <ele>2116.774</ele>
        <time>2020-07-21T09:45:33Z</time>
      </trkpt>
      <trkpt lat="42.832460" lon="-0.256434">
        <ele>2117.023</ele>
        <time>2020-07-21T09:45:43Z</time>
      </trkpt>
      <trkpt lat="42.832415" lon="-0.256480">
        <ele>2119.044</ele>
        <time>2020-07-21T09:45:51Z</time>
      </trkpt>
      <trkpt lat="42.832372" lon="-0.256511">
        <ele>2118.905</ele>
        <time>2020-07-21T09:45:57Z</time>
      </trkpt>
      <trkpt lat="42.832333" lon="-0.256554">
        <ele>2120.415</ele>
        <time>2020-07-21T09:46:03Z</time>
      </trkpt>
      <trkpt lat="42.832336" lon="-0.256482">
        <ele>2122.808</ele>
        <time>2020-07-21T09:46:25Z</time>
      </trkpt>
      <trkpt lat="42.832338" lon="-0.256402">
        <ele>2123.559</ele>
        <time>2020-07-21T09:46:31Z</time>
      </trkpt>
      <trkpt lat="42.832294" lon="-0.256420">
        <ele>2125.857</ele>
        <time>2020-07-21T09:48:11Z</time>
      </trkpt>
      <trkpt lat="42.832262" lon="-0.256443">
        <ele>2125.991</ele>
        <time>2020-07-21T09:48:17Z</time>
      </trkpt>
      <trkpt lat="42.832224" lon="-0.256479">
        <ele>2126.666</ele>
        <time>2020-07-21T09:48:23Z</time>
      </trkpt>
      <trkpt lat="42.832186" lon="-0.256516">
        <ele>2128.733</ele>
        <time>2020-07-21T09:48:31Z</time>
      </trkpt>
      <trkpt lat="42.832210" lon="-0.256421">
        <ele>2129.342</ele>
        <time>2020-07-21T09:48:37Z</time>
      </trkpt>
      <trkpt lat="42.832156" lon="-0.256472">
        <ele>2133.016</ele>
        <time>2020-07-21T09:49:03Z</time>
      </trkpt>
      <trkpt lat="42.832120" lon="-0.256513">
        <ele>2132.555</ele>
        <time>2020-07-21T09:49:09Z</time>
      </trkpt>
      <trkpt lat="42.832065" lon="-0.256544">
        <ele>2133.713</ele>
        <time>2020-07-21T09:49:19Z</time>
      </trkpt>
      <trkpt lat="42.832010" lon="-0.256578">
        <ele>2135.043</ele>
        <time>2020-07-21T09:49:25Z</time>
      </trkpt>
      <trkpt lat="42.831984" lon="-0.256652">
        <ele>2135.207</ele>
        <time>2020-07-21T09:49:31Z</time>
      </trkpt>
      <trkpt lat="42.831956" lon="-0.256711">
        <ele>2136.508</ele>
        <time>2020-07-21T09:49:37Z</time>
      </trkpt>
      <trkpt lat="42.831918" lon="-0.256758">
        <ele>2136.536</ele>
        <time>2020-07-21T09:49:43Z</time>
      </trkpt>
      <trkpt lat="42.831862" lon="-0.256785">
        <ele>2137.974</ele>
        <time>2020-07-21T09:49:53Z</time>
      </trkpt>
      <trkpt lat="42.831816" lon="-0.256807">
        <ele>2139.088</ele>
        <time>2020-07-21T09:50:01Z</time>
      </trkpt>
      <trkpt lat="42.831770" lon="-0.256800">
        <ele>2140.073</ele>
        <time>2020-07-21T09:50:09Z</time>
      </trkpt>
      <trkpt lat="42.831722" lon="-0.256818">
        <ele>2139.760</ele>
        <time>2020-07-21T09:50:15Z</time>
      </trkpt>
      <trkpt lat="42.831691" lon="-0.256869">
        <ele>2141.269</ele>
        <time>2020-07-21T09:50:25Z</time>
      </trkpt>
      <trkpt lat="42.831635" lon="-0.256898">
        <ele>2143.093</ele>
        <time>2020-07-21T09:50:33Z</time>
      </trkpt>
      <trkpt lat="42.831589" lon="-0.256928">
        <ele>2142.862</ele>
        <time>2020-07-21T09:50:45Z</time>
      </trkpt>
      <trkpt lat="42.831544" lon="-0.256974">
        <ele>2143.682</ele>
        <time>2020-07-21T09:50:53Z</time>
      </trkpt>
      <trkpt lat="42.831509" lon="-0.257018">
        <ele>2145.043</ele>
        <time>2020-07-21T09:51:01Z</time>
      </trkpt>
      <trkpt lat="42.831479" lon="-0.257075">
        <ele>2146.517</ele>
        <time>2020-07-21T09:51:07Z</time>
      </trkpt>
      <trkpt lat="42.831442" lon="-0.257118">
        <ele>2147.408</ele>
        <time>2020-07-21T09:51:15Z</time>
      </trkpt>
      <trkpt lat="42.831411" lon="-0.257175">
        <ele>2149.113</ele>
        <time>2020-07-21T09:51:21Z</time>
      </trkpt>
      <trkpt lat="42.831370" lon="-0.257229">
        <ele>2150.221</ele>
        <time>2020-07-21T09:52:41Z</time>
      </trkpt>
      <trkpt lat="42.831325" lon="-0.257287">
        <ele>2149.945</ele>
        <time>2020-07-21T09:53:19Z</time>
      </trkpt>
      <trkpt lat="42.831320" lon="-0.257218">
        <ele>2149.860</ele>
        <time>2020-07-21T09:54:43Z</time>
      </trkpt>
      <trkpt lat="42.831339" lon="-0.257158">
        <ele>2151.897</ele>
        <time>2020-07-21T09:55:07Z</time>
      </trkpt>
      <trkpt lat="42.831376" lon="-0.257067">
        <ele>2152.496</ele>
        <time>2020-07-21T09:55:15Z</time>
      </trkpt>
      <trkpt lat="42.831391" lon="-0.257008">
        <ele>2153.640</ele>
        <time>2020-07-21T09:55:23Z</time>
      </trkpt>
      <trkpt lat="42.831398" lon="-0.256948">
        <ele>2153.999</ele>
        <time>2020-07-21T09:55:31Z</time>
      </trkpt>
      <trkpt lat="42.831417" lon="-0.256882">
        <ele>2152.787</ele>
        <time>2020-07-21T09:55:37Z</time>
      </trkpt>
      <trkpt lat="42.831362" lon="-0.256890">
        <ele>2155.042</ele>
        <time>2020-07-21T09:55:47Z</time>
      </trkpt>
      <trkpt lat="42.831322" lon="-0.256942">
        <ele>2154.726</ele>
        <time>2020-07-21T09:55:51Z</time>
      </trkpt>
      <trkpt lat="42.831304" lon="-0.256999">
        <ele>2157.308</ele>
        <time>2020-07-21T09:55:57Z</time>
      </trkpt>
      <trkpt lat="42.831284" lon="-0.257069">
        <ele>2158.843</ele>
        <time>2020-07-21T09:56:11Z</time>
      </trkpt>
      <trkpt lat="42.831245" lon="-0.257122">
        <ele>2160.431</ele>
        <time>2020-07-21T09:56:19Z</time>
      </trkpt>
      <trkpt lat="42.831249" lon="-0.257056">
        <ele>2161.875</ele>
        <time>2020-07-21T09:56:43Z</time>
      </trkpt>
      <trkpt lat="42.831254" lon="-0.256972">
        <ele>2163.120</ele>
        <time>2020-07-21T09:56:51Z</time>
      </trkpt>
      <trkpt lat="42.831259" lon="-0.256908">
        <ele>2164.897</ele>
        <time>2020-07-21T09:57:01Z</time>
      </trkpt>
      <trkpt lat="42.831213" lon="-0.256962">
        <ele>2165.666</ele>
        <time>2020-07-21T09:58:23Z</time>
      </trkpt>
      <trkpt lat="42.831181" lon="-0.257030">
        <ele>2165.380</ele>
        <time>2020-07-21T09:58:31Z</time>
      </trkpt>
      <trkpt lat="42.831150" lon="-0.257071">
        <ele>2167.289</ele>
        <time>2020-07-21T09:58:37Z</time>
      </trkpt>
      <trkpt lat="42.831113" lon="-0.257115">
        <ele>2167.824</ele>
        <time>2020-07-21T09:58:43Z</time>
      </trkpt>
      <trkpt lat="42.831123" lon="-0.257036">
        <ele>2168.904</ele>
        <time>2020-07-21T09:58:53Z</time>
      </trkpt>
      <trkpt lat="42.831136" lon="-0.256975">
        <ele>2170.014</ele>
        <time>2020-07-21T09:58:59Z</time>
      </trkpt>
      <trkpt lat="42.831142" lon="-0.256900">
        <ele>2170.308</ele>
        <time>2020-07-21T09:59:05Z</time>
      </trkpt>
      <trkpt lat="42.831148" lon="-0.256830">
        <ele>2172.547</ele>
        <time>2020-07-21T09:59:13Z</time>
      </trkpt>
      <trkpt lat="42.831102" lon="-0.256869">
        <ele>2173.555</ele>
        <time>2020-07-21T09:59:23Z</time>
      </trkpt>
      <trkpt lat="42.831083" lon="-0.256928">
        <ele>2174.919</ele>
        <time>2020-07-21T09:59:29Z</time>
      </trkpt>
      <trkpt lat="42.831055" lon="-0.256977">
        <ele>2174.324</ele>
        <time>2020-07-21T09:59:33Z</time>
      </trkpt>
      <trkpt lat="42.831038" lon="-0.257042">
        <ele>2175.881</ele>
        <time>2020-07-21T09:59:43Z</time>
      </trkpt>
      <trkpt lat="42.831002" lon="-0.257092">
        <ele>2176.780</ele>
        <time>2020-07-21T09:59:53Z</time>
      </trkpt>
      <trkpt lat="42.830969" lon="-0.257148">
        <ele>2179.074</ele>
        <time>2020-07-21T10:00:01Z</time>
      </trkpt>
      <trkpt lat="42.830925" lon="-0.257202">
        <ele>2179.673</ele>
        <time>2020-07-21T10:00:09Z</time>
      </trkpt>
      <trkpt lat="42.830903" lon="-0.257255">
        <ele>2181.075</ele>
        <time>2020-07-21T10:00:17Z</time>
      </trkpt>
      <trkpt lat="42.830904" lon="-0.257323">
        <ele>2180.628</ele>
        <time>2020-07-21T10:00:23Z</time>
      </trkpt>
      <trkpt lat="42.830913" lon="-0.257384">
        <ele>2182.020</ele>
        <time>2020-07-21T10:00:31Z</time>
      </trkpt>
      <trkpt lat="42.830863" lon="-0.257384">
        <ele>2179.008</ele>
        <time>2020-07-21T10:00:45Z</time>
      </trkpt>
      <trkpt lat="42.830808" lon="-0.257361">
        <ele>2185.822</ele>
        <time>2020-07-21T10:00:53Z</time>
      </trkpt>
      <trkpt lat="42.830753" lon="-0.257380">
        <ele>2186.970</ele>
        <time>2020-07-21T10:00:59Z</time>
      </trkpt>
      <trkpt lat="42.830717" lon="-0.257422">
        <ele>2187.294</ele>
        <time>2020-07-21T10:01:05Z</time>
      </trkpt>
      <trkpt lat="42.830676" lon="-0.257449">
        <ele>2187.459</ele>
        <time>2020-07-21T10:01:23Z</time>
      </trkpt>
      <trkpt lat="42.830638" lon="-0.257435">
        <ele>2184.836</ele>
        <time>2020-07-21T10:03:11Z</time>
      </trkpt>
      <trkpt lat="42.830581" lon="-0.257424">
        <ele>2185.925</ele>
        <time>2020-07-21T10:03:37Z</time>
      </trkpt>
      <trkpt lat="42.830537" lon="-0.257386">
        <ele>2185.999</ele>
        <time>2020-07-21T10:03:43Z</time>
      </trkpt>
      <trkpt lat="42.830484" lon="-0.257356">
        <ele>2186.288</ele>
        <time>2020-07-21T10:03:51Z</time>
      </trkpt>
      <trkpt lat="42.830432" lon="-0.257330">
        <ele>2186.239</ele>
        <time>2020-07-21T10:03:57Z</time>
      </trkpt>
      <trkpt lat="42.830379" lon="-0.257315">
        <ele>2185.401</ele>
        <time>2020-07-21T10:04:03Z</time>
      </trkpt>
      <trkpt lat="42.830333" lon="-0.257303">
        <ele>2184.521</ele>
        <time>2020-07-21T10:04:09Z</time>
      </trkpt>
      <trkpt lat="42.830276" lon="-0.257290">
        <ele>2185.808</ele>
        <time>2020-07-21T10:04:15Z</time>
      </trkpt>
      <trkpt lat="42.830229" lon="-0.257284">
        <ele>2184.218</ele>
        <time>2020-07-21T10:04:21Z</time>
      </trkpt>
      <trkpt lat="42.830181" lon="-0.257283">
        <ele>2184.446</ele>
        <time>2020-07-21T10:04:27Z</time>
      </trkpt>
      <trkpt lat="42.830130" lon="-0.257305">
        <ele>2184.730</ele>
        <time>2020-07-21T10:04:33Z</time>
      </trkpt>
      <trkpt lat="42.830076" lon="-0.257343">
        <ele>2185.085</ele>
        <time>2020-07-21T10:04:39Z</time>
      </trkpt>
      <trkpt lat="42.830015" lon="-0.257364">
        <ele>2185.292</ele>
        <time>2020-07-21T10:04:46Z</time>
      </trkpt>
      <trkpt lat="42.829964" lon="-0.257393">
        <ele>2184.641</ele>
        <time>2020-07-21T10:04:52Z</time>
      </trkpt>
      <trkpt lat="42.829918" lon="-0.257432">
        <ele>2183.585</ele>
        <time>2020-07-21T10:04:58Z</time>
      </trkpt>
      <trkpt lat="42.829881" lon="-0.257475">
        <ele>2183.824</ele>
        <time>2020-07-21T10:05:04Z</time>
      </trkpt>
      <trkpt lat="42.829833" lon="-0.257491">
        <ele>2184.248</ele>
        <time>2020-07-21T10:05:10Z</time>
      </trkpt>
      <trkpt lat="42.829790" lon="-0.257527">
        <ele>2183.761</ele>
        <time>2020-07-21T10:05:16Z</time>
      </trkpt>
      <trkpt lat="42.829754" lon="-0.257579">
        <ele>2183.317</ele>
        <time>2020-07-21T10:05:22Z</time>
      </trkpt>
      <trkpt lat="42.829713" lon="-0.257610">
        <ele>2182.408</ele>
        <time>2020-07-21T10:05:32Z</time>
      </trkpt>
      <trkpt lat="42.829659" lon="-0.257620">
        <ele>2181.499</ele>
        <time>2020-07-21T10:05:40Z</time>
      </trkpt>
      <trkpt lat="42.829601" lon="-0.257606">
        <ele>2181.617</ele>
        <time>2020-07-21T10:05:46Z</time>
      </trkpt>
      <trkpt lat="42.829548" lon="-0.257636">
        <ele>2180.881</ele>
        <time>2020-07-21T10:05:52Z</time>
      </trkpt>
      <trkpt lat="42.829498" lon="-0.257683">
        <ele>2181.676</ele>
        <time>2020-07-21T10:05:58Z</time>
      </trkpt>
      <trkpt lat="42.829438" lon="-0.257712">
        <ele>2182.913</ele>
        <time>2020-07-21T10:06:04Z</time>
      </trkpt>
      <trkpt lat="42.829379" lon="-0.257715">
        <ele>2183.892</ele>
        <time>2020-07-21T10:06:10Z</time>
      </trkpt>
      <trkpt lat="42.829318" lon="-0.257730">
        <ele>2182.916</ele>
        <time>2020-07-21T10:06:16Z</time>
      </trkpt>
      <trkpt lat="42.829265" lon="-0.257734">
        <ele>2184.685</ele>
        <time>2020-07-21T10:06:22Z</time>
      </trkpt>
      <trkpt lat="42.829211" lon="-0.257739">
        <ele>2184.177</ele>
        <time>2020-07-21T10:06:28Z</time>
      </trkpt>
      <trkpt lat="42.829163" lon="-0.257757">
        <ele>2183.261</ele>
        <time>2020-07-21T10:06:34Z</time>
      </trkpt>
      <trkpt lat="42.829115" lon="-0.257773">
        <ele>2184.627</ele>
        <time>2020-07-21T10:06:40Z</time>
      </trkpt>
      <trkpt lat="42.829059" lon="-0.257786">
        <ele>2185.608</ele>
        <time>2020-07-21T10:06:48Z</time>
      </trkpt>
      <trkpt lat="42.829006" lon="-0.257816">
        <ele>2184.722</ele>
        <time>2020-07-21T10:06:54Z</time>
      </trkpt>
      <trkpt lat="42.828943" lon="-0.257840">
        <ele>2186.350</ele>
        <time>2020-07-21T10:07:00Z</time>
      </trkpt>
      <trkpt lat="42.828878" lon="-0.257865">
        <ele>2187.714</ele>
        <time>2020-07-21T10:07:06Z</time>
      </trkpt>
      <trkpt lat="42.828822" lon="-0.257883">
        <ele>2186.319</ele>
        <time>2020-07-21T10:07:12Z</time>
      </trkpt>
      <trkpt lat="42.828777" lon="-0.257902">
        <ele>2189.896</ele>
        <time>2020-07-21T10:07:18Z</time>
      </trkpt>
      <trkpt lat="42.828720" lon="-0.257901">
        <ele>2189.425</ele>
        <time>2020-07-21T10:07:24Z</time>
      </trkpt>
      <trkpt lat="42.828671" lon="-0.257915">
        <ele>2188.029</ele>
        <time>2020-07-21T10:07:30Z</time>
      </trkpt>
      <trkpt lat="42.828625" lon="-0.257916">
        <ele>2188.868</ele>
        <time>2020-07-21T10:07:34Z</time>
      </trkpt>
      <trkpt lat="42.828572" lon="-0.257920">
        <ele>2189.994</ele>
        <time>2020-07-21T10:07:40Z</time>
      </trkpt>
      <trkpt lat="42.828510" lon="-0.257933">
        <ele>2191.557</ele>
        <time>2020-07-21T10:07:48Z</time>
      </trkpt>
      <trkpt lat="42.828462" lon="-0.257954">
        <ele>2192.322</ele>
        <time>2020-07-21T10:07:54Z</time>
      </trkpt>
      <trkpt lat="42.828416" lon="-0.257956">
        <ele>2192.508</ele>
        <time>2020-07-21T10:07:58Z</time>
      </trkpt>
      <trkpt lat="42.828357" lon="-0.257954">
        <ele>2193.394</ele>
        <time>2020-07-21T10:08:04Z</time>
      </trkpt>
      <trkpt lat="42.828307" lon="-0.257976">
        <ele>2191.792</ele>
        <time>2020-07-21T10:08:12Z</time>
      </trkpt>
      <trkpt lat="42.828257" lon="-0.257980">
        <ele>2191.256</ele>
        <time>2020-07-21T10:08:18Z</time>
      </trkpt>
      <trkpt lat="42.828212" lon="-0.257976">
        <ele>2194.071</ele>
        <time>2020-07-21T10:08:24Z</time>
      </trkpt>
      <trkpt lat="42.828145" lon="-0.257970">
        <ele>2194.718</ele>
        <time>2020-07-21T10:08:32Z</time>
      </trkpt>
      <trkpt lat="42.828092" lon="-0.257966">
        <ele>2196.027</ele>
        <time>2020-07-21T10:08:38Z</time>
      </trkpt>
      <trkpt lat="42.828046" lon="-0.257966">
        <ele>2197.161</ele>
        <time>2020-07-21T10:08:44Z</time>
      </trkpt>
      <trkpt lat="42.828000" lon="-0.257968">
        <ele>2197.810</ele>
        <time>2020-07-21T10:08:56Z</time>
      </trkpt>
      <trkpt lat="42.827955" lon="-0.257979">
        <ele>2198.511</ele>
        <time>2020-07-21T10:09:02Z</time>
      </trkpt>
      <trkpt lat="42.827909" lon="-0.257981">
        <ele>2198.721</ele>
        <time>2020-07-21T10:09:08Z</time>
      </trkpt>
      <trkpt lat="42.827864" lon="-0.257975">
        <ele>2198.103</ele>
        <time>2020-07-21T10:09:18Z</time>
      </trkpt>
      <trkpt lat="42.827815" lon="-0.257976">
        <ele>2199.908</ele>
        <time>2020-07-21T10:09:24Z</time>
      </trkpt>
      <trkpt lat="42.827755" lon="-0.257968">
        <ele>2200.726</ele>
        <time>2020-07-21T10:09:30Z</time>
      </trkpt>
      <trkpt lat="42.827705" lon="-0.257973">
        <ele>2199.414</ele>
        <time>2020-07-21T10:10:50Z</time>
      </trkpt>
      <trkpt lat="42.827654" lon="-0.257967">
        <ele>2200.868</ele>
        <time>2020-07-21T10:10:56Z</time>
      </trkpt>
      <trkpt lat="42.827591" lon="-0.257945">
        <ele>2201.163</ele>
        <time>2020-07-21T10:11:02Z</time>
      </trkpt>
      <trkpt lat="42.827540" lon="-0.257953">
        <ele>2202.610</ele>
        <time>2020-07-21T10:11:10Z</time>
      </trkpt>
      <trkpt lat="42.827487" lon="-0.257942">
        <ele>2203.479</ele>
        <time>2020-07-21T10:11:16Z</time>
      </trkpt>
      <trkpt lat="42.827440" lon="-0.257922">
        <ele>2204.213</ele>
        <time>2020-07-21T10:11:22Z</time>
      </trkpt>
      <trkpt lat="42.827381" lon="-0.257918">
        <ele>2204.262</ele>
        <time>2020-07-21T10:11:32Z</time>
      </trkpt>
      <trkpt lat="42.827328" lon="-0.257887">
        <ele>2203.383</ele>
        <time>2020-07-21T10:11:38Z</time>
      </trkpt>
      <trkpt lat="42.827273" lon="-0.257879">
        <ele>2204.625</ele>
        <time>2020-07-21T10:11:44Z</time>
      </trkpt>
      <trkpt lat="42.827218" lon="-0.257862">
        <ele>2206.517</ele>
        <time>2020-07-21T10:11:50Z</time>
      </trkpt>
      <trkpt lat="42.827167" lon="-0.257841">
        <ele>2207.308</ele>
        <time>2020-07-21T10:11:56Z</time>
      </trkpt>
      <trkpt lat="42.827116" lon="-0.257840">
        <ele>2205.333</ele>
        <time>2020-07-21T10:12:04Z</time>
      </trkpt>
      <trkpt lat="42.827056" lon="-0.257822">
        <ele>2209.371</ele>
        <time>2020-07-21T10:12:12Z</time>
      </trkpt>
      <trkpt lat="42.827008" lon="-0.257817">
        <ele>2209.655</ele>
        <time>2020-07-21T10:12:20Z</time>
      </trkpt>
      <trkpt lat="42.826956" lon="-0.257855">
        <ele>2209.280</ele>
        <time>2020-07-21T10:12:28Z</time>
      </trkpt>
      <trkpt lat="42.826912" lon="-0.257882">
        <ele>2210.577</ele>
        <time>2020-07-21T10:12:36Z</time>
      </trkpt>
      <trkpt lat="42.826869" lon="-0.257899">
        <ele>2211.046</ele>
        <time>2020-07-21T10:12:44Z</time>
      </trkpt>
      <trkpt lat="42.826829" lon="-0.257937">
        <ele>2211.660</ele>
        <time>2020-07-21T10:12:52Z</time>
      </trkpt>
      <trkpt lat="42.826785" lon="-0.257935">
        <ele>2212.829</ele>
        <time>2020-07-21T10:12:58Z</time>
      </trkpt>
      <trkpt lat="42.826726" lon="-0.257943">
        <ele>2213.715</ele>
        <time>2020-07-21T10:13:04Z</time>
      </trkpt>
      <trkpt lat="42.826666" lon="-0.257943">
        <ele>2214.165</ele>
        <time>2020-07-21T10:13:12Z</time>
      </trkpt>
      <trkpt lat="42.826609" lon="-0.257928">
        <ele>2215.811</ele>
        <time>2020-07-21T10:13:18Z</time>
      </trkpt>
      <trkpt lat="42.826556" lon="-0.257925">
        <ele>2216.008</ele>
        <time>2020-07-21T10:13:24Z</time>
      </trkpt>
      <trkpt lat="42.826513" lon="-0.257928">
        <ele>2214.726</ele>
        <time>2020-07-21T10:13:30Z</time>
      </trkpt>
      <trkpt lat="42.826485" lon="-0.257960">
        <ele>2215.324</ele>
        <time>2020-07-21T10:13:40Z</time>
      </trkpt>
      <trkpt lat="42.826476" lon="-0.258003">
        <ele>2216.328</ele>
        <time>2020-07-21T10:14:08Z</time>
      </trkpt>
      <trkpt lat="42.826450" lon="-0.258031">
        <ele>2217.073</ele>
        <time>2020-07-21T10:14:44Z</time>
      </trkpt>
      <trkpt lat="42.826404" lon="-0.258036">
        <ele>2218.340</ele>
        <time>2020-07-21T10:15:08Z</time>
      </trkpt>
      <trkpt lat="42.826353" lon="-0.258041">
        <ele>2219.269</ele>
        <time>2020-07-21T10:15:14Z</time>
      </trkpt>
      <trkpt lat="42.826306" lon="-0.258000">
        <ele>2218.833</ele>
        <time>2020-07-21T10:15:20Z</time>
      </trkpt>
      <trkpt lat="42.826254" lon="-0.257987">
        <ele>2219.952</ele>
        <time>2020-07-21T10:15:26Z</time>
      </trkpt>
      <trkpt lat="42.826202" lon="-0.258001">
        <ele>2219.273</ele>
        <time>2020-07-21T10:15:32Z</time>
      </trkpt>
      <trkpt lat="42.826154" lon="-0.258017">
        <ele>2220.885</ele>
        <time>2020-07-21T10:15:38Z</time>
      </trkpt>
      <trkpt lat="42.826107" lon="-0.258007">
        <ele>2222.113</ele>
        <time>2020-07-21T10:15:46Z</time>
      </trkpt>
      <trkpt lat="42.826055" lon="-0.258008">
        <ele>2223.108</ele>
        <time>2020-07-21T10:15:54Z</time>
      </trkpt>
      <trkpt lat="42.826007" lon="-0.257982">
        <ele>2224.152</ele>
        <time>2020-07-21T10:16:02Z</time>
      </trkpt>
      <trkpt lat="42.825949" lon="-0.257980">
        <ele>2224.640</ele>
        <time>2020-07-21T10:16:08Z</time>
      </trkpt>
      <trkpt lat="42.825899" lon="-0.257993">
        <ele>2225.364</ele>
        <time>2020-07-21T10:16:18Z</time>
      </trkpt>
      <trkpt lat="42.825838" lon="-0.257996">
        <ele>2225.359</ele>
        <time>2020-07-21T10:16:24Z</time>
      </trkpt>
      <trkpt lat="42.825783" lon="-0.257991">
        <ele>2227.496</ele>
        <time>2020-07-21T10:16:34Z</time>
      </trkpt>
      <trkpt lat="42.825736" lon="-0.257990">
        <ele>2227.825</ele>
        <time>2020-07-21T10:16:38Z</time>
      </trkpt>
      <trkpt lat="42.825675" lon="-0.258001">
        <ele>2228.389</ele>
        <time>2020-07-21T10:16:44Z</time>
      </trkpt>
      <trkpt lat="42.825621" lon="-0.258017">
        <ele>2228.058</ele>
        <time>2020-07-21T10:16:50Z</time>
      </trkpt>
      <trkpt lat="42.825562" lon="-0.258009">
        <ele>2228.991</ele>
        <time>2020-07-21T10:16:58Z</time>
      </trkpt>
      <trkpt lat="42.825513" lon="-0.258001">
        <ele>2230.681</ele>
        <time>2020-07-21T10:17:04Z</time>
      </trkpt>
      <trkpt lat="42.825458" lon="-0.257999">
        <ele>2229.419</ele>
        <time>2020-07-21T10:17:14Z</time>
      </trkpt>
      <trkpt lat="42.825414" lon="-0.258015">
        <ele>2231.008</ele>
        <time>2020-07-21T10:17:20Z</time>
      </trkpt>
      <trkpt lat="42.825359" lon="-0.258030">
        <ele>2232.784</ele>
        <time>2020-07-21T10:17:30Z</time>
      </trkpt>
      <trkpt lat="42.825322" lon="-0.258070">
        <ele>2233.872</ele>
        <time>2020-07-21T10:18:00Z</time>
      </trkpt>
      <trkpt lat="42.825276" lon="-0.258101">
        <ele>2233.726</ele>
        <time>2020-07-21T10:19:56Z</time>
      </trkpt>
      <trkpt lat="42.825227" lon="-0.258106">
        <ele>2234.191</ele>
        <time>2020-07-21T10:20:04Z</time>
      </trkpt>
      <trkpt lat="42.825185" lon="-0.258147">
        <ele>2233.698</ele>
        <time>2020-07-21T10:21:34Z</time>
      </trkpt>
      <trkpt lat="42.825131" lon="-0.258182">
        <ele>2234.897</ele>
        <time>2020-07-21T10:21:40Z</time>
      </trkpt>
      <trkpt lat="42.825089" lon="-0.258215">
        <ele>2235.981</ele>
        <time>2020-07-21T10:21:48Z</time>
      </trkpt>
      <trkpt lat="42.825057" lon="-0.258265">
        <ele>2236.250</ele>
        <time>2020-07-21T10:21:56Z</time>
      </trkpt>
      <trkpt lat="42.825023" lon="-0.258313">
        <ele>2237.759</ele>
        <time>2020-07-21T10:22:02Z</time>
      </trkpt>
      <trkpt lat="42.824966" lon="-0.258350">
        <ele>2239.503</ele>
        <time>2020-07-21T10:22:10Z</time>
      </trkpt>
      <trkpt lat="42.824915" lon="-0.258362">
        <ele>2238.723</ele>
        <time>2020-07-21T10:22:16Z</time>
      </trkpt>
      <trkpt lat="42.824861" lon="-0.258383">
        <ele>2239.208</ele>
        <time>2020-07-21T10:22:26Z</time>
      </trkpt>
      <trkpt lat="42.824805" lon="-0.258412">
        <ele>2240.370</ele>
        <time>2020-07-21T10:22:34Z</time>
      </trkpt>
      <trkpt lat="42.824762" lon="-0.258442">
        <ele>2241.128</ele>
        <time>2020-07-21T10:22:42Z</time>
      </trkpt>
      <trkpt lat="42.824727" lon="-0.258498">
        <ele>2241.242</ele>
        <time>2020-07-21T10:22:48Z</time>
      </trkpt>
      <trkpt lat="42.824688" lon="-0.258538">
        <ele>2242.467</ele>
        <time>2020-07-21T10:22:54Z</time>
      </trkpt>
      <trkpt lat="42.824641" lon="-0.258571">
        <ele>2242.564</ele>
        <time>2020-07-21T10:23:00Z</time>
      </trkpt>
      <trkpt lat="42.824600" lon="-0.258602">
        <ele>2244.853</ele>
        <time>2020-07-21T10:23:10Z</time>
      </trkpt>
      <trkpt lat="42.824564" lon="-0.258644">
        <ele>2245.497</ele>
        <time>2020-07-21T10:23:16Z</time>
      </trkpt>
      <trkpt lat="42.824522" lon="-0.258695">
        <ele>2245.756</ele>
        <time>2020-07-21T10:23:26Z</time>
      </trkpt>
      <trkpt lat="42.824478" lon="-0.258726">
        <ele>2245.232</ele>
        <time>2020-07-21T10:23:32Z</time>
      </trkpt>
      <trkpt lat="42.824434" lon="-0.258776">
        <ele>2245.392</ele>
        <time>2020-07-21T10:23:38Z</time>
      </trkpt>
      <trkpt lat="42.824392" lon="-0.258818">
        <ele>2244.111</ele>
        <time>2020-07-21T10:23:48Z</time>
      </trkpt>
      <trkpt lat="42.824373" lon="-0.258890">
        <ele>2243.408</ele>
        <time>2020-07-21T10:23:54Z</time>
      </trkpt>
      <trkpt lat="42.824341" lon="-0.258934">
        <ele>2245.228</ele>
        <time>2020-07-21T10:24:02Z</time>
      </trkpt>
      <trkpt lat="42.824299" lon="-0.258951">
        <ele>2246.046</ele>
        <time>2020-07-21T10:24:08Z</time>
      </trkpt>
      <trkpt lat="42.824262" lon="-0.258994">
        <ele>2246.870</ele>
        <time>2020-07-21T10:24:16Z</time>
      </trkpt>
      <trkpt lat="42.824214" lon="-0.259015">
        <ele>2246.815</ele>
        <time>2020-07-21T10:24:24Z</time>
      </trkpt>
      <trkpt lat="42.824165" lon="-0.259056">
        <ele>2249.032</ele>
        <time>2020-07-21T10:24:32Z</time>
      </trkpt>
      <trkpt lat="42.824122" lon="-0.259101">
        <ele>2250.251</ele>
        <time>2020-07-21T10:24:38Z</time>
      </trkpt>
      <trkpt lat="42.824072" lon="-0.259143">
        <ele>2250.185</ele>
        <time>2020-07-21T10:24:46Z</time>
      </trkpt>
      <trkpt lat="42.824037" lon="-0.259201">
        <ele>2250.414</ele>
        <time>2020-07-21T10:24:52Z</time>
      </trkpt>
      <trkpt lat="42.823990" lon="-0.259245">
        <ele>2251.235</ele>
        <time>2020-07-21T10:25:02Z</time>
      </trkpt>
      <trkpt lat="42.823945" lon="-0.259292">
        <ele>2251.886</ele>
        <time>2020-07-21T10:25:09Z</time>
      </trkpt>
      <trkpt lat="42.823891" lon="-0.259316">
        <ele>2252.414</ele>
        <time>2020-07-21T10:25:17Z</time>
      </trkpt>
      <trkpt lat="42.823847" lon="-0.259360">
        <ele>2253.508</ele>
        <time>2020-07-21T10:25:23Z</time>
      </trkpt>
      <trkpt lat="42.823808" lon="-0.259392">
        <ele>2255.368</ele>
        <time>2020-07-21T10:25:33Z</time>
      </trkpt>
      <trkpt lat="42.823760" lon="-0.259402">
        <ele>2254.576</ele>
        <time>2020-07-21T10:25:39Z</time>
      </trkpt>
      <trkpt lat="42.823711" lon="-0.259426">
        <ele>2255.410</ele>
        <time>2020-07-21T10:25:47Z</time>
      </trkpt>
      <trkpt lat="42.823671" lon="-0.259450">
        <ele>2259.135</ele>
        <time>2020-07-21T10:25:55Z</time>
      </trkpt>
      <trkpt lat="42.823638" lon="-0.259506">
        <ele>2257.262</ele>
        <time>2020-07-21T10:26:01Z</time>
      </trkpt>
      <trkpt lat="42.823607" lon="-0.259563">
        <ele>2258.731</ele>
        <time>2020-07-21T10:26:09Z</time>
      </trkpt>
      <trkpt lat="42.823576" lon="-0.259612">
        <ele>2258.575</ele>
        <time>2020-07-21T10:26:15Z</time>
      </trkpt>
      <trkpt lat="42.823543" lon="-0.259656">
        <ele>2260.074</ele>
        <time>2020-07-21T10:26:23Z</time>
      </trkpt>
      <trkpt lat="42.823495" lon="-0.259693">
        <ele>2260.462</ele>
        <time>2020-07-21T10:26:31Z</time>
      </trkpt>
      <trkpt lat="42.823439" lon="-0.259693">
        <ele>2260.383</ele>
        <time>2020-07-21T10:26:37Z</time>
      </trkpt>
      <trkpt lat="42.823390" lon="-0.259707">
        <ele>2260.511</ele>
        <time>2020-07-21T10:26:43Z</time>
      </trkpt>
      <trkpt lat="42.823356" lon="-0.259750">
        <ele>2260.308</ele>
        <time>2020-07-21T10:26:51Z</time>
      </trkpt>
      <trkpt lat="42.823316" lon="-0.259809">
        <ele>2261.781</ele>
        <time>2020-07-21T10:26:57Z</time>
      </trkpt>
      <trkpt lat="42.823271" lon="-0.259851">
        <ele>2262.629</ele>
        <time>2020-07-21T10:27:03Z</time>
      </trkpt>
      <trkpt lat="42.823229" lon="-0.259882">
        <ele>2263.193</ele>
        <time>2020-07-21T10:27:09Z</time>
      </trkpt>
      <trkpt lat="42.823187" lon="-0.259912">
        <ele>2262.778</ele>
        <time>2020-07-21T10:27:17Z</time>
      </trkpt>
      <trkpt lat="42.823141" lon="-0.259933">
        <ele>2264.695</ele>
        <time>2020-07-21T10:27:25Z</time>
      </trkpt>
      <trkpt lat="42.823108" lon="-0.259990">
        <ele>2264.834</ele>
        <time>2020-07-21T10:27:31Z</time>
      </trkpt>
      <trkpt lat="42.823062" lon="-0.260029">
        <ele>2266.428</ele>
        <time>2020-07-21T10:27:41Z</time>
      </trkpt>
      <trkpt lat="42.823021" lon="-0.260068">
        <ele>2267.887</ele>
        <time>2020-07-21T10:29:10Z</time>
      </trkpt>
      <trkpt lat="42.822989" lon="-0.260106">
        <ele>2267.414</ele>
        <time>2020-07-21T10:29:48Z</time>
      </trkpt>
      <trkpt lat="42.822961" lon="-0.260141">
        <ele>2267.454</ele>
        <time>2020-07-21T10:30:10Z</time>
      </trkpt>
      <trkpt lat="42.822946" lon="-0.260153">
        <ele>2267.609</ele>
        <time>2020-07-21T10:30:14Z</time>
      </trkpt>
      <trkpt lat="42.822926" lon="-0.260175">
        <ele>2269.908</ele>
        <time>2020-07-21T10:30:22Z</time>
      </trkpt>
      <trkpt lat="42.822881" lon="-0.260196">
        <ele>2270.066</ele>
        <time>2020-07-21T10:30:28Z</time>
      </trkpt>
      <trkpt lat="42.822841" lon="-0.260224">
        <ele>2269.324</ele>
        <time>2020-07-21T10:30:32Z</time>
      </trkpt>
      <trkpt lat="42.822781" lon="-0.260260">
        <ele>2270.558</ele>
        <time>2020-07-21T10:30:38Z</time>
      </trkpt>
      <trkpt lat="42.822738" lon="-0.260312">
        <ele>2269.443</ele>
        <time>2020-07-21T10:30:46Z</time>
      </trkpt>
      <trkpt lat="42.822682" lon="-0.260368">
        <ele>2270.230</ele>
        <time>2020-07-21T10:30:52Z</time>
      </trkpt>
      <trkpt lat="42.822643" lon="-0.260404">
        <ele>2270.499</ele>
        <time>2020-07-21T10:30:58Z</time>
      </trkpt>
      <trkpt lat="42.822608" lon="-0.260463">
        <ele>2269.773</ele>
        <time>2020-07-21T10:31:04Z</time>
      </trkpt>
      <trkpt lat="42.822569" lon="-0.260502">
        <ele>2271.472</ele>
        <time>2020-07-21T10:31:10Z</time>
      </trkpt>
      <trkpt lat="42.822527" lon="-0.260552">
        <ele>2271.445</ele>
        <time>2020-07-21T10:31:18Z</time>
      </trkpt>
      <trkpt lat="42.822509" lon="-0.260575">
        <ele>2271.747</ele>
        <time>2020-07-21T10:31:24Z</time>
      </trkpt>
      <trkpt lat="42.822492" lon="-0.260602">
        <ele>2272.511</ele>
        <time>2020-07-21T10:31:48Z</time>
      </trkpt>
      <trkpt lat="42.822475" lon="-0.260639">
        <ele>2274.108</ele>
        <time>2020-07-21T10:33:32Z</time>
      </trkpt>
      <trkpt lat="42.822524" lon="-0.260567">
        <ele>2271.219</ele>
        <time>2020-07-21T10:35:11Z</time>
      </trkpt>
      <trkpt lat="42.822567" lon="-0.260527">
        <ele>2271.767</ele>
        <time>2020-07-21T10:35:15Z</time>
      </trkpt>
      <trkpt lat="42.822600" lon="-0.260484">
        <ele>2271.661</ele>
        <time>2020-07-21T10:35:19Z</time>
      </trkpt>
      <trkpt lat="42.822633" lon="-0.260431">
        <ele>2270.336</ele>
        <time>2020-07-21T10:35:25Z</time>
      </trkpt>
      <trkpt lat="42.822682" lon="-0.260381">
        <ele>2270.513</ele>
        <time>2020-07-21T10:35:31Z</time>
      </trkpt>
      <trkpt lat="42.822730" lon="-0.260346">
        <ele>2270.582</ele>
        <time>2020-07-21T10:35:37Z</time>
      </trkpt>
      <trkpt lat="42.822779" lon="-0.260289">
        <ele>2270.436</ele>
        <time>2020-07-21T10:35:43Z</time>
      </trkpt>
      <trkpt lat="42.822829" lon="-0.260244">
        <ele>2268.815</ele>
        <time>2020-07-21T10:35:49Z</time>
      </trkpt>
      <trkpt lat="42.822877" lon="-0.260211">
        <ele>2268.761</ele>
        <time>2020-07-21T10:35:55Z</time>
      </trkpt>
      <trkpt lat="42.822915" lon="-0.260172">
        <ele>2268.921</ele>
        <time>2020-07-21T10:36:01Z</time>
      </trkpt>
      <trkpt lat="42.822964" lon="-0.260122">
        <ele>2267.413</ele>
        <time>2020-07-21T10:36:07Z</time>
      </trkpt>
      <trkpt lat="42.823053" lon="-0.260036">
        <ele>2268.208</ele>
        <time>2020-07-21T10:36:13Z</time>
      </trkpt>
      <trkpt lat="42.822963" lon="-0.260010">
        <ele>2266.971</ele>
        <time>2020-07-21T10:36:19Z</time>
      </trkpt>
      <trkpt lat="42.822913" lon="-0.259971">
        <ele>2267.329</ele>
        <time>2020-07-21T10:36:25Z</time>
      </trkpt>
      <trkpt lat="42.822890" lon="-0.259936">
        <ele>2266.683</ele>
        <time>2020-07-21T10:36:33Z</time>
      </trkpt>
      <trkpt lat="42.822906" lon="-0.259869">
        <ele>2265.378</ele>
        <time>2020-07-21T10:37:35Z</time>
      </trkpt>
      <trkpt lat="42.822926" lon="-0.259814">
        <ele>2265.145</ele>
        <time>2020-07-21T10:37:51Z</time>
      </trkpt>
      <trkpt lat="42.822921" lon="-0.259751">
        <ele>2266.044</ele>
        <time>2020-07-21T10:37:57Z</time>
      </trkpt>
      <trkpt lat="42.822901" lon="-0.259691">
        <ele>2267.478</ele>
        <time>2020-07-21T10:38:03Z</time>
      </trkpt>
      <trkpt lat="42.822911" lon="-0.259620">
        <ele>2268.987</ele>
        <time>2020-07-21T10:38:11Z</time>
      </trkpt>
      <trkpt lat="42.822933" lon="-0.259567">
        <ele>2269.625</ele>
        <time>2020-07-21T10:38:21Z</time>
      </trkpt>
      <trkpt lat="42.822949" lon="-0.259495">
        <ele>2271.126</ele>
        <time>2020-07-21T10:38:29Z</time>
      </trkpt>
      <trkpt lat="42.822980" lon="-0.259443">
        <ele>2273.108</ele>
        <time>2020-07-21T10:38:37Z</time>
      </trkpt>
      <trkpt lat="42.822993" lon="-0.259369">
        <ele>2273.108</ele>
        <time>2020-07-21T10:38:49Z</time>
      </trkpt>
      <trkpt lat="42.823010" lon="-0.259306">
        <ele>2272.167</ele>
        <time>2020-07-21T10:39:01Z</time>
      </trkpt>
      <trkpt lat="42.823042" lon="-0.259239">
        <ele>2276.795</ele>
        <time>2020-07-21T10:39:09Z</time>
      </trkpt>
      <trkpt lat="42.823058" lon="-0.259176">
        <ele>2276.789</ele>
        <time>2020-07-21T10:39:15Z</time>
      </trkpt>
      <trkpt lat="42.823071" lon="-0.259114">
        <ele>2277.294</ele>
        <time>2020-07-21T10:39:25Z</time>
      </trkpt>
      <trkpt lat="42.823095" lon="-0.259057">
        <ele>2279.511</ele>
        <time>2020-07-21T10:39:33Z</time>
      </trkpt>
      <trkpt lat="42.823116" lon="-0.258999">
        <ele>2280.780</ele>
        <time>2020-07-21T10:39:43Z</time>
      </trkpt>
      <trkpt lat="42.823121" lon="-0.258934">
        <ele>2281.184</ele>
        <time>2020-07-21T10:39:53Z</time>
      </trkpt>
      <trkpt lat="42.823155" lon="-0.258871">
        <ele>2282.383</ele>
        <time>2020-07-21T10:39:59Z</time>
      </trkpt>
      <trkpt lat="42.823176" lon="-0.258801">
        <ele>2282.245</ele>
        <time>2020-07-21T10:40:05Z</time>
      </trkpt>
      <trkpt lat="42.823202" lon="-0.258748">
        <ele>2283.647</ele>
        <time>2020-07-21T10:40:17Z</time>
      </trkpt>
      <trkpt lat="42.823217" lon="-0.258681">
        <ele>2285.211</ele>
        <time>2020-07-21T10:40:25Z</time>
      </trkpt>
      <trkpt lat="42.823225" lon="-0.258601">
        <ele>2284.608</ele>
        <time>2020-07-21T10:40:33Z</time>
      </trkpt>
      <trkpt lat="42.823239" lon="-0.258532">
        <ele>2285.239</ele>
        <time>2020-07-21T10:40:41Z</time>
      </trkpt>
      <trkpt lat="42.823250" lon="-0.258472">
        <ele>2285.927</ele>
        <time>2020-07-21T10:40:55Z</time>
      </trkpt>
      <trkpt lat="42.823271" lon="-0.258417">
        <ele>2286.121</ele>
        <time>2020-07-21T10:42:57Z</time>
      </trkpt>
      <trkpt lat="42.823276" lon="-0.258355">
        <ele>2286.126</ele>
        <time>2020-07-21T10:43:21Z</time>
      </trkpt>
      <trkpt lat="42.823308" lon="-0.258302">
        <ele>2285.633</ele>
        <time>2020-07-21T10:44:01Z</time>
      </trkpt>
      <trkpt lat="42.823332" lon="-0.258239">
        <ele>2287.632</ele>
        <time>2020-07-21T10:44:19Z</time>
      </trkpt>
      <trkpt lat="42.823324" lon="-0.258177">
        <ele>2287.446</ele>
        <time>2020-07-21T10:44:29Z</time>
      </trkpt>
      <trkpt lat="42.823329" lon="-0.258109">
        <ele>2290.635</ele>
        <time>2020-07-21T10:44:45Z</time>
      </trkpt>
      <trkpt lat="42.823304" lon="-0.258051">
        <ele>2291.178</ele>
        <time>2020-07-21T10:45:36Z</time>
      </trkpt>
      <trkpt lat="42.823299" lon="-0.257987">
        <ele>2291.933</ele>
        <time>2020-07-21T10:45:40Z</time>
      </trkpt>
      <trkpt lat="42.823296" lon="-0.257907">
        <ele>2292.126</ele>
        <time>2020-07-21T10:45:48Z</time>
      </trkpt>
      <trkpt lat="42.823335" lon="-0.257856">
        <ele>2294.708</ele>
        <time>2020-07-21T10:45:56Z</time>
      </trkpt>
      <trkpt lat="42.823377" lon="-0.257833">
        <ele>2294.862</ele>
        <time>2020-07-21T10:46:02Z</time>
      </trkpt>
      <trkpt lat="42.823418" lon="-0.257801">
        <ele>2295.530</ele>
        <time>2020-07-21T10:46:10Z</time>
      </trkpt>
      <trkpt lat="42.823459" lon="-0.257773">
        <ele>2296.424</ele>
        <time>2020-07-21T10:46:16Z</time>
      </trkpt>
      <trkpt lat="42.823522" lon="-0.257760">
        <ele>2295.969</ele>
        <time>2020-07-21T10:46:22Z</time>
      </trkpt>
      <trkpt lat="42.823565" lon="-0.257732">
        <ele>2295.636</ele>
        <time>2020-07-21T10:46:32Z</time>
      </trkpt>
      <trkpt lat="42.823612" lon="-0.257697">
        <ele>2299.025</ele>
        <time>2020-07-21T10:46:42Z</time>
      </trkpt>
      <trkpt lat="42.823651" lon="-0.257646">
        <ele>2300.319</ele>
        <time>2020-07-21T10:46:50Z</time>
      </trkpt>
      <trkpt lat="42.823715" lon="-0.257610">
        <ele>2300.358</ele>
        <time>2020-07-21T10:46:56Z</time>
      </trkpt>
      <trkpt lat="42.823753" lon="-0.257553">
        <ele>2301.434</ele>
        <time>2020-07-21T10:47:00Z</time>
      </trkpt>
      <trkpt lat="42.823796" lon="-0.257494">
        <ele>2301.055</ele>
        <time>2020-07-21T10:47:06Z</time>
      </trkpt>
      <trkpt lat="42.823844" lon="-0.257453">
        <ele>2301.210</ele>
        <time>2020-07-21T10:47:14Z</time>
      </trkpt>
      <trkpt lat="42.823866" lon="-0.257398">
        <ele>2301.608</ele>
        <time>2020-07-21T10:47:22Z</time>
      </trkpt>
      <trkpt lat="42.823886" lon="-0.257338">
        <ele>2303.178</ele>
        <time>2020-07-21T10:47:32Z</time>
      </trkpt>
      <trkpt lat="42.823909" lon="-0.257284">
        <ele>2304.466</ele>
        <time>2020-07-21T10:47:38Z</time>
      </trkpt>
      <trkpt lat="42.823948" lon="-0.257242">
        <ele>2304.870</ele>
        <time>2020-07-21T10:47:46Z</time>
      </trkpt>
      <trkpt lat="42.823985" lon="-0.257204">
        <ele>2306.635</ele>
        <time>2020-07-21T10:47:52Z</time>
      </trkpt>
      <trkpt lat="42.824037" lon="-0.257150">
        <ele>2306.032</ele>
        <time>2020-07-21T10:47:58Z</time>
      </trkpt>
      <trkpt lat="42.824083" lon="-0.257090">
        <ele>2307.261</ele>
        <time>2020-07-21T10:48:04Z</time>
      </trkpt>
      <trkpt lat="42.824120" lon="-0.257037">
        <ele>2307.955</ele>
        <time>2020-07-21T10:48:10Z</time>
      </trkpt>
      <trkpt lat="42.824155" lon="-0.256987">
        <ele>2307.574</ele>
        <time>2020-07-21T10:48:16Z</time>
      </trkpt>
      <trkpt lat="42.824176" lon="-0.256933">
        <ele>2308.313</ele>
        <time>2020-07-21T10:48:30Z</time>
      </trkpt>
      <trkpt lat="42.824214" lon="-0.256898">
        <ele>2310.343</ele>
        <time>2020-07-21T10:48:40Z</time>
      </trkpt>
      <trkpt lat="42.824259" lon="-0.256850">
        <ele>2307.907</ele>
        <time>2020-07-21T11:05:00Z</time>
      </trkpt>
      <trkpt lat="42.824302" lon="-0.256817">
        <ele>2309.408</ele>
        <time>2020-07-21T11:05:06Z</time>
      </trkpt>
      <trkpt lat="42.824349" lon="-0.256796">
        <ele>2312.066</ele>
        <time>2020-07-21T11:05:20Z</time>
      </trkpt>
      <trkpt lat="42.824373" lon="-0.256747">
        <ele>2313.644</ele>
        <time>2020-07-21T11:05:34Z</time>
      </trkpt>
      <trkpt lat="42.824389" lon="-0.256682">
        <ele>2315.318</ele>
        <time>2020-07-21T11:05:41Z</time>
      </trkpt>
      <trkpt lat="42.824427" lon="-0.256629">
        <ele>2315.663</ele>
        <time>2020-07-21T11:05:47Z</time>
      </trkpt>
      <trkpt lat="42.824444" lon="-0.256569">
        <ele>2315.870</ele>
        <time>2020-07-21T11:05:55Z</time>
      </trkpt>
      <trkpt lat="42.824465" lon="-0.256504">
        <ele>2317.439</ele>
        <time>2020-07-21T11:06:05Z</time>
      </trkpt>
      <trkpt lat="42.824508" lon="-0.256471">
        <ele>2317.543</ele>
        <time>2020-07-21T11:06:11Z</time>
      </trkpt>
      <trkpt lat="42.824552" lon="-0.256454">
        <ele>2319.172</ele>
        <time>2020-07-21T11:06:15Z</time>
      </trkpt>
      <trkpt lat="42.824610" lon="-0.256427">
        <ele>2319.223</ele>
        <time>2020-07-21T11:06:21Z</time>
      </trkpt>
      <trkpt lat="42.824653" lon="-0.256397">
        <ele>2318.983</ele>
        <time>2020-07-21T11:06:27Z</time>
      </trkpt>
      <trkpt lat="42.824699" lon="-0.256356">
        <ele>2320.411</ele>
        <time>2020-07-21T11:06:35Z</time>
      </trkpt>
      <trkpt lat="42.824744" lon="-0.256333">
        <ele>2319.608</ele>
        <time>2020-07-21T11:06:41Z</time>
      </trkpt>
      <trkpt lat="42.824791" lon="-0.256305">
        <ele>2321.787</ele>
        <time>2020-07-21T11:06:47Z</time>
      </trkpt>
      <trkpt lat="42.824853" lon="-0.256282">
        <ele>2321.765</ele>
        <time>2020-07-21T11:06:55Z</time>
      </trkpt>
      <trkpt lat="42.824920" lon="-0.256287">
        <ele>2322.289</ele>
        <time>2020-07-21T11:06:59Z</time>
      </trkpt>
      <trkpt lat="42.824970" lon="-0.256268">
        <ele>2323.394</ele>
        <time>2020-07-21T11:07:03Z</time>
      </trkpt>
      <trkpt lat="42.824987" lon="-0.256211">
        <ele>2324.681</ele>
        <time>2020-07-21T11:07:11Z</time>
      </trkpt>
      <trkpt lat="42.825042" lon="-0.256186">
        <ele>2325.430</ele>
        <time>2020-07-21T11:07:21Z</time>
      </trkpt>
      <trkpt lat="42.825094" lon="-0.256164">
        <ele>2326.844</ele>
        <time>2020-07-21T11:07:29Z</time>
      </trkpt>
      <trkpt lat="42.825126" lon="-0.256120">
        <ele>2327.573</ele>
        <time>2020-07-21T11:07:37Z</time>
      </trkpt>
      <trkpt lat="42.825182" lon="-0.256105">
        <ele>2329.869</ele>
        <time>2020-07-21T11:07:49Z</time>
      </trkpt>
      <trkpt lat="42.825231" lon="-0.256077">
        <ele>2330.404</ele>
        <time>2020-07-21T11:07:55Z</time>
      </trkpt>
      <trkpt lat="42.825274" lon="-0.256062">
        <ele>2330.524</ele>
        <time>2020-07-21T11:08:01Z</time>
      </trkpt>
      <trkpt lat="42.825328" lon="-0.256055">
        <ele>2330.608</ele>
        <time>2020-07-21T11:08:09Z</time>
      </trkpt>
      <trkpt lat="42.825385" lon="-0.256050">
        <ele>2332.561</ele>
        <time>2020-07-21T11:08:17Z</time>
      </trkpt>
      <trkpt lat="42.825432" lon="-0.256025">
        <ele>2332.619</ele>
        <time>2020-07-21T11:08:23Z</time>
      </trkpt>
      <trkpt lat="42.825482" lon="-0.256003">
        <ele>2333.673</ele>
        <time>2020-07-21T11:08:31Z</time>
      </trkpt>
      <trkpt lat="42.825517" lon="-0.255956">
        <ele>2335.168</ele>
        <time>2020-07-21T11:08:43Z</time>
      </trkpt>
      <trkpt lat="42.825524" lon="-0.255886">
        <ele>2337.415</ele>
        <time>2020-07-21T11:08:53Z</time>
      </trkpt>
      <trkpt lat="42.825538" lon="-0.255825">
        <ele>2337.614</ele>
        <time>2020-07-21T11:09:01Z</time>
      </trkpt>
      <trkpt lat="42.825563" lon="-0.255772">
        <ele>2339.188</ele>
        <time>2020-07-21T11:09:11Z</time>
      </trkpt>
      <trkpt lat="42.825591" lon="-0.255725">
        <ele>2339.017</ele>
        <time>2020-07-21T11:09:27Z</time>
      </trkpt>
      <trkpt lat="42.825635" lon="-0.255698">
        <ele>2338.842</ele>
        <time>2020-07-21T11:09:43Z</time>
      </trkpt>
      <trkpt lat="42.825670" lon="-0.255617">
        <ele>2342.522</ele>
        <time>2020-07-21T11:10:01Z</time>
      </trkpt>
      <trkpt lat="42.825698" lon="-0.255550">
        <ele>2343.914</ele>
        <time>2020-07-21T11:10:11Z</time>
      </trkpt>
      <trkpt lat="42.825744" lon="-0.255524">
        <ele>2344.708</ele>
        <time>2020-07-21T11:10:19Z</time>
      </trkpt>
      <trkpt lat="42.825796" lon="-0.255524">
        <ele>2344.579</ele>
        <time>2020-07-21T11:10:25Z</time>
      </trkpt>
      <trkpt lat="42.825846" lon="-0.255516">
        <ele>2344.227</ele>
        <time>2020-07-21T11:10:29Z</time>
      </trkpt>
      <trkpt lat="42.825890" lon="-0.255499">
        <ele>2343.471</ele>
        <time>2020-07-21T11:10:33Z</time>
      </trkpt>
      <trkpt lat="42.825939" lon="-0.255469">
        <ele>2344.756</ele>
        <time>2020-07-21T11:10:39Z</time>
      </trkpt>
      <trkpt lat="42.825984" lon="-0.255492">
        <ele>2342.683</ele>
        <time>2020-07-21T11:10:45Z</time>
      </trkpt>
      <trkpt lat="42.826036" lon="-0.255498">
        <ele>2346.222</ele>
        <time>2020-07-21T11:10:53Z</time>
      </trkpt>
      <trkpt lat="42.826095" lon="-0.255484">
        <ele>2347.526</ele>
        <time>2020-07-21T11:11:01Z</time>
      </trkpt>
      <trkpt lat="42.826138" lon="-0.255449">
        <ele>2349.345</ele>
        <time>2020-07-21T11:11:09Z</time>
      </trkpt>
      <trkpt lat="42.826187" lon="-0.255425">
        <ele>2350.623</ele>
        <time>2020-07-21T11:11:17Z</time>
      </trkpt>
      <trkpt lat="42.826235" lon="-0.255402">
        <ele>2350.583</ele>
        <time>2020-07-21T11:11:25Z</time>
      </trkpt>
      <trkpt lat="42.826263" lon="-0.255350">
        <ele>2348.011</ele>
        <time>2020-07-21T11:11:31Z</time>
      </trkpt>
      <trkpt lat="42.826272" lon="-0.255288">
        <ele>2349.108</ele>
        <time>2020-07-21T11:11:37Z</time>
      </trkpt>
      <trkpt lat="42.826312" lon="-0.255232">
        <ele>2352.527</ele>
        <time>2020-07-21T11:11:45Z</time>
      </trkpt>
      <trkpt lat="42.826339" lon="-0.255167">
        <ele>2352.835</ele>
        <time>2020-07-21T11:11:53Z</time>
      </trkpt>
      <trkpt lat="42.826389" lon="-0.255150">
        <ele>2355.399</ele>
        <time>2020-07-21T11:11:57Z</time>
      </trkpt>
      <trkpt lat="42.826427" lon="-0.255107">
        <ele>2355.084</ele>
        <time>2020-07-21T11:12:03Z</time>
      </trkpt>
      <trkpt lat="42.826458" lon="-0.255059">
        <ele>2354.831</ele>
        <time>2020-07-21T11:12:09Z</time>
      </trkpt>
      <trkpt lat="42.826486" lon="-0.254991">
        <ele>2356.120</ele>
        <time>2020-07-21T11:12:19Z</time>
      </trkpt>
      <trkpt lat="42.826510" lon="-0.254928">
        <ele>2355.624</ele>
        <time>2020-07-21T11:12:27Z</time>
      </trkpt>
      <trkpt lat="42.826547" lon="-0.254895">
        <ele>2357.213</ele>
        <time>2020-07-21T11:12:33Z</time>
      </trkpt>
      <trkpt lat="42.826569" lon="-0.254835">
        <ele>2356.961</ele>
        <time>2020-07-21T11:12:39Z</time>
      </trkpt>
      <trkpt lat="42.826602" lon="-0.254771">
        <ele>2358.721</ele>
        <time>2020-07-21T11:12:45Z</time>
      </trkpt>
      <trkpt lat="42.826630" lon="-0.254709">
        <ele>2358.913</ele>
        <time>2020-07-21T11:12:51Z</time>
      </trkpt>
      <trkpt lat="42.826664" lon="-0.254661">
        <ele>2360.408</ele>
        <time>2020-07-21T11:12:57Z</time>
      </trkpt>
      <trkpt lat="42.826720" lon="-0.254630">
        <ele>2359.721</ele>
        <time>2020-07-21T11:13:05Z</time>
      </trkpt>
      <trkpt lat="42.826758" lon="-0.254596">
        <ele>2358.919</ele>
        <time>2020-07-21T11:13:15Z</time>
      </trkpt>
      <trkpt lat="42.826791" lon="-0.254535">
        <ele>2364.113</ele>
        <time>2020-07-21T11:13:25Z</time>
      </trkpt>
      <trkpt lat="42.826836" lon="-0.254498">
        <ele>2363.838</ele>
        <time>2020-07-21T11:13:31Z</time>
      </trkpt>
      <trkpt lat="42.826877" lon="-0.254462">
        <ele>2363.375</ele>
        <time>2020-07-21T11:13:37Z</time>
      </trkpt>
      <trkpt lat="42.826912" lon="-0.254406">
        <ele>2365.534</ele>
        <time>2020-07-21T11:13:45Z</time>
      </trkpt>
      <trkpt lat="42.826954" lon="-0.254358">
        <ele>2364.928</ele>
        <time>2020-07-21T11:13:53Z</time>
      </trkpt>
      <trkpt lat="42.826989" lon="-0.254310">
        <ele>2364.347</ele>
        <time>2020-07-21T11:13:59Z</time>
      </trkpt>
      <trkpt lat="42.827037" lon="-0.254263">
        <ele>2367.014</ele>
        <time>2020-07-21T11:14:07Z</time>
      </trkpt>
      <trkpt lat="42.827065" lon="-0.254213">
        <ele>2365.154</ele>
        <time>2020-07-21T11:14:13Z</time>
      </trkpt>
      <trkpt lat="42.827108" lon="-0.254171">
        <ele>2367.009</ele>
        <time>2020-07-21T11:14:19Z</time>
      </trkpt>
      <trkpt lat="42.827151" lon="-0.254139">
        <ele>2366.808</ele>
        <time>2020-07-21T11:14:23Z</time>
      </trkpt>
      <trkpt lat="42.827202" lon="-0.254094">
        <ele>2365.276</ele>
        <time>2020-07-21T11:14:29Z</time>
      </trkpt>
      <trkpt lat="42.827248" lon="-0.254050">
        <ele>2366.654</ele>
        <time>2020-07-21T11:14:35Z</time>
      </trkpt>
      <trkpt lat="42.827295" lon="-0.254001">
        <ele>2367.558</ele>
        <time>2020-07-21T11:14:41Z</time>
      </trkpt>
      <trkpt lat="42.827339" lon="-0.253934">
        <ele>2367.813</ele>
        <time>2020-07-21T11:14:49Z</time>
      </trkpt>
      <trkpt lat="42.827374" lon="-0.253891">
        <ele>2367.770</ele>
        <time>2020-07-21T11:14:55Z</time>
      </trkpt>
      <trkpt lat="42.827432" lon="-0.253848">
        <ele>2367.689</ele>
        <time>2020-07-21T11:15:01Z</time>
      </trkpt>
      <trkpt lat="42.827486" lon="-0.253806">
        <ele>2368.163</ele>
        <time>2020-07-21T11:15:07Z</time>
      </trkpt>
      <trkpt lat="42.827523" lon="-0.253753">
        <ele>2368.432</ele>
        <time>2020-07-21T11:15:13Z</time>
      </trkpt>
      <trkpt lat="42.827552" lon="-0.253704">
        <ele>2368.187</ele>
        <time>2020-07-21T11:15:17Z</time>
      </trkpt>
      <trkpt lat="42.827598" lon="-0.253654">
        <ele>2368.542</ele>
        <time>2020-07-21T11:15:23Z</time>
      </trkpt>
      <trkpt lat="42.827632" lon="-0.253609">
        <ele>2368.326</ele>
        <time>2020-07-21T11:15:29Z</time>
      </trkpt>
      <trkpt lat="42.827660" lon="-0.253562">
        <ele>2367.808</ele>
        <time>2020-07-21T11:15:35Z</time>
      </trkpt>
      <trkpt lat="42.827706" lon="-0.253528">
        <ele>2367.863</ele>
        <time>2020-07-21T11:15:43Z</time>
      </trkpt>
      <trkpt lat="42.827728" lon="-0.253474">
        <ele>2367.651</ele>
        <time>2020-07-21T11:15:51Z</time>
      </trkpt>
      <trkpt lat="42.827745" lon="-0.253394">
        <ele>2367.175</ele>
        <time>2020-07-21T11:16:07Z</time>
      </trkpt>
      <trkpt lat="42.827756" lon="-0.253289">
        <ele>2368.210</ele>
        <time>2020-07-21T11:19:52Z</time>
      </trkpt>
      <trkpt lat="42.827735" lon="-0.253219">
        <ele>2370.217</ele>
        <time>2020-07-21T11:20:00Z</time>
      </trkpt>
      <trkpt lat="42.827734" lon="-0.253140">
        <ele>2371.226</ele>
        <time>2020-07-21T11:20:08Z</time>
      </trkpt>
      <trkpt lat="42.827702" lon="-0.253088">
        <ele>2372.360</ele>
        <time>2020-07-21T11:20:16Z</time>
      </trkpt>
      <trkpt lat="42.827670" lon="-0.253039">
        <ele>2372.979</ele>
        <time>2020-07-21T11:20:22Z</time>
      </trkpt>
      <trkpt lat="42.827630" lon="-0.252992">
        <ele>2373.611</ele>
        <time>2020-07-21T11:20:30Z</time>
      </trkpt>
      <trkpt lat="42.827620" lon="-0.252912">
        <ele>2375.221</ele>
        <time>2020-07-21T11:20:40Z</time>
      </trkpt>
      <trkpt lat="42.827625" lon="-0.252833">
        <ele>2374.803</ele>
        <time>2020-07-21T11:20:46Z</time>
      </trkpt>
      <trkpt lat="42.827618" lon="-0.252772">
        <ele>2375.008</ele>
        <time>2020-07-21T11:20:52Z</time>
      </trkpt>
      <trkpt lat="42.827624" lon="-0.252711">
        <ele>2375.986</ele>
        <time>2020-07-21T11:21:04Z</time>
      </trkpt>
      <trkpt lat="42.827663" lon="-0.252671">
        <ele>2377.354</ele>
        <time>2020-07-21T11:21:10Z</time>
      </trkpt>
      <trkpt lat="42.827729" lon="-0.252651">
        <ele>2378.688</ele>
        <time>2020-07-21T11:21:20Z</time>
      </trkpt>
      <trkpt lat="42.827762" lon="-0.252609">
        <ele>2379.323</ele>
        <time>2020-07-21T11:21:26Z</time>
      </trkpt>
      <trkpt lat="42.827805" lon="-0.252570">
        <ele>2380.430</ele>
        <time>2020-07-21T11:21:32Z</time>
      </trkpt>
      <trkpt lat="42.827839" lon="-0.252516">
        <ele>2381.179</ele>
        <time>2020-07-21T11:21:40Z</time>
      </trkpt>
      <trkpt lat="42.827873" lon="-0.252459">
        <ele>2381.053</ele>
        <time>2020-07-21T11:21:46Z</time>
      </trkpt>
      <trkpt lat="42.827912" lon="-0.252416">
        <ele>2381.822</ele>
        <time>2020-07-21T11:21:54Z</time>
      </trkpt>
      <trkpt lat="42.827951" lon="-0.252375">
        <ele>2384.353</ele>
        <time>2020-07-21T11:22:04Z</time>
      </trkpt>
      <trkpt lat="42.827986" lon="-0.252326">
        <ele>2386.004</ele>
        <time>2020-07-21T11:23:00Z</time>
      </trkpt>
      <trkpt lat="42.827935" lon="-0.252300">
        <ele>2387.314</ele>
        <time>2020-07-21T11:23:50Z</time>
      </trkpt>
      <trkpt lat="42.827888" lon="-0.252290">
        <ele>2386.908</ele>
        <time>2020-07-21T11:23:56Z</time>
      </trkpt>
      <trkpt lat="42.827831" lon="-0.252294">
        <ele>2389.450</ele>
        <time>2020-07-21T11:24:02Z</time>
      </trkpt>
      <trkpt lat="42.827776" lon="-0.252299">
        <ele>2388.728</ele>
        <time>2020-07-21T11:24:08Z</time>
      </trkpt>
      <trkpt lat="42.827728" lon="-0.252319">
        <ele>2391.042</ele>
        <time>2020-07-21T11:24:16Z</time>
      </trkpt>
      <trkpt lat="42.827771" lon="-0.252267">
        <ele>2394.737</ele>
        <time>2020-07-21T11:24:52Z</time>
      </trkpt>
      <trkpt lat="42.827812" lon="-0.252230">
        <ele>2398.234</ele>
        <time>2020-07-21T11:24:58Z</time>
      </trkpt>
      <trkpt lat="42.827852" lon="-0.252203">
        <ele>2397.983</ele>
        <time>2020-07-21T11:25:06Z</time>
      </trkpt>
      <trkpt lat="42.827880" lon="-0.252152">
        <ele>2398.087</ele>
        <time>2020-07-21T11:25:16Z</time>
      </trkpt>
      <trkpt lat="42.827916" lon="-0.252097">
        <ele>2402.636</ele>
        <time>2020-07-21T11:25:26Z</time>
      </trkpt>
      <trkpt lat="42.827933" lon="-0.252038">
        <ele>2404.048</ele>
        <time>2020-07-21T11:25:38Z</time>
      </trkpt>
      <trkpt lat="42.827970" lon="-0.252007">
        <ele>2404.861</ele>
        <time>2020-07-21T11:25:46Z</time>
      </trkpt>
      <trkpt lat="42.828016" lon="-0.251980">
        <ele>2405.017</ele>
        <time>2020-07-21T11:26:40Z</time>
      </trkpt>
      <trkpt lat="42.827985" lon="-0.251929">
        <ele>2406.208</ele>
        <time>2020-07-21T11:29:04Z</time>
      </trkpt>
      <trkpt lat="42.827973" lon="-0.251864">
        <ele>2408.339</ele>
        <time>2020-07-21T11:29:32Z</time>
      </trkpt>
      <trkpt lat="42.827983" lon="-0.251796">
        <ele>2409.037</ele>
        <time>2020-07-21T11:29:44Z</time>
      </trkpt>
      <trkpt lat="42.827998" lon="-0.251726">
        <ele>2409.021</ele>
        <time>2020-07-21T11:29:50Z</time>
      </trkpt>
      <trkpt lat="42.828039" lon="-0.251666">
        <ele>2412.076</ele>
        <time>2020-07-21T11:29:58Z</time>
      </trkpt>
      <trkpt lat="42.828078" lon="-0.251618">
        <ele>2411.963</ele>
        <time>2020-07-21T11:30:06Z</time>
      </trkpt>
      <trkpt lat="42.828122" lon="-0.251585">
        <ele>2413.312</ele>
        <time>2020-07-21T11:30:16Z</time>
      </trkpt>
      <trkpt lat="42.828122" lon="-0.251514">
        <ele>2414.936</ele>
        <time>2020-07-21T11:30:56Z</time>
      </trkpt>
      <trkpt lat="42.828106" lon="-0.251452">
        <ele>2416.295</ele>
        <time>2020-07-21T11:31:02Z</time>
      </trkpt>
      <trkpt lat="42.828080" lon="-0.251389">
        <ele>2416.389</ele>
        <time>2020-07-21T11:31:10Z</time>
      </trkpt>
      <trkpt lat="42.828071" lon="-0.251310">
        <ele>2417.806</ele>
        <time>2020-07-21T11:31:20Z</time>
      </trkpt>
      <trkpt lat="42.828055" lon="-0.251240">
        <ele>2422.326</ele>
        <time>2020-07-21T11:33:20Z</time>
      </trkpt>
      <trkpt lat="42.828012" lon="-0.251178">
        <ele>2422.208</ele>
        <time>2020-07-21T11:33:28Z</time>
      </trkpt>
      <trkpt lat="42.827958" lon="-0.251139">
        <ele>2422.493</ele>
        <time>2020-07-21T11:33:34Z</time>
      </trkpt>
      <trkpt lat="42.827914" lon="-0.251122">
        <ele>2423.171</ele>
        <time>2020-07-21T11:33:40Z</time>
      </trkpt>
      <trkpt lat="42.827864" lon="-0.251091">
        <ele>2424.575</ele>
        <time>2020-07-21T11:33:48Z</time>
      </trkpt>
      <trkpt lat="42.827824" lon="-0.251054">
        <ele>2428.460</ele>
        <time>2020-07-21T11:34:00Z</time>
      </trkpt>
      <trkpt lat="42.827782" lon="-0.251026">
        <ele>2425.897</ele>
        <time>2020-07-21T11:34:36Z</time>
      </trkpt>
      <trkpt lat="42.827756" lon="-0.251001">
        <ele>2426.646</ele>
        <time>2020-07-21T11:35:52Z</time>
      </trkpt>
      <trkpt lat="42.827750" lon="-0.250937">
        <ele>2425.090</ele>
        <time>2020-07-21T11:36:52Z</time>
      </trkpt>
      <trkpt lat="42.827750" lon="-0.250879">
        <ele>2424.179</ele>
        <time>2020-07-21T11:37:10Z</time>
      </trkpt>
      <trkpt lat="42.827758" lon="-0.250815">
        <ele>2425.471</ele>
        <time>2020-07-21T11:37:28Z</time>
      </trkpt>
      <trkpt lat="42.827778" lon="-0.250747">
        <ele>2424.341</ele>
        <time>2020-07-21T11:38:14Z</time>
      </trkpt>
      <trkpt lat="42.827806" lon="-0.250683">
        <ele>2423.515</ele>
        <time>2020-07-21T11:38:28Z</time>
      </trkpt>
      <trkpt lat="42.827840" lon="-0.250639">
        <ele>2424.708</ele>
        <time>2020-07-21T11:38:38Z</time>
      </trkpt>
      <trkpt lat="42.827858" lon="-0.250583">
        <ele>2426.192</ele>
        <time>2020-07-21T11:39:28Z</time>
      </trkpt>
      <trkpt lat="42.827855" lon="-0.250510">
        <ele>2428.010</ele>
        <time>2020-07-21T11:39:38Z</time>
      </trkpt>
      <trkpt lat="42.827827" lon="-0.250457">
        <ele>2427.084</ele>
        <time>2020-07-21T11:39:44Z</time>
      </trkpt>
      <trkpt lat="42.827804" lon="-0.250404">
        <ele>2428.089</ele>
        <time>2020-07-21T11:39:52Z</time>
      </trkpt>
      <trkpt lat="42.827818" lon="-0.250344">
        <ele>2428.336</ele>
        <time>2020-07-21T11:40:14Z</time>
      </trkpt>
      <trkpt lat="42.827858" lon="-0.250315">
        <ele>2428.055</ele>
        <time>2020-07-21T11:40:30Z</time>
      </trkpt>
      <trkpt lat="42.827872" lon="-0.250255">
        <ele>2427.659</ele>
        <time>2020-07-21T11:40:40Z</time>
      </trkpt>
      <trkpt lat="42.827849" lon="-0.250192">
        <ele>2429.898</ele>
        <time>2020-07-21T11:40:48Z</time>
      </trkpt>
      <trkpt lat="42.827864" lon="-0.250124">
        <ele>2428.982</ele>
        <time>2020-07-21T11:40:58Z</time>
      </trkpt>
      <trkpt lat="42.827905" lon="-0.250075">
        <ele>2428.843</ele>
        <time>2020-07-21T11:41:08Z</time>
      </trkpt>
      <trkpt lat="42.827944" lon="-0.250027">
        <ele>2430.617</ele>
        <time>2020-07-21T11:41:18Z</time>
      </trkpt>
      <trkpt lat="42.827957" lon="-0.249967">
        <ele>2431.008</ele>
        <time>2020-07-21T11:41:24Z</time>
      </trkpt>
      <trkpt lat="42.827976" lon="-0.249904">
        <ele>2431.633</ele>
        <time>2020-07-21T11:41:32Z</time>
      </trkpt>
      <trkpt lat="42.827989" lon="-0.249843">
        <ele>2432.961</ele>
        <time>2020-07-21T11:41:38Z</time>
      </trkpt>
      <trkpt lat="42.828020" lon="-0.249778">
        <ele>2432.775</ele>
        <time>2020-07-21T11:41:46Z</time>
      </trkpt>
      <trkpt lat="42.828050" lon="-0.249717">
        <ele>2433.930</ele>
        <time>2020-07-21T11:41:56Z</time>
      </trkpt>
      <trkpt lat="42.828085" lon="-0.249665">
        <ele>2435.067</ele>
        <time>2020-07-21T11:42:10Z</time>
      </trkpt>
      <trkpt lat="42.828129" lon="-0.249681">
        <ele>2434.746</ele>
        <time>2020-07-21T11:42:16Z</time>
      </trkpt>
      <trkpt lat="42.828172" lon="-0.249657">
        <ele>2431.430</ele>
        <time>2020-07-21T11:42:22Z</time>
      </trkpt>
      <trkpt lat="42.828202" lon="-0.249591">
        <ele>2435.739</ele>
        <time>2020-07-21T11:42:30Z</time>
      </trkpt>
      <trkpt lat="42.828192" lon="-0.249516">
        <ele>2435.355</ele>
        <time>2020-07-21T11:42:36Z</time>
      </trkpt>
      <trkpt lat="42.828169" lon="-0.249470">
        <ele>2435.107</ele>
        <time>2020-07-21T11:42:46Z</time>
      </trkpt>
      <trkpt lat="42.828173" lon="-0.249403">
        <ele>2434.917</ele>
        <time>2020-07-21T11:43:17Z</time>
      </trkpt>
      <trkpt lat="42.828170" lon="-0.249331">
        <ele>2437.408</ele>
        <time>2020-07-21T11:43:23Z</time>
      </trkpt>
      <trkpt lat="42.828208" lon="-0.249266">
        <ele>2436.390</ele>
        <time>2020-07-21T11:43:31Z</time>
      </trkpt>
      <trkpt lat="42.828245" lon="-0.249251">
        <ele>2434.788</ele>
        <time>2020-07-21T11:43:47Z</time>
      </trkpt>
      <trkpt lat="42.828277" lon="-0.249212">
        <ele>2435.192</ele>
        <time>2020-07-21T11:44:11Z</time>
      </trkpt>
      <trkpt lat="42.828298" lon="-0.249142">
        <ele>2433.297</ele>
        <time>2020-07-21T11:44:27Z</time>
      </trkpt>
      <trkpt lat="42.828333" lon="-0.249092">
        <ele>2436.424</ele>
        <time>2020-07-21T11:44:57Z</time>
      </trkpt>
      <trkpt lat="42.828382" lon="-0.249050">
        <ele>2435.193</ele>
        <time>2020-07-21T11:45:13Z</time>
      </trkpt>
      <trkpt lat="42.828410" lon="-0.248997">
        <ele>2438.577</ele>
        <time>2020-07-21T11:45:23Z</time>
      </trkpt>
      <trkpt lat="42.828447" lon="-0.248952">
        <ele>2441.396</ele>
        <time>2020-07-21T11:45:31Z</time>
      </trkpt>
      <trkpt lat="42.828451" lon="-0.248902">
        <ele>2441.548</ele>
        <time>2020-07-21T11:45:41Z</time>
      </trkpt>
      <trkpt lat="42.828476" lon="-0.248850">
        <ele>2442.961</ele>
        <time>2020-07-21T11:45:49Z</time>
      </trkpt>
      <trkpt lat="42.828531" lon="-0.248838">
        <ele>2442.417</ele>
        <time>2020-07-21T11:45:55Z</time>
      </trkpt>
      <trkpt lat="42.828576" lon="-0.248785">
        <ele>2442.308</ele>
        <time>2020-07-21T11:46:18Z</time>
      </trkpt>
      <trkpt lat="42.828602" lon="-0.248739">
        <ele>2442.389</ele>
        <time>2020-07-21T11:46:48Z</time>
      </trkpt>
      <trkpt lat="42.828653" lon="-0.248752">
        <ele>2442.487</ele>
        <time>2020-07-21T11:47:20Z</time>
      </trkpt>
      <trkpt lat="42.828689" lon="-0.248708">
        <ele>2446.241</ele>
        <time>2020-07-21T11:48:10Z</time>
      </trkpt>
      <trkpt lat="42.828682" lon="-0.248635">
        <ele>2442.866</ele>
        <time>2020-07-21T11:48:18Z</time>
      </trkpt>
      <trkpt lat="42.828683" lon="-0.248557">
        <ele>2446.673</ele>
        <time>2020-07-21T11:48:30Z</time>
      </trkpt>
      <trkpt lat="42.828717" lon="-0.248512">
        <ele>2447.842</ele>
        <time>2020-07-21T11:48:40Z</time>
      </trkpt>
      <trkpt lat="42.828762" lon="-0.248479">
        <ele>2448.616</ele>
        <time>2020-07-21T11:48:50Z</time>
      </trkpt>
      <trkpt lat="42.828805" lon="-0.248464">
        <ele>2448.545</ele>
        <time>2020-07-21T11:48:58Z</time>
      </trkpt>
      <trkpt lat="42.828826" lon="-0.248403">
        <ele>2452.011</ele>
        <time>2020-07-21T11:49:24Z</time>
      </trkpt>
      <trkpt lat="42.828872" lon="-0.248356">
        <ele>2453.121</ele>
        <time>2020-07-21T11:49:34Z</time>
      </trkpt>
      <trkpt lat="42.828918" lon="-0.248343">
        <ele>2451.903</ele>
        <time>2020-07-21T11:49:40Z</time>
      </trkpt>
      <trkpt lat="42.828953" lon="-0.248348">
        <ele>2455.808</ele>
        <time>2020-07-21T11:49:54Z</time>
      </trkpt>
      <trkpt lat="42.828954" lon="-0.248293">
        <ele>2457.596</ele>
        <time>2020-07-21T11:50:24Z</time>
      </trkpt>
      <trkpt lat="42.828930" lon="-0.248234">
        <ele>2457.224</ele>
        <time>2020-07-21T11:50:32Z</time>
      </trkpt>
      <trkpt lat="42.828913" lon="-0.248186">
        <ele>2457.938</ele>
        <time>2020-07-21T11:50:48Z</time>
      </trkpt>
      <trkpt lat="42.828879" lon="-0.248181">
        <ele>2457.973</ele>
        <time>2020-07-21T11:51:12Z</time>
      </trkpt>
      <trkpt lat="42.828848" lon="-0.248156">
        <ele>2455.850</ele>
        <time>2020-07-21T11:51:42Z</time>
      </trkpt>
      <trkpt lat="42.828852" lon="-0.248086">
        <ele>2459.089</ele>
        <time>2020-07-21T11:52:04Z</time>
      </trkpt>
      <trkpt lat="42.828892" lon="-0.248047">
        <ele>2458.073</ele>
        <time>2020-07-21T11:52:42Z</time>
      </trkpt>
      <trkpt lat="42.828917" lon="-0.247993">
        <ele>2457.132</ele>
        <time>2020-07-21T11:52:50Z</time>
      </trkpt>
      <trkpt lat="42.828937" lon="-0.247930">
        <ele>2463.727</ele>
        <time>2020-07-21T11:53:28Z</time>
      </trkpt>
      <trkpt lat="42.828959" lon="-0.247889">
        <ele>2464.768</ele>
        <time>2020-07-21T11:53:54Z</time>
      </trkpt>
      <trkpt lat="42.828917" lon="-0.247888">
        <ele>2466.914</ele>
        <time>2020-07-21T11:54:16Z</time>
      </trkpt>
      <trkpt lat="42.828866" lon="-0.247885">
        <ele>2468.308</ele>
        <time>2020-07-21T11:54:40Z</time>
      </trkpt>
      <trkpt lat="42.828889" lon="-0.247814">
        <ele>2473.197</ele>
        <time>2020-07-21T11:55:20Z</time>
      </trkpt>
      <trkpt lat="42.828916" lon="-0.247752">
        <ele>2474.795</ele>
        <time>2020-07-21T11:56:02Z</time>
      </trkpt>
      <trkpt lat="42.828942" lon="-0.247697">
        <ele>2474.719</ele>
        <time>2020-07-21T11:56:10Z</time>
      </trkpt>
      <trkpt lat="42.828961" lon="-0.247617">
        <ele>2474.984</ele>
        <time>2020-07-21T11:56:16Z</time>
      </trkpt>
      <trkpt lat="42.828991" lon="-0.247570">
        <ele>2474.351</ele>
        <time>2020-07-21T11:56:20Z</time>
      </trkpt>
      <trkpt lat="42.829015" lon="-0.247509">
        <ele>2476.210</ele>
        <time>2020-07-21T11:56:28Z</time>
      </trkpt>
      <trkpt lat="42.829051" lon="-0.247486">
        <ele>2477.814</ele>
        <time>2020-07-21T11:57:14Z</time>
      </trkpt>
      <trkpt lat="42.829064" lon="-0.247432">
        <ele>2480.153</ele>
        <time>2020-07-21T11:57:28Z</time>
      </trkpt>
      <trkpt lat="42.829066" lon="-0.247367">
        <ele>2481.588</ele>
        <time>2020-07-21T11:57:34Z</time>
      </trkpt>
      <trkpt lat="42.829080" lon="-0.247297">
        <ele>2481.324</ele>
        <time>2020-07-21T11:57:50Z</time>
      </trkpt>
      <trkpt lat="42.829106" lon="-0.247242">
        <ele>2482.826</ele>
        <time>2020-07-21T11:59:06Z</time>
      </trkpt>
      <trkpt lat="42.829133" lon="-0.247188">
        <ele>2484.608</ele>
        <time>2020-07-21T11:59:18Z</time>
      </trkpt>
      <trkpt lat="42.829166" lon="-0.247144">
        <ele>2484.393</ele>
        <time>2020-07-21T11:59:26Z</time>
      </trkpt>
      <trkpt lat="42.829202" lon="-0.247098">
        <ele>2496.531</ele>
        <time>2020-07-21T12:02:28Z</time>
      </trkpt>
      <trkpt lat="42.829149" lon="-0.247089">
        <ele>2497.495</ele>
        <time>2020-07-21T12:02:44Z</time>
      </trkpt>
      <trkpt lat="42.829106" lon="-0.247101">
        <ele>2499.750</ele>
        <time>2020-07-21T12:02:58Z</time>
      </trkpt>
      <trkpt lat="42.829071" lon="-0.247121">
        <ele>2499.837</ele>
        <time>2020-07-21T12:03:10Z</time>
      </trkpt>
      <trkpt lat="42.829037" lon="-0.247164">
        <ele>2501.596</ele>
        <time>2020-07-21T12:04:16Z</time>
      </trkpt>
      <trkpt lat="42.828994" lon="-0.247194">
        <ele>2499.390</ele>
        <time>2020-07-21T12:04:34Z</time>
      </trkpt>
      <trkpt lat="42.828928" lon="-0.247189">
        <ele>2504.649</ele>
        <time>2020-07-21T12:04:52Z</time>
      </trkpt>
      <trkpt lat="42.828879" lon="-0.247197">
        <ele>2506.316</ele>
        <time>2020-07-21T12:05:06Z</time>
      </trkpt>
      <trkpt lat="42.828825" lon="-0.247210">
        <ele>2510.476</ele>
        <time>2020-07-21T12:05:14Z</time>
      </trkpt>
      <trkpt lat="42.828831" lon="-0.247147">
        <ele>2505.913</ele>
        <time>2020-07-21T12:05:26Z</time>
      </trkpt>
      <trkpt lat="42.828856" lon="-0.247086">
        <ele>2510.508</ele>
        <time>2020-07-21T12:05:34Z</time>
      </trkpt>
      <trkpt lat="42.828810" lon="-0.247095">
        <ele>2511.436</ele>
        <time>2020-07-21T12:05:54Z</time>
      </trkpt>
      <trkpt lat="42.828762" lon="-0.247116">
        <ele>2515.024</ele>
        <time>2020-07-21T12:06:39Z</time>
      </trkpt>
      <trkpt lat="42.828779" lon="-0.247033">
        <ele>2517.198</ele>
        <time>2020-07-21T12:06:51Z</time>
      </trkpt>
      <trkpt lat="42.828739" lon="-0.247041">
        <ele>2517.473</ele>
        <time>2020-07-21T12:07:01Z</time>
      </trkpt>
      <trkpt lat="42.828686" lon="-0.247048">
        <ele>2520.490</ele>
        <time>2020-07-21T12:07:21Z</time>
      </trkpt>
      <trkpt lat="42.828627" lon="-0.247080">
        <ele>2517.879</ele>
        <time>2020-07-21T12:07:39Z</time>
      </trkpt>
      <trkpt lat="42.828660" lon="-0.246997">
        <ele>2522.093</ele>
        <time>2020-07-21T12:07:47Z</time>
      </trkpt>
      <trkpt lat="42.828689" lon="-0.246952">
        <ele>2523.522</ele>
        <time>2020-07-21T12:07:55Z</time>
      </trkpt>
      <trkpt lat="42.828619" lon="-0.246972">
        <ele>2525.415</ele>
        <time>2020-07-21T12:08:01Z</time>
      </trkpt>
      <trkpt lat="42.828641" lon="-0.246927">
        <ele>2525.565</ele>
        <time>2020-07-21T12:08:09Z</time>
      </trkpt>
      <trkpt lat="42.828674" lon="-0.246882">
        <ele>2524.211</ele>
        <time>2020-07-21T12:08:19Z</time>
      </trkpt>
      <trkpt lat="42.828608" lon="-0.246876">
        <ele>2526.008</ele>
        <time>2020-07-21T12:10:13Z</time>
      </trkpt>
      <trkpt lat="42.828635" lon="-0.246834">
        <ele>2525.126</ele>
        <time>2020-07-21T12:10:49Z</time>
      </trkpt>
      <trkpt lat="42.828678" lon="-0.246822">
        <ele>2525.584</ele>
        <time>2020-07-21T12:11:35Z</time>
      </trkpt>
      <trkpt lat="42.828645" lon="-0.246792">
        <ele>2526.718</ele>
        <time>2020-07-21T12:12:45Z</time>
      </trkpt>
      <trkpt lat="42.828613" lon="-0.246755">
        <ele>2526.043</ele>
        <time>2020-07-21T12:12:51Z</time>
      </trkpt>
      <trkpt lat="42.828662" lon="-0.246714">
        <ele>2526.590</ele>
        <time>2020-07-21T12:12:55Z</time>
      </trkpt>
      <trkpt lat="42.828624" lon="-0.246648">
        <ele>2526.619</ele>
        <time>2020-07-21T12:13:03Z</time>
      </trkpt>
      <trkpt lat="42.828587" lon="-0.246601">
        <ele>2528.853</ele>
        <time>2020-07-21T12:13:09Z</time>
      </trkpt>
      <trkpt lat="42.828585" lon="-0.246516">
        <ele>2528.392</ele>
        <time>2020-07-21T12:13:35Z</time>
      </trkpt>
      <trkpt lat="42.828597" lon="-0.246446">
        <ele>2532.497</ele>
        <time>2020-07-21T12:13:43Z</time>
      </trkpt>
      <trkpt lat="42.828597" lon="-0.246380">
        <ele>2533.623</ele>
        <time>2020-07-21T12:13:47Z</time>
      </trkpt>
      <trkpt lat="42.828582" lon="-0.246311">
        <ele>2533.725</ele>
        <time>2020-07-21T12:13:53Z</time>
      </trkpt>
      <trkpt lat="42.828545" lon="-0.246261">
        <ele>2537.808</ele>
        <time>2020-07-21T12:15:13Z</time>
      </trkpt>
      <trkpt lat="42.828571" lon="-0.246197">
        <ele>2539.644</ele>
        <time>2020-07-21T12:15:21Z</time>
      </trkpt>
      <trkpt lat="42.828601" lon="-0.246129">
        <ele>2542.462</ele>
        <time>2020-07-21T12:15:31Z</time>
      </trkpt>
      <trkpt lat="42.828554" lon="-0.246120">
        <ele>2539.566</ele>
        <time>2020-07-21T12:15:45Z</time>
      </trkpt>
      <trkpt lat="42.828513" lon="-0.246144">
        <ele>2544.411</ele>
        <time>2020-07-21T12:16:09Z</time>
      </trkpt>
      <trkpt lat="42.828538" lon="-0.246068">
        <ele>2545.818</ele>
        <time>2020-07-21T12:16:21Z</time>
      </trkpt>
      <trkpt lat="42.828496" lon="-0.246021">
        <ele>2548.867</ele>
        <time>2020-07-21T12:16:39Z</time>
      </trkpt>
      <trkpt lat="42.828466" lon="-0.245972">
        <ele>2548.911</ele>
        <time>2020-07-21T12:17:13Z</time>
      </trkpt>
      <trkpt lat="42.828490" lon="-0.245918">
        <ele>2552.970</ele>
        <time>2020-07-21T12:17:25Z</time>
      </trkpt>
      <trkpt lat="42.828491" lon="-0.245848">
        <ele>2552.583</ele>
        <time>2020-07-21T12:17:37Z</time>
      </trkpt>
      <trkpt lat="42.828447" lon="-0.245809">
        <ele>2553.525</ele>
        <time>2020-07-21T12:17:47Z</time>
      </trkpt>
      <trkpt lat="42.828399" lon="-0.245769">
        <ele>2554.117</ele>
        <time>2020-07-21T12:17:59Z</time>
      </trkpt>
      <trkpt lat="42.828425" lon="-0.245716">
        <ele>2553.308</ele>
        <time>2020-07-21T12:18:11Z</time>
      </trkpt>
      <trkpt lat="42.828467" lon="-0.245683">
        <ele>2552.463</ele>
        <time>2020-07-21T12:18:27Z</time>
      </trkpt>
      <trkpt lat="42.828519" lon="-0.245647">
        <ele>2552.161</ele>
        <time>2020-07-21T12:18:41Z</time>
      </trkpt>
      <trkpt lat="42.828570" lon="-0.245609">
        <ele>2552.415</ele>
        <time>2020-07-21T12:18:49Z</time>
      </trkpt>
      <trkpt lat="42.828618" lon="-0.245620">
        <ele>2551.620</ele>
        <time>2020-07-21T12:19:13Z</time>
      </trkpt>
      <trkpt lat="42.828658" lon="-0.245635">
        <ele>2552.237</ele>
        <time>2020-07-21T12:20:19Z</time>
      </trkpt>
      <trkpt lat="42.828643" lon="-0.245574">
        <ele>2552.246</ele>
        <time>2020-07-21T12:20:29Z</time>
      </trkpt>
      <trkpt lat="42.828645" lon="-0.245501">
        <ele>2557.260</ele>
        <time>2020-07-21T12:20:57Z</time>
      </trkpt>
      <trkpt lat="42.828676" lon="-0.245449">
        <ele>2560.089</ele>
        <time>2020-07-21T12:21:17Z</time>
      </trkpt>
      <trkpt lat="42.828734" lon="-0.245453">
        <ele>2561.485</ele>
        <time>2020-07-21T12:21:29Z</time>
      </trkpt>
      <trkpt lat="42.828769" lon="-0.245402">
        <ele>2562.389</ele>
        <time>2020-07-21T12:21:35Z</time>
      </trkpt>
      <trkpt lat="42.828767" lon="-0.245330">
        <ele>2563.017</ele>
        <time>2020-07-21T12:21:41Z</time>
      </trkpt>
      <trkpt lat="42.828806" lon="-0.245291">
        <ele>2564.608</ele>
        <time>2020-07-21T12:21:51Z</time>
      </trkpt>
      <trkpt lat="42.828848" lon="-0.245263">
        <ele>2566.353</ele>
        <time>2020-07-21T12:22:11Z</time>
      </trkpt>
      <trkpt lat="42.828885" lon="-0.245212">
        <ele>2568.791</ele>
        <time>2020-07-21T12:22:25Z</time>
      </trkpt>
      <trkpt lat="42.828896" lon="-0.245151">
        <ele>2570.165</ele>
        <time>2020-07-21T12:22:31Z</time>
      </trkpt>
      <trkpt lat="42.828936" lon="-0.245100">
        <ele>2572.730</ele>
        <time>2020-07-21T12:22:41Z</time>
      </trkpt>
      <trkpt lat="42.828985" lon="-0.245077">
        <ele>2574.567</ele>
        <time>2020-07-21T12:22:53Z</time>
      </trkpt>
      <trkpt lat="42.829026" lon="-0.245056">
        <ele>2576.886</ele>
        <time>2020-07-21T12:23:01Z</time>
      </trkpt>
      <trkpt lat="42.829067" lon="-0.245020">
        <ele>2578.290</ele>
        <time>2020-07-21T12:23:25Z</time>
      </trkpt>
      <trkpt lat="42.829099" lon="-0.244990">
        <ele>2580.489</ele>
        <time>2020-07-21T12:23:35Z</time>
      </trkpt>
      <trkpt lat="42.829134" lon="-0.244945">
        <ele>2582.419</ele>
        <time>2020-07-21T12:23:55Z</time>
      </trkpt>
      <trkpt lat="42.829087" lon="-0.244916">
        <ele>2584.209</ele>
        <time>2020-07-21T12:24:31Z</time>
      </trkpt>
      <trkpt lat="42.829041" lon="-0.244934">
        <ele>2586.419</ele>
        <time>2020-07-21T12:25:57Z</time>
      </trkpt>
      <trkpt lat="42.828994" lon="-0.244932">
        <ele>2588.708</ele>
        <time>2020-07-21T12:26:05Z</time>
      </trkpt>
      <trkpt lat="42.828953" lon="-0.244951">
        <ele>2590.856</ele>
        <time>2020-07-21T12:26:13Z</time>
      </trkpt>
      <trkpt lat="42.828904" lon="-0.244992">
        <ele>2592.384</ele>
        <time>2020-07-21T12:26:31Z</time>
      </trkpt>
      <trkpt lat="42.828851" lon="-0.245029">
        <ele>2594.088</ele>
        <time>2020-07-21T12:26:37Z</time>
      </trkpt>
      <trkpt lat="42.828868" lon="-0.244958">
        <ele>2596.343</ele>
        <time>2020-07-21T12:27:00Z</time>
      </trkpt>
      <trkpt lat="42.828886" lon="-0.244904">
        <ele>2598.720</ele>
        <time>2020-07-21T12:27:14Z</time>
      </trkpt>
      <trkpt lat="42.828831" lon="-0.244894">
        <ele>2600.959</ele>
        <time>2020-07-21T12:28:28Z</time>
      </trkpt>
      <trkpt lat="42.828773" lon="-0.244920">
        <ele>2602.843</ele>
        <time>2020-07-21T12:28:36Z</time>
      </trkpt>
      <trkpt lat="42.828724" lon="-0.244936">
        <ele>2604.022</ele>
        <time>2020-07-21T12:28:42Z</time>
      </trkpt>
      <trkpt lat="42.828663" lon="-0.244948">
        <ele>2606.188</ele>
        <time>2020-07-21T12:28:50Z</time>
      </trkpt>
      <trkpt lat="42.828656" lon="-0.244877">
        <ele>2608.324</ele>
        <time>2020-07-21T12:29:10Z</time>
      </trkpt>
      <trkpt lat="42.828671" lon="-0.244809">
        <ele>2610.026</ele>
        <time>2020-07-21T12:29:20Z</time>
      </trkpt>
      <trkpt lat="42.828625" lon="-0.244827">
        <ele>2612.208</ele>
        <time>2020-07-21T12:31:02Z</time>
      </trkpt>
      <trkpt lat="42.828575" lon="-0.244857">
        <ele>2614.243</ele>
        <time>2020-07-21T12:31:08Z</time>
      </trkpt>
      <trkpt lat="42.828535" lon="-0.244905">
        <ele>2616.731</ele>
        <time>2020-07-21T12:31:18Z</time>
      </trkpt>
      <trkpt lat="42.828487" lon="-0.244954">
        <ele>2618.625</ele>
        <time>2020-07-21T12:31:26Z</time>
      </trkpt>
      <trkpt lat="42.828441" lon="-0.244983">
        <ele>2620.120</ele>
        <time>2020-07-21T12:31:32Z</time>
      </trkpt>
      <trkpt lat="42.828392" lon="-0.245007">
        <ele>2622.977</ele>
        <time>2020-07-21T12:31:44Z</time>
      </trkpt>
      <trkpt lat="42.828365" lon="-0.244954">
        <ele>2624.026</ele>
        <time>2020-07-21T12:31:58Z</time>
      </trkpt>
      <trkpt lat="42.828336" lon="-0.244909">
        <ele>2626.980</ele>
        <time>2020-07-21T12:32:48Z</time>
      </trkpt>
      <trkpt lat="42.828273" lon="-0.244917">
        <ele>2628.839</ele>
        <time>2020-07-21T12:32:58Z</time>
      </trkpt>
      <trkpt lat="42.828227" lon="-0.244916">
        <ele>2630.121</ele>
        <time>2020-07-21T12:33:02Z</time>
      </trkpt>
      <trkpt lat="42.828187" lon="-0.244883">
        <ele>2632.241</ele>
        <time>2020-07-21T12:33:06Z</time>
      </trkpt>
      <trkpt lat="42.828140" lon="-0.244888">
        <ele>2634.705</ele>
        <time>2020-07-21T12:33:12Z</time>
      </trkpt>
      <trkpt lat="42.828119" lon="-0.244830">
        <ele>2636.008</ele>
        <time>2020-07-21T12:33:22Z</time>
      </trkpt>
      <trkpt lat="42.828093" lon="-0.244776">
        <ele>2638.137</ele>
        <time>2020-07-21T12:33:38Z</time>
      </trkpt>
      <trkpt lat="42.828053" lon="-0.244791">
        <ele>2640.975</ele>
        <time>2020-07-21T12:34:40Z</time>
      </trkpt>
      <trkpt lat="42.828012" lon="-0.244842">
        <ele>2641.349</ele>
        <time>2020-07-21T12:34:48Z</time>
      </trkpt>
      <trkpt lat="42.827964" lon="-0.244848">
        <ele>2642.984</ele>
        <time>2020-07-21T12:34:54Z</time>
      </trkpt>
      <trkpt lat="42.827920" lon="-0.244870">
        <ele>2644.871</ele>
        <time>2020-07-21T12:35:00Z</time>
      </trkpt>
      <trkpt lat="42.827887" lon="-0.244920">
        <ele>2646.750</ele>
        <time>2020-07-21T12:35:08Z</time>
      </trkpt>
      <trkpt lat="42.827840" lon="-0.244961">
        <ele>2648.894</ele>
        <time>2020-07-21T12:35:14Z</time>
      </trkpt>
      <trkpt lat="42.827802" lon="-0.244998">
        <ele>2650.453</ele>
        <time>2020-07-21T12:35:18Z</time>
      </trkpt>
      <trkpt lat="42.827762" lon="-0.245042">
        <ele>2652.171</ele>
        <time>2020-07-21T12:35:22Z</time>
      </trkpt>
      <trkpt lat="42.827725" lon="-0.245090">
        <ele>2654.941</ele>
        <time>2020-07-21T12:35:30Z</time>
      </trkpt>
      <trkpt lat="42.827691" lon="-0.245131">
        <ele>2656.115</ele>
        <time>2020-07-21T12:35:46Z</time>
      </trkpt>
      <trkpt lat="42.827646" lon="-0.245152">
        <ele>2658.608</ele>
        <time>2020-07-21T12:36:14Z</time>
      </trkpt>
      <trkpt lat="42.827679" lon="-0.245084">
        <ele>2660.582</ele>
        <time>2020-07-21T12:36:48Z</time>
      </trkpt>
      <trkpt lat="42.827712" lon="-0.245027">
        <ele>2662.480</ele>
        <time>2020-07-21T12:36:54Z</time>
      </trkpt>
      <trkpt lat="42.827740" lon="-0.244965">
        <ele>2664.614</ele>
        <time>2020-07-21T12:37:04Z</time>
      </trkpt>
      <trkpt lat="42.827764" lon="-0.244888">
        <ele>2665.269</ele>
        <time>2020-07-21T12:37:12Z</time>
      </trkpt>
      <trkpt lat="42.827789" lon="-0.244832">
        <ele>2666.246</ele>
        <time>2020-07-21T12:37:24Z</time>
      </trkpt>
      <trkpt lat="42.827798" lon="-0.244772">
        <ele>2668.555</ele>
        <time>2020-07-21T12:37:30Z</time>
      </trkpt>
      <trkpt lat="42.827792" lon="-0.244706">
        <ele>2670.529</ele>
        <time>2020-07-21T12:37:40Z</time>
      </trkpt>
      <trkpt lat="42.827768" lon="-0.244715">
        <ele>2672.218</ele>
        <time>2020-07-21T12:38:04Z</time>
      </trkpt>
      <trkpt lat="42.827734" lon="-0.244794">
        <ele>2674.966</ele>
        <time>2020-07-21T12:38:18Z</time>
      </trkpt>
      <trkpt lat="42.827694" lon="-0.244868">
        <ele>2676.529</ele>
        <time>2020-07-21T12:38:24Z</time>
      </trkpt>
      <trkpt lat="42.827661" lon="-0.244920">
        <ele>2678.321</ele>
        <time>2020-07-21T12:38:30Z</time>
      </trkpt>
      <trkpt lat="42.827630" lon="-0.244967">
        <ele>2679.408</ele>
        <time>2020-07-21T12:38:42Z</time>
      </trkpt>
      <trkpt lat="42.827646" lon="-0.244905">
        <ele>2680.831</ele>
        <time>2020-07-21T12:39:22Z</time>
      </trkpt>
      <trkpt lat="42.827663" lon="-0.244848">
        <ele>2682.069</ele>
        <time>2020-07-21T12:39:40Z</time>
      </trkpt>
      <trkpt lat="42.827672" lon="-0.244821">
        <ele>2684.053</ele>
        <time>2020-07-21T12:40:06Z</time>
      </trkpt>
      <trkpt lat="42.827695" lon="-0.244765">
        <ele>2685.258</ele>
        <time>2020-07-21T12:40:34Z</time>
      </trkpt>
      <trkpt lat="42.827713" lon="-0.244705">
        <ele>2686.555</ele>
        <time>2020-07-21T12:40:44Z</time>
      </trkpt>
      <trkpt lat="42.827635" lon="-0.244756">
        <ele>2688.154</ele>
        <time>2020-07-21T12:41:02Z</time>
      </trkpt>
      <trkpt lat="42.827640" lon="-0.244715">
        <ele>2690.278</ele>
        <time>2020-07-21T12:41:16Z</time>
      </trkpt>
      <trkpt lat="42.827670" lon="-0.244664">
        <ele>2692.377</ele>
        <time>2020-07-21T12:41:32Z</time>
      </trkpt>
      <trkpt lat="42.827707" lon="-0.244625">
        <ele>2694.462</ele>
        <time>2020-07-21T12:41:40Z</time>
      </trkpt>
      <trkpt lat="42.827748" lon="-0.244594">
        <ele>2696.783</ele>
        <time>2020-07-21T12:42:08Z</time>
      </trkpt>
      <trkpt lat="42.827692" lon="-0.244600">
        <ele>2698.011</ele>
        <time>2020-07-21T12:42:40Z</time>
      </trkpt>
      <trkpt lat="42.827639" lon="-0.244610">
        <ele>2700.308</ele>
        <time>2020-07-21T12:42:46Z</time>
      </trkpt>
      <trkpt lat="42.827597" lon="-0.244634">
        <ele>2702.961</ele>
        <time>2020-07-21T12:43:00Z</time>
      </trkpt>
      <trkpt lat="42.827563" lon="-0.244633">
        <ele>2704.819</ele>
        <time>2020-07-21T12:45:27Z</time>
      </trkpt>
      <trkpt lat="42.827529" lon="-0.244669">
        <ele>2702.753</ele>
        <time>2020-07-21T13:06:36Z</time>
      </trkpt>
      <trkpt lat="42.827489" lon="-0.244659">
        <ele>2700.238</ele>
        <time>2020-07-21T13:07:28Z</time>
      </trkpt>
      <trkpt lat="42.827455" lon="-0.244618">
        <ele>2698.625</ele>
        <time>2020-07-21T13:07:31Z</time>
      </trkpt>
      <trkpt lat="42.827423" lon="-0.244570">
        <ele>2696.424</ele>
        <time>2020-07-21T13:07:47Z</time>
      </trkpt>
      <trkpt lat="42.827388" lon="-0.244528">
        <ele>2694.798</ele>
        <time>2020-07-21T13:07:57Z</time>
      </trkpt>
      <trkpt lat="42.827337" lon="-0.244526">
        <ele>2692.417</ele>
        <time>2020-07-21T13:08:11Z</time>
      </trkpt>
      <trkpt lat="42.827300" lon="-0.244520">
        <ele>2690.149</ele>
        <time>2020-07-21T13:08:17Z</time>
      </trkpt>
      <trkpt lat="42.827256" lon="-0.244543">
        <ele>2688.002</ele>
        <time>2020-07-21T13:08:37Z</time>
      </trkpt>
      <trkpt lat="42.827210" lon="-0.244545">
        <ele>2686.622</ele>
        <time>2020-07-21T13:08:45Z</time>
      </trkpt>
      <trkpt lat="42.827161" lon="-0.244504">
        <ele>2685.208</ele>
        <time>2020-07-21T13:08:55Z</time>
      </trkpt>
      <trkpt lat="42.827104" lon="-0.244482">
        <ele>2684.239</ele>
        <time>2020-07-21T13:09:01Z</time>
      </trkpt>
      <trkpt lat="42.827059" lon="-0.244501">
        <ele>2682.027</ele>
        <time>2020-07-21T13:09:11Z</time>
      </trkpt>
      <trkpt lat="42.827009" lon="-0.244481">
        <ele>2680.491</ele>
        <time>2020-07-21T13:09:27Z</time>
      </trkpt>
      <trkpt lat="42.826959" lon="-0.244474">
        <ele>2678.066</ele>
        <time>2020-07-21T13:09:41Z</time>
      </trkpt>
      <trkpt lat="42.826914" lon="-0.244443">
        <ele>2676.943</ele>
        <time>2020-07-21T13:09:57Z</time>
      </trkpt>
      <trkpt lat="42.826874" lon="-0.244412">
        <ele>2674.822</ele>
        <time>2020-07-21T13:10:07Z</time>
      </trkpt>
      <trkpt lat="42.826831" lon="-0.244385">
        <ele>2672.716</ele>
        <time>2020-07-21T13:10:17Z</time>
      </trkpt>
      <trkpt lat="42.826791" lon="-0.244355">
        <ele>2670.195</ele>
        <time>2020-07-21T13:10:25Z</time>
      </trkpt>
      <trkpt lat="42.826746" lon="-0.244335">
        <ele>2668.248</ele>
        <time>2020-07-21T13:10:41Z</time>
      </trkpt>
      <trkpt lat="42.826718" lon="-0.244266">
        <ele>2667.961</ele>
        <time>2020-07-21T13:10:53Z</time>
      </trkpt>
      <trkpt lat="42.826719" lon="-0.244203">
        <ele>2666.717</ele>
        <time>2020-07-21T13:11:17Z</time>
      </trkpt>
      <trkpt lat="42.826721" lon="-0.244140">
        <ele>2664.708</ele>
        <time>2020-07-21T13:11:23Z</time>
      </trkpt>
      <trkpt lat="42.826716" lon="-0.244075">
        <ele>2663.519</ele>
        <time>2020-07-21T13:11:39Z</time>
      </trkpt>
      <trkpt lat="42.826737" lon="-0.244017">
        <ele>2662.257</ele>
        <time>2020-07-21T13:11:55Z</time>
      </trkpt>
      <trkpt lat="42.826790" lon="-0.243976">
        <ele>2660.171</ele>
        <time>2020-07-21T13:12:07Z</time>
      </trkpt>
      <trkpt lat="42.826826" lon="-0.243942">
        <ele>2658.366</ele>
        <time>2020-07-21T13:12:18Z</time>
      </trkpt>
      <trkpt lat="42.826885" lon="-0.243922">
        <ele>2656.523</ele>
        <time>2020-07-21T13:12:44Z</time>
      </trkpt>
      <trkpt lat="42.826936" lon="-0.243913">
        <ele>2654.692</ele>
        <time>2020-07-21T13:12:58Z</time>
      </trkpt>
      <trkpt lat="42.826990" lon="-0.243872">
        <ele>2652.616</ele>
        <time>2020-07-21T13:13:08Z</time>
      </trkpt>
      <trkpt lat="42.827046" lon="-0.243846">
        <ele>2650.315</ele>
        <time>2020-07-21T13:13:16Z</time>
      </trkpt>
      <trkpt lat="42.827072" lon="-0.243779">
        <ele>2648.052</ele>
        <time>2020-07-21T13:18:21Z</time>
      </trkpt>
      <trkpt lat="42.827092" lon="-0.243729">
        <ele>2646.253</ele>
        <time>2020-07-21T13:18:47Z</time>
      </trkpt>
      <trkpt lat="42.827140" lon="-0.243724">
        <ele>2644.408</ele>
        <time>2020-07-21T13:18:59Z</time>
      </trkpt>
      <trkpt lat="42.827187" lon="-0.243768">
        <ele>2642.008</ele>
        <time>2020-07-21T13:19:07Z</time>
      </trkpt>
      <trkpt lat="42.827215" lon="-0.243787">
        <ele>2640.220</ele>
        <time>2020-07-21T13:19:21Z</time>
      </trkpt>
      <trkpt lat="42.827250" lon="-0.243773">
        <ele>2638.158</ele>
        <time>2020-07-21T13:19:41Z</time>
      </trkpt>
      <trkpt lat="42.827298" lon="-0.243787">
        <ele>2636.292</ele>
        <time>2020-07-21T13:20:25Z</time>
      </trkpt>
      <trkpt lat="42.827347" lon="-0.243792">
        <ele>2634.737</ele>
        <time>2020-07-21T13:20:49Z</time>
      </trkpt>
      <trkpt lat="42.827393" lon="-0.243814">
        <ele>2632.644</ele>
        <time>2020-07-21T13:20:57Z</time>
      </trkpt>
      <trkpt lat="42.827444" lon="-0.243820">
        <ele>2630.083</ele>
        <time>2020-07-21T13:21:17Z</time>
      </trkpt>
      <trkpt lat="42.827496" lon="-0.243811">
        <ele>2628.637</ele>
        <time>2020-07-21T13:21:29Z</time>
      </trkpt>
      <trkpt lat="42.827537" lon="-0.243784">
        <ele>2626.796</ele>
        <time>2020-07-21T13:21:39Z</time>
      </trkpt>
      <trkpt lat="42.827579" lon="-0.243753">
        <ele>2624.347</ele>
        <time>2020-07-21T13:21:49Z</time>
      </trkpt>
      <trkpt lat="42.827627" lon="-0.243753">
        <ele>2622.829</ele>
        <time>2020-07-21T13:22:01Z</time>
      </trkpt>
      <trkpt lat="42.827688" lon="-0.243763">
        <ele>2620.121</ele>
        <time>2020-07-21T13:22:13Z</time>
      </trkpt>
      <trkpt lat="42.827730" lon="-0.243784">
        <ele>2618.608</ele>
        <time>2020-07-21T13:22:47Z</time>
      </trkpt>
      <trkpt lat="42.827775" lon="-0.243769">
        <ele>2616.449</ele>
        <time>2020-07-21T13:23:01Z</time>
      </trkpt>
      <trkpt lat="42.827825" lon="-0.243743">
        <ele>2614.827</ele>
        <time>2020-07-21T13:23:21Z</time>
      </trkpt>
      <trkpt lat="42.827883" lon="-0.243768">
        <ele>2612.761</ele>
        <time>2020-07-21T13:23:27Z</time>
      </trkpt>
      <trkpt lat="42.827933" lon="-0.243795">
        <ele>2610.386</ele>
        <time>2020-07-21T13:23:45Z</time>
      </trkpt>
      <trkpt lat="42.827986" lon="-0.243805">
        <ele>2608.673</ele>
        <time>2020-07-21T13:23:51Z</time>
      </trkpt>
      <trkpt lat="42.828032" lon="-0.243817">
        <ele>2606.432</ele>
        <time>2020-07-21T13:24:01Z</time>
      </trkpt>
      <trkpt lat="42.828082" lon="-0.243807">
        <ele>2604.456</ele>
        <time>2020-07-21T13:24:13Z</time>
      </trkpt>
      <trkpt lat="42.828130" lon="-0.243800">
        <ele>2602.785</ele>
        <time>2020-07-21T13:24:19Z</time>
      </trkpt>
      <trkpt lat="42.828177" lon="-0.243802">
        <ele>2600.374</ele>
        <time>2020-07-21T13:24:31Z</time>
      </trkpt>
      <trkpt lat="42.828232" lon="-0.243801">
        <ele>2598.056</ele>
        <time>2020-07-21T13:24:39Z</time>
      </trkpt>
      <trkpt lat="42.828280" lon="-0.243829">
        <ele>2596.421</ele>
        <time>2020-07-21T13:24:45Z</time>
      </trkpt>
      <trkpt lat="42.828329" lon="-0.243842">
        <ele>2594.008</ele>
        <time>2020-07-21T13:24:51Z</time>
      </trkpt>
      <trkpt lat="42.828379" lon="-0.243832">
        <ele>2592.322</ele>
        <time>2020-07-21T13:24:59Z</time>
      </trkpt>
      <trkpt lat="42.828432" lon="-0.243824">
        <ele>2591.330</ele>
        <time>2020-07-21T13:25:07Z</time>
      </trkpt>
      <trkpt lat="42.828477" lon="-0.243831">
        <ele>2590.644</ele>
        <time>2020-07-21T13:25:15Z</time>
      </trkpt>
      <trkpt lat="42.828524" lon="-0.243806">
        <ele>2588.469</ele>
        <time>2020-07-21T13:25:21Z</time>
      </trkpt>
      <trkpt lat="42.828573" lon="-0.243818">
        <ele>2590.266</ele>
        <time>2020-07-21T13:25:36Z</time>
      </trkpt>
      <trkpt lat="42.828619" lon="-0.243811">
        <ele>2589.585</ele>
        <time>2020-07-21T13:25:56Z</time>
      </trkpt>
      <trkpt lat="42.828669" lon="-0.243793">
        <ele>2588.729</ele>
        <time>2020-07-21T13:26:02Z</time>
      </trkpt>
      <trkpt lat="42.828725" lon="-0.243783">
        <ele>2587.688</ele>
        <time>2020-07-21T13:26:08Z</time>
      </trkpt>
      <trkpt lat="42.828784" lon="-0.243771">
        <ele>2588.339</ele>
        <time>2020-07-21T13:26:14Z</time>
      </trkpt>
      <trkpt lat="42.828842" lon="-0.243763">
        <ele>2588.001</ele>
        <time>2020-07-21T13:26:22Z</time>
      </trkpt>
      <trkpt lat="42.828888" lon="-0.243754">
        <ele>2587.421</ele>
        <time>2020-07-21T13:26:26Z</time>
      </trkpt>
      <trkpt lat="42.828930" lon="-0.243708">
        <ele>2588.108</ele>
        <time>2020-07-21T13:26:32Z</time>
      </trkpt>
      <trkpt lat="42.828985" lon="-0.243684">
        <ele>2587.348</ele>
        <time>2020-07-21T13:26:38Z</time>
      </trkpt>
      <trkpt lat="42.829046" lon="-0.243677">
        <ele>2586.216</ele>
        <time>2020-07-21T13:26:46Z</time>
      </trkpt>
      <trkpt lat="42.829101" lon="-0.243683">
        <ele>2585.170</ele>
        <time>2020-07-21T13:26:52Z</time>
      </trkpt>
      <trkpt lat="42.829154" lon="-0.243656">
        <ele>2587.115</ele>
        <time>2020-07-21T13:27:02Z</time>
      </trkpt>
      <trkpt lat="42.829208" lon="-0.243627">
        <ele>2585.692</ele>
        <time>2020-07-21T13:27:10Z</time>
      </trkpt>
      <trkpt lat="42.829253" lon="-0.243573">
        <ele>2586.481</ele>
        <time>2020-07-21T13:27:18Z</time>
      </trkpt>
      <trkpt lat="42.829276" lon="-0.243506">
        <ele>2586.465</ele>
        <time>2020-07-21T13:27:24Z</time>
      </trkpt>
      <trkpt lat="42.829311" lon="-0.243465">
        <ele>2586.594</ele>
        <time>2020-07-21T13:27:30Z</time>
      </trkpt>
      <trkpt lat="42.829340" lon="-0.243415">
        <ele>2585.149</ele>
        <time>2020-07-21T13:27:38Z</time>
      </trkpt>
      <trkpt lat="42.829385" lon="-0.243363">
        <ele>2583.202</ele>
        <time>2020-07-21T13:27:55Z</time>
      </trkpt>
      <trkpt lat="42.829396" lon="-0.243296">
        <ele>2581.622</ele>
        <time>2020-07-21T13:28:01Z</time>
      </trkpt>
      <trkpt lat="42.829400" lon="-0.243234">
        <ele>2582.708</ele>
        <time>2020-07-21T13:28:07Z</time>
      </trkpt>
      <trkpt lat="42.829419" lon="-0.243161">
        <ele>2580.469</ele>
        <time>2020-07-21T13:28:17Z</time>
      </trkpt>
      <trkpt lat="42.829414" lon="-0.243095">
        <ele>2579.377</ele>
        <time>2020-07-21T13:28:25Z</time>
      </trkpt>
      <trkpt lat="42.829403" lon="-0.243019">
        <ele>2578.761</ele>
        <time>2020-07-21T13:28:33Z</time>
      </trkpt>
      <trkpt lat="42.829401" lon="-0.242951">
        <ele>2577.796</ele>
        <time>2020-07-21T13:28:39Z</time>
      </trkpt>
      <trkpt lat="42.829395" lon="-0.242887">
        <ele>2576.583</ele>
        <time>2020-07-21T13:28:47Z</time>
      </trkpt>
      <trkpt lat="42.829390" lon="-0.242807">
        <ele>2577.362</ele>
        <time>2020-07-21T13:28:55Z</time>
      </trkpt>
      <trkpt lat="42.829384" lon="-0.242744">
        <ele>2576.256</ele>
        <time>2020-07-21T13:28:59Z</time>
      </trkpt>
      <trkpt lat="42.829367" lon="-0.242674">
        <ele>2576.895</ele>
        <time>2020-07-21T13:29:09Z</time>
      </trkpt>
      <trkpt lat="42.829359" lon="-0.242593">
        <ele>2575.432</ele>
        <time>2020-07-21T13:29:15Z</time>
      </trkpt>
      <trkpt lat="42.829366" lon="-0.242530">
        <ele>2575.192</ele>
        <time>2020-07-21T13:29:19Z</time>
      </trkpt>
      <trkpt lat="42.829380" lon="-0.242454">
        <ele>2574.511</ele>
        <time>2020-07-21T13:29:25Z</time>
      </trkpt>
      <trkpt lat="42.829375" lon="-0.242369">
        <ele>2574.508</ele>
        <time>2020-07-21T13:29:33Z</time>
      </trkpt>
      <trkpt lat="42.829381" lon="-0.242303">
        <ele>2573.898</ele>
        <time>2020-07-21T13:29:39Z</time>
      </trkpt>
      <trkpt lat="42.829387" lon="-0.242230">
        <ele>2571.886</ele>
        <time>2020-07-21T13:29:47Z</time>
      </trkpt>
      <trkpt lat="42.829380" lon="-0.242153">
        <ele>2571.950</ele>
        <time>2020-07-21T13:29:53Z</time>
      </trkpt>
      <trkpt lat="42.829366" lon="-0.242083">
        <ele>2571.925</ele>
        <time>2020-07-21T13:30:01Z</time>
      </trkpt>
      <trkpt lat="42.829342" lon="-0.242026">
        <ele>2571.992</ele>
        <time>2020-07-21T13:30:07Z</time>
      </trkpt>
      <trkpt lat="42.829327" lon="-0.241959">
        <ele>2569.781</ele>
        <time>2020-07-21T13:30:13Z</time>
      </trkpt>
      <trkpt lat="42.829321" lon="-0.241887">
        <ele>2570.575</ele>
        <time>2020-07-21T13:30:19Z</time>
      </trkpt>
      <trkpt lat="42.829338" lon="-0.241819">
        <ele>2569.924</ele>
        <time>2020-07-21T13:30:27Z</time>
      </trkpt>
      <trkpt lat="42.829372" lon="-0.241776">
        <ele>2568.295</ele>
        <time>2020-07-21T13:30:39Z</time>
      </trkpt>
      <trkpt lat="42.829422" lon="-0.241744">
        <ele>2567.649</ele>
        <time>2020-07-21T13:30:47Z</time>
      </trkpt>
      <trkpt lat="42.829463" lon="-0.241702">
        <ele>2565.823</ele>
        <time>2020-07-21T13:30:57Z</time>
      </trkpt>
      <trkpt lat="42.829497" lon="-0.241627">
        <ele>2565.308</ele>
        <time>2020-07-21T13:31:05Z</time>
      </trkpt>
      <trkpt lat="42.829521" lon="-0.241564">
        <ele>2565.094</ele>
        <time>2020-07-21T13:31:11Z</time>
      </trkpt>
      <trkpt lat="42.829544" lon="-0.241504">
        <ele>2564.052</ele>
        <time>2020-07-21T13:31:17Z</time>
      </trkpt>
      <trkpt lat="42.829553" lon="-0.241438">
        <ele>2562.396</ele>
        <time>2020-07-21T13:31:29Z</time>
      </trkpt>
      <trkpt lat="42.829570" lon="-0.241371">
        <ele>2562.471</ele>
        <time>2020-07-21T13:31:35Z</time>
      </trkpt>
      <trkpt lat="42.829595" lon="-0.241293">
        <ele>2561.528</ele>
        <time>2020-07-21T13:31:41Z</time>
      </trkpt>
      <trkpt lat="42.829604" lon="-0.241225">
        <ele>2560.197</ele>
        <time>2020-07-21T13:31:51Z</time>
      </trkpt>
      <trkpt lat="42.829629" lon="-0.241153">
        <ele>2558.931</ele>
        <time>2020-07-21T13:32:01Z</time>
      </trkpt>
      <trkpt lat="42.829654" lon="-0.241092">
        <ele>2558.590</ele>
        <time>2020-07-21T13:32:07Z</time>
      </trkpt>
      <trkpt lat="42.829656" lon="-0.241026">
        <ele>2557.571</ele>
        <time>2020-07-21T13:32:15Z</time>
      </trkpt>
      <trkpt lat="42.829665" lon="-0.240965">
        <ele>2556.141</ele>
        <time>2020-07-21T13:32:23Z</time>
      </trkpt>
      <trkpt lat="42.829698" lon="-0.240920">
        <ele>2556.115</ele>
        <time>2020-07-21T13:32:37Z</time>
      </trkpt>
      <trkpt lat="42.829727" lon="-0.240854">
        <ele>2555.308</ele>
        <time>2020-07-21T13:32:47Z</time>
      </trkpt>
      <trkpt lat="42.829734" lon="-0.240787">
        <ele>2554.512</ele>
        <time>2020-07-21T13:32:55Z</time>
      </trkpt>
      <trkpt lat="42.829727" lon="-0.240719">
        <ele>2553.540</ele>
        <time>2020-07-21T13:33:05Z</time>
      </trkpt>
      <trkpt lat="42.829752" lon="-0.240659">
        <ele>2552.774</ele>
        <time>2020-07-21T13:33:17Z</time>
      </trkpt>
      <trkpt lat="42.829781" lon="-0.240595">
        <ele>2551.959</ele>
        <time>2020-07-21T13:33:27Z</time>
      </trkpt>
      <trkpt lat="42.829786" lon="-0.240541">
        <ele>2551.636</ele>
        <time>2020-07-21T13:33:33Z</time>
      </trkpt>
      <trkpt lat="42.829775" lon="-0.240472">
        <ele>2550.595</ele>
        <time>2020-07-21T13:33:43Z</time>
      </trkpt>
      <trkpt lat="42.829790" lon="-0.240409">
        <ele>2549.919</ele>
        <time>2020-07-21T13:33:55Z</time>
      </trkpt>
      <trkpt lat="42.829814" lon="-0.240353">
        <ele>2548.698</ele>
        <time>2020-07-21T13:34:09Z</time>
      </trkpt>
      <trkpt lat="42.829811" lon="-0.240289">
        <ele>2546.832</ele>
        <time>2020-07-21T13:34:21Z</time>
      </trkpt>
      <trkpt lat="42.829798" lon="-0.240210">
        <ele>2547.592</ele>
        <time>2020-07-21T13:34:29Z</time>
      </trkpt>
      <trkpt lat="42.829812" lon="-0.240140">
        <ele>2546.111</ele>
        <time>2020-07-21T13:34:37Z</time>
      </trkpt>
      <trkpt lat="42.829797" lon="-0.240078">
        <ele>2545.208</ele>
        <time>2020-07-21T13:34:43Z</time>
      </trkpt>
      <trkpt lat="42.829799" lon="-0.240003">
        <ele>2544.338</ele>
        <time>2020-07-21T13:34:49Z</time>
      </trkpt>
      <trkpt lat="42.829788" lon="-0.239937">
        <ele>2541.816</ele>
        <time>2020-07-21T13:35:13Z</time>
      </trkpt>
      <trkpt lat="42.829760" lon="-0.239864">
        <ele>2540.740</ele>
        <time>2020-07-21T13:35:19Z</time>
      </trkpt>
      <trkpt lat="42.829742" lon="-0.239808">
        <ele>2540.425</ele>
        <time>2020-07-21T13:35:25Z</time>
      </trkpt>
      <trkpt lat="42.829741" lon="-0.239744">
        <ele>2538.962</ele>
        <time>2020-07-21T13:35:33Z</time>
      </trkpt>
      <trkpt lat="42.829732" lon="-0.239676">
        <ele>2537.441</ele>
        <time>2020-07-21T13:35:39Z</time>
      </trkpt>
      <trkpt lat="42.829749" lon="-0.239607">
        <ele>2539.125</ele>
        <time>2020-07-21T13:35:45Z</time>
      </trkpt>
      <trkpt lat="42.829760" lon="-0.239536">
        <ele>2538.414</ele>
        <time>2020-07-21T13:35:51Z</time>
      </trkpt>
      <trkpt lat="42.829742" lon="-0.239470">
        <ele>2539.558</ele>
        <time>2020-07-21T13:35:57Z</time>
      </trkpt>
      <trkpt lat="42.829740" lon="-0.239391">
        <ele>2538.652</ele>
        <time>2020-07-21T13:36:40Z</time>
      </trkpt>
      <trkpt lat="42.829713" lon="-0.239339">
        <ele>2538.617</ele>
        <time>2020-07-21T13:36:48Z</time>
      </trkpt>
      <trkpt lat="42.829649" lon="-0.239314">
        <ele>2537.508</ele>
        <time>2020-07-21T13:36:56Z</time>
      </trkpt>
      <trkpt lat="42.829592" lon="-0.239322">
        <ele>2539.460</ele>
        <time>2020-07-21T13:37:02Z</time>
      </trkpt>
      <trkpt lat="42.829554" lon="-0.239285">
        <ele>2540.378</ele>
        <time>2020-07-21T13:37:28Z</time>
      </trkpt>
      <trkpt lat="42.829523" lon="-0.239257">
        <ele>2540.342</ele>
        <time>2020-07-21T13:38:26Z</time>
      </trkpt>
      <trkpt lat="42.829511" lon="-0.239187">
        <ele>2540.837</ele>
        <time>2020-07-21T13:39:08Z</time>
      </trkpt>
      <trkpt lat="42.829518" lon="-0.239120">
        <ele>2540.624</ele>
        <time>2020-07-21T13:39:12Z</time>
      </trkpt>
      <trkpt lat="42.829530" lon="-0.239033">
        <ele>2541.053</ele>
        <time>2020-07-21T13:39:16Z</time>
      </trkpt>
      <trkpt lat="42.829545" lon="-0.238957">
        <ele>2541.087</ele>
        <time>2020-07-21T13:39:20Z</time>
      </trkpt>
      <trkpt lat="42.829547" lon="-0.238895">
        <ele>2540.146</ele>
        <time>2020-07-21T13:39:24Z</time>
      </trkpt>
      <trkpt lat="42.829538" lon="-0.238834">
        <ele>2541.974</ele>
        <time>2020-07-21T13:39:30Z</time>
      </trkpt>
      <trkpt lat="42.829555" lon="-0.238764">
        <ele>2541.356</ele>
        <time>2020-07-21T13:39:38Z</time>
      </trkpt>
      <trkpt lat="42.829573" lon="-0.238705">
        <ele>2539.721</ele>
        <time>2020-07-21T13:39:44Z</time>
      </trkpt>
      <trkpt lat="42.829617" lon="-0.238666">
        <ele>2541.708</ele>
        <time>2020-07-21T13:39:50Z</time>
      </trkpt>
      <trkpt lat="42.829650" lon="-0.238619">
        <ele>2538.732</ele>
        <time>2020-07-21T13:40:10Z</time>
      </trkpt>
      <trkpt lat="42.829674" lon="-0.238561">
        <ele>2537.410</ele>
        <time>2020-07-21T13:40:18Z</time>
      </trkpt>
      <trkpt lat="42.829702" lon="-0.238513">
        <ele>2536.984</ele>
        <time>2020-07-21T13:40:24Z</time>
      </trkpt>
      <trkpt lat="42.829716" lon="-0.238439">
        <ele>2536.039</ele>
        <time>2020-07-21T13:40:34Z</time>
      </trkpt>
      <trkpt lat="42.829712" lon="-0.238358">
        <ele>2535.356</ele>
        <time>2020-07-21T13:40:42Z</time>
      </trkpt>
      <trkpt lat="42.829713" lon="-0.238293">
        <ele>2533.825</ele>
        <time>2020-07-21T13:40:46Z</time>
      </trkpt>
      <trkpt lat="42.829730" lon="-0.238228">
        <ele>2532.839</ele>
        <time>2020-07-21T13:40:58Z</time>
      </trkpt>
      <trkpt lat="42.829753" lon="-0.238160">
        <ele>2531.388</ele>
        <time>2020-07-21T13:41:08Z</time>
      </trkpt>
      <trkpt lat="42.829786" lon="-0.238107">
        <ele>2530.687</ele>
        <time>2020-07-21T13:41:14Z</time>
      </trkpt>
      <trkpt lat="42.829815" lon="-0.238048">
        <ele>2529.842</ele>
        <time>2020-07-21T13:41:20Z</time>
      </trkpt>
      <trkpt lat="42.829848" lon="-0.237982">
        <ele>2528.426</ele>
        <time>2020-07-21T13:41:30Z</time>
      </trkpt>
      <trkpt lat="42.829873" lon="-0.237928">
        <ele>2525.608</ele>
        <time>2020-07-21T13:41:46Z</time>
      </trkpt>
      <trkpt lat="42.829891" lon="-0.237865">
        <ele>2524.663</ele>
        <time>2020-07-21T13:41:52Z</time>
      </trkpt>
      <trkpt lat="42.829918" lon="-0.237808">
        <ele>2524.241</ele>
        <time>2020-07-21T13:41:56Z</time>
      </trkpt>
      <trkpt lat="42.829954" lon="-0.237736">
        <ele>2524.225</ele>
        <time>2020-07-21T13:42:02Z</time>
      </trkpt>
      <trkpt lat="42.829963" lon="-0.237675">
        <ele>2524.360</ele>
        <time>2020-07-21T13:42:06Z</time>
      </trkpt>
      <trkpt lat="42.829982" lon="-0.237611">
        <ele>2524.597</ele>
        <time>2020-07-21T13:42:14Z</time>
      </trkpt>
      <trkpt lat="42.829997" lon="-0.237546">
        <ele>2522.946</ele>
        <time>2020-07-21T13:42:22Z</time>
      </trkpt>
      <trkpt lat="42.830016" lon="-0.237470">
        <ele>2521.470</ele>
        <time>2020-07-21T13:42:30Z</time>
      </trkpt>
      <trkpt lat="42.830034" lon="-0.237400">
        <ele>2520.819</ele>
        <time>2020-07-21T13:42:36Z</time>
      </trkpt>
      <trkpt lat="42.830052" lon="-0.237338">
        <ele>2520.556</ele>
        <time>2020-07-21T13:42:44Z</time>
      </trkpt>
      <trkpt lat="42.830086" lon="-0.237316">
        <ele>2519.459</ele>
        <time>2020-07-21T13:42:50Z</time>
      </trkpt>
      <trkpt lat="42.830105" lon="-0.237253">
        <ele>2519.014</ele>
        <time>2020-07-21T13:43:22Z</time>
      </trkpt>
      <trkpt lat="42.830105" lon="-0.237183">
        <ele>2516.808</ele>
        <time>2020-07-21T13:43:32Z</time>
      </trkpt>
      <trkpt lat="42.830076" lon="-0.237131">
        <ele>2516.390</ele>
        <time>2020-07-21T13:43:44Z</time>
      </trkpt>
      <trkpt lat="42.830075" lon="-0.237076">
        <ele>2513.918</ele>
        <time>2020-07-21T13:43:54Z</time>
      </trkpt>
      <trkpt lat="42.830118" lon="-0.237063">
        <ele>2512.132</ele>
        <time>2020-07-21T13:44:04Z</time>
      </trkpt>
      <trkpt lat="42.830153" lon="-0.237017">
        <ele>2510.657</ele>
        <time>2020-07-21T13:44:18Z</time>
      </trkpt>
      <trkpt lat="42.830187" lon="-0.236970">
        <ele>2506.684</ele>
        <time>2020-07-21T13:44:40Z</time>
      </trkpt>
      <trkpt lat="42.830217" lon="-0.236916">
        <ele>2506.463</ele>
        <time>2020-07-21T13:44:46Z</time>
      </trkpt>
      <trkpt lat="42.830211" lon="-0.236848">
        <ele>2506.267</ele>
        <time>2020-07-21T13:44:56Z</time>
      </trkpt>
      <trkpt lat="42.830171" lon="-0.236804">
        <ele>2505.436</ele>
        <time>2020-07-21T13:45:02Z</time>
      </trkpt>
      <trkpt lat="42.830141" lon="-0.236753">
        <ele>2504.339</ele>
        <time>2020-07-21T13:45:12Z</time>
      </trkpt>
      <trkpt lat="42.830105" lon="-0.236706">
        <ele>2502.901</ele>
        <time>2020-07-21T13:45:18Z</time>
      </trkpt>
      <trkpt lat="42.830073" lon="-0.236668">
        <ele>2503.221</ele>
        <time>2020-07-21T13:45:24Z</time>
      </trkpt>
      <trkpt lat="42.830110" lon="-0.236636">
        <ele>2500.308</ele>
        <time>2020-07-21T13:46:42Z</time>
      </trkpt>
      <trkpt lat="42.830162" lon="-0.236616">
        <ele>2499.218</ele>
        <time>2020-07-21T13:46:54Z</time>
      </trkpt>
      <trkpt lat="42.830209" lon="-0.236571">
        <ele>2497.796</ele>
        <time>2020-07-21T13:47:02Z</time>
      </trkpt>
      <trkpt lat="42.830251" lon="-0.236550">
        <ele>2496.140</ele>
        <time>2020-07-21T13:47:12Z</time>
      </trkpt>
      <trkpt lat="42.830307" lon="-0.236545">
        <ele>2494.785</ele>
        <time>2020-07-21T13:47:40Z</time>
      </trkpt>
      <trkpt lat="42.830353" lon="-0.236568">
        <ele>2493.252</ele>
        <time>2020-07-21T13:47:48Z</time>
      </trkpt>
      <trkpt lat="42.830407" lon="-0.236588">
        <ele>2494.791</ele>
        <time>2020-07-21T13:48:05Z</time>
      </trkpt>
      <trkpt lat="42.830403" lon="-0.236511">
        <ele>2490.855</ele>
        <time>2020-07-21T13:48:23Z</time>
      </trkpt>
      <trkpt lat="42.830387" lon="-0.236459">
        <ele>2490.134</ele>
        <time>2020-07-21T13:48:41Z</time>
      </trkpt>
      <trkpt lat="42.830349" lon="-0.236419">
        <ele>2490.097</ele>
        <time>2020-07-21T13:48:47Z</time>
      </trkpt>
      <trkpt lat="42.830308" lon="-0.236364">
        <ele>2491.223</ele>
        <time>2020-07-21T13:48:55Z</time>
      </trkpt>
      <trkpt lat="42.830268" lon="-0.236315">
        <ele>2486.425</ele>
        <time>2020-07-21T13:49:05Z</time>
      </trkpt>
      <trkpt lat="42.830218" lon="-0.236296">
        <ele>2490.408</ele>
        <time>2020-07-21T13:49:13Z</time>
      </trkpt>
      <trkpt lat="42.830170" lon="-0.236296">
        <ele>2489.794</ele>
        <time>2020-07-21T13:49:21Z</time>
      </trkpt>
      <trkpt lat="42.830132" lon="-0.236281">
        <ele>2487.152</ele>
        <time>2020-07-21T13:49:41Z</time>
      </trkpt>
      <trkpt lat="42.830102" lon="-0.236236">
        <ele>2484.756</ele>
        <time>2020-07-21T13:50:09Z</time>
      </trkpt>
      <trkpt lat="42.830058" lon="-0.236220">
        <ele>2482.591</ele>
        <time>2020-07-21T13:50:31Z</time>
      </trkpt>
      <trkpt lat="42.830031" lon="-0.236169">
        <ele>2481.878</ele>
        <time>2020-07-21T13:50:39Z</time>
      </trkpt>
      <trkpt lat="42.829988" lon="-0.236153">
        <ele>2477.977</ele>
        <time>2020-07-21T13:50:57Z</time>
      </trkpt>
      <trkpt lat="42.829931" lon="-0.236146">
        <ele>2477.331</ele>
        <time>2020-07-21T13:51:05Z</time>
      </trkpt>
      <trkpt lat="42.829880" lon="-0.236125">
        <ele>2475.940</ele>
        <time>2020-07-21T13:51:31Z</time>
      </trkpt>
      <trkpt lat="42.829842" lon="-0.236074">
        <ele>2475.857</ele>
        <time>2020-07-21T13:51:39Z</time>
      </trkpt>
      <trkpt lat="42.829860" lon="-0.236012">
        <ele>2476.200</ele>
        <time>2020-07-21T13:51:47Z</time>
      </trkpt>
      <trkpt lat="42.829857" lon="-0.235947">
        <ele>2474.020</ele>
        <time>2020-07-21T13:51:55Z</time>
      </trkpt>
      <trkpt lat="42.829839" lon="-0.235887">
        <ele>2472.608</ele>
        <time>2020-07-21T13:52:05Z</time>
      </trkpt>
      <trkpt lat="42.829826" lon="-0.235833">
        <ele>2471.430</ele>
        <time>2020-07-21T13:52:13Z</time>
      </trkpt>
      <trkpt lat="42.829833" lon="-0.235771">
        <ele>2469.298</ele>
        <time>2020-07-21T13:52:27Z</time>
      </trkpt>
      <trkpt lat="42.829862" lon="-0.235719">
        <ele>2467.012</ele>
        <time>2020-07-21T13:52:41Z</time>
      </trkpt>
      <trkpt lat="42.829892" lon="-0.235676">
        <ele>2466.157</ele>
        <time>2020-07-21T13:52:47Z</time>
      </trkpt>
      <trkpt lat="42.829903" lon="-0.235604">
        <ele>2464.014</ele>
        <time>2020-07-21T13:52:57Z</time>
      </trkpt>
      <trkpt lat="42.829905" lon="-0.235526">
        <ele>2462.633</ele>
        <time>2020-07-21T13:53:05Z</time>
      </trkpt>
      <trkpt lat="42.829914" lon="-0.235447">
        <ele>2462.547</ele>
        <time>2020-07-21T13:53:11Z</time>
      </trkpt>
      <trkpt lat="42.829920" lon="-0.235373">
        <ele>2461.516</ele>
        <time>2020-07-21T13:53:17Z</time>
      </trkpt>
      <trkpt lat="42.829947" lon="-0.235314">
        <ele>2460.558</ele>
        <time>2020-07-21T13:53:23Z</time>
      </trkpt>
      <trkpt lat="42.829978" lon="-0.235254">
        <ele>2458.952</ele>
        <time>2020-07-21T13:53:35Z</time>
      </trkpt>
      <trkpt lat="42.830005" lon="-0.235177">
        <ele>2458.217</ele>
        <time>2020-07-21T13:53:41Z</time>
      </trkpt>
      <trkpt lat="42.830017" lon="-0.235115">
        <ele>2458.408</ele>
        <time>2020-07-21T13:53:47Z</time>
      </trkpt>
      <trkpt lat="42.830018" lon="-0.235035">
        <ele>2457.640</ele>
        <time>2020-07-21T13:53:55Z</time>
      </trkpt>
      <trkpt lat="42.830017" lon="-0.234964">
        <ele>2457.578</ele>
        <time>2020-07-21T13:54:01Z</time>
      </trkpt>
      <trkpt lat="42.830024" lon="-0.234899">
        <ele>2456.822</ele>
        <time>2020-07-21T13:54:09Z</time>
      </trkpt>
      <trkpt lat="42.830052" lon="-0.234844">
        <ele>2455.747</ele>
        <time>2020-07-21T13:54:21Z</time>
      </trkpt>
      <trkpt lat="42.830062" lon="-0.234781">
        <ele>2453.764</ele>
        <time>2020-07-21T13:54:33Z</time>
      </trkpt>
      <trkpt lat="42.830075" lon="-0.234708">
        <ele>2452.443</ele>
        <time>2020-07-21T13:54:43Z</time>
      </trkpt>
      <trkpt lat="42.830083" lon="-0.234637">
        <ele>2451.497</ele>
        <time>2020-07-21T13:54:55Z</time>
      </trkpt>
      <trkpt lat="42.830079" lon="-0.234573">
        <ele>2449.886</ele>
        <time>2020-07-21T13:55:07Z</time>
      </trkpt>
      <trkpt lat="42.830087" lon="-0.234509">
        <ele>2448.927</ele>
        <time>2020-07-21T13:55:13Z</time>
      </trkpt>
      <trkpt lat="42.830064" lon="-0.234455">
        <ele>2448.468</ele>
        <time>2020-07-21T13:55:21Z</time>
      </trkpt>
      <trkpt lat="42.830039" lon="-0.234392">
        <ele>2446.314</ele>
        <time>2020-07-21T13:55:33Z</time>
      </trkpt>
      <trkpt lat="42.830011" lon="-0.234323">
        <ele>2445.908</ele>
        <time>2020-07-21T13:55:41Z</time>
      </trkpt>
      <trkpt lat="42.830004" lon="-0.234257">
        <ele>2445.137</ele>
        <time>2020-07-21T13:55:47Z</time>
      </trkpt>
      <trkpt lat="42.830062" lon="-0.234251">
        <ele>2443.695</ele>
        <time>2020-07-21T13:55:59Z</time>
      </trkpt>
      <trkpt lat="42.830110" lon="-0.234278">
        <ele>2444.029</ele>
        <time>2020-07-21T13:56:07Z</time>
      </trkpt>
      <trkpt lat="42.830162" lon="-0.234295">
        <ele>2442.054</ele>
        <time>2020-07-21T13:56:17Z</time>
      </trkpt>
      <trkpt lat="42.830219" lon="-0.234259">
        <ele>2440.771</ele>
        <time>2020-07-21T13:56:25Z</time>
      </trkpt>
      <trkpt lat="42.830252" lon="-0.234223">
        <ele>2440.050</ele>
        <time>2020-07-21T13:56:31Z</time>
      </trkpt>
      <trkpt lat="42.830294" lon="-0.234203">
        <ele>2439.284</ele>
        <time>2020-07-21T13:56:41Z</time>
      </trkpt>
      <trkpt lat="42.830340" lon="-0.234180">
        <ele>2438.023</ele>
        <time>2020-07-21T13:56:49Z</time>
      </trkpt>
      <trkpt lat="42.830295" lon="-0.234154">
        <ele>2435.383</ele>
        <time>2020-07-21T13:57:11Z</time>
      </trkpt>
      <trkpt lat="42.830250" lon="-0.234123">
        <ele>2434.225</ele>
        <time>2020-07-21T13:57:17Z</time>
      </trkpt>
      <trkpt lat="42.830208" lon="-0.234099">
        <ele>2433.017</ele>
        <time>2020-07-21T13:57:23Z</time>
      </trkpt>
      <trkpt lat="42.830178" lon="-0.234045">
        <ele>2430.508</ele>
        <time>2020-07-21T13:58:01Z</time>
      </trkpt>
      <trkpt lat="42.830202" lon="-0.233968">
        <ele>2429.543</ele>
        <time>2020-07-21T13:58:09Z</time>
      </trkpt>
      <trkpt lat="42.830234" lon="-0.233924">
        <ele>2428.041</ele>
        <time>2020-07-21T13:58:17Z</time>
      </trkpt>
      <trkpt lat="42.830290" lon="-0.233922">
        <ele>2422.175</ele>
        <time>2020-07-21T13:58:25Z</time>
      </trkpt>
      <trkpt lat="42.830336" lon="-0.233930">
        <ele>2426.910</ele>
        <time>2020-07-21T13:58:33Z</time>
      </trkpt>
      <trkpt lat="42.830356" lon="-0.233865">
        <ele>2423.897</ele>
        <time>2020-07-21T13:58:51Z</time>
      </trkpt>
      <trkpt lat="42.830394" lon="-0.233825">
        <ele>2422.446</ele>
        <time>2020-07-21T13:58:59Z</time>
      </trkpt>
      <trkpt lat="42.830424" lon="-0.233771">
        <ele>2420.770</ele>
        <time>2020-07-21T13:59:07Z</time>
      </trkpt>
      <trkpt lat="42.830466" lon="-0.233750">
        <ele>2419.479</ele>
        <time>2020-07-21T13:59:49Z</time>
      </trkpt>
      <trkpt lat="42.830471" lon="-0.233692">
        <ele>2418.271</ele>
        <time>2020-07-21T13:59:57Z</time>
      </trkpt>
      <trkpt lat="42.830511" lon="-0.233640">
        <ele>2416.641</ele>
        <time>2020-07-21T14:00:07Z</time>
      </trkpt>
      <trkpt lat="42.830551" lon="-0.233595">
        <ele>2415.915</ele>
        <time>2020-07-21T14:00:13Z</time>
      </trkpt>
      <trkpt lat="42.830593" lon="-0.233535">
        <ele>2414.208</ele>
        <time>2020-07-21T14:00:21Z</time>
      </trkpt>
      <trkpt lat="42.830621" lon="-0.233474">
        <ele>2414.092</ele>
        <time>2020-07-21T14:00:27Z</time>
      </trkpt>
      <trkpt lat="42.830667" lon="-0.233436">
        <ele>2412.330</ele>
        <time>2020-07-21T14:00:37Z</time>
      </trkpt>
      <trkpt lat="42.830702" lon="-0.233391">
        <ele>2411.284</ele>
        <time>2020-07-21T14:00:45Z</time>
      </trkpt>
      <trkpt lat="42.830724" lon="-0.233328">
        <ele>2410.149</ele>
        <time>2020-07-21T14:00:53Z</time>
      </trkpt>
      <trkpt lat="42.830722" lon="-0.233246">
        <ele>2409.386</ele>
        <time>2020-07-21T14:00:59Z</time>
      </trkpt>
      <trkpt lat="42.830728" lon="-0.233170">
        <ele>2408.285</ele>
        <time>2020-07-21T14:01:05Z</time>
      </trkpt>
      <trkpt lat="42.830725" lon="-0.233096">
        <ele>2407.679</ele>
        <time>2020-07-21T14:01:11Z</time>
      </trkpt>
      <trkpt lat="42.830742" lon="-0.233018">
        <ele>2406.978</ele>
        <time>2020-07-21T14:01:17Z</time>
      </trkpt>
      <trkpt lat="42.830740" lon="-0.232952">
        <ele>2407.186</ele>
        <time>2020-07-21T14:01:37Z</time>
      </trkpt>
      <trkpt lat="42.830768" lon="-0.232894">
        <ele>2406.560</ele>
        <time>2020-07-21T14:01:47Z</time>
      </trkpt>
      <trkpt lat="42.830797" lon="-0.232832">
        <ele>2405.126</ele>
        <time>2020-07-21T14:06:23Z</time>
      </trkpt>
      <trkpt lat="42.830815" lon="-0.232772">
        <ele>2404.108</ele>
        <time>2020-07-21T14:07:43Z</time>
      </trkpt>
      <trkpt lat="42.830827" lon="-0.232699">
        <ele>2402.373</ele>
        <time>2020-07-21T14:07:55Z</time>
      </trkpt>
      <trkpt lat="42.830839" lon="-0.232619">
        <ele>2401.391</ele>
        <time>2020-07-21T14:08:01Z</time>
      </trkpt>
      <trkpt lat="42.830839" lon="-0.232557">
        <ele>2400.555</ele>
        <time>2020-07-21T14:08:05Z</time>
      </trkpt>
      <trkpt lat="42.830830" lon="-0.232473">
        <ele>2400.750</ele>
        <time>2020-07-21T14:08:12Z</time>
      </trkpt>
      <trkpt lat="42.830804" lon="-0.232402">
        <ele>2400.127</ele>
        <time>2020-07-21T14:08:18Z</time>
      </trkpt>
      <trkpt lat="42.830758" lon="-0.232369">
        <ele>2398.626</ele>
        <time>2020-07-21T14:08:32Z</time>
      </trkpt>
      <trkpt lat="42.830713" lon="-0.232339">
        <ele>2396.890</ele>
        <time>2020-07-21T14:08:40Z</time>
      </trkpt>
      <trkpt lat="42.830669" lon="-0.232321">
        <ele>2395.349</ele>
        <time>2020-07-21T14:08:50Z</time>
      </trkpt>
      <trkpt lat="42.830637" lon="-0.232272">
        <ele>2395.445</ele>
        <time>2020-07-21T14:08:56Z</time>
      </trkpt>
      <trkpt lat="42.830629" lon="-0.232205">
        <ele>2395.647</ele>
        <time>2020-07-21T14:09:02Z</time>
      </trkpt>
      <trkpt lat="42.830599" lon="-0.232135">
        <ele>2394.611</ele>
        <time>2020-07-21T14:09:10Z</time>
      </trkpt>
      <trkpt lat="42.830568" lon="-0.232079">
        <ele>2393.408</ele>
        <time>2020-07-21T14:09:16Z</time>
      </trkpt>
      <trkpt lat="42.830554" lon="-0.232008">
        <ele>2392.739</ele>
        <time>2020-07-21T14:09:22Z</time>
      </trkpt>
      <trkpt lat="42.830572" lon="-0.231943">
        <ele>2392.627</ele>
        <time>2020-07-21T14:09:28Z</time>
      </trkpt>
      <trkpt lat="42.830610" lon="-0.231886">
        <ele>2392.471</ele>
        <time>2020-07-21T14:09:34Z</time>
      </trkpt>
      <trkpt lat="42.830646" lon="-0.231843">
        <ele>2392.156</ele>
        <time>2020-07-21T14:09:40Z</time>
      </trkpt>
      <trkpt lat="42.830689" lon="-0.231794">
        <ele>2391.643</ele>
        <time>2020-07-21T14:09:50Z</time>
      </trkpt>
      <trkpt lat="42.830707" lon="-0.231744">
        <ele>2392.252</ele>
        <time>2020-07-21T14:10:00Z</time>
      </trkpt>
      <trkpt lat="42.830700" lon="-0.231682">
        <ele>2391.586</ele>
        <time>2020-07-21T14:10:06Z</time>
      </trkpt>
      <trkpt lat="42.830686" lon="-0.231605">
        <ele>2391.575</ele>
        <time>2020-07-21T14:10:12Z</time>
      </trkpt>
      <trkpt lat="42.830701" lon="-0.231529">
        <ele>2390.119</ele>
        <time>2020-07-21T14:10:20Z</time>
      </trkpt>
      <trkpt lat="42.830706" lon="-0.231460">
        <ele>2389.509</ele>
        <time>2020-07-21T14:10:26Z</time>
      </trkpt>
      <trkpt lat="42.830680" lon="-0.231388">
        <ele>2388.719</ele>
        <time>2020-07-21T14:10:34Z</time>
      </trkpt>
      <trkpt lat="42.830670" lon="-0.231324">
        <ele>2389.608</ele>
        <time>2020-07-21T14:10:38Z</time>
      </trkpt>
      <trkpt lat="42.830658" lon="-0.231237">
        <ele>2389.776</ele>
        <time>2020-07-21T14:10:44Z</time>
      </trkpt>
      <trkpt lat="42.830638" lon="-0.231172">
        <ele>2388.964</ele>
        <time>2020-07-21T14:10:50Z</time>
      </trkpt>
      <trkpt lat="42.830621" lon="-0.231103">
        <ele>2388.488</ele>
        <time>2020-07-21T14:10:58Z</time>
      </trkpt>
      <trkpt lat="42.830598" lon="-0.231022">
        <ele>2388.083</ele>
        <time>2020-07-21T14:11:06Z</time>
      </trkpt>
      <trkpt lat="42.830587" lon="-0.230960">
        <ele>2386.330</ele>
        <time>2020-07-21T14:11:14Z</time>
      </trkpt>
      <trkpt lat="42.830567" lon="-0.230889">
        <ele>2386.449</ele>
        <time>2020-07-21T14:11:26Z</time>
      </trkpt>
      <trkpt lat="42.830559" lon="-0.230818">
        <ele>2386.433</ele>
        <time>2020-07-21T14:11:32Z</time>
      </trkpt>
      <trkpt lat="42.830542" lon="-0.230729">
        <ele>2385.612</ele>
        <time>2020-07-21T14:11:38Z</time>
      </trkpt>
      <trkpt lat="42.830538" lon="-0.230659">
        <ele>2383.881</ele>
        <time>2020-07-21T14:11:44Z</time>
      </trkpt>
      <trkpt lat="42.830505" lon="-0.230587">
        <ele>2384.661</ele>
        <time>2020-07-21T14:11:54Z</time>
      </trkpt>
      <trkpt lat="42.830488" lon="-0.230525">
        <ele>2381.017</ele>
        <time>2020-07-21T14:11:58Z</time>
      </trkpt>
      <trkpt lat="42.830462" lon="-0.230469">
        <ele>2383.508</ele>
        <time>2020-07-21T14:12:04Z</time>
      </trkpt>
      <trkpt lat="42.830446" lon="-0.230405">
        <ele>2384.383</ele>
        <time>2020-07-21T14:12:10Z</time>
      </trkpt>
      <trkpt lat="42.830433" lon="-0.230344">
        <ele>2383.381</ele>
        <time>2020-07-21T14:12:16Z</time>
      </trkpt>
      <trkpt lat="42.830425" lon="-0.230270">
        <ele>2382.145</ele>
        <time>2020-07-21T14:12:22Z</time>
      </trkpt>
      <trkpt lat="42.830423" lon="-0.230197">
        <ele>2382.060</ele>
        <time>2020-07-21T14:12:28Z</time>
      </trkpt>
      <trkpt lat="42.830409" lon="-0.230138">
        <ele>2380.157</ele>
        <time>2020-07-21T14:12:38Z</time>
      </trkpt>
      <trkpt lat="42.830388" lon="-0.230079">
        <ele>2380.576</ele>
        <time>2020-07-21T14:12:44Z</time>
      </trkpt>
      <trkpt lat="42.830367" lon="-0.230012">
        <ele>2379.120</ele>
        <time>2020-07-21T14:12:50Z</time>
      </trkpt>
      <trkpt lat="42.830365" lon="-0.229933">
        <ele>2378.149</ele>
        <time>2020-07-21T14:13:00Z</time>
      </trkpt>
      <trkpt lat="42.830359" lon="-0.229871">
        <ele>2377.899</ele>
        <time>2020-07-21T14:13:06Z</time>
      </trkpt>
      <trkpt lat="42.830330" lon="-0.229813">
        <ele>2377.507</ele>
        <time>2020-07-21T14:13:14Z</time>
      </trkpt>
      <trkpt lat="42.830317" lon="-0.229730">
        <ele>2375.827</ele>
        <time>2020-07-21T14:13:22Z</time>
      </trkpt>
      <trkpt lat="42.830319" lon="-0.229650">
        <ele>2373.808</ele>
        <time>2020-07-21T14:13:34Z</time>
      </trkpt>
      <trkpt lat="42.830328" lon="-0.229587">
        <ele>2373.984</ele>
        <time>2020-07-21T14:13:40Z</time>
      </trkpt>
      <trkpt lat="42.830322" lon="-0.229524">
        <ele>2373.192</ele>
        <time>2020-07-21T14:13:50Z</time>
      </trkpt>
      <trkpt lat="42.830315" lon="-0.229444">
        <ele>2374.446</ele>
        <time>2020-07-21T14:13:56Z</time>
      </trkpt>
      <trkpt lat="42.830300" lon="-0.229385">
        <ele>2369.741</ele>
        <time>2020-07-21T14:14:02Z</time>
      </trkpt>
      <trkpt lat="42.830308" lon="-0.229319">
        <ele>2371.148</ele>
        <time>2020-07-21T14:14:10Z</time>
      </trkpt>
      <trkpt lat="42.830312" lon="-0.229241">
        <ele>2370.467</ele>
        <time>2020-07-21T14:14:18Z</time>
      </trkpt>
      <trkpt lat="42.830313" lon="-0.229178">
        <ele>2368.591</ele>
        <time>2020-07-21T14:14:24Z</time>
      </trkpt>
      <trkpt lat="42.830301" lon="-0.229109">
        <ele>2365.960</ele>
        <time>2020-07-21T14:14:30Z</time>
      </trkpt>
      <trkpt lat="42.830308" lon="-0.229032">
        <ele>2367.625</ele>
        <time>2020-07-21T14:14:38Z</time>
      </trkpt>
      <trkpt lat="42.830311" lon="-0.228970">
        <ele>2366.326</ele>
        <time>2020-07-21T14:14:46Z</time>
      </trkpt>
      <trkpt lat="42.830319" lon="-0.228903">
        <ele>2365.108</ele>
        <time>2020-07-21T14:14:54Z</time>
      </trkpt>
      <trkpt lat="42.830323" lon="-0.228823">
        <ele>2364.408</ele>
        <time>2020-07-21T14:15:00Z</time>
      </trkpt>
      <trkpt lat="42.830301" lon="-0.228757">
        <ele>2362.857</ele>
        <time>2020-07-21T14:15:08Z</time>
      </trkpt>
      <trkpt lat="42.830281" lon="-0.228684">
        <ele>2362.325</ele>
        <time>2020-07-21T14:15:14Z</time>
      </trkpt>
      <trkpt lat="42.830275" lon="-0.228618">
        <ele>2361.849</ele>
        <time>2020-07-21T14:15:20Z</time>
      </trkpt>
      <trkpt lat="42.830269" lon="-0.228545">
        <ele>2360.734</ele>
        <time>2020-07-21T14:15:28Z</time>
      </trkpt>
      <trkpt lat="42.830266" lon="-0.228481">
        <ele>2357.811</ele>
        <time>2020-07-21T14:15:42Z</time>
      </trkpt>
      <trkpt lat="42.830249" lon="-0.228416">
        <ele>2356.110</ele>
        <time>2020-07-21T14:15:52Z</time>
      </trkpt>
      <trkpt lat="42.830243" lon="-0.228351">
        <ele>2355.194</ele>
        <time>2020-07-21T14:16:02Z</time>
      </trkpt>
      <trkpt lat="42.830204" lon="-0.228321">
        <ele>2354.283</ele>
        <time>2020-07-21T14:16:08Z</time>
      </trkpt>
      <trkpt lat="42.830158" lon="-0.228332">
        <ele>2353.327</ele>
        <time>2020-07-21T14:16:12Z</time>
      </trkpt>
      <trkpt lat="42.830118" lon="-0.228289">
        <ele>2352.568</ele>
        <time>2020-07-21T14:16:26Z</time>
      </trkpt>
      <trkpt lat="42.830071" lon="-0.228276">
        <ele>2350.414</ele>
        <time>2020-07-21T14:16:36Z</time>
      </trkpt>
      <trkpt lat="42.830060" lon="-0.228207">
        <ele>2347.208</ele>
        <time>2020-07-21T14:17:00Z</time>
      </trkpt>
      <trkpt lat="42.830084" lon="-0.228142">
        <ele>2344.697</ele>
        <time>2020-07-21T14:17:18Z</time>
      </trkpt>
      <trkpt lat="42.830086" lon="-0.228060">
        <ele>2343.035</ele>
        <time>2020-07-21T14:17:26Z</time>
      </trkpt>
      <trkpt lat="42.830079" lon="-0.227990">
        <ele>2341.959</ele>
        <time>2020-07-21T14:17:34Z</time>
      </trkpt>
      <trkpt lat="42.830071" lon="-0.227924">
        <ele>2340.954</ele>
        <time>2020-07-21T14:17:46Z</time>
      </trkpt>
      <trkpt lat="42.830073" lon="-0.227857">
        <ele>2338.161</ele>
        <time>2020-07-21T14:19:14Z</time>
      </trkpt>
      <trkpt lat="42.830060" lon="-0.227790">
        <ele>2337.630</ele>
        <time>2020-07-21T14:19:22Z</time>
      </trkpt>
      <trkpt lat="42.830042" lon="-0.227715">
        <ele>2336.664</ele>
        <time>2020-07-21T14:19:30Z</time>
      </trkpt>
      <trkpt lat="42.830049" lon="-0.227654">
        <ele>2336.933</ele>
        <time>2020-07-21T14:19:36Z</time>
      </trkpt>
      <trkpt lat="42.830035" lon="-0.227590">
        <ele>2334.299</ele>
        <time>2020-07-21T14:19:52Z</time>
      </trkpt>
      <trkpt lat="42.830028" lon="-0.227521">
        <ele>2332.507</ele>
        <time>2020-07-21T14:20:12Z</time>
      </trkpt>
      <trkpt lat="42.830052" lon="-0.227439">
        <ele>2329.327</ele>
        <time>2020-07-21T14:20:27Z</time>
      </trkpt>
      <trkpt lat="42.830070" lon="-0.227371">
        <ele>2328.808</ele>
        <time>2020-07-21T14:20:33Z</time>
      </trkpt>
      <trkpt lat="42.830087" lon="-0.227312">
        <ele>2328.764</ele>
        <time>2020-07-21T14:20:41Z</time>
      </trkpt>
      <trkpt lat="42.830112" lon="-0.227242">
        <ele>2327.222</ele>
        <time>2020-07-21T14:20:51Z</time>
      </trkpt>
      <trkpt lat="42.830127" lon="-0.227179">
        <ele>2327.946</ele>
        <time>2020-07-21T14:20:59Z</time>
      </trkpt>
      <trkpt lat="42.830164" lon="-0.227140">
        <ele>2328.071</ele>
        <time>2020-07-21T14:21:05Z</time>
      </trkpt>
      <trkpt lat="42.830205" lon="-0.227110">
        <ele>2327.218</ele>
        <time>2020-07-21T14:21:11Z</time>
      </trkpt>
      <trkpt lat="42.830249" lon="-0.227081">
        <ele>2325.647</ele>
        <time>2020-07-21T14:21:17Z</time>
      </trkpt>
      <trkpt lat="42.830298" lon="-0.227071">
        <ele>2325.321</ele>
        <time>2020-07-21T14:21:25Z</time>
      </trkpt>
      <trkpt lat="42.830342" lon="-0.227041">
        <ele>2324.680</ele>
        <time>2020-07-21T14:21:33Z</time>
      </trkpt>
      <trkpt lat="42.830384" lon="-0.227019">
        <ele>2322.986</ele>
        <time>2020-07-21T14:21:41Z</time>
      </trkpt>
      <trkpt lat="42.830446" lon="-0.227009">
        <ele>2321.060</ele>
        <time>2020-07-21T14:21:55Z</time>
      </trkpt>
      <trkpt lat="42.830491" lon="-0.227005">
        <ele>2321.126</ele>
        <time>2020-07-21T14:22:01Z</time>
      </trkpt>
      <trkpt lat="42.830527" lon="-0.226963">
        <ele>2322.608</ele>
        <time>2020-07-21T14:22:06Z</time>
      </trkpt>
      <trkpt lat="42.830546" lon="-0.226902">
        <ele>2322.283</ele>
        <time>2020-07-21T14:22:42Z</time>
      </trkpt>
      <trkpt lat="42.830585" lon="-0.226845">
        <ele>2321.371</ele>
        <time>2020-07-21T14:22:46Z</time>
      </trkpt>
      <trkpt lat="42.830617" lon="-0.226780">
        <ele>2322.055</ele>
        <time>2020-07-21T14:22:50Z</time>
      </trkpt>
      <trkpt lat="42.830643" lon="-0.226706">
        <ele>2322.370</ele>
        <time>2020-07-21T14:22:56Z</time>
      </trkpt>
      <trkpt lat="42.830650" lon="-0.226642">
        <ele>2322.487</ele>
        <time>2020-07-21T14:23:08Z</time>
      </trkpt>
      <trkpt lat="42.830671" lon="-0.226579">
        <ele>2322.876</ele>
        <time>2020-07-21T14:26:30Z</time>
      </trkpt>
      <trkpt lat="42.830703" lon="-0.226546">
        <ele>2321.930</ele>
        <time>2020-07-21T14:26:42Z</time>
      </trkpt>
      <trkpt lat="42.830747" lon="-0.226521">
        <ele>2322.369</ele>
        <time>2020-07-21T14:26:50Z</time>
      </trkpt>
      <trkpt lat="42.830791" lon="-0.226490">
        <ele>2322.491</ele>
        <time>2020-07-21T14:26:56Z</time>
      </trkpt>
      <trkpt lat="42.830819" lon="-0.226423">
        <ele>2322.581</ele>
        <time>2020-07-21T14:27:04Z</time>
      </trkpt>
      <trkpt lat="42.830827" lon="-0.226344">
        <ele>2322.119</ele>
        <time>2020-07-21T14:27:10Z</time>
      </trkpt>
      <trkpt lat="42.830829" lon="-0.226267">
        <ele>2322.508</ele>
        <time>2020-07-21T14:27:16Z</time>
      </trkpt>
      <trkpt lat="42.830818" lon="-0.226204">
        <ele>2321.654</ele>
        <time>2020-07-21T14:27:20Z</time>
      </trkpt>
      <trkpt lat="42.830810" lon="-0.226115">
        <ele>2322.562</ele>
        <time>2020-07-21T14:27:26Z</time>
      </trkpt>
      <trkpt lat="42.830815" lon="-0.226037">
        <ele>2324.276</ele>
        <time>2020-07-21T14:27:32Z</time>
      </trkpt>
      <trkpt lat="42.830790" lon="-0.225949">
        <ele>2324.821</ele>
        <time>2020-07-21T14:27:38Z</time>
      </trkpt>
      <trkpt lat="42.830761" lon="-0.225874">
        <ele>2323.448</ele>
        <time>2020-07-21T14:27:44Z</time>
      </trkpt>
      <trkpt lat="42.830713" lon="-0.225820">
        <ele>2325.737</ele>
        <time>2020-07-21T14:27:50Z</time>
      </trkpt>
      <trkpt lat="42.830674" lon="-0.225780">
        <ele>2325.541</ele>
        <time>2020-07-21T14:27:58Z</time>
      </trkpt>
      <trkpt lat="42.830644" lon="-0.225733">
        <ele>2325.750</ele>
        <time>2020-07-21T14:28:04Z</time>
      </trkpt>
      <trkpt lat="42.830619" lon="-0.225676">
        <ele>2325.619</ele>
        <time>2020-07-21T14:28:08Z</time>
      </trkpt>
      <trkpt lat="42.830579" lon="-0.225605">
        <ele>2327.109</ele>
        <time>2020-07-21T14:28:14Z</time>
      </trkpt>
      <trkpt lat="42.830568" lon="-0.225533">
        <ele>2325.419</ele>
        <time>2020-07-21T14:28:20Z</time>
      </trkpt>
      <trkpt lat="42.830567" lon="-0.225466">
        <ele>2327.208</ele>
        <time>2020-07-21T14:28:26Z</time>
      </trkpt>
      <trkpt lat="42.830546" lon="-0.225407">
        <ele>2327.436</ele>
        <time>2020-07-21T14:28:31Z</time>
      </trkpt>
      <trkpt lat="42.830516" lon="-0.225341">
        <ele>2328.264</ele>
        <time>2020-07-21T14:28:37Z</time>
      </trkpt>
      <trkpt lat="42.830492" lon="-0.225287">
        <ele>2328.388</ele>
        <time>2020-07-21T14:28:41Z</time>
      </trkpt>
      <trkpt lat="42.830463" lon="-0.225217">
        <ele>2329.683</ele>
        <time>2020-07-21T14:28:49Z</time>
      </trkpt>
      <trkpt lat="42.830439" lon="-0.225166">
        <ele>2330.570</ele>
        <time>2020-07-21T14:29:05Z</time>
      </trkpt>
      <trkpt lat="42.830415" lon="-0.225116">
        <ele>2332.199</ele>
        <time>2020-07-21T14:29:19Z</time>
      </trkpt>
      <trkpt lat="42.830401" lon="-0.225043">
        <ele>2332.553</ele>
        <time>2020-07-21T14:29:25Z</time>
      </trkpt>
      <trkpt lat="42.830373" lon="-0.224986">
        <ele>2331.932</ele>
        <time>2020-07-21T14:29:33Z</time>
      </trkpt>
      <trkpt lat="42.830365" lon="-0.224912">
        <ele>2332.023</ele>
        <time>2020-07-21T14:29:39Z</time>
      </trkpt>
      <trkpt lat="42.830370" lon="-0.224840">
        <ele>2331.983</ele>
        <time>2020-07-21T14:29:45Z</time>
      </trkpt>
      <trkpt lat="42.830354" lon="-0.224749">
        <ele>2332.011</ele>
        <time>2020-07-21T14:29:51Z</time>
      </trkpt>
      <trkpt lat="42.830343" lon="-0.224683">
        <ele>2332.208</ele>
        <time>2020-07-21T14:29:55Z</time>
      </trkpt>
      <trkpt lat="42.830328" lon="-0.224617">
        <ele>2331.477</ele>
        <time>2020-07-21T14:29:59Z</time>
      </trkpt>
      <trkpt lat="42.830318" lon="-0.224557">
        <ele>2331.865</ele>
        <time>2020-07-21T14:30:03Z</time>
      </trkpt>
      <trkpt lat="42.830297" lon="-0.224489">
        <ele>2332.119</ele>
        <time>2020-07-21T14:30:09Z</time>
      </trkpt>
      <trkpt lat="42.830285" lon="-0.224420">
        <ele>2332.584</ele>
        <time>2020-07-21T14:30:15Z</time>
      </trkpt>
      <trkpt lat="42.830281" lon="-0.224354">
        <ele>2332.131</ele>
        <time>2020-07-21T14:30:23Z</time>
      </trkpt>
      <trkpt lat="42.830259" lon="-0.224291">
        <ele>2331.140</ele>
        <time>2020-07-21T14:30:31Z</time>
      </trkpt>
      <trkpt lat="42.830240" lon="-0.224226">
        <ele>2330.134</ele>
        <time>2020-07-21T14:30:37Z</time>
      </trkpt>
      <trkpt lat="42.830231" lon="-0.224159">
        <ele>2328.883</ele>
        <time>2020-07-21T14:30:43Z</time>
      </trkpt>
      <trkpt lat="42.830207" lon="-0.224082">
        <ele>2327.558</ele>
        <time>2020-07-21T14:30:51Z</time>
      </trkpt>
      <trkpt lat="42.830183" lon="-0.223999">
        <ele>2328.452</ele>
        <time>2020-07-21T14:30:57Z</time>
      </trkpt>
      <trkpt lat="42.830194" lon="-0.223915">
        <ele>2328.517</ele>
        <time>2020-07-21T14:31:03Z</time>
      </trkpt>
      <trkpt lat="42.830217" lon="-0.223842">
        <ele>2327.908</ele>
        <time>2020-07-21T14:31:09Z</time>
      </trkpt>
      <trkpt lat="42.830256" lon="-0.223796">
        <ele>2330.360</ele>
        <time>2020-07-21T14:31:15Z</time>
      </trkpt>
      <trkpt lat="42.830303" lon="-0.223791">
        <ele>2329.798</ele>
        <time>2020-07-21T14:31:21Z</time>
      </trkpt>
      <trkpt lat="42.830338" lon="-0.223761">
        <ele>2329.212</ele>
        <time>2020-07-21T14:31:27Z</time>
      </trkpt>
      <trkpt lat="42.830358" lon="-0.223682">
        <ele>2328.697</ele>
        <time>2020-07-21T14:31:35Z</time>
      </trkpt>
      <trkpt lat="42.830364" lon="-0.223611">
        <ele>2325.824</ele>
        <time>2020-07-21T14:31:43Z</time>
      </trkpt>
      <trkpt lat="42.830360" lon="-0.223530">
        <ele>2326.583</ele>
        <time>2020-07-21T14:31:51Z</time>
      </trkpt>
      <trkpt lat="42.830378" lon="-0.223457">
        <ele>2325.877</ele>
        <time>2020-07-21T14:31:57Z</time>
      </trkpt>
      <trkpt lat="42.830388" lon="-0.223379">
        <ele>2324.996</ele>
        <time>2020-07-21T14:32:03Z</time>
      </trkpt>
      <trkpt lat="42.830407" lon="-0.223315">
        <ele>2325.177</ele>
        <time>2020-07-21T14:32:09Z</time>
      </trkpt>
      <trkpt lat="42.830392" lon="-0.223232">
        <ele>2324.861</ele>
        <time>2020-07-21T14:32:15Z</time>
      </trkpt>
      <trkpt lat="42.830388" lon="-0.223153">
        <ele>2324.927</ele>
        <time>2020-07-21T14:32:19Z</time>
      </trkpt>
      <trkpt lat="42.830371" lon="-0.223080">
        <ele>2324.408</ele>
        <time>2020-07-21T14:32:25Z</time>
      </trkpt>
      <trkpt lat="42.830369" lon="-0.222995">
        <ele>2324.852</ele>
        <time>2020-07-21T14:32:31Z</time>
      </trkpt>
      <trkpt lat="42.830343" lon="-0.222915">
        <ele>2324.380</ele>
        <time>2020-07-21T14:32:37Z</time>
      </trkpt>
      <trkpt lat="42.830325" lon="-0.222840">
        <ele>2323.914</ele>
        <time>2020-07-21T14:32:41Z</time>
      </trkpt>
      <trkpt lat="42.830310" lon="-0.222758">
        <ele>2323.969</ele>
        <time>2020-07-21T14:32:47Z</time>
      </trkpt>
      <trkpt lat="42.830307" lon="-0.222688">
        <ele>2322.736</ele>
        <time>2020-07-21T14:32:53Z</time>
      </trkpt>
      <trkpt lat="42.830287" lon="-0.222619">
        <ele>2323.015</ele>
        <time>2020-07-21T14:32:59Z</time>
      </trkpt>
      <trkpt lat="42.830282" lon="-0.222541">
        <ele>2323.779</ele>
        <time>2020-07-21T14:33:05Z</time>
      </trkpt>
      <trkpt lat="42.830291" lon="-0.222467">
        <ele>2322.968</ele>
        <time>2020-07-21T14:33:11Z</time>
      </trkpt>
      <trkpt lat="42.830297" lon="-0.222388">
        <ele>2323.259</ele>
        <time>2020-07-21T14:33:17Z</time>
      </trkpt>
      <trkpt lat="42.830332" lon="-0.222357">
        <ele>2324.403</ele>
        <time>2020-07-21T14:34:29Z</time>
      </trkpt>
      <trkpt lat="42.830388" lon="-0.222350">
        <ele>2323.523</ele>
        <time>2020-07-21T14:34:35Z</time>
      </trkpt>
      <trkpt lat="42.830444" lon="-0.222333">
        <ele>2322.408</ele>
        <time>2020-07-21T14:34:41Z</time>
      </trkpt>
      <trkpt lat="42.830480" lon="-0.222269">
        <ele>2321.950</ele>
        <time>2020-07-21T14:34:47Z</time>
      </trkpt>
      <trkpt lat="42.830501" lon="-0.222190">
        <ele>2319.928</ele>
        <time>2020-07-21T14:34:55Z</time>
      </trkpt>
      <trkpt lat="42.830523" lon="-0.222132">
        <ele>2319.662</ele>
        <time>2020-07-21T14:34:59Z</time>
      </trkpt>
      <trkpt lat="42.830550" lon="-0.222080">
        <ele>2318.767</ele>
        <time>2020-07-21T14:35:05Z</time>
      </trkpt>
      <trkpt lat="42.830567" lon="-0.222023">
        <ele>2318.834</ele>
        <time>2020-07-21T14:35:15Z</time>
      </trkpt>
      <trkpt lat="42.830552" lon="-0.221957">
        <ele>2318.143</ele>
        <time>2020-07-21T14:35:19Z</time>
      </trkpt>
      <trkpt lat="42.830552" lon="-0.221888">
        <ele>2317.957</ele>
        <time>2020-07-21T14:35:25Z</time>
      </trkpt>
      <trkpt lat="42.830529" lon="-0.221832">
        <ele>2318.166</ele>
        <time>2020-07-21T14:35:49Z</time>
      </trkpt>
      <trkpt lat="42.830525" lon="-0.221764">
        <ele>2319.539</ele>
        <time>2020-07-21T14:35:53Z</time>
      </trkpt>
      <trkpt lat="42.830534" lon="-0.221703">
        <ele>2319.301</ele>
        <time>2020-07-21T14:35:57Z</time>
      </trkpt>
      <trkpt lat="42.830536" lon="-0.221629">
        <ele>2321.421</ele>
        <time>2020-07-21T14:36:03Z</time>
      </trkpt>
      <trkpt lat="42.830518" lon="-0.221574">
        <ele>2320.808</ele>
        <time>2020-07-21T14:36:11Z</time>
      </trkpt>
      <trkpt lat="42.830520" lon="-0.221509">
        <ele>2319.498</ele>
        <time>2020-07-21T14:36:19Z</time>
      </trkpt>
      <trkpt lat="42.830529" lon="-0.221442">
        <ele>2320.026</ele>
        <time>2020-07-21T14:36:31Z</time>
      </trkpt>
      <trkpt lat="42.830547" lon="-0.221379">
        <ele>2319.830</ele>
        <time>2020-07-21T14:36:39Z</time>
      </trkpt>
      <trkpt lat="42.830550" lon="-0.221313">
        <ele>2317.445</ele>
        <time>2020-07-21T14:36:45Z</time>
      </trkpt>
      <trkpt lat="42.830569" lon="-0.221230">
        <ele>2317.522</ele>
        <time>2020-07-21T14:36:57Z</time>
      </trkpt>
      <trkpt lat="42.830580" lon="-0.221147">
        <ele>2315.911</ele>
        <time>2020-07-21T14:37:03Z</time>
      </trkpt>
      <trkpt lat="42.830603" lon="-0.221091">
        <ele>2313.385</ele>
        <time>2020-07-21T14:37:13Z</time>
      </trkpt>
      <trkpt lat="42.830620" lon="-0.221029">
        <ele>2315.744</ele>
        <time>2020-07-21T14:37:23Z</time>
      </trkpt>
      <trkpt lat="42.830625" lon="-0.220966">
        <ele>2314.091</ele>
        <time>2020-07-21T14:37:33Z</time>
      </trkpt>
      <trkpt lat="42.830655" lon="-0.220911">
        <ele>2311.981</ele>
        <time>2020-07-21T14:37:41Z</time>
      </trkpt>
      <trkpt lat="42.830703" lon="-0.220864">
        <ele>2312.019</ele>
        <time>2020-07-21T14:37:49Z</time>
      </trkpt>
      <trkpt lat="42.830772" lon="-0.220868">
        <ele>2310.208</ele>
        <time>2020-07-21T14:37:55Z</time>
      </trkpt>
      <trkpt lat="42.830820" lon="-0.220868">
        <ele>2310.654</ele>
        <time>2020-07-21T14:37:59Z</time>
      </trkpt>
      <trkpt lat="42.830873" lon="-0.220863">
        <ele>2311.862</ele>
        <time>2020-07-21T14:38:03Z</time>
      </trkpt>
      <trkpt lat="42.830928" lon="-0.220858">
        <ele>2311.446</ele>
        <time>2020-07-21T14:38:07Z</time>
      </trkpt>
      <trkpt lat="42.830979" lon="-0.220848">
        <ele>2311.081</ele>
        <time>2020-07-21T14:38:11Z</time>
      </trkpt>
      <trkpt lat="42.831041" lon="-0.220836">
        <ele>2311.238</ele>
        <time>2020-07-21T14:38:15Z</time>
      </trkpt>
      <trkpt lat="42.831090" lon="-0.220794">
        <ele>2310.667</ele>
        <time>2020-07-21T14:38:21Z</time>
      </trkpt>
      <trkpt lat="42.831129" lon="-0.220764">
        <ele>2311.361</ele>
        <time>2020-07-21T14:38:27Z</time>
      </trkpt>
      <trkpt lat="42.831170" lon="-0.220726">
        <ele>2311.010</ele>
        <time>2020-07-21T14:38:31Z</time>
      </trkpt>
      <trkpt lat="42.831216" lon="-0.220688">
        <ele>2311.993</ele>
        <time>2020-07-21T14:38:37Z</time>
      </trkpt>
      <trkpt lat="42.831265" lon="-0.220661">
        <ele>2310.665</ele>
        <time>2020-07-21T14:38:43Z</time>
      </trkpt>
      <trkpt lat="42.831308" lon="-0.220637">
        <ele>2309.021</ele>
        <time>2020-07-21T14:38:51Z</time>
      </trkpt>
      <trkpt lat="42.831353" lon="-0.220592">
        <ele>2309.608</ele>
        <time>2020-07-21T14:38:59Z</time>
      </trkpt>
      <trkpt lat="42.831390" lon="-0.220550">
        <ele>2306.574</ele>
        <time>2020-07-21T14:39:07Z</time>
      </trkpt>
      <trkpt lat="42.831426" lon="-0.220482">
        <ele>2307.192</ele>
        <time>2020-07-21T14:39:13Z</time>
      </trkpt>
      <trkpt lat="42.831467" lon="-0.220429">
        <ele>2306.416</ele>
        <time>2020-07-21T14:39:19Z</time>
      </trkpt>
      <trkpt lat="42.831486" lon="-0.220349">
        <ele>2306.151</ele>
        <time>2020-07-21T14:39:25Z</time>
      </trkpt>
      <trkpt lat="42.831497" lon="-0.220267">
        <ele>2307.548</ele>
        <time>2020-07-21T14:39:31Z</time>
      </trkpt>
      <trkpt lat="42.831507" lon="-0.220181">
        <ele>2307.127</ele>
        <time>2020-07-21T14:39:37Z</time>
      </trkpt>
      <trkpt lat="42.831518" lon="-0.220120">
        <ele>2306.831</ele>
        <time>2020-07-21T14:39:41Z</time>
      </trkpt>
      <trkpt lat="42.831543" lon="-0.220042">
        <ele>2307.360</ele>
        <time>2020-07-21T14:39:47Z</time>
      </trkpt>
      <trkpt lat="42.831566" lon="-0.219989">
        <ele>2306.262</ele>
        <time>2020-07-21T14:39:53Z</time>
      </trkpt>
      <trkpt lat="42.831591" lon="-0.219925">
        <ele>2305.983</ele>
        <time>2020-07-21T14:39:59Z</time>
      </trkpt>
      <trkpt lat="42.831618" lon="-0.219852">
        <ele>2305.811</ele>
        <time>2020-07-21T14:40:05Z</time>
      </trkpt>
      <trkpt lat="42.831663" lon="-0.219807">
        <ele>2305.008</ele>
        <time>2020-07-21T14:40:19Z</time>
      </trkpt>
      <trkpt lat="42.831686" lon="-0.219747">
        <ele>2304.631</ele>
        <time>2020-07-21T14:40:27Z</time>
      </trkpt>
      <trkpt lat="42.831687" lon="-0.219685">
        <ele>2304.939</ele>
        <time>2020-07-21T14:40:35Z</time>
      </trkpt>
      <trkpt lat="42.831673" lon="-0.219610">
        <ele>2302.123</ele>
        <time>2020-07-21T14:40:45Z</time>
      </trkpt>
      <trkpt lat="42.831685" lon="-0.219542">
        <ele>2299.218</ele>
        <time>2020-07-21T14:40:55Z</time>
      </trkpt>
      <trkpt lat="42.831691" lon="-0.219479">
        <ele>2300.945</ele>
        <time>2020-07-21T14:41:03Z</time>
      </trkpt>
      <trkpt lat="42.831670" lon="-0.219416">
        <ele>2297.824</ele>
        <time>2020-07-21T14:43:03Z</time>
      </trkpt>
      <trkpt lat="42.831631" lon="-0.219384">
        <ele>2295.968</ele>
        <time>2020-07-21T14:43:15Z</time>
      </trkpt>
      <trkpt lat="42.831584" lon="-0.219385">
        <ele>2293.997</ele>
        <time>2020-07-21T14:43:31Z</time>
      </trkpt>
      <trkpt lat="42.831553" lon="-0.219339">
        <ele>2292.018</ele>
        <time>2020-07-21T14:43:39Z</time>
      </trkpt>
      <trkpt lat="42.831530" lon="-0.219281">
        <ele>2292.398</ele>
        <time>2020-07-21T14:43:49Z</time>
      </trkpt>
      <trkpt lat="42.831521" lon="-0.219191">
        <ele>2292.017</ele>
        <time>2020-07-21T14:43:55Z</time>
      </trkpt>
      <trkpt lat="42.831504" lon="-0.219125">
        <ele>2291.508</ele>
        <time>2020-07-21T14:43:59Z</time>
      </trkpt>
      <trkpt lat="42.831483" lon="-0.219070">
        <ele>2291.046</ele>
        <time>2020-07-21T14:44:03Z</time>
      </trkpt>
      <trkpt lat="42.831447" lon="-0.219030">
        <ele>2291.674</ele>
        <time>2020-07-21T14:44:09Z</time>
      </trkpt>
      <trkpt lat="42.831414" lon="-0.218983">
        <ele>2290.428</ele>
        <time>2020-07-21T14:44:17Z</time>
      </trkpt>
      <trkpt lat="42.831400" lon="-0.218923">
        <ele>2289.943</ele>
        <time>2020-07-21T14:44:23Z</time>
      </trkpt>
      <trkpt lat="42.831360" lon="-0.218888">
        <ele>2287.760</ele>
        <time>2020-07-21T14:44:33Z</time>
      </trkpt>
      <trkpt lat="42.831321" lon="-0.218841">
        <ele>2284.589</ele>
        <time>2020-07-21T14:44:41Z</time>
      </trkpt>
      <trkpt lat="42.831307" lon="-0.218761">
        <ele>2283.743</ele>
        <time>2020-07-21T14:44:55Z</time>
      </trkpt>
      <trkpt lat="42.831294" lon="-0.218691">
        <ele>2284.582</ele>
        <time>2020-07-21T14:44:59Z</time>
      </trkpt>
      <trkpt lat="42.831287" lon="-0.218626">
        <ele>2284.861</ele>
        <time>2020-07-21T14:45:03Z</time>
      </trkpt>
      <trkpt lat="42.831271" lon="-0.218566">
        <ele>2282.121</ele>
        <time>2020-07-21T14:45:07Z</time>
      </trkpt>
      <trkpt lat="42.831295" lon="-0.218515">
        <ele>2282.313</ele>
        <time>2020-07-21T14:45:39Z</time>
      </trkpt>
      <trkpt lat="42.831318" lon="-0.218459">
        <ele>2282.508</ele>
        <time>2020-07-21T14:45:45Z</time>
      </trkpt>
      <trkpt lat="42.831327" lon="-0.218362">
        <ele>2284.081</ele>
        <time>2020-07-21T14:45:51Z</time>
      </trkpt>
      <trkpt lat="42.831303" lon="-0.218295">
        <ele>2282.059</ele>
        <time>2020-07-21T14:46:01Z</time>
      </trkpt>
      <trkpt lat="42.831288" lon="-0.218232">
        <ele>2283.493</ele>
        <time>2020-07-21T14:46:07Z</time>
      </trkpt>
      <trkpt lat="42.831255" lon="-0.218196">
        <ele>2283.818</ele>
        <time>2020-07-21T14:46:15Z</time>
      </trkpt>
      <trkpt lat="42.831226" lon="-0.218143">
        <ele>2282.735</ele>
        <time>2020-07-21T14:46:21Z</time>
      </trkpt>
      <trkpt lat="42.831201" lon="-0.218086">
        <ele>2283.074</ele>
        <time>2020-07-21T14:46:25Z</time>
      </trkpt>
      <trkpt lat="42.831180" lon="-0.218007">
        <ele>2283.088</ele>
        <time>2020-07-21T14:46:31Z</time>
      </trkpt>
      <trkpt lat="42.831145" lon="-0.217949">
        <ele>2284.557</ele>
        <time>2020-07-21T14:46:37Z</time>
      </trkpt>
      <trkpt lat="42.831133" lon="-0.217882">
        <ele>2283.731</ele>
        <time>2020-07-21T14:46:43Z</time>
      </trkpt>
      <trkpt lat="42.831123" lon="-0.217815">
        <ele>2281.661</ele>
        <time>2020-07-21T14:46:51Z</time>
      </trkpt>
      <trkpt lat="42.831104" lon="-0.217757">
        <ele>2281.307</ele>
        <time>2020-07-21T14:46:57Z</time>
      </trkpt>
      <trkpt lat="42.831092" lon="-0.217685">
        <ele>2280.108</ele>
        <time>2020-07-21T14:47:03Z</time>
      </trkpt>
      <trkpt lat="42.831102" lon="-0.217617">
        <ele>2278.698</ele>
        <time>2020-07-21T14:47:09Z</time>
      </trkpt>
      <trkpt lat="42.831101" lon="-0.217553">
        <ele>2277.546</ele>
        <time>2020-07-21T14:47:15Z</time>
      </trkpt>
      <trkpt lat="42.831083" lon="-0.217498">
        <ele>2276.950</ele>
        <time>2020-07-21T14:47:25Z</time>
      </trkpt>
      <trkpt lat="42.831050" lon="-0.217446">
        <ele>2275.825</ele>
        <time>2020-07-21T14:47:33Z</time>
      </trkpt>
      <trkpt lat="42.831010" lon="-0.217378">
        <ele>2275.652</ele>
        <time>2020-07-21T14:47:39Z</time>
      </trkpt>
      <trkpt lat="42.830987" lon="-0.217320">
        <ele>2276.291</ele>
        <time>2020-07-21T14:47:43Z</time>
      </trkpt>
      <trkpt lat="42.830965" lon="-0.217252">
        <ele>2275.295</ele>
        <time>2020-07-21T14:47:49Z</time>
      </trkpt>
      <trkpt lat="42.830956" lon="-0.217179">
        <ele>2274.754</ele>
        <time>2020-07-21T14:47:57Z</time>
      </trkpt>
      <trkpt lat="42.830932" lon="-0.217125">
        <ele>2275.235</ele>
        <time>2020-07-21T14:48:05Z</time>
      </trkpt>
      <trkpt lat="42.830911" lon="-0.217070">
        <ele>2273.986</ele>
        <time>2020-07-21T14:48:17Z</time>
      </trkpt>
      <trkpt lat="42.830895" lon="-0.216994">
        <ele>2274.614</ele>
        <time>2020-07-21T14:48:33Z</time>
      </trkpt>
      <trkpt lat="42.830885" lon="-0.216921">
        <ele>2272.508</ele>
        <time>2020-07-21T14:48:39Z</time>
      </trkpt>
      <trkpt lat="42.830853" lon="-0.216856">
        <ele>2270.718</ele>
        <time>2020-07-21T14:48:52Z</time>
      </trkpt>
      <trkpt lat="42.830852" lon="-0.216782">
        <ele>2268.786</ele>
        <time>2020-07-21T14:49:04Z</time>
      </trkpt>
      <trkpt lat="42.830861" lon="-0.216697">
        <ele>2267.940</ele>
        <time>2020-07-21T14:49:10Z</time>
      </trkpt>
      <trkpt lat="42.830875" lon="-0.216632">
        <ele>2269.255</ele>
        <time>2020-07-21T14:49:16Z</time>
      </trkpt>
      <trkpt lat="42.830888" lon="-0.216548">
        <ele>2267.862</ele>
        <time>2020-07-21T14:49:22Z</time>
      </trkpt>
      <trkpt lat="42.830903" lon="-0.216480">
        <ele>2268.041</ele>
        <time>2020-07-21T14:49:30Z</time>
      </trkpt>
      <trkpt lat="42.830937" lon="-0.216419">
        <ele>2265.965</ele>
        <time>2020-07-21T14:49:42Z</time>
      </trkpt>
      <trkpt lat="42.830947" lon="-0.216359">
        <ele>2264.774</ele>
        <time>2020-07-21T14:49:50Z</time>
      </trkpt>
      <trkpt lat="42.830964" lon="-0.216282">
        <ele>2264.564</ele>
        <time>2020-07-21T14:49:56Z</time>
      </trkpt>
      <trkpt lat="42.830961" lon="-0.216214">
        <ele>2263.406</ele>
        <time>2020-07-21T14:50:02Z</time>
      </trkpt>
      <trkpt lat="42.830976" lon="-0.216155">
        <ele>2264.316</ele>
        <time>2020-07-21T14:50:08Z</time>
      </trkpt>
      <trkpt lat="42.831024" lon="-0.216142">
        <ele>2261.808</ele>
        <time>2020-07-21T14:50:22Z</time>
      </trkpt>
      <trkpt lat="42.831066" lon="-0.216106">
        <ele>2261.261</ele>
        <time>2020-07-21T14:50:32Z</time>
      </trkpt>
      <trkpt lat="42.831108" lon="-0.216064">
        <ele>2260.479</ele>
        <time>2020-07-21T14:50:38Z</time>
      </trkpt>
      <trkpt lat="42.831140" lon="-0.216007">
        <ele>2261.843</ele>
        <time>2020-07-21T14:50:44Z</time>
      </trkpt>
      <trkpt lat="42.831172" lon="-0.215951">
        <ele>2259.438</ele>
        <time>2020-07-21T14:50:50Z</time>
      </trkpt>
      <trkpt lat="42.831186" lon="-0.215890">
        <ele>2258.035</ele>
        <time>2020-07-21T14:50:58Z</time>
      </trkpt>
      <trkpt lat="42.831179" lon="-0.215825">
        <ele>2258.054</ele>
        <time>2020-07-21T14:51:08Z</time>
      </trkpt>
      <trkpt lat="42.831202" lon="-0.215763">
        <ele>2255.888</ele>
        <time>2020-07-21T14:51:30Z</time>
      </trkpt>
      <trkpt lat="42.831217" lon="-0.215691">
        <ele>2255.747</ele>
        <time>2020-07-21T14:51:36Z</time>
      </trkpt>
      <trkpt lat="42.831246" lon="-0.215634">
        <ele>2253.424</ele>
        <time>2020-07-21T14:51:44Z</time>
      </trkpt>
      <trkpt lat="42.831264" lon="-0.215570">
        <ele>2251.604</ele>
        <time>2020-07-21T14:52:32Z</time>
      </trkpt>
      <trkpt lat="42.831255" lon="-0.215509">
        <ele>2250.814</ele>
        <time>2020-07-21T14:52:44Z</time>
      </trkpt>
      <trkpt lat="42.831200" lon="-0.215520">
        <ele>2248.708</ele>
        <time>2020-07-21T14:52:54Z</time>
      </trkpt>
      <trkpt lat="42.831146" lon="-0.215531">
        <ele>2247.627</ele>
        <time>2020-07-21T14:53:02Z</time>
      </trkpt>
      <trkpt lat="42.831099" lon="-0.215541">
        <ele>2246.715</ele>
        <time>2020-07-21T14:53:08Z</time>
      </trkpt>
      <trkpt lat="42.831042" lon="-0.215511">
        <ele>2245.899</ele>
        <time>2020-07-21T14:53:20Z</time>
      </trkpt>
      <trkpt lat="42.830978" lon="-0.215511">
        <ele>2244.724</ele>
        <time>2020-07-21T14:53:28Z</time>
      </trkpt>
      <trkpt lat="42.830920" lon="-0.215522">
        <ele>2244.541</ele>
        <time>2020-07-21T14:53:34Z</time>
      </trkpt>
      <trkpt lat="42.830869" lon="-0.215528">
        <ele>2243.610</ele>
        <time>2020-07-21T14:53:42Z</time>
      </trkpt>
      <trkpt lat="42.830816" lon="-0.215535">
        <ele>2243.084</ele>
        <time>2020-07-21T14:53:48Z</time>
      </trkpt>
      <trkpt lat="42.830761" lon="-0.215533">
        <ele>2242.273</ele>
        <time>2020-07-21T14:53:56Z</time>
      </trkpt>
      <trkpt lat="42.830708" lon="-0.215536">
        <ele>2242.615</ele>
        <time>2020-07-21T14:54:02Z</time>
      </trkpt>
      <trkpt lat="42.830652" lon="-0.215542">
        <ele>2241.865</ele>
        <time>2020-07-21T14:54:10Z</time>
      </trkpt>
      <trkpt lat="42.830595" lon="-0.215539">
        <ele>2241.311</ele>
        <time>2020-07-21T14:54:18Z</time>
      </trkpt>
      <trkpt lat="42.830546" lon="-0.215509">
        <ele>2238.908</ele>
        <time>2020-07-21T14:54:24Z</time>
      </trkpt>
      <trkpt lat="42.830501" lon="-0.215485">
        <ele>2239.756</ele>
        <time>2020-07-21T14:54:30Z</time>
      </trkpt>
      <trkpt lat="42.830455" lon="-0.215424">
        <ele>2237.774</ele>
        <time>2020-07-21T14:54:40Z</time>
      </trkpt>
      <trkpt lat="42.830445" lon="-0.215360">
        <ele>2237.718</ele>
        <time>2020-07-21T14:54:44Z</time>
      </trkpt>
      <trkpt lat="42.830432" lon="-0.215294">
        <ele>2237.383</ele>
        <time>2020-07-21T14:54:48Z</time>
      </trkpt>
      <trkpt lat="42.830421" lon="-0.215230">
        <ele>2235.910</ele>
        <time>2020-07-21T14:54:52Z</time>
      </trkpt>
      <trkpt lat="42.830428" lon="-0.215151">
        <ele>2236.019</ele>
        <time>2020-07-21T14:54:56Z</time>
      </trkpt>
      <trkpt lat="42.830433" lon="-0.215073">
        <ele>2236.143</ele>
        <time>2020-07-21T14:55:02Z</time>
      </trkpt>
      <trkpt lat="42.830436" lon="-0.214985">
        <ele>2236.612</ele>
        <time>2020-07-21T14:55:08Z</time>
      </trkpt>
      <trkpt lat="42.830419" lon="-0.214910">
        <ele>2235.114</ele>
        <time>2020-07-21T14:55:14Z</time>
      </trkpt>
      <trkpt lat="42.830373" lon="-0.214860">
        <ele>2232.454</ele>
        <time>2020-07-21T14:55:46Z</time>
      </trkpt>
      <trkpt lat="42.830329" lon="-0.214817">
        <ele>2233.809</ele>
        <time>2020-07-21T14:55:52Z</time>
      </trkpt>
      <trkpt lat="42.830329" lon="-0.214754">
        <ele>2233.608</ele>
        <time>2020-07-21T14:55:58Z</time>
      </trkpt>
      <trkpt lat="42.830350" lon="-0.214675">
        <ele>2234.026</ele>
        <time>2020-07-21T14:56:04Z</time>
      </trkpt>
      <trkpt lat="42.830336" lon="-0.214598">
        <ele>2234.494</ele>
        <time>2020-07-21T14:56:10Z</time>
      </trkpt>
      <trkpt lat="42.830332" lon="-0.214525">
        <ele>2234.788</ele>
        <time>2020-07-21T14:57:02Z</time>
      </trkpt>
      <trkpt lat="42.830296" lon="-0.214473">
        <ele>2234.323</ele>
        <time>2020-07-21T14:57:22Z</time>
      </trkpt>
      <trkpt lat="42.830248" lon="-0.214429">
        <ele>2234.220</ele>
        <time>2020-07-21T14:57:28Z</time>
      </trkpt>
      <trkpt lat="42.830217" lon="-0.214358">
        <ele>2233.069</ele>
        <time>2020-07-21T14:57:36Z</time>
      </trkpt>
      <trkpt lat="42.830181" lon="-0.214299">
        <ele>2232.523</ele>
        <time>2020-07-21T14:57:40Z</time>
      </trkpt>
      <trkpt lat="42.830182" lon="-0.214235">
        <ele>2231.722</ele>
        <time>2020-07-21T14:57:50Z</time>
      </trkpt>
      <trkpt lat="42.830182" lon="-0.214169">
        <ele>2231.283</ele>
        <time>2020-07-21T14:57:58Z</time>
      </trkpt>
      <trkpt lat="42.830167" lon="-0.214082">
        <ele>2229.825</ele>
        <time>2020-07-21T14:58:04Z</time>
      </trkpt>
      <trkpt lat="42.830165" lon="-0.213994">
        <ele>2228.417</ele>
        <time>2020-07-21T14:58:10Z</time>
      </trkpt>
      <trkpt lat="42.830163" lon="-0.213929">
        <ele>2228.608</ele>
        <time>2020-07-21T14:58:14Z</time>
      </trkpt>
      <trkpt lat="42.830164" lon="-0.213850">
        <ele>2227.613</ele>
        <time>2020-07-21T14:58:22Z</time>
      </trkpt>
      <trkpt lat="42.830163" lon="-0.213773">
        <ele>2226.391</ele>
        <time>2020-07-21T14:58:28Z</time>
      </trkpt>
      <trkpt lat="42.830164" lon="-0.213710">
        <ele>2226.055</ele>
        <time>2020-07-21T14:58:34Z</time>
      </trkpt>
      <trkpt lat="42.830165" lon="-0.213629">
        <ele>2224.520</ele>
        <time>2020-07-21T14:58:40Z</time>
      </trkpt>
      <trkpt lat="42.830173" lon="-0.213552">
        <ele>2223.117</ele>
        <time>2020-07-21T14:58:48Z</time>
      </trkpt>
      <trkpt lat="42.830166" lon="-0.213474">
        <ele>2222.896</ele>
        <time>2020-07-21T14:58:58Z</time>
      </trkpt>
      <trkpt lat="42.830156" lon="-0.213407">
        <ele>2222.810</ele>
        <time>2020-07-21T14:59:04Z</time>
      </trkpt>
      <trkpt lat="42.830144" lon="-0.213320">
        <ele>2221.519</ele>
        <time>2020-07-21T14:59:10Z</time>
      </trkpt>
      <trkpt lat="42.830133" lon="-0.213238">
        <ele>2222.024</ele>
        <time>2020-07-21T14:59:16Z</time>
      </trkpt>
      <trkpt lat="42.830096" lon="-0.213194">
        <ele>2220.204</ele>
        <time>2020-07-21T14:59:24Z</time>
      </trkpt>
      <trkpt lat="42.830040" lon="-0.213209">
        <ele>2219.214</ele>
        <time>2020-07-21T14:59:32Z</time>
      </trkpt>
      <trkpt lat="42.829990" lon="-0.213188">
        <ele>2220.308</ele>
        <time>2020-07-21T14:59:40Z</time>
      </trkpt>
      <trkpt lat="42.829928" lon="-0.213150">
        <ele>2220.197</ele>
        <time>2020-07-21T14:59:46Z</time>
      </trkpt>
      <trkpt lat="42.829911" lon="-0.213091">
        <ele>2219.515</ele>
        <time>2020-07-21T14:59:52Z</time>
      </trkpt>
      <trkpt lat="42.829913" lon="-0.213011">
        <ele>2216.269</ele>
        <time>2020-07-21T15:00:00Z</time>
      </trkpt>
      <trkpt lat="42.829924" lon="-0.212948">
        <ele>2218.434</ele>
        <time>2020-07-21T15:00:05Z</time>
      </trkpt>
      <trkpt lat="42.829927" lon="-0.212879">
        <ele>2217.411</ele>
        <time>2020-07-21T15:00:12Z</time>
      </trkpt>
      <trkpt lat="42.829938" lon="-0.212805">
        <ele>2216.210</ele>
        <time>2020-07-21T15:00:22Z</time>
      </trkpt>
      <trkpt lat="42.829954" lon="-0.212742">
        <ele>2216.294</ele>
        <time>2020-07-21T15:00:31Z</time>
      </trkpt>
      <trkpt lat="42.829964" lon="-0.212676">
        <ele>2214.013</ele>
        <time>2020-07-21T15:00:40Z</time>
      </trkpt>
      <trkpt lat="42.829976" lon="-0.212612">
        <ele>2212.764</ele>
        <time>2020-07-21T15:00:50Z</time>
      </trkpt>
      <trkpt lat="42.829997" lon="-0.212554">
        <ele>2213.406</ele>
        <time>2020-07-21T15:00:57Z</time>
      </trkpt>
      <trkpt lat="42.830033" lon="-0.212513">
        <ele>2212.416</ele>
        <time>2020-07-21T15:01:03Z</time>
      </trkpt>
      <trkpt lat="42.830058" lon="-0.212452">
        <ele>2211.908</ele>
        <time>2020-07-21T15:01:09Z</time>
      </trkpt>
      <trkpt lat="42.830095" lon="-0.212386">
        <ele>2210.671</ele>
        <time>2020-07-21T15:01:17Z</time>
      </trkpt>
      <trkpt lat="42.830111" lon="-0.212310">
        <ele>2208.989</ele>
        <time>2020-07-21T15:01:23Z</time>
      </trkpt>
      <trkpt lat="42.830112" lon="-0.212246">
        <ele>2208.153</ele>
        <time>2020-07-21T15:01:29Z</time>
      </trkpt>
      <trkpt lat="42.830117" lon="-0.212167">
        <ele>2206.968</ele>
        <time>2020-07-21T15:01:37Z</time>
      </trkpt>
      <trkpt lat="42.830112" lon="-0.212094">
        <ele>2207.075</ele>
        <time>2020-07-21T15:01:43Z</time>
      </trkpt>
      <trkpt lat="42.830117" lon="-0.212009">
        <ele>2205.424</ele>
        <time>2020-07-21T15:01:49Z</time>
      </trkpt>
      <trkpt lat="42.830113" lon="-0.211927">
        <ele>2205.778</ele>
        <time>2020-07-21T15:01:55Z</time>
      </trkpt>
      <trkpt lat="42.830112" lon="-0.211841">
        <ele>2205.027</ele>
        <time>2020-07-21T15:02:01Z</time>
      </trkpt>
      <trkpt lat="42.830117" lon="-0.211779">
        <ele>2204.924</ele>
        <time>2020-07-21T15:02:05Z</time>
      </trkpt>
      <trkpt lat="42.830116" lon="-0.211706">
        <ele>2205.204</ele>
        <time>2020-07-21T15:02:11Z</time>
      </trkpt>
      <trkpt lat="42.830122" lon="-0.211635">
        <ele>2205.214</ele>
        <time>2020-07-21T15:02:19Z</time>
      </trkpt>
      <trkpt lat="42.830148" lon="-0.211579">
        <ele>2205.108</ele>
        <time>2020-07-21T15:02:23Z</time>
      </trkpt>
      <trkpt lat="42.830180" lon="-0.211530">
        <ele>2204.587</ele>
        <time>2020-07-21T15:02:27Z</time>
      </trkpt>
      <trkpt lat="42.830183" lon="-0.211449">
        <ele>2204.325</ele>
        <time>2020-07-21T15:03:28Z</time>
      </trkpt>
      <trkpt lat="42.830168" lon="-0.211369">
        <ele>2203.889</ele>
        <time>2020-07-21T15:03:32Z</time>
      </trkpt>
      <trkpt lat="42.830156" lon="-0.211276">
        <ele>2203.574</ele>
        <time>2020-07-21T15:03:38Z</time>
      </trkpt>
      <trkpt lat="42.830139" lon="-0.211213">
        <ele>2202.281</ele>
        <time>2020-07-21T15:03:42Z</time>
      </trkpt>
      <trkpt lat="42.830141" lon="-0.211139">
        <ele>2203.150</ele>
        <time>2020-07-21T15:03:48Z</time>
      </trkpt>
      <trkpt lat="42.830126" lon="-0.211080">
        <ele>2203.234</ele>
        <time>2020-07-21T15:03:52Z</time>
      </trkpt>
      <trkpt lat="42.830094" lon="-0.211013">
        <ele>2202.243</ele>
        <time>2020-07-21T15:03:58Z</time>
      </trkpt>
      <trkpt lat="42.830076" lon="-0.210956">
        <ele>2203.183</ele>
        <time>2020-07-21T15:04:04Z</time>
      </trkpt>
      <trkpt lat="42.830054" lon="-0.210862">
        <ele>2203.325</ele>
        <time>2020-07-21T15:04:12Z</time>
      </trkpt>
      <trkpt lat="42.830020" lon="-0.210813">
        <ele>2202.817</ele>
        <time>2020-07-21T15:04:18Z</time>
      </trkpt>
      <trkpt lat="42.830016" lon="-0.210741">
        <ele>2202.808</ele>
        <time>2020-07-21T15:04:24Z</time>
      </trkpt>
      <trkpt lat="42.829986" lon="-0.210695">
        <ele>2205.483</ele>
        <time>2020-07-21T15:04:30Z</time>
      </trkpt>
      <trkpt lat="42.829944" lon="-0.210638">
        <ele>2203.711</ele>
        <time>2020-07-21T15:04:36Z</time>
      </trkpt>
      <trkpt lat="42.829925" lon="-0.210558">
        <ele>2204.455</ele>
        <time>2020-07-21T15:04:42Z</time>
      </trkpt>
      <trkpt lat="42.829898" lon="-0.210494">
        <ele>2203.610</ele>
        <time>2020-07-21T15:04:48Z</time>
      </trkpt>
      <trkpt lat="42.829886" lon="-0.210419">
        <ele>2203.767</ele>
        <time>2020-07-21T15:04:54Z</time>
      </trkpt>
      <trkpt lat="42.829869" lon="-0.210360">
        <ele>2204.026</ele>
        <time>2020-07-21T15:04:58Z</time>
      </trkpt>
      <trkpt lat="42.829829" lon="-0.210306">
        <ele>2202.960</ele>
        <time>2020-07-21T15:05:06Z</time>
      </trkpt>
      <trkpt lat="42.829779" lon="-0.210242">
        <ele>2202.419</ele>
        <time>2020-07-21T15:05:12Z</time>
      </trkpt>
      <trkpt lat="42.829733" lon="-0.210191">
        <ele>2202.045</ele>
        <time>2020-07-21T15:05:18Z</time>
      </trkpt>
      <trkpt lat="42.829712" lon="-0.210116">
        <ele>2202.347</ele>
        <time>2020-07-21T15:05:26Z</time>
      </trkpt>
      <trkpt lat="42.829686" lon="-0.210049">
        <ele>2202.111</ele>
        <time>2020-07-21T15:05:32Z</time>
      </trkpt>
      <trkpt lat="42.829652" lon="-0.209996">
        <ele>2202.208</ele>
        <time>2020-07-21T15:05:40Z</time>
      </trkpt>
      <trkpt lat="42.829606" lon="-0.209975">
        <ele>2203.559</ele>
        <time>2020-07-21T15:05:46Z</time>
      </trkpt>
      <trkpt lat="42.829557" lon="-0.209944">
        <ele>2202.657</ele>
        <time>2020-07-21T15:05:52Z</time>
      </trkpt>
      <trkpt lat="42.829505" lon="-0.209905">
        <ele>2204.831</ele>
        <time>2020-07-21T15:05:58Z</time>
      </trkpt>
      <trkpt lat="42.829461" lon="-0.209877">
        <ele>2204.126</ele>
        <time>2020-07-21T15:06:04Z</time>
      </trkpt>
      <trkpt lat="42.829408" lon="-0.209832">
        <ele>2203.293</ele>
        <time>2020-07-21T15:06:14Z</time>
      </trkpt>
      <trkpt lat="42.829374" lon="-0.209786">
        <ele>2204.712</ele>
        <time>2020-07-21T15:06:20Z</time>
      </trkpt>
      <trkpt lat="42.829353" lon="-0.209720">
        <ele>2204.666</ele>
        <time>2020-07-21T15:06:24Z</time>
      </trkpt>
      <trkpt lat="42.829353" lon="-0.209645">
        <ele>2205.185</ele>
        <time>2020-07-21T15:06:28Z</time>
      </trkpt>
      <trkpt lat="42.829360" lon="-0.209546">
        <ele>2202.768</ele>
        <time>2020-07-21T15:14:45Z</time>
      </trkpt>
      <trkpt lat="42.829306" lon="-0.209575">
        <ele>2201.942</ele>
        <time>2020-07-21T15:14:53Z</time>
      </trkpt>
      <trkpt lat="42.829268" lon="-0.209525">
        <ele>2199.926</ele>
        <time>2020-07-21T15:15:07Z</time>
      </trkpt>
      <trkpt lat="42.829215" lon="-0.209527">
        <ele>2199.008</ele>
        <time>2020-07-21T15:15:13Z</time>
      </trkpt>
      <trkpt lat="42.829220" lon="-0.209593">
        <ele>2198.641</ele>
        <time>2020-07-21T15:15:21Z</time>
      </trkpt>
      <trkpt lat="42.829237" lon="-0.209659">
        <ele>2198.389</ele>
        <time>2020-07-21T15:15:27Z</time>
      </trkpt>
      <trkpt lat="42.829240" lon="-0.209738">
        <ele>2198.193</ele>
        <time>2020-07-21T15:15:33Z</time>
      </trkpt>
      <trkpt lat="42.829234" lon="-0.209815">
        <ele>2198.458</ele>
        <time>2020-07-21T15:15:39Z</time>
      </trkpt>
      <trkpt lat="42.829209" lon="-0.209881">
        <ele>2197.555</ele>
        <time>2020-07-21T15:15:45Z</time>
      </trkpt>
      <trkpt lat="42.829171" lon="-0.209936">
        <ele>2196.724</ele>
        <time>2020-07-21T15:15:51Z</time>
      </trkpt>
      <trkpt lat="42.829141" lon="-0.209995">
        <ele>2195.338</ele>
        <time>2020-07-21T15:15:59Z</time>
      </trkpt>
      <trkpt lat="42.829101" lon="-0.209953">
        <ele>2192.957</ele>
        <time>2020-07-21T15:16:17Z</time>
      </trkpt>
      <trkpt lat="42.829119" lon="-0.209894">
        <ele>2191.918</ele>
        <time>2020-07-21T15:16:23Z</time>
      </trkpt>
      <trkpt lat="42.829115" lon="-0.209811">
        <ele>2191.198</ele>
        <time>2020-07-21T15:16:31Z</time>
      </trkpt>
      <trkpt lat="42.829090" lon="-0.209758">
        <ele>2189.117</ele>
        <time>2020-07-21T15:16:37Z</time>
      </trkpt>
      <trkpt lat="42.829058" lon="-0.209699">
        <ele>2191.408</ele>
        <time>2020-07-21T15:16:43Z</time>
      </trkpt>
      <trkpt lat="42.829033" lon="-0.209637">
        <ele>2189.626</ele>
        <time>2020-07-21T15:16:51Z</time>
      </trkpt>
      <trkpt lat="42.829009" lon="-0.209575">
        <ele>2190.044</ele>
        <time>2020-07-21T15:16:57Z</time>
      </trkpt>
      <trkpt lat="42.828984" lon="-0.209523">
        <ele>2188.868</ele>
        <time>2020-07-21T15:17:03Z</time>
      </trkpt>
      <trkpt lat="42.828973" lon="-0.209460">
        <ele>2186.623</ele>
        <time>2020-07-21T15:17:11Z</time>
      </trkpt>
      <trkpt lat="42.828967" lon="-0.209370">
        <ele>2183.060</ele>
        <time>2020-07-21T15:17:21Z</time>
      </trkpt>
      <trkpt lat="42.828984" lon="-0.209299">
        <ele>2183.359</ele>
        <time>2020-07-21T15:17:27Z</time>
      </trkpt>
      <trkpt lat="42.829004" lon="-0.209230">
        <ele>2183.293</ele>
        <time>2020-07-21T15:17:33Z</time>
      </trkpt>
      <trkpt lat="42.829034" lon="-0.209183">
        <ele>2182.182</ele>
        <time>2020-07-21T15:17:39Z</time>
      </trkpt>
      <trkpt lat="42.829031" lon="-0.209098">
        <ele>2180.644</ele>
        <time>2020-07-21T15:17:47Z</time>
      </trkpt>
      <trkpt lat="42.829029" lon="-0.209022">
        <ele>2180.405</ele>
        <time>2020-07-21T15:17:53Z</time>
      </trkpt>
      <trkpt lat="42.829022" lon="-0.208961">
        <ele>2179.515</ele>
        <time>2020-07-21T15:18:01Z</time>
      </trkpt>
      <trkpt lat="42.828969" lon="-0.208898">
        <ele>2179.308</ele>
        <time>2020-07-21T15:18:07Z</time>
      </trkpt>
      <trkpt lat="42.828930" lon="-0.208855">
        <ele>2178.219</ele>
        <time>2020-07-21T15:18:13Z</time>
      </trkpt>
      <trkpt lat="42.828911" lon="-0.208798">
        <ele>2178.127</ele>
        <time>2020-07-21T15:18:17Z</time>
      </trkpt>
      <trkpt lat="42.828921" lon="-0.208723">
        <ele>2176.641</ele>
        <time>2020-07-21T15:18:23Z</time>
      </trkpt>
      <trkpt lat="42.828925" lon="-0.208662">
        <ele>2176.496</ele>
        <time>2020-07-21T15:18:29Z</time>
      </trkpt>
      <trkpt lat="42.828946" lon="-0.208605">
        <ele>2174.983</ele>
        <time>2020-07-21T15:18:35Z</time>
      </trkpt>
      <trkpt lat="42.828956" lon="-0.208535">
        <ele>2174.672</ele>
        <time>2020-07-21T15:18:43Z</time>
      </trkpt>
      <trkpt lat="42.828942" lon="-0.208474">
        <ele>2172.476</ele>
        <time>2020-07-21T15:18:51Z</time>
      </trkpt>
      <trkpt lat="42.828906" lon="-0.208430">
        <ele>2171.455</ele>
        <time>2020-07-21T15:18:57Z</time>
      </trkpt>
      <trkpt lat="42.828863" lon="-0.208403">
        <ele>2171.669</ele>
        <time>2020-07-21T15:19:03Z</time>
      </trkpt>
      <trkpt lat="42.828811" lon="-0.208397">
        <ele>2170.704</ele>
        <time>2020-07-21T15:19:13Z</time>
      </trkpt>
      <trkpt lat="42.828768" lon="-0.208366">
        <ele>2169.624</ele>
        <time>2020-07-21T15:19:21Z</time>
      </trkpt>
      <trkpt lat="42.828739" lon="-0.208304">
        <ele>2168.908</ele>
        <time>2020-07-21T15:19:31Z</time>
      </trkpt>
      <trkpt lat="42.828710" lon="-0.208250">
        <ele>2168.761</ele>
        <time>2020-07-21T15:19:37Z</time>
      </trkpt>
      <trkpt lat="42.828672" lon="-0.208199">
        <ele>2167.759</ele>
        <time>2020-07-21T15:19:45Z</time>
      </trkpt>
      <trkpt lat="42.828642" lon="-0.208142">
        <ele>2165.863</ele>
        <time>2020-07-21T15:19:55Z</time>
      </trkpt>
      <trkpt lat="42.828609" lon="-0.208079">
        <ele>2165.268</ele>
        <time>2020-07-21T15:20:01Z</time>
      </trkpt>
      <trkpt lat="42.828587" lon="-0.208009">
        <ele>2163.225</ele>
        <time>2020-07-21T15:20:09Z</time>
      </trkpt>
      <trkpt lat="42.828562" lon="-0.207953">
        <ele>2162.154</ele>
        <time>2020-07-21T15:20:17Z</time>
      </trkpt>
      <trkpt lat="42.828558" lon="-0.207888">
        <ele>2160.288</ele>
        <time>2020-07-21T15:20:23Z</time>
      </trkpt>
      <trkpt lat="42.828533" lon="-0.207837">
        <ele>2160.037</ele>
        <time>2020-07-21T15:20:31Z</time>
      </trkpt>
      <trkpt lat="42.828502" lon="-0.207785">
        <ele>2158.486</ele>
        <time>2020-07-21T15:20:39Z</time>
      </trkpt>
      <trkpt lat="42.828467" lon="-0.207729">
        <ele>2157.560</ele>
        <time>2020-07-21T15:20:49Z</time>
      </trkpt>
      <trkpt lat="42.828425" lon="-0.207672">
        <ele>2155.226</ele>
        <time>2020-07-21T15:20:57Z</time>
      </trkpt>
      <trkpt lat="42.828382" lon="-0.207600">
        <ele>2154.108</ele>
        <time>2020-07-21T15:21:03Z</time>
      </trkpt>
      <trkpt lat="42.828348" lon="-0.207559">
        <ele>2155.043</ele>
        <time>2020-07-21T15:21:07Z</time>
      </trkpt>
      <trkpt lat="42.828305" lon="-0.207518">
        <ele>2154.451</ele>
        <time>2020-07-21T15:21:13Z</time>
      </trkpt>
      <trkpt lat="42.828262" lon="-0.207548">
        <ele>2153.945</ele>
        <time>2020-07-21T15:21:23Z</time>
      </trkpt>
      <trkpt lat="42.828242" lon="-0.207627">
        <ele>2152.630</ele>
        <time>2020-07-21T15:21:31Z</time>
      </trkpt>
      <trkpt lat="42.828255" lon="-0.207703">
        <ele>2150.827</ele>
        <time>2020-07-21T15:21:39Z</time>
      </trkpt>
      <trkpt lat="42.828258" lon="-0.207771">
        <ele>2150.376</ele>
        <time>2020-07-21T15:21:47Z</time>
      </trkpt>
      <trkpt lat="42.828253" lon="-0.207854">
        <ele>2149.790</ele>
        <time>2020-07-21T15:21:55Z</time>
      </trkpt>
      <trkpt lat="42.828237" lon="-0.207922">
        <ele>2148.829</ele>
        <time>2020-07-21T15:22:01Z</time>
      </trkpt>
      <trkpt lat="42.828231" lon="-0.207989">
        <ele>2148.638</ele>
        <time>2020-07-21T15:22:07Z</time>
      </trkpt>
      <trkpt lat="42.828228" lon="-0.208059">
        <ele>2146.970</ele>
        <time>2020-07-21T15:22:15Z</time>
      </trkpt>
      <trkpt lat="42.828223" lon="-0.208132">
        <ele>2146.217</ele>
        <time>2020-07-21T15:22:23Z</time>
      </trkpt>
      <trkpt lat="42.828203" lon="-0.208201">
        <ele>2145.208</ele>
        <time>2020-07-21T15:22:29Z</time>
      </trkpt>
      <trkpt lat="42.828187" lon="-0.208282">
        <ele>2143.398</ele>
        <time>2020-07-21T15:22:37Z</time>
      </trkpt>
      <trkpt lat="42.828177" lon="-0.208345">
        <ele>2142.686</ele>
        <time>2020-07-21T15:22:43Z</time>
      </trkpt>
      <trkpt lat="42.828171" lon="-0.208418">
        <ele>2142.450</ele>
        <time>2020-07-21T15:22:49Z</time>
      </trkpt>
      <trkpt lat="42.828150" lon="-0.208491">
        <ele>2141.395</ele>
        <time>2020-07-21T15:22:57Z</time>
      </trkpt>
      <trkpt lat="42.828113" lon="-0.208535">
        <ele>2140.682</ele>
        <time>2020-07-21T15:23:05Z</time>
      </trkpt>
      <trkpt lat="42.828061" lon="-0.208527">
        <ele>2139.291</ele>
        <time>2020-07-21T15:23:15Z</time>
      </trkpt>
      <trkpt lat="42.828021" lon="-0.208471">
        <ele>2137.475</ele>
        <time>2020-07-21T15:23:23Z</time>
      </trkpt>
      <trkpt lat="42.827999" lon="-0.208410">
        <ele>2137.074</ele>
        <time>2020-07-21T15:23:31Z</time>
      </trkpt>
      <trkpt lat="42.827963" lon="-0.208373">
        <ele>2136.111</ele>
        <time>2020-07-21T15:23:37Z</time>
      </trkpt>
      <trkpt lat="42.827928" lon="-0.208324">
        <ele>2134.421</ele>
        <time>2020-07-21T15:23:45Z</time>
      </trkpt>
      <trkpt lat="42.827889" lon="-0.208285">
        <ele>2133.503</ele>
        <time>2020-07-21T15:23:53Z</time>
      </trkpt>
      <trkpt lat="42.827849" lon="-0.208222">
        <ele>2132.508</ele>
        <time>2020-07-21T15:24:01Z</time>
      </trkpt>
      <trkpt lat="42.827807" lon="-0.208181">
        <ele>2131.516</ele>
        <time>2020-07-21T15:24:11Z</time>
      </trkpt>
      <trkpt lat="42.827759" lon="-0.208167">
        <ele>2128.664</ele>
        <time>2020-07-21T15:24:21Z</time>
      </trkpt>
      <trkpt lat="42.827715" lon="-0.208152">
        <ele>2128.398</ele>
        <time>2020-07-21T15:24:27Z</time>
      </trkpt>
      <trkpt lat="42.827667" lon="-0.208103">
        <ele>2127.573</ele>
        <time>2020-07-21T15:24:35Z</time>
      </trkpt>
      <trkpt lat="42.827624" lon="-0.208043">
        <ele>2126.050</ele>
        <time>2020-07-21T15:24:45Z</time>
      </trkpt>
      <trkpt lat="42.827602" lon="-0.207988">
        <ele>2124.889</ele>
        <time>2020-07-21T15:24:51Z</time>
      </trkpt>
      <trkpt lat="42.827563" lon="-0.207951">
        <ele>2123.933</ele>
        <time>2020-07-21T15:25:01Z</time>
      </trkpt>
      <trkpt lat="42.827517" lon="-0.207911">
        <ele>2123.012</ele>
        <time>2020-07-21T15:25:09Z</time>
      </trkpt>
      <trkpt lat="42.827477" lon="-0.207860">
        <ele>2123.665</ele>
        <time>2020-07-21T15:25:15Z</time>
      </trkpt>
      <trkpt lat="42.827439" lon="-0.207801">
        <ele>2122.268</ele>
        <time>2020-07-21T15:25:21Z</time>
      </trkpt>
      <trkpt lat="42.827401" lon="-0.207761">
        <ele>2120.214</ele>
        <time>2020-07-21T15:25:27Z</time>
      </trkpt>
      <trkpt lat="42.827351" lon="-0.207782">
        <ele>2120.308</ele>
        <time>2020-07-21T15:25:39Z</time>
      </trkpt>
      <trkpt lat="42.827331" lon="-0.207844">
        <ele>2117.711</ele>
        <time>2020-07-21T15:25:45Z</time>
      </trkpt>
      <trkpt lat="42.827282" lon="-0.207875">
        <ele>2118.259</ele>
        <time>2020-07-21T15:25:53Z</time>
      </trkpt>
      <trkpt lat="42.827239" lon="-0.207900">
        <ele>2117.473</ele>
        <time>2020-07-21T15:25:59Z</time>
      </trkpt>
      <trkpt lat="42.827192" lon="-0.207919">
        <ele>2117.248</ele>
        <time>2020-07-21T15:26:05Z</time>
      </trkpt>
      <trkpt lat="42.827142" lon="-0.207945">
        <ele>2117.195</ele>
        <time>2020-07-21T15:26:13Z</time>
      </trkpt>
      <trkpt lat="42.827091" lon="-0.207935">
        <ele>2113.374</ele>
        <time>2020-07-21T15:26:19Z</time>
      </trkpt>
      <trkpt lat="42.827050" lon="-0.207899">
        <ele>2113.968</ele>
        <time>2020-07-21T15:26:25Z</time>
      </trkpt>
      <trkpt lat="42.827009" lon="-0.207843">
        <ele>2113.857</ele>
        <time>2020-07-21T15:26:31Z</time>
      </trkpt>
      <trkpt lat="42.827005" lon="-0.207776">
        <ele>2111.895</ele>
        <time>2020-07-21T15:26:41Z</time>
      </trkpt>
      <trkpt lat="42.827024" lon="-0.207721">
        <ele>2110.649</ele>
        <time>2020-07-21T15:26:51Z</time>
      </trkpt>
      <trkpt lat="42.827011" lon="-0.207665">
        <ele>2109.523</ele>
        <time>2020-07-21T15:26:59Z</time>
      </trkpt>
      <trkpt lat="42.827004" lon="-0.207589">
        <ele>2107.108</ele>
        <time>2020-07-21T15:27:11Z</time>
      </trkpt>
      <trkpt lat="42.827019" lon="-0.207513">
        <ele>2106.464</ele>
        <time>2020-07-21T15:27:17Z</time>
      </trkpt>
      <trkpt lat="42.827010" lon="-0.207437">
        <ele>2104.982</ele>
        <time>2020-07-21T15:27:25Z</time>
      </trkpt>
      <trkpt lat="42.826985" lon="-0.207385">
        <ele>2104.056</ele>
        <time>2020-07-21T15:27:31Z</time>
      </trkpt>
      <trkpt lat="42.826954" lon="-0.207315">
        <ele>2102.971</ele>
        <time>2020-07-21T15:27:41Z</time>
      </trkpt>
      <trkpt lat="42.826917" lon="-0.207248">
        <ele>2102.078</ele>
        <time>2020-07-21T15:27:47Z</time>
      </trkpt>
      <trkpt lat="42.826881" lon="-0.207195">
        <ele>2101.327</ele>
        <time>2020-07-21T15:27:51Z</time>
      </trkpt>
      <trkpt lat="42.826855" lon="-0.207140">
        <ele>2100.931</ele>
        <time>2020-07-21T15:28:21Z</time>
      </trkpt>
      <trkpt lat="42.826840" lon="-0.207081">
        <ele>2098.540</ele>
        <time>2020-07-21T15:28:31Z</time>
      </trkpt>
      <trkpt lat="42.826831" lon="-0.207018">
        <ele>2098.413</ele>
        <time>2020-07-21T15:28:37Z</time>
      </trkpt>
      <trkpt lat="42.826826" lon="-0.206940">
        <ele>2098.143</ele>
        <time>2020-07-21T15:28:43Z</time>
      </trkpt>
      <trkpt lat="42.826811" lon="-0.206876">
        <ele>2097.207</ele>
        <time>2020-07-21T15:28:49Z</time>
      </trkpt>
      <trkpt lat="42.826798" lon="-0.206813">
        <ele>2096.508</ele>
        <time>2020-07-21T15:28:55Z</time>
      </trkpt>
      <trkpt lat="42.826800" lon="-0.206733">
        <ele>2095.636</ele>
        <time>2020-07-21T15:29:01Z</time>
      </trkpt>
      <trkpt lat="42.826780" lon="-0.206661">
        <ele>2094.784</ele>
        <time>2020-07-21T15:29:08Z</time>
      </trkpt>
      <trkpt lat="42.826766" lon="-0.206581">
        <ele>2094.698</ele>
        <time>2020-07-21T15:29:16Z</time>
      </trkpt>
      <trkpt lat="42.826767" lon="-0.206509">
        <ele>2094.253</ele>
        <time>2020-07-21T15:29:22Z</time>
      </trkpt>
      <trkpt lat="42.826749" lon="-0.206442">
        <ele>2093.420</ele>
        <time>2020-07-21T15:29:30Z</time>
      </trkpt>
      <trkpt lat="42.826734" lon="-0.206382">
        <ele>2092.059</ele>
        <time>2020-07-21T15:29:42Z</time>
      </trkpt>
      <trkpt lat="42.826697" lon="-0.206338">
        <ele>2090.823</ele>
        <time>2020-07-21T15:30:40Z</time>
      </trkpt>
      <trkpt lat="42.826687" lon="-0.206276">
        <ele>2089.542</ele>
        <time>2020-07-21T15:30:46Z</time>
      </trkpt>
      <trkpt lat="42.826648" lon="-0.206219">
        <ele>2088.315</ele>
        <time>2020-07-21T15:30:56Z</time>
      </trkpt>
      <trkpt lat="42.826649" lon="-0.206149">
        <ele>2087.265</ele>
        <time>2020-07-21T15:31:00Z</time>
      </trkpt>
      <trkpt lat="42.826628" lon="-0.206081">
        <ele>2086.511</ele>
        <time>2020-07-21T15:31:14Z</time>
      </trkpt>
      <trkpt lat="42.826598" lon="-0.206021">
        <ele>2085.108</ele>
        <time>2020-07-21T15:31:24Z</time>
      </trkpt>
      <trkpt lat="42.826572" lon="-0.205961">
        <ele>2084.666</ele>
        <time>2020-07-21T15:31:32Z</time>
      </trkpt>
      <trkpt lat="42.826536" lon="-0.205910">
        <ele>2084.024</ele>
        <time>2020-07-21T15:31:38Z</time>
      </trkpt>
      <trkpt lat="42.826504" lon="-0.205856">
        <ele>2083.188</ele>
        <time>2020-07-21T15:31:46Z</time>
      </trkpt>
      <trkpt lat="42.826485" lon="-0.205793">
        <ele>2082.193</ele>
        <time>2020-07-21T15:31:52Z</time>
      </trkpt>
      <trkpt lat="42.826464" lon="-0.205732">
        <ele>2081.030</ele>
        <time>2020-07-21T15:32:00Z</time>
      </trkpt>
      <trkpt lat="42.826457" lon="-0.205660">
        <ele>2080.669</ele>
        <time>2020-07-21T15:32:06Z</time>
      </trkpt>
      <trkpt lat="42.826454" lon="-0.205598">
        <ele>2079.143</ele>
        <time>2020-07-21T15:32:12Z</time>
      </trkpt>
      <trkpt lat="42.826473" lon="-0.205525">
        <ele>2079.242</ele>
        <time>2020-07-21T15:32:18Z</time>
      </trkpt>
      <trkpt lat="42.826476" lon="-0.205453">
        <ele>2078.764</ele>
        <time>2020-07-21T15:32:24Z</time>
      </trkpt>
      <trkpt lat="42.826462" lon="-0.205381">
        <ele>2078.806</ele>
        <time>2020-07-21T15:32:30Z</time>
      </trkpt>
      <trkpt lat="42.826456" lon="-0.205313">
        <ele>2077.116</ele>
        <time>2020-07-21T15:32:36Z</time>
      </trkpt>
      <trkpt lat="42.826442" lon="-0.205236">
        <ele>2076.908</ele>
        <time>2020-07-21T15:32:44Z</time>
      </trkpt>
      <trkpt lat="42.826436" lon="-0.205170">
        <ele>2075.791</ele>
        <time>2020-07-21T15:32:50Z</time>
      </trkpt>
      <trkpt lat="42.826437" lon="-0.205099">
        <ele>2074.329</ele>
        <time>2020-07-21T15:33:02Z</time>
      </trkpt>
      <trkpt lat="42.826433" lon="-0.205037">
        <ele>2073.563</ele>
        <time>2020-07-21T15:33:18Z</time>
      </trkpt>
      <trkpt lat="42.826407" lon="-0.205099">
        <ele>2072.988</ele>
        <time>2020-07-21T15:33:50Z</time>
      </trkpt>
      <trkpt lat="42.826378" lon="-0.205173">
        <ele>2074.485</ele>
        <time>2020-07-21T15:33:56Z</time>
      </trkpt>
      <trkpt lat="42.826360" lon="-0.205257">
        <ele>2071.874</ele>
        <time>2020-07-21T15:34:02Z</time>
      </trkpt>
      <trkpt lat="42.826330" lon="-0.205321">
        <ele>2071.068</ele>
        <time>2020-07-21T15:34:08Z</time>
      </trkpt>
      <trkpt lat="42.826310" lon="-0.205240">
        <ele>2069.397</ele>
        <time>2020-07-21T15:34:24Z</time>
      </trkpt>
      <trkpt lat="42.826289" lon="-0.205156">
        <ele>2068.369</ele>
        <time>2020-07-21T15:34:30Z</time>
      </trkpt>
      <trkpt lat="42.826281" lon="-0.205083">
        <ele>2068.004</ele>
        <time>2020-07-21T15:34:36Z</time>
      </trkpt>
      <trkpt lat="42.826265" lon="-0.205012">
        <ele>2066.524</ele>
        <time>2020-07-21T15:34:46Z</time>
      </trkpt>
      <trkpt lat="42.826253" lon="-0.204932">
        <ele>2065.008</ele>
        <time>2020-07-21T15:34:54Z</time>
      </trkpt>
      <trkpt lat="42.826243" lon="-0.204871">
        <ele>2064.091</ele>
        <time>2020-07-21T15:35:02Z</time>
      </trkpt>
      <trkpt lat="42.826262" lon="-0.204805">
        <ele>2062.799</ele>
        <time>2020-07-21T15:35:16Z</time>
      </trkpt>
      <trkpt lat="42.826315" lon="-0.204772">
        <ele>2061.723</ele>
        <time>2020-07-21T15:35:24Z</time>
      </trkpt>
      <trkpt lat="42.826369" lon="-0.204753">
        <ele>2061.198</ele>
        <time>2020-07-21T15:35:45Z</time>
      </trkpt>
      <trkpt lat="42.826413" lon="-0.204772">
        <ele>2058.825</ele>
        <time>2020-07-21T15:35:57Z</time>
      </trkpt>
      <trkpt lat="42.826462" lon="-0.204762">
        <ele>2058.484</ele>
        <time>2020-07-21T15:36:03Z</time>
      </trkpt>
      <trkpt lat="42.826495" lon="-0.204695">
        <ele>2058.088</ele>
        <time>2020-07-21T15:36:09Z</time>
      </trkpt>
      <trkpt lat="42.826529" lon="-0.204640">
        <ele>2058.567</ele>
        <time>2020-07-21T15:36:15Z</time>
      </trkpt>
      <trkpt lat="42.826529" lon="-0.204567">
        <ele>2058.354</ele>
        <time>2020-07-21T15:36:49Z</time>
      </trkpt>
      <trkpt lat="42.826515" lon="-0.204504">
        <ele>2058.656</ele>
        <time>2020-07-21T15:36:57Z</time>
      </trkpt>
      <trkpt lat="42.826463" lon="-0.204475">
        <ele>2057.711</ele>
        <time>2020-07-21T15:37:05Z</time>
      </trkpt>
      <trkpt lat="42.826429" lon="-0.204429">
        <ele>2056.708</ele>
        <time>2020-07-21T15:37:11Z</time>
      </trkpt>
      <trkpt lat="42.826416" lon="-0.204347">
        <ele>2057.690</ele>
        <time>2020-07-21T15:37:17Z</time>
      </trkpt>
      <trkpt lat="42.826386" lon="-0.204289">
        <ele>2054.938</ele>
        <time>2020-07-21T15:37:23Z</time>
      </trkpt>
      <trkpt lat="42.826361" lon="-0.204231">
        <ele>2055.862</ele>
        <time>2020-07-21T15:37:29Z</time>
      </trkpt>
      <trkpt lat="42.826332" lon="-0.204147">
        <ele>2055.647</ele>
        <time>2020-07-21T15:37:35Z</time>
      </trkpt>
      <trkpt lat="42.826294" lon="-0.204078">
        <ele>2054.034</ele>
        <time>2020-07-21T15:37:41Z</time>
      </trkpt>
      <trkpt lat="42.826262" lon="-0.204006">
        <ele>2054.643</ele>
        <time>2020-07-21T15:37:47Z</time>
      </trkpt>
      <trkpt lat="42.826234" lon="-0.203952">
        <ele>2054.067</ele>
        <time>2020-07-21T15:37:53Z</time>
      </trkpt>
      <trkpt lat="42.826198" lon="-0.203893">
        <ele>2052.716</ele>
        <time>2020-07-21T15:37:59Z</time>
      </trkpt>
      <trkpt lat="42.826172" lon="-0.203835">
        <ele>2053.472</ele>
        <time>2020-07-21T15:38:03Z</time>
      </trkpt>
      <trkpt lat="42.826143" lon="-0.203783">
        <ele>2053.513</ele>
        <time>2020-07-21T15:38:07Z</time>
      </trkpt>
      <trkpt lat="42.826118" lon="-0.203711">
        <ele>2053.314</ele>
        <time>2020-07-21T15:38:13Z</time>
      </trkpt>
      <trkpt lat="42.826093" lon="-0.203654">
        <ele>2053.308</ele>
        <time>2020-07-21T15:38:19Z</time>
      </trkpt>
      <trkpt lat="42.826084" lon="-0.203593">
        <ele>2053.162</ele>
        <time>2020-07-21T15:39:01Z</time>
      </trkpt>
      <trkpt lat="42.826058" lon="-0.203527">
        <ele>2052.340</ele>
        <time>2020-07-21T15:39:25Z</time>
      </trkpt>
      <trkpt lat="42.826047" lon="-0.203450">
        <ele>2051.084</ele>
        <time>2020-07-21T15:39:31Z</time>
      </trkpt>
      <trkpt lat="42.826025" lon="-0.203379">
        <ele>2050.379</ele>
        <time>2020-07-21T15:39:39Z</time>
      </trkpt>
      <trkpt lat="42.826021" lon="-0.203308">
        <ele>2049.276</ele>
        <time>2020-07-21T15:39:45Z</time>
      </trkpt>
      <trkpt lat="42.826053" lon="-0.203250">
        <ele>2049.425</ele>
        <time>2020-07-21T15:39:53Z</time>
      </trkpt>
      <trkpt lat="42.826095" lon="-0.203203">
        <ele>2048.669</ele>
        <time>2020-07-21T15:40:01Z</time>
      </trkpt>
      <trkpt lat="42.826125" lon="-0.203152">
        <ele>2048.988</ele>
        <time>2020-07-21T15:40:05Z</time>
      </trkpt>
      <trkpt lat="42.826129" lon="-0.203082">
        <ele>2046.667</ele>
        <time>2020-07-21T15:40:11Z</time>
      </trkpt>
      <trkpt lat="42.826133" lon="-0.203000">
        <ele>2046.981</ele>
        <time>2020-07-21T15:40:17Z</time>
      </trkpt>
      <trkpt lat="42.826101" lon="-0.202946">
        <ele>2046.019</ele>
        <time>2020-07-21T15:40:25Z</time>
      </trkpt>
      <trkpt lat="42.826094" lon="-0.202880">
        <ele>2044.408</ele>
        <time>2020-07-21T15:40:31Z</time>
      </trkpt>
      <trkpt lat="42.826080" lon="-0.202819">
        <ele>2044.581</ele>
        <time>2020-07-21T15:40:37Z</time>
      </trkpt>
      <trkpt lat="42.826092" lon="-0.202754">
        <ele>2043.789</ele>
        <time>2020-07-21T15:40:43Z</time>
      </trkpt>
      <trkpt lat="42.826068" lon="-0.202697">
        <ele>2042.723</ele>
        <time>2020-07-21T15:40:49Z</time>
      </trkpt>
      <trkpt lat="42.826043" lon="-0.202637">
        <ele>2043.078</ele>
        <time>2020-07-21T15:40:55Z</time>
      </trkpt>
      <trkpt lat="42.826047" lon="-0.202571">
        <ele>2042.325</ele>
        <time>2020-07-21T15:41:01Z</time>
      </trkpt>
      <trkpt lat="42.826060" lon="-0.202485">
        <ele>2041.564</ele>
        <time>2020-07-21T15:41:07Z</time>
      </trkpt>
      <trkpt lat="42.826075" lon="-0.202403">
        <ele>2040.778</ele>
        <time>2020-07-21T15:41:13Z</time>
      </trkpt>
      <trkpt lat="42.826082" lon="-0.202339">
        <ele>2041.617</ele>
        <time>2020-07-21T15:41:17Z</time>
      </trkpt>
      <trkpt lat="42.826096" lon="-0.202273">
        <ele>2040.269</ele>
        <time>2020-07-21T15:41:31Z</time>
      </trkpt>
      <trkpt lat="42.826119" lon="-0.202192">
        <ele>2040.904</ele>
        <time>2020-07-21T15:41:37Z</time>
      </trkpt>
      <trkpt lat="42.826141" lon="-0.202137">
        <ele>2039.724</ele>
        <time>2020-07-21T15:41:41Z</time>
      </trkpt>
      <trkpt lat="42.826174" lon="-0.202086">
        <ele>2039.708</ele>
        <time>2020-07-21T15:41:45Z</time>
      </trkpt>
      <trkpt lat="42.826192" lon="-0.202026">
        <ele>2040.741</ele>
        <time>2020-07-21T15:41:49Z</time>
      </trkpt>
      <trkpt lat="42.826174" lon="-0.201956">
        <ele>2036.679</ele>
        <time>2020-07-21T15:41:57Z</time>
      </trkpt>
      <trkpt lat="42.826155" lon="-0.201895">
        <ele>2039.973</ele>
        <time>2020-07-21T15:42:03Z</time>
      </trkpt>
      <trkpt lat="42.826138" lon="-0.201832">
        <ele>2040.348</ele>
        <time>2020-07-21T15:42:07Z</time>
      </trkpt>
      <trkpt lat="42.826123" lon="-0.201768">
        <ele>2041.675</ele>
        <time>2020-07-21T15:42:11Z</time>
      </trkpt>
      <trkpt lat="42.826106" lon="-0.201706">
        <ele>2039.014</ele>
        <time>2020-07-21T15:42:15Z</time>
      </trkpt>
      <trkpt lat="42.826092" lon="-0.201646">
        <ele>2040.338</ele>
        <time>2020-07-21T15:42:19Z</time>
      </trkpt>
      <trkpt lat="42.826076" lon="-0.201586">
        <ele>2040.157</ele>
        <time>2020-07-21T15:42:23Z</time>
      </trkpt>
      <trkpt lat="42.826060" lon="-0.201530">
        <ele>2040.014</ele>
        <time>2020-07-21T15:42:29Z</time>
      </trkpt>
      <trkpt lat="42.826070" lon="-0.201460">
        <ele>2036.854</ele>
        <time>2020-07-21T15:42:37Z</time>
      </trkpt>
      <trkpt lat="42.826077" lon="-0.201408">
        <ele>2039.909</ele>
        <time>2020-07-21T15:42:48Z</time>
      </trkpt>
      <trkpt lat="42.826028" lon="-0.201356">
        <ele>2039.708</ele>
        <time>2020-07-21T15:44:20Z</time>
      </trkpt>
      <trkpt lat="42.825986" lon="-0.201330">
        <ele>2039.656</ele>
        <time>2020-07-21T15:44:24Z</time>
      </trkpt>
      <trkpt lat="42.825949" lon="-0.201293">
        <ele>2038.914</ele>
        <time>2020-07-21T15:44:28Z</time>
      </trkpt>
      <trkpt lat="42.825909" lon="-0.201226">
        <ele>2038.818</ele>
        <time>2020-07-21T15:44:34Z</time>
      </trkpt>
      <trkpt lat="42.825882" lon="-0.201161">
        <ele>2038.433</ele>
        <time>2020-07-21T15:44:40Z</time>
      </trkpt>
      <trkpt lat="42.825849" lon="-0.201101">
        <ele>2037.840</ele>
        <time>2020-07-21T15:44:52Z</time>
      </trkpt>
      <trkpt lat="42.825833" lon="-0.201024">
        <ele>2037.699</ele>
        <time>2020-07-21T15:45:00Z</time>
      </trkpt>
      <trkpt lat="42.825810" lon="-0.200958">
        <ele>2035.613</ele>
        <time>2020-07-21T15:45:08Z</time>
      </trkpt>
      <trkpt lat="42.825808" lon="-0.200888">
        <ele>2035.112</ele>
        <time>2020-07-21T15:45:16Z</time>
      </trkpt>
      <trkpt lat="42.825792" lon="-0.200818">
        <ele>2033.781</ele>
        <time>2020-07-21T15:45:24Z</time>
      </trkpt>
      <trkpt lat="42.825761" lon="-0.200765">
        <ele>2032.861</ele>
        <time>2020-07-21T15:45:30Z</time>
      </trkpt>
      <trkpt lat="42.825751" lon="-0.200685">
        <ele>2032.617</ele>
        <time>2020-07-21T15:45:36Z</time>
      </trkpt>
      <trkpt lat="42.825740" lon="-0.200608">
        <ele>2031.708</ele>
        <time>2020-07-21T15:45:42Z</time>
      </trkpt>
      <trkpt lat="42.825725" lon="-0.200531">
        <ele>2031.433</ele>
        <time>2020-07-21T15:45:50Z</time>
      </trkpt>
      <trkpt lat="42.825716" lon="-0.200450">
        <ele>2031.191</ele>
        <time>2020-07-21T15:45:58Z</time>
      </trkpt>
      <trkpt lat="42.825682" lon="-0.200397">
        <ele>2030.835</ele>
        <time>2020-07-21T15:46:04Z</time>
      </trkpt>
      <trkpt lat="42.825624" lon="-0.200365">
        <ele>2028.890</ele>
        <time>2020-07-21T15:46:14Z</time>
      </trkpt>
      <trkpt lat="42.825566" lon="-0.200336">
        <ele>2028.897</ele>
        <time>2020-07-21T15:46:20Z</time>
      </trkpt>
      <trkpt lat="42.825520" lon="-0.200316">
        <ele>2028.196</ele>
        <time>2020-07-21T15:46:26Z</time>
      </trkpt>
      <trkpt lat="42.825460" lon="-0.200321">
        <ele>2026.510</ele>
        <time>2020-07-21T15:46:38Z</time>
      </trkpt>
      <trkpt lat="42.825403" lon="-0.200290">
        <ele>2025.159</ele>
        <time>2020-07-21T15:46:44Z</time>
      </trkpt>
      <trkpt lat="42.825360" lon="-0.200258">
        <ele>2024.636</ele>
        <time>2020-07-21T15:46:50Z</time>
      </trkpt>
      <trkpt lat="42.825318" lon="-0.200221">
        <ele>2024.317</ele>
        <time>2020-07-21T15:46:58Z</time>
      </trkpt>
      <trkpt lat="42.825270" lon="-0.200186">
        <ele>2022.818</ele>
        <time>2020-07-21T15:47:08Z</time>
      </trkpt>
      <trkpt lat="42.825241" lon="-0.200120">
        <ele>2020.608</ele>
        <time>2020-07-21T15:47:14Z</time>
      </trkpt>
      <trkpt lat="42.825200" lon="-0.200052">
        <ele>2020.718</ele>
        <time>2020-07-21T15:47:20Z</time>
      </trkpt>
      <trkpt lat="42.825148" lon="-0.199989">
        <ele>2019.626</ele>
        <time>2020-07-21T15:47:26Z</time>
      </trkpt>
      <trkpt lat="42.825112" lon="-0.199947">
        <ele>2020.030</ele>
        <time>2020-07-21T15:47:30Z</time>
      </trkpt>
      <trkpt lat="42.825083" lon="-0.199893">
        <ele>2019.045</ele>
        <time>2020-07-21T15:47:36Z</time>
      </trkpt>
      <trkpt lat="42.825075" lon="-0.199828">
        <ele>2017.782</ele>
        <time>2020-07-21T15:47:44Z</time>
      </trkpt>
      <trkpt lat="42.825061" lon="-0.199760">
        <ele>2017.491</ele>
        <time>2020-07-21T15:47:50Z</time>
      </trkpt>
      <trkpt lat="42.825034" lon="-0.199711">
        <ele>2017.165</ele>
        <time>2020-07-21T15:47:58Z</time>
      </trkpt>
      <trkpt lat="42.824989" lon="-0.199702">
        <ele>2016.314</ele>
        <time>2020-07-21T15:48:08Z</time>
      </trkpt>
      <trkpt lat="42.824945" lon="-0.199691">
        <ele>2015.431</ele>
        <time>2020-07-21T15:48:14Z</time>
      </trkpt>
      <trkpt lat="42.824909" lon="-0.199627">
        <ele>2014.461</ele>
        <time>2020-07-21T15:48:20Z</time>
      </trkpt>
      <trkpt lat="42.824867" lon="-0.199591">
        <ele>2012.207</ele>
        <time>2020-07-21T15:48:28Z</time>
      </trkpt>
      <trkpt lat="42.824816" lon="-0.199576">
        <ele>2012.508</ele>
        <time>2020-07-21T15:48:36Z</time>
      </trkpt>
      <trkpt lat="42.824767" lon="-0.199550">
        <ele>2011.478</ele>
        <time>2020-07-21T15:48:44Z</time>
      </trkpt>
      <trkpt lat="42.824727" lon="-0.199513">
        <ele>2010.286</ele>
        <time>2020-07-21T15:48:50Z</time>
      </trkpt>
      <trkpt lat="42.824673" lon="-0.199482">
        <ele>2009.680</ele>
        <time>2020-07-21T15:48:56Z</time>
      </trkpt>
      <trkpt lat="42.824628" lon="-0.199450">
        <ele>2008.975</ele>
        <time>2020-07-21T15:49:02Z</time>
      </trkpt>
      <trkpt lat="42.824598" lon="-0.199389">
        <ele>2007.482</ele>
        <time>2020-07-21T15:49:08Z</time>
      </trkpt>
      <trkpt lat="42.824551" lon="-0.199358">
        <ele>2007.761</ele>
        <time>2020-07-21T15:49:14Z</time>
      </trkpt>
      <trkpt lat="42.824508" lon="-0.199331">
        <ele>2006.635</ele>
        <time>2020-07-21T15:49:22Z</time>
      </trkpt>
      <trkpt lat="42.824464" lon="-0.199289">
        <ele>2004.324</ele>
        <time>2020-07-21T15:49:31Z</time>
      </trkpt>
      <trkpt lat="42.824413" lon="-0.199244">
        <ele>2002.829</ele>
        <time>2020-07-21T15:49:39Z</time>
      </trkpt>
      <trkpt lat="42.824358" lon="-0.199215">
        <ele>2002.800</ele>
        <time>2020-07-21T15:49:45Z</time>
      </trkpt>
      <trkpt lat="42.824301" lon="-0.199178">
        <ele>2001.820</ele>
        <time>2020-07-21T15:49:53Z</time>
      </trkpt>
      <trkpt lat="42.824248" lon="-0.199147">
        <ele>2000.808</ele>
        <time>2020-07-21T15:49:59Z</time>
      </trkpt>
      <trkpt lat="42.824196" lon="-0.199106">
        <ele>2001.167</ele>
        <time>2020-07-21T15:50:05Z</time>
      </trkpt>
      <trkpt lat="42.824149" lon="-0.199101">
        <ele>1999.045</ele>
        <time>2020-07-21T15:50:11Z</time>
      </trkpt>
      <trkpt lat="42.824097" lon="-0.199083">
        <ele>1998.889</ele>
        <time>2020-07-21T15:50:19Z</time>
      </trkpt>
      <trkpt lat="42.824059" lon="-0.199048">
        <ele>1996.574</ele>
        <time>2020-07-21T15:50:27Z</time>
      </trkpt>
      <trkpt lat="42.824007" lon="-0.199048">
        <ele>1994.811</ele>
        <time>2020-07-21T15:50:37Z</time>
      </trkpt>
      <trkpt lat="42.823950" lon="-0.199049">
        <ele>1991.730</ele>
        <time>2020-07-21T15:50:43Z</time>
      </trkpt>
      <trkpt lat="42.823903" lon="-0.199031">
        <ele>1991.044</ele>
        <time>2020-07-21T15:50:53Z</time>
      </trkpt>
      <trkpt lat="42.823847" lon="-0.199061">
        <ele>1989.513</ele>
        <time>2020-07-21T15:51:01Z</time>
      </trkpt>
      <trkpt lat="42.823801" lon="-0.199067">
        <ele>1988.212</ele>
        <time>2020-07-21T15:51:05Z</time>
      </trkpt>
      <trkpt lat="42.823801" lon="-0.199140">
        <ele>1985.532</ele>
        <time>2020-07-21T15:51:21Z</time>
      </trkpt>
      <trkpt lat="42.823826" lon="-0.199192">
        <ele>1984.905</ele>
        <time>2020-07-21T15:51:25Z</time>
      </trkpt>
      <trkpt lat="42.823846" lon="-0.199264">
        <ele>1983.808</ele>
        <time>2020-07-21T15:51:31Z</time>
      </trkpt>
      <trkpt lat="42.823869" lon="-0.199340">
        <ele>1982.526</ele>
        <time>2020-07-21T15:51:37Z</time>
      </trkpt>
      <trkpt lat="42.823885" lon="-0.199409">
        <ele>1981.154</ele>
        <time>2020-07-21T15:51:47Z</time>
      </trkpt>
      <trkpt lat="42.823907" lon="-0.199485">
        <ele>1979.878</ele>
        <time>2020-07-21T15:51:53Z</time>
      </trkpt>
      <trkpt lat="42.823870" lon="-0.199529">
        <ele>1979.433</ele>
        <time>2020-07-21T15:51:59Z</time>
      </trkpt>
      <trkpt lat="42.823817" lon="-0.199507">
        <ele>1978.540</ele>
        <time>2020-07-21T15:52:07Z</time>
      </trkpt>
      <trkpt lat="42.823767" lon="-0.199481">
        <ele>1977.869</ele>
        <time>2020-07-21T15:52:11Z</time>
      </trkpt>
      <trkpt lat="42.823711" lon="-0.199467">
        <ele>1976.843</ele>
        <time>2020-07-21T15:52:17Z</time>
      </trkpt>
      <trkpt lat="42.823652" lon="-0.199442">
        <ele>1976.262</ele>
        <time>2020-07-21T15:52:23Z</time>
      </trkpt>
      <trkpt lat="42.823600" lon="-0.199439">
        <ele>1976.043</ele>
        <time>2020-07-21T15:54:16Z</time>
      </trkpt>
      <trkpt lat="42.823542" lon="-0.199415">
        <ele>1974.264</ele>
        <time>2020-07-21T15:54:24Z</time>
      </trkpt>
      <trkpt lat="42.823486" lon="-0.199418">
        <ele>1971.510</ele>
        <time>2020-07-21T15:54:32Z</time>
      </trkpt>
      <trkpt lat="42.823437" lon="-0.199418">
        <ele>1972.008</ele>
        <time>2020-07-21T15:54:40Z</time>
      </trkpt>
      <trkpt lat="42.823399" lon="-0.199381">
        <ele>1970.139</ele>
        <time>2020-07-21T15:54:50Z</time>
      </trkpt>
      <trkpt lat="42.823361" lon="-0.199338">
        <ele>1969.737</ele>
        <time>2020-07-21T15:54:56Z</time>
      </trkpt>
      <trkpt lat="42.823313" lon="-0.199332">
        <ele>1968.421</ele>
        <time>2020-07-21T15:55:08Z</time>
      </trkpt>
      <trkpt lat="42.823255" lon="-0.199316">
        <ele>1968.736</ele>
        <time>2020-07-21T15:55:14Z</time>
      </trkpt>
      <trkpt lat="42.823195" lon="-0.199322">
        <ele>1967.653</ele>
        <time>2020-07-21T15:55:20Z</time>
      </trkpt>
      <trkpt lat="42.823133" lon="-0.199310">
        <ele>1967.662</ele>
        <time>2020-07-21T15:55:36Z</time>
      </trkpt>
      <trkpt lat="42.823084" lon="-0.199291">
        <ele>1965.936</ele>
        <time>2020-07-21T15:56:06Z</time>
      </trkpt>
      <trkpt lat="42.823038" lon="-0.199290">
        <ele>1964.145</ele>
        <time>2020-07-21T15:56:16Z</time>
      </trkpt>
      <trkpt lat="42.823000" lon="-0.199234">
        <ele>1964.178</ele>
        <time>2020-07-21T15:56:22Z</time>
      </trkpt>
      <trkpt lat="42.822977" lon="-0.199171">
        <ele>1964.033</ele>
        <time>2020-07-21T15:56:28Z</time>
      </trkpt>
      <trkpt lat="42.822975" lon="-0.199108">
        <ele>1960.326</ele>
        <time>2020-07-21T15:56:36Z</time>
      </trkpt>
      <trkpt lat="42.822962" lon="-0.199042">
        <ele>1962.808</ele>
        <time>2020-07-21T15:56:42Z</time>
      </trkpt>
      <trkpt lat="42.822950" lon="-0.198982">
        <ele>1960.522</ele>
        <time>2020-07-21T15:56:48Z</time>
      </trkpt>
      <trkpt lat="42.822923" lon="-0.198910">
        <ele>1957.870</ele>
        <time>2020-07-21T15:56:54Z</time>
      </trkpt>
      <trkpt lat="42.822900" lon="-0.198848">
        <ele>1958.094</ele>
        <time>2020-07-21T15:57:00Z</time>
      </trkpt>
      <trkpt lat="42.822848" lon="-0.198796">
        <ele>1958.439</ele>
        <time>2020-07-21T15:57:06Z</time>
      </trkpt>
      <trkpt lat="42.822802" lon="-0.198760">
        <ele>1956.836</ele>
        <time>2020-07-21T15:57:12Z</time>
      </trkpt>
      <trkpt lat="42.822759" lon="-0.198721">
        <ele>1955.925</ele>
        <time>2020-07-21T15:57:18Z</time>
      </trkpt>
      <trkpt lat="42.822716" lon="-0.198685">
        <ele>1955.229</ele>
        <time>2020-07-21T15:57:34Z</time>
      </trkpt>
      <trkpt lat="42.822674" lon="-0.198643">
        <ele>1953.938</ele>
        <time>2020-07-21T15:57:40Z</time>
      </trkpt>
      <trkpt lat="42.822633" lon="-0.198607">
        <ele>1954.316</ele>
        <time>2020-07-21T15:57:46Z</time>
      </trkpt>
      <trkpt lat="42.822588" lon="-0.198569">
        <ele>1952.576</ele>
        <time>2020-07-21T15:57:56Z</time>
      </trkpt>
      <trkpt lat="42.822548" lon="-0.198521">
        <ele>1952.113</ele>
        <time>2020-07-21T15:58:02Z</time>
      </trkpt>
      <trkpt lat="42.822531" lon="-0.198457">
        <ele>1950.308</ele>
        <time>2020-07-21T15:58:20Z</time>
      </trkpt>
      <trkpt lat="42.822512" lon="-0.198389">
        <ele>1949.566</ele>
        <time>2020-07-21T15:58:28Z</time>
      </trkpt>
      <trkpt lat="42.822498" lon="-0.198328">
        <ele>1949.884</ele>
        <time>2020-07-21T15:59:08Z</time>
      </trkpt>
      <trkpt lat="42.822500" lon="-0.198256">
        <ele>1946.948</ele>
        <time>2020-07-21T15:59:18Z</time>
      </trkpt>
      <trkpt lat="42.822475" lon="-0.198192">
        <ele>1946.843</ele>
        <time>2020-07-21T15:59:26Z</time>
      </trkpt>
      <trkpt lat="42.822431" lon="-0.198158">
        <ele>1945.180</ele>
        <time>2020-07-21T15:59:38Z</time>
      </trkpt>
      <trkpt lat="42.822406" lon="-0.198105">
        <ele>1944.229</ele>
        <time>2020-07-21T15:59:46Z</time>
      </trkpt>
      <trkpt lat="42.822372" lon="-0.198039">
        <ele>1943.393</ele>
        <time>2020-07-21T15:59:52Z</time>
      </trkpt>
      <trkpt lat="42.822342" lon="-0.197970">
        <ele>1942.942</ele>
        <time>2020-07-21T15:59:58Z</time>
      </trkpt>
      <trkpt lat="42.822327" lon="-0.197904">
        <ele>1942.178</ele>
        <time>2020-07-21T16:00:04Z</time>
      </trkpt>
      <trkpt lat="42.822299" lon="-0.197852">
        <ele>1940.333</ele>
        <time>2020-07-21T16:00:10Z</time>
      </trkpt>
      <trkpt lat="42.822271" lon="-0.197789">
        <ele>1941.126</ele>
        <time>2020-07-21T16:00:20Z</time>
      </trkpt>
      <trkpt lat="42.822274" lon="-0.197727">
        <ele>1940.908</ele>
        <time>2020-07-21T16:00:26Z</time>
      </trkpt>
      <trkpt lat="42.822241" lon="-0.197658">
        <ele>1940.112</ele>
        <time>2020-07-21T16:00:32Z</time>
      </trkpt>
      <trkpt lat="42.822209" lon="-0.197611">
        <ele>1938.450</ele>
        <time>2020-07-21T16:00:38Z</time>
      </trkpt>
      <trkpt lat="42.822165" lon="-0.197539">
        <ele>1936.574</ele>
        <time>2020-07-21T16:00:46Z</time>
      </trkpt>
      <trkpt lat="42.822143" lon="-0.197480">
        <ele>1935.629</ele>
        <time>2020-07-21T16:00:50Z</time>
      </trkpt>
      <trkpt lat="42.822108" lon="-0.197435">
        <ele>1934.676</ele>
        <time>2020-07-21T16:01:00Z</time>
      </trkpt>
      <trkpt lat="42.822063" lon="-0.197392">
        <ele>1932.895</ele>
        <time>2020-07-21T16:01:10Z</time>
      </trkpt>
      <trkpt lat="42.822025" lon="-0.197313">
        <ele>1933.399</ele>
        <time>2020-07-21T16:01:16Z</time>
      </trkpt>
      <trkpt lat="42.821982" lon="-0.197247">
        <ele>1932.978</ele>
        <time>2020-07-21T16:01:22Z</time>
      </trkpt>
      <trkpt lat="42.821959" lon="-0.197194">
        <ele>1931.344</ele>
        <time>2020-07-21T16:01:26Z</time>
      </trkpt>
      <trkpt lat="42.821918" lon="-0.197133">
        <ele>1932.505</ele>
        <time>2020-07-21T16:01:32Z</time>
      </trkpt>
      <trkpt lat="42.821872" lon="-0.197102">
        <ele>1930.015</ele>
        <time>2020-07-21T16:01:38Z</time>
      </trkpt>
      <trkpt lat="42.821830" lon="-0.197057">
        <ele>1929.408</ele>
        <time>2020-07-21T16:01:44Z</time>
      </trkpt>
      <trkpt lat="42.821788" lon="-0.197015">
        <ele>1927.579</ele>
        <time>2020-07-21T16:01:52Z</time>
      </trkpt>
      <trkpt lat="42.821749" lon="-0.196956">
        <ele>1926.827</ele>
        <time>2020-07-21T16:02:00Z</time>
      </trkpt>
      <trkpt lat="42.821724" lon="-0.196888">
        <ele>1925.691</ele>
        <time>2020-07-21T16:02:08Z</time>
      </trkpt>
      <trkpt lat="42.821679" lon="-0.196846">
        <ele>1925.766</ele>
        <time>2020-07-21T16:02:14Z</time>
      </trkpt>
      <trkpt lat="42.821659" lon="-0.196796">
        <ele>1923.593</ele>
        <time>2020-07-21T16:02:22Z</time>
      </trkpt>
      <trkpt lat="42.821657" lon="-0.196723">
        <ele>1923.792</ele>
        <time>2020-07-21T16:02:28Z</time>
      </trkpt>
      <trkpt lat="42.821643" lon="-0.196653">
        <ele>1923.596</ele>
        <time>2020-07-21T16:02:34Z</time>
      </trkpt>
      <trkpt lat="42.821632" lon="-0.196592">
        <ele>1922.955</ele>
        <time>2020-07-21T16:02:40Z</time>
      </trkpt>
      <trkpt lat="42.821615" lon="-0.196503">
        <ele>1922.837</ele>
        <time>2020-07-21T16:02:46Z</time>
      </trkpt>
      <trkpt lat="42.821590" lon="-0.196440">
        <ele>1921.449</ele>
        <time>2020-07-21T16:02:52Z</time>
      </trkpt>
      <trkpt lat="42.821556" lon="-0.196371">
        <ele>1919.813</ele>
        <time>2020-07-21T16:03:10Z</time>
      </trkpt>
      <trkpt lat="42.821527" lon="-0.196306">
        <ele>1918.908</ele>
        <time>2020-07-21T16:03:18Z</time>
      </trkpt>
      <trkpt lat="42.821492" lon="-0.196245">
        <ele>1918.358</ele>
        <time>2020-07-21T16:03:24Z</time>
      </trkpt>
      <trkpt lat="42.821442" lon="-0.196273">
        <ele>1917.786</ele>
        <time>2020-07-21T16:03:34Z</time>
      </trkpt>
      <trkpt lat="42.821415" lon="-0.196330">
        <ele>1916.090</ele>
        <time>2020-07-21T16:03:40Z</time>
      </trkpt>
      <trkpt lat="42.821384" lon="-0.196403">
        <ele>1914.085</ele>
        <time>2020-07-21T16:03:54Z</time>
      </trkpt>
      <trkpt lat="42.821367" lon="-0.196471">
        <ele>1912.782</ele>
        <time>2020-07-21T16:04:00Z</time>
      </trkpt>
      <trkpt lat="42.821374" lon="-0.196550">
        <ele>1913.111</ele>
        <time>2020-07-21T16:04:06Z</time>
      </trkpt>
      <trkpt lat="42.821362" lon="-0.196618">
        <ele>1911.085</ele>
        <time>2020-07-21T16:04:12Z</time>
      </trkpt>
      <trkpt lat="42.821346" lon="-0.196689">
        <ele>1911.374</ele>
        <time>2020-07-21T16:04:20Z</time>
      </trkpt>
      <trkpt lat="42.821331" lon="-0.196764">
        <ele>1909.763</ele>
        <time>2020-07-21T16:04:26Z</time>
      </trkpt>
      <trkpt lat="42.821316" lon="-0.196827">
        <ele>1908.444</ele>
        <time>2020-07-21T16:04:32Z</time>
      </trkpt>
      <trkpt lat="42.821265" lon="-0.196816">
        <ele>1906.318</ele>
        <time>2020-07-21T16:04:50Z</time>
      </trkpt>
      <trkpt lat="42.821224" lon="-0.196743">
        <ele>1904.508</ele>
        <time>2020-07-21T16:05:00Z</time>
      </trkpt>
      <trkpt lat="42.821182" lon="-0.196697">
        <ele>1904.611</ele>
        <time>2020-07-21T16:05:06Z</time>
      </trkpt>
      <trkpt lat="42.821141" lon="-0.196672">
        <ele>1904.789</ele>
        <time>2020-07-21T16:05:52Z</time>
      </trkpt>
      <trkpt lat="42.821132" lon="-0.196594">
        <ele>1904.023</ele>
        <time>2020-07-21T16:06:50Z</time>
      </trkpt>
      <trkpt lat="42.821108" lon="-0.196535">
        <ele>1903.088</ele>
        <time>2020-07-21T16:06:58Z</time>
      </trkpt>
      <trkpt lat="42.821092" lon="-0.196474">
        <ele>1900.595</ele>
        <time>2020-07-21T16:07:14Z</time>
      </trkpt>
      <trkpt lat="42.821047" lon="-0.196465">
        <ele>1898.944</ele>
        <time>2020-07-21T16:07:22Z</time>
      </trkpt>
      <trkpt lat="42.821019" lon="-0.196399">
        <ele>1898.478</ele>
        <time>2020-07-21T16:07:30Z</time>
      </trkpt>
      <trkpt lat="42.820973" lon="-0.196370">
        <ele>1896.087</ele>
        <time>2020-07-21T16:07:36Z</time>
      </trkpt>
      <trkpt lat="42.820935" lon="-0.196335">
        <ele>1895.661</ele>
        <time>2020-07-21T16:07:42Z</time>
      </trkpt>
      <trkpt lat="42.820914" lon="-0.196274">
        <ele>1895.521</ele>
        <time>2020-07-21T16:07:48Z</time>
      </trkpt>
      <trkpt lat="42.820879" lon="-0.196220">
        <ele>1894.213</ele>
        <time>2020-07-21T16:08:00Z</time>
      </trkpt>
      <trkpt lat="42.820861" lon="-0.196161">
        <ele>1892.608</ele>
        <time>2020-07-21T16:08:06Z</time>
      </trkpt>
      <trkpt lat="42.820841" lon="-0.196086">
        <ele>1891.321</ele>
        <time>2020-07-21T16:08:14Z</time>
      </trkpt>
      <trkpt lat="42.820834" lon="-0.196024">
        <ele>1890.569</ele>
        <time>2020-07-21T16:08:22Z</time>
      </trkpt>
      <trkpt lat="42.820822" lon="-0.195965">
        <ele>1889.453</ele>
        <time>2020-07-21T16:08:30Z</time>
      </trkpt>
      <trkpt lat="42.820777" lon="-0.195938">
        <ele>1888.058</ele>
        <time>2020-07-21T16:08:38Z</time>
      </trkpt>
      <trkpt lat="42.820736" lon="-0.195889">
        <ele>1887.045</ele>
        <time>2020-07-21T16:08:48Z</time>
      </trkpt>
      <trkpt lat="42.820700" lon="-0.195852">
        <ele>1884.644</ele>
        <time>2020-07-21T16:08:54Z</time>
      </trkpt>
      <trkpt lat="42.820661" lon="-0.195822">
        <ele>1883.148</ele>
        <time>2020-07-21T16:09:02Z</time>
      </trkpt>
      <trkpt lat="42.820617" lon="-0.195801">
        <ele>1882.117</ele>
        <time>2020-07-21T16:09:10Z</time>
      </trkpt>
      <trkpt lat="42.820532" lon="-0.195706">
        <ele>1875.551</ele>
        <time>2020-07-22T05:34:26Z</time>
      </trkpt>
      <trkpt lat="42.820482" lon="-0.195668">
        <ele>1873.001</ele>
        <time>2020-07-22T05:34:54Z</time>
      </trkpt>
      <trkpt lat="42.820417" lon="-0.195614">
        <ele>1873.211</ele>
        <time>2020-07-22T05:35:01Z</time>
      </trkpt>
      <trkpt lat="42.820388" lon="-0.195566">
        <ele>1873.408</ele>
        <time>2020-07-22T05:35:04Z</time>
      </trkpt>
      <trkpt lat="42.820364" lon="-0.195506">
        <ele>1872.870</ele>
        <time>2020-07-22T05:35:07Z</time>
      </trkpt>
      <trkpt lat="42.820338" lon="-0.195447">
        <ele>1872.318</ele>
        <time>2020-07-22T05:35:12Z</time>
      </trkpt>
      <trkpt lat="42.820295" lon="-0.195418">
        <ele>1872.371</ele>
        <time>2020-07-22T05:35:13Z</time>
      </trkpt>
      <trkpt lat="42.820264" lon="-0.195369">
        <ele>1870.684</ele>
        <time>2020-07-22T05:35:23Z</time>
      </trkpt>
      <trkpt lat="42.820216" lon="-0.195345">
        <ele>1869.840</ele>
        <time>2020-07-22T05:35:29Z</time>
      </trkpt>
      <trkpt lat="42.820191" lon="-0.195280">
        <ele>1869.156</ele>
        <time>2020-07-22T05:35:36Z</time>
      </trkpt>
      <trkpt lat="42.820145" lon="-0.195236">
        <ele>1870.165</ele>
        <time>2020-07-22T05:35:41Z</time>
      </trkpt>
      <trkpt lat="42.820114" lon="-0.195189">
        <ele>1869.479</ele>
        <time>2020-07-22T05:35:49Z</time>
      </trkpt>
      <trkpt lat="42.820070" lon="-0.195172">
        <ele>1868.422</ele>
        <time>2020-07-22T05:36:01Z</time>
      </trkpt>
      <trkpt lat="42.820019" lon="-0.195142">
        <ele>1868.062</ele>
        <time>2020-07-22T05:36:11Z</time>
      </trkpt>
      <trkpt lat="42.819970" lon="-0.195121">
        <ele>1866.608</ele>
        <time>2020-07-22T05:36:15Z</time>
      </trkpt>
      <trkpt lat="42.819925" lon="-0.195100">
        <ele>1865.308</ele>
        <time>2020-07-22T05:36:21Z</time>
      </trkpt>
      <trkpt lat="42.819888" lon="-0.195057">
        <ele>1867.157</ele>
        <time>2020-07-22T05:36:27Z</time>
      </trkpt>
      <trkpt lat="42.819856" lon="-0.194996">
        <ele>1866.595</ele>
        <time>2020-07-22T05:36:37Z</time>
      </trkpt>
      <trkpt lat="42.819854" lon="-0.194933">
        <ele>1867.048</ele>
        <time>2020-07-22T05:36:43Z</time>
      </trkpt>
      <trkpt lat="42.819857" lon="-0.194867">
        <ele>1866.271</ele>
        <time>2020-07-22T05:36:50Z</time>
      </trkpt>
      <trkpt lat="42.819848" lon="-0.194789">
        <ele>1865.427</ele>
        <time>2020-07-22T05:36:56Z</time>
      </trkpt>
      <trkpt lat="42.819857" lon="-0.194725">
        <ele>1864.823</ele>
        <time>2020-07-22T05:37:01Z</time>
      </trkpt>
      <trkpt lat="42.819864" lon="-0.194663">
        <ele>1864.332</ele>
        <time>2020-07-22T05:37:05Z</time>
      </trkpt>
      <trkpt lat="42.819841" lon="-0.194597">
        <ele>1863.546</ele>
        <time>2020-07-22T05:39:25Z</time>
      </trkpt>
      <trkpt lat="42.819816" lon="-0.194543">
        <ele>1862.499</ele>
        <time>2020-07-22T05:39:26Z</time>
      </trkpt>
      <trkpt lat="42.819776" lon="-0.194495">
        <ele>1861.907</ele>
        <time>2020-07-22T05:39:32Z</time>
      </trkpt>
      <trkpt lat="42.819729" lon="-0.194455">
        <ele>1861.427</ele>
        <time>2020-07-22T05:39:34Z</time>
      </trkpt>
      <trkpt lat="42.819688" lon="-0.194423">
        <ele>1861.708</ele>
        <time>2020-07-22T05:39:41Z</time>
      </trkpt>
      <trkpt lat="42.819657" lon="-0.194373">
        <ele>1861.774</ele>
        <time>2020-07-22T05:39:45Z</time>
      </trkpt>
      <trkpt lat="42.819635" lon="-0.194310">
        <ele>1860.852</ele>
        <time>2020-07-22T05:39:47Z</time>
      </trkpt>
      <trkpt lat="42.819649" lon="-0.194245">
        <ele>1860.515</ele>
        <time>2020-07-22T05:39:52Z</time>
      </trkpt>
      <trkpt lat="42.819642" lon="-0.194180">
        <ele>1859.448</ele>
        <time>2020-07-22T05:39:59Z</time>
      </trkpt>
      <trkpt lat="42.819609" lon="-0.194123">
        <ele>1859.244</ele>
        <time>2020-07-22T05:40:05Z</time>
      </trkpt>
      <trkpt lat="42.819582" lon="-0.194068">
        <ele>1859.040</ele>
        <time>2020-07-22T05:40:11Z</time>
      </trkpt>
      <trkpt lat="42.819564" lon="-0.193998">
        <ele>1857.679</ele>
        <time>2020-07-22T05:40:16Z</time>
      </trkpt>
      <trkpt lat="42.819567" lon="-0.193934">
        <ele>1857.683</ele>
        <time>2020-07-22T05:40:21Z</time>
      </trkpt>
      <trkpt lat="42.819573" lon="-0.193872">
        <ele>1857.024</ele>
        <time>2020-07-22T05:40:26Z</time>
      </trkpt>
      <trkpt lat="42.819586" lon="-0.193812">
        <ele>1856.104</ele>
        <time>2020-07-22T05:40:28Z</time>
      </trkpt>
      <trkpt lat="42.819578" lon="-0.193747">
        <ele>1856.014</ele>
        <time>2020-07-22T05:40:36Z</time>
      </trkpt>
      <trkpt lat="42.819552" lon="-0.193692">
        <ele>1854.808</ele>
        <time>2020-07-22T05:40:40Z</time>
      </trkpt>
      <trkpt lat="42.819536" lon="-0.193634">
        <ele>1854.867</ele>
        <time>2020-07-22T05:40:47Z</time>
      </trkpt>
      <trkpt lat="42.819513" lon="-0.193576">
        <ele>1855.345</ele>
        <time>2020-07-22T05:40:52Z</time>
      </trkpt>
      <trkpt lat="42.819484" lon="-0.193518">
        <ele>1855.498</ele>
        <time>2020-07-22T05:40:54Z</time>
      </trkpt>
      <trkpt lat="42.819452" lon="-0.193472">
        <ele>1855.231</ele>
        <time>2020-07-22T05:40:59Z</time>
      </trkpt>
      <trkpt lat="42.819406" lon="-0.193464">
        <ele>1855.927</ele>
        <time>2020-07-22T05:41:07Z</time>
      </trkpt>
      <trkpt lat="42.819378" lon="-0.193519">
        <ele>1857.163</ele>
        <time>2020-07-22T05:41:12Z</time>
      </trkpt>
      <trkpt lat="42.819334" lon="-0.193575">
        <ele>1857.722</ele>
        <time>2020-07-22T05:41:18Z</time>
      </trkpt>
      <trkpt lat="42.819293" lon="-0.193606">
        <ele>1856.866</ele>
        <time>2020-07-22T05:41:24Z</time>
      </trkpt>
      <trkpt lat="42.819307" lon="-0.193537">
        <ele>1856.841</ele>
        <time>2020-07-22T05:41:34Z</time>
      </trkpt>
      <trkpt lat="42.819324" lon="-0.193476">
        <ele>1857.481</ele>
        <time>2020-07-22T05:41:41Z</time>
      </trkpt>
      <trkpt lat="42.819335" lon="-0.193415">
        <ele>1856.209</ele>
        <time>2020-07-22T05:41:47Z</time>
      </trkpt>
      <trkpt lat="42.819344" lon="-0.193347">
        <ele>1855.308</ele>
        <time>2020-07-22T05:41:52Z</time>
      </trkpt>
      <trkpt lat="42.819350" lon="-0.193274">
        <ele>1854.589</ele>
        <time>2020-07-22T05:42:02Z</time>
      </trkpt>
      <trkpt lat="42.819305" lon="-0.193240">
        <ele>1853.927</ele>
        <time>2020-07-22T05:42:10Z</time>
      </trkpt>
      <trkpt lat="42.819251" lon="-0.193263">
        <ele>1853.150</ele>
        <time>2020-07-22T05:42:16Z</time>
      </trkpt>
      <trkpt lat="42.819208" lon="-0.193299">
        <ele>1852.323</ele>
        <time>2020-07-22T05:42:23Z</time>
      </trkpt>
      <trkpt lat="42.819160" lon="-0.193299">
        <ele>1852.129</ele>
        <time>2020-07-22T05:42:28Z</time>
      </trkpt>
      <trkpt lat="42.819112" lon="-0.193271">
        <ele>1852.335</ele>
        <time>2020-07-22T05:42:34Z</time>
      </trkpt>
      <trkpt lat="42.819103" lon="-0.193195">
        <ele>1851.484</ele>
        <time>2020-07-22T05:42:36Z</time>
      </trkpt>
      <trkpt lat="42.819114" lon="-0.193135">
        <ele>1851.658</ele>
        <time>2020-07-22T05:42:42Z</time>
      </trkpt>
      <trkpt lat="42.819118" lon="-0.193069">
        <ele>1850.218</ele>
        <time>2020-07-22T05:42:45Z</time>
      </trkpt>
      <trkpt lat="42.819117" lon="-0.193004">
        <ele>1849.098</ele>
        <time>2020-07-22T05:42:53Z</time>
      </trkpt>
      <trkpt lat="42.819122" lon="-0.192937">
        <ele>1848.817</ele>
        <time>2020-07-22T05:43:00Z</time>
      </trkpt>
      <trkpt lat="42.819130" lon="-0.192873">
        <ele>1847.908</ele>
        <time>2020-07-22T05:43:04Z</time>
      </trkpt>
      <trkpt lat="42.819143" lon="-0.192801">
        <ele>1847.276</ele>
        <time>2020-07-22T05:43:14Z</time>
      </trkpt>
      <trkpt lat="42.819169" lon="-0.192747">
        <ele>1846.434</ele>
        <time>2020-07-22T05:43:19Z</time>
      </trkpt>
      <trkpt lat="42.819189" lon="-0.192691">
        <ele>1845.787</ele>
        <time>2020-07-22T05:43:26Z</time>
      </trkpt>
      <trkpt lat="42.819187" lon="-0.192631">
        <ele>1844.970</ele>
        <time>2020-07-22T05:43:29Z</time>
      </trkpt>
      <trkpt lat="42.819185" lon="-0.192560">
        <ele>1844.836</ele>
        <time>2020-07-22T05:43:35Z</time>
      </trkpt>
      <trkpt lat="42.819196" lon="-0.192499">
        <ele>1845.232</ele>
        <time>2020-07-22T05:43:42Z</time>
      </trkpt>
      <trkpt lat="42.819200" lon="-0.192437">
        <ele>1844.831</ele>
        <time>2020-07-22T05:43:47Z</time>
      </trkpt>
      <trkpt lat="42.819208" lon="-0.192358">
        <ele>1844.255</ele>
        <time>2020-07-22T05:43:53Z</time>
      </trkpt>
      <trkpt lat="42.819198" lon="-0.192287">
        <ele>1843.679</ele>
        <time>2020-07-22T05:44:00Z</time>
      </trkpt>
      <trkpt lat="42.819210" lon="-0.192214">
        <ele>1844.005</ele>
        <time>2020-07-22T05:44:07Z</time>
      </trkpt>
      <trkpt lat="42.819230" lon="-0.192152">
        <ele>1844.325</ele>
        <time>2020-07-22T05:44:12Z</time>
      </trkpt>
      <trkpt lat="42.819223" lon="-0.192086">
        <ele>1842.908</ele>
        <time>2020-07-22T05:44:16Z</time>
      </trkpt>
      <trkpt lat="42.819181" lon="-0.192035">
        <ele>1843.362</ele>
        <time>2020-07-22T05:44:22Z</time>
      </trkpt>
      <trkpt lat="42.819143" lon="-0.191989">
        <ele>1842.410</ele>
        <time>2020-07-22T05:44:29Z</time>
      </trkpt>
      <trkpt lat="42.819099" lon="-0.191939">
        <ele>1842.943</ele>
        <time>2020-07-22T05:44:35Z</time>
      </trkpt>
      <trkpt lat="42.819090" lon="-0.191871">
        <ele>1843.076</ele>
        <time>2020-07-22T05:44:40Z</time>
      </trkpt>
      <trkpt lat="42.819103" lon="-0.191807">
        <ele>1842.312</ele>
        <time>2020-07-22T05:44:45Z</time>
      </trkpt>
      <trkpt lat="42.819146" lon="-0.191765">
        <ele>1842.998</ele>
        <time>2020-07-22T05:44:48Z</time>
      </trkpt>
      <trkpt lat="42.819175" lon="-0.191709">
        <ele>1842.257</ele>
        <time>2020-07-22T05:44:56Z</time>
      </trkpt>
      <trkpt lat="42.819212" lon="-0.191660">
        <ele>1841.691</ele>
        <time>2020-07-22T05:45:00Z</time>
      </trkpt>
      <trkpt lat="42.819245" lon="-0.191605">
        <ele>1840.742</ele>
        <time>2020-07-22T05:45:06Z</time>
      </trkpt>
      <trkpt lat="42.819265" lon="-0.191546">
        <ele>1839.622</ele>
        <time>2020-07-22T05:45:10Z</time>
      </trkpt>
      <trkpt lat="42.819288" lon="-0.191485">
        <ele>1838.814</ele>
        <time>2020-07-22T05:45:16Z</time>
      </trkpt>
      <trkpt lat="42.819298" lon="-0.191420">
        <ele>1837.708</ele>
        <time>2020-07-22T05:45:25Z</time>
      </trkpt>
      <trkpt lat="42.819313" lon="-0.191358">
        <ele>1837.399</ele>
        <time>2020-07-22T05:45:31Z</time>
      </trkpt>
      <trkpt lat="42.819297" lon="-0.191295">
        <ele>1836.447</ele>
        <time>2020-07-22T05:45:33Z</time>
      </trkpt>
      <trkpt lat="42.819265" lon="-0.191233">
        <ele>1835.260</ele>
        <time>2020-07-22T05:45:38Z</time>
      </trkpt>
      <trkpt lat="42.819267" lon="-0.191170">
        <ele>1834.873</ele>
        <time>2020-07-22T05:45:45Z</time>
      </trkpt>
      <trkpt lat="42.819293" lon="-0.191100">
        <ele>1833.529</ele>
        <time>2020-07-22T05:45:51Z</time>
      </trkpt>
      <trkpt lat="42.819324" lon="-0.191049">
        <ele>1834.425</ele>
        <time>2020-07-22T05:45:56Z</time>
      </trkpt>
      <trkpt lat="42.819325" lon="-0.190978">
        <ele>1834.694</ele>
        <time>2020-07-22T05:46:03Z</time>
      </trkpt>
      <trkpt lat="42.819298" lon="-0.190916">
        <ele>1834.998</ele>
        <time>2020-07-22T05:46:08Z</time>
      </trkpt>
      <trkpt lat="42.819296" lon="-0.190851">
        <ele>1834.798</ele>
        <time>2020-07-22T05:46:13Z</time>
      </trkpt>
      <trkpt lat="42.819285" lon="-0.190785">
        <ele>1834.315</ele>
        <time>2020-07-22T05:46:16Z</time>
      </trkpt>
      <trkpt lat="42.819280" lon="-0.190721">
        <ele>1833.826</ele>
        <time>2020-07-22T05:46:24Z</time>
      </trkpt>
      <trkpt lat="42.819260" lon="-0.190666">
        <ele>1833.408</ele>
        <time>2020-07-22T05:46:32Z</time>
      </trkpt>
      <trkpt lat="42.819268" lon="-0.190598">
        <ele>1831.914</ele>
        <time>2020-07-22T05:46:50Z</time>
      </trkpt>
      <trkpt lat="42.819288" lon="-0.190527">
        <ele>1832.592</ele>
        <time>2020-07-22T05:46:55Z</time>
      </trkpt>
      <trkpt lat="42.819305" lon="-0.190461">
        <ele>1832.175</ele>
        <time>2020-07-22T05:46:59Z</time>
      </trkpt>
      <trkpt lat="42.819315" lon="-0.190404">
        <ele>1831.458</ele>
        <time>2020-07-22T05:47:05Z</time>
      </trkpt>
      <trkpt lat="42.819300" lon="-0.190339">
        <ele>1830.064</ele>
        <time>2020-07-22T05:47:25Z</time>
      </trkpt>
      <trkpt lat="42.819317" lon="-0.190271">
        <ele>1830.280</ele>
        <time>2020-07-22T05:47:31Z</time>
      </trkpt>
      <trkpt lat="42.819349" lon="-0.190213">
        <ele>1829.849</ele>
        <time>2020-07-22T05:47:33Z</time>
      </trkpt>
      <trkpt lat="42.819389" lon="-0.190183">
        <ele>1828.473</ele>
        <time>2020-07-22T05:47:39Z</time>
      </trkpt>
      <trkpt lat="42.819429" lon="-0.190144">
        <ele>1828.887</ele>
        <time>2020-07-22T05:47:43Z</time>
      </trkpt>
      <trkpt lat="42.819468" lon="-0.190083">
        <ele>1830.042</ele>
        <time>2020-07-22T05:47:48Z</time>
      </trkpt>
      <trkpt lat="42.819491" lon="-0.190018">
        <ele>1829.226</ele>
        <time>2020-07-22T05:47:52Z</time>
      </trkpt>
      <trkpt lat="42.819519" lon="-0.189961">
        <ele>1828.408</ele>
        <time>2020-07-22T05:47:55Z</time>
      </trkpt>
      <trkpt lat="42.819564" lon="-0.189934">
        <ele>1827.483</ele>
        <time>2020-07-22T05:48:03Z</time>
      </trkpt>
      <trkpt lat="42.819597" lon="-0.189888">
        <ele>1825.681</ele>
        <time>2020-07-22T05:48:08Z</time>
      </trkpt>
      <trkpt lat="42.819619" lon="-0.189825">
        <ele>1826.794</ele>
        <time>2020-07-22T05:48:13Z</time>
      </trkpt>
      <trkpt lat="42.819635" lon="-0.189759">
        <ele>1826.457</ele>
        <time>2020-07-22T05:48:17Z</time>
      </trkpt>
      <trkpt lat="42.819650" lon="-0.189692">
        <ele>1826.673</ele>
        <time>2020-07-22T05:48:22Z</time>
      </trkpt>
      <trkpt lat="42.819665" lon="-0.189623">
        <ele>1827.119</ele>
        <time>2020-07-22T05:48:27Z</time>
      </trkpt>
      <trkpt lat="42.819681" lon="-0.189561">
        <ele>1826.748</ele>
        <time>2020-07-22T05:48:31Z</time>
      </trkpt>
      <trkpt lat="42.819699" lon="-0.189499">
        <ele>1827.252</ele>
        <time>2020-07-22T05:48:36Z</time>
      </trkpt>
      <trkpt lat="42.819727" lon="-0.189444">
        <ele>1825.831</ele>
        <time>2020-07-22T05:48:40Z</time>
      </trkpt>
      <trkpt lat="42.819751" lon="-0.189379">
        <ele>1826.361</ele>
        <time>2020-07-22T05:48:45Z</time>
      </trkpt>
      <trkpt lat="42.819768" lon="-0.189316">
        <ele>1826.607</ele>
        <time>2020-07-22T05:48:49Z</time>
      </trkpt>
      <trkpt lat="42.819789" lon="-0.189249">
        <ele>1826.708</ele>
        <time>2020-07-22T05:48:55Z</time>
      </trkpt>
      <trkpt lat="42.819828" lon="-0.189191">
        <ele>1826.878</ele>
        <time>2020-07-22T05:48:59Z</time>
      </trkpt>
      <trkpt lat="42.819865" lon="-0.189141">
        <ele>1827.476</ele>
        <time>2020-07-22T05:49:04Z</time>
      </trkpt>
      <trkpt lat="42.819890" lon="-0.189086">
        <ele>1825.879</ele>
        <time>2020-07-22T05:49:09Z</time>
      </trkpt>
      <trkpt lat="42.819904" lon="-0.189019">
        <ele>1825.882</ele>
        <time>2020-07-22T05:49:13Z</time>
      </trkpt>
      <trkpt lat="42.819924" lon="-0.188963">
        <ele>1825.888</ele>
        <time>2020-07-22T05:49:17Z</time>
      </trkpt>
      <trkpt lat="42.819954" lon="-0.188896">
        <ele>1826.874</ele>
        <time>2020-07-22T05:49:22Z</time>
      </trkpt>
      <trkpt lat="42.819990" lon="-0.188846">
        <ele>1826.523</ele>
        <time>2020-07-22T05:49:24Z</time>
      </trkpt>
      <trkpt lat="42.820029" lon="-0.188790">
        <ele>1825.887</ele>
        <time>2020-07-22T05:49:32Z</time>
      </trkpt>
      <trkpt lat="42.820058" lon="-0.188735">
        <ele>1826.351</ele>
        <time>2020-07-22T05:49:36Z</time>
      </trkpt>
      <trkpt lat="42.820091" lon="-0.188679">
        <ele>1825.801</ele>
        <time>2020-07-22T05:49:41Z</time>
      </trkpt>
      <trkpt lat="42.820121" lon="-0.188617">
        <ele>1826.711</ele>
        <time>2020-07-22T05:49:46Z</time>
      </trkpt>
      <trkpt lat="42.820154" lon="-0.188561">
        <ele>1826.108</ele>
        <time>2020-07-22T05:49:51Z</time>
      </trkpt>
      <trkpt lat="42.820195" lon="-0.188517">
        <ele>1825.410</ele>
        <time>2020-07-22T05:49:55Z</time>
      </trkpt>
      <trkpt lat="42.820239" lon="-0.188499">
        <ele>1825.068</ele>
        <time>2020-07-22T05:49:56Z</time>
      </trkpt>
      <trkpt lat="42.820296" lon="-0.188489">
        <ele>1825.231</ele>
        <time>2020-07-22T05:50:03Z</time>
      </trkpt>
      <trkpt lat="42.820341" lon="-0.188472">
        <ele>1825.564</ele>
        <time>2020-07-22T05:50:08Z</time>
      </trkpt>
      <trkpt lat="42.820378" lon="-0.188438">
        <ele>1825.430</ele>
        <time>2020-07-22T05:50:12Z</time>
      </trkpt>
      <trkpt lat="42.820419" lon="-0.188401">
        <ele>1825.416</ele>
        <time>2020-07-22T05:50:17Z</time>
      </trkpt>
      <trkpt lat="42.820451" lon="-0.188349">
        <ele>1824.015</ele>
        <time>2020-07-22T05:50:21Z</time>
      </trkpt>
      <trkpt lat="42.820466" lon="-0.188290">
        <ele>1823.579</ele>
        <time>2020-07-22T05:50:26Z</time>
      </trkpt>
      <trkpt lat="42.820487" lon="-0.188217">
        <ele>1824.519</ele>
        <time>2020-07-22T05:50:30Z</time>
      </trkpt>
      <trkpt lat="42.820482" lon="-0.188155">
        <ele>1824.809</ele>
        <time>2020-07-22T05:50:35Z</time>
      </trkpt>
      <trkpt lat="42.820470" lon="-0.188095">
        <ele>1825.219</ele>
        <time>2020-07-22T05:50:39Z</time>
      </trkpt>
      <trkpt lat="42.820491" lon="-0.188032">
        <ele>1824.908</ele>
        <time>2020-07-22T05:50:43Z</time>
      </trkpt>
      <trkpt lat="42.820526" lon="-0.187987">
        <ele>1824.686</ele>
        <time>2020-07-22T05:50:48Z</time>
      </trkpt>
      <trkpt lat="42.820565" lon="-0.187952">
        <ele>1823.694</ele>
        <time>2020-07-22T05:50:52Z</time>
      </trkpt>
      <trkpt lat="42.820612" lon="-0.187908">
        <ele>1824.287</ele>
        <time>2020-07-22T05:50:58Z</time>
      </trkpt>
      <trkpt lat="42.820652" lon="-0.187874">
        <ele>1823.940</ele>
        <time>2020-07-22T05:51:03Z</time>
      </trkpt>
      <trkpt lat="42.820687" lon="-0.187828">
        <ele>1824.786</ele>
        <time>2020-07-22T05:51:05Z</time>
      </trkpt>
      <trkpt lat="42.820733" lon="-0.187785">
        <ele>1824.152</ele>
        <time>2020-07-22T05:51:13Z</time>
      </trkpt>
      <trkpt lat="42.820775" lon="-0.187742">
        <ele>1824.321</ele>
        <time>2020-07-22T05:51:16Z</time>
      </trkpt>
      <trkpt lat="42.820811" lon="-0.187693">
        <ele>1824.235</ele>
        <time>2020-07-22T05:51:25Z</time>
      </trkpt>
      <trkpt lat="42.820860" lon="-0.187655">
        <ele>1824.489</ele>
        <time>2020-07-22T05:51:30Z</time>
      </trkpt>
      <trkpt lat="42.820907" lon="-0.187617">
        <ele>1824.206</ele>
        <time>2020-07-22T05:51:35Z</time>
      </trkpt>
      <trkpt lat="42.820941" lon="-0.187569">
        <ele>1823.226</ele>
        <time>2020-07-22T05:51:37Z</time>
      </trkpt>
      <trkpt lat="42.820981" lon="-0.187523">
        <ele>1823.808</ele>
        <time>2020-07-22T05:51:45Z</time>
      </trkpt>
      <trkpt lat="42.821017" lon="-0.187482">
        <ele>1823.993</ele>
        <time>2020-07-22T05:51:49Z</time>
      </trkpt>
      <trkpt lat="42.821050" lon="-0.187426">
        <ele>1823.351</ele>
        <time>2020-07-22T05:51:54Z</time>
      </trkpt>
      <trkpt lat="42.821069" lon="-0.187366">
        <ele>1823.714</ele>
        <time>2020-07-22T05:52:00Z</time>
      </trkpt>
      <trkpt lat="42.821080" lon="-0.187294">
        <ele>1824.477</ele>
        <time>2020-07-22T05:52:02Z</time>
      </trkpt>
      <trkpt lat="42.821083" lon="-0.187226">
        <ele>1823.033</ele>
        <time>2020-07-22T05:52:09Z</time>
      </trkpt>
      <trkpt lat="42.821079" lon="-0.187162">
        <ele>1824.159</ele>
        <time>2020-07-22T05:52:15Z</time>
      </trkpt>
      <trkpt lat="42.821083" lon="-0.187091">
        <ele>1825.088</ele>
        <time>2020-07-22T05:52:20Z</time>
      </trkpt>
      <trkpt lat="42.821095" lon="-0.187022">
        <ele>1824.552</ele>
        <time>2020-07-22T05:52:25Z</time>
      </trkpt>
      <trkpt lat="42.821120" lon="-0.186948">
        <ele>1825.857</ele>
        <time>2020-07-22T05:52:31Z</time>
      </trkpt>
      <trkpt lat="42.821160" lon="-0.186893">
        <ele>1824.600</ele>
        <time>2020-07-22T05:52:37Z</time>
      </trkpt>
      <trkpt lat="42.821210" lon="-0.186862">
        <ele>1824.620</ele>
        <time>2020-07-22T05:52:43Z</time>
      </trkpt>
      <trkpt lat="42.821243" lon="-0.186806">
        <ele>1823.708</ele>
        <time>2020-07-22T05:52:50Z</time>
      </trkpt>
      <trkpt lat="42.821276" lon="-0.186755">
        <ele>1824.780</ele>
        <time>2020-07-22T05:52:53Z</time>
      </trkpt>
      <trkpt lat="42.821307" lon="-0.186701">
        <ele>1823.588</ele>
        <time>2020-07-22T05:53:01Z</time>
      </trkpt>
      <trkpt lat="42.821334" lon="-0.186641">
        <ele>1823.361</ele>
        <time>2020-07-22T05:53:09Z</time>
      </trkpt>
      <trkpt lat="42.821362" lon="-0.186592">
        <ele>1822.814</ele>
        <time>2020-07-22T05:53:12Z</time>
      </trkpt>
      <trkpt lat="42.821388" lon="-0.186539">
        <ele>1820.180</ele>
        <time>2020-07-22T05:53:23Z</time>
      </trkpt>
      <trkpt lat="42.821403" lon="-0.186475">
        <ele>1818.986</ele>
        <time>2020-07-22T05:53:32Z</time>
      </trkpt>
      <trkpt lat="42.821389" lon="-0.186415">
        <ele>1817.735</ele>
        <time>2020-07-22T05:53:40Z</time>
      </trkpt>
      <trkpt lat="42.821392" lon="-0.186351">
        <ele>1817.099</ele>
        <time>2020-07-22T05:53:48Z</time>
      </trkpt>
      <trkpt lat="42.821412" lon="-0.186284">
        <ele>1816.619</ele>
        <time>2020-07-22T05:53:58Z</time>
      </trkpt>
      <trkpt lat="42.821445" lon="-0.186237">
        <ele>1815.809</ele>
        <time>2020-07-22T05:54:00Z</time>
      </trkpt>
      <trkpt lat="42.821482" lon="-0.186200">
        <ele>1813.719</ele>
        <time>2020-07-22T05:54:09Z</time>
      </trkpt>
      <trkpt lat="42.821501" lon="-0.186139">
        <ele>1812.508</ele>
        <time>2020-07-22T05:54:19Z</time>
      </trkpt>
      <trkpt lat="42.821539" lon="-0.186100">
        <ele>1811.476</ele>
        <time>2020-07-22T05:54:23Z</time>
      </trkpt>
      <trkpt lat="42.821556" lon="-0.186031">
        <ele>1811.764</ele>
        <time>2020-07-22T05:54:33Z</time>
      </trkpt>
      <trkpt lat="42.821593" lon="-0.185997">
        <ele>1810.577</ele>
        <time>2020-07-22T05:54:52Z</time>
      </trkpt>
      <trkpt lat="42.821636" lon="-0.185956">
        <ele>1810.810</ele>
        <time>2020-07-22T05:54:55Z</time>
      </trkpt>
      <trkpt lat="42.821672" lon="-0.185910">
        <ele>1811.086</ele>
        <time>2020-07-22T05:55:03Z</time>
      </trkpt>
      <trkpt lat="42.821710" lon="-0.185876">
        <ele>1809.412</ele>
        <time>2020-07-22T05:55:09Z</time>
      </trkpt>
      <trkpt lat="42.821750" lon="-0.185847">
        <ele>1809.941</ele>
        <time>2020-07-22T05:55:15Z</time>
      </trkpt>
      <trkpt lat="42.821794" lon="-0.185807">
        <ele>1810.055</ele>
        <time>2020-07-22T05:55:20Z</time>
      </trkpt>
      <trkpt lat="42.821846" lon="-0.185764">
        <ele>1809.832</ele>
        <time>2020-07-22T05:55:24Z</time>
      </trkpt>
      <trkpt lat="42.821897" lon="-0.185724">
        <ele>1809.792</ele>
        <time>2020-07-22T05:55:33Z</time>
      </trkpt>
      <trkpt lat="42.821948" lon="-0.185693">
        <ele>1809.311</ele>
        <time>2020-07-22T05:55:39Z</time>
      </trkpt>
      <trkpt lat="42.821999" lon="-0.185661">
        <ele>1810.208</ele>
        <time>2020-07-22T05:55:45Z</time>
      </trkpt>
      <trkpt lat="42.822057" lon="-0.185638">
        <ele>1809.448</ele>
        <time>2020-07-22T05:55:51Z</time>
      </trkpt>
      <trkpt lat="42.822103" lon="-0.185626">
        <ele>1809.036</ele>
        <time>2020-07-22T05:55:55Z</time>
      </trkpt>
      <trkpt lat="42.822150" lon="-0.185628">
        <ele>1810.399</ele>
        <time>2020-07-22T05:56:00Z</time>
      </trkpt>
      <trkpt lat="42.822198" lon="-0.185625">
        <ele>1810.622</ele>
        <time>2020-07-22T05:56:05Z</time>
      </trkpt>
      <trkpt lat="42.822243" lon="-0.185632">
        <ele>1810.578</ele>
        <time>2020-07-22T05:56:08Z</time>
      </trkpt>
      <trkpt lat="42.822294" lon="-0.185613">
        <ele>1808.834</ele>
        <time>2020-07-22T05:56:18Z</time>
      </trkpt>
      <trkpt lat="42.822344" lon="-0.185605">
        <ele>1808.163</ele>
        <time>2020-07-22T05:56:22Z</time>
      </trkpt>
      <trkpt lat="42.822390" lon="-0.185574">
        <ele>1806.577</ele>
        <time>2020-07-22T05:56:30Z</time>
      </trkpt>
      <trkpt lat="42.822443" lon="-0.185562">
        <ele>1806.016</ele>
        <time>2020-07-22T05:56:40Z</time>
      </trkpt>
      <trkpt lat="42.822488" lon="-0.185550">
        <ele>1806.276</ele>
        <time>2020-07-22T05:56:42Z</time>
      </trkpt>
      <trkpt lat="42.822531" lon="-0.185506">
        <ele>1805.313</ele>
        <time>2020-07-22T05:56:51Z</time>
      </trkpt>
      <trkpt lat="42.822567" lon="-0.185465">
        <ele>1804.108</ele>
        <time>2020-07-22T05:56:57Z</time>
      </trkpt>
      <trkpt lat="42.822606" lon="-0.185425">
        <ele>1804.086</ele>
        <time>2020-07-22T05:56:59Z</time>
      </trkpt>
      <trkpt lat="42.822633" lon="-0.185374">
        <ele>1802.814</ele>
        <time>2020-07-22T05:57:06Z</time>
      </trkpt>
      <trkpt lat="42.822671" lon="-0.185336">
        <ele>1802.617</ele>
        <time>2020-07-22T05:57:10Z</time>
      </trkpt>
      <trkpt lat="42.822714" lon="-0.185312">
        <ele>1802.140</ele>
        <time>2020-07-22T05:57:23Z</time>
      </trkpt>
      <trkpt lat="42.822760" lon="-0.185316">
        <ele>1799.846</ele>
        <time>2020-07-22T05:57:34Z</time>
      </trkpt>
      <trkpt lat="42.822806" lon="-0.185323">
        <ele>1798.422</ele>
        <time>2020-07-22T05:57:38Z</time>
      </trkpt>
      <trkpt lat="42.822855" lon="-0.185338">
        <ele>1797.911</ele>
        <time>2020-07-22T05:57:49Z</time>
      </trkpt>
      <trkpt lat="42.822905" lon="-0.185350">
        <ele>1796.635</ele>
        <time>2020-07-22T05:57:54Z</time>
      </trkpt>
      <trkpt lat="42.822955" lon="-0.185341">
        <ele>1796.766</ele>
        <time>2020-07-22T05:57:56Z</time>
      </trkpt>
      <trkpt lat="42.823000" lon="-0.185337">
        <ele>1795.329</ele>
        <time>2020-07-22T05:58:05Z</time>
      </trkpt>
      <trkpt lat="42.823044" lon="-0.185315">
        <ele>1794.321</ele>
        <time>2020-07-22T05:58:10Z</time>
      </trkpt>
      <trkpt lat="42.823083" lon="-0.185264">
        <ele>1793.508</ele>
        <time>2020-07-22T05:58:15Z</time>
      </trkpt>
      <trkpt lat="42.823128" lon="-0.185228">
        <ele>1793.941</ele>
        <time>2020-07-22T05:58:23Z</time>
      </trkpt>
      <trkpt lat="42.823175" lon="-0.185196">
        <ele>1793.959</ele>
        <time>2020-07-22T05:58:27Z</time>
      </trkpt>
      <trkpt lat="42.823214" lon="-0.185162">
        <ele>1792.772</ele>
        <time>2020-07-22T05:58:33Z</time>
      </trkpt>
      <trkpt lat="42.823256" lon="-0.185123">
        <ele>1792.095</ele>
        <time>2020-07-22T05:58:40Z</time>
      </trkpt>
      <trkpt lat="42.823301" lon="-0.185096">
        <ele>1790.851</ele>
        <time>2020-07-22T05:58:48Z</time>
      </trkpt>
      <trkpt lat="42.823344" lon="-0.185058">
        <ele>1790.987</ele>
        <time>2020-07-22T05:58:52Z</time>
      </trkpt>
      <trkpt lat="42.823392" lon="-0.185034">
        <ele>1788.886</ele>
        <time>2020-07-22T05:59:05Z</time>
      </trkpt>
      <trkpt lat="42.823447" lon="-0.185028">
        <ele>1788.450</ele>
        <time>2020-07-22T05:59:09Z</time>
      </trkpt>
      <trkpt lat="42.823493" lon="-0.185005">
        <ele>1787.278</ele>
        <time>2020-07-22T05:59:15Z</time>
      </trkpt>
      <trkpt lat="42.823536" lon="-0.184961">
        <ele>1787.633</ele>
        <time>2020-07-22T05:59:25Z</time>
      </trkpt>
      <trkpt lat="42.823565" lon="-0.184899">
        <ele>1786.426</ele>
        <time>2020-07-22T05:59:30Z</time>
      </trkpt>
      <trkpt lat="42.823608" lon="-0.184867">
        <ele>1786.508</ele>
        <time>2020-07-22T05:59:34Z</time>
      </trkpt>
      <trkpt lat="42.823656" lon="-0.184845">
        <ele>1785.142</ele>
        <time>2020-07-22T05:59:43Z</time>
      </trkpt>
      <trkpt lat="42.823707" lon="-0.184809">
        <ele>1785.170</ele>
        <time>2020-07-22T05:59:49Z</time>
      </trkpt>
      <trkpt lat="42.823747" lon="-0.184771">
        <ele>1785.853</ele>
        <time>2020-07-22T05:59:54Z</time>
      </trkpt>
      <trkpt lat="42.823773" lon="-0.184718">
        <ele>1784.946</ele>
        <time>2020-07-22T05:59:55Z</time>
      </trkpt>
      <trkpt lat="42.823803" lon="-0.184657">
        <ele>1785.242</ele>
        <time>2020-07-22T06:00:04Z</time>
      </trkpt>
      <trkpt lat="42.823833" lon="-0.184597">
        <ele>1784.768</ele>
        <time>2020-07-22T06:00:08Z</time>
      </trkpt>
      <trkpt lat="42.823864" lon="-0.184538">
        <ele>1784.787</ele>
        <time>2020-07-22T06:00:09Z</time>
      </trkpt>
      <trkpt lat="42.823889" lon="-0.184487">
        <ele>1784.691</ele>
        <time>2020-07-22T06:00:13Z</time>
      </trkpt>
      <trkpt lat="42.823914" lon="-0.184423">
        <ele>1785.374</ele>
        <time>2020-07-22T06:00:18Z</time>
      </trkpt>
      <trkpt lat="42.823941" lon="-0.184357">
        <ele>1785.656</ele>
        <time>2020-07-22T06:00:28Z</time>
      </trkpt>
      <trkpt lat="42.823974" lon="-0.184304">
        <ele>1786.621</ele>
        <time>2020-07-22T06:00:35Z</time>
      </trkpt>
      <trkpt lat="42.824013" lon="-0.184251">
        <ele>1785.708</ele>
        <time>2020-07-22T06:00:44Z</time>
      </trkpt>
      <trkpt lat="42.824033" lon="-0.184184">
        <ele>1789.212</ele>
        <time>2020-07-22T06:00:50Z</time>
      </trkpt>
      <trkpt lat="42.824074" lon="-0.184134">
        <ele>1790.160</ele>
        <time>2020-07-22T06:00:57Z</time>
      </trkpt>
      <trkpt lat="42.824126" lon="-0.184106">
        <ele>1790.233</ele>
        <time>2020-07-22T06:01:05Z</time>
      </trkpt>
      <trkpt lat="42.824165" lon="-0.184071">
        <ele>1789.676</ele>
        <time>2020-07-22T06:01:09Z</time>
      </trkpt>
      <trkpt lat="42.824200" lon="-0.184023">
        <ele>1790.052</ele>
        <time>2020-07-22T06:01:14Z</time>
      </trkpt>
      <trkpt lat="42.824233" lon="-0.183982">
        <ele>1789.548</ele>
        <time>2020-07-22T06:01:19Z</time>
      </trkpt>
      <trkpt lat="42.824273" lon="-0.183930">
        <ele>1788.777</ele>
        <time>2020-07-22T06:01:26Z</time>
      </trkpt>
      <trkpt lat="42.824302" lon="-0.183882">
        <ele>1787.481</ele>
        <time>2020-07-22T06:01:29Z</time>
      </trkpt>
      <trkpt lat="42.824336" lon="-0.183839">
        <ele>1787.496</ele>
        <time>2020-07-22T06:01:38Z</time>
      </trkpt>
      <trkpt lat="42.824371" lon="-0.183782">
        <ele>1786.531</ele>
        <time>2020-07-22T06:01:45Z</time>
      </trkpt>
      <trkpt lat="42.824415" lon="-0.183736">
        <ele>1786.224</ele>
        <time>2020-07-22T06:01:50Z</time>
      </trkpt>
      <trkpt lat="42.824450" lon="-0.183682">
        <ele>1786.308</ele>
        <time>2020-07-22T06:01:54Z</time>
      </trkpt>
      <trkpt lat="42.824485" lon="-0.183640">
        <ele>1786.374</ele>
        <time>2020-07-22T06:01:59Z</time>
      </trkpt>
      <trkpt lat="42.824524" lon="-0.183590">
        <ele>1787.342</ele>
        <time>2020-07-22T06:02:06Z</time>
      </trkpt>
      <trkpt lat="42.824568" lon="-0.183576">
        <ele>1787.915</ele>
        <time>2020-07-22T06:02:09Z</time>
      </trkpt>
      <trkpt lat="42.824601" lon="-0.183527">
        <ele>1788.738</ele>
        <time>2020-07-22T06:02:18Z</time>
      </trkpt>
      <trkpt lat="42.824640" lon="-0.183478">
        <ele>1789.644</ele>
        <time>2020-07-22T06:02:24Z</time>
      </trkpt>
      <trkpt lat="42.824687" lon="-0.183458">
        <ele>1790.930</ele>
        <time>2020-07-22T06:02:26Z</time>
      </trkpt>
      <trkpt lat="42.824735" lon="-0.183456">
        <ele>1789.839</ele>
        <time>2020-07-22T06:02:36Z</time>
      </trkpt>
      <trkpt lat="42.824780" lon="-0.183428">
        <ele>1789.973</ele>
        <time>2020-07-22T06:02:42Z</time>
      </trkpt>
      <trkpt lat="42.824826" lon="-0.183419">
        <ele>1790.596</ele>
        <time>2020-07-22T06:02:48Z</time>
      </trkpt>
      <trkpt lat="42.824872" lon="-0.183444">
        <ele>1790.231</ele>
        <time>2020-07-22T06:02:49Z</time>
      </trkpt>
      <trkpt lat="42.824911" lon="-0.183489">
        <ele>1789.624</ele>
        <time>2020-07-22T06:02:54Z</time>
      </trkpt>
      <trkpt lat="42.824955" lon="-0.183513">
        <ele>1790.108</ele>
        <time>2020-07-22T06:03:05Z</time>
      </trkpt>
      <trkpt lat="42.825006" lon="-0.183493">
        <ele>1790.554</ele>
        <time>2020-07-22T06:03:12Z</time>
      </trkpt>
      <trkpt lat="42.825052" lon="-0.183466">
        <ele>1791.142</ele>
        <time>2020-07-22T06:03:14Z</time>
      </trkpt>
      <trkpt lat="42.825088" lon="-0.183424">
        <ele>1792.235</ele>
        <time>2020-07-22T06:03:20Z</time>
      </trkpt>
      <trkpt lat="42.825117" lon="-0.183365">
        <ele>1793.038</ele>
        <time>2020-07-22T06:03:32Z</time>
      </trkpt>
      <trkpt lat="42.825152" lon="-0.183322">
        <ele>1793.874</ele>
        <time>2020-07-22T06:03:41Z</time>
      </trkpt>
      <trkpt lat="42.825169" lon="-0.183264">
        <ele>1793.990</ele>
        <time>2020-07-22T06:03:44Z</time>
      </trkpt>
      <trkpt lat="42.825194" lon="-0.183212">
        <ele>1794.819</ele>
        <time>2020-07-22T06:03:49Z</time>
      </trkpt>
      <trkpt lat="42.825222" lon="-0.183139">
        <ele>1796.023</ele>
        <time>2020-07-22T06:03:59Z</time>
      </trkpt>
      <trkpt lat="42.825241" lon="-0.183077">
        <ele>1796.173</ele>
        <time>2020-07-22T06:04:01Z</time>
      </trkpt>
      <trkpt lat="42.825248" lon="-0.183011">
        <ele>1796.585</ele>
        <time>2020-07-22T06:04:11Z</time>
      </trkpt>
      <trkpt lat="42.825236" lon="-0.182943">
        <ele>1796.413</ele>
        <time>2020-07-22T06:04:17Z</time>
      </trkpt>
      <trkpt lat="42.825251" lon="-0.182874">
        <ele>1796.908</ele>
        <time>2020-07-22T06:04:20Z</time>
      </trkpt>
      <trkpt lat="42.825293" lon="-0.182852">
        <ele>1796.912</ele>
        <time>2020-07-22T06:04:46Z</time>
      </trkpt>
      <trkpt lat="42.825329" lon="-0.182813">
        <ele>1796.490</ele>
        <time>2020-07-22T06:05:00Z</time>
      </trkpt>
      <trkpt lat="42.825369" lon="-0.182775">
        <ele>1796.363</ele>
        <time>2020-07-22T06:05:08Z</time>
      </trkpt>
      <trkpt lat="42.825407" lon="-0.182728">
        <ele>1796.696</ele>
        <time>2020-07-22T06:05:08Z</time>
      </trkpt>
      <trkpt lat="42.825443" lon="-0.182675">
        <ele>1795.522</ele>
        <time>2020-07-22T06:05:12Z</time>
      </trkpt>
      <trkpt lat="42.825483" lon="-0.182623">
        <ele>1796.278</ele>
        <time>2020-07-22T06:05:21Z</time>
      </trkpt>
      <trkpt lat="42.825528" lon="-0.182591">
        <ele>1795.477</ele>
        <time>2020-07-22T06:05:28Z</time>
      </trkpt>
      <trkpt lat="42.825568" lon="-0.182533">
        <ele>1794.961</ele>
        <time>2020-07-22T06:05:34Z</time>
      </trkpt>
      <trkpt lat="42.825602" lon="-0.182492">
        <ele>1794.466</ele>
        <time>2020-07-22T06:05:38Z</time>
      </trkpt>
      <trkpt lat="42.825631" lon="-0.182433">
        <ele>1796.529</ele>
        <time>2020-07-22T06:05:43Z</time>
      </trkpt>
      <trkpt lat="42.825663" lon="-0.182381">
        <ele>1797.121</ele>
        <time>2020-07-22T06:05:45Z</time>
      </trkpt>
      <trkpt lat="42.825700" lon="-0.182337">
        <ele>1796.908</ele>
        <time>2020-07-22T06:05:52Z</time>
      </trkpt>
      <trkpt lat="42.825739" lon="-0.182288">
        <ele>1797.491</ele>
        <time>2020-07-22T06:06:01Z</time>
      </trkpt>
      <trkpt lat="42.825767" lon="-0.182229">
        <ele>1797.599</ele>
        <time>2020-07-22T06:06:12Z</time>
      </trkpt>
      <trkpt lat="42.825810" lon="-0.182193">
        <ele>1799.352</ele>
        <time>2020-07-22T06:06:14Z</time>
      </trkpt>
      <trkpt lat="42.825863" lon="-0.182195">
        <ele>1799.415</ele>
        <time>2020-07-22T06:06:24Z</time>
      </trkpt>
      <trkpt lat="42.825901" lon="-0.182144">
        <ele>1797.351</ele>
        <time>2020-07-22T06:06:33Z</time>
      </trkpt>
      <trkpt lat="42.825907" lon="-0.182079">
        <ele>1797.297</ele>
        <time>2020-07-22T06:06:39Z</time>
      </trkpt>
      <trkpt lat="42.825896" lon="-0.182011">
        <ele>1796.546</ele>
        <time>2020-07-22T06:06:46Z</time>
      </trkpt>
      <trkpt lat="42.825921" lon="-0.181934">
        <ele>1795.590</ele>
        <time>2020-07-22T06:06:51Z</time>
      </trkpt>
      <trkpt lat="42.825967" lon="-0.181911">
        <ele>1794.016</ele>
        <time>2020-07-22T06:06:59Z</time>
      </trkpt>
      <trkpt lat="42.826011" lon="-0.181896">
        <ele>1794.676</ele>
        <time>2020-07-22T06:07:00Z</time>
      </trkpt>
      <trkpt lat="42.826067" lon="-0.181874">
        <ele>1792.913</ele>
        <time>2020-07-22T06:07:10Z</time>
      </trkpt>
      <trkpt lat="42.826117" lon="-0.181866">
        <ele>1793.308</ele>
        <time>2020-07-22T06:07:15Z</time>
      </trkpt>
      <trkpt lat="42.826162" lon="-0.181884">
        <ele>1793.146</ele>
        <time>2020-07-22T06:07:20Z</time>
      </trkpt>
      <trkpt lat="42.826214" lon="-0.181875">
        <ele>1792.094</ele>
        <time>2020-07-22T06:07:26Z</time>
      </trkpt>
      <trkpt lat="42.826262" lon="-0.181849">
        <ele>1790.957</ele>
        <time>2020-07-22T06:07:33Z</time>
      </trkpt>
      <trkpt lat="42.826310" lon="-0.181830">
        <ele>1790.180</ele>
        <time>2020-07-22T06:07:41Z</time>
      </trkpt>
      <trkpt lat="42.826345" lon="-0.181788">
        <ele>1789.246</ele>
        <time>2020-07-22T06:07:48Z</time>
      </trkpt>
      <trkpt lat="42.826368" lon="-0.181730">
        <ele>1788.392</ele>
        <time>2020-07-22T06:07:56Z</time>
      </trkpt>
      <trkpt lat="42.826384" lon="-0.181664">
        <ele>1788.261</ele>
        <time>2020-07-22T06:07:59Z</time>
      </trkpt>
      <trkpt lat="42.826421" lon="-0.181623">
        <ele>1787.755</ele>
        <time>2020-07-22T06:08:09Z</time>
      </trkpt>
      <trkpt lat="42.826461" lon="-0.181583">
        <ele>1786.892</ele>
        <time>2020-07-22T06:08:13Z</time>
      </trkpt>
      <trkpt lat="42.826481" lon="-0.181527">
        <ele>1786.673</ele>
        <time>2020-07-22T06:08:22Z</time>
      </trkpt>
      <trkpt lat="42.826520" lon="-0.181480">
        <ele>1786.020</ele>
        <time>2020-07-22T06:08:28Z</time>
      </trkpt>
      <trkpt lat="42.826554" lon="-0.181436">
        <ele>1786.108</ele>
        <time>2020-07-22T06:08:34Z</time>
      </trkpt>
      <trkpt lat="42.826581" lon="-0.181376">
        <ele>1785.854</ele>
        <time>2020-07-22T06:08:39Z</time>
      </trkpt>
      <trkpt lat="42.826609" lon="-0.181320">
        <ele>1785.732</ele>
        <time>2020-07-22T06:08:45Z</time>
      </trkpt>
      <trkpt lat="42.826644" lon="-0.181257">
        <ele>1784.635</ele>
        <time>2020-07-22T06:08:50Z</time>
      </trkpt>
      <trkpt lat="42.826679" lon="-0.181205">
        <ele>1785.168</ele>
        <time>2020-07-22T06:08:55Z</time>
      </trkpt>
      <trkpt lat="42.826715" lon="-0.181159">
        <ele>1784.634</ele>
        <time>2020-07-22T06:09:00Z</time>
      </trkpt>
      <trkpt lat="42.826742" lon="-0.181102">
        <ele>1786.010</ele>
        <time>2020-07-22T06:09:04Z</time>
      </trkpt>
      <trkpt lat="42.826785" lon="-0.181058">
        <ele>1784.519</ele>
        <time>2020-07-22T06:09:11Z</time>
      </trkpt>
      <trkpt lat="42.826826" lon="-0.181007">
        <ele>1784.643</ele>
        <time>2020-07-22T06:09:17Z</time>
      </trkpt>
      <trkpt lat="42.826864" lon="-0.180971">
        <ele>1784.159</ele>
        <time>2020-07-22T06:09:23Z</time>
      </trkpt>
      <trkpt lat="42.826912" lon="-0.180937">
        <ele>1783.603</ele>
        <time>2020-07-22T06:09:28Z</time>
      </trkpt>
      <trkpt lat="42.826958" lon="-0.180907">
        <ele>1783.823</ele>
        <time>2020-07-22T06:09:34Z</time>
      </trkpt>
      <trkpt lat="42.826997" lon="-0.180874">
        <ele>1783.608</ele>
        <time>2020-07-22T06:09:40Z</time>
      </trkpt>
      <trkpt lat="42.827030" lon="-0.180830">
        <ele>1784.270</ele>
        <time>2020-07-22T06:09:45Z</time>
      </trkpt>
      <trkpt lat="42.827045" lon="-0.180768">
        <ele>1784.458</ele>
        <time>2020-07-22T06:09:52Z</time>
      </trkpt>
      <trkpt lat="42.827060" lon="-0.180698">
        <ele>1783.671</ele>
        <time>2020-07-22T06:09:57Z</time>
      </trkpt>
      <trkpt lat="42.827070" lon="-0.180633">
        <ele>1782.674</ele>
        <time>2020-07-22T06:10:02Z</time>
      </trkpt>
      <trkpt lat="42.827099" lon="-0.180570">
        <ele>1782.560</ele>
        <time>2020-07-22T06:10:08Z</time>
      </trkpt>
      <trkpt lat="42.827130" lon="-0.180523">
        <ele>1781.856</ele>
        <time>2020-07-22T06:10:09Z</time>
      </trkpt>
      <trkpt lat="42.827146" lon="-0.180452">
        <ele>1781.125</ele>
        <time>2020-07-22T06:10:20Z</time>
      </trkpt>
      <trkpt lat="42.827146" lon="-0.180384">
        <ele>1780.029</ele>
        <time>2020-07-22T06:10:28Z</time>
      </trkpt>
      <trkpt lat="42.827154" lon="-0.180312">
        <ele>1777.874</ele>
        <time>2020-07-22T06:10:34Z</time>
      </trkpt>
      <trkpt lat="42.827151" lon="-0.180241">
        <ele>1778.156</ele>
        <time>2020-07-22T06:10:42Z</time>
      </trkpt>
      <trkpt lat="42.827161" lon="-0.180180">
        <ele>1775.721</ele>
        <time>2020-07-22T06:10:49Z</time>
      </trkpt>
      <trkpt lat="42.827190" lon="-0.180118">
        <ele>1775.608</ele>
        <time>2020-07-22T06:10:54Z</time>
      </trkpt>
      <trkpt lat="42.827237" lon="-0.180075">
        <ele>1776.912</ele>
        <time>2020-07-22T06:11:00Z</time>
      </trkpt>
      <trkpt lat="42.827287" lon="-0.180046">
        <ele>1776.630</ele>
        <time>2020-07-22T06:11:06Z</time>
      </trkpt>
      <trkpt lat="42.827333" lon="-0.180002">
        <ele>1776.273</ele>
        <time>2020-07-22T06:11:11Z</time>
      </trkpt>
      <trkpt lat="42.827384" lon="-0.179994">
        <ele>1775.996</ele>
        <time>2020-07-22T06:11:17Z</time>
      </trkpt>
      <trkpt lat="42.827432" lon="-0.180003">
        <ele>1775.572</ele>
        <time>2020-07-22T06:11:24Z</time>
      </trkpt>
      <trkpt lat="42.827477" lon="-0.179978">
        <ele>1775.368</ele>
        <time>2020-07-22T06:11:32Z</time>
      </trkpt>
      <trkpt lat="42.827528" lon="-0.179967">
        <ele>1772.787</ele>
        <time>2020-07-22T06:11:39Z</time>
      </trkpt>
      <trkpt lat="42.827563" lon="-0.179927">
        <ele>1773.081</ele>
        <time>2020-07-22T06:11:46Z</time>
      </trkpt>
      <trkpt lat="42.827543" lon="-0.179865">
        <ele>1773.084</ele>
        <time>2020-07-22T06:11:52Z</time>
      </trkpt>
      <trkpt lat="42.827501" lon="-0.179808">
        <ele>1771.807</ele>
        <time>2020-07-22T06:11:57Z</time>
      </trkpt>
      <trkpt lat="42.827476" lon="-0.179753">
        <ele>1771.017</ele>
        <time>2020-07-22T06:12:03Z</time>
      </trkpt>
      <trkpt lat="42.827455" lon="-0.179696">
        <ele>1769.808</ele>
        <time>2020-07-22T06:12:08Z</time>
      </trkpt>
      <trkpt lat="42.827471" lon="-0.179632">
        <ele>1769.233</ele>
        <time>2020-07-22T06:12:15Z</time>
      </trkpt>
      <trkpt lat="42.827517" lon="-0.179633">
        <ele>1768.181</ele>
        <time>2020-07-22T06:12:18Z</time>
      </trkpt>
      <trkpt lat="42.827556" lon="-0.179690">
        <ele>1766.884</ele>
        <time>2020-07-22T06:12:29Z</time>
      </trkpt>
      <trkpt lat="42.827602" lon="-0.179699">
        <ele>1766.357</ele>
        <time>2020-07-22T06:12:37Z</time>
      </trkpt>
      <trkpt lat="42.827645" lon="-0.179668">
        <ele>1765.383</ele>
        <time>2020-07-22T06:12:44Z</time>
      </trkpt>
      <trkpt lat="42.827669" lon="-0.179612">
        <ele>1764.329</ele>
        <time>2020-07-22T06:12:50Z</time>
      </trkpt>
      <trkpt lat="42.827697" lon="-0.179558">
        <ele>1763.088</ele>
        <time>2020-07-22T06:12:56Z</time>
      </trkpt>
      <trkpt lat="42.827729" lon="-0.179510">
        <ele>1763.232</ele>
        <time>2020-07-22T06:13:03Z</time>
      </trkpt>
      <trkpt lat="42.827748" lon="-0.179450">
        <ele>1762.116</ele>
        <time>2020-07-22T06:13:09Z</time>
      </trkpt>
      <trkpt lat="42.827790" lon="-0.179416">
        <ele>1760.876</ele>
        <time>2020-07-22T06:13:17Z</time>
      </trkpt>
      <trkpt lat="42.827836" lon="-0.179404">
        <ele>1759.813</ele>
        <time>2020-07-22T06:13:27Z</time>
      </trkpt>
      <trkpt lat="42.827887" lon="-0.179377">
        <ele>1758.308</ele>
        <time>2020-07-22T06:13:34Z</time>
      </trkpt>
      <trkpt lat="42.827936" lon="-0.179337">
        <ele>1757.536</ele>
        <time>2020-07-22T06:13:41Z</time>
      </trkpt>
      <trkpt lat="42.827987" lon="-0.179308">
        <ele>1756.364</ele>
        <time>2020-07-22T06:13:48Z</time>
      </trkpt>
      <trkpt lat="42.828022" lon="-0.179249">
        <ele>1756.267</ele>
        <time>2020-07-22T06:13:55Z</time>
      </trkpt>
      <trkpt lat="42.828062" lon="-0.179212">
        <ele>1756.090</ele>
        <time>2020-07-22T06:13:57Z</time>
      </trkpt>
      <trkpt lat="42.828106" lon="-0.179162">
        <ele>1754.936</ele>
        <time>2020-07-22T06:14:08Z</time>
      </trkpt>
      <trkpt lat="42.828135" lon="-0.179112">
        <ele>1754.362</ele>
        <time>2020-07-22T06:14:14Z</time>
      </trkpt>
      <trkpt lat="42.828170" lon="-0.179071">
        <ele>1753.561</ele>
        <time>2020-07-22T06:14:21Z</time>
      </trkpt>
      <trkpt lat="42.828211" lon="-0.179044">
        <ele>1751.735</ele>
        <time>2020-07-22T06:14:23Z</time>
      </trkpt>
      <trkpt lat="42.828259" lon="-0.179010">
        <ele>1751.614</ele>
        <time>2020-07-22T06:14:29Z</time>
      </trkpt>
      <trkpt lat="42.828291" lon="-0.178947">
        <ele>1751.154</ele>
        <time>2020-07-22T06:14:39Z</time>
      </trkpt>
      <trkpt lat="42.828332" lon="-0.178911">
        <ele>1750.909</ele>
        <time>2020-07-22T06:14:43Z</time>
      </trkpt>
      <trkpt lat="42.828382" lon="-0.178867">
        <ele>1750.008</ele>
        <time>2020-07-22T06:14:56Z</time>
      </trkpt>
      <trkpt lat="42.828418" lon="-0.178810">
        <ele>1749.936</ele>
        <time>2020-07-22T06:15:03Z</time>
      </trkpt>
      <trkpt lat="42.828448" lon="-0.178753">
        <ele>1749.124</ele>
        <time>2020-07-22T06:15:09Z</time>
      </trkpt>
      <trkpt lat="42.828495" lon="-0.178723">
        <ele>1748.377</ele>
        <time>2020-07-22T06:15:17Z</time>
      </trkpt>
      <trkpt lat="42.828527" lon="-0.178679">
        <ele>1746.940</ele>
        <time>2020-07-22T06:15:20Z</time>
      </trkpt>
      <trkpt lat="42.828541" lon="-0.178616">
        <ele>1745.756</ele>
        <time>2020-07-22T06:15:28Z</time>
      </trkpt>
      <trkpt lat="42.828500" lon="-0.178591">
        <ele>1745.542</ele>
        <time>2020-07-22T06:15:33Z</time>
      </trkpt>
      <trkpt lat="42.828446" lon="-0.178586">
        <ele>1744.431</ele>
        <time>2020-07-22T06:15:38Z</time>
      </trkpt>
      <trkpt lat="42.828398" lon="-0.178595">
        <ele>1743.875</ele>
        <time>2020-07-22T06:15:43Z</time>
      </trkpt>
      <trkpt lat="42.828342" lon="-0.178581">
        <ele>1742.525</ele>
        <time>2020-07-22T06:15:53Z</time>
      </trkpt>
      <trkpt lat="42.828290" lon="-0.178573">
        <ele>1741.926</ele>
        <time>2020-07-22T06:15:56Z</time>
      </trkpt>
      <trkpt lat="42.828243" lon="-0.178599">
        <ele>1741.508</ele>
        <time>2020-07-22T06:16:07Z</time>
      </trkpt>
      <trkpt lat="42.828199" lon="-0.178637">
        <ele>1741.108</ele>
        <time>2020-07-22T06:16:13Z</time>
      </trkpt>
      <trkpt lat="42.828154" lon="-0.178685">
        <ele>1740.067</ele>
        <time>2020-07-22T06:16:39Z</time>
      </trkpt>
      <trkpt lat="42.828103" lon="-0.178704">
        <ele>1739.435</ele>
        <time>2020-07-22T06:16:44Z</time>
      </trkpt>
      <trkpt lat="42.828049" lon="-0.178709">
        <ele>1738.928</ele>
        <time>2020-07-22T06:16:49Z</time>
      </trkpt>
      <trkpt lat="42.827998" lon="-0.178703">
        <ele>1738.451</ele>
        <time>2020-07-22T06:16:50Z</time>
      </trkpt>
      <trkpt lat="42.827971" lon="-0.178634">
        <ele>1738.217</ele>
        <time>2020-07-22T06:16:59Z</time>
      </trkpt>
      <trkpt lat="42.827959" lon="-0.178562">
        <ele>1736.993</ele>
        <time>2020-07-22T06:17:01Z</time>
      </trkpt>
      <trkpt lat="42.828003" lon="-0.178503">
        <ele>1736.592</ele>
        <time>2020-07-22T06:17:10Z</time>
      </trkpt>
      <trkpt lat="42.828061" lon="-0.178478">
        <ele>1735.946</ele>
        <time>2020-07-22T06:17:13Z</time>
      </trkpt>
      <trkpt lat="42.828106" lon="-0.178453">
        <ele>1734.814</ele>
        <time>2020-07-22T06:17:18Z</time>
      </trkpt>
      <trkpt lat="42.828148" lon="-0.178427">
        <ele>1734.154</ele>
        <time>2020-07-22T06:17:26Z</time>
      </trkpt>
      <trkpt lat="42.828185" lon="-0.178374">
        <ele>1733.809</ele>
        <time>2020-07-22T06:17:28Z</time>
      </trkpt>
      <trkpt lat="42.828222" lon="-0.178332">
        <ele>1733.408</ele>
        <time>2020-07-22T06:17:37Z</time>
      </trkpt>
      <trkpt lat="42.828262" lon="-0.178283">
        <ele>1733.056</ele>
        <time>2020-07-22T06:17:42Z</time>
      </trkpt>
      <trkpt lat="42.828308" lon="-0.178242">
        <ele>1731.834</ele>
        <time>2020-07-22T06:17:48Z</time>
      </trkpt>
      <trkpt lat="42.828345" lon="-0.178194">
        <ele>1731.467</ele>
        <time>2020-07-22T06:17:55Z</time>
      </trkpt>
      <trkpt lat="42.828366" lon="-0.178148">
        <ele>1730.570</ele>
        <time>2020-07-22T06:18:01Z</time>
      </trkpt>
      <trkpt lat="42.828380" lon="-0.178087">
        <ele>1731.926</ele>
        <time>2020-07-22T06:18:07Z</time>
      </trkpt>
      <trkpt lat="42.828404" lon="-0.178039">
        <ele>1729.662</ele>
        <time>2020-07-22T06:18:32Z</time>
      </trkpt>
      <trkpt lat="42.828446" lon="-0.177992">
        <ele>1730.011</ele>
        <time>2020-07-22T06:18:33Z</time>
      </trkpt>
      <trkpt lat="42.828483" lon="-0.177948">
        <ele>1729.845</ele>
        <time>2020-07-22T06:18:55Z</time>
      </trkpt>
      <trkpt lat="42.828533" lon="-0.177932">
        <ele>1728.651</ele>
        <time>2020-07-22T06:19:03Z</time>
      </trkpt>
      <trkpt lat="42.828585" lon="-0.177904">
        <ele>1730.201</ele>
        <time>2020-07-22T06:19:08Z</time>
      </trkpt>
      <trkpt lat="42.828631" lon="-0.177883">
        <ele>1728.311</ele>
        <time>2020-07-22T06:19:11Z</time>
      </trkpt>
      <trkpt lat="42.828664" lon="-0.177840">
        <ele>1729.508</ele>
        <time>2020-07-22T06:19:15Z</time>
      </trkpt>
      <trkpt lat="42.828694" lon="-0.177780">
        <ele>1729.550</ele>
        <time>2020-07-22T06:19:19Z</time>
      </trkpt>
      <trkpt lat="42.828730" lon="-0.177716">
        <ele>1728.468</ele>
        <time>2020-07-22T06:19:24Z</time>
      </trkpt>
      <trkpt lat="42.828756" lon="-0.177663">
        <ele>1729.391</ele>
        <time>2020-07-22T06:19:28Z</time>
      </trkpt>
      <trkpt lat="42.828782" lon="-0.177601">
        <ele>1728.374</ele>
        <time>2020-07-22T06:19:33Z</time>
      </trkpt>
      <trkpt lat="42.828812" lon="-0.177546">
        <ele>1728.860</ele>
        <time>2020-07-22T06:19:37Z</time>
      </trkpt>
      <trkpt lat="42.828829" lon="-0.177477">
        <ele>1728.146</ele>
        <time>2020-07-22T06:19:43Z</time>
      </trkpt>
      <trkpt lat="42.828856" lon="-0.177427">
        <ele>1727.775</ele>
        <time>2020-07-22T06:19:47Z</time>
      </trkpt>
      <trkpt lat="42.828894" lon="-0.177377">
        <ele>1727.519</ele>
        <time>2020-07-22T06:19:54Z</time>
      </trkpt>
      <trkpt lat="42.828938" lon="-0.177331">
        <ele>1727.573</ele>
        <time>2020-07-22T06:20:00Z</time>
      </trkpt>
      <trkpt lat="42.828977" lon="-0.177292">
        <ele>1728.085</ele>
        <time>2020-07-22T06:20:05Z</time>
      </trkpt>
      <trkpt lat="42.829016" lon="-0.177250">
        <ele>1727.813</ele>
        <time>2020-07-22T06:20:09Z</time>
      </trkpt>
      <trkpt lat="42.829044" lon="-0.177187">
        <ele>1727.808</ele>
        <time>2020-07-22T06:20:11Z</time>
      </trkpt>
      <trkpt lat="42.829071" lon="-0.177132">
        <ele>1727.412</ele>
        <time>2020-07-22T06:20:18Z</time>
      </trkpt>
      <trkpt lat="42.829095" lon="-0.177078">
        <ele>1726.530</ele>
        <time>2020-07-22T06:20:23Z</time>
      </trkpt>
      <trkpt lat="42.829128" lon="-0.177028">
        <ele>1727.693</ele>
        <time>2020-07-22T06:20:28Z</time>
      </trkpt>
      <trkpt lat="42.829164" lon="-0.176983">
        <ele>1728.156</ele>
        <time>2020-07-22T06:20:32Z</time>
      </trkpt>
      <trkpt lat="42.829207" lon="-0.176956">
        <ele>1727.442</ele>
        <time>2020-07-22T06:20:36Z</time>
      </trkpt>
      <trkpt lat="42.829252" lon="-0.176910">
        <ele>1727.568</ele>
        <time>2020-07-22T06:20:38Z</time>
      </trkpt>
      <trkpt lat="42.829259" lon="-0.176845">
        <ele>1727.097</ele>
        <time>2020-07-22T06:20:46Z</time>
      </trkpt>
      <trkpt lat="42.829225" lon="-0.176797">
        <ele>1728.251</ele>
        <time>2020-07-22T06:21:01Z</time>
      </trkpt>
      <trkpt lat="42.829195" lon="-0.176741">
        <ele>1727.032</ele>
        <time>2020-07-22T06:21:08Z</time>
      </trkpt>
      <trkpt lat="42.829206" lon="-0.176678">
        <ele>1727.192</ele>
        <time>2020-07-22T06:21:10Z</time>
      </trkpt>
      <trkpt lat="42.829248" lon="-0.176622">
        <ele>1727.011</ele>
        <time>2020-07-22T06:21:16Z</time>
      </trkpt>
      <trkpt lat="42.829312" lon="-0.176572">
        <ele>1726.508</ele>
        <time>2020-07-22T06:21:20Z</time>
      </trkpt>
      <trkpt lat="42.829360" lon="-0.176542">
        <ele>1725.918</ele>
        <time>2020-07-22T06:21:21Z</time>
      </trkpt>
      <trkpt lat="42.829410" lon="-0.176540">
        <ele>1726.286</ele>
        <time>2020-07-22T06:21:27Z</time>
      </trkpt>
      <trkpt lat="42.829448" lon="-0.176498">
        <ele>1726.059</ele>
        <time>2020-07-22T06:21:55Z</time>
      </trkpt>
      <trkpt lat="42.829488" lon="-0.176460">
        <ele>1725.942</ele>
        <time>2020-07-22T06:22:00Z</time>
      </trkpt>
      <trkpt lat="42.829524" lon="-0.176413">
        <ele>1725.568</ele>
        <time>2020-07-22T06:22:02Z</time>
      </trkpt>
      <trkpt lat="42.829568" lon="-0.176372">
        <ele>1726.064</ele>
        <time>2020-07-22T06:22:09Z</time>
      </trkpt>
      <trkpt lat="42.829602" lon="-0.176319">
        <ele>1725.653</ele>
        <time>2020-07-22T06:22:14Z</time>
      </trkpt>
      <trkpt lat="42.829630" lon="-0.176262">
        <ele>1726.067</ele>
        <time>2020-07-22T06:22:19Z</time>
      </trkpt>
      <trkpt lat="42.829668" lon="-0.176224">
        <ele>1725.593</ele>
        <time>2020-07-22T06:22:21Z</time>
      </trkpt>
      <trkpt lat="42.829691" lon="-0.176162">
        <ele>1724.965</ele>
        <time>2020-07-22T06:22:29Z</time>
      </trkpt>
      <trkpt lat="42.829714" lon="-0.176101">
        <ele>1725.921</ele>
        <time>2020-07-22T06:22:33Z</time>
      </trkpt>
      <trkpt lat="42.829752" lon="-0.176063">
        <ele>1725.308</ele>
        <time>2020-07-22T06:22:38Z</time>
      </trkpt>
      <trkpt lat="42.829798" lon="-0.176030">
        <ele>1725.784</ele>
        <time>2020-07-22T06:22:41Z</time>
      </trkpt>
      <trkpt lat="42.829849" lon="-0.176034">
        <ele>1725.752</ele>
        <time>2020-07-22T06:22:49Z</time>
      </trkpt>
      <trkpt lat="42.829902" lon="-0.176021">
        <ele>1725.425</ele>
        <time>2020-07-22T06:22:58Z</time>
      </trkpt>
      <trkpt lat="42.829955" lon="-0.176022">
        <ele>1724.928</ele>
        <time>2020-07-22T06:23:05Z</time>
      </trkpt>
      <trkpt lat="42.830007" lon="-0.175996">
        <ele>1724.214</ele>
        <time>2020-07-22T06:23:19Z</time>
      </trkpt>
      <trkpt lat="42.830052" lon="-0.175977">
        <ele>1724.620</ele>
        <time>2020-07-22T06:23:25Z</time>
      </trkpt>
      <trkpt lat="42.830096" lon="-0.175945">
        <ele>1725.399</ele>
        <time>2020-07-22T06:23:30Z</time>
      </trkpt>
      <trkpt lat="42.830141" lon="-0.175917">
        <ele>1725.213</ele>
        <time>2020-07-22T06:23:38Z</time>
      </trkpt>
      <trkpt lat="42.830183" lon="-0.175870">
        <ele>1725.128</ele>
        <time>2020-07-22T06:23:43Z</time>
      </trkpt>
      <trkpt lat="42.830217" lon="-0.175825">
        <ele>1724.189</ele>
        <time>2020-07-22T06:23:48Z</time>
      </trkpt>
      <trkpt lat="42.830249" lon="-0.175771">
        <ele>1725.217</ele>
        <time>2020-07-22T06:23:52Z</time>
      </trkpt>
      <trkpt lat="42.830280" lon="-0.175714">
        <ele>1723.708</ele>
        <time>2020-07-22T06:23:57Z</time>
      </trkpt>
      <trkpt lat="42.830314" lon="-0.175656">
        <ele>1724.347</ele>
        <time>2020-07-22T06:24:00Z</time>
      </trkpt>
      <trkpt lat="42.830344" lon="-0.175604">
        <ele>1724.255</ele>
        <time>2020-07-22T06:24:08Z</time>
      </trkpt>
      <trkpt lat="42.830374" lon="-0.175540">
        <ele>1723.578</ele>
        <time>2020-07-22T06:24:13Z</time>
      </trkpt>
      <trkpt lat="42.830404" lon="-0.175478">
        <ele>1724.391</ele>
        <time>2020-07-22T06:24:19Z</time>
      </trkpt>
      <trkpt lat="42.830447" lon="-0.175432">
        <ele>1724.257</ele>
        <time>2020-07-22T06:24:24Z</time>
      </trkpt>
      <trkpt lat="42.830498" lon="-0.175407">
        <ele>1723.723</ele>
        <time>2020-07-22T06:24:30Z</time>
      </trkpt>
      <trkpt lat="42.830539" lon="-0.175363">
        <ele>1724.262</ele>
        <time>2020-07-22T06:24:36Z</time>
      </trkpt>
      <trkpt lat="42.830568" lon="-0.175310">
        <ele>1723.996</ele>
        <time>2020-07-22T06:24:41Z</time>
      </trkpt>
      <trkpt lat="42.830605" lon="-0.175270">
        <ele>1722.759</ele>
        <time>2020-07-22T06:24:46Z</time>
      </trkpt>
      <trkpt lat="42.830648" lon="-0.175222">
        <ele>1723.403</ele>
        <time>2020-07-22T06:24:52Z</time>
      </trkpt>
      <trkpt lat="42.830682" lon="-0.175178">
        <ele>1723.823</ele>
        <time>2020-07-22T06:24:58Z</time>
      </trkpt>
      <trkpt lat="42.830724" lon="-0.175138">
        <ele>1723.608</ele>
        <time>2020-07-22T06:25:01Z</time>
      </trkpt>
      <trkpt lat="42.830756" lon="-0.175088">
        <ele>1724.640</ele>
        <time>2020-07-22T06:25:12Z</time>
      </trkpt>
      <trkpt lat="42.830773" lon="-0.175018">
        <ele>1724.258</ele>
        <time>2020-07-22T06:25:19Z</time>
      </trkpt>
      <trkpt lat="42.830810" lon="-0.174958">
        <ele>1724.171</ele>
        <time>2020-07-22T06:25:26Z</time>
      </trkpt>
      <trkpt lat="42.830845" lon="-0.174902">
        <ele>1723.224</ele>
        <time>2020-07-22T06:25:31Z</time>
      </trkpt>
      <trkpt lat="42.830867" lon="-0.174829">
        <ele>1723.410</ele>
        <time>2020-07-22T06:25:38Z</time>
      </trkpt>
      <trkpt lat="42.830901" lon="-0.174770">
        <ele>1723.386</ele>
        <time>2020-07-22T06:25:46Z</time>
      </trkpt>
      <trkpt lat="42.830938" lon="-0.174740">
        <ele>1723.985</ele>
        <time>2020-07-22T06:26:09Z</time>
      </trkpt>
      <trkpt lat="42.830974" lon="-0.174686">
        <ele>1722.949</ele>
        <time>2020-07-22T06:26:29Z</time>
      </trkpt>
      <trkpt lat="42.831003" lon="-0.174639">
        <ele>1723.267</ele>
        <time>2020-07-22T06:26:33Z</time>
      </trkpt>
      <trkpt lat="42.831023" lon="-0.174580">
        <ele>1723.181</ele>
        <time>2020-07-22T06:26:36Z</time>
      </trkpt>
      <trkpt lat="42.831039" lon="-0.174522">
        <ele>1722.919</ele>
        <time>2020-07-22T06:26:40Z</time>
      </trkpt>
      <trkpt lat="42.831058" lon="-0.174462">
        <ele>1722.208</ele>
        <time>2020-07-22T06:26:43Z</time>
      </trkpt>
      <trkpt lat="42.831088" lon="-0.174415">
        <ele>1722.591</ele>
        <time>2020-07-22T06:26:46Z</time>
      </trkpt>
      <trkpt lat="42.831130" lon="-0.174360">
        <ele>1722.049</ele>
        <time>2020-07-22T06:26:48Z</time>
      </trkpt>
      <trkpt lat="42.831168" lon="-0.174325">
        <ele>1722.282</ele>
        <time>2020-07-22T06:26:54Z</time>
      </trkpt>
      <trkpt lat="42.831206" lon="-0.174286">
        <ele>1721.985</ele>
        <time>2020-07-22T06:26:56Z</time>
      </trkpt>
      <trkpt lat="42.831245" lon="-0.174242">
        <ele>1721.781</ele>
        <time>2020-07-22T06:27:03Z</time>
      </trkpt>
      <trkpt lat="42.831285" lon="-0.174197">
        <ele>1721.977</ele>
        <time>2020-07-22T06:27:06Z</time>
      </trkpt>
      <trkpt lat="42.831319" lon="-0.174116">
        <ele>1721.346</ele>
        <time>2020-07-22T06:27:51Z</time>
      </trkpt>
      <trkpt lat="42.831352" lon="-0.174063">
        <ele>1721.450</ele>
        <time>2020-07-22T06:27:56Z</time>
      </trkpt>
      <trkpt lat="42.831356" lon="-0.174008">
        <ele>1721.318</ele>
        <time>2020-07-22T06:28:01Z</time>
      </trkpt>
      <trkpt lat="42.831349" lon="-0.173942">
        <ele>1721.998</ele>
        <time>2020-07-22T06:28:57Z</time>
      </trkpt>
      <trkpt lat="42.831361" lon="-0.173876">
        <ele>1721.517</ele>
        <time>2020-07-22T06:29:14Z</time>
      </trkpt>
      <trkpt lat="42.831390" lon="-0.173813">
        <ele>1721.708</ele>
        <time>2020-07-22T06:29:21Z</time>
      </trkpt>
      <trkpt lat="42.831409" lon="-0.173741">
        <ele>1721.476</ele>
        <time>2020-07-22T06:29:27Z</time>
      </trkpt>
      <trkpt lat="42.831429" lon="-0.173674">
        <ele>1722.024</ele>
        <time>2020-07-22T06:29:31Z</time>
      </trkpt>
      <trkpt lat="42.831449" lon="-0.173617">
        <ele>1721.237</ele>
        <time>2020-07-22T06:29:32Z</time>
      </trkpt>
      <trkpt lat="42.831472" lon="-0.173553">
        <ele>1721.340</ele>
        <time>2020-07-22T06:29:39Z</time>
      </trkpt>
      <trkpt lat="42.831516" lon="-0.173510">
        <ele>1720.936</ele>
        <time>2020-07-22T06:29:45Z</time>
      </trkpt>
      <trkpt lat="42.831560" lon="-0.173488">
        <ele>1721.382</ele>
        <time>2020-07-22T06:29:50Z</time>
      </trkpt>
      <trkpt lat="42.831608" lon="-0.173462">
        <ele>1722.081</ele>
        <time>2020-07-22T06:29:55Z</time>
      </trkpt>
      <trkpt lat="42.831659" lon="-0.173446">
        <ele>1720.245</ele>
        <time>2020-07-22T06:30:00Z</time>
      </trkpt>
      <trkpt lat="42.831713" lon="-0.173448">
        <ele>1721.562</ele>
        <time>2020-07-22T06:30:06Z</time>
      </trkpt>
      <trkpt lat="42.831761" lon="-0.173457">
        <ele>1721.283</ele>
        <time>2020-07-22T06:30:08Z</time>
      </trkpt>
      <trkpt lat="42.831813" lon="-0.173462">
        <ele>1720.311</ele>
        <time>2020-07-22T06:30:16Z</time>
      </trkpt>
      <trkpt lat="42.831863" lon="-0.173470">
        <ele>1720.808</ele>
        <time>2020-07-22T06:30:18Z</time>
      </trkpt>
      <trkpt lat="42.831903" lon="-0.173501">
        <ele>1720.041</ele>
        <time>2020-07-22T06:30:36Z</time>
      </trkpt>
      <trkpt lat="42.831945" lon="-0.173499">
        <ele>1719.549</ele>
        <time>2020-07-22T06:30:40Z</time>
      </trkpt>
      <trkpt lat="42.831987" lon="-0.173464">
        <ele>1719.212</ele>
        <time>2020-07-22T06:30:45Z</time>
      </trkpt>
      <trkpt lat="42.832018" lon="-0.173416">
        <ele>1719.365</ele>
        <time>2020-07-22T06:30:49Z</time>
      </trkpt>
      <trkpt lat="42.832059" lon="-0.173374">
        <ele>1719.641</ele>
        <time>2020-07-22T06:30:57Z</time>
      </trkpt>
      <trkpt lat="42.832101" lon="-0.173342">
        <ele>1719.257</ele>
        <time>2020-07-22T06:31:01Z</time>
      </trkpt>
      <trkpt lat="42.832152" lon="-0.173295">
        <ele>1718.416</ele>
        <time>2020-07-22T06:31:07Z</time>
      </trkpt>
      <trkpt lat="42.832194" lon="-0.173266">
        <ele>1718.750</ele>
        <time>2020-07-22T06:31:09Z</time>
      </trkpt>
      <trkpt lat="42.832249" lon="-0.173256">
        <ele>1718.838</ele>
        <time>2020-07-22T06:31:17Z</time>
      </trkpt>
      <trkpt lat="42.832302" lon="-0.173252">
        <ele>1719.370</ele>
        <time>2020-07-22T06:31:19Z</time>
      </trkpt>
      <trkpt lat="42.832359" lon="-0.173259">
        <ele>1719.217</ele>
        <time>2020-07-22T06:31:25Z</time>
      </trkpt>
      <trkpt lat="42.832414" lon="-0.173267">
        <ele>1718.608</ele>
        <time>2020-07-22T06:31:34Z</time>
      </trkpt>
      <trkpt lat="42.832472" lon="-0.173259">
        <ele>1718.918</ele>
        <time>2020-07-22T06:31:36Z</time>
      </trkpt>
      <trkpt lat="42.832519" lon="-0.173239">
        <ele>1719.286</ele>
        <time>2020-07-22T06:31:43Z</time>
      </trkpt>
      <trkpt lat="42.832566" lon="-0.173208">
        <ele>1719.439</ele>
        <time>2020-07-22T06:31:46Z</time>
      </trkpt>
      <trkpt lat="42.832609" lon="-0.173189">
        <ele>1719.212</ele>
        <time>2020-07-22T06:31:53Z</time>
      </trkpt>
      <trkpt lat="42.832650" lon="-0.173156">
        <ele>1719.468</ele>
        <time>2020-07-22T06:31:58Z</time>
      </trkpt>
      <trkpt lat="42.832684" lon="-0.173115">
        <ele>1718.914</ele>
        <time>2020-07-22T06:32:03Z</time>
      </trkpt>
      <trkpt lat="42.832723" lon="-0.173080">
        <ele>1718.933</ele>
        <time>2020-07-22T06:32:07Z</time>
      </trkpt>
      <trkpt lat="42.832768" lon="-0.173069">
        <ele>1720.057</ele>
        <time>2020-07-22T06:32:17Z</time>
      </trkpt>
      <trkpt lat="42.832811" lon="-0.173031">
        <ele>1721.337</ele>
        <time>2020-07-22T06:32:21Z</time>
      </trkpt>
      <trkpt lat="42.832852" lon="-0.173005">
        <ele>1720.949</ele>
        <time>2020-07-22T06:32:30Z</time>
      </trkpt>
      <trkpt lat="42.832905" lon="-0.173007">
        <ele>1722.213</ele>
        <time>2020-07-22T06:32:34Z</time>
      </trkpt>
      <trkpt lat="42.832956" lon="-0.173000">
        <ele>1722.808</ele>
        <time>2020-07-22T06:32:41Z</time>
      </trkpt>
      <trkpt lat="42.833002" lon="-0.172981">
        <ele>1722.528</ele>
        <time>2020-07-22T06:32:49Z</time>
      </trkpt>
      <trkpt lat="42.833047" lon="-0.172939">
        <ele>1724.586</ele>
        <time>2020-07-22T06:32:56Z</time>
      </trkpt>
      <trkpt lat="42.833088" lon="-0.172894">
        <ele>1725.119</ele>
        <time>2020-07-22T06:33:01Z</time>
      </trkpt>
      <trkpt lat="42.833128" lon="-0.172866">
        <ele>1726.942</ele>
        <time>2020-07-22T06:33:13Z</time>
      </trkpt>
      <trkpt lat="42.833172" lon="-0.172879">
        <ele>1727.618</ele>
        <time>2020-07-22T06:33:19Z</time>
      </trkpt>
      <trkpt lat="42.833219" lon="-0.172925">
        <ele>1727.374</ele>
        <time>2020-07-22T06:33:25Z</time>
      </trkpt>
      <trkpt lat="42.833253" lon="-0.172981">
        <ele>1728.933</ele>
        <time>2020-07-22T06:33:30Z</time>
      </trkpt>
      <trkpt lat="42.833285" lon="-0.173022">
        <ele>1730.177</ele>
        <time>2020-07-22T06:33:42Z</time>
      </trkpt>
      <trkpt lat="42.833329" lon="-0.173025">
        <ele>1729.756</ele>
        <time>2020-07-22T06:33:51Z</time>
      </trkpt>
      <trkpt lat="42.833377" lon="-0.173003">
        <ele>1730.359</ele>
        <time>2020-07-22T06:33:57Z</time>
      </trkpt>
      <trkpt lat="42.833425" lon="-0.172976">
        <ele>1729.914</ele>
        <time>2020-07-22T06:34:03Z</time>
      </trkpt>
      <trkpt lat="42.833470" lon="-0.172975">
        <ele>1729.108</ele>
        <time>2020-07-22T06:34:08Z</time>
      </trkpt>
      <trkpt lat="42.833512" lon="-0.172998">
        <ele>1728.920</ele>
        <time>2020-07-22T06:34:13Z</time>
      </trkpt>
      <trkpt lat="42.833562" lon="-0.173022">
        <ele>1728.878</ele>
        <time>2020-07-22T06:34:19Z</time>
      </trkpt>
      <trkpt lat="42.833607" lon="-0.173023">
        <ele>1728.481</ele>
        <time>2020-07-22T06:34:24Z</time>
      </trkpt>
      <trkpt lat="42.833658" lon="-0.173026">
        <ele>1728.294</ele>
        <time>2020-07-22T06:34:29Z</time>
      </trkpt>
      <trkpt lat="42.833702" lon="-0.173013">
        <ele>1728.560</ele>
        <time>2020-07-22T06:34:35Z</time>
      </trkpt>
      <trkpt lat="42.833752" lon="-0.173010">
        <ele>1728.116</ele>
        <time>2020-07-22T06:34:38Z</time>
      </trkpt>
      <trkpt lat="42.833802" lon="-0.173002">
        <ele>1727.745</ele>
        <time>2020-07-22T06:34:46Z</time>
      </trkpt>
      <trkpt lat="42.833848" lon="-0.173004">
        <ele>1727.749</ele>
        <time>2020-07-22T06:34:50Z</time>
      </trkpt>
      <trkpt lat="42.833913" lon="-0.172993">
        <ele>1727.469</ele>
        <time>2020-07-22T06:34:55Z</time>
      </trkpt>
      <trkpt lat="42.833969" lon="-0.172976">
        <ele>1727.204</ele>
        <time>2020-07-22T06:34:58Z</time>
      </trkpt>
      <trkpt lat="42.834015" lon="-0.172945">
        <ele>1727.624</ele>
        <time>2020-07-22T06:35:03Z</time>
      </trkpt>
      <trkpt lat="42.834054" lon="-0.172903">
        <ele>1726.908</ele>
        <time>2020-07-22T06:35:11Z</time>
      </trkpt>
      <trkpt lat="42.834103" lon="-0.172849">
        <ele>1727.251</ele>
        <time>2020-07-22T06:35:19Z</time>
      </trkpt>
      <trkpt lat="42.834151" lon="-0.172818">
        <ele>1726.439</ele>
        <time>2020-07-22T06:35:25Z</time>
      </trkpt>
      <trkpt lat="42.834210" lon="-0.172774">
        <ele>1727.162</ele>
        <time>2020-07-22T06:35:33Z</time>
      </trkpt>
      <trkpt lat="42.834249" lon="-0.172744">
        <ele>1726.215</ele>
        <time>2020-07-22T06:35:38Z</time>
      </trkpt>
      <trkpt lat="42.834303" lon="-0.172722">
        <ele>1726.551</ele>
        <time>2020-07-22T06:35:44Z</time>
      </trkpt>
      <trkpt lat="42.834355" lon="-0.172690">
        <ele>1726.987</ele>
        <time>2020-07-22T06:35:50Z</time>
      </trkpt>
      <trkpt lat="42.834393" lon="-0.172647">
        <ele>1727.116</ele>
        <time>2020-07-22T06:35:56Z</time>
      </trkpt>
      <trkpt lat="42.834433" lon="-0.172610">
        <ele>1727.050</ele>
        <time>2020-07-22T06:35:59Z</time>
      </trkpt>
      <trkpt lat="42.834462" lon="-0.172559">
        <ele>1726.599</ele>
        <time>2020-07-22T06:36:07Z</time>
      </trkpt>
      <trkpt lat="42.834504" lon="-0.172509">
        <ele>1725.807</ele>
        <time>2020-07-22T06:36:13Z</time>
      </trkpt>
      <trkpt lat="42.834540" lon="-0.172471">
        <ele>1727.027</ele>
        <time>2020-07-22T06:36:18Z</time>
      </trkpt>
      <trkpt lat="42.834579" lon="-0.172426">
        <ele>1727.808</ele>
        <time>2020-07-22T06:36:22Z</time>
      </trkpt>
      <trkpt lat="42.834611" lon="-0.172374">
        <ele>1727.384</ele>
        <time>2020-07-22T06:36:30Z</time>
      </trkpt>
      <trkpt lat="42.834654" lon="-0.172328">
        <ele>1727.242</ele>
        <time>2020-07-22T06:36:35Z</time>
      </trkpt>
      <trkpt lat="42.834693" lon="-0.172285">
        <ele>1725.775</ele>
        <time>2020-07-22T06:36:42Z</time>
      </trkpt>
      <trkpt lat="42.834743" lon="-0.172259">
        <ele>1727.188</ele>
        <time>2020-07-22T06:36:47Z</time>
      </trkpt>
      <trkpt lat="42.834797" lon="-0.172239">
        <ele>1725.684</ele>
        <time>2020-07-22T06:36:51Z</time>
      </trkpt>
      <trkpt lat="42.834859" lon="-0.172227">
        <ele>1726.720</ele>
        <time>2020-07-22T06:36:56Z</time>
      </trkpt>
      <trkpt lat="42.834911" lon="-0.172231">
        <ele>1726.719</ele>
        <time>2020-07-22T06:37:00Z</time>
      </trkpt>
      <trkpt lat="42.834968" lon="-0.172243">
        <ele>1725.963</ele>
        <time>2020-07-22T06:37:02Z</time>
      </trkpt>
      <trkpt lat="42.835014" lon="-0.172235">
        <ele>1726.929</ele>
        <time>2020-07-22T06:37:08Z</time>
      </trkpt>
      <trkpt lat="42.835063" lon="-0.172214">
        <ele>1725.500</ele>
        <time>2020-07-22T06:37:13Z</time>
      </trkpt>
      <trkpt lat="42.835109" lon="-0.172197">
        <ele>1725.420</ele>
        <time>2020-07-22T06:37:18Z</time>
      </trkpt>
      <trkpt lat="42.835158" lon="-0.172159">
        <ele>1726.108</ele>
        <time>2020-07-22T06:37:23Z</time>
      </trkpt>
      <trkpt lat="42.835207" lon="-0.172143">
        <ele>1725.987</ele>
        <time>2020-07-22T06:37:28Z</time>
      </trkpt>
      <trkpt lat="42.835259" lon="-0.172151">
        <ele>1725.735</ele>
        <time>2020-07-22T06:37:33Z</time>
      </trkpt>
      <trkpt lat="42.835306" lon="-0.172150">
        <ele>1724.668</ele>
        <time>2020-07-22T06:37:39Z</time>
      </trkpt>
      <trkpt lat="42.835353" lon="-0.172144">
        <ele>1724.331</ele>
        <time>2020-07-22T06:37:45Z</time>
      </trkpt>
      <trkpt lat="42.835406" lon="-0.172135">
        <ele>1723.037</ele>
        <time>2020-07-22T06:37:51Z</time>
      </trkpt>
      <trkpt lat="42.835450" lon="-0.172110">
        <ele>1722.733</ele>
        <time>2020-07-22T06:37:55Z</time>
      </trkpt>
      <trkpt lat="42.835505" lon="-0.172086">
        <ele>1722.432</ele>
        <time>2020-07-22T06:38:04Z</time>
      </trkpt>
      <trkpt lat="42.835555" lon="-0.172082">
        <ele>1721.956</ele>
        <time>2020-07-22T06:38:10Z</time>
      </trkpt>
      <trkpt lat="42.835615" lon="-0.172070">
        <ele>1721.859</ele>
        <time>2020-07-22T06:38:18Z</time>
      </trkpt>
      <trkpt lat="42.835660" lon="-0.172038">
        <ele>1721.603</ele>
        <time>2020-07-22T06:38:23Z</time>
      </trkpt>
      <trkpt lat="42.835696" lon="-0.171989">
        <ele>1721.023</ele>
        <time>2020-07-22T06:38:25Z</time>
      </trkpt>
      <trkpt lat="42.835725" lon="-0.171941">
        <ele>1720.708</ele>
        <time>2020-07-22T06:38:34Z</time>
      </trkpt>
      <trkpt lat="42.835755" lon="-0.171890">
        <ele>1720.120</ele>
        <time>2020-07-22T06:38:38Z</time>
      </trkpt>
      <trkpt lat="42.835791" lon="-0.171834">
        <ele>1718.418</ele>
        <time>2020-07-22T06:38:44Z</time>
      </trkpt>
      <trkpt lat="42.835809" lon="-0.171774">
        <ele>1718.361</ele>
        <time>2020-07-22T06:38:46Z</time>
      </trkpt>
      <trkpt lat="42.835823" lon="-0.171714">
        <ele>1717.674</ele>
        <time>2020-07-22T06:38:54Z</time>
      </trkpt>
      <trkpt lat="42.835825" lon="-0.171649">
        <ele>1718.260</ele>
        <time>2020-07-22T06:38:58Z</time>
      </trkpt>
      <trkpt lat="42.835823" lon="-0.171578">
        <ele>1717.786</ele>
        <time>2020-07-22T06:39:04Z</time>
      </trkpt>
      <trkpt lat="42.835812" lon="-0.171518">
        <ele>1717.985</ele>
        <time>2020-07-22T06:39:06Z</time>
      </trkpt>
      <trkpt lat="42.835796" lon="-0.171448">
        <ele>1718.179</ele>
        <time>2020-07-22T06:39:14Z</time>
      </trkpt>
      <trkpt lat="42.835786" lon="-0.171383">
        <ele>1718.572</ele>
        <time>2020-07-22T06:39:19Z</time>
      </trkpt>
      <trkpt lat="42.835783" lon="-0.171321">
        <ele>1717.913</ele>
        <time>2020-07-22T06:39:21Z</time>
      </trkpt>
      <trkpt lat="42.835787" lon="-0.171253">
        <ele>1717.714</ele>
        <time>2020-07-22T06:39:26Z</time>
      </trkpt>
      <trkpt lat="42.835788" lon="-0.171178">
        <ele>1717.408</ele>
        <time>2020-07-22T06:39:31Z</time>
      </trkpt>
      <trkpt lat="42.835786" lon="-0.171101">
        <ele>1717.572</ele>
        <time>2020-07-22T06:39:39Z</time>
      </trkpt>
      <trkpt lat="42.835787" lon="-0.171037">
        <ele>1717.570</ele>
        <time>2020-07-22T06:39:41Z</time>
      </trkpt>
      <trkpt lat="42.835782" lon="-0.170970">
        <ele>1716.653</ele>
        <time>2020-07-22T06:39:46Z</time>
      </trkpt>
      <trkpt lat="42.835780" lon="-0.170897">
        <ele>1718.276</ele>
        <time>2020-07-22T06:39:55Z</time>
      </trkpt>
      <trkpt lat="42.835778" lon="-0.170826">
        <ele>1718.842</ele>
        <time>2020-07-22T06:39:58Z</time>
      </trkpt>
      <trkpt lat="42.835789" lon="-0.170747">
        <ele>1717.468</ele>
        <time>2020-07-22T06:40:08Z</time>
      </trkpt>
      <trkpt lat="42.835818" lon="-0.170699">
        <ele>1718.567</ele>
        <time>2020-07-22T06:40:13Z</time>
      </trkpt>
      <trkpt lat="42.835848" lon="-0.170643">
        <ele>1718.661</ele>
        <time>2020-07-22T06:40:18Z</time>
      </trkpt>
      <trkpt lat="42.835894" lon="-0.170600">
        <ele>1720.333</ele>
        <time>2020-07-22T06:40:24Z</time>
      </trkpt>
      <trkpt lat="42.835932" lon="-0.170553">
        <ele>1720.223</ele>
        <time>2020-07-22T06:40:25Z</time>
      </trkpt>
      <trkpt lat="42.835972" lon="-0.170521">
        <ele>1721.315</ele>
        <time>2020-07-22T06:40:30Z</time>
      </trkpt>
      <trkpt lat="42.836015" lon="-0.170497">
        <ele>1720.708</ele>
        <time>2020-07-22T06:40:39Z</time>
      </trkpt>
      <trkpt lat="42.836064" lon="-0.170467">
        <ele>1721.968</ele>
        <time>2020-07-22T06:40:44Z</time>
      </trkpt>
      <trkpt lat="42.836102" lon="-0.170410">
        <ele>1721.746</ele>
        <time>2020-07-22T06:40:50Z</time>
      </trkpt>
      <trkpt lat="42.836138" lon="-0.170363">
        <ele>1722.369</ele>
        <time>2020-07-22T06:40:55Z</time>
      </trkpt>
      <trkpt lat="42.836171" lon="-0.170317">
        <ele>1722.482</ele>
        <time>2020-07-22T06:41:00Z</time>
      </trkpt>
      <trkpt lat="42.836202" lon="-0.170249">
        <ele>1723.058</ele>
        <time>2020-07-22T06:41:08Z</time>
      </trkpt>
      <trkpt lat="42.836229" lon="-0.170194">
        <ele>1723.084</ele>
        <time>2020-07-22T06:41:13Z</time>
      </trkpt>
      <trkpt lat="42.836260" lon="-0.170135">
        <ele>1722.893</ele>
        <time>2020-07-22T06:41:18Z</time>
      </trkpt>
      <trkpt lat="42.836303" lon="-0.170096">
        <ele>1722.787</ele>
        <time>2020-07-22T06:41:23Z</time>
      </trkpt>
      <trkpt lat="42.836349" lon="-0.170069">
        <ele>1722.348</ele>
        <time>2020-07-22T06:41:29Z</time>
      </trkpt>
      <trkpt lat="42.836391" lon="-0.170023">
        <ele>1721.561</ele>
        <time>2020-07-22T06:41:34Z</time>
      </trkpt>
      <trkpt lat="42.836431" lon="-0.169991">
        <ele>1720.617</ele>
        <time>2020-07-22T06:41:36Z</time>
      </trkpt>
      <trkpt lat="42.836474" lon="-0.169959">
        <ele>1719.408</ele>
        <time>2020-07-22T06:41:42Z</time>
      </trkpt>
      <trkpt lat="42.836503" lon="-0.169897">
        <ele>1720.249</ele>
        <time>2020-07-22T06:41:52Z</time>
      </trkpt>
      <trkpt lat="42.836507" lon="-0.169824">
        <ele>1719.067</ele>
        <time>2020-07-22T06:41:56Z</time>
      </trkpt>
      <trkpt lat="42.836503" lon="-0.169758">
        <ele>1718.920</ele>
        <time>2020-07-22T06:42:01Z</time>
      </trkpt>
      <trkpt lat="42.836504" lon="-0.169691">
        <ele>1717.973</ele>
        <time>2020-07-22T06:42:06Z</time>
      </trkpt>
      <trkpt lat="42.836503" lon="-0.169619">
        <ele>1717.189</ele>
        <time>2020-07-22T06:42:12Z</time>
      </trkpt>
      <trkpt lat="42.836523" lon="-0.169547">
        <ele>1716.295</ele>
        <time>2020-07-22T06:42:19Z</time>
      </trkpt>
      <trkpt lat="42.836529" lon="-0.169486">
        <ele>1714.854</ele>
        <time>2020-07-22T06:42:22Z</time>
      </trkpt>
      <trkpt lat="42.836532" lon="-0.169422">
        <ele>1715.368</ele>
        <time>2020-07-22T06:42:32Z</time>
      </trkpt>
      <trkpt lat="42.836549" lon="-0.169353">
        <ele>1713.952</ele>
        <time>2020-07-22T06:42:38Z</time>
      </trkpt>
      <trkpt lat="42.836572" lon="-0.169291">
        <ele>1714.653</ele>
        <time>2020-07-22T06:42:40Z</time>
      </trkpt>
      <trkpt lat="42.836604" lon="-0.169238">
        <ele>1714.408</ele>
        <time>2020-07-22T06:42:46Z</time>
      </trkpt>
      <trkpt lat="42.836636" lon="-0.169192">
        <ele>1715.208</ele>
        <time>2020-07-22T06:42:54Z</time>
      </trkpt>
      <trkpt lat="42.836655" lon="-0.169129">
        <ele>1714.730</ele>
        <time>2020-07-22T06:43:00Z</time>
      </trkpt>
      <trkpt lat="42.836674" lon="-0.169073">
        <ele>1714.518</ele>
        <time>2020-07-22T06:43:05Z</time>
      </trkpt>
      <trkpt lat="42.836698" lon="-0.169017">
        <ele>1715.171</ele>
        <time>2020-07-22T06:43:10Z</time>
      </trkpt>
      <trkpt lat="42.836727" lon="-0.168953">
        <ele>1716.064</ele>
        <time>2020-07-22T06:43:16Z</time>
      </trkpt>
      <trkpt lat="42.836747" lon="-0.168891">
        <ele>1716.510</ele>
        <time>2020-07-22T06:43:17Z</time>
      </trkpt>
      <trkpt lat="42.836787" lon="-0.168845">
        <ele>1716.676</ele>
        <time>2020-07-22T06:43:22Z</time>
      </trkpt>
      <trkpt lat="42.836827" lon="-0.168803">
        <ele>1717.615</ele>
        <time>2020-07-22T06:43:31Z</time>
      </trkpt>
      <trkpt lat="42.836860" lon="-0.168758">
        <ele>1717.399</ele>
        <time>2020-07-22T06:43:32Z</time>
      </trkpt>
      <trkpt lat="42.836900" lon="-0.168719">
        <ele>1717.462</ele>
        <time>2020-07-22T06:43:41Z</time>
      </trkpt>
      <trkpt lat="42.836933" lon="-0.168671">
        <ele>1717.183</ele>
        <time>2020-07-22T06:43:42Z</time>
      </trkpt>
      <trkpt lat="42.836969" lon="-0.168608">
        <ele>1717.711</ele>
        <time>2020-07-22T06:43:52Z</time>
      </trkpt>
      <trkpt lat="42.836993" lon="-0.168542">
        <ele>1718.708</ele>
        <time>2020-07-22T06:43:58Z</time>
      </trkpt>
      <trkpt lat="42.837014" lon="-0.168481">
        <ele>1718.031</ele>
        <time>2020-07-22T06:44:04Z</time>
      </trkpt>
      <trkpt lat="42.837042" lon="-0.168433">
        <ele>1718.369</ele>
        <time>2020-07-22T06:44:08Z</time>
      </trkpt>
      <trkpt lat="42.837073" lon="-0.168386">
        <ele>1718.992</ele>
        <time>2020-07-22T06:44:09Z</time>
      </trkpt>
      <trkpt lat="42.837111" lon="-0.168340">
        <ele>1717.625</ele>
        <time>2020-07-22T06:44:19Z</time>
      </trkpt>
      <trkpt lat="42.837139" lon="-0.168279">
        <ele>1717.071</ele>
        <time>2020-07-22T06:44:24Z</time>
      </trkpt>
      <trkpt lat="42.837167" lon="-0.168220">
        <ele>1717.247</ele>
        <time>2020-07-22T06:44:29Z</time>
      </trkpt>
      <trkpt lat="42.837181" lon="-0.168279">
        <ele>1714.866</ele>
        <time>2020-07-22T06:45:34Z</time>
      </trkpt>
      <trkpt lat="42.837228" lon="-0.168258">
        <ele>1713.820</ele>
        <time>2020-07-22T06:45:39Z</time>
      </trkpt>
      <trkpt lat="42.837241" lon="-0.168199">
        <ele>1712.329</ele>
        <time>2020-07-22T06:45:46Z</time>
      </trkpt>
      <trkpt lat="42.837230" lon="-0.168135">
        <ele>1712.200</ele>
        <time>2020-07-22T06:45:52Z</time>
      </trkpt>
      <trkpt lat="42.837211" lon="-0.168069">
        <ele>1711.520</ele>
        <time>2020-07-22T06:45:57Z</time>
      </trkpt>
      <trkpt lat="42.837176" lon="-0.168021">
        <ele>1711.108</ele>
        <time>2020-07-22T06:46:01Z</time>
      </trkpt>
      <trkpt lat="42.837191" lon="-0.167957">
        <ele>1709.797</ele>
        <time>2020-07-22T06:46:11Z</time>
      </trkpt>
      <trkpt lat="42.837231" lon="-0.167999">
        <ele>1708.525</ele>
        <time>2020-07-22T06:46:18Z</time>
      </trkpt>
      <trkpt lat="42.837255" lon="-0.167954">
        <ele>1706.768</ele>
        <time>2020-07-22T06:46:29Z</time>
      </trkpt>
      <trkpt lat="42.837301" lon="-0.167960">
        <ele>1705.941</ele>
        <time>2020-07-22T06:46:37Z</time>
      </trkpt>
      <trkpt lat="42.837350" lon="-0.167962">
        <ele>1705.047</ele>
        <time>2020-07-22T06:46:45Z</time>
      </trkpt>
      <trkpt lat="42.837402" lon="-0.167951">
        <ele>1703.953</ele>
        <time>2020-07-22T06:46:52Z</time>
      </trkpt>
      <trkpt lat="42.837447" lon="-0.167929">
        <ele>1702.832</ele>
        <time>2020-07-22T06:46:58Z</time>
      </trkpt>
      <trkpt lat="42.837491" lon="-0.167914">
        <ele>1700.966</ele>
        <time>2020-07-22T06:47:03Z</time>
      </trkpt>
      <trkpt lat="42.837535" lon="-0.167888">
        <ele>1698.826</ele>
        <time>2020-07-22T06:47:18Z</time>
      </trkpt>
      <trkpt lat="42.837573" lon="-0.167932">
        <ele>1697.347</ele>
        <time>2020-07-22T06:47:30Z</time>
      </trkpt>
      <trkpt lat="42.837614" lon="-0.167896">
        <ele>1695.211</ele>
        <time>2020-07-22T06:47:41Z</time>
      </trkpt>
      <trkpt lat="42.837589" lon="-0.167833">
        <ele>1694.608</ele>
        <time>2020-07-22T06:47:48Z</time>
      </trkpt>
      <trkpt lat="42.837581" lon="-0.167766">
        <ele>1693.257</ele>
        <time>2020-07-22T06:47:56Z</time>
      </trkpt>
      <trkpt lat="42.837568" lon="-0.167704">
        <ele>1692.545</ele>
        <time>2020-07-22T06:48:00Z</time>
      </trkpt>
      <trkpt lat="42.837561" lon="-0.167635">
        <ele>1690.978</ele>
        <time>2020-07-22T06:48:08Z</time>
      </trkpt>
      <trkpt lat="42.837565" lon="-0.167562">
        <ele>1690.071</ele>
        <time>2020-07-22T06:48:22Z</time>
      </trkpt>
      <trkpt lat="42.837598" lon="-0.167607">
        <ele>1690.467</ele>
        <time>2020-07-22T06:48:40Z</time>
      </trkpt>
      <trkpt lat="42.837612" lon="-0.167541">
        <ele>1689.333</ele>
        <time>2020-07-22T06:49:27Z</time>
      </trkpt>
      <trkpt lat="42.837623" lon="-0.167474">
        <ele>1687.132</ele>
        <time>2020-07-22T06:49:43Z</time>
      </trkpt>
      <trkpt lat="42.837641" lon="-0.167412">
        <ele>1686.736</ele>
        <time>2020-07-22T06:49:45Z</time>
      </trkpt>
      <trkpt lat="42.837667" lon="-0.167360">
        <ele>1686.192</ele>
        <time>2020-07-22T06:49:54Z</time>
      </trkpt>
      <trkpt lat="42.837707" lon="-0.167315">
        <ele>1684.873</ele>
        <time>2020-07-22T06:49:58Z</time>
      </trkpt>
      <trkpt lat="42.837753" lon="-0.167281">
        <ele>1684.620</ele>
        <time>2020-07-22T06:50:04Z</time>
      </trkpt>
      <trkpt lat="42.837795" lon="-0.167317">
        <ele>1683.708</ele>
        <time>2020-07-22T06:50:12Z</time>
      </trkpt>
      <trkpt lat="42.837792" lon="-0.167380">
        <ele>1682.514</ele>
        <time>2020-07-22T06:50:15Z</time>
      </trkpt>
      <trkpt lat="42.837763" lon="-0.167434">
        <ele>1682.782</ele>
        <time>2020-07-22T06:51:08Z</time>
      </trkpt>
      <trkpt lat="42.837759" lon="-0.167495">
        <ele>1681.445</ele>
        <time>2020-07-22T06:51:43Z</time>
      </trkpt>
      <trkpt lat="42.837781" lon="-0.167569">
        <ele>1680.328</ele>
        <time>2020-07-22T06:52:00Z</time>
      </trkpt>
      <trkpt lat="42.837806" lon="-0.167625">
        <ele>1679.664</ele>
        <time>2020-07-22T06:52:06Z</time>
      </trkpt>
      <trkpt lat="42.837839" lon="-0.167680">
        <ele>1679.570</ele>
        <time>2020-07-22T06:52:20Z</time>
      </trkpt>
      <trkpt lat="42.837875" lon="-0.167734">
        <ele>1678.779</ele>
        <time>2020-07-22T06:52:29Z</time>
      </trkpt>
      <trkpt lat="42.837920" lon="-0.167771">
        <ele>1678.133</ele>
        <time>2020-07-22T06:52:32Z</time>
      </trkpt>
      <trkpt lat="42.837969" lon="-0.167767">
        <ele>1677.293</ele>
        <time>2020-07-22T06:52:49Z</time>
      </trkpt>
      <trkpt lat="42.838015" lon="-0.167799">
        <ele>1676.965</ele>
        <time>2020-07-22T06:52:58Z</time>
      </trkpt>
      <trkpt lat="42.838068" lon="-0.167787">
        <ele>1675.321</ele>
        <time>2020-07-22T06:53:05Z</time>
      </trkpt>
      <trkpt lat="42.838116" lon="-0.167781">
        <ele>1674.508</ele>
        <time>2020-07-22T06:53:12Z</time>
      </trkpt>
      <trkpt lat="42.838163" lon="-0.167772">
        <ele>1672.844</ele>
        <time>2020-07-22T06:53:19Z</time>
      </trkpt>
      <trkpt lat="42.838218" lon="-0.167770">
        <ele>1671.832</ele>
        <time>2020-07-22T06:53:27Z</time>
      </trkpt>
      <trkpt lat="42.838262" lon="-0.167745">
        <ele>1670.885</ele>
        <time>2020-07-22T06:53:31Z</time>
      </trkpt>
      <trkpt lat="42.838305" lon="-0.167718">
        <ele>1669.648</ele>
        <time>2020-07-22T06:53:42Z</time>
      </trkpt>
      <trkpt lat="42.838352" lon="-0.167711">
        <ele>1667.894</ele>
        <time>2020-07-22T06:53:46Z</time>
      </trkpt>
      <trkpt lat="42.838389" lon="-0.167657">
        <ele>1667.830</ele>
        <time>2020-07-22T06:53:59Z</time>
      </trkpt>
      <trkpt lat="42.838417" lon="-0.167601">
        <ele>1666.749</ele>
        <time>2020-07-22T06:54:03Z</time>
      </trkpt>
      <trkpt lat="42.838461" lon="-0.167580">
        <ele>1665.173</ele>
        <time>2020-07-22T06:54:14Z</time>
      </trkpt>
      <trkpt lat="42.838509" lon="-0.167577">
        <ele>1664.595</ele>
        <time>2020-07-22T06:54:19Z</time>
      </trkpt>
      <trkpt lat="42.838562" lon="-0.167594">
        <ele>1663.949</ele>
        <time>2020-07-22T06:54:23Z</time>
      </trkpt>
      <trkpt lat="42.838608" lon="-0.167583">
        <ele>1663.123</ele>
        <time>2020-07-22T06:54:28Z</time>
      </trkpt>
      <trkpt lat="42.838645" lon="-0.167547">
        <ele>1662.408</ele>
        <time>2020-07-22T06:54:30Z</time>
      </trkpt>
      <trkpt lat="42.838691" lon="-0.167512">
        <ele>1661.784</ele>
        <time>2020-07-22T06:54:36Z</time>
      </trkpt>
      <trkpt lat="42.838733" lon="-0.167512">
        <ele>1660.422</ele>
        <time>2020-07-22T06:54:48Z</time>
      </trkpt>
      <trkpt lat="42.838775" lon="-0.167547">
        <ele>1659.965</ele>
        <time>2020-07-22T06:54:55Z</time>
      </trkpt>
      <trkpt lat="42.838795" lon="-0.167605">
        <ele>1658.978</ele>
        <time>2020-07-22T06:55:00Z</time>
      </trkpt>
      <trkpt lat="42.838779" lon="-0.167678">
        <ele>1658.444</ele>
        <time>2020-07-22T06:55:06Z</time>
      </trkpt>
      <trkpt lat="42.838754" lon="-0.167743">
        <ele>1657.310</ele>
        <time>2020-07-22T06:55:13Z</time>
      </trkpt>
      <trkpt lat="42.838739" lon="-0.167814">
        <ele>1656.439</ele>
        <time>2020-07-22T06:55:20Z</time>
      </trkpt>
      <trkpt lat="42.838744" lon="-0.167881">
        <ele>1655.663</ele>
        <time>2020-07-22T06:55:22Z</time>
      </trkpt>
      <trkpt lat="42.838768" lon="-0.167935">
        <ele>1654.378</ele>
        <time>2020-07-22T06:55:30Z</time>
      </trkpt>
      <trkpt lat="42.838812" lon="-0.167967">
        <ele>1655.733</ele>
        <time>2020-07-22T06:55:34Z</time>
      </trkpt>
      <trkpt lat="42.838839" lon="-0.168022">
        <ele>1651.926</ele>
        <time>2020-07-22T06:55:59Z</time>
      </trkpt>
      <trkpt lat="42.838888" lon="-0.168063">
        <ele>1652.308</ele>
        <time>2020-07-22T06:56:04Z</time>
      </trkpt>
      <trkpt lat="42.838930" lon="-0.168105">
        <ele>1652.592</ele>
        <time>2020-07-22T06:56:09Z</time>
      </trkpt>
      <trkpt lat="42.838958" lon="-0.168163">
        <ele>1652.210</ele>
        <time>2020-07-22T06:56:14Z</time>
      </trkpt>
      <trkpt lat="42.838964" lon="-0.168232">
        <ele>1649.673</ele>
        <time>2020-07-22T06:56:16Z</time>
      </trkpt>
      <trkpt lat="42.838969" lon="-0.168302">
        <ele>1649.486</ele>
        <time>2020-07-22T06:56:27Z</time>
      </trkpt>
      <trkpt lat="42.838955" lon="-0.168364">
        <ele>1649.062</ele>
        <time>2020-07-22T06:56:29Z</time>
      </trkpt>
      <trkpt lat="42.838966" lon="-0.168428">
        <ele>1647.318</ele>
        <time>2020-07-22T06:56:38Z</time>
      </trkpt>
      <trkpt lat="42.839001" lon="-0.168481">
        <ele>1647.337</ele>
        <time>2020-07-22T06:56:43Z</time>
      </trkpt>
      <trkpt lat="42.839038" lon="-0.168522">
        <ele>1645.991</ele>
        <time>2020-07-22T06:56:48Z</time>
      </trkpt>
      <trkpt lat="42.839077" lon="-0.168569">
        <ele>1645.135</ele>
        <time>2020-07-22T06:56:52Z</time>
      </trkpt>
      <trkpt lat="42.839129" lon="-0.168604">
        <ele>1644.586</ele>
        <time>2020-07-22T06:56:57Z</time>
      </trkpt>
      <trkpt lat="42.839180" lon="-0.168617">
        <ele>1644.714</ele>
        <time>2020-07-22T06:57:02Z</time>
      </trkpt>
      <trkpt lat="42.839230" lon="-0.168595">
        <ele>1643.408</ele>
        <time>2020-07-22T06:57:06Z</time>
      </trkpt>
      <trkpt lat="42.839280" lon="-0.168594">
        <ele>1644.358</ele>
        <time>2020-07-22T06:57:11Z</time>
      </trkpt>
      <trkpt lat="42.839328" lon="-0.168593">
        <ele>1642.056</ele>
        <time>2020-07-22T06:57:20Z</time>
      </trkpt>
      <trkpt lat="42.839360" lon="-0.168637">
        <ele>1642.259</ele>
        <time>2020-07-22T06:57:24Z</time>
      </trkpt>
      <trkpt lat="42.839376" lon="-0.168699">
        <ele>1642.032</ele>
        <time>2020-07-22T06:57:28Z</time>
      </trkpt>
      <trkpt lat="42.839357" lon="-0.168764">
        <ele>1641.158</ele>
        <time>2020-07-22T06:57:51Z</time>
      </trkpt>
      <trkpt lat="42.839383" lon="-0.168821">
        <ele>1640.574</ele>
        <time>2020-07-22T06:57:55Z</time>
      </trkpt>
      <trkpt lat="42.839423" lon="-0.168860">
        <ele>1640.613</ele>
        <time>2020-07-22T06:57:55Z</time>
      </trkpt>
      <trkpt lat="42.839468" lon="-0.168909">
        <ele>1640.057</ele>
        <time>2020-07-22T06:58:02Z</time>
      </trkpt>
      <trkpt lat="42.839514" lon="-0.168945">
        <ele>1640.797</ele>
        <time>2020-07-22T06:58:06Z</time>
      </trkpt>
      <trkpt lat="42.839605" lon="-0.169009">
        <ele>1640.023</ele>
        <time>2020-07-22T06:58:12Z</time>
      </trkpt>
      <trkpt lat="42.839653" lon="-0.169024">
        <ele>1640.125</ele>
        <time>2020-07-22T06:58:16Z</time>
      </trkpt>
      <trkpt lat="42.839707" lon="-0.169017">
        <ele>1639.208</ele>
        <time>2020-07-22T06:58:17Z</time>
      </trkpt>
      <trkpt lat="42.839760" lon="-0.168999">
        <ele>1638.374</ele>
        <time>2020-07-22T06:58:25Z</time>
      </trkpt>
      <trkpt lat="42.839807" lon="-0.168975">
        <ele>1638.112</ele>
        <time>2020-07-22T06:58:30Z</time>
      </trkpt>
      <trkpt lat="42.839858" lon="-0.168947">
        <ele>1639.045</ele>
        <time>2020-07-22T06:58:34Z</time>
      </trkpt>
      <trkpt lat="42.839908" lon="-0.168927">
        <ele>1637.128</ele>
        <time>2020-07-22T06:58:36Z</time>
      </trkpt>
      <trkpt lat="42.839943" lon="-0.168897">
        <ele>1638.464</ele>
        <time>2020-07-22T06:59:19Z</time>
      </trkpt>
      <trkpt lat="42.839970" lon="-0.168866">
        <ele>1638.340</ele>
        <time>2020-07-22T07:00:09Z</time>
      </trkpt>
      <trkpt lat="42.840012" lon="-0.168842">
        <ele>1637.769</ele>
        <time>2020-07-22T07:00:50Z</time>
      </trkpt>
      <trkpt lat="42.840060" lon="-0.168825">
        <ele>1637.623</ele>
        <time>2020-07-22T07:01:00Z</time>
      </trkpt>
      <trkpt lat="42.840104" lon="-0.168801">
        <ele>1637.423</ele>
        <time>2020-07-22T07:01:18Z</time>
      </trkpt>
      <trkpt lat="42.840160" lon="-0.168780">
        <ele>1636.883</ele>
        <time>2020-07-22T07:01:23Z</time>
      </trkpt>
      <trkpt lat="42.840215" lon="-0.168766">
        <ele>1636.211</ele>
        <time>2020-07-22T07:01:25Z</time>
      </trkpt>
      <trkpt lat="42.840281" lon="-0.168764">
        <ele>1636.608</ele>
        <time>2020-07-22T07:01:33Z</time>
      </trkpt>
      <trkpt lat="42.840326" lon="-0.168777">
        <ele>1637.167</ele>
        <time>2020-07-22T07:01:37Z</time>
      </trkpt>
      <trkpt lat="42.840378" lon="-0.168781">
        <ele>1636.695</ele>
        <time>2020-07-22T07:01:39Z</time>
      </trkpt>
      <trkpt lat="42.840435" lon="-0.168779">
        <ele>1636.148</ele>
        <time>2020-07-22T07:01:47Z</time>
      </trkpt>
      <trkpt lat="42.840490" lon="-0.168761">
        <ele>1636.591</ele>
        <time>2020-07-22T07:01:52Z</time>
      </trkpt>
      <trkpt lat="42.840532" lon="-0.168731">
        <ele>1636.727</ele>
        <time>2020-07-22T07:01:54Z</time>
      </trkpt>
      <trkpt lat="42.840566" lon="-0.168662">
        <ele>1636.543</ele>
        <time>2020-07-22T07:02:03Z</time>
      </trkpt>
      <trkpt lat="42.840601" lon="-0.168620">
        <ele>1637.052</ele>
        <time>2020-07-22T07:02:05Z</time>
      </trkpt>
      <trkpt lat="42.840634" lon="-0.168568">
        <ele>1636.776</ele>
        <time>2020-07-22T07:02:10Z</time>
      </trkpt>
      <trkpt lat="42.840665" lon="-0.168507">
        <ele>1635.922</ele>
        <time>2020-07-22T07:02:18Z</time>
      </trkpt>
      <trkpt lat="42.840673" lon="-0.168449">
        <ele>1636.062</ele>
        <time>2020-07-22T07:02:21Z</time>
      </trkpt>
      <trkpt lat="42.840688" lon="-0.168367">
        <ele>1636.308</ele>
        <time>2020-07-22T07:02:26Z</time>
      </trkpt>
      <trkpt lat="42.840712" lon="-0.168300">
        <ele>1635.408</ele>
        <time>2020-07-22T07:02:31Z</time>
      </trkpt>
      <trkpt lat="42.840748" lon="-0.168248">
        <ele>1636.017</ele>
        <time>2020-07-22T07:02:36Z</time>
      </trkpt>
      <trkpt lat="42.840772" lon="-0.168188">
        <ele>1636.335</ele>
        <time>2020-07-22T07:02:42Z</time>
      </trkpt>
      <trkpt lat="42.840795" lon="-0.168121">
        <ele>1636.548</ele>
        <time>2020-07-22T07:02:47Z</time>
      </trkpt>
      <trkpt lat="42.840815" lon="-0.168065">
        <ele>1636.161</ele>
        <time>2020-07-22T07:02:52Z</time>
      </trkpt>
      <trkpt lat="42.840840" lon="-0.168007">
        <ele>1636.037</ele>
        <time>2020-07-22T07:02:57Z</time>
      </trkpt>
      <trkpt lat="42.840867" lon="-0.167947">
        <ele>1635.833</ele>
        <time>2020-07-22T07:03:01Z</time>
      </trkpt>
      <trkpt lat="42.840892" lon="-0.167888">
        <ele>1635.892</ele>
        <time>2020-07-22T07:03:06Z</time>
      </trkpt>
      <trkpt lat="42.840919" lon="-0.167827">
        <ele>1634.756</ele>
        <time>2020-07-22T07:03:11Z</time>
      </trkpt>
      <trkpt lat="42.840958" lon="-0.167781">
        <ele>1635.526</ele>
        <time>2020-07-22T07:03:45Z</time>
      </trkpt>
      <trkpt lat="42.840997" lon="-0.167720">
        <ele>1635.747</ele>
        <time>2020-07-22T07:03:50Z</time>
      </trkpt>
      <trkpt lat="42.841023" lon="-0.167660">
        <ele>1635.211</ele>
        <time>2020-07-22T07:03:51Z</time>
      </trkpt>
      <trkpt lat="42.841043" lon="-0.167589">
        <ele>1635.208</ele>
        <time>2020-07-22T07:03:59Z</time>
      </trkpt>
      <trkpt lat="42.841065" lon="-0.167525">
        <ele>1634.977</ele>
        <time>2020-07-22T07:04:03Z</time>
      </trkpt>
      <trkpt lat="42.841089" lon="-0.167461">
        <ele>1635.425</ele>
        <time>2020-07-22T07:04:08Z</time>
      </trkpt>
      <trkpt lat="42.841112" lon="-0.167388">
        <ele>1635.078</ele>
        <time>2020-07-22T07:04:14Z</time>
      </trkpt>
      <trkpt lat="42.841130" lon="-0.167326">
        <ele>1635.541</ele>
        <time>2020-07-22T07:04:18Z</time>
      </trkpt>
      <trkpt lat="42.841155" lon="-0.167260">
        <ele>1635.117</ele>
        <time>2020-07-22T07:04:23Z</time>
      </trkpt>
      <trkpt lat="42.841192" lon="-0.167189">
        <ele>1634.673</ele>
        <time>2020-07-22T07:04:26Z</time>
      </trkpt>
      <trkpt lat="42.841213" lon="-0.167135">
        <ele>1634.632</ele>
        <time>2020-07-22T07:04:33Z</time>
      </trkpt>
      <trkpt lat="42.841233" lon="-0.167083">
        <ele>1635.196</ele>
        <time>2020-07-22T07:04:38Z</time>
      </trkpt>
      <trkpt lat="42.841250" lon="-0.167027">
        <ele>1634.943</ele>
        <time>2020-07-22T07:05:09Z</time>
      </trkpt>
      <trkpt lat="42.841284" lon="-0.166975">
        <ele>1634.364</ele>
        <time>2020-07-22T07:05:13Z</time>
      </trkpt>
      <trkpt lat="42.841320" lon="-0.166934">
        <ele>1634.410</ele>
        <time>2020-07-22T07:05:15Z</time>
      </trkpt>
      <trkpt lat="42.841367" lon="-0.166886">
        <ele>1635.008</ele>
        <time>2020-07-22T07:05:18Z</time>
      </trkpt>
      <trkpt lat="42.841418" lon="-0.166836">
        <ele>1634.549</ele>
        <time>2020-07-22T07:05:22Z</time>
      </trkpt>
      <trkpt lat="42.841457" lon="-0.166798">
        <ele>1634.897</ele>
        <time>2020-07-22T07:05:26Z</time>
      </trkpt>
      <trkpt lat="42.841505" lon="-0.166753">
        <ele>1634.940</ele>
        <time>2020-07-22T07:05:30Z</time>
      </trkpt>
      <trkpt lat="42.841554" lon="-0.166710">
        <ele>1634.693</ele>
        <time>2020-07-22T07:05:35Z</time>
      </trkpt>
      <trkpt lat="42.841595" lon="-0.166669">
        <ele>1633.499</ele>
        <time>2020-07-22T07:05:39Z</time>
      </trkpt>
      <trkpt lat="42.841639" lon="-0.166620">
        <ele>1634.335</ele>
        <time>2020-07-22T07:05:45Z</time>
      </trkpt>
      <trkpt lat="42.841683" lon="-0.166581">
        <ele>1634.654</ele>
        <time>2020-07-22T07:05:50Z</time>
      </trkpt>
      <trkpt lat="42.841723" lon="-0.166537">
        <ele>1634.368</ele>
        <time>2020-07-22T07:05:54Z</time>
      </trkpt>
      <trkpt lat="42.841760" lon="-0.166480">
        <ele>1634.553</ele>
        <time>2020-07-22T07:05:59Z</time>
      </trkpt>
      <trkpt lat="42.841798" lon="-0.166431">
        <ele>1634.704</ele>
        <time>2020-07-22T07:06:04Z</time>
      </trkpt>
      <trkpt lat="42.841833" lon="-0.166381">
        <ele>1634.614</ele>
        <time>2020-07-22T07:06:09Z</time>
      </trkpt>
      <trkpt lat="42.841872" lon="-0.166342">
        <ele>1633.608</ele>
        <time>2020-07-22T07:06:13Z</time>
      </trkpt>
      <trkpt lat="42.841915" lon="-0.166309">
        <ele>1633.920</ele>
        <time>2020-07-22T07:06:18Z</time>
      </trkpt>
      <trkpt lat="42.841964" lon="-0.166269">
        <ele>1634.018</ele>
        <time>2020-07-22T07:06:24Z</time>
      </trkpt>
      <trkpt lat="42.842002" lon="-0.166217">
        <ele>1634.321</ele>
        <time>2020-07-22T07:06:29Z</time>
      </trkpt>
      <trkpt lat="42.842035" lon="-0.166173">
        <ele>1633.974</ele>
        <time>2020-07-22T07:06:34Z</time>
      </trkpt>
      <trkpt lat="42.842075" lon="-0.166121">
        <ele>1633.280</ele>
        <time>2020-07-22T07:06:40Z</time>
      </trkpt>
      <trkpt lat="42.842101" lon="-0.166064">
        <ele>1633.476</ele>
        <time>2020-07-22T07:06:44Z</time>
      </trkpt>
      <trkpt lat="42.842134" lon="-0.166019">
        <ele>1633.425</ele>
        <time>2020-07-22T07:06:49Z</time>
      </trkpt>
      <trkpt lat="42.842173" lon="-0.165978">
        <ele>1633.079</ele>
        <time>2020-07-22T07:06:53Z</time>
      </trkpt>
      <trkpt lat="42.842220" lon="-0.165942">
        <ele>1632.694</ele>
        <time>2020-07-22T07:06:56Z</time>
      </trkpt>
      <trkpt lat="42.842270" lon="-0.165919">
        <ele>1632.957</ele>
        <time>2020-07-22T07:07:01Z</time>
      </trkpt>
      <trkpt lat="42.842321" lon="-0.165895">
        <ele>1632.622</ele>
        <time>2020-07-22T07:07:10Z</time>
      </trkpt>
      <trkpt lat="42.842371" lon="-0.165873">
        <ele>1633.208</ele>
        <time>2020-07-22T07:07:16Z</time>
      </trkpt>
      <trkpt lat="42.842420" lon="-0.165838">
        <ele>1632.624</ele>
        <time>2020-07-22T07:07:20Z</time>
      </trkpt>
      <trkpt lat="42.842466" lon="-0.165804">
        <ele>1632.852</ele>
        <time>2020-07-22T07:07:25Z</time>
      </trkpt>
      <trkpt lat="42.842510" lon="-0.165781">
        <ele>1632.175</ele>
        <time>2020-07-22T07:07:27Z</time>
      </trkpt>
      <trkpt lat="42.842557" lon="-0.165762">
        <ele>1632.798</ele>
        <time>2020-07-22T07:07:35Z</time>
      </trkpt>
      <trkpt lat="42.842606" lon="-0.165753">
        <ele>1633.364</ele>
        <time>2020-07-22T07:07:40Z</time>
      </trkpt>
      <trkpt lat="42.842662" lon="-0.165740">
        <ele>1633.970</ele>
        <time>2020-07-22T07:07:46Z</time>
      </trkpt>
      <trkpt lat="42.842712" lon="-0.165725">
        <ele>1632.989</ele>
        <time>2020-07-22T07:07:51Z</time>
      </trkpt>
      <trkpt lat="42.842765" lon="-0.165708">
        <ele>1632.593</ele>
        <time>2020-07-22T07:07:56Z</time>
      </trkpt>
      <trkpt lat="42.842818" lon="-0.165688">
        <ele>1632.581</ele>
        <time>2020-07-22T07:08:00Z</time>
      </trkpt>
      <trkpt lat="42.842860" lon="-0.165660">
        <ele>1632.361</ele>
        <time>2020-07-22T07:08:12Z</time>
      </trkpt>
      <trkpt lat="42.842896" lon="-0.165616">
        <ele>1631.417</ele>
        <time>2020-07-22T07:08:18Z</time>
      </trkpt>
      <trkpt lat="42.842938" lon="-0.165590">
        <ele>1632.408</ele>
        <time>2020-07-22T07:08:38Z</time>
      </trkpt>
      <trkpt lat="42.842988" lon="-0.165576">
        <ele>1631.223</ele>
        <time>2020-07-22T07:08:50Z</time>
      </trkpt>
      <trkpt lat="42.843035" lon="-0.165571">
        <ele>1631.621</ele>
        <time>2020-07-22T07:08:56Z</time>
      </trkpt>
      <trkpt lat="42.843082" lon="-0.165560">
        <ele>1632.594</ele>
        <time>2020-07-22T07:09:00Z</time>
      </trkpt>
      <trkpt lat="42.843135" lon="-0.165557">
        <ele>1631.617</ele>
        <time>2020-07-22T07:09:05Z</time>
      </trkpt>
      <trkpt lat="42.843183" lon="-0.165548">
        <ele>1632.293</ele>
        <time>2020-07-22T07:09:09Z</time>
      </trkpt>
      <trkpt lat="42.843230" lon="-0.165526">
        <ele>1631.749</ele>
        <time>2020-07-22T07:09:14Z</time>
      </trkpt>
      <trkpt lat="42.843286" lon="-0.165504">
        <ele>1632.058</ele>
        <time>2020-07-22T07:09:25Z</time>
      </trkpt>
      <trkpt lat="42.843340" lon="-0.165499">
        <ele>1632.122</ele>
        <time>2020-07-22T07:09:30Z</time>
      </trkpt>
      <trkpt lat="42.843389" lon="-0.165483">
        <ele>1631.242</ele>
        <time>2020-07-22T07:09:35Z</time>
      </trkpt>
      <trkpt lat="42.843442" lon="-0.165457">
        <ele>1631.922</ele>
        <time>2020-07-22T07:09:40Z</time>
      </trkpt>
      <trkpt lat="42.843489" lon="-0.165435">
        <ele>1631.614</ele>
        <time>2020-07-22T07:09:45Z</time>
      </trkpt>
      <trkpt lat="42.843536" lon="-0.165422">
        <ele>1631.508</ele>
        <time>2020-07-22T07:09:47Z</time>
      </trkpt>
      <trkpt lat="42.843578" lon="-0.165399">
        <ele>1631.979</ele>
        <time>2020-07-22T07:09:55Z</time>
      </trkpt>
      <trkpt lat="42.843623" lon="-0.165394">
        <ele>1631.527</ele>
        <time>2020-07-22T07:09:57Z</time>
      </trkpt>
      <trkpt lat="42.843677" lon="-0.165390">
        <ele>1630.880</ele>
        <time>2020-07-22T07:10:05Z</time>
      </trkpt>
      <trkpt lat="42.843729" lon="-0.165384">
        <ele>1631.873</ele>
        <time>2020-07-22T07:10:09Z</time>
      </trkpt>
      <trkpt lat="42.843781" lon="-0.165382">
        <ele>1631.679</ele>
        <time>2020-07-22T07:10:14Z</time>
      </trkpt>
      <trkpt lat="42.843830" lon="-0.165382">
        <ele>1632.435</ele>
        <time>2020-07-22T07:10:19Z</time>
      </trkpt>
      <trkpt lat="42.843879" lon="-0.165381">
        <ele>1632.824</ele>
        <time>2020-07-22T07:10:24Z</time>
      </trkpt>
      <trkpt lat="42.843925" lon="-0.165375">
        <ele>1632.578</ele>
        <time>2020-07-22T07:11:00Z</time>
      </trkpt>
      <trkpt lat="42.843985" lon="-0.165367">
        <ele>1632.217</ele>
        <time>2020-07-22T07:11:06Z</time>
      </trkpt>
      <trkpt lat="42.844084" lon="-0.165373">
        <ele>1632.787</ele>
        <time>2020-07-22T07:11:11Z</time>
      </trkpt>
      <trkpt lat="42.844131" lon="-0.165384">
        <ele>1633.015</ele>
        <time>2020-07-22T07:11:14Z</time>
      </trkpt>
      <trkpt lat="42.844182" lon="-0.165398">
        <ele>1632.708</ele>
        <time>2020-07-22T07:11:16Z</time>
      </trkpt>
      <trkpt lat="42.844236" lon="-0.165403">
        <ele>1632.136</ele>
        <time>2020-07-22T07:11:20Z</time>
      </trkpt>
      <trkpt lat="42.844293" lon="-0.165400">
        <ele>1632.944</ele>
        <time>2020-07-22T07:11:22Z</time>
      </trkpt>
      <trkpt lat="42.844347" lon="-0.165388">
        <ele>1633.037</ele>
        <time>2020-07-22T07:11:30Z</time>
      </trkpt>
      <trkpt lat="42.844395" lon="-0.165374">
        <ele>1632.450</ele>
        <time>2020-07-22T07:11:34Z</time>
      </trkpt>
      <trkpt lat="42.844443" lon="-0.165372">
        <ele>1633.036</ele>
        <time>2020-07-22T07:11:39Z</time>
      </trkpt>
      <trkpt lat="42.844496" lon="-0.165369">
        <ele>1631.972</ele>
        <time>2020-07-22T07:11:45Z</time>
      </trkpt>
      <trkpt lat="42.844548" lon="-0.165357">
        <ele>1632.381</ele>
        <time>2020-07-22T07:11:50Z</time>
      </trkpt>
      <trkpt lat="42.844595" lon="-0.165343">
        <ele>1632.635</ele>
        <time>2020-07-22T07:11:54Z</time>
      </trkpt>
      <trkpt lat="42.844642" lon="-0.165325">
        <ele>1632.751</ele>
        <time>2020-07-22T07:11:59Z</time>
      </trkpt>
      <trkpt lat="42.844687" lon="-0.165293">
        <ele>1632.401</ele>
        <time>2020-07-22T07:12:05Z</time>
      </trkpt>
      <trkpt lat="42.844740" lon="-0.165266">
        <ele>1632.711</ele>
        <time>2020-07-22T07:12:12Z</time>
      </trkpt>
      <trkpt lat="42.844786" lon="-0.165244">
        <ele>1632.008</ele>
        <time>2020-07-22T07:12:14Z</time>
      </trkpt>
      <trkpt lat="42.844833" lon="-0.165226">
        <ele>1632.270</ele>
        <time>2020-07-22T07:12:21Z</time>
      </trkpt>
      <trkpt lat="42.844881" lon="-0.165194">
        <ele>1632.238</ele>
        <time>2020-07-22T07:12:24Z</time>
      </trkpt>
      <trkpt lat="42.844931" lon="-0.165175">
        <ele>1631.011</ele>
        <time>2020-07-22T07:12:29Z</time>
      </trkpt>
      <trkpt lat="42.844978" lon="-0.165162">
        <ele>1631.364</ele>
        <time>2020-07-22T07:12:36Z</time>
      </trkpt>
      <trkpt lat="42.845028" lon="-0.165158">
        <ele>1631.310</ele>
        <time>2020-07-22T07:12:38Z</time>
      </trkpt>
      <trkpt lat="42.845083" lon="-0.165141">
        <ele>1631.756</ele>
        <time>2020-07-22T07:12:46Z</time>
      </trkpt>
      <trkpt lat="42.845128" lon="-0.165129">
        <ele>1632.395</ele>
        <time>2020-07-22T07:12:51Z</time>
      </trkpt>
      <trkpt lat="42.845173" lon="-0.165120">
        <ele>1631.989</ele>
        <time>2020-07-22T07:12:56Z</time>
      </trkpt>
      <trkpt lat="42.845217" lon="-0.165104">
        <ele>1631.072</ele>
        <time>2020-07-22T07:13:01Z</time>
      </trkpt>
      <trkpt lat="42.845262" lon="-0.165076">
        <ele>1631.413</ele>
        <time>2020-07-22T07:13:03Z</time>
      </trkpt>
      <trkpt lat="42.845312" lon="-0.165053">
        <ele>1630.914</ele>
        <time>2020-07-22T07:13:11Z</time>
      </trkpt>
      <trkpt lat="42.845365" lon="-0.165033">
        <ele>1630.608</ele>
        <time>2020-07-22T07:13:13Z</time>
      </trkpt>
      <trkpt lat="42.845407" lon="-0.165007">
        <ele>1631.162</ele>
        <time>2020-07-22T07:13:19Z</time>
      </trkpt>
      <trkpt lat="42.845464" lon="-0.164981">
        <ele>1631.130</ele>
        <time>2020-07-22T07:13:24Z</time>
      </trkpt>
      <trkpt lat="42.845511" lon="-0.164949">
        <ele>1631.253</ele>
        <time>2020-07-22T07:13:28Z</time>
      </trkpt>
      <trkpt lat="42.845554" lon="-0.164917">
        <ele>1630.746</ele>
        <time>2020-07-22T07:13:33Z</time>
      </trkpt>
      <trkpt lat="42.845597" lon="-0.164893">
        <ele>1630.572</ele>
        <time>2020-07-22T07:13:35Z</time>
      </trkpt>
      <trkpt lat="42.845641" lon="-0.164872">
        <ele>1630.318</ele>
        <time>2020-07-22T07:13:42Z</time>
      </trkpt>
      <trkpt lat="42.845691" lon="-0.164844">
        <ele>1630.897</ele>
        <time>2020-07-22T07:13:48Z</time>
      </trkpt>
      <trkpt lat="42.845732" lon="-0.164816">
        <ele>1630.661</ele>
        <time>2020-07-22T07:13:54Z</time>
      </trkpt>
      <trkpt lat="42.845783" lon="-0.164793">
        <ele>1629.456</ele>
        <time>2020-07-22T07:14:00Z</time>
      </trkpt>
      <trkpt lat="42.845826" lon="-0.164762">
        <ele>1630.159</ele>
        <time>2020-07-22T07:14:04Z</time>
      </trkpt>
      <trkpt lat="42.845866" lon="-0.164727">
        <ele>1630.014</ele>
        <time>2020-07-22T07:14:14Z</time>
      </trkpt>
      <trkpt lat="42.845912" lon="-0.164693">
        <ele>1629.708</ele>
        <time>2020-07-22T07:14:19Z</time>
      </trkpt>
      <trkpt lat="42.845962" lon="-0.164660">
        <ele>1630.010</ele>
        <time>2020-07-22T07:14:24Z</time>
      </trkpt>
      <trkpt lat="42.846007" lon="-0.164646">
        <ele>1629.318</ele>
        <time>2020-07-22T07:14:27Z</time>
      </trkpt>
      <trkpt lat="42.846061" lon="-0.164634">
        <ele>1628.351</ele>
        <time>2020-07-22T07:14:29Z</time>
      </trkpt>
      <trkpt lat="42.846106" lon="-0.164628">
        <ele>1629.794</ele>
        <time>2020-07-22T07:14:36Z</time>
      </trkpt>
      <trkpt lat="42.846154" lon="-0.164616">
        <ele>1629.750</ele>
        <time>2020-07-22T07:14:40Z</time>
      </trkpt>
      <trkpt lat="42.846204" lon="-0.164611">
        <ele>1628.836</ele>
        <time>2020-07-22T07:14:42Z</time>
      </trkpt>
      <trkpt lat="42.846267" lon="-0.164615">
        <ele>1628.415</ele>
        <time>2020-07-22T07:14:52Z</time>
      </trkpt>
      <trkpt lat="42.846323" lon="-0.164613">
        <ele>1629.449</ele>
        <time>2020-07-22T07:14:57Z</time>
      </trkpt>
      <trkpt lat="42.846368" lon="-0.164600">
        <ele>1628.952</ele>
        <time>2020-07-22T07:15:01Z</time>
      </trkpt>
      <trkpt lat="42.846420" lon="-0.164583">
        <ele>1628.853</ele>
        <time>2020-07-22T07:15:03Z</time>
      </trkpt>
      <trkpt lat="42.846470" lon="-0.164554">
        <ele>1628.408</ele>
        <time>2020-07-22T07:15:11Z</time>
      </trkpt>
      <trkpt lat="42.846532" lon="-0.164517">
        <ele>1627.708</ele>
        <time>2020-07-22T07:15:16Z</time>
      </trkpt>
      <trkpt lat="42.846578" lon="-0.164482">
        <ele>1627.580</ele>
        <time>2020-07-22T07:15:18Z</time>
      </trkpt>
      <trkpt lat="42.846618" lon="-0.164442">
        <ele>1627.718</ele>
        <time>2020-07-22T07:15:25Z</time>
      </trkpt>
      <trkpt lat="42.846661" lon="-0.164402">
        <ele>1628.081</ele>
        <time>2020-07-22T07:15:30Z</time>
      </trkpt>
      <trkpt lat="42.846711" lon="-0.164374">
        <ele>1627.974</ele>
        <time>2020-07-22T07:15:36Z</time>
      </trkpt>
      <trkpt lat="42.846753" lon="-0.164353">
        <ele>1627.250</ele>
        <time>2020-07-22T07:15:38Z</time>
      </trkpt>
      <trkpt lat="42.846801" lon="-0.164340">
        <ele>1628.476</ele>
        <time>2020-07-22T07:15:46Z</time>
      </trkpt>
      <trkpt lat="42.846857" lon="-0.164336">
        <ele>1627.735</ele>
        <time>2020-07-22T07:15:51Z</time>
      </trkpt>
      <trkpt lat="42.846911" lon="-0.164330">
        <ele>1628.369</ele>
        <time>2020-07-22T07:15:56Z</time>
      </trkpt>
      <trkpt lat="42.846958" lon="-0.164323">
        <ele>1628.069</ele>
        <time>2020-07-22T07:15:59Z</time>
      </trkpt>
      <trkpt lat="42.847012" lon="-0.164319">
        <ele>1627.204</ele>
        <time>2020-07-22T07:16:08Z</time>
      </trkpt>
      <trkpt lat="42.847070" lon="-0.164302">
        <ele>1628.424</ele>
        <time>2020-07-22T07:16:14Z</time>
      </trkpt>
      <trkpt lat="42.847123" lon="-0.164278">
        <ele>1627.008</ele>
        <time>2020-07-22T07:16:18Z</time>
      </trkpt>
      <trkpt lat="42.847172" lon="-0.164251">
        <ele>1626.881</ele>
        <time>2020-07-22T07:16:20Z</time>
      </trkpt>
      <trkpt lat="42.847222" lon="-0.164221">
        <ele>1626.979</ele>
        <time>2020-07-22T07:16:25Z</time>
      </trkpt>
      <trkpt lat="42.847274" lon="-0.164190">
        <ele>1627.792</ele>
        <time>2020-07-22T07:16:32Z</time>
      </trkpt>
      <trkpt lat="42.847323" lon="-0.164169">
        <ele>1627.415</ele>
        <time>2020-07-22T07:16:37Z</time>
      </trkpt>
      <trkpt lat="42.847377" lon="-0.164136">
        <ele>1627.531</ele>
        <time>2020-07-22T07:16:40Z</time>
      </trkpt>
      <trkpt lat="42.847426" lon="-0.164105">
        <ele>1627.157</ele>
        <time>2020-07-22T07:16:47Z</time>
      </trkpt>
      <trkpt lat="42.847468" lon="-0.164069">
        <ele>1628.136</ele>
        <time>2020-07-22T07:16:52Z</time>
      </trkpt>
      <trkpt lat="42.847516" lon="-0.164034">
        <ele>1627.120</ele>
        <time>2020-07-22T07:16:58Z</time>
      </trkpt>
      <trkpt lat="42.847560" lon="-0.164000">
        <ele>1628.198</ele>
        <time>2020-07-22T07:17:03Z</time>
      </trkpt>
      <trkpt lat="42.847612" lon="-0.163968">
        <ele>1627.315</ele>
        <time>2020-07-22T07:17:07Z</time>
      </trkpt>
      <trkpt lat="42.847665" lon="-0.163942">
        <ele>1627.126</ele>
        <time>2020-07-22T07:17:12Z</time>
      </trkpt>
      <trkpt lat="42.847717" lon="-0.163907">
        <ele>1628.308</ele>
        <time>2020-07-22T07:17:17Z</time>
      </trkpt>
      <trkpt lat="42.847758" lon="-0.163877">
        <ele>1627.774</ele>
        <time>2020-07-22T07:17:21Z</time>
      </trkpt>
      <trkpt lat="42.847798" lon="-0.163842">
        <ele>1628.272</ele>
        <time>2020-07-22T07:17:27Z</time>
      </trkpt>
      <trkpt lat="42.847839" lon="-0.163811">
        <ele>1628.325</ele>
        <time>2020-07-22T07:17:32Z</time>
      </trkpt>
      <trkpt lat="42.847882" lon="-0.163778">
        <ele>1627.898</ele>
        <time>2020-07-22T07:17:37Z</time>
      </trkpt>
      <trkpt lat="42.847924" lon="-0.163747">
        <ele>1627.724</ele>
        <time>2020-07-22T07:17:41Z</time>
      </trkpt>
      <trkpt lat="42.847970" lon="-0.163715">
        <ele>1627.910</ele>
        <time>2020-07-22T07:17:46Z</time>
      </trkpt>
      <trkpt lat="42.848019" lon="-0.163696">
        <ele>1628.049</ele>
        <time>2020-07-22T07:17:51Z</time>
      </trkpt>
      <trkpt lat="42.848064" lon="-0.163673">
        <ele>1627.813</ele>
        <time>2020-07-22T07:17:56Z</time>
      </trkpt>
      <trkpt lat="42.848118" lon="-0.163657">
        <ele>1628.298</ele>
        <time>2020-07-22T07:18:01Z</time>
      </trkpt>
      <trkpt lat="42.848174" lon="-0.163639">
        <ele>1628.215</ele>
        <time>2020-07-22T07:18:06Z</time>
      </trkpt>
      <trkpt lat="42.848222" lon="-0.163606">
        <ele>1627.726</ele>
        <time>2020-07-22T07:18:11Z</time>
      </trkpt>
      <trkpt lat="42.848256" lon="-0.163560">
        <ele>1627.708</ele>
        <time>2020-07-22T07:18:16Z</time>
      </trkpt>
      <trkpt lat="42.848276" lon="-0.163484">
        <ele>1628.044</ele>
        <time>2020-07-22T07:18:20Z</time>
      </trkpt>
      <trkpt lat="42.848272" lon="-0.163422">
        <ele>1627.892</ele>
        <time>2020-07-22T07:18:24Z</time>
      </trkpt>
      <trkpt lat="42.848254" lon="-0.163365">
        <ele>1628.155</ele>
        <time>2020-07-22T07:18:27Z</time>
      </trkpt>
      <trkpt lat="42.848228" lon="-0.163306">
        <ele>1627.418</ele>
        <time>2020-07-22T07:18:30Z</time>
      </trkpt>
      <trkpt lat="42.848205" lon="-0.163238">
        <ele>1627.284</ele>
        <time>2020-07-22T07:18:33Z</time>
      </trkpt>
      <trkpt lat="42.848173" lon="-0.163197">
        <ele>1627.870</ele>
        <time>2020-07-22T07:19:11Z</time>
      </trkpt>
      <trkpt lat="42.848150" lon="-0.163134">
        <ele>1626.239</ele>
        <time>2020-07-22T07:19:18Z</time>
      </trkpt>
      <trkpt lat="42.848147" lon="-0.163065">
        <ele>1625.853</ele>
        <time>2020-07-22T07:19:21Z</time>
      </trkpt>
      <trkpt lat="42.848135" lon="-0.162999">
        <ele>1624.774</ele>
        <time>2020-07-22T07:19:22Z</time>
      </trkpt>
      <trkpt lat="42.848118" lon="-0.162924">
        <ele>1625.456</ele>
        <time>2020-07-22T07:19:28Z</time>
      </trkpt>
      <trkpt lat="42.848106" lon="-0.162863">
        <ele>1625.421</ele>
        <time>2020-07-22T07:19:31Z</time>
      </trkpt>
      <trkpt lat="42.848088" lon="-0.162802">
        <ele>1624.108</ele>
        <time>2020-07-22T07:19:33Z</time>
      </trkpt>
      <trkpt lat="42.848066" lon="-0.162733">
        <ele>1624.482</ele>
        <time>2020-07-22T07:19:38Z</time>
      </trkpt>
      <trkpt lat="42.848050" lon="-0.162671">
        <ele>1624.340</ele>
        <time>2020-07-22T07:19:45Z</time>
      </trkpt>
      <trkpt lat="42.848025" lon="-0.162609">
        <ele>1624.393</ele>
        <time>2020-07-22T07:19:47Z</time>
      </trkpt>
      <trkpt lat="42.848018" lon="-0.162538">
        <ele>1623.966</ele>
        <time>2020-07-22T07:19:52Z</time>
      </trkpt>
      <trkpt lat="42.848034" lon="-0.162473">
        <ele>1623.682</ele>
        <time>2020-07-22T07:19:59Z</time>
      </trkpt>
      <trkpt lat="42.848073" lon="-0.162431">
        <ele>1622.748</ele>
        <time>2020-07-22T07:20:04Z</time>
      </trkpt>
      <trkpt lat="42.848119" lon="-0.162398">
        <ele>1622.237</ele>
        <time>2020-07-22T07:20:07Z</time>
      </trkpt>
      <trkpt lat="42.848161" lon="-0.162363">
        <ele>1620.771</ele>
        <time>2020-07-22T07:20:27Z</time>
      </trkpt>
      <trkpt lat="42.848191" lon="-0.162303">
        <ele>1620.366</ele>
        <time>2020-07-22T07:20:33Z</time>
      </trkpt>
      <trkpt lat="42.848201" lon="-0.162246">
        <ele>1621.329</ele>
        <time>2020-07-22T07:20:53Z</time>
      </trkpt>
      <trkpt lat="42.848226" lon="-0.162201">
        <ele>1619.921</ele>
        <time>2020-07-22T07:21:01Z</time>
      </trkpt>
      <trkpt lat="42.848272" lon="-0.162172">
        <ele>1619.708</ele>
        <time>2020-07-22T07:21:05Z</time>
      </trkpt>
      <trkpt lat="42.848318" lon="-0.162116">
        <ele>1619.791</ele>
        <time>2020-07-22T07:21:11Z</time>
      </trkpt>
      <trkpt lat="42.848359" lon="-0.162076">
        <ele>1619.599</ele>
        <time>2020-07-22T07:21:12Z</time>
      </trkpt>
      <trkpt lat="42.848393" lon="-0.162031">
        <ele>1619.592</ele>
        <time>2020-07-22T07:21:23Z</time>
      </trkpt>
      <trkpt lat="42.848429" lon="-0.161990">
        <ele>1619.615</ele>
        <time>2020-07-22T07:21:28Z</time>
      </trkpt>
      <trkpt lat="42.848487" lon="-0.161964">
        <ele>1619.191</ele>
        <time>2020-07-22T07:21:33Z</time>
      </trkpt>
      <trkpt lat="42.848538" lon="-0.161942">
        <ele>1618.447</ele>
        <time>2020-07-22T07:21:34Z</time>
      </trkpt>
      <trkpt lat="42.848577" lon="-0.161910">
        <ele>1619.056</ele>
        <time>2020-07-22T07:21:41Z</time>
      </trkpt>
      <trkpt lat="42.848622" lon="-0.161881">
        <ele>1618.160</ele>
        <time>2020-07-22T07:21:46Z</time>
      </trkpt>
      <trkpt lat="42.848676" lon="-0.161870">
        <ele>1616.129</ele>
        <time>2020-07-22T07:21:50Z</time>
      </trkpt>
      <trkpt lat="42.848721" lon="-0.161870">
        <ele>1617.500</ele>
        <time>2020-07-22T07:21:51Z</time>
      </trkpt>
      <trkpt lat="42.848768" lon="-0.161847">
        <ele>1617.720</ele>
        <time>2020-07-22T07:21:59Z</time>
      </trkpt>
      <trkpt lat="42.848814" lon="-0.161822">
        <ele>1617.708</ele>
        <time>2020-07-22T07:22:05Z</time>
      </trkpt>
      <trkpt lat="42.848860" lon="-0.161784">
        <ele>1618.147</ele>
        <time>2020-07-22T07:22:10Z</time>
      </trkpt>
      <trkpt lat="42.848909" lon="-0.161739">
        <ele>1618.265</ele>
        <time>2020-07-22T07:22:16Z</time>
      </trkpt>
      <trkpt lat="42.848961" lon="-0.161700">
        <ele>1620.238</ele>
        <time>2020-07-22T07:22:22Z</time>
      </trkpt>
      <trkpt lat="42.849002" lon="-0.161668">
        <ele>1620.421</ele>
        <time>2020-07-22T07:22:27Z</time>
      </trkpt>
      <trkpt lat="42.849047" lon="-0.161633">
        <ele>1622.077</ele>
        <time>2020-07-22T07:22:33Z</time>
      </trkpt>
      <trkpt lat="42.849089" lon="-0.161597">
        <ele>1622.553</ele>
        <time>2020-07-22T07:22:38Z</time>
      </trkpt>
      <trkpt lat="42.849128" lon="-0.161541">
        <ele>1622.292</ele>
        <time>2020-07-22T07:22:41Z</time>
      </trkpt>
      <trkpt lat="42.849169" lon="-0.161508">
        <ele>1622.776</ele>
        <time>2020-07-22T07:22:50Z</time>
      </trkpt>
      <trkpt lat="42.849208" lon="-0.161480">
        <ele>1622.571</ele>
        <time>2020-07-22T07:23:06Z</time>
      </trkpt>
      <trkpt lat="42.849254" lon="-0.161464">
        <ele>1622.341</ele>
        <time>2020-07-22T07:23:13Z</time>
      </trkpt>
      <trkpt lat="42.849308" lon="-0.161457">
        <ele>1622.715</ele>
        <time>2020-07-22T07:23:35Z</time>
      </trkpt>
      <trkpt lat="42.849351" lon="-0.161444">
        <ele>1621.808</ele>
        <time>2020-07-22T07:23:40Z</time>
      </trkpt>
      <trkpt lat="42.849400" lon="-0.161430">
        <ele>1620.852</ele>
        <time>2020-07-22T07:23:42Z</time>
      </trkpt>
      <trkpt lat="42.849455" lon="-0.161406">
        <ele>1620.240</ele>
        <time>2020-07-22T07:23:48Z</time>
      </trkpt>
      <trkpt lat="42.849511" lon="-0.161393">
        <ele>1620.053</ele>
        <time>2020-07-22T07:23:56Z</time>
      </trkpt>
      <trkpt lat="42.849557" lon="-0.161371">
        <ele>1619.956</ele>
        <time>2020-07-22T07:24:02Z</time>
      </trkpt>
      <trkpt lat="42.849609" lon="-0.161374">
        <ele>1620.092</ele>
        <time>2020-07-22T07:24:08Z</time>
      </trkpt>
      <trkpt lat="42.849657" lon="-0.161387">
        <ele>1619.968</ele>
        <time>2020-07-22T07:24:12Z</time>
      </trkpt>
      <trkpt lat="42.849705" lon="-0.161402">
        <ele>1620.237</ele>
        <time>2020-07-22T07:24:17Z</time>
      </trkpt>
      <trkpt lat="42.849758" lon="-0.161415">
        <ele>1619.221</ele>
        <time>2020-07-22T07:24:23Z</time>
      </trkpt>
      <trkpt lat="42.849808" lon="-0.161432">
        <ele>1618.766</ele>
        <time>2020-07-22T07:24:29Z</time>
      </trkpt>
      <trkpt lat="42.849855" lon="-0.161455">
        <ele>1618.229</ele>
        <time>2020-07-22T07:24:36Z</time>
      </trkpt>
      <trkpt lat="42.849897" lon="-0.161479">
        <ele>1617.921</ele>
        <time>2020-07-22T07:24:39Z</time>
      </trkpt>
      <trkpt lat="42.849945" lon="-0.161497">
        <ele>1618.208</ele>
        <time>2020-07-22T07:24:45Z</time>
      </trkpt>
      <trkpt lat="42.849990" lon="-0.161492">
        <ele>1617.611</ele>
        <time>2020-07-22T07:24:54Z</time>
      </trkpt>
      <trkpt lat="42.850088" lon="-0.161443">
        <ele>1616.999</ele>
        <time>2020-07-22T07:25:04Z</time>
      </trkpt>
      <trkpt lat="42.850141" lon="-0.161413">
        <ele>1616.782</ele>
        <time>2020-07-22T07:25:09Z</time>
      </trkpt>
      <trkpt lat="42.850187" lon="-0.161393">
        <ele>1616.045</ele>
        <time>2020-07-22T07:25:10Z</time>
      </trkpt>
      <trkpt lat="42.850223" lon="-0.161354">
        <ele>1616.431</ele>
        <time>2020-07-22T07:25:18Z</time>
      </trkpt>
      <trkpt lat="42.850253" lon="-0.161275">
        <ele>1615.787</ele>
        <time>2020-07-22T07:25:24Z</time>
      </trkpt>
      <trkpt lat="42.850266" lon="-0.161203">
        <ele>1615.976</ele>
        <time>2020-07-22T07:25:29Z</time>
      </trkpt>
      <trkpt lat="42.850268" lon="-0.161138">
        <ele>1615.490</ele>
        <time>2020-07-22T07:25:33Z</time>
      </trkpt>
      <trkpt lat="42.850267" lon="-0.161077">
        <ele>1614.967</ele>
        <time>2020-07-22T07:25:38Z</time>
      </trkpt>
      <trkpt lat="42.850273" lon="-0.161011">
        <ele>1615.381</ele>
        <time>2020-07-22T07:25:42Z</time>
      </trkpt>
      <trkpt lat="42.850274" lon="-0.160937">
        <ele>1615.419</ele>
        <time>2020-07-22T07:25:47Z</time>
      </trkpt>
      <trkpt lat="42.850285" lon="-0.160873">
        <ele>1615.208</ele>
        <time>2020-07-22T07:25:52Z</time>
      </trkpt>
      <trkpt lat="42.850310" lon="-0.160814">
        <ele>1614.971</ele>
        <time>2020-07-22T07:25:53Z</time>
      </trkpt>
      <trkpt lat="42.850338" lon="-0.160749">
        <ele>1614.019</ele>
        <time>2020-07-22T07:25:58Z</time>
      </trkpt>
      <trkpt lat="42.850358" lon="-0.160685">
        <ele>1615.072</ele>
        <time>2020-07-22T07:26:07Z</time>
      </trkpt>
      <trkpt lat="42.850383" lon="-0.160616">
        <ele>1613.755</ele>
        <time>2020-07-22T07:26:13Z</time>
      </trkpt>
      <trkpt lat="42.850405" lon="-0.160561">
        <ele>1614.811</ele>
        <time>2020-07-22T07:26:17Z</time>
      </trkpt>
      <trkpt lat="42.850421" lon="-0.160500">
        <ele>1614.137</ele>
        <time>2020-07-22T07:26:22Z</time>
      </trkpt>
      <trkpt lat="42.850422" lon="-0.160438">
        <ele>1612.616</ele>
        <time>2020-07-22T07:26:27Z</time>
      </trkpt>
      <trkpt lat="42.850433" lon="-0.160373">
        <ele>1613.340</ele>
        <time>2020-07-22T07:26:31Z</time>
      </trkpt>
      <trkpt lat="42.850455" lon="-0.160315">
        <ele>1613.292</ele>
        <time>2020-07-22T07:26:36Z</time>
      </trkpt>
      <trkpt lat="42.850478" lon="-0.160257">
        <ele>1613.573</ele>
        <time>2020-07-22T07:26:37Z</time>
      </trkpt>
      <trkpt lat="42.850504" lon="-0.160194">
        <ele>1613.620</ele>
        <time>2020-07-22T07:26:42Z</time>
      </trkpt>
      <trkpt lat="42.850527" lon="-0.160127">
        <ele>1612.908</ele>
        <time>2020-07-22T07:26:47Z</time>
      </trkpt>
      <trkpt lat="42.850550" lon="-0.160055">
        <ele>1612.974</ele>
        <time>2020-07-22T07:26:57Z</time>
      </trkpt>
      <trkpt lat="42.850579" lon="-0.160002">
        <ele>1613.262</ele>
        <time>2020-07-22T07:27:01Z</time>
      </trkpt>
      <trkpt lat="42.850620" lon="-0.159972">
        <ele>1612.985</ele>
        <time>2020-07-22T07:27:02Z</time>
      </trkpt>
      <trkpt lat="42.850665" lon="-0.159934">
        <ele>1613.488</ele>
        <time>2020-07-22T07:27:11Z</time>
      </trkpt>
      <trkpt lat="42.850703" lon="-0.159895">
        <ele>1613.284</ele>
        <time>2020-07-22T07:27:14Z</time>
      </trkpt>
      <trkpt lat="42.850750" lon="-0.159853">
        <ele>1613.410</ele>
        <time>2020-07-22T07:27:19Z</time>
      </trkpt>
      <trkpt lat="42.850789" lon="-0.159815">
        <ele>1614.929</ele>
        <time>2020-07-22T07:27:25Z</time>
      </trkpt>
      <trkpt lat="42.850821" lon="-0.159772">
        <ele>1614.113</ele>
        <time>2020-07-22T07:27:30Z</time>
      </trkpt>
      <trkpt lat="42.850857" lon="-0.159730">
        <ele>1615.418</ele>
        <time>2020-07-22T07:27:36Z</time>
      </trkpt>
      <trkpt lat="42.850901" lon="-0.159693">
        <ele>1615.598</ele>
        <time>2020-07-22T07:27:42Z</time>
      </trkpt>
      <trkpt lat="42.850944" lon="-0.159649">
        <ele>1615.917</ele>
        <time>2020-07-22T07:27:49Z</time>
      </trkpt>
      <trkpt lat="42.850980" lon="-0.159607">
        <ele>1615.408</ele>
        <time>2020-07-22T07:27:53Z</time>
      </trkpt>
      <trkpt lat="42.851014" lon="-0.159551">
        <ele>1615.226</ele>
        <time>2020-07-22T07:28:00Z</time>
      </trkpt>
      <trkpt lat="42.851045" lon="-0.159496">
        <ele>1614.034</ele>
        <time>2020-07-22T07:28:05Z</time>
      </trkpt>
      <trkpt lat="42.851080" lon="-0.159437">
        <ele>1615.487</ele>
        <time>2020-07-22T07:28:11Z</time>
      </trkpt>
      <trkpt lat="42.851108" lon="-0.159386">
        <ele>1615.090</ele>
        <time>2020-07-22T07:28:16Z</time>
      </trkpt>
      <trkpt lat="42.851140" lon="-0.159324">
        <ele>1613.556</ele>
        <time>2020-07-22T07:28:18Z</time>
      </trkpt>
      <trkpt lat="42.851171" lon="-0.159267">
        <ele>1613.482</ele>
        <time>2020-07-22T07:28:28Z</time>
      </trkpt>
      <trkpt lat="42.851186" lon="-0.159201">
        <ele>1611.931</ele>
        <time>2020-07-22T07:28:33Z</time>
      </trkpt>
      <trkpt lat="42.851200" lon="-0.159130">
        <ele>1610.955</ele>
        <time>2020-07-22T07:28:38Z</time>
      </trkpt>
      <trkpt lat="42.851199" lon="-0.159063">
        <ele>1611.551</ele>
        <time>2020-07-22T07:28:42Z</time>
      </trkpt>
      <trkpt lat="42.851191" lon="-0.158995">
        <ele>1610.901</ele>
        <time>2020-07-22T07:28:44Z</time>
      </trkpt>
      <trkpt lat="42.851176" lon="-0.158931">
        <ele>1610.311</ele>
        <time>2020-07-22T07:28:53Z</time>
      </trkpt>
      <trkpt lat="42.851149" lon="-0.158876">
        <ele>1609.508</ele>
        <time>2020-07-22T07:28:57Z</time>
      </trkpt>
      <trkpt lat="42.851113" lon="-0.158839">
        <ele>1609.570</ele>
        <time>2020-07-22T07:28:58Z</time>
      </trkpt>
      <trkpt lat="42.851071" lon="-0.158801">
        <ele>1608.688</ele>
        <time>2020-07-22T07:29:04Z</time>
      </trkpt>
      <trkpt lat="42.851033" lon="-0.158790">
        <ele>1608.371</ele>
        <time>2020-07-22T07:29:45Z</time>
      </trkpt>
      <trkpt lat="42.850985" lon="-0.158812">
        <ele>1607.544</ele>
        <time>2020-07-22T07:30:05Z</time>
      </trkpt>
      <trkpt lat="42.850938" lon="-0.158829">
        <ele>1606.730</ele>
        <time>2020-07-22T07:30:09Z</time>
      </trkpt>
      <trkpt lat="42.850897" lon="-0.158863">
        <ele>1606.336</ele>
        <time>2020-07-22T07:30:10Z</time>
      </trkpt>
      <trkpt lat="42.850854" lon="-0.158895">
        <ele>1605.865</ele>
        <time>2020-07-22T07:30:17Z</time>
      </trkpt>
      <trkpt lat="42.850806" lon="-0.158915">
        <ele>1605.549</ele>
        <time>2020-07-22T07:30:21Z</time>
      </trkpt>
      <trkpt lat="42.850749" lon="-0.158922">
        <ele>1604.426</ele>
        <time>2020-07-22T07:30:26Z</time>
      </trkpt>
      <trkpt lat="42.850704" lon="-0.158925">
        <ele>1605.347</ele>
        <time>2020-07-22T07:30:26Z</time>
      </trkpt>
      <trkpt lat="42.850659" lon="-0.158928">
        <ele>1603.411</ele>
        <time>2020-07-22T07:30:30Z</time>
      </trkpt>
      <trkpt lat="42.850610" lon="-0.158926">
        <ele>1603.908</ele>
        <time>2020-07-22T07:30:38Z</time>
      </trkpt>
      <trkpt lat="42.850564" lon="-0.158894">
        <ele>1603.257</ele>
        <time>2020-07-22T07:30:44Z</time>
      </trkpt>
      <trkpt lat="42.850534" lon="-0.158837">
        <ele>1603.935</ele>
        <time>2020-07-22T07:30:50Z</time>
      </trkpt>
      <trkpt lat="42.850500" lon="-0.158784">
        <ele>1603.338</ele>
        <time>2020-07-22T07:30:58Z</time>
      </trkpt>
      <trkpt lat="42.850470" lon="-0.158730">
        <ele>1604.181</ele>
        <time>2020-07-22T07:31:00Z</time>
      </trkpt>
      <trkpt lat="42.850430" lon="-0.158690">
        <ele>1604.917</ele>
        <time>2020-07-22T07:31:06Z</time>
      </trkpt>
      <trkpt lat="42.850381" lon="-0.158667">
        <ele>1603.263</ele>
        <time>2020-07-22T07:31:15Z</time>
      </trkpt>
      <trkpt lat="42.850327" lon="-0.158640">
        <ele>1603.422</ele>
        <time>2020-07-22T07:31:20Z</time>
      </trkpt>
      <trkpt lat="42.850274" lon="-0.158619">
        <ele>1603.286</ele>
        <time>2020-07-22T07:31:25Z</time>
      </trkpt>
      <trkpt lat="42.850228" lon="-0.158609">
        <ele>1602.045</ele>
        <time>2020-07-22T07:31:29Z</time>
      </trkpt>
      <trkpt lat="42.850174" lon="-0.158603">
        <ele>1603.147</ele>
        <time>2020-07-22T07:31:30Z</time>
      </trkpt>
      <trkpt lat="42.850125" lon="-0.158593">
        <ele>1601.211</ele>
        <time>2020-07-22T07:31:35Z</time>
      </trkpt>
      <trkpt lat="42.850079" lon="-0.158562">
        <ele>1601.608</ele>
        <time>2020-07-22T07:31:43Z</time>
      </trkpt>
      <trkpt lat="42.850047" lon="-0.158519">
        <ele>1601.169</ele>
        <time>2020-07-22T07:31:48Z</time>
      </trkpt>
      <trkpt lat="42.850015" lon="-0.158466">
        <ele>1600.347</ele>
        <time>2020-07-22T07:31:53Z</time>
      </trkpt>
      <trkpt lat="42.849983" lon="-0.158407">
        <ele>1599.560</ele>
        <time>2020-07-22T07:32:00Z</time>
      </trkpt>
      <trkpt lat="42.849984" lon="-0.158341">
        <ele>1598.883</ele>
        <time>2020-07-22T07:32:05Z</time>
      </trkpt>
      <trkpt lat="42.849998" lon="-0.158273">
        <ele>1599.099</ele>
        <time>2020-07-22T07:32:09Z</time>
      </trkpt>
      <trkpt lat="42.850016" lon="-0.158212">
        <ele>1599.445</ele>
        <time>2020-07-22T07:32:13Z</time>
      </trkpt>
      <trkpt lat="42.850049" lon="-0.158152">
        <ele>1598.494</ele>
        <time>2020-07-22T07:32:18Z</time>
      </trkpt>
      <trkpt lat="42.850082" lon="-0.158102">
        <ele>1597.448</ele>
        <time>2020-07-22T07:32:18Z</time>
      </trkpt>
      <trkpt lat="42.850113" lon="-0.158057">
        <ele>1598.078</ele>
        <time>2020-07-22T07:32:25Z</time>
      </trkpt>
      <trkpt lat="42.850147" lon="-0.158000">
        <ele>1598.433</ele>
        <time>2020-07-22T07:32:26Z</time>
      </trkpt>
      <trkpt lat="42.850177" lon="-0.157939">
        <ele>1597.026</ele>
        <time>2020-07-22T07:32:34Z</time>
      </trkpt>
      <trkpt lat="42.850205" lon="-0.157886">
        <ele>1596.708</ele>
        <time>2020-07-22T07:32:39Z</time>
      </trkpt>
      <trkpt lat="42.850236" lon="-0.157830">
        <ele>1597.552</ele>
        <time>2020-07-22T07:32:43Z</time>
      </trkpt>
      <trkpt lat="42.850274" lon="-0.157780">
        <ele>1596.450</ele>
        <time>2020-07-22T07:32:45Z</time>
      </trkpt>
      <trkpt lat="42.850326" lon="-0.157733">
        <ele>1597.043</ele>
        <time>2020-07-22T07:32:54Z</time>
      </trkpt>
      <trkpt lat="42.850363" lon="-0.157693">
        <ele>1596.766</ele>
        <time>2020-07-22T07:32:59Z</time>
      </trkpt>
      <trkpt lat="42.850400" lon="-0.157642">
        <ele>1596.962</ele>
        <time>2020-07-22T07:33:03Z</time>
      </trkpt>
      <trkpt lat="42.850431" lon="-0.157582">
        <ele>1596.798</ele>
        <time>2020-07-22T07:33:08Z</time>
      </trkpt>
      <trkpt lat="42.850449" lon="-0.157511">
        <ele>1596.817</ele>
        <time>2020-07-22T07:33:13Z</time>
      </trkpt>
      <trkpt lat="42.850460" lon="-0.157445">
        <ele>1597.061</ele>
        <time>2020-07-22T07:33:18Z</time>
      </trkpt>
      <trkpt lat="42.850478" lon="-0.157372">
        <ele>1597.182</ele>
        <time>2020-07-22T07:33:25Z</time>
      </trkpt>
      <trkpt lat="42.850493" lon="-0.157304">
        <ele>1596.243</ele>
        <time>2020-07-22T07:33:26Z</time>
      </trkpt>
      <trkpt lat="42.850505" lon="-0.157241">
        <ele>1597.017</ele>
        <time>2020-07-22T07:33:34Z</time>
      </trkpt>
      <trkpt lat="42.850525" lon="-0.157181">
        <ele>1596.408</ele>
        <time>2020-07-22T07:33:39Z</time>
      </trkpt>
      <trkpt lat="42.850545" lon="-0.157117">
        <ele>1596.283</ele>
        <time>2020-07-22T07:33:44Z</time>
      </trkpt>
      <trkpt lat="42.850560" lon="-0.157047">
        <ele>1595.521</ele>
        <time>2020-07-22T07:33:48Z</time>
      </trkpt>
      <trkpt lat="42.850576" lon="-0.156980">
        <ele>1594.924</ele>
        <time>2020-07-22T07:33:53Z</time>
      </trkpt>
      <trkpt lat="42.850600" lon="-0.156916">
        <ele>1594.257</ele>
        <time>2020-07-22T07:33:58Z</time>
      </trkpt>
      <trkpt lat="42.850619" lon="-0.156858">
        <ele>1592.773</ele>
        <time>2020-07-22T07:34:03Z</time>
      </trkpt>
      <trkpt lat="42.850636" lon="-0.156792">
        <ele>1592.249</ele>
        <time>2020-07-22T07:34:07Z</time>
      </trkpt>
      <trkpt lat="42.850640" lon="-0.156715">
        <ele>1591.878</ele>
        <time>2020-07-22T07:34:12Z</time>
      </trkpt>
      <trkpt lat="42.850647" lon="-0.156654">
        <ele>1590.822</ele>
        <time>2020-07-22T07:34:13Z</time>
      </trkpt>
      <trkpt lat="42.850662" lon="-0.156594">
        <ele>1591.273</ele>
        <time>2020-07-22T07:34:19Z</time>
      </trkpt>
      <trkpt lat="42.850655" lon="-0.156522">
        <ele>1590.685</ele>
        <time>2020-07-22T07:34:27Z</time>
      </trkpt>
      <trkpt lat="42.850646" lon="-0.156452">
        <ele>1590.713</ele>
        <time>2020-07-22T07:34:32Z</time>
      </trkpt>
      <trkpt lat="42.850630" lon="-0.156386">
        <ele>1590.408</ele>
        <time>2020-07-22T07:34:33Z</time>
      </trkpt>
      <trkpt lat="42.850609" lon="-0.156318">
        <ele>1590.162</ele>
        <time>2020-07-22T07:34:42Z</time>
      </trkpt>
      <trkpt lat="42.850597" lon="-0.156257">
        <ele>1589.830</ele>
        <time>2020-07-22T07:34:46Z</time>
      </trkpt>
      <trkpt lat="42.850573" lon="-0.156191">
        <ele>1588.473</ele>
        <time>2020-07-22T07:34:52Z</time>
      </trkpt>
      <trkpt lat="42.850552" lon="-0.156118">
        <ele>1587.046</ele>
        <time>2020-07-22T07:34:57Z</time>
      </trkpt>
      <trkpt lat="42.850537" lon="-0.156051">
        <ele>1586.882</ele>
        <time>2020-07-22T07:35:02Z</time>
      </trkpt>
      <trkpt lat="42.850521" lon="-0.155990">
        <ele>1586.698</ele>
        <time>2020-07-22T07:35:08Z</time>
      </trkpt>
      <trkpt lat="42.850501" lon="-0.155923">
        <ele>1585.917</ele>
        <time>2020-07-22T07:35:14Z</time>
      </trkpt>
      <trkpt lat="42.850489" lon="-0.155860">
        <ele>1585.691</ele>
        <time>2020-07-22T07:35:15Z</time>
      </trkpt>
      <trkpt lat="42.850475" lon="-0.155792">
        <ele>1585.446</ele>
        <time>2020-07-22T07:35:23Z</time>
      </trkpt>
      <trkpt lat="42.850463" lon="-0.155717">
        <ele>1585.288</ele>
        <time>2020-07-22T07:35:28Z</time>
      </trkpt>
      <trkpt lat="42.850455" lon="-0.155647">
        <ele>1585.216</ele>
        <time>2020-07-22T07:35:29Z</time>
      </trkpt>
      <trkpt lat="42.850437" lon="-0.155585">
        <ele>1583.808</ele>
        <time>2020-07-22T07:35:38Z</time>
      </trkpt>
      <trkpt lat="42.850420" lon="-0.155527">
        <ele>1584.269</ele>
        <time>2020-07-22T07:35:43Z</time>
      </trkpt>
      <trkpt lat="42.850382" lon="-0.155455">
        <ele>1581.937</ele>
        <time>2020-07-22T07:49:58Z</time>
      </trkpt>
      <trkpt lat="42.850365" lon="-0.155395">
        <ele>1583.350</ele>
        <time>2020-07-22T07:51:24Z</time>
      </trkpt>
      <trkpt lat="42.850358" lon="-0.155317">
        <ele>1583.353</ele>
        <time>2020-07-22T07:51:31Z</time>
      </trkpt>
      <trkpt lat="42.850358" lon="-0.155241">
        <ele>1582.979</ele>
        <time>2020-07-22T07:51:34Z</time>
      </trkpt>
      <trkpt lat="42.850364" lon="-0.155170">
        <ele>1582.335</ele>
        <time>2020-07-22T07:51:38Z</time>
      </trkpt>
      <trkpt lat="42.850370" lon="-0.155104">
        <ele>1582.974</ele>
        <time>2020-07-22T07:51:43Z</time>
      </trkpt>
      <trkpt lat="42.850371" lon="-0.155032">
        <ele>1582.298</ele>
        <time>2020-07-22T07:51:49Z</time>
      </trkpt>
      <trkpt lat="42.850367" lon="-0.154962">
        <ele>1581.285</ele>
        <time>2020-07-22T07:51:54Z</time>
      </trkpt>
      <trkpt lat="42.850371" lon="-0.154898">
        <ele>1582.089</ele>
        <time>2020-07-22T07:52:00Z</time>
      </trkpt>
      <trkpt lat="42.850373" lon="-0.154832">
        <ele>1581.817</ele>
        <time>2020-07-22T07:52:05Z</time>
      </trkpt>
      <trkpt lat="42.850389" lon="-0.154768">
        <ele>1581.008</ele>
        <time>2020-07-22T07:52:11Z</time>
      </trkpt>
      <trkpt lat="42.850396" lon="-0.154706">
        <ele>1580.423</ele>
        <time>2020-07-22T07:52:16Z</time>
      </trkpt>
      <trkpt lat="42.850393" lon="-0.154640">
        <ele>1580.371</ele>
        <time>2020-07-22T07:52:20Z</time>
      </trkpt>
      <trkpt lat="42.850378" lon="-0.154566">
        <ele>1580.594</ele>
        <time>2020-07-22T07:52:25Z</time>
      </trkpt>
      <trkpt lat="42.850364" lon="-0.154496">
        <ele>1581.777</ele>
        <time>2020-07-22T07:52:29Z</time>
      </trkpt>
      <trkpt lat="42.850364" lon="-0.154423">
        <ele>1580.433</ele>
        <time>2020-07-22T07:52:34Z</time>
      </trkpt>
      <trkpt lat="42.850372" lon="-0.154349">
        <ele>1579.579</ele>
        <time>2020-07-22T07:52:38Z</time>
      </trkpt>
      <trkpt lat="42.850389" lon="-0.154284">
        <ele>1580.228</ele>
        <time>2020-07-22T07:52:40Z</time>
      </trkpt>
      <trkpt lat="42.850414" lon="-0.154224">
        <ele>1579.482</ele>
        <time>2020-07-22T07:52:47Z</time>
      </trkpt>
      <trkpt lat="42.850438" lon="-0.154169">
        <ele>1579.863</ele>
        <time>2020-07-22T07:52:49Z</time>
      </trkpt>
      <trkpt lat="42.850460" lon="-0.154114">
        <ele>1579.844</ele>
        <time>2020-07-22T07:52:56Z</time>
      </trkpt>
      <trkpt lat="42.850468" lon="-0.154038">
        <ele>1581.118</ele>
        <time>2020-07-22T07:53:02Z</time>
      </trkpt>
      <trkpt lat="42.850456" lon="-0.153966">
        <ele>1581.708</ele>
        <time>2020-07-22T07:53:07Z</time>
      </trkpt>
      <trkpt lat="42.850443" lon="-0.153902">
        <ele>1581.181</ele>
        <time>2020-07-22T07:53:12Z</time>
      </trkpt>
      <trkpt lat="42.850427" lon="-0.153843">
        <ele>1580.449</ele>
        <time>2020-07-22T07:53:16Z</time>
      </trkpt>
      <trkpt lat="42.850404" lon="-0.153777">
        <ele>1579.742</ele>
        <time>2020-07-22T07:53:19Z</time>
      </trkpt>
      <trkpt lat="42.850382" lon="-0.153715">
        <ele>1579.685</ele>
        <time>2020-07-22T07:53:26Z</time>
      </trkpt>
      <trkpt lat="42.850347" lon="-0.153666">
        <ele>1577.691</ele>
        <time>2020-07-22T07:53:29Z</time>
      </trkpt>
      <trkpt lat="42.850297" lon="-0.153629">
        <ele>1577.647</ele>
        <time>2020-07-22T07:53:37Z</time>
      </trkpt>
      <trkpt lat="42.850263" lon="-0.153585">
        <ele>1576.926</ele>
        <time>2020-07-22T07:53:43Z</time>
      </trkpt>
      <trkpt lat="42.850226" lon="-0.153543">
        <ele>1576.770</ele>
        <time>2020-07-22T07:53:49Z</time>
      </trkpt>
      <trkpt lat="42.850201" lon="-0.153490">
        <ele>1575.674</ele>
        <time>2020-07-22T07:53:54Z</time>
      </trkpt>
      <trkpt lat="42.850156" lon="-0.153447">
        <ele>1575.956</ele>
        <time>2020-07-22T07:53:59Z</time>
      </trkpt>
      <trkpt lat="42.850119" lon="-0.153411">
        <ele>1573.921</ele>
        <time>2020-07-22T07:54:04Z</time>
      </trkpt>
      <trkpt lat="42.850087" lon="-0.153360">
        <ele>1574.508</ele>
        <time>2020-07-22T07:54:08Z</time>
      </trkpt>
      <trkpt lat="42.850057" lon="-0.153313">
        <ele>1572.862</ele>
        <time>2020-07-22T07:54:12Z</time>
      </trkpt>
      <trkpt lat="42.850022" lon="-0.153256">
        <ele>1573.570</ele>
        <time>2020-07-22T07:54:17Z</time>
      </trkpt>
      <trkpt lat="42.849993" lon="-0.153195">
        <ele>1571.893</ele>
        <time>2020-07-22T07:54:23Z</time>
      </trkpt>
      <trkpt lat="42.849963" lon="-0.153136">
        <ele>1569.676</ele>
        <time>2020-07-22T07:54:29Z</time>
      </trkpt>
      <trkpt lat="42.849949" lon="-0.153071">
        <ele>1570.692</ele>
        <time>2020-07-22T07:54:33Z</time>
      </trkpt>
      <trkpt lat="42.849950" lon="-0.153000">
        <ele>1569.098</ele>
        <time>2020-07-22T07:54:41Z</time>
      </trkpt>
      <trkpt lat="42.849957" lon="-0.152925">
        <ele>1568.427</ele>
        <time>2020-07-22T07:54:47Z</time>
      </trkpt>
      <trkpt lat="42.849967" lon="-0.152856">
        <ele>1567.561</ele>
        <time>2020-07-22T07:54:53Z</time>
      </trkpt>
      <trkpt lat="42.849976" lon="-0.152786">
        <ele>1568.312</ele>
        <time>2020-07-22T07:54:59Z</time>
      </trkpt>
      <trkpt lat="42.849980" lon="-0.152715">
        <ele>1568.332</ele>
        <time>2020-07-22T07:55:03Z</time>
      </trkpt>
      <trkpt lat="42.849981" lon="-0.152651">
        <ele>1566.605</ele>
        <time>2020-07-22T07:55:05Z</time>
      </trkpt>
      <trkpt lat="42.849987" lon="-0.152584">
        <ele>1567.408</ele>
        <time>2020-07-22T07:55:13Z</time>
      </trkpt>
      <trkpt lat="42.849980" lon="-0.152508">
        <ele>1566.536</ele>
        <time>2020-07-22T07:55:18Z</time>
      </trkpt>
      <trkpt lat="42.849980" lon="-0.152437">
        <ele>1565.454</ele>
        <time>2020-07-22T07:55:24Z</time>
      </trkpt>
      <trkpt lat="42.849996" lon="-0.152382">
        <ele>1565.177</ele>
        <time>2020-07-22T07:55:28Z</time>
      </trkpt>
      <trkpt lat="42.850030" lon="-0.152323">
        <ele>1563.160</ele>
        <time>2020-07-22T07:55:35Z</time>
      </trkpt>
      <trkpt lat="42.850058" lon="-0.152269">
        <ele>1564.196</ele>
        <time>2020-07-22T07:55:39Z</time>
      </trkpt>
      <trkpt lat="42.850080" lon="-0.152213">
        <ele>1562.462</ele>
        <time>2020-07-22T07:55:43Z</time>
      </trkpt>
      <trkpt lat="42.850111" lon="-0.152159">
        <ele>1563.581</ele>
        <time>2020-07-22T07:55:48Z</time>
      </trkpt>
      <trkpt lat="42.850140" lon="-0.152103">
        <ele>1563.155</ele>
        <time>2020-07-22T07:55:54Z</time>
      </trkpt>
      <trkpt lat="42.850152" lon="-0.152026">
        <ele>1561.755</ele>
        <time>2020-07-22T07:55:56Z</time>
      </trkpt>
      <trkpt lat="42.850155" lon="-0.151963">
        <ele>1561.407</ele>
        <time>2020-07-22T07:56:02Z</time>
      </trkpt>
      <trkpt lat="42.850144" lon="-0.151892">
        <ele>1561.917</ele>
        <time>2020-07-22T07:56:04Z</time>
      </trkpt>
      <trkpt lat="42.850125" lon="-0.151827">
        <ele>1561.108</ele>
        <time>2020-07-22T07:56:10Z</time>
      </trkpt>
      <trkpt lat="42.850103" lon="-0.151767">
        <ele>1560.250</ele>
        <time>2020-07-22T07:56:14Z</time>
      </trkpt>
      <trkpt lat="42.850082" lon="-0.151703">
        <ele>1559.938</ele>
        <time>2020-07-22T07:56:15Z</time>
      </trkpt>
      <trkpt lat="42.850059" lon="-0.151649">
        <ele>1560.351</ele>
        <time>2020-07-22T07:56:21Z</time>
      </trkpt>
      <trkpt lat="42.850043" lon="-0.151589">
        <ele>1559.014</ele>
        <time>2020-07-22T07:56:26Z</time>
      </trkpt>
      <trkpt lat="42.850031" lon="-0.151526">
        <ele>1558.480</ele>
        <time>2020-07-22T07:56:30Z</time>
      </trkpt>
      <trkpt lat="42.850015" lon="-0.151467">
        <ele>1557.486</ele>
        <time>2020-07-22T07:56:35Z</time>
      </trkpt>
      <trkpt lat="42.850008" lon="-0.151403">
        <ele>1557.825</ele>
        <time>2020-07-22T07:56:40Z</time>
      </trkpt>
      <trkpt lat="42.850014" lon="-0.151336">
        <ele>1556.289</ele>
        <time>2020-07-22T07:56:45Z</time>
      </trkpt>
      <trkpt lat="42.850019" lon="-0.151263">
        <ele>1555.896</ele>
        <time>2020-07-22T07:56:51Z</time>
      </trkpt>
      <trkpt lat="42.850032" lon="-0.151201">
        <ele>1554.331</ele>
        <time>2020-07-22T07:56:57Z</time>
      </trkpt>
      <trkpt lat="42.850043" lon="-0.151131">
        <ele>1554.224</ele>
        <time>2020-07-22T07:57:03Z</time>
      </trkpt>
      <trkpt lat="42.850055" lon="-0.151070">
        <ele>1553.208</ele>
        <time>2020-07-22T07:57:05Z</time>
      </trkpt>
      <trkpt lat="42.850051" lon="-0.151007">
        <ele>1552.784</ele>
        <time>2020-07-22T07:57:10Z</time>
      </trkpt>
      <trkpt lat="42.850032" lon="-0.150949">
        <ele>1551.842</ele>
        <time>2020-07-22T07:57:18Z</time>
      </trkpt>
      <trkpt lat="42.849999" lon="-0.150892">
        <ele>1553.835</ele>
        <time>2020-07-22T07:57:24Z</time>
      </trkpt>
      <trkpt lat="42.849983" lon="-0.150822">
        <ele>1553.748</ele>
        <time>2020-07-22T07:57:30Z</time>
      </trkpt>
      <trkpt lat="42.849971" lon="-0.150760">
        <ele>1552.574</ele>
        <time>2020-07-22T07:57:35Z</time>
      </trkpt>
      <trkpt lat="42.849968" lon="-0.150683">
        <ele>1551.680</ele>
        <time>2020-07-22T07:57:40Z</time>
      </trkpt>
      <trkpt lat="42.849969" lon="-0.150618">
        <ele>1552.179</ele>
        <time>2020-07-22T07:57:44Z</time>
      </trkpt>
      <trkpt lat="42.849970" lon="-0.150538">
        <ele>1551.183</ele>
        <time>2020-07-22T07:57:49Z</time>
      </trkpt>
      <trkpt lat="42.849963" lon="-0.150466">
        <ele>1552.245</ele>
        <time>2020-07-22T07:57:54Z</time>
      </trkpt>
      <trkpt lat="42.849957" lon="-0.150399">
        <ele>1551.547</ele>
        <time>2020-07-22T07:57:58Z</time>
      </trkpt>
      <trkpt lat="42.849958" lon="-0.150324">
        <ele>1550.811</ele>
        <time>2020-07-22T07:58:02Z</time>
      </trkpt>
      <trkpt lat="42.849972" lon="-0.150257">
        <ele>1550.708</ele>
        <time>2020-07-22T07:58:05Z</time>
      </trkpt>
      <trkpt lat="42.849995" lon="-0.150200">
        <ele>1552.019</ele>
        <time>2020-07-22T07:58:12Z</time>
      </trkpt>
      <trkpt lat="42.850022" lon="-0.150141">
        <ele>1550.457</ele>
        <time>2020-07-22T07:58:18Z</time>
      </trkpt>
      <trkpt lat="42.850046" lon="-0.150082">
        <ele>1550.150</ele>
        <time>2020-07-22T07:58:23Z</time>
      </trkpt>
      <trkpt lat="42.850078" lon="-0.150015">
        <ele>1550.693</ele>
        <time>2020-07-22T07:58:28Z</time>
      </trkpt>
      <trkpt lat="42.850112" lon="-0.149956">
        <ele>1550.199</ele>
        <time>2020-07-22T07:58:33Z</time>
      </trkpt>
      <trkpt lat="42.850139" lon="-0.149897">
        <ele>1550.965</ele>
        <time>2020-07-22T07:58:36Z</time>
      </trkpt>
      <trkpt lat="42.850166" lon="-0.149828">
        <ele>1550.334</ele>
        <time>2020-07-22T07:58:41Z</time>
      </trkpt>
      <trkpt lat="42.850187" lon="-0.149765">
        <ele>1550.748</ele>
        <time>2020-07-22T07:58:46Z</time>
      </trkpt>
      <trkpt lat="42.850205" lon="-0.149706">
        <ele>1549.275</ele>
        <time>2020-07-22T07:58:50Z</time>
      </trkpt>
      <trkpt lat="42.850231" lon="-0.149640">
        <ele>1549.628</ele>
        <time>2020-07-22T07:58:57Z</time>
      </trkpt>
      <trkpt lat="42.850255" lon="-0.149568">
        <ele>1549.620</ele>
        <time>2020-07-22T07:59:03Z</time>
      </trkpt>
      <trkpt lat="42.850279" lon="-0.149491">
        <ele>1548.508</ele>
        <time>2020-07-22T07:59:08Z</time>
      </trkpt>
      <trkpt lat="42.850298" lon="-0.149431">
        <ele>1548.382</ele>
        <time>2020-07-22T07:59:13Z</time>
      </trkpt>
      <trkpt lat="42.850314" lon="-0.149372">
        <ele>1548.580</ele>
        <time>2020-07-22T07:59:17Z</time>
      </trkpt>
      <trkpt lat="42.850328" lon="-0.149310">
        <ele>1547.763</ele>
        <time>2020-07-22T07:59:22Z</time>
      </trkpt>
      <trkpt lat="42.850335" lon="-0.149247">
        <ele>1545.616</ele>
        <time>2020-07-22T07:59:26Z</time>
      </trkpt>
      <trkpt lat="42.850355" lon="-0.149188">
        <ele>1546.192</ele>
        <time>2020-07-22T07:59:28Z</time>
      </trkpt>
      <trkpt lat="42.850376" lon="-0.149125">
        <ele>1546.228</ele>
        <time>2020-07-22T07:59:36Z</time>
      </trkpt>
      <trkpt lat="42.850397" lon="-0.149068">
        <ele>1544.617</ele>
        <time>2020-07-22T07:59:40Z</time>
      </trkpt>
      <trkpt lat="42.850418" lon="-0.149019">
        <ele>1543.671</ele>
        <time>2020-07-22T07:59:45Z</time>
      </trkpt>
      <trkpt lat="42.850440" lon="-0.148957">
        <ele>1543.839</ele>
        <time>2020-07-22T07:59:52Z</time>
      </trkpt>
      <trkpt lat="42.850458" lon="-0.148894">
        <ele>1542.701</ele>
        <time>2020-07-22T07:59:58Z</time>
      </trkpt>
      <trkpt lat="42.850471" lon="-0.148828">
        <ele>1543.421</ele>
        <time>2020-07-22T08:00:04Z</time>
      </trkpt>
      <trkpt lat="42.850481" lon="-0.148762">
        <ele>1542.208</ele>
        <time>2020-07-22T08:00:06Z</time>
      </trkpt>
      <trkpt lat="42.850488" lon="-0.148688">
        <ele>1542.488</ele>
        <time>2020-07-22T08:00:14Z</time>
      </trkpt>
      <trkpt lat="42.850490" lon="-0.148615">
        <ele>1541.936</ele>
        <time>2020-07-22T08:00:18Z</time>
      </trkpt>
      <trkpt lat="42.850497" lon="-0.148541">
        <ele>1542.059</ele>
        <time>2020-07-22T08:00:24Z</time>
      </trkpt>
      <trkpt lat="42.850515" lon="-0.148480">
        <ele>1541.982</ele>
        <time>2020-07-22T08:00:28Z</time>
      </trkpt>
      <trkpt lat="42.850541" lon="-0.148426">
        <ele>1541.538</ele>
        <time>2020-07-22T08:00:33Z</time>
      </trkpt>
      <trkpt lat="42.850571" lon="-0.148379">
        <ele>1541.834</ele>
        <time>2020-07-22T08:00:39Z</time>
      </trkpt>
      <trkpt lat="42.850600" lon="-0.148319">
        <ele>1541.523</ele>
        <time>2020-07-22T08:00:46Z</time>
      </trkpt>
      <trkpt lat="42.850608" lon="-0.148257">
        <ele>1541.257</ele>
        <time>2020-07-22T08:00:51Z</time>
      </trkpt>
      <trkpt lat="42.850615" lon="-0.148196">
        <ele>1541.187</ele>
        <time>2020-07-22T08:00:56Z</time>
      </trkpt>
      <trkpt lat="42.850615" lon="-0.148122">
        <ele>1540.642</ele>
        <time>2020-07-22T08:01:03Z</time>
      </trkpt>
      <trkpt lat="42.850624" lon="-0.148048">
        <ele>1540.326</ele>
        <time>2020-07-22T08:01:09Z</time>
      </trkpt>
      <trkpt lat="42.850628" lon="-0.147981">
        <ele>1540.808</ele>
        <time>2020-07-22T08:01:11Z</time>
      </trkpt>
      <trkpt lat="42.850624" lon="-0.147909">
        <ele>1540.643</ele>
        <time>2020-07-22T08:01:19Z</time>
      </trkpt>
      <trkpt lat="42.850617" lon="-0.147832">
        <ele>1540.541</ele>
        <time>2020-07-22T08:01:22Z</time>
      </trkpt>
      <trkpt lat="42.850611" lon="-0.147772">
        <ele>1540.224</ele>
        <time>2020-07-22T08:01:32Z</time>
      </trkpt>
      <trkpt lat="42.850603" lon="-0.147693">
        <ele>1540.437</ele>
        <time>2020-07-22T08:01:39Z</time>
      </trkpt>
      <trkpt lat="42.850608" lon="-0.147629">
        <ele>1540.113</ele>
        <time>2020-07-22T08:01:42Z</time>
      </trkpt>
      <trkpt lat="42.850620" lon="-0.147561">
        <ele>1540.379</ele>
        <time>2020-07-22T08:01:42Z</time>
      </trkpt>
      <trkpt lat="42.850647" lon="-0.147496">
        <ele>1539.728</ele>
        <time>2020-07-22T08:01:46Z</time>
      </trkpt>
      <trkpt lat="42.850668" lon="-0.147435">
        <ele>1539.282</ele>
        <time>2020-07-22T08:01:53Z</time>
      </trkpt>
      <trkpt lat="42.850673" lon="-0.147364">
        <ele>1539.575</ele>
        <time>2020-07-22T08:01:58Z</time>
      </trkpt>
      <trkpt lat="42.850675" lon="-0.147300">
        <ele>1540.128</ele>
        <time>2020-07-22T08:01:58Z</time>
      </trkpt>
      <trkpt lat="42.850675" lon="-0.147233">
        <ele>1539.720</ele>
        <time>2020-07-22T08:02:07Z</time>
      </trkpt>
      <trkpt lat="42.850676" lon="-0.147233">
        <ele>1538.908</ele>
        <time>2020-07-22T08:02:47Z</time>
      </trkpt>
      <trkpt lat="42.850671" lon="-0.147159">
        <ele>1539.212</ele>
        <time>2020-07-22T08:02:51Z</time>
      </trkpt>
      <trkpt lat="42.850675" lon="-0.147065">
        <ele>1540.480</ele>
        <time>2020-07-22T08:02:51Z</time>
      </trkpt>
      <trkpt lat="42.850681" lon="-0.146981">
        <ele>1539.563</ele>
        <time>2020-07-22T08:02:58Z</time>
      </trkpt>
      <trkpt lat="42.850678" lon="-0.146909">
        <ele>1538.116</ele>
        <time>2020-07-22T08:03:02Z</time>
      </trkpt>
      <trkpt lat="42.850665" lon="-0.146840">
        <ele>1539.072</ele>
        <time>2020-07-22T08:03:06Z</time>
      </trkpt>
      <trkpt lat="42.850659" lon="-0.146800">
        <ele>1538.758</ele>
        <time>2020-07-22T08:03:10Z</time>
      </trkpt>
      <trkpt lat="42.850648" lon="-0.146766">
        <ele>1538.687</ele>
        <time>2020-07-22T08:05:13Z</time>
      </trkpt>
      <trkpt lat="42.850637" lon="-0.146705">
        <ele>1538.591</ele>
        <time>2020-07-22T08:05:22Z</time>
      </trkpt>
      <trkpt lat="42.850630" lon="-0.146643">
        <ele>1537.815</ele>
        <time>2020-07-22T08:06:06Z</time>
      </trkpt>
      <trkpt lat="42.850641" lon="-0.146576">
        <ele>1537.865</ele>
        <time>2020-07-22T08:06:11Z</time>
      </trkpt>
      <trkpt lat="42.850657" lon="-0.146516">
        <ele>1538.911</ele>
        <time>2020-07-22T08:06:14Z</time>
      </trkpt>
      <trkpt lat="42.850673" lon="-0.146453">
        <ele>1538.508</ele>
        <time>2020-07-22T08:06:17Z</time>
      </trkpt>
      <trkpt lat="42.850692" lon="-0.146393">
        <ele>1538.496</ele>
        <time>2020-07-22T08:06:21Z</time>
      </trkpt>
      <trkpt lat="42.850705" lon="-0.146333">
        <ele>1538.084</ele>
        <time>2020-07-22T08:06:24Z</time>
      </trkpt>
      <trkpt lat="42.850711" lon="-0.146259">
        <ele>1536.667</ele>
        <time>2020-07-22T08:06:28Z</time>
      </trkpt>
      <trkpt lat="42.850711" lon="-0.146184">
        <ele>1536.780</ele>
        <time>2020-07-22T08:06:29Z</time>
      </trkpt>
      <trkpt lat="42.850714" lon="-0.146120">
        <ele>1536.756</ele>
        <time>2020-07-22T08:06:36Z</time>
      </trkpt>
      <trkpt lat="42.850724" lon="-0.146046">
        <ele>1537.562</ele>
        <time>2020-07-22T08:06:41Z</time>
      </trkpt>
      <trkpt lat="42.850739" lon="-0.145984">
        <ele>1537.391</ele>
        <time>2020-07-22T08:06:45Z</time>
      </trkpt>
      <trkpt lat="42.850762" lon="-0.145920">
        <ele>1537.045</ele>
        <time>2020-07-22T08:06:46Z</time>
      </trkpt>
      <trkpt lat="42.850786" lon="-0.145854">
        <ele>1536.215</ele>
        <time>2020-07-22T08:06:54Z</time>
      </trkpt>
      <trkpt lat="42.850793" lon="-0.145782">
        <ele>1536.465</ele>
        <time>2020-07-22T08:06:59Z</time>
      </trkpt>
      <trkpt lat="42.850796" lon="-0.145708">
        <ele>1537.011</ele>
        <time>2020-07-22T08:07:03Z</time>
      </trkpt>
      <trkpt lat="42.850798" lon="-0.145646">
        <ele>1536.608</ele>
        <time>2020-07-22T08:07:08Z</time>
      </trkpt>
      <trkpt lat="42.850808" lon="-0.145573">
        <ele>1535.296</ele>
        <time>2020-07-22T08:07:13Z</time>
      </trkpt>
      <trkpt lat="42.850840" lon="-0.145488">
        <ele>1536.744</ele>
        <time>2020-07-22T08:09:45Z</time>
      </trkpt>
      <trkpt lat="42.850858" lon="-0.145432">
        <ele>1535.737</ele>
        <time>2020-07-22T08:09:49Z</time>
      </trkpt>
      <trkpt lat="42.850874" lon="-0.145371">
        <ele>1536.380</ele>
        <time>2020-07-22T08:09:52Z</time>
      </trkpt>
      <trkpt lat="42.850890" lon="-0.145309">
        <ele>1536.326</ele>
        <time>2020-07-22T08:09:55Z</time>
      </trkpt>
      <trkpt lat="42.850907" lon="-0.145246">
        <ele>1535.082</ele>
        <time>2020-07-22T08:09:59Z</time>
      </trkpt>
      <trkpt lat="42.850924" lon="-0.145177">
        <ele>1536.071</ele>
        <time>2020-07-22T08:10:03Z</time>
      </trkpt>
      <trkpt lat="42.850943" lon="-0.145104">
        <ele>1534.625</ele>
        <time>2020-07-22T08:10:08Z</time>
      </trkpt>
      <trkpt lat="42.850964" lon="-0.145043">
        <ele>1534.776</ele>
        <time>2020-07-22T08:10:09Z</time>
      </trkpt>
      <trkpt lat="42.850989" lon="-0.144990">
        <ele>1533.490</ele>
        <time>2020-07-22T08:10:17Z</time>
      </trkpt>
      <trkpt lat="42.851019" lon="-0.144945">
        <ele>1535.019</ele>
        <time>2020-07-22T08:10:23Z</time>
      </trkpt>
      <trkpt lat="42.851060" lon="-0.144896">
        <ele>1534.608</ele>
        <time>2020-07-22T08:10:29Z</time>
      </trkpt>
      <trkpt lat="42.851091" lon="-0.144850">
        <ele>1534.742</ele>
        <time>2020-07-22T08:10:30Z</time>
      </trkpt>
      <trkpt lat="42.851117" lon="-0.144783">
        <ele>1534.410</ele>
        <time>2020-07-22T08:10:35Z</time>
      </trkpt>
      <trkpt lat="42.851145" lon="-0.144720">
        <ele>1534.653</ele>
        <time>2020-07-22T08:10:44Z</time>
      </trkpt>
      <trkpt lat="42.851162" lon="-0.144660">
        <ele>1534.676</ele>
        <time>2020-07-22T08:10:49Z</time>
      </trkpt>
      <trkpt lat="42.851202" lon="-0.144611">
        <ele>1534.062</ele>
        <time>2020-07-22T08:10:54Z</time>
      </trkpt>
      <trkpt lat="42.851237" lon="-0.144562">
        <ele>1534.018</ele>
        <time>2020-07-22T08:10:59Z</time>
      </trkpt>
      <trkpt lat="42.851286" lon="-0.144522">
        <ele>1534.997</ele>
        <time>2020-07-22T08:11:00Z</time>
      </trkpt>
      <trkpt lat="42.851328" lon="-0.144491">
        <ele>1534.251</ele>
        <time>2020-07-22T08:11:08Z</time>
      </trkpt>
      <trkpt lat="42.851373" lon="-0.144456">
        <ele>1533.824</ele>
        <time>2020-07-22T08:11:12Z</time>
      </trkpt>
      <trkpt lat="42.851426" lon="-0.144432">
        <ele>1532.704</ele>
        <time>2020-07-22T08:11:17Z</time>
      </trkpt>
      <trkpt lat="42.851473" lon="-0.144415">
        <ele>1533.614</ele>
        <time>2020-07-22T08:11:21Z</time>
      </trkpt>
      <trkpt lat="42.851527" lon="-0.144404">
        <ele>1533.808</ele>
        <time>2020-07-22T08:11:24Z</time>
      </trkpt>
      <trkpt lat="42.851582" lon="-0.144399">
        <ele>1532.627</ele>
        <time>2020-07-22T08:11:32Z</time>
      </trkpt>
      <trkpt lat="42.851626" lon="-0.144379">
        <ele>1532.615</ele>
        <time>2020-07-22T08:11:36Z</time>
      </trkpt>
      <trkpt lat="42.851665" lon="-0.144335">
        <ele>1533.398</ele>
        <time>2020-07-22T08:11:41Z</time>
      </trkpt>
      <trkpt lat="42.851699" lon="-0.144281">
        <ele>1533.211</ele>
        <time>2020-07-22T08:11:42Z</time>
      </trkpt>
      <trkpt lat="42.851726" lon="-0.144222">
        <ele>1532.867</ele>
        <time>2020-07-22T08:11:50Z</time>
      </trkpt>
      <trkpt lat="42.851758" lon="-0.144178">
        <ele>1533.073</ele>
        <time>2020-07-22T08:11:53Z</time>
      </trkpt>
      <trkpt lat="42.851800" lon="-0.144114">
        <ele>1532.922</ele>
        <time>2020-07-22T08:11:59Z</time>
      </trkpt>
      <trkpt lat="42.851838" lon="-0.144076">
        <ele>1533.536</ele>
        <time>2020-07-22T08:12:02Z</time>
      </trkpt>
      <trkpt lat="42.851879" lon="-0.144028">
        <ele>1533.165</ele>
        <time>2020-07-22T08:12:08Z</time>
      </trkpt>
      <trkpt lat="42.851911" lon="-0.143985">
        <ele>1534.068</ele>
        <time>2020-07-22T08:12:11Z</time>
      </trkpt>
      <trkpt lat="42.851956" lon="-0.143923">
        <ele>1533.914</ele>
        <time>2020-07-22T08:12:17Z</time>
      </trkpt>
      <trkpt lat="42.851985" lon="-0.143863">
        <ele>1533.308</ele>
        <time>2020-07-22T08:12:17Z</time>
      </trkpt>
      <trkpt lat="42.852014" lon="-0.143800">
        <ele>1532.241</ele>
        <time>2020-07-22T08:12:22Z</time>
      </trkpt>
      <trkpt lat="42.852041" lon="-0.143743">
        <ele>1533.299</ele>
        <time>2020-07-22T08:12:30Z</time>
      </trkpt>
      <trkpt lat="42.852066" lon="-0.143661">
        <ele>1532.682</ele>
        <time>2020-07-22T08:12:35Z</time>
      </trkpt>
      <trkpt lat="42.852084" lon="-0.143580">
        <ele>1532.645</ele>
        <time>2020-07-22T08:12:40Z</time>
      </trkpt>
      <trkpt lat="42.852112" lon="-0.143515">
        <ele>1532.781</ele>
        <time>2020-07-22T08:12:45Z</time>
      </trkpt>
      <trkpt lat="42.852149" lon="-0.143451">
        <ele>1532.567</ele>
        <time>2020-07-22T08:12:49Z</time>
      </trkpt>
      <trkpt lat="42.852179" lon="-0.143404">
        <ele>1532.556</ele>
        <time>2020-07-22T08:12:52Z</time>
      </trkpt>
      <trkpt lat="42.852219" lon="-0.143358">
        <ele>1532.570</ele>
        <time>2020-07-22T08:12:57Z</time>
      </trkpt>
      <trkpt lat="42.852259" lon="-0.143314">
        <ele>1532.316</ele>
        <time>2020-07-22T08:13:01Z</time>
      </trkpt>
      <trkpt lat="42.852303" lon="-0.143271">
        <ele>1532.076</ele>
        <time>2020-07-22T08:13:06Z</time>
      </trkpt>
      <trkpt lat="42.852343" lon="-0.143224">
        <ele>1531.613</ele>
        <time>2020-07-22T08:13:10Z</time>
      </trkpt>
      <trkpt lat="42.852375" lon="-0.143169">
        <ele>1531.208</ele>
        <time>2020-07-22T08:13:15Z</time>
      </trkpt>
      <trkpt lat="42.852390" lon="-0.143099">
        <ele>1530.566</ele>
        <time>2020-07-22T08:13:16Z</time>
      </trkpt>
      <trkpt lat="42.852375" lon="-0.143034">
        <ele>1530.694</ele>
        <time>2020-07-22T08:13:23Z</time>
      </trkpt>
      <trkpt lat="42.852339" lon="-0.142965">
        <ele>1530.547</ele>
        <time>2020-07-22T08:13:28Z</time>
      </trkpt>
      <trkpt lat="42.852300" lon="-0.142903">
        <ele>1530.290</ele>
        <time>2020-07-22T08:13:32Z</time>
      </trkpt>
      <trkpt lat="42.852262" lon="-0.142861">
        <ele>1531.176</ele>
        <time>2020-07-22T08:13:36Z</time>
      </trkpt>
      <trkpt lat="42.852223" lon="-0.142823">
        <ele>1530.852</ele>
        <time>2020-07-22T08:13:39Z</time>
      </trkpt>
      <trkpt lat="42.852177" lon="-0.142779">
        <ele>1531.351</ele>
        <time>2020-07-22T08:13:42Z</time>
      </trkpt>
      <trkpt lat="42.852135" lon="-0.142755">
        <ele>1531.035</ele>
        <time>2020-07-22T08:13:42Z</time>
      </trkpt>
      <trkpt lat="42.852086" lon="-0.142750">
        <ele>1530.238</ele>
        <time>2020-07-22T08:13:49Z</time>
      </trkpt>
      <trkpt lat="42.852038" lon="-0.142748">
        <ele>1530.670</ele>
        <time>2020-07-22T08:13:52Z</time>
      </trkpt>
      <trkpt lat="42.851982" lon="-0.142737">
        <ele>1530.017</ele>
        <time>2020-07-22T08:13:57Z</time>
      </trkpt>
      <trkpt lat="42.851926" lon="-0.142729">
        <ele>1529.108</ele>
        <time>2020-07-22T08:14:01Z</time>
      </trkpt>
      <trkpt lat="42.851881" lon="-0.142724">
        <ele>1529.878</ele>
        <time>2020-07-22T08:14:06Z</time>
      </trkpt>
      <trkpt lat="42.851830" lon="-0.142723">
        <ele>1529.566</ele>
        <time>2020-07-22T08:14:09Z</time>
      </trkpt>
      <trkpt lat="42.851763" lon="-0.142713">
        <ele>1529.199</ele>
        <time>2020-07-22T08:14:11Z</time>
      </trkpt>
      <trkpt lat="42.851712" lon="-0.142698">
        <ele>1529.282</ele>
        <time>2020-07-22T08:14:19Z</time>
      </trkpt>
      <trkpt lat="42.851652" lon="-0.142699">
        <ele>1529.528</ele>
        <time>2020-07-22T08:14:23Z</time>
      </trkpt>
      <trkpt lat="42.851605" lon="-0.142701">
        <ele>1529.554</ele>
        <time>2020-07-22T08:14:26Z</time>
      </trkpt>
      <trkpt lat="42.851544" lon="-0.142704">
        <ele>1529.823</ele>
        <time>2020-07-22T08:14:31Z</time>
      </trkpt>
      <trkpt lat="42.851486" lon="-0.142703">
        <ele>1529.547</ele>
        <time>2020-07-22T08:14:36Z</time>
      </trkpt>
      <trkpt lat="42.851441" lon="-0.142708">
        <ele>1529.886</ele>
        <time>2020-07-22T08:14:36Z</time>
      </trkpt>
      <trkpt lat="42.851397" lon="-0.142695">
        <ele>1529.560</ele>
        <time>2020-07-22T08:15:28Z</time>
      </trkpt>
      <trkpt lat="42.851348" lon="-0.142701">
        <ele>1530.026</ele>
        <time>2020-07-22T08:15:34Z</time>
      </trkpt>
      <trkpt lat="42.851299" lon="-0.142708">
        <ele>1529.408</ele>
        <time>2020-07-22T08:15:36Z</time>
      </trkpt>
      <trkpt lat="42.851245" lon="-0.142720">
        <ele>1528.753</ele>
        <time>2020-07-22T08:15:44Z</time>
      </trkpt>
      <trkpt lat="42.851186" lon="-0.142728">
        <ele>1530.661</ele>
        <time>2020-07-22T08:15:49Z</time>
      </trkpt>
      <trkpt lat="42.851130" lon="-0.142718">
        <ele>1529.024</ele>
        <time>2020-07-22T08:15:54Z</time>
      </trkpt>
      <trkpt lat="42.851080" lon="-0.142708">
        <ele>1528.957</ele>
        <time>2020-07-22T08:15:59Z</time>
      </trkpt>
      <trkpt lat="42.851036" lon="-0.142692">
        <ele>1529.213</ele>
        <time>2020-07-22T08:16:00Z</time>
      </trkpt>
      <trkpt lat="42.850989" lon="-0.142684">
        <ele>1529.279</ele>
        <time>2020-07-22T08:16:09Z</time>
      </trkpt>
      <trkpt lat="42.850946" lon="-0.142663">
        <ele>1528.868</ele>
        <time>2020-07-22T08:16:14Z</time>
      </trkpt>
      <trkpt lat="42.850914" lon="-0.142614">
        <ele>1528.712</ele>
        <time>2020-07-22T08:16:29Z</time>
      </trkpt>
      <trkpt lat="42.850898" lon="-0.142563">
        <ele>1528.475</ele>
        <time>2020-07-22T08:16:37Z</time>
      </trkpt>
      <trkpt lat="42.850886" lon="-0.142500">
        <ele>1527.228</ele>
        <time>2020-07-22T08:18:50Z</time>
      </trkpt>
      <trkpt lat="42.850883" lon="-0.142424">
        <ele>1527.320</ele>
        <time>2020-07-22T08:18:55Z</time>
      </trkpt>
      <trkpt lat="42.850876" lon="-0.142359">
        <ele>1526.708</ele>
        <time>2020-07-22T08:19:14Z</time>
      </trkpt>
      <trkpt lat="42.850876" lon="-0.142292">
        <ele>1527.972</ele>
        <time>2020-07-22T08:19:18Z</time>
      </trkpt>
      <trkpt lat="42.850854" lon="-0.142247">
        <ele>1526.970</ele>
        <time>2020-07-22T08:19:20Z</time>
      </trkpt>
      <trkpt lat="42.850809" lon="-0.142222">
        <ele>1527.873</ele>
        <time>2020-07-22T08:19:24Z</time>
      </trkpt>
      <trkpt lat="42.850745" lon="-0.142219">
        <ele>1528.836</ele>
        <time>2020-07-22T08:19:32Z</time>
      </trkpt>
      <trkpt lat="42.850683" lon="-0.142199">
        <ele>1529.492</ele>
        <time>2020-07-22T08:19:38Z</time>
      </trkpt>
      <trkpt lat="42.850639" lon="-0.142163">
        <ele>1528.348</ele>
        <time>2020-07-22T08:19:43Z</time>
      </trkpt>
      <trkpt lat="42.850606" lon="-0.142113">
        <ele>1528.917</ele>
        <time>2020-07-22T08:19:50Z</time>
      </trkpt>
      <trkpt lat="42.850574" lon="-0.142062">
        <ele>1529.781</ele>
        <time>2020-07-22T08:20:05Z</time>
      </trkpt>
      <trkpt lat="42.850558" lon="-0.142008">
        <ele>1528.614</ele>
        <time>2020-07-22T08:20:11Z</time>
      </trkpt>
      <trkpt lat="42.850537" lon="-0.141954">
        <ele>1527.954</ele>
        <time>2020-07-22T08:20:31Z</time>
      </trkpt>
      <trkpt lat="42.850498" lon="-0.141896">
        <ele>1528.009</ele>
        <time>2020-07-22T08:20:37Z</time>
      </trkpt>
      <trkpt lat="42.850448" lon="-0.141844">
        <ele>1526.608</ele>
        <time>2020-07-22T08:20:43Z</time>
      </trkpt>
      <trkpt lat="42.850411" lon="-0.141809">
        <ele>1526.956</ele>
        <time>2020-07-22T08:20:48Z</time>
      </trkpt>
      <trkpt lat="42.850364" lon="-0.141782">
        <ele>1525.654</ele>
        <time>2020-07-22T08:20:53Z</time>
      </trkpt>
      <trkpt lat="42.850317" lon="-0.141735">
        <ele>1525.497</ele>
        <time>2020-07-22T08:20:59Z</time>
      </trkpt>
      <trkpt lat="42.850283" lon="-0.141689">
        <ele>1525.160</ele>
        <time>2020-07-22T08:21:01Z</time>
      </trkpt>
      <trkpt lat="42.850270" lon="-0.141621">
        <ele>1525.086</ele>
        <time>2020-07-22T08:21:07Z</time>
      </trkpt>
      <trkpt lat="42.850267" lon="-0.141554">
        <ele>1525.462</ele>
        <time>2020-07-22T08:21:15Z</time>
      </trkpt>
      <trkpt lat="42.850270" lon="-0.141475">
        <ele>1526.181</ele>
        <time>2020-07-22T08:21:20Z</time>
      </trkpt>
      <trkpt lat="42.850266" lon="-0.141410">
        <ele>1525.915</ele>
        <time>2020-07-22T08:21:24Z</time>
      </trkpt>
      <trkpt lat="42.850263" lon="-0.141337">
        <ele>1525.969</ele>
        <time>2020-07-22T08:21:26Z</time>
      </trkpt>
      <trkpt lat="42.850279" lon="-0.141272">
        <ele>1526.204</ele>
        <time>2020-07-22T08:21:36Z</time>
      </trkpt>
      <trkpt lat="42.850302" lon="-0.141210">
        <ele>1526.624</ele>
        <time>2020-07-22T08:21:42Z</time>
      </trkpt>
      <trkpt lat="42.850320" lon="-0.141154">
        <ele>1527.308</ele>
        <time>2020-07-22T08:21:47Z</time>
      </trkpt>
      <trkpt lat="42.850327" lon="-0.141091">
        <ele>1526.621</ele>
        <time>2020-07-22T08:21:53Z</time>
      </trkpt>
      <trkpt lat="42.850329" lon="-0.141026">
        <ele>1527.449</ele>
        <time>2020-07-22T08:21:57Z</time>
      </trkpt>
      <trkpt lat="42.850324" lon="-0.140962">
        <ele>1528.082</ele>
        <time>2020-07-22T08:22:06Z</time>
      </trkpt>
      <trkpt lat="42.850336" lon="-0.140888">
        <ele>1528.385</ele>
        <time>2020-07-22T08:22:13Z</time>
      </trkpt>
      <trkpt lat="42.850358" lon="-0.140826">
        <ele>1526.621</ele>
        <time>2020-07-22T08:22:20Z</time>
      </trkpt>
      <trkpt lat="42.850380" lon="-0.140770">
        <ele>1525.787</ele>
        <time>2020-07-22T08:22:28Z</time>
      </trkpt>
      <trkpt lat="42.850428" lon="-0.140732">
        <ele>1525.286</ele>
        <time>2020-07-22T08:22:37Z</time>
      </trkpt>
      <trkpt lat="42.850455" lon="-0.140683">
        <ele>1523.990</ele>
        <time>2020-07-22T08:22:39Z</time>
      </trkpt>
      <trkpt lat="42.850497" lon="-0.140665">
        <ele>1523.135</ele>
        <time>2020-07-22T08:22:47Z</time>
      </trkpt>
      <trkpt lat="42.850518" lon="-0.140617">
        <ele>1521.686</ele>
        <time>2020-07-22T08:22:55Z</time>
      </trkpt>
      <trkpt lat="42.850522" lon="-0.140550">
        <ele>1520.514</ele>
        <time>2020-07-22T08:23:04Z</time>
      </trkpt>
      <trkpt lat="42.850492" lon="-0.140502">
        <ele>1520.008</ele>
        <time>2020-07-22T08:23:10Z</time>
      </trkpt>
      <trkpt lat="42.850480" lon="-0.140435">
        <ele>1518.298</ele>
        <time>2020-07-22T08:23:19Z</time>
      </trkpt>
      <trkpt lat="42.850512" lon="-0.140376">
        <ele>1517.966</ele>
        <time>2020-07-22T08:23:22Z</time>
      </trkpt>
      <trkpt lat="42.850573" lon="-0.140357">
        <ele>1516.749</ele>
        <time>2020-07-22T08:24:17Z</time>
      </trkpt>
      <trkpt lat="42.850625" lon="-0.140334">
        <ele>1516.552</ele>
        <time>2020-07-22T08:24:20Z</time>
      </trkpt>
      <trkpt lat="42.850687" lon="-0.140312">
        <ele>1516.798</ele>
        <time>2020-07-22T08:24:24Z</time>
      </trkpt>
      <trkpt lat="42.850733" lon="-0.140293">
        <ele>1515.564</ele>
        <time>2020-07-22T08:24:26Z</time>
      </trkpt>
      <trkpt lat="42.850777" lon="-0.140278">
        <ele>1515.043</ele>
        <time>2020-07-22T08:24:34Z</time>
      </trkpt>
      <trkpt lat="42.850824" lon="-0.140288">
        <ele>1515.757</ele>
        <time>2020-07-22T08:24:38Z</time>
      </trkpt>
      <trkpt lat="42.850865" lon="-0.140313">
        <ele>1512.657</ele>
        <time>2020-07-22T08:25:03Z</time>
      </trkpt>
      <trkpt lat="42.850918" lon="-0.140324">
        <ele>1512.400</ele>
        <time>2020-07-22T08:25:11Z</time>
      </trkpt>
      <trkpt lat="42.850957" lon="-0.140277">
        <ele>1512.620</ele>
        <time>2020-07-22T08:25:15Z</time>
      </trkpt>
      <trkpt lat="42.850959" lon="-0.140208">
        <ele>1511.908</ele>
        <time>2020-07-22T08:25:30Z</time>
      </trkpt>
      <trkpt lat="42.850958" lon="-0.140138">
        <ele>1512.050</ele>
        <time>2020-07-22T08:25:35Z</time>
      </trkpt>
      <trkpt lat="42.850984" lon="-0.140086">
        <ele>1511.288</ele>
        <time>2020-07-22T08:25:49Z</time>
      </trkpt>
      <trkpt lat="42.851029" lon="-0.140084">
        <ele>1512.761</ele>
        <time>2020-07-22T08:25:52Z</time>
      </trkpt>
      <trkpt lat="42.851068" lon="-0.140029">
        <ele>1512.764</ele>
        <time>2020-07-22T08:26:20Z</time>
      </trkpt>
      <trkpt lat="42.851064" lon="-0.139954">
        <ele>1512.750</ele>
        <time>2020-07-22T08:26:26Z</time>
      </trkpt>
      <trkpt lat="42.851025" lon="-0.139919">
        <ele>1513.456</ele>
        <time>2020-07-22T08:26:33Z</time>
      </trkpt>
      <trkpt lat="42.850985" lon="-0.139899">
        <ele>1512.795</ele>
        <time>2020-07-22T08:31:23Z</time>
      </trkpt>
      <trkpt lat="42.850938" lon="-0.139871">
        <ele>1512.749</ele>
        <time>2020-07-22T08:31:29Z</time>
      </trkpt>
      <trkpt lat="42.850904" lon="-0.139836">
        <ele>1512.717</ele>
        <time>2020-07-22T08:33:04Z</time>
      </trkpt>
      <trkpt lat="42.850867" lon="-0.139814">
        <ele>1512.287</ele>
        <time>2020-07-22T08:33:52Z</time>
      </trkpt>
      <trkpt lat="42.850839" lon="-0.139750">
        <ele>1511.715</ele>
        <time>2020-07-22T08:34:01Z</time>
      </trkpt>
      <trkpt lat="42.850831" lon="-0.139674">
        <ele>1511.608</ele>
        <time>2020-07-22T08:34:05Z</time>
      </trkpt>
      <trkpt lat="42.850847" lon="-0.139599">
        <ele>1511.366</ele>
        <time>2020-07-22T08:34:06Z</time>
      </trkpt>
      <trkpt lat="42.850857" lon="-0.139528">
        <ele>1511.324</ele>
        <time>2020-07-22T08:34:11Z</time>
      </trkpt>
      <trkpt lat="42.850861" lon="-0.139457">
        <ele>1510.947</ele>
        <time>2020-07-22T08:34:16Z</time>
      </trkpt>
      <trkpt lat="42.850860" lon="-0.139380">
        <ele>1510.140</ele>
        <time>2020-07-22T08:34:25Z</time>
      </trkpt>
      <trkpt lat="42.850855" lon="-0.139318">
        <ele>1509.886</ele>
        <time>2020-07-22T08:34:29Z</time>
      </trkpt>
      <trkpt lat="42.850851" lon="-0.139257">
        <ele>1509.242</ele>
        <time>2020-07-22T08:34:38Z</time>
      </trkpt>
      <trkpt lat="42.850840" lon="-0.139189">
        <ele>1508.711</ele>
        <time>2020-07-22T08:34:41Z</time>
      </trkpt>
      <trkpt lat="42.850818" lon="-0.139131">
        <ele>1508.435</ele>
        <time>2020-07-22T08:34:45Z</time>
      </trkpt>
      <trkpt lat="42.850803" lon="-0.139066">
        <ele>1507.945</ele>
        <time>2020-07-22T08:34:51Z</time>
      </trkpt>
      <trkpt lat="42.850803" lon="-0.138991">
        <ele>1507.447</ele>
        <time>2020-07-22T08:34:56Z</time>
      </trkpt>
      <trkpt lat="42.850796" lon="-0.138920">
        <ele>1507.411</ele>
        <time>2020-07-22T08:35:01Z</time>
      </trkpt>
      <trkpt lat="42.850759" lon="-0.138874">
        <ele>1506.808</ele>
        <time>2020-07-22T08:35:03Z</time>
      </trkpt>
      <trkpt lat="42.850710" lon="-0.138873">
        <ele>1506.789</ele>
        <time>2020-07-22T08:35:14Z</time>
      </trkpt>
      <trkpt lat="42.850668" lon="-0.138825">
        <ele>1507.667</ele>
        <time>2020-07-22T08:35:24Z</time>
      </trkpt>
      <trkpt lat="42.850647" lon="-0.138760">
        <ele>1509.350</ele>
        <time>2020-07-22T08:35:27Z</time>
      </trkpt>
      <trkpt lat="42.850624" lon="-0.138709">
        <ele>1509.743</ele>
        <time>2020-07-22T08:35:35Z</time>
      </trkpt>
      <trkpt lat="42.850592" lon="-0.138757">
        <ele>1510.829</ele>
        <time>2020-07-22T08:35:43Z</time>
      </trkpt>
      <trkpt lat="42.850571" lon="-0.138822">
        <ele>1509.815</ele>
        <time>2020-07-22T08:35:48Z</time>
      </trkpt>
      <trkpt lat="42.850542" lon="-0.138886">
        <ele>1511.214</ele>
        <time>2020-07-22T08:35:54Z</time>
      </trkpt>
      <trkpt lat="42.850512" lon="-0.138935">
        <ele>1513.488</ele>
        <time>2020-07-22T08:36:00Z</time>
      </trkpt>
      <trkpt lat="42.850478" lon="-0.138983">
        <ele>1512.021</ele>
        <time>2020-07-22T08:36:05Z</time>
      </trkpt>
      <trkpt lat="42.850434" lon="-0.139039">
        <ele>1514.841</ele>
        <time>2020-07-22T08:36:10Z</time>
      </trkpt>
      <trkpt lat="42.850396" lon="-0.139082">
        <ele>1516.205</ele>
        <time>2020-07-22T08:36:16Z</time>
      </trkpt>
      <trkpt lat="42.850410" lon="-0.138999">
        <ele>1517.008</ele>
        <time>2020-07-22T08:36:26Z</time>
      </trkpt>
      <trkpt lat="42.850446" lon="-0.138930">
        <ele>1518.487</ele>
        <time>2020-07-22T08:36:30Z</time>
      </trkpt>
      <trkpt lat="42.850469" lon="-0.138867">
        <ele>1518.865</ele>
        <time>2020-07-22T08:36:37Z</time>
      </trkpt>
      <trkpt lat="42.850492" lon="-0.138807">
        <ele>1519.438</ele>
        <time>2020-07-22T08:36:42Z</time>
      </trkpt>
      <trkpt lat="42.850497" lon="-0.138754">
        <ele>1520.061</ele>
        <time>2020-07-22T08:36:53Z</time>
      </trkpt>
      <trkpt lat="42.850456" lon="-0.138772">
        <ele>1520.777</ele>
        <time>2020-07-22T08:38:07Z</time>
      </trkpt>
      <trkpt lat="42.850422" lon="-0.138804">
        <ele>1520.523</ele>
        <time>2020-07-22T08:38:19Z</time>
      </trkpt>
      <trkpt lat="42.850390" lon="-0.138871">
        <ele>1520.762</ele>
        <time>2020-07-22T08:38:34Z</time>
      </trkpt>
      <trkpt lat="42.850357" lon="-0.138933">
        <ele>1522.656</ele>
        <time>2020-07-22T08:38:57Z</time>
      </trkpt>
      <trkpt lat="42.850325" lon="-0.138991">
        <ele>1525.171</ele>
        <time>2020-07-22T08:39:05Z</time>
      </trkpt>
      <trkpt lat="42.850297" lon="-0.139059">
        <ele>1524.641</ele>
        <time>2020-07-22T08:39:07Z</time>
      </trkpt>
      <trkpt lat="42.850285" lon="-0.139124">
        <ele>1524.715</ele>
        <time>2020-07-22T08:39:13Z</time>
      </trkpt>
      <trkpt lat="42.850266" lon="-0.139186">
        <ele>1526.608</ele>
        <time>2020-07-22T08:39:23Z</time>
      </trkpt>
      <trkpt lat="42.850231" lon="-0.139233">
        <ele>1528.132</ele>
        <time>2020-07-22T08:39:31Z</time>
      </trkpt>
      <trkpt lat="42.850186" lon="-0.139239">
        <ele>1529.760</ele>
        <time>2020-07-22T08:39:41Z</time>
      </trkpt>
      <trkpt lat="42.850168" lon="-0.139171">
        <ele>1531.293</ele>
        <time>2020-07-22T08:39:46Z</time>
      </trkpt>
      <trkpt lat="42.850182" lon="-0.139087">
        <ele>1530.516</ele>
        <time>2020-07-22T08:39:54Z</time>
      </trkpt>
      <trkpt lat="42.850214" lon="-0.139021">
        <ele>1531.142</ele>
        <time>2020-07-22T08:40:00Z</time>
      </trkpt>
      <trkpt lat="42.850245" lon="-0.138952">
        <ele>1531.538</ele>
        <time>2020-07-22T08:40:03Z</time>
      </trkpt>
      <trkpt lat="42.850265" lon="-0.138895">
        <ele>1531.367</ele>
        <time>2020-07-22T08:40:07Z</time>
      </trkpt>
      <trkpt lat="42.850299" lon="-0.138831">
        <ele>1531.271</ele>
        <time>2020-07-22T08:40:15Z</time>
      </trkpt>
      <trkpt lat="42.850330" lon="-0.138772">
        <ele>1531.461</ele>
        <time>2020-07-22T08:40:20Z</time>
      </trkpt>
      <trkpt lat="42.850357" lon="-0.138711">
        <ele>1534.721</ele>
        <time>2020-07-22T08:40:32Z</time>
      </trkpt>
      <trkpt lat="42.850357" lon="-0.138640">
        <ele>1535.213</ele>
        <time>2020-07-22T08:40:37Z</time>
      </trkpt>
      <trkpt lat="42.850354" lon="-0.138573">
        <ele>1537.108</ele>
        <time>2020-07-22T08:40:47Z</time>
      </trkpt>
      <trkpt lat="42.850330" lon="-0.138511">
        <ele>1536.131</ele>
        <time>2020-07-22T08:40:51Z</time>
      </trkpt>
      <trkpt lat="42.850300" lon="-0.138450">
        <ele>1537.489</ele>
        <time>2020-07-22T08:40:59Z</time>
      </trkpt>
      <trkpt lat="42.850278" lon="-0.138399">
        <ele>1537.662</ele>
        <time>2020-07-22T08:41:05Z</time>
      </trkpt>
      <trkpt lat="42.850245" lon="-0.138340">
        <ele>1537.625</ele>
        <time>2020-07-22T08:41:12Z</time>
      </trkpt>
      <trkpt lat="42.850218" lon="-0.138275">
        <ele>1538.471</ele>
        <time>2020-07-22T08:41:20Z</time>
      </trkpt>
      <trkpt lat="42.850190" lon="-0.138345">
        <ele>1540.257</ele>
        <time>2020-07-22T08:41:37Z</time>
      </trkpt>
      <trkpt lat="42.850182" lon="-0.138407">
        <ele>1541.316</ele>
        <time>2020-07-22T08:41:40Z</time>
      </trkpt>
      <trkpt lat="42.850168" lon="-0.138467">
        <ele>1540.930</ele>
        <time>2020-07-22T08:41:47Z</time>
      </trkpt>
      <trkpt lat="42.850149" lon="-0.138528">
        <ele>1540.968</ele>
        <time>2020-07-22T08:41:52Z</time>
      </trkpt>
      <trkpt lat="42.850121" lon="-0.138583">
        <ele>1541.042</ele>
        <time>2020-07-22T08:41:58Z</time>
      </trkpt>
      <trkpt lat="42.850080" lon="-0.138627">
        <ele>1543.026</ele>
        <time>2020-07-22T08:42:00Z</time>
      </trkpt>
      <trkpt lat="42.850044" lon="-0.138682">
        <ele>1544.208</ele>
        <time>2020-07-22T08:42:07Z</time>
      </trkpt>
      <trkpt lat="42.850015" lon="-0.138738">
        <ele>1544.741</ele>
        <time>2020-07-22T08:42:14Z</time>
      </trkpt>
      <trkpt lat="42.849990" lon="-0.138791">
        <ele>1544.989</ele>
        <time>2020-07-22T08:42:23Z</time>
      </trkpt>
      <trkpt lat="42.849947" lon="-0.138822">
        <ele>1546.232</ele>
        <time>2020-07-22T08:42:26Z</time>
      </trkpt>
      <trkpt lat="42.849918" lon="-0.138756">
        <ele>1546.285</ele>
        <time>2020-07-22T08:42:37Z</time>
      </trkpt>
      <trkpt lat="42.849939" lon="-0.138695">
        <ele>1546.251</ele>
        <time>2020-07-22T08:42:41Z</time>
      </trkpt>
      <trkpt lat="42.849965" lon="-0.138629">
        <ele>1547.067</ele>
        <time>2020-07-22T08:42:47Z</time>
      </trkpt>
      <trkpt lat="42.849991" lon="-0.138579">
        <ele>1549.346</ele>
        <time>2020-07-22T08:42:49Z</time>
      </trkpt>
      <trkpt lat="42.850016" lon="-0.138522">
        <ele>1550.250</ele>
        <time>2020-07-22T08:42:54Z</time>
      </trkpt>
      <trkpt lat="42.850020" lon="-0.138460">
        <ele>1550.674</ele>
        <time>2020-07-22T08:42:59Z</time>
      </trkpt>
      <trkpt lat="42.850015" lon="-0.138391">
        <ele>1550.156</ele>
        <time>2020-07-22T08:43:06Z</time>
      </trkpt>
      <trkpt lat="42.849976" lon="-0.138356">
        <ele>1552.621</ele>
        <time>2020-07-22T08:43:13Z</time>
      </trkpt>
      <trkpt lat="42.849931" lon="-0.138340">
        <ele>1551.908</ele>
        <time>2020-07-22T08:43:23Z</time>
      </trkpt>
      <trkpt lat="42.849884" lon="-0.138340">
        <ele>1553.032</ele>
        <time>2020-07-22T08:43:42Z</time>
      </trkpt>
      <trkpt lat="42.849848" lon="-0.138317">
        <ele>1554.870</ele>
        <time>2020-07-22T08:43:49Z</time>
      </trkpt>
      <trkpt lat="42.849814" lon="-0.138270">
        <ele>1554.513</ele>
        <time>2020-07-22T08:43:55Z</time>
      </trkpt>
      <trkpt lat="42.849768" lon="-0.138267">
        <ele>1556.096</ele>
        <time>2020-07-22T08:44:01Z</time>
      </trkpt>
      <trkpt lat="42.849721" lon="-0.138261">
        <ele>1557.042</ele>
        <time>2020-07-22T08:44:09Z</time>
      </trkpt>
      <trkpt lat="42.849682" lon="-0.138303">
        <ele>1559.028</ele>
        <time>2020-07-22T08:44:21Z</time>
      </trkpt>
      <trkpt lat="42.849656" lon="-0.138362">
        <ele>1560.537</ele>
        <time>2020-07-22T08:44:27Z</time>
      </trkpt>
      <trkpt lat="42.849625" lon="-0.138395">
        <ele>1561.341</ele>
        <time>2020-07-22T08:44:34Z</time>
      </trkpt>
      <trkpt lat="42.849578" lon="-0.138356">
        <ele>1565.279</ele>
        <time>2020-07-22T08:46:10Z</time>
      </trkpt>
      <trkpt lat="42.849531" lon="-0.138363">
        <ele>1563.505</ele>
        <time>2020-07-22T08:46:19Z</time>
      </trkpt>
      <trkpt lat="42.849490" lon="-0.138406">
        <ele>1566.825</ele>
        <time>2020-07-22T08:46:24Z</time>
      </trkpt>
      <trkpt lat="42.849440" lon="-0.138437">
        <ele>1567.908</ele>
        <time>2020-07-22T08:46:28Z</time>
      </trkpt>
      <trkpt lat="42.849393" lon="-0.138445">
        <ele>1568.522</ele>
        <time>2020-07-22T08:46:37Z</time>
      </trkpt>
      <trkpt lat="42.849342" lon="-0.138462">
        <ele>1569.930</ele>
        <time>2020-07-22T08:46:45Z</time>
      </trkpt>
      <trkpt lat="42.849297" lon="-0.138481">
        <ele>1569.963</ele>
        <time>2020-07-22T08:46:49Z</time>
      </trkpt>
      <trkpt lat="42.849271" lon="-0.138536">
        <ele>1570.986</ele>
        <time>2020-07-22T08:47:02Z</time>
      </trkpt>
      <trkpt lat="42.849226" lon="-0.138553">
        <ele>1573.132</ele>
        <time>2020-07-22T08:47:11Z</time>
      </trkpt>
      <trkpt lat="42.849194" lon="-0.138600">
        <ele>1575.068</ele>
        <time>2020-07-22T08:47:23Z</time>
      </trkpt>
      <trkpt lat="42.849150" lon="-0.138639">
        <ele>1575.627</ele>
        <time>2020-07-22T08:47:33Z</time>
      </trkpt>
      <trkpt lat="42.849107" lon="-0.138655">
        <ele>1576.051</ele>
        <time>2020-07-22T08:47:40Z</time>
      </trkpt>
      <trkpt lat="42.849071" lon="-0.138698">
        <ele>1577.036</ele>
        <time>2020-07-22T08:47:52Z</time>
      </trkpt>
      <trkpt lat="42.849023" lon="-0.138713">
        <ele>1579.017</ele>
        <time>2020-07-22T08:48:08Z</time>
      </trkpt>
      <trkpt lat="42.848975" lon="-0.138696">
        <ele>1585.418</ele>
        <time>2020-07-22T08:51:20Z</time>
      </trkpt>
      <trkpt lat="42.848934" lon="-0.138667">
        <ele>1584.808</ele>
        <time>2020-07-22T08:51:24Z</time>
      </trkpt>
      <trkpt lat="42.848877" lon="-0.138654">
        <ele>1585.878</ele>
        <time>2020-07-22T08:51:25Z</time>
      </trkpt>
      <trkpt lat="42.848822" lon="-0.138643">
        <ele>1586.466</ele>
        <time>2020-07-22T08:51:35Z</time>
      </trkpt>
      <trkpt lat="42.848776" lon="-0.138649">
        <ele>1588.369</ele>
        <time>2020-07-22T08:51:42Z</time>
      </trkpt>
      <trkpt lat="42.848732" lon="-0.138634">
        <ele>1590.352</ele>
        <time>2020-07-22T08:51:51Z</time>
      </trkpt>
      <trkpt lat="42.848682" lon="-0.138594">
        <ele>1592.248</ele>
        <time>2020-07-22T08:52:08Z</time>
      </trkpt>
      <trkpt lat="42.848638" lon="-0.138578">
        <ele>1593.544</ele>
        <time>2020-07-22T08:52:10Z</time>
      </trkpt>
      <trkpt lat="42.848592" lon="-0.138576">
        <ele>1593.493</ele>
        <time>2020-07-22T08:52:19Z</time>
      </trkpt>
      <trkpt lat="42.848544" lon="-0.138569">
        <ele>1594.927</ele>
        <time>2020-07-22T08:52:23Z</time>
      </trkpt>
      <trkpt lat="42.848515" lon="-0.138529">
        <ele>1596.255</ele>
        <time>2020-07-22T08:52:34Z</time>
      </trkpt>
      <trkpt lat="42.848466" lon="-0.138517">
        <ele>1594.907</ele>
        <time>2020-07-22T08:52:45Z</time>
      </trkpt>
      <trkpt lat="42.848411" lon="-0.138501">
        <ele>1597.517</ele>
        <time>2020-07-22T08:52:54Z</time>
      </trkpt>
      <trkpt lat="42.848365" lon="-0.138500">
        <ele>1598.708</ele>
        <time>2020-07-22T08:53:00Z</time>
      </trkpt>
      <trkpt lat="42.848318" lon="-0.138493">
        <ele>1599.320</ele>
        <time>2020-07-22T08:53:05Z</time>
      </trkpt>
      <trkpt lat="42.848281" lon="-0.138455">
        <ele>1601.048</ele>
        <time>2020-07-22T08:53:18Z</time>
      </trkpt>
      <trkpt lat="42.848232" lon="-0.138444">
        <ele>1601.321</ele>
        <time>2020-07-22T08:53:29Z</time>
      </trkpt>
      <trkpt lat="42.848185" lon="-0.138440">
        <ele>1602.354</ele>
        <time>2020-07-22T08:53:34Z</time>
      </trkpt>
      <trkpt lat="42.848139" lon="-0.138413">
        <ele>1604.690</ele>
        <time>2020-07-22T08:53:48Z</time>
      </trkpt>
      <trkpt lat="42.848095" lon="-0.138418">
        <ele>1604.596</ele>
        <time>2020-07-22T08:53:57Z</time>
      </trkpt>
      <trkpt lat="42.848049" lon="-0.138393">
        <ele>1606.515</ele>
        <time>2020-07-22T08:54:01Z</time>
      </trkpt>
      <trkpt lat="42.848002" lon="-0.138378">
        <ele>1607.039</ele>
        <time>2020-07-22T08:54:14Z</time>
      </trkpt>
      <trkpt lat="42.847955" lon="-0.138393">
        <ele>1608.743</ele>
        <time>2020-07-22T08:54:21Z</time>
      </trkpt>
      <trkpt lat="42.847923" lon="-0.138404">
        <ele>1608.564</ele>
        <time>2020-07-22T08:54:25Z</time>
      </trkpt>
      <trkpt lat="42.847886" lon="-0.138431">
        <ele>1610.510</ele>
        <time>2020-07-22T09:06:56Z</time>
      </trkpt>
      <trkpt lat="42.847842" lon="-0.138431">
        <ele>1610.708</ele>
        <time>2020-07-22T09:19:15Z</time>
      </trkpt>
      <trkpt lat="42.847795" lon="-0.138420">
        <ele>1611.139</ele>
        <time>2020-07-22T09:19:19Z</time>
      </trkpt>
      <trkpt lat="42.847749" lon="-0.138397">
        <ele>1611.237</ele>
        <time>2020-07-22T09:19:23Z</time>
      </trkpt>
      <trkpt lat="42.847716" lon="-0.138354">
        <ele>1611.340</ele>
        <time>2020-07-22T09:19:29Z</time>
      </trkpt>
      <trkpt lat="42.847672" lon="-0.138324">
        <ele>1609.983</ele>
        <time>2020-07-22T09:19:32Z</time>
      </trkpt>
      <trkpt lat="42.847627" lon="-0.138307">
        <ele>1610.659</ele>
        <time>2020-07-22T09:19:36Z</time>
      </trkpt>
      <trkpt lat="42.847582" lon="-0.138294">
        <ele>1612.195</ele>
        <time>2020-07-22T09:19:40Z</time>
      </trkpt>
      <trkpt lat="42.847542" lon="-0.138250">
        <ele>1613.514</ele>
        <time>2020-07-22T09:19:47Z</time>
      </trkpt>
      <trkpt lat="42.847493" lon="-0.138234">
        <ele>1613.178</ele>
        <time>2020-07-22T09:19:53Z</time>
      </trkpt>
      <trkpt lat="42.847445" lon="-0.138249">
        <ele>1613.737</ele>
        <time>2020-07-22T09:19:58Z</time>
      </trkpt>
      <trkpt lat="42.847404" lon="-0.138288">
        <ele>1614.149</ele>
        <time>2020-07-22T09:20:03Z</time>
      </trkpt>
      <trkpt lat="42.847377" lon="-0.138343">
        <ele>1613.913</ele>
        <time>2020-07-22T09:20:08Z</time>
      </trkpt>
      <trkpt lat="42.847362" lon="-0.138406">
        <ele>1615.708</ele>
        <time>2020-07-22T09:20:21Z</time>
      </trkpt>
      <trkpt lat="42.847330" lon="-0.138441">
        <ele>1614.518</ele>
        <time>2020-07-22T09:20:33Z</time>
      </trkpt>
      <trkpt lat="42.847275" lon="-0.138465">
        <ele>1616.076</ele>
        <time>2020-07-22T09:20:39Z</time>
      </trkpt>
      <trkpt lat="42.847229" lon="-0.138490">
        <ele>1615.799</ele>
        <time>2020-07-22T09:20:42Z</time>
      </trkpt>
      <trkpt lat="42.847187" lon="-0.138519">
        <ele>1615.612</ele>
        <time>2020-07-22T09:20:47Z</time>
      </trkpt>
      <trkpt lat="42.847139" lon="-0.138542">
        <ele>1616.068</ele>
        <time>2020-07-22T09:20:51Z</time>
      </trkpt>
      <trkpt lat="42.847092" lon="-0.138542">
        <ele>1616.954</ele>
        <time>2020-07-22T09:20:54Z</time>
      </trkpt>
      <trkpt lat="42.847037" lon="-0.138522">
        <ele>1615.913</ele>
        <time>2020-07-22T09:20:59Z</time>
      </trkpt>
      <trkpt lat="42.846992" lon="-0.138510">
        <ele>1615.957</ele>
        <time>2020-07-22T09:21:03Z</time>
      </trkpt>
      <trkpt lat="42.846945" lon="-0.138508">
        <ele>1618.881</ele>
        <time>2020-07-22T09:21:09Z</time>
      </trkpt>
      <trkpt lat="42.846917" lon="-0.138448">
        <ele>1618.561</ele>
        <time>2020-07-22T09:21:17Z</time>
      </trkpt>
      <trkpt lat="42.846898" lon="-0.138420">
        <ele>1618.317</ele>
        <time>2020-07-22T09:21:25Z</time>
      </trkpt>
      <trkpt lat="42.846870" lon="-0.138429">
        <ele>1620.708</ele>
        <time>2020-07-22T09:21:30Z</time>
      </trkpt>
      <trkpt lat="42.846825" lon="-0.138444">
        <ele>1620.113</ele>
        <time>2020-07-22T09:21:38Z</time>
      </trkpt>
      <trkpt lat="42.846781" lon="-0.138464">
        <ele>1623.591</ele>
        <time>2020-07-22T09:21:45Z</time>
      </trkpt>
      <trkpt lat="42.846738" lon="-0.138470">
        <ele>1624.134</ele>
        <time>2020-07-22T09:21:52Z</time>
      </trkpt>
      <trkpt lat="42.846702" lon="-0.138490">
        <ele>1629.327</ele>
        <time>2020-07-22T09:22:52Z</time>
      </trkpt>
      <trkpt lat="42.846650" lon="-0.138513">
        <ele>1628.823</ele>
        <time>2020-07-22T09:23:01Z</time>
      </trkpt>
      <trkpt lat="42.846609" lon="-0.138540">
        <ele>1631.079</ele>
        <time>2020-07-22T09:23:08Z</time>
      </trkpt>
      <trkpt lat="42.846571" lon="-0.138576">
        <ele>1632.848</ele>
        <time>2020-07-22T09:23:16Z</time>
      </trkpt>
      <trkpt lat="42.846550" lon="-0.138631">
        <ele>1632.552</ele>
        <time>2020-07-22T09:23:22Z</time>
      </trkpt>
      <trkpt lat="42.846520" lon="-0.138682">
        <ele>1634.365</ele>
        <time>2020-07-22T09:23:31Z</time>
      </trkpt>
      <trkpt lat="42.846487" lon="-0.138721">
        <ele>1636.968</ele>
        <time>2020-07-22T09:23:46Z</time>
      </trkpt>
      <trkpt lat="42.846447" lon="-0.138727">
        <ele>1637.214</ele>
        <time>2020-07-22T09:23:54Z</time>
      </trkpt>
      <trkpt lat="42.846405" lon="-0.138692">
        <ele>1638.308</ele>
        <time>2020-07-22T09:23:59Z</time>
      </trkpt>
      <trkpt lat="42.846356" lon="-0.138673">
        <ele>1639.761</ele>
        <time>2020-07-22T09:24:06Z</time>
      </trkpt>
      <trkpt lat="42.846306" lon="-0.138672">
        <ele>1639.569</ele>
        <time>2020-07-22T09:24:14Z</time>
      </trkpt>
      <trkpt lat="42.846255" lon="-0.138658">
        <ele>1640.012</ele>
        <time>2020-07-22T09:24:23Z</time>
      </trkpt>
      <trkpt lat="42.846216" lon="-0.138624">
        <ele>1640.685</ele>
        <time>2020-07-22T09:24:29Z</time>
      </trkpt>
      <trkpt lat="42.846168" lon="-0.138592">
        <ele>1638.941</ele>
        <time>2020-07-22T09:24:34Z</time>
      </trkpt>
      <trkpt lat="42.846130" lon="-0.138552">
        <ele>1640.387</ele>
        <time>2020-07-22T09:24:40Z</time>
      </trkpt>
      <trkpt lat="42.846086" lon="-0.138526">
        <ele>1639.396</ele>
        <time>2020-07-22T09:24:45Z</time>
      </trkpt>
      <trkpt lat="42.846036" lon="-0.138542">
        <ele>1639.690</ele>
        <time>2020-07-22T09:24:50Z</time>
      </trkpt>
      <trkpt lat="42.845992" lon="-0.138598">
        <ele>1640.436</ele>
        <time>2020-07-22T09:24:56Z</time>
      </trkpt>
      <trkpt lat="42.845959" lon="-0.138641">
        <ele>1640.217</ele>
        <time>2020-07-22T09:25:01Z</time>
      </trkpt>
      <trkpt lat="42.845912" lon="-0.138671">
        <ele>1641.818</ele>
        <time>2020-07-22T09:25:08Z</time>
      </trkpt>
      <trkpt lat="42.845886" lon="-0.138607">
        <ele>1644.308</ele>
        <time>2020-07-22T09:25:48Z</time>
      </trkpt>
      <trkpt lat="42.845838" lon="-0.138585">
        <ele>1650.688</ele>
        <time>2020-07-22T09:26:07Z</time>
      </trkpt>
      <trkpt lat="42.845796" lon="-0.138625">
        <ele>1651.476</ele>
        <time>2020-07-22T09:26:17Z</time>
      </trkpt>
      <trkpt lat="42.845777" lon="-0.138682">
        <ele>1651.979</ele>
        <time>2020-07-22T09:26:23Z</time>
      </trkpt>
      <trkpt lat="42.845739" lon="-0.138715">
        <ele>1651.642</ele>
        <time>2020-07-22T09:26:29Z</time>
      </trkpt>
      <trkpt lat="42.845698" lon="-0.138689">
        <ele>1653.588</ele>
        <time>2020-07-22T09:26:40Z</time>
      </trkpt>
      <trkpt lat="42.845648" lon="-0.138688">
        <ele>1651.454</ele>
        <time>2020-07-22T09:26:45Z</time>
      </trkpt>
      <trkpt lat="42.845599" lon="-0.138687">
        <ele>1651.153</ele>
        <time>2020-07-22T09:26:50Z</time>
      </trkpt>
      <trkpt lat="42.845552" lon="-0.138683">
        <ele>1653.147</ele>
        <time>2020-07-22T09:26:55Z</time>
      </trkpt>
      <trkpt lat="42.845508" lon="-0.138729">
        <ele>1652.316</ele>
        <time>2020-07-22T09:27:01Z</time>
      </trkpt>
      <trkpt lat="42.845476" lon="-0.138773">
        <ele>1651.576</ele>
        <time>2020-07-22T09:27:05Z</time>
      </trkpt>
      <trkpt lat="42.845424" lon="-0.138804">
        <ele>1652.713</ele>
        <time>2020-07-22T09:27:09Z</time>
      </trkpt>
      <trkpt lat="42.845373" lon="-0.138813">
        <ele>1652.308</ele>
        <time>2020-07-22T09:27:14Z</time>
      </trkpt>
      <trkpt lat="42.845324" lon="-0.138817">
        <ele>1652.446</ele>
        <time>2020-07-22T09:27:19Z</time>
      </trkpt>
      <trkpt lat="42.845277" lon="-0.138819">
        <ele>1650.364</ele>
        <time>2020-07-22T09:27:24Z</time>
      </trkpt>
      <trkpt lat="42.845232" lon="-0.138841">
        <ele>1653.127</ele>
        <time>2020-07-22T09:27:28Z</time>
      </trkpt>
      <trkpt lat="42.845186" lon="-0.138856">
        <ele>1651.920</ele>
        <time>2020-07-22T09:27:33Z</time>
      </trkpt>
      <trkpt lat="42.845132" lon="-0.138858">
        <ele>1652.336</ele>
        <time>2020-07-22T09:27:39Z</time>
      </trkpt>
      <trkpt lat="42.845083" lon="-0.138889">
        <ele>1652.032</ele>
        <time>2020-07-22T09:27:44Z</time>
      </trkpt>
      <trkpt lat="42.845036" lon="-0.138907">
        <ele>1652.971</ele>
        <time>2020-07-22T09:27:48Z</time>
      </trkpt>
      <trkpt lat="42.844985" lon="-0.138909">
        <ele>1654.145</ele>
        <time>2020-07-22T09:27:55Z</time>
      </trkpt>
      <trkpt lat="42.844938" lon="-0.138914">
        <ele>1654.931</ele>
        <time>2020-07-22T09:28:00Z</time>
      </trkpt>
      <trkpt lat="42.844896" lon="-0.138869">
        <ele>1653.861</ele>
        <time>2020-07-22T09:28:06Z</time>
      </trkpt>
      <trkpt lat="42.844848" lon="-0.138841">
        <ele>1654.807</ele>
        <time>2020-07-22T09:28:12Z</time>
      </trkpt>
      <trkpt lat="42.844799" lon="-0.138840">
        <ele>1655.708</ele>
        <time>2020-07-22T09:28:18Z</time>
      </trkpt>
      <trkpt lat="42.844749" lon="-0.138839">
        <ele>1656.768</ele>
        <time>2020-07-22T09:28:25Z</time>
      </trkpt>
      <trkpt lat="42.844701" lon="-0.138854">
        <ele>1657.916</ele>
        <time>2020-07-22T09:28:32Z</time>
      </trkpt>
      <trkpt lat="42.844653" lon="-0.138850">
        <ele>1658.399</ele>
        <time>2020-07-22T09:28:40Z</time>
      </trkpt>
      <trkpt lat="42.844612" lon="-0.138870">
        <ele>1658.072</ele>
        <time>2020-07-22T09:28:45Z</time>
      </trkpt>
      <trkpt lat="42.844572" lon="-0.138845">
        <ele>1661.688</ele>
        <time>2020-07-22T09:28:54Z</time>
      </trkpt>
      <trkpt lat="42.844533" lon="-0.138806">
        <ele>1658.884</ele>
        <time>2020-07-22T09:29:02Z</time>
      </trkpt>
      <trkpt lat="42.844485" lon="-0.138772">
        <ele>1663.623</ele>
        <time>2020-07-22T09:29:14Z</time>
      </trkpt>
      <trkpt lat="42.844437" lon="-0.138758">
        <ele>1663.257</ele>
        <time>2020-07-22T09:29:20Z</time>
      </trkpt>
      <trkpt lat="42.844392" lon="-0.138755">
        <ele>1665.141</ele>
        <time>2020-07-22T09:29:26Z</time>
      </trkpt>
      <trkpt lat="42.844341" lon="-0.138747">
        <ele>1665.281</ele>
        <time>2020-07-22T09:29:33Z</time>
      </trkpt>
      <trkpt lat="42.844295" lon="-0.138749">
        <ele>1666.609</ele>
        <time>2020-07-22T09:29:53Z</time>
      </trkpt>
      <trkpt lat="42.844244" lon="-0.138734">
        <ele>1667.808</ele>
        <time>2020-07-22T09:30:01Z</time>
      </trkpt>
      <trkpt lat="42.844192" lon="-0.138717">
        <ele>1667.789</ele>
        <time>2020-07-22T09:30:09Z</time>
      </trkpt>
      <trkpt lat="42.844146" lon="-0.138690">
        <ele>1669.137</ele>
        <time>2020-07-22T09:30:16Z</time>
      </trkpt>
      <trkpt lat="42.844096" lon="-0.138696">
        <ele>1668.880</ele>
        <time>2020-07-22T09:30:22Z</time>
      </trkpt>
      <trkpt lat="42.844044" lon="-0.138700">
        <ele>1667.943</ele>
        <time>2020-07-22T09:30:27Z</time>
      </trkpt>
      <trkpt lat="42.843998" lon="-0.138699">
        <ele>1671.059</ele>
        <time>2020-07-22T09:30:33Z</time>
      </trkpt>
      <trkpt lat="42.843944" lon="-0.138707">
        <ele>1671.525</ele>
        <time>2020-07-22T09:30:40Z</time>
      </trkpt>
      <trkpt lat="42.843899" lon="-0.138738">
        <ele>1671.724</ele>
        <time>2020-07-22T09:30:47Z</time>
      </trkpt>
      <trkpt lat="42.843853" lon="-0.138748">
        <ele>1672.768</ele>
        <time>2020-07-22T09:30:54Z</time>
      </trkpt>
      <trkpt lat="42.843794" lon="-0.138743">
        <ele>1672.273</ele>
        <time>2020-07-22T09:31:01Z</time>
      </trkpt>
      <trkpt lat="42.843748" lon="-0.138760">
        <ele>1674.385</ele>
        <time>2020-07-22T09:31:10Z</time>
      </trkpt>
      <trkpt lat="42.843699" lon="-0.138757">
        <ele>1674.913</ele>
        <time>2020-07-22T09:31:17Z</time>
      </trkpt>
      <trkpt lat="42.843654" lon="-0.138772">
        <ele>1675.808</ele>
        <time>2020-07-22T09:31:23Z</time>
      </trkpt>
      <trkpt lat="42.843608" lon="-0.138810">
        <ele>1675.362</ele>
        <time>2020-07-22T09:31:29Z</time>
      </trkpt>
      <trkpt lat="42.843562" lon="-0.138834">
        <ele>1676.840</ele>
        <time>2020-07-22T09:31:34Z</time>
      </trkpt>
      <trkpt lat="42.843503" lon="-0.138843">
        <ele>1675.273</ele>
        <time>2020-07-22T09:31:40Z</time>
      </trkpt>
      <trkpt lat="42.843448" lon="-0.138855">
        <ele>1675.286</ele>
        <time>2020-07-22T09:31:46Z</time>
      </trkpt>
      <trkpt lat="42.843403" lon="-0.138876">
        <ele>1676.712</ele>
        <time>2020-07-22T09:31:52Z</time>
      </trkpt>
      <trkpt lat="42.843355" lon="-0.138864">
        <ele>1676.878</ele>
        <time>2020-07-22T09:31:58Z</time>
      </trkpt>
      <trkpt lat="42.843301" lon="-0.138863">
        <ele>1675.897</ele>
        <time>2020-07-22T09:32:04Z</time>
      </trkpt>
      <trkpt lat="42.843250" lon="-0.138845">
        <ele>1676.631</ele>
        <time>2020-07-22T09:32:10Z</time>
      </trkpt>
      <trkpt lat="42.843208" lon="-0.138818">
        <ele>1677.462</ele>
        <time>2020-07-22T09:32:17Z</time>
      </trkpt>
      <trkpt lat="42.843167" lon="-0.138777">
        <ele>1676.183</ele>
        <time>2020-07-22T09:32:24Z</time>
      </trkpt>
      <trkpt lat="42.843122" lon="-0.138767">
        <ele>1676.911</ele>
        <time>2020-07-22T09:32:32Z</time>
      </trkpt>
      <trkpt lat="42.843073" lon="-0.138763">
        <ele>1676.108</ele>
        <time>2020-07-22T09:32:38Z</time>
      </trkpt>
      <trkpt lat="42.843022" lon="-0.138762">
        <ele>1676.051</ele>
        <time>2020-07-22T09:32:44Z</time>
      </trkpt>
      <trkpt lat="42.842971" lon="-0.138766">
        <ele>1674.749</ele>
        <time>2020-07-22T09:32:50Z</time>
      </trkpt>
      <trkpt lat="42.842920" lon="-0.138739">
        <ele>1677.232</ele>
        <time>2020-07-22T09:32:56Z</time>
      </trkpt>
      <trkpt lat="42.842862" lon="-0.138728">
        <ele>1678.885</ele>
        <time>2020-07-22T09:33:02Z</time>
      </trkpt>
      <trkpt lat="42.842814" lon="-0.138733">
        <ele>1677.331</ele>
        <time>2020-07-22T09:33:07Z</time>
      </trkpt>
      <trkpt lat="42.842766" lon="-0.138736">
        <ele>1678.587</ele>
        <time>2020-07-22T09:33:14Z</time>
      </trkpt>
      <trkpt lat="42.842718" lon="-0.138740">
        <ele>1679.896</ele>
        <time>2020-07-22T09:33:20Z</time>
      </trkpt>
      <trkpt lat="42.842676" lon="-0.138746">
        <ele>1678.990</ele>
        <time>2020-07-22T09:33:28Z</time>
      </trkpt>
      <trkpt lat="42.842632" lon="-0.138779">
        <ele>1682.216</ele>
        <time>2020-07-22T09:33:36Z</time>
      </trkpt>
      <trkpt lat="42.842591" lon="-0.138814">
        <ele>1682.576</ele>
        <time>2020-07-22T09:33:43Z</time>
      </trkpt>
      <trkpt lat="42.842536" lon="-0.138810">
        <ele>1681.713</ele>
        <time>2020-07-22T09:33:50Z</time>
      </trkpt>
      <trkpt lat="42.842490" lon="-0.138841">
        <ele>1683.608</ele>
        <time>2020-07-22T09:33:55Z</time>
      </trkpt>
      <trkpt lat="42.842475" lon="-0.138916">
        <ele>1683.096</ele>
        <time>2020-07-22T09:34:00Z</time>
      </trkpt>
      <trkpt lat="42.842464" lon="-0.138989">
        <ele>1683.344</ele>
        <time>2020-07-22T09:34:04Z</time>
      </trkpt>
      <trkpt lat="42.842442" lon="-0.139072">
        <ele>1682.567</ele>
        <time>2020-07-22T09:36:00Z</time>
      </trkpt>
      <trkpt lat="42.842392" lon="-0.139107">
        <ele>1682.290</ele>
        <time>2020-07-22T09:36:05Z</time>
      </trkpt>
      <trkpt lat="42.842347" lon="-0.139127">
        <ele>1682.496</ele>
        <time>2020-07-22T09:36:08Z</time>
      </trkpt>
      <trkpt lat="42.842293" lon="-0.139108">
        <ele>1682.952</ele>
        <time>2020-07-22T09:36:13Z</time>
      </trkpt>
      <trkpt lat="42.842246" lon="-0.139078">
        <ele>1684.611</ele>
        <time>2020-07-22T09:36:19Z</time>
      </trkpt>
      <trkpt lat="42.842198" lon="-0.139051">
        <ele>1683.465</ele>
        <time>2020-07-22T09:36:25Z</time>
      </trkpt>
      <trkpt lat="42.842160" lon="-0.139056">
        <ele>1683.435</ele>
        <time>2020-07-22T09:36:30Z</time>
      </trkpt>
      <trkpt lat="42.842124" lon="-0.139086">
        <ele>1684.586</ele>
        <time>2020-07-22T09:36:36Z</time>
      </trkpt>
      <trkpt lat="42.842080" lon="-0.139126">
        <ele>1682.114</ele>
        <time>2020-07-22T09:36:40Z</time>
      </trkpt>
      <trkpt lat="42.842030" lon="-0.139136">
        <ele>1684.208</ele>
        <time>2020-07-22T09:36:45Z</time>
      </trkpt>
      <trkpt lat="42.841980" lon="-0.139142">
        <ele>1683.478</ele>
        <time>2020-07-22T09:36:52Z</time>
      </trkpt>
      <trkpt lat="42.841938" lon="-0.139115">
        <ele>1684.726</ele>
        <time>2020-07-22T09:36:58Z</time>
      </trkpt>
      <trkpt lat="42.841889" lon="-0.139088">
        <ele>1686.419</ele>
        <time>2020-07-22T09:37:05Z</time>
      </trkpt>
      <trkpt lat="42.841848" lon="-0.139047">
        <ele>1685.312</ele>
        <time>2020-07-22T09:37:12Z</time>
      </trkpt>
      <trkpt lat="42.841797" lon="-0.139029">
        <ele>1685.378</ele>
        <time>2020-07-22T09:37:18Z</time>
      </trkpt>
      <trkpt lat="42.841752" lon="-0.139023">
        <ele>1686.114</ele>
        <time>2020-07-22T09:37:23Z</time>
      </trkpt>
      <trkpt lat="42.841706" lon="-0.138985">
        <ele>1686.673</ele>
        <time>2020-07-22T09:37:29Z</time>
      </trkpt>
      <trkpt lat="42.841680" lon="-0.138924">
        <ele>1687.317</ele>
        <time>2020-07-22T09:37:35Z</time>
      </trkpt>
      <trkpt lat="42.841636" lon="-0.138878">
        <ele>1686.431</ele>
        <time>2020-07-22T09:37:41Z</time>
      </trkpt>
      <trkpt lat="42.841583" lon="-0.138859">
        <ele>1686.661</ele>
        <time>2020-07-22T09:37:46Z</time>
      </trkpt>
      <trkpt lat="42.841536" lon="-0.138863">
        <ele>1686.507</ele>
        <time>2020-07-22T09:37:50Z</time>
      </trkpt>
      <trkpt lat="42.841482" lon="-0.138880">
        <ele>1685.408</ele>
        <time>2020-07-22T09:37:55Z</time>
      </trkpt>
      <trkpt lat="42.841439" lon="-0.138902">
        <ele>1685.128</ele>
        <time>2020-07-22T09:38:01Z</time>
      </trkpt>
      <trkpt lat="42.841383" lon="-0.138916">
        <ele>1687.296</ele>
        <time>2020-07-22T09:38:07Z</time>
      </trkpt>
      <trkpt lat="42.841331" lon="-0.138879">
        <ele>1687.929</ele>
        <time>2020-07-22T09:38:12Z</time>
      </trkpt>
      <trkpt lat="42.841287" lon="-0.138844">
        <ele>1688.292</ele>
        <time>2020-07-22T09:38:18Z</time>
      </trkpt>
      <trkpt lat="42.841247" lon="-0.138802">
        <ele>1690.058</ele>
        <time>2020-07-22T09:38:24Z</time>
      </trkpt>
      <trkpt lat="42.841209" lon="-0.138762">
        <ele>1691.464</ele>
        <time>2020-07-22T09:38:31Z</time>
      </trkpt>
      <trkpt lat="42.841186" lon="-0.138708">
        <ele>1691.243</ele>
        <time>2020-07-22T09:38:39Z</time>
      </trkpt>
      <trkpt lat="42.841142" lon="-0.138675">
        <ele>1693.077</ele>
        <time>2020-07-22T09:38:46Z</time>
      </trkpt>
      <trkpt lat="42.841108" lon="-0.138632">
        <ele>1693.045</ele>
        <time>2020-07-22T09:39:02Z</time>
      </trkpt>
      <trkpt lat="42.841065" lon="-0.138605">
        <ele>1698.647</ele>
        <time>2020-07-22T09:39:28Z</time>
      </trkpt>
      <trkpt lat="42.841030" lon="-0.138567">
        <ele>1699.511</ele>
        <time>2020-07-22T09:39:41Z</time>
      </trkpt>
      <trkpt lat="42.841009" lon="-0.138515">
        <ele>1702.308</ele>
        <time>2020-07-22T09:39:48Z</time>
      </trkpt>
      <trkpt lat="42.840964" lon="-0.138486">
        <ele>1701.399</ele>
        <time>2020-07-22T09:39:55Z</time>
      </trkpt>
      <trkpt lat="42.840916" lon="-0.138481">
        <ele>1701.137</ele>
        <time>2020-07-22T09:40:01Z</time>
      </trkpt>
      <trkpt lat="42.840863" lon="-0.138470">
        <ele>1703.050</ele>
        <time>2020-07-22T09:40:08Z</time>
      </trkpt>
      <trkpt lat="42.840803" lon="-0.138451">
        <ele>1701.623</ele>
        <time>2020-07-22T09:40:14Z</time>
      </trkpt>
      <trkpt lat="42.840747" lon="-0.138442">
        <ele>1702.099</ele>
        <time>2020-07-22T09:40:21Z</time>
      </trkpt>
      <trkpt lat="42.840697" lon="-0.138456">
        <ele>1701.985</ele>
        <time>2020-07-22T09:40:33Z</time>
      </trkpt>
      <trkpt lat="42.840641" lon="-0.138438">
        <ele>1701.234</ele>
        <time>2020-07-22T09:40:44Z</time>
      </trkpt>
      <trkpt lat="42.840599" lon="-0.138417">
        <ele>1700.118</ele>
        <time>2020-07-22T09:40:51Z</time>
      </trkpt>
      <trkpt lat="42.840544" lon="-0.138418">
        <ele>1699.782</ele>
        <time>2020-07-22T09:41:00Z</time>
      </trkpt>
      <trkpt lat="42.840494" lon="-0.138421">
        <ele>1698.943</ele>
        <time>2020-07-22T09:41:08Z</time>
      </trkpt>
      <trkpt lat="42.840454" lon="-0.138378">
        <ele>1698.617</ele>
        <time>2020-07-22T09:41:14Z</time>
      </trkpt>
      <trkpt lat="42.840403" lon="-0.138386">
        <ele>1697.808</ele>
        <time>2020-07-22T09:41:23Z</time>
      </trkpt>
      <trkpt lat="42.840382" lon="-0.138446">
        <ele>1697.293</ele>
        <time>2020-07-22T09:41:41Z</time>
      </trkpt>
      <trkpt lat="42.840337" lon="-0.138448">
        <ele>1694.321</ele>
        <time>2020-07-22T09:42:05Z</time>
      </trkpt>
      <trkpt lat="42.840284" lon="-0.138410">
        <ele>1694.324</ele>
        <time>2020-07-22T09:42:11Z</time>
      </trkpt>
      <trkpt lat="42.840237" lon="-0.138384">
        <ele>1693.357</ele>
        <time>2020-07-22T09:42:16Z</time>
      </trkpt>
      <trkpt lat="42.840190" lon="-0.138403">
        <ele>1693.123</ele>
        <time>2020-07-22T09:42:21Z</time>
      </trkpt>
      <trkpt lat="42.840143" lon="-0.138437">
        <ele>1692.969</ele>
        <time>2020-07-22T09:42:27Z</time>
      </trkpt>
      <trkpt lat="42.840097" lon="-0.138447">
        <ele>1691.698</ele>
        <time>2020-07-22T09:42:36Z</time>
      </trkpt>
      <trkpt lat="42.840053" lon="-0.138470">
        <ele>1691.022</ele>
        <time>2020-07-22T09:42:44Z</time>
      </trkpt>
      <trkpt lat="42.840023" lon="-0.138530">
        <ele>1691.365</ele>
        <time>2020-07-22T09:42:47Z</time>
      </trkpt>
      <trkpt lat="42.839972" lon="-0.138551">
        <ele>1689.168</ele>
        <time>2020-07-22T09:42:53Z</time>
      </trkpt>
      <trkpt lat="42.839920" lon="-0.138571">
        <ele>1690.914</ele>
        <time>2020-07-22T09:42:58Z</time>
      </trkpt>
      <trkpt lat="42.839883" lon="-0.138616">
        <ele>1691.108</ele>
        <time>2020-07-22T09:43:02Z</time>
      </trkpt>
      <trkpt lat="42.839832" lon="-0.138635">
        <ele>1691.331</ele>
        <time>2020-07-22T09:43:10Z</time>
      </trkpt>
      <trkpt lat="42.839781" lon="-0.138653">
        <ele>1692.269</ele>
        <time>2020-07-22T09:43:17Z</time>
      </trkpt>
      <trkpt lat="42.839733" lon="-0.138647">
        <ele>1691.882</ele>
        <time>2020-07-22T09:43:23Z</time>
      </trkpt>
      <trkpt lat="42.839679" lon="-0.138658">
        <ele>1692.215</ele>
        <time>2020-07-22T09:43:29Z</time>
      </trkpt>
      <trkpt lat="42.839630" lon="-0.138659">
        <ele>1693.361</ele>
        <time>2020-07-22T09:43:36Z</time>
      </trkpt>
      <trkpt lat="42.839576" lon="-0.138656">
        <ele>1693.227</ele>
        <time>2020-07-22T09:43:40Z</time>
      </trkpt>
      <trkpt lat="42.839527" lon="-0.138648">
        <ele>1693.496</ele>
        <time>2020-07-22T09:43:45Z</time>
      </trkpt>
      <trkpt lat="42.839482" lon="-0.138635">
        <ele>1695.490</ele>
        <time>2020-07-22T09:43:52Z</time>
      </trkpt>
      <trkpt lat="42.839435" lon="-0.138624">
        <ele>1695.548</ele>
        <time>2020-07-22T09:43:56Z</time>
      </trkpt>
      <trkpt lat="42.839385" lon="-0.138647">
        <ele>1696.161</ele>
        <time>2020-07-22T09:44:03Z</time>
      </trkpt>
      <trkpt lat="42.839341" lon="-0.138666">
        <ele>1697.217</ele>
        <time>2020-07-22T09:44:09Z</time>
      </trkpt>
      <trkpt lat="42.839296" lon="-0.138687">
        <ele>1697.008</ele>
        <time>2020-07-22T09:44:14Z</time>
      </trkpt>
      <trkpt lat="42.839248" lon="-0.138721">
        <ele>1696.399</ele>
        <time>2020-07-22T09:44:20Z</time>
      </trkpt>
      <trkpt lat="42.839220" lon="-0.138784">
        <ele>1695.937</ele>
        <time>2020-07-22T09:44:28Z</time>
      </trkpt>
      <trkpt lat="42.839185" lon="-0.138826">
        <ele>1695.940</ele>
        <time>2020-07-22T09:44:35Z</time>
      </trkpt>
      <trkpt lat="42.839147" lon="-0.138859">
        <ele>1694.923</ele>
        <time>2020-07-22T09:44:41Z</time>
      </trkpt>
      <trkpt lat="42.839098" lon="-0.138852">
        <ele>1695.969</ele>
        <time>2020-07-22T09:44:47Z</time>
      </trkpt>
      <trkpt lat="42.839049" lon="-0.138832">
        <ele>1694.615</ele>
        <time>2020-07-22T09:44:53Z</time>
      </trkpt>
      <trkpt lat="42.838999" lon="-0.138833">
        <ele>1694.194</ele>
        <time>2020-07-22T09:44:57Z</time>
      </trkpt>
      <trkpt lat="42.838942" lon="-0.138829">
        <ele>1696.228</ele>
        <time>2020-07-22T09:45:03Z</time>
      </trkpt>
      <trkpt lat="42.838900" lon="-0.138803">
        <ele>1695.771</ele>
        <time>2020-07-22T09:45:07Z</time>
      </trkpt>
      <trkpt lat="42.838856" lon="-0.138763">
        <ele>1695.641</ele>
        <time>2020-07-22T09:45:12Z</time>
      </trkpt>
      <trkpt lat="42.838805" lon="-0.138744">
        <ele>1696.015</ele>
        <time>2020-07-22T09:45:19Z</time>
      </trkpt>
      <trkpt lat="42.838753" lon="-0.138738">
        <ele>1696.308</ele>
        <time>2020-07-22T09:45:29Z</time>
      </trkpt>
      <trkpt lat="42.838703" lon="-0.138721">
        <ele>1695.722</ele>
        <time>2020-07-22T09:45:34Z</time>
      </trkpt>
      <trkpt lat="42.838651" lon="-0.138720">
        <ele>1696.930</ele>
        <time>2020-07-22T09:45:41Z</time>
      </trkpt>
      <trkpt lat="42.838601" lon="-0.138704">
        <ele>1697.793</ele>
        <time>2020-07-22T09:45:50Z</time>
      </trkpt>
      <trkpt lat="42.838548" lon="-0.138702">
        <ele>1697.186</ele>
        <time>2020-07-22T09:45:56Z</time>
      </trkpt>
      <trkpt lat="42.838499" lon="-0.138669">
        <ele>1698.652</ele>
        <time>2020-07-22T09:46:05Z</time>
      </trkpt>
      <trkpt lat="42.838448" lon="-0.138647">
        <ele>1699.358</ele>
        <time>2020-07-22T09:46:14Z</time>
      </trkpt>
      <trkpt lat="42.838399" lon="-0.138621">
        <ele>1699.837</ele>
        <time>2020-07-22T09:46:20Z</time>
      </trkpt>
      <trkpt lat="42.838347" lon="-0.138621">
        <ele>1701.631</ele>
        <time>2020-07-22T09:46:28Z</time>
      </trkpt>
      <trkpt lat="42.838303" lon="-0.138601">
        <ele>1702.519</ele>
        <time>2020-07-22T09:46:33Z</time>
      </trkpt>
      <trkpt lat="42.838255" lon="-0.138594">
        <ele>1702.709</ele>
        <time>2020-07-22T09:46:38Z</time>
      </trkpt>
      <trkpt lat="42.838210" lon="-0.138582">
        <ele>1704.119</ele>
        <time>2020-07-22T09:46:45Z</time>
      </trkpt>
      <trkpt lat="42.838161" lon="-0.138570">
        <ele>1703.908</ele>
        <time>2020-07-22T09:46:52Z</time>
      </trkpt>
      <trkpt lat="42.838119" lon="-0.138537">
        <ele>1703.816</ele>
        <time>2020-07-22T09:46:56Z</time>
      </trkpt>
      <trkpt lat="42.838074" lon="-0.138514">
        <ele>1704.784</ele>
        <time>2020-07-22T09:47:02Z</time>
      </trkpt>
      <trkpt lat="42.838032" lon="-0.138484">
        <ele>1704.427</ele>
        <time>2020-07-22T09:47:07Z</time>
      </trkpt>
      <trkpt lat="42.837999" lon="-0.138438">
        <ele>1702.860</ele>
        <time>2020-07-22T09:47:12Z</time>
      </trkpt>
      <trkpt lat="42.837958" lon="-0.138411">
        <ele>1704.336</ele>
        <time>2020-07-22T09:47:21Z</time>
      </trkpt>
      <trkpt lat="42.837911" lon="-0.138415">
        <ele>1704.472</ele>
        <time>2020-07-22T09:47:26Z</time>
      </trkpt>
      <trkpt lat="42.837856" lon="-0.138402">
        <ele>1705.281</ele>
        <time>2020-07-22T09:47:34Z</time>
      </trkpt>
      <trkpt lat="42.837801" lon="-0.138377">
        <ele>1704.785</ele>
        <time>2020-07-22T09:47:38Z</time>
      </trkpt>
      <trkpt lat="42.837764" lon="-0.138323">
        <ele>1705.745</ele>
        <time>2020-07-22T09:47:45Z</time>
      </trkpt>
      <trkpt lat="42.837713" lon="-0.138319">
        <ele>1706.347</ele>
        <time>2020-07-22T09:47:54Z</time>
      </trkpt>
      <trkpt lat="42.837659" lon="-0.138301">
        <ele>1707.611</ele>
        <time>2020-07-22T09:48:01Z</time>
      </trkpt>
      <trkpt lat="42.837606" lon="-0.138283">
        <ele>1707.608</ele>
        <time>2020-07-22T09:48:08Z</time>
      </trkpt>
      <trkpt lat="42.837553" lon="-0.138283">
        <ele>1708.869</ele>
        <time>2020-07-22T09:48:19Z</time>
      </trkpt>
      <trkpt lat="42.837505" lon="-0.138279">
        <ele>1708.767</ele>
        <time>2020-07-22T09:48:25Z</time>
      </trkpt>
      <trkpt lat="42.837453" lon="-0.138286">
        <ele>1709.980</ele>
        <time>2020-07-22T09:48:32Z</time>
      </trkpt>
      <trkpt lat="42.837405" lon="-0.138273">
        <ele>1708.833</ele>
        <time>2020-07-22T09:48:39Z</time>
      </trkpt>
      <trkpt lat="42.837353" lon="-0.138299">
        <ele>1709.719</ele>
        <time>2020-07-22T09:48:47Z</time>
      </trkpt>
      <trkpt lat="42.837306" lon="-0.138323">
        <ele>1709.125</ele>
        <time>2020-07-22T09:48:54Z</time>
      </trkpt>
      <trkpt lat="42.837255" lon="-0.138333">
        <ele>1710.594</ele>
        <time>2020-07-22T09:49:02Z</time>
      </trkpt>
      <trkpt lat="42.837204" lon="-0.138315">
        <ele>1711.528</ele>
        <time>2020-07-22T09:49:07Z</time>
      </trkpt>
      <trkpt lat="42.837161" lon="-0.138320">
        <ele>1710.592</ele>
        <time>2020-07-22T09:49:14Z</time>
      </trkpt>
      <trkpt lat="42.837117" lon="-0.138343">
        <ele>1711.573</ele>
        <time>2020-07-22T09:49:20Z</time>
      </trkpt>
      <trkpt lat="42.837068" lon="-0.138344">
        <ele>1711.620</ele>
        <time>2020-07-22T09:49:25Z</time>
      </trkpt>
      <trkpt lat="42.837022" lon="-0.138340">
        <ele>1711.808</ele>
        <time>2020-07-22T09:49:30Z</time>
      </trkpt>
      <trkpt lat="42.836977" lon="-0.138329">
        <ele>1711.954</ele>
        <time>2020-07-22T09:49:34Z</time>
      </trkpt>
      <trkpt lat="42.836927" lon="-0.138340">
        <ele>1713.032</ele>
        <time>2020-07-22T09:49:42Z</time>
      </trkpt>
      <trkpt lat="42.836878" lon="-0.138339">
        <ele>1713.995</ele>
        <time>2020-07-22T09:49:47Z</time>
      </trkpt>
      <trkpt lat="42.836826" lon="-0.138335">
        <ele>1713.588</ele>
        <time>2020-07-22T09:49:53Z</time>
      </trkpt>
      <trkpt lat="42.836781" lon="-0.138350">
        <ele>1715.464</ele>
        <time>2020-07-22T09:49:57Z</time>
      </trkpt>
      <trkpt lat="42.836731" lon="-0.138374">
        <ele>1715.670</ele>
        <time>2020-07-22T09:50:02Z</time>
      </trkpt>
      <trkpt lat="42.836682" lon="-0.138388">
        <ele>1714.679</ele>
        <time>2020-07-22T09:50:07Z</time>
      </trkpt>
      <trkpt lat="42.836632" lon="-0.138388">
        <ele>1715.383</ele>
        <time>2020-07-22T09:50:12Z</time>
      </trkpt>
      <trkpt lat="42.836581" lon="-0.138378">
        <ele>1712.535</ele>
        <time>2020-07-22T09:50:16Z</time>
      </trkpt>
      <trkpt lat="42.836530" lon="-0.138393">
        <ele>1715.886</ele>
        <time>2020-07-22T09:50:23Z</time>
      </trkpt>
      <trkpt lat="42.836481" lon="-0.138405">
        <ele>1713.814</ele>
        <time>2020-07-22T09:50:30Z</time>
      </trkpt>
      <trkpt lat="42.836435" lon="-0.138430">
        <ele>1715.608</ele>
        <time>2020-07-22T09:50:35Z</time>
      </trkpt>
      <trkpt lat="42.836390" lon="-0.138467">
        <ele>1714.728</ele>
        <time>2020-07-22T09:50:43Z</time>
      </trkpt>
      <trkpt lat="42.836346" lon="-0.138491">
        <ele>1715.526</ele>
        <time>2020-07-22T09:50:47Z</time>
      </trkpt>
      <trkpt lat="42.836299" lon="-0.138490">
        <ele>1715.029</ele>
        <time>2020-07-22T09:50:52Z</time>
      </trkpt>
      <trkpt lat="42.836256" lon="-0.138524">
        <ele>1716.582</ele>
        <time>2020-07-22T09:50:58Z</time>
      </trkpt>
      <trkpt lat="42.836226" lon="-0.138574">
        <ele>1717.838</ele>
        <time>2020-07-22T09:51:06Z</time>
      </trkpt>
      <trkpt lat="42.836177" lon="-0.138609">
        <ele>1718.064</ele>
        <time>2020-07-22T09:51:12Z</time>
      </trkpt>
      <trkpt lat="42.836135" lon="-0.138652">
        <ele>1718.373</ele>
        <time>2020-07-22T09:51:19Z</time>
      </trkpt>
      <trkpt lat="42.836089" lon="-0.138662">
        <ele>1718.187</ele>
        <time>2020-07-22T09:51:25Z</time>
      </trkpt>
      <trkpt lat="42.836038" lon="-0.138666">
        <ele>1718.127</ele>
        <time>2020-07-22T09:51:30Z</time>
      </trkpt>
      <trkpt lat="42.835989" lon="-0.138658">
        <ele>1718.268</ele>
        <time>2020-07-22T09:51:35Z</time>
      </trkpt>
      <trkpt lat="42.835943" lon="-0.138669">
        <ele>1719.114</ele>
        <time>2020-07-22T09:51:39Z</time>
      </trkpt>
      <trkpt lat="42.835893" lon="-0.138675">
        <ele>1719.708</ele>
        <time>2020-07-22T09:51:47Z</time>
      </trkpt>
      <trkpt lat="42.835837" lon="-0.138678">
        <ele>1720.367</ele>
        <time>2020-07-22T09:51:55Z</time>
      </trkpt>
      <trkpt lat="42.835791" lon="-0.138691">
        <ele>1720.715</ele>
        <time>2020-07-22T09:51:59Z</time>
      </trkpt>
      <trkpt lat="42.835742" lon="-0.138669">
        <ele>1720.758</ele>
        <time>2020-07-22T09:52:06Z</time>
      </trkpt>
      <trkpt lat="42.835700" lon="-0.138635">
        <ele>1721.761</ele>
        <time>2020-07-22T09:52:12Z</time>
      </trkpt>
      <trkpt lat="42.835648" lon="-0.138634">
        <ele>1721.377</ele>
        <time>2020-07-22T09:52:18Z</time>
      </trkpt>
      <trkpt lat="42.835600" lon="-0.138636">
        <ele>1720.973</ele>
        <time>2020-07-22T09:52:24Z</time>
      </trkpt>
      <trkpt lat="42.835549" lon="-0.138650">
        <ele>1720.182</ele>
        <time>2020-07-22T09:52:30Z</time>
      </trkpt>
      <trkpt lat="42.835505" lon="-0.138671">
        <ele>1719.786</ele>
        <time>2020-07-22T09:52:36Z</time>
      </trkpt>
      <trkpt lat="42.835456" lon="-0.138684">
        <ele>1721.849</ele>
        <time>2020-07-22T09:52:40Z</time>
      </trkpt>
      <trkpt lat="42.835399" lon="-0.138695">
        <ele>1721.502</ele>
        <time>2020-07-22T09:52:46Z</time>
      </trkpt>
      <trkpt lat="42.835351" lon="-0.138705">
        <ele>1721.122</ele>
        <time>2020-07-22T09:52:53Z</time>
      </trkpt>
      <trkpt lat="42.835308" lon="-0.138731">
        <ele>1721.808</ele>
        <time>2020-07-22T09:52:57Z</time>
      </trkpt>
      <trkpt lat="42.835264" lon="-0.138757">
        <ele>1721.979</ele>
        <time>2020-07-22T09:53:03Z</time>
      </trkpt>
      <trkpt lat="42.835217" lon="-0.138776">
        <ele>1722.297</ele>
        <time>2020-07-22T09:53:07Z</time>
      </trkpt>
      <trkpt lat="42.835168" lon="-0.138800">
        <ele>1722.450</ele>
        <time>2020-07-22T09:53:12Z</time>
      </trkpt>
      <trkpt lat="42.835130" lon="-0.138837">
        <ele>1720.953</ele>
        <time>2020-07-22T09:53:17Z</time>
      </trkpt>
      <trkpt lat="42.835086" lon="-0.138879">
        <ele>1723.059</ele>
        <time>2020-07-22T09:53:22Z</time>
      </trkpt>
      <trkpt lat="42.835055" lon="-0.138926">
        <ele>1722.545</ele>
        <time>2020-07-22T09:53:29Z</time>
      </trkpt>
      <trkpt lat="42.835007" lon="-0.138959">
        <ele>1722.974</ele>
        <time>2020-07-22T09:53:34Z</time>
      </trkpt>
      <trkpt lat="42.834950" lon="-0.138969">
        <ele>1723.728</ele>
        <time>2020-07-22T09:53:39Z</time>
      </trkpt>
      <trkpt lat="42.834895" lon="-0.138977">
        <ele>1723.744</ele>
        <time>2020-07-22T09:53:45Z</time>
      </trkpt>
      <trkpt lat="42.834850" lon="-0.139003">
        <ele>1724.505</ele>
        <time>2020-07-22T09:53:54Z</time>
      </trkpt>
      <trkpt lat="42.834821" lon="-0.139055">
        <ele>1723.415</ele>
        <time>2020-07-22T09:54:19Z</time>
      </trkpt>
      <trkpt lat="42.834783" lon="-0.139079">
        <ele>1724.308</ele>
        <time>2020-07-22T09:54:24Z</time>
      </trkpt>
      <trkpt lat="42.834738" lon="-0.139115">
        <ele>1725.149</ele>
        <time>2020-07-22T09:54:28Z</time>
      </trkpt>
      <trkpt lat="42.834692" lon="-0.139150">
        <ele>1725.787</ele>
        <time>2020-07-22T09:54:33Z</time>
      </trkpt>
      <trkpt lat="42.834646" lon="-0.139155">
        <ele>1725.450</ele>
        <time>2020-07-22T09:54:39Z</time>
      </trkpt>
      <trkpt lat="42.834600" lon="-0.139190">
        <ele>1725.123</ele>
        <time>2020-07-22T09:54:44Z</time>
      </trkpt>
      <trkpt lat="42.834558" lon="-0.139197">
        <ele>1726.589</ele>
        <time>2020-07-22T09:54:48Z</time>
      </trkpt>
      <trkpt lat="42.834497" lon="-0.139176">
        <ele>1725.585</ele>
        <time>2020-07-22T09:54:53Z</time>
      </trkpt>
      <trkpt lat="42.834445" lon="-0.139175">
        <ele>1725.394</ele>
        <time>2020-07-22T09:55:00Z</time>
      </trkpt>
      <trkpt lat="42.834389" lon="-0.139167">
        <ele>1725.388</ele>
        <time>2020-07-22T09:55:04Z</time>
      </trkpt>
      <trkpt lat="42.834336" lon="-0.139148">
        <ele>1725.154</ele>
        <time>2020-07-22T09:55:10Z</time>
      </trkpt>
      <trkpt lat="42.834286" lon="-0.139131">
        <ele>1725.956</ele>
        <time>2020-07-22T09:55:15Z</time>
      </trkpt>
      <trkpt lat="42.834244" lon="-0.139105">
        <ele>1726.111</ele>
        <time>2020-07-22T09:55:20Z</time>
      </trkpt>
      <trkpt lat="42.834188" lon="-0.139091">
        <ele>1725.308</ele>
        <time>2020-07-22T09:55:24Z</time>
      </trkpt>
      <trkpt lat="42.834140" lon="-0.139071">
        <ele>1725.930</ele>
        <time>2020-07-22T09:55:28Z</time>
      </trkpt>
      <trkpt lat="42.834098" lon="-0.139050">
        <ele>1726.458</ele>
        <time>2020-07-22T09:55:34Z</time>
      </trkpt>
      <trkpt lat="42.834053" lon="-0.139025">
        <ele>1725.281</ele>
        <time>2020-07-22T09:55:38Z</time>
      </trkpt>
      <trkpt lat="42.834013" lon="-0.138995">
        <ele>1726.354</ele>
        <time>2020-07-22T09:55:42Z</time>
      </trkpt>
      <trkpt lat="42.833983" lon="-0.138947">
        <ele>1724.760</ele>
        <time>2020-07-22T09:55:53Z</time>
      </trkpt>
      <trkpt lat="42.833952" lon="-0.138893">
        <ele>1725.446</ele>
        <time>2020-07-22T09:56:06Z</time>
      </trkpt>
      <trkpt lat="42.833925" lon="-0.138889">
        <ele>1724.585</ele>
        <time>2020-07-22T09:56:55Z</time>
      </trkpt>
      <trkpt lat="42.833902" lon="-0.138851">
        <ele>1724.469</ele>
        <time>2020-07-22T09:57:04Z</time>
      </trkpt>
      <trkpt lat="42.833889" lon="-0.138921">
        <ele>1723.923</ele>
        <time>2020-07-22T10:02:33Z</time>
      </trkpt>
      <trkpt lat="42.833838" lon="-0.138982">
        <ele>1722.283</ele>
        <time>2020-07-22T10:09:29Z</time>
      </trkpt>
      <trkpt lat="42.833887" lon="-0.138911">
        <ele>1723.611</ele>
        <time>2020-07-22T10:54:59Z</time>
      </trkpt>
      <trkpt lat="42.833907" lon="-0.138849">
        <ele>1723.708</ele>
        <time>2020-07-22T10:56:08Z</time>
      </trkpt>
      <trkpt lat="42.833943" lon="-0.138899">
        <ele>1723.567</ele>
        <time>2020-07-22T10:56:13Z</time>
      </trkpt>
      <trkpt lat="42.833985" lon="-0.138934">
        <ele>1723.615</ele>
        <time>2020-07-22T10:56:17Z</time>
      </trkpt>
      <trkpt lat="42.834009" lon="-0.138986">
        <ele>1725.268</ele>
        <time>2020-07-22T10:56:21Z</time>
      </trkpt>
      <trkpt lat="42.834059" lon="-0.139016">
        <ele>1724.661</ele>
        <time>2020-07-22T10:56:27Z</time>
      </trkpt>
      <trkpt lat="42.834099" lon="-0.139065">
        <ele>1723.447</ele>
        <time>2020-07-22T10:57:22Z</time>
      </trkpt>
      <trkpt lat="42.834147" lon="-0.139088">
        <ele>1724.543</ele>
        <time>2020-07-22T10:57:26Z</time>
      </trkpt>
      <trkpt lat="42.834192" lon="-0.139100">
        <ele>1725.592</ele>
        <time>2020-07-22T10:57:29Z</time>
      </trkpt>
      <trkpt lat="42.834249" lon="-0.139111">
        <ele>1725.626</ele>
        <time>2020-07-22T10:57:32Z</time>
      </trkpt>
      <trkpt lat="42.834296" lon="-0.139116">
        <ele>1723.226</ele>
        <time>2020-07-22T10:57:36Z</time>
      </trkpt>
      <trkpt lat="42.834347" lon="-0.139144">
        <ele>1724.047</ele>
        <time>2020-07-22T10:57:40Z</time>
      </trkpt>
      <trkpt lat="42.834405" lon="-0.139154">
        <ele>1724.711</ele>
        <time>2020-07-22T10:57:45Z</time>
      </trkpt>
      <trkpt lat="42.834459" lon="-0.139173">
        <ele>1725.208</ele>
        <time>2020-07-22T10:57:49Z</time>
      </trkpt>
      <trkpt lat="42.834520" lon="-0.139192">
        <ele>1724.637</ele>
        <time>2020-07-22T10:57:54Z</time>
      </trkpt>
      <trkpt lat="42.834565" lon="-0.139209">
        <ele>1724.545</ele>
        <time>2020-07-22T10:57:59Z</time>
      </trkpt>
      <trkpt lat="42.834600" lon="-0.139257">
        <ele>1724.758</ele>
        <time>2020-07-22T10:58:07Z</time>
      </trkpt>
      <trkpt lat="42.834606" lon="-0.139321">
        <ele>1725.521</ele>
        <time>2020-07-22T10:58:12Z</time>
      </trkpt>
      <trkpt lat="42.834631" lon="-0.139372">
        <ele>1726.887</ele>
        <time>2020-07-22T10:58:17Z</time>
      </trkpt>
      <trkpt lat="42.834660" lon="-0.139429">
        <ele>1726.313</ele>
        <time>2020-07-22T10:58:22Z</time>
      </trkpt>
      <trkpt lat="42.834696" lon="-0.139479">
        <ele>1726.252</ele>
        <time>2020-07-22T10:58:26Z</time>
      </trkpt>
      <trkpt lat="42.834736" lon="-0.139515">
        <ele>1725.366</ele>
        <time>2020-07-22T10:58:31Z</time>
      </trkpt>
      <trkpt lat="42.834773" lon="-0.139570">
        <ele>1725.822</ele>
        <time>2020-07-22T10:58:37Z</time>
      </trkpt>
      <trkpt lat="42.834805" lon="-0.139624">
        <ele>1725.362</ele>
        <time>2020-07-22T10:58:43Z</time>
      </trkpt>
      <trkpt lat="42.834826" lon="-0.139683">
        <ele>1725.908</ele>
        <time>2020-07-22T10:58:48Z</time>
      </trkpt>
      <trkpt lat="42.834836" lon="-0.139756">
        <ele>1725.208</ele>
        <time>2020-07-22T10:58:55Z</time>
      </trkpt>
      <trkpt lat="42.834863" lon="-0.139817">
        <ele>1726.167</ele>
        <time>2020-07-22T10:59:01Z</time>
      </trkpt>
      <trkpt lat="42.834890" lon="-0.139876">
        <ele>1724.065</ele>
        <time>2020-07-22T10:59:06Z</time>
      </trkpt>
      <trkpt lat="42.834927" lon="-0.139929">
        <ele>1724.988</ele>
        <time>2020-07-22T10:59:11Z</time>
      </trkpt>
      <trkpt lat="42.834961" lon="-0.139971">
        <ele>1724.321</ele>
        <time>2020-07-22T10:59:16Z</time>
      </trkpt>
      <trkpt lat="42.834994" lon="-0.140016">
        <ele>1725.017</ele>
        <time>2020-07-22T10:59:20Z</time>
      </trkpt>
      <trkpt lat="42.835033" lon="-0.140065">
        <ele>1724.943</ele>
        <time>2020-07-22T10:59:26Z</time>
      </trkpt>
      <trkpt lat="42.835071" lon="-0.140113">
        <ele>1723.512</ele>
        <time>2020-07-22T10:59:31Z</time>
      </trkpt>
      <trkpt lat="42.835096" lon="-0.140172">
        <ele>1723.226</ele>
        <time>2020-07-22T10:59:35Z</time>
      </trkpt>
      <trkpt lat="42.835123" lon="-0.140228">
        <ele>1722.017</ele>
        <time>2020-07-22T10:59:40Z</time>
      </trkpt>
      <trkpt lat="42.835143" lon="-0.140289">
        <ele>1722.487</ele>
        <time>2020-07-22T10:59:46Z</time>
      </trkpt>
      <trkpt lat="42.835134" lon="-0.140354">
        <ele>1723.315</ele>
        <time>2020-07-22T10:59:50Z</time>
      </trkpt>
      <trkpt lat="42.835149" lon="-0.140423">
        <ele>1722.908</ele>
        <time>2020-07-22T10:59:55Z</time>
      </trkpt>
      <trkpt lat="42.835180" lon="-0.140475">
        <ele>1722.696</ele>
        <time>2020-07-22T11:00:00Z</time>
      </trkpt>
      <trkpt lat="42.835218" lon="-0.140521">
        <ele>1722.974</ele>
        <time>2020-07-22T11:00:04Z</time>
      </trkpt>
      <trkpt lat="42.835240" lon="-0.140581">
        <ele>1723.397</ele>
        <time>2020-07-22T11:00:11Z</time>
      </trkpt>
      <trkpt lat="42.835218" lon="-0.140654">
        <ele>1721.980</ele>
        <time>2020-07-22T11:00:16Z</time>
      </trkpt>
      <trkpt lat="42.835190" lon="-0.140660">
        <ele>1723.076</ele>
        <time>2020-07-22T11:00:21Z</time>
      </trkpt>
      <trkpt lat="42.835147" lon="-0.140658">
        <ele>1724.092</ele>
        <time>2020-07-22T11:01:12Z</time>
      </trkpt>
      <trkpt lat="42.835111" lon="-0.140703">
        <ele>1723.411</ele>
        <time>2020-07-22T11:01:18Z</time>
      </trkpt>
      <trkpt lat="42.835086" lon="-0.140769">
        <ele>1724.745</ele>
        <time>2020-07-22T11:01:24Z</time>
      </trkpt>
      <trkpt lat="42.835058" lon="-0.140844">
        <ele>1724.448</ele>
        <time>2020-07-22T11:01:31Z</time>
      </trkpt>
      <trkpt lat="42.835040" lon="-0.140915">
        <ele>1722.661</ele>
        <time>2020-07-22T11:01:37Z</time>
      </trkpt>
      <trkpt lat="42.835017" lon="-0.140985">
        <ele>1725.017</ele>
        <time>2020-07-22T11:01:43Z</time>
      </trkpt>
      <trkpt lat="42.834995" lon="-0.141044">
        <ele>1725.108</ele>
        <time>2020-07-22T11:01:49Z</time>
      </trkpt>
      <trkpt lat="42.834970" lon="-0.141097">
        <ele>1725.839</ele>
        <time>2020-07-22T11:01:54Z</time>
      </trkpt>
      <trkpt lat="42.834937" lon="-0.141167">
        <ele>1726.227</ele>
        <time>2020-07-22T11:02:01Z</time>
      </trkpt>
      <trkpt lat="42.834902" lon="-0.141220">
        <ele>1725.090</ele>
        <time>2020-07-22T11:02:07Z</time>
      </trkpt>
      <trkpt lat="42.834859" lon="-0.141265">
        <ele>1724.493</ele>
        <time>2020-07-22T11:02:13Z</time>
      </trkpt>
      <trkpt lat="42.834812" lon="-0.141295">
        <ele>1726.769</ele>
        <time>2020-07-22T11:02:19Z</time>
      </trkpt>
      <trkpt lat="42.834763" lon="-0.141312">
        <ele>1727.265</ele>
        <time>2020-07-22T11:02:24Z</time>
      </trkpt>
      <trkpt lat="42.834717" lon="-0.141310">
        <ele>1728.134</ele>
        <time>2020-07-22T11:02:36Z</time>
      </trkpt>
      <trkpt lat="42.834670" lon="-0.141329">
        <ele>1728.048</ele>
        <time>2020-07-22T11:02:41Z</time>
      </trkpt>
      <trkpt lat="42.834629" lon="-0.141354">
        <ele>1728.654</ele>
        <time>2020-07-22T11:02:44Z</time>
      </trkpt>
      <trkpt lat="42.834587" lon="-0.141377">
        <ele>1727.956</ele>
        <time>2020-07-22T11:02:48Z</time>
      </trkpt>
      <trkpt lat="42.834544" lon="-0.141398">
        <ele>1727.111</ele>
        <time>2020-07-22T11:02:51Z</time>
      </trkpt>
      <trkpt lat="42.834494" lon="-0.141426">
        <ele>1726.008</ele>
        <time>2020-07-22T11:02:57Z</time>
      </trkpt>
      <trkpt lat="42.834463" lon="-0.141485">
        <ele>1726.880</ele>
        <time>2020-07-22T11:03:00Z</time>
      </trkpt>
      <trkpt lat="42.834432" lon="-0.141529">
        <ele>1728.228</ele>
        <time>2020-07-22T11:03:05Z</time>
      </trkpt>
      <trkpt lat="42.834378" lon="-0.141550">
        <ele>1727.761</ele>
        <time>2020-07-22T11:03:10Z</time>
      </trkpt>
      <trkpt lat="42.834330" lon="-0.141571">
        <ele>1727.014</ele>
        <time>2020-07-22T11:03:15Z</time>
      </trkpt>
      <trkpt lat="42.834269" lon="-0.141592">
        <ele>1725.810</ele>
        <time>2020-07-22T11:03:21Z</time>
      </trkpt>
      <trkpt lat="42.834222" lon="-0.141594">
        <ele>1727.386</ele>
        <time>2020-07-22T11:03:26Z</time>
      </trkpt>
      <trkpt lat="42.834173" lon="-0.141613">
        <ele>1727.135</ele>
        <time>2020-07-22T11:03:31Z</time>
      </trkpt>
      <trkpt lat="42.834116" lon="-0.141594">
        <ele>1728.169</ele>
        <time>2020-07-22T11:03:39Z</time>
      </trkpt>
      <trkpt lat="42.834065" lon="-0.141622">
        <ele>1727.718</ele>
        <time>2020-07-22T11:03:46Z</time>
      </trkpt>
      <trkpt lat="42.834024" lon="-0.141647">
        <ele>1727.398</ele>
        <time>2020-07-22T11:03:52Z</time>
      </trkpt>
      <trkpt lat="42.833988" lon="-0.141698">
        <ele>1727.617</ele>
        <time>2020-07-22T11:04:18Z</time>
      </trkpt>
      <trkpt lat="42.833932" lon="-0.141702">
        <ele>1728.908</ele>
        <time>2020-07-22T11:04:24Z</time>
      </trkpt>
      <trkpt lat="42.833878" lon="-0.141717">
        <ele>1727.466</ele>
        <time>2020-07-22T11:04:29Z</time>
      </trkpt>
      <trkpt lat="42.833821" lon="-0.141719">
        <ele>1726.394</ele>
        <time>2020-07-22T11:04:34Z</time>
      </trkpt>
      <trkpt lat="42.833773" lon="-0.141739">
        <ele>1728.347</ele>
        <time>2020-07-22T11:04:38Z</time>
      </trkpt>
      <trkpt lat="42.833725" lon="-0.141770">
        <ele>1727.440</ele>
        <time>2020-07-22T11:04:44Z</time>
      </trkpt>
      <trkpt lat="42.833681" lon="-0.141806">
        <ele>1727.256</ele>
        <time>2020-07-22T11:04:49Z</time>
      </trkpt>
      <trkpt lat="42.833633" lon="-0.141797">
        <ele>1726.712</ele>
        <time>2020-07-22T11:04:57Z</time>
      </trkpt>
      <trkpt lat="42.833582" lon="-0.141813">
        <ele>1725.931</ele>
        <time>2020-07-22T11:05:02Z</time>
      </trkpt>
      <trkpt lat="42.833536" lon="-0.141822">
        <ele>1724.765</ele>
        <time>2020-07-22T11:05:05Z</time>
      </trkpt>
      <trkpt lat="42.833488" lon="-0.141815">
        <ele>1728.362</ele>
        <time>2020-07-22T11:05:13Z</time>
      </trkpt>
      <trkpt lat="42.833434" lon="-0.141820">
        <ele>1728.683</ele>
        <time>2020-07-22T11:05:20Z</time>
      </trkpt>
      <trkpt lat="42.833384" lon="-0.141792">
        <ele>1728.011</ele>
        <time>2020-07-22T11:05:24Z</time>
      </trkpt>
      <trkpt lat="42.833331" lon="-0.141779">
        <ele>1727.208</ele>
        <time>2020-07-22T11:05:31Z</time>
      </trkpt>
      <trkpt lat="42.833284" lon="-0.141759">
        <ele>1726.351</ele>
        <time>2020-07-22T11:05:37Z</time>
      </trkpt>
      <trkpt lat="42.833234" lon="-0.141729">
        <ele>1727.769</ele>
        <time>2020-07-22T11:05:42Z</time>
      </trkpt>
      <trkpt lat="42.833185" lon="-0.141703">
        <ele>1727.812</ele>
        <time>2020-07-22T11:05:48Z</time>
      </trkpt>
      <trkpt lat="42.833143" lon="-0.141662">
        <ele>1726.245</ele>
        <time>2020-07-22T11:05:55Z</time>
      </trkpt>
      <trkpt lat="42.833093" lon="-0.141644">
        <ele>1727.471</ele>
        <time>2020-07-22T11:06:02Z</time>
      </trkpt>
      <trkpt lat="42.833047" lon="-0.141654">
        <ele>1727.647</ele>
        <time>2020-07-22T11:06:05Z</time>
      </trkpt>
      <trkpt lat="42.832995" lon="-0.141662">
        <ele>1727.116</ele>
        <time>2020-07-22T11:06:11Z</time>
      </trkpt>
      <trkpt lat="42.832944" lon="-0.141662">
        <ele>1726.760</ele>
        <time>2020-07-22T11:06:16Z</time>
      </trkpt>
      <trkpt lat="42.832892" lon="-0.141673">
        <ele>1727.119</ele>
        <time>2020-07-22T11:06:21Z</time>
      </trkpt>
      <trkpt lat="42.832839" lon="-0.141695">
        <ele>1727.609</ele>
        <time>2020-07-22T11:06:26Z</time>
      </trkpt>
      <trkpt lat="42.832787" lon="-0.141703">
        <ele>1727.419</ele>
        <time>2020-07-22T11:06:31Z</time>
      </trkpt>
      <trkpt lat="42.832737" lon="-0.141700">
        <ele>1727.408</ele>
        <time>2020-07-22T11:06:38Z</time>
      </trkpt>
      <trkpt lat="42.832683" lon="-0.141695">
        <ele>1727.926</ele>
        <time>2020-07-22T11:06:46Z</time>
      </trkpt>
      <trkpt lat="42.832637" lon="-0.141678">
        <ele>1726.774</ele>
        <time>2020-07-22T11:06:50Z</time>
      </trkpt>
      <trkpt lat="42.832586" lon="-0.141667">
        <ele>1729.237</ele>
        <time>2020-07-22T11:06:56Z</time>
      </trkpt>
      <trkpt lat="42.832522" lon="-0.141670">
        <ele>1729.040</ele>
        <time>2020-07-22T11:07:00Z</time>
      </trkpt>
      <trkpt lat="42.832473" lon="-0.141665">
        <ele>1729.456</ele>
        <time>2020-07-22T11:07:05Z</time>
      </trkpt>
      <trkpt lat="42.832425" lon="-0.141661">
        <ele>1728.942</ele>
        <time>2020-07-22T11:07:10Z</time>
      </trkpt>
      <trkpt lat="42.832372" lon="-0.141657">
        <ele>1729.421</ele>
        <time>2020-07-22T11:07:17Z</time>
      </trkpt>
      <trkpt lat="42.832327" lon="-0.141653">
        <ele>1729.575</ele>
        <time>2020-07-22T11:07:22Z</time>
      </trkpt>
      <trkpt lat="42.832271" lon="-0.141625">
        <ele>1730.524</ele>
        <time>2020-07-22T11:07:28Z</time>
      </trkpt>
      <trkpt lat="42.832225" lon="-0.141593">
        <ele>1729.204</ele>
        <time>2020-07-22T11:07:33Z</time>
      </trkpt>
      <trkpt lat="42.832180" lon="-0.141566">
        <ele>1730.414</ele>
        <time>2020-07-22T11:07:38Z</time>
      </trkpt>
      <trkpt lat="42.832122" lon="-0.141549">
        <ele>1731.208</ele>
        <time>2020-07-22T11:07:45Z</time>
      </trkpt>
      <trkpt lat="42.832072" lon="-0.141540">
        <ele>1732.467</ele>
        <time>2020-07-22T11:07:50Z</time>
      </trkpt>
      <trkpt lat="42.832022" lon="-0.141532">
        <ele>1733.465</ele>
        <time>2020-07-22T11:07:54Z</time>
      </trkpt>
      <trkpt lat="42.831969" lon="-0.141515">
        <ele>1733.278</ele>
        <time>2020-07-22T11:08:02Z</time>
      </trkpt>
      <trkpt lat="42.831920" lon="-0.141506">
        <ele>1732.971</ele>
        <time>2020-07-22T11:08:07Z</time>
      </trkpt>
      <trkpt lat="42.831870" lon="-0.141495">
        <ele>1731.987</ele>
        <time>2020-07-22T11:08:13Z</time>
      </trkpt>
      <trkpt lat="42.831810" lon="-0.141507">
        <ele>1733.013</ele>
        <time>2020-07-22T11:08:21Z</time>
      </trkpt>
      <trkpt lat="42.831761" lon="-0.141536">
        <ele>1734.122</ele>
        <time>2020-07-22T11:08:25Z</time>
      </trkpt>
      <trkpt lat="42.831712" lon="-0.141577">
        <ele>1734.146</ele>
        <time>2020-07-22T11:08:29Z</time>
      </trkpt>
      <trkpt lat="42.831666" lon="-0.141596">
        <ele>1734.227</ele>
        <time>2020-07-22T11:08:34Z</time>
      </trkpt>
      <trkpt lat="42.831620" lon="-0.141623">
        <ele>1733.668</ele>
        <time>2020-07-22T11:08:39Z</time>
      </trkpt>
      <trkpt lat="42.831577" lon="-0.141652">
        <ele>1733.414</ele>
        <time>2020-07-22T11:08:45Z</time>
      </trkpt>
      <trkpt lat="42.831526" lon="-0.141668">
        <ele>1733.508</ele>
        <time>2020-07-22T11:08:49Z</time>
      </trkpt>
      <trkpt lat="42.831479" lon="-0.141680">
        <ele>1733.667</ele>
        <time>2020-07-22T11:08:54Z</time>
      </trkpt>
      <trkpt lat="42.831427" lon="-0.141708">
        <ele>1733.815</ele>
        <time>2020-07-22T11:09:00Z</time>
      </trkpt>
      <trkpt lat="42.831384" lon="-0.141746">
        <ele>1734.278</ele>
        <time>2020-07-22T11:09:06Z</time>
      </trkpt>
      <trkpt lat="42.831333" lon="-0.141777">
        <ele>1733.231</ele>
        <time>2020-07-22T11:09:10Z</time>
      </trkpt>
      <trkpt lat="42.831281" lon="-0.141773">
        <ele>1734.417</ele>
        <time>2020-07-22T11:09:16Z</time>
      </trkpt>
      <trkpt lat="42.831238" lon="-0.141809">
        <ele>1733.023</ele>
        <time>2020-07-22T11:09:23Z</time>
      </trkpt>
      <trkpt lat="42.831196" lon="-0.141851">
        <ele>1732.742</ele>
        <time>2020-07-22T11:09:28Z</time>
      </trkpt>
      <trkpt lat="42.831148" lon="-0.141859">
        <ele>1733.816</ele>
        <time>2020-07-22T11:09:32Z</time>
      </trkpt>
      <trkpt lat="42.831098" lon="-0.141869">
        <ele>1733.151</ele>
        <time>2020-07-22T11:09:37Z</time>
      </trkpt>
      <trkpt lat="42.831046" lon="-0.141880">
        <ele>1734.501</ele>
        <time>2020-07-22T11:09:42Z</time>
      </trkpt>
      <trkpt lat="42.830989" lon="-0.141875">
        <ele>1733.311</ele>
        <time>2020-07-22T11:09:49Z</time>
      </trkpt>
      <trkpt lat="42.830939" lon="-0.141876">
        <ele>1732.808</ele>
        <time>2020-07-22T11:09:56Z</time>
      </trkpt>
      <trkpt lat="42.830886" lon="-0.141859">
        <ele>1731.790</ele>
        <time>2020-07-22T11:10:05Z</time>
      </trkpt>
      <trkpt lat="42.830838" lon="-0.141868">
        <ele>1733.918</ele>
        <time>2020-07-22T11:10:12Z</time>
      </trkpt>
      <trkpt lat="42.830791" lon="-0.141838">
        <ele>1733.131</ele>
        <time>2020-07-22T11:10:22Z</time>
      </trkpt>
      <trkpt lat="42.830738" lon="-0.141835">
        <ele>1732.754</ele>
        <time>2020-07-22T11:10:28Z</time>
      </trkpt>
      <trkpt lat="42.830689" lon="-0.141825">
        <ele>1733.030</ele>
        <time>2020-07-22T11:10:34Z</time>
      </trkpt>
      <trkpt lat="42.830644" lon="-0.141813">
        <ele>1733.726</ele>
        <time>2020-07-22T11:10:40Z</time>
      </trkpt>
      <trkpt lat="42.830599" lon="-0.141826">
        <ele>1735.095</ele>
        <time>2020-07-22T11:10:44Z</time>
      </trkpt>
      <trkpt lat="42.830554" lon="-0.141833">
        <ele>1733.439</ele>
        <time>2020-07-22T11:10:49Z</time>
      </trkpt>
      <trkpt lat="42.830498" lon="-0.141834">
        <ele>1734.028</ele>
        <time>2020-07-22T11:10:58Z</time>
      </trkpt>
      <trkpt lat="42.830451" lon="-0.141828">
        <ele>1734.289</ele>
        <time>2020-07-22T11:11:02Z</time>
      </trkpt>
      <trkpt lat="42.830403" lon="-0.141809">
        <ele>1733.117</ele>
        <time>2020-07-22T11:11:09Z</time>
      </trkpt>
      <trkpt lat="42.830355" lon="-0.141795">
        <ele>1733.108</ele>
        <time>2020-07-22T11:11:13Z</time>
      </trkpt>
      <trkpt lat="42.830311" lon="-0.141781">
        <ele>1734.527</ele>
        <time>2020-07-22T11:11:17Z</time>
      </trkpt>
      <trkpt lat="42.830263" lon="-0.141767">
        <ele>1734.465</ele>
        <time>2020-07-22T11:11:23Z</time>
      </trkpt>
      <trkpt lat="42.830220" lon="-0.141742">
        <ele>1734.728</ele>
        <time>2020-07-22T11:11:29Z</time>
      </trkpt>
      <trkpt lat="42.830171" lon="-0.141727">
        <ele>1734.731</ele>
        <time>2020-07-22T11:11:35Z</time>
      </trkpt>
      <trkpt lat="42.830122" lon="-0.141704">
        <ele>1734.687</ele>
        <time>2020-07-22T11:11:43Z</time>
      </trkpt>
      <trkpt lat="42.830072" lon="-0.141706">
        <ele>1733.913</ele>
        <time>2020-07-22T11:11:49Z</time>
      </trkpt>
      <trkpt lat="42.830022" lon="-0.141691">
        <ele>1731.372</ele>
        <time>2020-07-22T11:11:55Z</time>
      </trkpt>
      <trkpt lat="42.829976" lon="-0.141666">
        <ele>1732.136</ele>
        <time>2020-07-22T11:12:00Z</time>
      </trkpt>
      <trkpt lat="42.829935" lon="-0.141630">
        <ele>1732.465</ele>
        <time>2020-07-22T11:12:07Z</time>
      </trkpt>
      <trkpt lat="42.829881" lon="-0.141610">
        <ele>1733.068</ele>
        <time>2020-07-22T11:12:14Z</time>
      </trkpt>
      <trkpt lat="42.829829" lon="-0.141594">
        <ele>1733.614</ele>
        <time>2020-07-22T11:12:21Z</time>
      </trkpt>
      <trkpt lat="42.829783" lon="-0.141561">
        <ele>1733.208</ele>
        <time>2020-07-22T11:12:29Z</time>
      </trkpt>
      <trkpt lat="42.829737" lon="-0.141548">
        <ele>1733.231</ele>
        <time>2020-07-22T11:12:37Z</time>
      </trkpt>
      <trkpt lat="42.829685" lon="-0.141533">
        <ele>1733.639</ele>
        <time>2020-07-22T11:12:45Z</time>
      </trkpt>
      <trkpt lat="42.829631" lon="-0.141516">
        <ele>1732.962</ele>
        <time>2020-07-22T11:12:50Z</time>
      </trkpt>
      <trkpt lat="42.829590" lon="-0.141468">
        <ele>1732.695</ele>
        <time>2020-07-22T11:12:56Z</time>
      </trkpt>
      <trkpt lat="42.829552" lon="-0.141422">
        <ele>1732.611</ele>
        <time>2020-07-22T11:13:06Z</time>
      </trkpt>
      <trkpt lat="42.829508" lon="-0.141399">
        <ele>1732.747</ele>
        <time>2020-07-22T11:13:14Z</time>
      </trkpt>
      <trkpt lat="42.829462" lon="-0.141378">
        <ele>1732.876</ele>
        <time>2020-07-22T11:13:22Z</time>
      </trkpt>
      <trkpt lat="42.829423" lon="-0.141342">
        <ele>1732.570</ele>
        <time>2020-07-22T11:13:29Z</time>
      </trkpt>
      <trkpt lat="42.829388" lon="-0.141303">
        <ele>1733.226</ele>
        <time>2020-07-22T11:13:36Z</time>
      </trkpt>
      <trkpt lat="42.829337" lon="-0.141267">
        <ele>1732.847</ele>
        <time>2020-07-22T11:13:45Z</time>
      </trkpt>
      <trkpt lat="42.829287" lon="-0.141263">
        <ele>1732.811</ele>
        <time>2020-07-22T11:13:55Z</time>
      </trkpt>
      <trkpt lat="42.829238" lon="-0.141277">
        <ele>1731.508</ele>
        <time>2020-07-22T11:14:03Z</time>
      </trkpt>
      <trkpt lat="42.829185" lon="-0.141268">
        <ele>1732.097</ele>
        <time>2020-07-22T11:14:10Z</time>
      </trkpt>
      <trkpt lat="42.829141" lon="-0.141237">
        <ele>1731.165</ele>
        <time>2020-07-22T11:14:15Z</time>
      </trkpt>
      <trkpt lat="42.829109" lon="-0.141194">
        <ele>1731.878</ele>
        <time>2020-07-22T11:14:20Z</time>
      </trkpt>
      <trkpt lat="42.829071" lon="-0.141158">
        <ele>1730.051</ele>
        <time>2020-07-22T11:14:26Z</time>
      </trkpt>
      <trkpt lat="42.829032" lon="-0.141108">
        <ele>1731.977</ele>
        <time>2020-07-22T11:14:31Z</time>
      </trkpt>
      <trkpt lat="42.828991" lon="-0.141073">
        <ele>1731.693</ele>
        <time>2020-07-22T11:14:38Z</time>
      </trkpt>
      <trkpt lat="42.828944" lon="-0.141082">
        <ele>1731.642</ele>
        <time>2020-07-22T11:14:44Z</time>
      </trkpt>
      <trkpt lat="42.828893" lon="-0.141067">
        <ele>1731.666</ele>
        <time>2020-07-22T11:14:51Z</time>
      </trkpt>
      <trkpt lat="42.828846" lon="-0.141074">
        <ele>1732.013</ele>
        <time>2020-07-22T11:14:57Z</time>
      </trkpt>
      <trkpt lat="42.828792" lon="-0.141084">
        <ele>1733.243</ele>
        <time>2020-07-22T11:15:05Z</time>
      </trkpt>
      <trkpt lat="42.828747" lon="-0.141057">
        <ele>1733.207</ele>
        <time>2020-07-22T11:15:09Z</time>
      </trkpt>
      <trkpt lat="42.828704" lon="-0.141038">
        <ele>1732.408</ele>
        <time>2020-07-22T11:15:16Z</time>
      </trkpt>
      <trkpt lat="42.828652" lon="-0.141011">
        <ele>1730.916</ele>
        <time>2020-07-22T11:15:22Z</time>
      </trkpt>
      <trkpt lat="42.828612" lon="-0.140977">
        <ele>1732.414</ele>
        <time>2020-07-22T11:15:28Z</time>
      </trkpt>
      <trkpt lat="42.828572" lon="-0.140945">
        <ele>1733.117</ele>
        <time>2020-07-22T11:15:34Z</time>
      </trkpt>
      <trkpt lat="42.828534" lon="-0.140909">
        <ele>1733.810</ele>
        <time>2020-07-22T11:15:39Z</time>
      </trkpt>
      <trkpt lat="42.828490" lon="-0.140873">
        <ele>1732.556</ele>
        <time>2020-07-22T11:15:45Z</time>
      </trkpt>
      <trkpt lat="42.828452" lon="-0.140829">
        <ele>1732.312</ele>
        <time>2020-07-22T11:15:52Z</time>
      </trkpt>
      <trkpt lat="42.828427" lon="-0.140773">
        <ele>1731.661</ele>
        <time>2020-07-22T11:15:58Z</time>
      </trkpt>
      <trkpt lat="42.828396" lon="-0.140720">
        <ele>1731.365</ele>
        <time>2020-07-22T11:16:08Z</time>
      </trkpt>
      <trkpt lat="42.828341" lon="-0.140686">
        <ele>1731.937</ele>
        <time>2020-07-22T11:16:13Z</time>
      </trkpt>
      <trkpt lat="42.828315" lon="-0.140667">
        <ele>1731.649</ele>
        <time>2020-07-22T11:16:21Z</time>
      </trkpt>
      <trkpt lat="42.828283" lon="-0.140659">
        <ele>1731.213</ele>
        <time>2020-07-22T11:17:17Z</time>
      </trkpt>
      <trkpt lat="42.828238" lon="-0.140679">
        <ele>1731.608</ele>
        <time>2020-07-22T11:17:24Z</time>
      </trkpt>
      <trkpt lat="42.828181" lon="-0.140702">
        <ele>1731.088</ele>
        <time>2020-07-22T11:17:31Z</time>
      </trkpt>
      <trkpt lat="42.828134" lon="-0.140713">
        <ele>1732.716</ele>
        <time>2020-07-22T11:17:38Z</time>
      </trkpt>
      <trkpt lat="42.828081" lon="-0.140711">
        <ele>1733.679</ele>
        <time>2020-07-22T11:17:43Z</time>
      </trkpt>
      <trkpt lat="42.828028" lon="-0.140702">
        <ele>1729.392</ele>
        <time>2020-07-22T11:17:50Z</time>
      </trkpt>
      <trkpt lat="42.827980" lon="-0.140697">
        <ele>1733.248</ele>
        <time>2020-07-22T11:17:57Z</time>
      </trkpt>
      <trkpt lat="42.827936" lon="-0.140676">
        <ele>1733.154</ele>
        <time>2020-07-22T11:18:05Z</time>
      </trkpt>
      <trkpt lat="42.827900" lon="-0.140714">
        <ele>1732.393</ele>
        <time>2020-07-22T11:18:13Z</time>
      </trkpt>
      <trkpt lat="42.827852" lon="-0.140698">
        <ele>1733.457</ele>
        <time>2020-07-22T11:18:21Z</time>
      </trkpt>
      <trkpt lat="42.827822" lon="-0.140643">
        <ele>1731.635</ele>
        <time>2020-07-22T11:18:31Z</time>
      </trkpt>
      <trkpt lat="42.827796" lon="-0.140601">
        <ele>1733.286</ele>
        <time>2020-07-22T11:18:38Z</time>
      </trkpt>
      <trkpt lat="42.827748" lon="-0.140596">
        <ele>1733.014</ele>
        <time>2020-07-22T11:18:42Z</time>
      </trkpt>
      <trkpt lat="42.827695" lon="-0.140600">
        <ele>1732.908</ele>
        <time>2020-07-22T11:18:50Z</time>
      </trkpt>
      <trkpt lat="42.827646" lon="-0.140628">
        <ele>1730.858</ele>
        <time>2020-07-22T11:18:56Z</time>
      </trkpt>
      <trkpt lat="42.827602" lon="-0.140646">
        <ele>1733.256</ele>
        <time>2020-07-22T11:19:03Z</time>
      </trkpt>
      <trkpt lat="42.827547" lon="-0.140644">
        <ele>1734.029</ele>
        <time>2020-07-22T11:19:10Z</time>
      </trkpt>
      <trkpt lat="42.827512" lon="-0.140588">
        <ele>1732.972</ele>
        <time>2020-07-22T11:19:15Z</time>
      </trkpt>
      <trkpt lat="42.827472" lon="-0.140557">
        <ele>1734.738</ele>
        <time>2020-07-22T11:19:21Z</time>
      </trkpt>
      <trkpt lat="42.827423" lon="-0.140546">
        <ele>1733.374</ele>
        <time>2020-07-22T11:19:28Z</time>
      </trkpt>
      <trkpt lat="42.827382" lon="-0.140519">
        <ele>1733.763</ele>
        <time>2020-07-22T11:19:39Z</time>
      </trkpt>
      <trkpt lat="42.827340" lon="-0.140512">
        <ele>1733.987</ele>
        <time>2020-07-22T11:19:50Z</time>
      </trkpt>
      <trkpt lat="42.827290" lon="-0.140536">
        <ele>1734.694</ele>
        <time>2020-07-22T11:19:57Z</time>
      </trkpt>
      <trkpt lat="42.827244" lon="-0.140555">
        <ele>1734.557</ele>
        <time>2020-07-22T11:20:04Z</time>
      </trkpt>
      <trkpt lat="42.827196" lon="-0.140547">
        <ele>1736.522</ele>
        <time>2020-07-22T11:20:10Z</time>
      </trkpt>
      <trkpt lat="42.827149" lon="-0.140515">
        <ele>1736.908</ele>
        <time>2020-07-22T11:20:15Z</time>
      </trkpt>
      <trkpt lat="42.827125" lon="-0.140458">
        <ele>1738.374</ele>
        <time>2020-07-22T11:20:21Z</time>
      </trkpt>
      <trkpt lat="42.827095" lon="-0.140401">
        <ele>1738.532</ele>
        <time>2020-07-22T11:20:27Z</time>
      </trkpt>
      <trkpt lat="42.827050" lon="-0.140358">
        <ele>1736.615</ele>
        <time>2020-07-22T11:20:37Z</time>
      </trkpt>
      <trkpt lat="42.827001" lon="-0.140329">
        <ele>1739.078</ele>
        <time>2020-07-22T11:20:43Z</time>
      </trkpt>
      <trkpt lat="42.826955" lon="-0.140313">
        <ele>1740.244</ele>
        <time>2020-07-22T11:20:51Z</time>
      </trkpt>
      <trkpt lat="42.826904" lon="-0.140336">
        <ele>1741.130</ele>
        <time>2020-07-22T11:20:57Z</time>
      </trkpt>
      <trkpt lat="42.826858" lon="-0.140318">
        <ele>1742.849</ele>
        <time>2020-07-22T11:21:06Z</time>
      </trkpt>
      <trkpt lat="42.826807" lon="-0.140325">
        <ele>1743.463</ele>
        <time>2020-07-22T11:21:12Z</time>
      </trkpt>
      <trkpt lat="42.826760" lon="-0.140315">
        <ele>1742.638</ele>
        <time>2020-07-22T11:21:21Z</time>
      </trkpt>
      <trkpt lat="42.826708" lon="-0.140258">
        <ele>1743.470</ele>
        <time>2020-07-22T11:22:37Z</time>
      </trkpt>
      <trkpt lat="42.826662" lon="-0.140224">
        <ele>1742.517</ele>
        <time>2020-07-22T11:22:43Z</time>
      </trkpt>
      <trkpt lat="42.826613" lon="-0.140231">
        <ele>1742.508</ele>
        <time>2020-07-22T11:23:00Z</time>
      </trkpt>
      <trkpt lat="42.826572" lon="-0.140203">
        <ele>1741.238</ele>
        <time>2020-07-22T11:23:07Z</time>
      </trkpt>
      <trkpt lat="42.826541" lon="-0.140154">
        <ele>1743.136</ele>
        <time>2020-07-22T11:23:13Z</time>
      </trkpt>
      <trkpt lat="42.826498" lon="-0.140134">
        <ele>1741.789</ele>
        <time>2020-07-22T11:23:19Z</time>
      </trkpt>
      <trkpt lat="42.826456" lon="-0.140104">
        <ele>1740.652</ele>
        <time>2020-07-22T11:23:27Z</time>
      </trkpt>
      <trkpt lat="42.826405" lon="-0.140089">
        <ele>1739.938</ele>
        <time>2020-07-22T11:23:38Z</time>
      </trkpt>
      <trkpt lat="42.826355" lon="-0.140083">
        <ele>1740.754</ele>
        <time>2020-07-22T11:23:45Z</time>
      </trkpt>
      <trkpt lat="42.826309" lon="-0.140062">
        <ele>1739.993</ele>
        <time>2020-07-22T11:23:50Z</time>
      </trkpt>
      <trkpt lat="42.826271" lon="-0.140008">
        <ele>1738.667</ele>
        <time>2020-07-22T11:23:57Z</time>
      </trkpt>
      <trkpt lat="42.826230" lon="-0.139962">
        <ele>1737.971</ele>
        <time>2020-07-22T11:24:01Z</time>
      </trkpt>
      <trkpt lat="42.826193" lon="-0.139935">
        <ele>1739.641</ele>
        <time>2020-07-22T11:24:10Z</time>
      </trkpt>
      <trkpt lat="42.826148" lon="-0.139946">
        <ele>1739.915</ele>
        <time>2020-07-22T11:24:16Z</time>
      </trkpt>
      <trkpt lat="42.826110" lon="-0.139987">
        <ele>1741.108</ele>
        <time>2020-07-22T11:24:23Z</time>
      </trkpt>
      <trkpt lat="42.826064" lon="-0.140009">
        <ele>1741.052</ele>
        <time>2020-07-22T11:24:32Z</time>
      </trkpt>
      <trkpt lat="42.826021" lon="-0.139989">
        <ele>1741.490</ele>
        <time>2020-07-22T11:24:37Z</time>
      </trkpt>
      <trkpt lat="42.825969" lon="-0.139966">
        <ele>1741.473</ele>
        <time>2020-07-22T11:24:42Z</time>
      </trkpt>
      <trkpt lat="42.825923" lon="-0.139981">
        <ele>1742.146</ele>
        <time>2020-07-22T11:24:48Z</time>
      </trkpt>
      <trkpt lat="42.825882" lon="-0.140012">
        <ele>1745.032</ele>
        <time>2020-07-22T11:24:53Z</time>
      </trkpt>
      <trkpt lat="42.825831" lon="-0.140015">
        <ele>1744.498</ele>
        <time>2020-07-22T11:24:58Z</time>
      </trkpt>
      <trkpt lat="42.825791" lon="-0.139982">
        <ele>1745.317</ele>
        <time>2020-07-22T11:25:03Z</time>
      </trkpt>
      <trkpt lat="42.825760" lon="-0.139934">
        <ele>1744.091</ele>
        <time>2020-07-22T11:25:09Z</time>
      </trkpt>
      <trkpt lat="42.825743" lon="-0.139866">
        <ele>1743.181</ele>
        <time>2020-07-22T11:25:16Z</time>
      </trkpt>
      <trkpt lat="42.825701" lon="-0.139839">
        <ele>1745.061</ele>
        <time>2020-07-22T11:25:22Z</time>
      </trkpt>
      <trkpt lat="42.825651" lon="-0.139809">
        <ele>1746.917</ele>
        <time>2020-07-22T11:25:30Z</time>
      </trkpt>
      <trkpt lat="42.825589" lon="-0.139806">
        <ele>1745.908</ele>
        <time>2020-07-22T11:25:36Z</time>
      </trkpt>
      <trkpt lat="42.825542" lon="-0.139815">
        <ele>1745.913</ele>
        <time>2020-07-22T11:25:41Z</time>
      </trkpt>
      <trkpt lat="42.825492" lon="-0.139801">
        <ele>1746.861</ele>
        <time>2020-07-22T11:25:47Z</time>
      </trkpt>
      <trkpt lat="42.825439" lon="-0.139783">
        <ele>1746.554</ele>
        <time>2020-07-22T11:25:53Z</time>
      </trkpt>
      <trkpt lat="42.825382" lon="-0.139768">
        <ele>1745.777</ele>
        <time>2020-07-22T11:25:58Z</time>
      </trkpt>
      <trkpt lat="42.825333" lon="-0.139764">
        <ele>1747.623</ele>
        <time>2020-07-22T11:26:02Z</time>
      </trkpt>
      <trkpt lat="42.825280" lon="-0.139755">
        <ele>1746.999</ele>
        <time>2020-07-22T11:26:06Z</time>
      </trkpt>
      <trkpt lat="42.825214" lon="-0.139751">
        <ele>1747.278</ele>
        <time>2020-07-22T11:26:13Z</time>
      </trkpt>
      <trkpt lat="42.825162" lon="-0.139754">
        <ele>1747.862</ele>
        <time>2020-07-22T11:26:18Z</time>
      </trkpt>
      <trkpt lat="42.825108" lon="-0.139755">
        <ele>1746.633</ele>
        <time>2020-07-22T11:26:24Z</time>
      </trkpt>
      <trkpt lat="42.825059" lon="-0.139741">
        <ele>1749.223</ele>
        <time>2020-07-22T11:26:31Z</time>
      </trkpt>
      <trkpt lat="42.825009" lon="-0.139755">
        <ele>1749.915</ele>
        <time>2020-07-22T11:26:39Z</time>
      </trkpt>
      <trkpt lat="42.824965" lon="-0.139765">
        <ele>1748.708</ele>
        <time>2020-07-22T11:26:45Z</time>
      </trkpt>
      <trkpt lat="42.824906" lon="-0.139751">
        <ele>1751.518</ele>
        <time>2020-07-22T11:26:57Z</time>
      </trkpt>
      <trkpt lat="42.824857" lon="-0.139728">
        <ele>1750.616</ele>
        <time>2020-07-22T11:27:03Z</time>
      </trkpt>
      <trkpt lat="42.824810" lon="-0.139707">
        <ele>1749.339</ele>
        <time>2020-07-22T11:27:09Z</time>
      </trkpt>
      <trkpt lat="42.824762" lon="-0.139678">
        <ele>1752.922</ele>
        <time>2020-07-22T11:27:16Z</time>
      </trkpt>
      <trkpt lat="42.824709" lon="-0.139678">
        <ele>1753.218</ele>
        <time>2020-07-22T11:27:22Z</time>
      </trkpt>
      <trkpt lat="42.824669" lon="-0.139716">
        <ele>1754.084</ele>
        <time>2020-07-22T11:27:30Z</time>
      </trkpt>
      <trkpt lat="42.824626" lon="-0.139730">
        <ele>1756.113</ele>
        <time>2020-07-22T11:27:37Z</time>
      </trkpt>
      <trkpt lat="42.824575" lon="-0.139712">
        <ele>1756.297</ele>
        <time>2020-07-22T11:27:44Z</time>
      </trkpt>
      <trkpt lat="42.824532" lon="-0.139690">
        <ele>1756.039</ele>
        <time>2020-07-22T11:27:50Z</time>
      </trkpt>
      <trkpt lat="42.824499" lon="-0.139645">
        <ele>1758.001</ele>
        <time>2020-07-22T11:27:58Z</time>
      </trkpt>
      <trkpt lat="42.824472" lon="-0.139590">
        <ele>1758.521</ele>
        <time>2020-07-22T11:28:05Z</time>
      </trkpt>
      <trkpt lat="42.824429" lon="-0.139565">
        <ele>1759.908</ele>
        <time>2020-07-22T11:28:13Z</time>
      </trkpt>
      <trkpt lat="42.824401" lon="-0.139512">
        <ele>1760.578</ele>
        <time>2020-07-22T11:28:19Z</time>
      </trkpt>
      <trkpt lat="42.824360" lon="-0.139475">
        <ele>1760.856</ele>
        <time>2020-07-22T11:28:24Z</time>
      </trkpt>
      <trkpt lat="42.824322" lon="-0.139430">
        <ele>1761.339</ele>
        <time>2020-07-22T11:28:30Z</time>
      </trkpt>
      <trkpt lat="42.824287" lon="-0.139381">
        <ele>1763.222</ele>
        <time>2020-07-22T11:28:36Z</time>
      </trkpt>
      <trkpt lat="42.824270" lon="-0.139321">
        <ele>1763.568</ele>
        <time>2020-07-22T11:28:53Z</time>
      </trkpt>
      <trkpt lat="42.824225" lon="-0.139278">
        <ele>1764.354</ele>
        <time>2020-07-22T11:29:00Z</time>
      </trkpt>
      <trkpt lat="42.824196" lon="-0.139225">
        <ele>1766.043</ele>
        <time>2020-07-22T11:29:07Z</time>
      </trkpt>
      <trkpt lat="42.824155" lon="-0.139174">
        <ele>1765.867</ele>
        <time>2020-07-22T11:29:12Z</time>
      </trkpt>
      <trkpt lat="42.824124" lon="-0.139150">
        <ele>1767.183</ele>
        <time>2020-07-22T11:30:45Z</time>
      </trkpt>
      <trkpt lat="42.824091" lon="-0.139102">
        <ele>1765.925</ele>
        <time>2020-07-22T11:31:20Z</time>
      </trkpt>
      <trkpt lat="42.824066" lon="-0.139046">
        <ele>1769.217</ele>
        <time>2020-07-22T11:31:28Z</time>
      </trkpt>
      <trkpt lat="42.824040" lon="-0.138987">
        <ele>1769.408</ele>
        <time>2020-07-22T11:31:31Z</time>
      </trkpt>
      <trkpt lat="42.823998" lon="-0.138931">
        <ele>1770.073</ele>
        <time>2020-07-22T11:31:36Z</time>
      </trkpt>
      <trkpt lat="42.823950" lon="-0.138925">
        <ele>1770.741</ele>
        <time>2020-07-22T11:31:40Z</time>
      </trkpt>
      <trkpt lat="42.823903" lon="-0.138939">
        <ele>1768.764</ele>
        <time>2020-07-22T11:32:05Z</time>
      </trkpt>
      <trkpt lat="42.823862" lon="-0.138903">
        <ele>1770.087</ele>
        <time>2020-07-22T11:32:11Z</time>
      </trkpt>
      <trkpt lat="42.823842" lon="-0.138822">
        <ele>1770.843</ele>
        <time>2020-07-22T11:32:16Z</time>
      </trkpt>
      <trkpt lat="42.823831" lon="-0.138759">
        <ele>1771.079</ele>
        <time>2020-07-22T11:32:24Z</time>
      </trkpt>
      <trkpt lat="42.823862" lon="-0.138703">
        <ele>1772.048</ele>
        <time>2020-07-22T11:33:38Z</time>
      </trkpt>
      <trkpt lat="42.823881" lon="-0.138640">
        <ele>1770.562</ele>
        <time>2020-07-22T11:33:42Z</time>
      </trkpt>
      <trkpt lat="42.823890" lon="-0.138579">
        <ele>1770.766</ele>
        <time>2020-07-22T11:33:59Z</time>
      </trkpt>
      <trkpt lat="42.823928" lon="-0.138532">
        <ele>1772.429</ele>
        <time>2020-07-22T11:34:09Z</time>
      </trkpt>
      <trkpt lat="42.823960" lon="-0.138480">
        <ele>1770.821</ele>
        <time>2020-07-22T11:34:16Z</time>
      </trkpt>
      <trkpt lat="42.823986" lon="-0.138420">
        <ele>1773.908</ele>
        <time>2020-07-22T11:34:24Z</time>
      </trkpt>
      <trkpt lat="42.824007" lon="-0.138379">
        <ele>1771.631</ele>
        <time>2020-07-22T11:34:34Z</time>
      </trkpt>
      <trkpt lat="42.823992" lon="-0.138322">
        <ele>1775.729</ele>
        <time>2020-07-22T11:34:48Z</time>
      </trkpt>
      <trkpt lat="42.823940" lon="-0.138321">
        <ele>1773.592</ele>
        <time>2020-07-22T11:34:54Z</time>
      </trkpt>
      <trkpt lat="42.823893" lon="-0.138333">
        <ele>1776.935</ele>
        <time>2020-07-22T11:34:59Z</time>
      </trkpt>
      <trkpt lat="42.823844" lon="-0.138314">
        <ele>1777.631</ele>
        <time>2020-07-22T11:35:05Z</time>
      </trkpt>
      <trkpt lat="42.823798" lon="-0.138301">
        <ele>1776.797</ele>
        <time>2020-07-22T11:35:12Z</time>
      </trkpt>
      <trkpt lat="42.823745" lon="-0.138302">
        <ele>1778.576</ele>
        <time>2020-07-22T11:35:17Z</time>
      </trkpt>
      <trkpt lat="42.823697" lon="-0.138315">
        <ele>1779.320</ele>
        <time>2020-07-22T11:35:24Z</time>
      </trkpt>
      <trkpt lat="42.823651" lon="-0.138324">
        <ele>1780.948</ele>
        <time>2020-07-22T11:35:30Z</time>
      </trkpt>
      <trkpt lat="42.823612" lon="-0.138359">
        <ele>1782.261</ele>
        <time>2020-07-22T11:35:38Z</time>
      </trkpt>
      <trkpt lat="42.823558" lon="-0.138378">
        <ele>1782.917</ele>
        <time>2020-07-22T11:35:47Z</time>
      </trkpt>
      <trkpt lat="42.823506" lon="-0.138391">
        <ele>1783.708</ele>
        <time>2020-07-22T11:35:56Z</time>
      </trkpt>
      <trkpt lat="42.823461" lon="-0.138421">
        <ele>1785.459</ele>
        <time>2020-07-22T11:36:04Z</time>
      </trkpt>
      <trkpt lat="42.823418" lon="-0.138446">
        <ele>1785.047</ele>
        <time>2020-07-22T11:36:12Z</time>
      </trkpt>
      <trkpt lat="42.823375" lon="-0.138463">
        <ele>1787.550</ele>
        <time>2020-07-22T11:36:21Z</time>
      </trkpt>
      <trkpt lat="42.823342" lon="-0.138420">
        <ele>1788.923</ele>
        <time>2020-07-22T11:36:30Z</time>
      </trkpt>
      <trkpt lat="42.823325" lon="-0.138372">
        <ele>1789.829</ele>
        <time>2020-07-22T11:38:31Z</time>
      </trkpt>
      <trkpt lat="42.823292" lon="-0.138342">
        <ele>1789.195</ele>
        <time>2020-07-22T11:38:38Z</time>
      </trkpt>
      <trkpt lat="42.823256" lon="-0.138291">
        <ele>1792.154</ele>
        <time>2020-07-22T11:38:45Z</time>
      </trkpt>
      <trkpt lat="42.823214" lon="-0.138241">
        <ele>1791.578</ele>
        <time>2020-07-22T11:38:49Z</time>
      </trkpt>
      <trkpt lat="42.823175" lon="-0.138200">
        <ele>1791.065</ele>
        <time>2020-07-22T11:38:53Z</time>
      </trkpt>
      <trkpt lat="42.823123" lon="-0.138164">
        <ele>1791.368</ele>
        <time>2020-07-22T11:38:59Z</time>
      </trkpt>
      <trkpt lat="42.823098" lon="-0.138099">
        <ele>1792.714</ele>
        <time>2020-07-22T11:39:06Z</time>
      </trkpt>
      <trkpt lat="42.823054" lon="-0.138055">
        <ele>1791.908</ele>
        <time>2020-07-22T11:39:13Z</time>
      </trkpt>
      <trkpt lat="42.823028" lon="-0.137992">
        <ele>1792.371</ele>
        <time>2020-07-22T11:39:19Z</time>
      </trkpt>
      <trkpt lat="42.823002" lon="-0.137951">
        <ele>1792.059</ele>
        <time>2020-07-22T11:39:25Z</time>
      </trkpt>
      <trkpt lat="42.822963" lon="-0.137958">
        <ele>1793.062</ele>
        <time>2020-07-22T11:39:45Z</time>
      </trkpt>
      <trkpt lat="42.822926" lon="-0.137921">
        <ele>1792.355</ele>
        <time>2020-07-22T11:39:52Z</time>
      </trkpt>
      <trkpt lat="42.822905" lon="-0.137852">
        <ele>1791.871</ele>
        <time>2020-07-22T11:39:59Z</time>
      </trkpt>
      <trkpt lat="42.822893" lon="-0.137774">
        <ele>1793.417</ele>
        <time>2020-07-22T11:40:04Z</time>
      </trkpt>
      <trkpt lat="42.822871" lon="-0.137702">
        <ele>1793.496</ele>
        <time>2020-07-22T11:40:09Z</time>
      </trkpt>
      <trkpt lat="42.822827" lon="-0.137672">
        <ele>1793.830</ele>
        <time>2020-07-22T11:40:15Z</time>
      </trkpt>
      <trkpt lat="42.822772" lon="-0.137657">
        <ele>1796.234</ele>
        <time>2020-07-22T11:40:22Z</time>
      </trkpt>
      <trkpt lat="42.822730" lon="-0.137610">
        <ele>1796.455</ele>
        <time>2020-07-22T11:40:29Z</time>
      </trkpt>
      <trkpt lat="42.822680" lon="-0.137602">
        <ele>1797.110</ele>
        <time>2020-07-22T11:40:37Z</time>
      </trkpt>
      <trkpt lat="42.822632" lon="-0.137606">
        <ele>1798.108</ele>
        <time>2020-07-22T11:40:43Z</time>
      </trkpt>
      <trkpt lat="42.822585" lon="-0.137581">
        <ele>1797.178</ele>
        <time>2020-07-22T11:40:50Z</time>
      </trkpt>
      <trkpt lat="42.822544" lon="-0.137549">
        <ele>1799.486</ele>
        <time>2020-07-22T11:40:58Z</time>
      </trkpt>
      <trkpt lat="42.822493" lon="-0.137527">
        <ele>1800.139</ele>
        <time>2020-07-22T11:41:07Z</time>
      </trkpt>
      <trkpt lat="42.822445" lon="-0.137519">
        <ele>1800.452</ele>
        <time>2020-07-22T11:41:13Z</time>
      </trkpt>
      <trkpt lat="42.822397" lon="-0.137514">
        <ele>1801.358</ele>
        <time>2020-07-22T11:41:20Z</time>
      </trkpt>
      <trkpt lat="42.822347" lon="-0.137488">
        <ele>1799.094</ele>
        <time>2020-07-22T11:41:26Z</time>
      </trkpt>
      <trkpt lat="42.822303" lon="-0.137474">
        <ele>1801.123</ele>
        <time>2020-07-22T11:41:33Z</time>
      </trkpt>
      <trkpt lat="42.822255" lon="-0.137467">
        <ele>1801.387</ele>
        <time>2020-07-22T11:41:40Z</time>
      </trkpt>
      <trkpt lat="42.822206" lon="-0.137454">
        <ele>1802.026</ele>
        <time>2020-07-22T11:41:45Z</time>
      </trkpt>
      <trkpt lat="42.822161" lon="-0.137471">
        <ele>1802.447</ele>
        <time>2020-07-22T11:41:51Z</time>
      </trkpt>
      <trkpt lat="42.822114" lon="-0.137461">
        <ele>1802.011</ele>
        <time>2020-07-22T11:41:56Z</time>
      </trkpt>
      <trkpt lat="42.822062" lon="-0.137470">
        <ele>1801.308</ele>
        <time>2020-07-22T11:42:02Z</time>
      </trkpt>
      <trkpt lat="42.822014" lon="-0.137461">
        <ele>1802.417</ele>
        <time>2020-07-22T11:42:07Z</time>
      </trkpt>
      <trkpt lat="42.821971" lon="-0.137435">
        <ele>1802.575</ele>
        <time>2020-07-22T11:42:12Z</time>
      </trkpt>
      <trkpt lat="42.821916" lon="-0.137421">
        <ele>1801.978</ele>
        <time>2020-07-22T11:42:19Z</time>
      </trkpt>
      <trkpt lat="42.821867" lon="-0.137417">
        <ele>1804.471</ele>
        <time>2020-07-22T11:42:25Z</time>
      </trkpt>
      <trkpt lat="42.821818" lon="-0.137422">
        <ele>1804.817</ele>
        <time>2020-07-22T11:42:30Z</time>
      </trkpt>
      <trkpt lat="42.821765" lon="-0.137406">
        <ele>1802.173</ele>
        <time>2020-07-22T11:42:36Z</time>
      </trkpt>
      <trkpt lat="42.821725" lon="-0.137363">
        <ele>1803.042</ele>
        <time>2020-07-22T11:42:42Z</time>
      </trkpt>
      <trkpt lat="42.821685" lon="-0.137312">
        <ele>1802.296</ele>
        <time>2020-07-22T11:42:48Z</time>
      </trkpt>
      <trkpt lat="42.821632" lon="-0.137278">
        <ele>1802.986</ele>
        <time>2020-07-22T11:43:49Z</time>
      </trkpt>
      <trkpt lat="42.821573" lon="-0.137268">
        <ele>1804.660</ele>
        <time>2020-07-22T11:43:53Z</time>
      </trkpt>
      <trkpt lat="42.821527" lon="-0.137271">
        <ele>1804.226</ele>
        <time>2020-07-22T11:43:58Z</time>
      </trkpt>
      <trkpt lat="42.821466" lon="-0.137272">
        <ele>1805.808</ele>
        <time>2020-07-22T11:44:03Z</time>
      </trkpt>
      <trkpt lat="42.821410" lon="-0.137275">
        <ele>1805.933</ele>
        <time>2020-07-22T11:44:08Z</time>
      </trkpt>
      <trkpt lat="42.821365" lon="-0.137247">
        <ele>1805.651</ele>
        <time>2020-07-22T11:44:14Z</time>
      </trkpt>
      <trkpt lat="42.821319" lon="-0.137225">
        <ele>1806.134</ele>
        <time>2020-07-22T11:44:22Z</time>
      </trkpt>
      <trkpt lat="42.821278" lon="-0.137190">
        <ele>1808.267</ele>
        <time>2020-07-22T11:44:29Z</time>
      </trkpt>
      <trkpt lat="42.821228" lon="-0.137177">
        <ele>1808.133</ele>
        <time>2020-07-22T11:44:37Z</time>
      </trkpt>
      <trkpt lat="42.821180" lon="-0.137167">
        <ele>1807.639</ele>
        <time>2020-07-22T11:44:42Z</time>
      </trkpt>
      <trkpt lat="42.821127" lon="-0.137164">
        <ele>1808.638</ele>
        <time>2020-07-22T11:44:47Z</time>
      </trkpt>
      <trkpt lat="42.821079" lon="-0.137183">
        <ele>1808.592</ele>
        <time>2020-07-22T11:44:52Z</time>
      </trkpt>
      <trkpt lat="42.821029" lon="-0.137185">
        <ele>1808.078</ele>
        <time>2020-07-22T11:45:00Z</time>
      </trkpt>
      <trkpt lat="42.820979" lon="-0.137188">
        <ele>1809.433</ele>
        <time>2020-07-22T11:45:07Z</time>
      </trkpt>
      <trkpt lat="42.820929" lon="-0.137197">
        <ele>1812.626</ele>
        <time>2020-07-22T11:45:15Z</time>
      </trkpt>
      <trkpt lat="42.820882" lon="-0.137203">
        <ele>1812.908</ele>
        <time>2020-07-22T11:45:40Z</time>
      </trkpt>
      <trkpt lat="42.820834" lon="-0.137193">
        <ele>1814.352</ele>
        <time>2020-07-22T11:45:46Z</time>
      </trkpt>
      <trkpt lat="42.820797" lon="-0.137220">
        <ele>1814.730</ele>
        <time>2020-07-22T11:45:54Z</time>
      </trkpt>
      <trkpt lat="42.820751" lon="-0.137223">
        <ele>1815.643</ele>
        <time>2020-07-22T11:46:01Z</time>
      </trkpt>
      <trkpt lat="42.820708" lon="-0.137254">
        <ele>1814.816</ele>
        <time>2020-07-22T11:46:09Z</time>
      </trkpt>
      <trkpt lat="42.820658" lon="-0.137277">
        <ele>1816.112</ele>
        <time>2020-07-22T11:46:13Z</time>
      </trkpt>
      <trkpt lat="42.820604" lon="-0.137272">
        <ele>1813.838</ele>
        <time>2020-07-22T11:46:20Z</time>
      </trkpt>
      <trkpt lat="42.820547" lon="-0.137266">
        <ele>1813.497</ele>
        <time>2020-07-22T11:46:26Z</time>
      </trkpt>
      <trkpt lat="42.820493" lon="-0.137269">
        <ele>1813.211</ele>
        <time>2020-07-22T11:46:33Z</time>
      </trkpt>
      <trkpt lat="42.820447" lon="-0.137259">
        <ele>1817.786</ele>
        <time>2020-07-22T11:46:38Z</time>
      </trkpt>
      <trkpt lat="42.820399" lon="-0.137250">
        <ele>1817.360</ele>
        <time>2020-07-22T11:46:45Z</time>
      </trkpt>
      <trkpt lat="42.820349" lon="-0.137245">
        <ele>1818.726</ele>
        <time>2020-07-22T11:46:50Z</time>
      </trkpt>
      <trkpt lat="42.820298" lon="-0.137237">
        <ele>1819.708</ele>
        <time>2020-07-22T11:46:55Z</time>
      </trkpt>
      <trkpt lat="42.820254" lon="-0.137210">
        <ele>1818.693</ele>
        <time>2020-07-22T11:47:00Z</time>
      </trkpt>
      <trkpt lat="42.820207" lon="-0.137194">
        <ele>1819.961</ele>
        <time>2020-07-22T11:47:06Z</time>
      </trkpt>
      <trkpt lat="42.820156" lon="-0.137190">
        <ele>1819.214</ele>
        <time>2020-07-22T11:47:12Z</time>
      </trkpt>
      <trkpt lat="42.820117" lon="-0.137235">
        <ele>1819.697</ele>
        <time>2020-07-22T11:47:22Z</time>
      </trkpt>
      <trkpt lat="42.820072" lon="-0.137253">
        <ele>1820.953</ele>
        <time>2020-07-22T11:47:29Z</time>
      </trkpt>
      <trkpt lat="42.820020" lon="-0.137272">
        <ele>1822.329</ele>
        <time>2020-07-22T11:47:36Z</time>
      </trkpt>
      <trkpt lat="42.819985" lon="-0.137318">
        <ele>1822.388</ele>
        <time>2020-07-22T11:47:41Z</time>
      </trkpt>
      <trkpt lat="42.819942" lon="-0.137348">
        <ele>1821.332</ele>
        <time>2020-07-22T11:47:47Z</time>
      </trkpt>
      <trkpt lat="42.819932" lon="-0.137389">
        <ele>1820.664</ele>
        <time>2020-07-22T11:48:13Z</time>
      </trkpt>
      <trkpt lat="42.819902" lon="-0.137405">
        <ele>1821.206</ele>
        <time>2020-07-22T11:54:21Z</time>
      </trkpt>
      <trkpt lat="42.819857" lon="-0.137416">
        <ele>1820.916</ele>
        <time>2020-07-22T11:55:27Z</time>
      </trkpt>
      <trkpt lat="42.819809" lon="-0.137418">
        <ele>1821.508</ele>
        <time>2020-07-22T11:55:34Z</time>
      </trkpt>
      <trkpt lat="42.819765" lon="-0.137453">
        <ele>1822.431</ele>
        <time>2020-07-22T11:55:45Z</time>
      </trkpt>
      <trkpt lat="42.819745" lon="-0.137510">
        <ele>1821.629</ele>
        <time>2020-07-22T11:55:52Z</time>
      </trkpt>
      <trkpt lat="42.819703" lon="-0.137536">
        <ele>1822.592</ele>
        <time>2020-07-22T11:56:00Z</time>
      </trkpt>
      <trkpt lat="42.819651" lon="-0.137540">
        <ele>1824.395</ele>
        <time>2020-07-22T11:56:06Z</time>
      </trkpt>
      <trkpt lat="42.819606" lon="-0.137575">
        <ele>1822.241</ele>
        <time>2020-07-22T11:56:13Z</time>
      </trkpt>
      <trkpt lat="42.819559" lon="-0.137576">
        <ele>1826.647</ele>
        <time>2020-07-22T11:57:32Z</time>
      </trkpt>
      <trkpt lat="42.819513" lon="-0.137597">
        <ele>1828.626</ele>
        <time>2020-07-22T11:57:49Z</time>
      </trkpt>
      <trkpt lat="42.819461" lon="-0.137590">
        <ele>1830.220</ele>
        <time>2020-07-22T11:57:55Z</time>
      </trkpt>
      <trkpt lat="42.819407" lon="-0.137583">
        <ele>1829.317</ele>
        <time>2020-07-22T11:58:03Z</time>
      </trkpt>
      <trkpt lat="42.819354" lon="-0.137572">
        <ele>1829.287</ele>
        <time>2020-07-22T11:58:10Z</time>
      </trkpt>
      <trkpt lat="42.819324" lon="-0.137522">
        <ele>1832.615</ele>
        <time>2020-07-22T11:58:21Z</time>
      </trkpt>
      <trkpt lat="42.819308" lon="-0.137470">
        <ele>1831.908</ele>
        <time>2020-07-22T11:58:27Z</time>
      </trkpt>
      <trkpt lat="42.819280" lon="-0.137420">
        <ele>1834.536</ele>
        <time>2020-07-22T11:58:40Z</time>
      </trkpt>
      <trkpt lat="42.819258" lon="-0.137352">
        <ele>1835.084</ele>
        <time>2020-07-22T11:59:14Z</time>
      </trkpt>
      <trkpt lat="42.819220" lon="-0.137311">
        <ele>1835.037</ele>
        <time>2020-07-22T11:59:21Z</time>
      </trkpt>
      <trkpt lat="42.819194" lon="-0.137254">
        <ele>1836.730</ele>
        <time>2020-07-22T11:59:30Z</time>
      </trkpt>
      <trkpt lat="42.819148" lon="-0.137250">
        <ele>1840.156</ele>
        <time>2020-07-22T11:59:37Z</time>
      </trkpt>
      <trkpt lat="42.819150" lon="-0.137311">
        <ele>1839.882</ele>
        <time>2020-07-22T11:59:53Z</time>
      </trkpt>
      <trkpt lat="42.819111" lon="-0.137353">
        <ele>1839.211</ele>
        <time>2020-07-22T12:00:21Z</time>
      </trkpt>
      <trkpt lat="42.819068" lon="-0.137368">
        <ele>1839.955</ele>
        <time>2020-07-22T12:00:55Z</time>
      </trkpt>
      <trkpt lat="42.819030" lon="-0.137321">
        <ele>1839.972</ele>
        <time>2020-07-22T12:01:05Z</time>
      </trkpt>
      <trkpt lat="42.818983" lon="-0.137287">
        <ele>1839.513</ele>
        <time>2020-07-22T12:01:13Z</time>
      </trkpt>
      <trkpt lat="42.818942" lon="-0.137319">
        <ele>1840.514</ele>
        <time>2020-07-22T12:01:21Z</time>
      </trkpt>
      <trkpt lat="42.818903" lon="-0.137366">
        <ele>1840.908</ele>
        <time>2020-07-22T12:01:29Z</time>
      </trkpt>
      <trkpt lat="42.818914" lon="-0.137428">
        <ele>1840.712</ele>
        <time>2020-07-22T12:01:47Z</time>
      </trkpt>
      <trkpt lat="42.818880" lon="-0.137466">
        <ele>1842.810</ele>
        <time>2020-07-22T12:02:33Z</time>
      </trkpt>
      <trkpt lat="42.818837" lon="-0.137502">
        <ele>1842.253</ele>
        <time>2020-07-22T12:02:44Z</time>
      </trkpt>
      <trkpt lat="42.818787" lon="-0.137509">
        <ele>1843.386</ele>
        <time>2020-07-22T12:02:50Z</time>
      </trkpt>
      <trkpt lat="42.818751" lon="-0.137548">
        <ele>1841.032</ele>
        <time>2020-07-22T12:02:58Z</time>
      </trkpt>
      <trkpt lat="42.818706" lon="-0.137565">
        <ele>1842.528</ele>
        <time>2020-07-22T12:03:02Z</time>
      </trkpt>
      <trkpt lat="42.818652" lon="-0.137580">
        <ele>1841.877</ele>
        <time>2020-07-22T12:03:08Z</time>
      </trkpt>
      <trkpt lat="42.818611" lon="-0.137602">
        <ele>1842.941</ele>
        <time>2020-07-22T12:03:14Z</time>
      </trkpt>
      <trkpt lat="42.818575" lon="-0.137660">
        <ele>1844.155</ele>
        <time>2020-07-22T12:03:22Z</time>
      </trkpt>
      <trkpt lat="42.818545" lon="-0.137707">
        <ele>1843.507</ele>
        <time>2020-07-22T12:03:26Z</time>
      </trkpt>
      <trkpt lat="42.818511" lon="-0.137753">
        <ele>1845.017</ele>
        <time>2020-07-22T12:03:31Z</time>
      </trkpt>
      <trkpt lat="42.818471" lon="-0.137793">
        <ele>1842.608</ele>
        <time>2020-07-22T12:03:37Z</time>
      </trkpt>
      <trkpt lat="42.818425" lon="-0.137822">
        <ele>1845.160</ele>
        <time>2020-07-22T12:03:44Z</time>
      </trkpt>
      <trkpt lat="42.818379" lon="-0.137847">
        <ele>1845.548</ele>
        <time>2020-07-22T12:03:53Z</time>
      </trkpt>
      <trkpt lat="42.818334" lon="-0.137825">
        <ele>1845.571</ele>
        <time>2020-07-22T12:03:59Z</time>
      </trkpt>
      <trkpt lat="42.818284" lon="-0.137835">
        <ele>1846.724</ele>
        <time>2020-07-22T12:04:05Z</time>
      </trkpt>
      <trkpt lat="42.818236" lon="-0.137850">
        <ele>1849.160</ele>
        <time>2020-07-22T12:04:11Z</time>
      </trkpt>
      <trkpt lat="42.818190" lon="-0.137850">
        <ele>1848.926</ele>
        <time>2020-07-22T12:04:15Z</time>
      </trkpt>
      <trkpt lat="42.818130" lon="-0.137853">
        <ele>1849.285</ele>
        <time>2020-07-22T12:04:21Z</time>
      </trkpt>
      <trkpt lat="42.818075" lon="-0.137876">
        <ele>1848.529</ele>
        <time>2020-07-22T12:04:29Z</time>
      </trkpt>
      <trkpt lat="42.818026" lon="-0.137883">
        <ele>1848.318</ele>
        <time>2020-07-22T12:04:35Z</time>
      </trkpt>
      <trkpt lat="42.817976" lon="-0.137892">
        <ele>1851.398</ele>
        <time>2020-07-22T12:04:42Z</time>
      </trkpt>
      <trkpt lat="42.817926" lon="-0.137887">
        <ele>1850.517</ele>
        <time>2020-07-22T12:04:50Z</time>
      </trkpt>
      <trkpt lat="42.817883" lon="-0.137850">
        <ele>1850.708</ele>
        <time>2020-07-22T12:04:58Z</time>
      </trkpt>
      <trkpt lat="42.817853" lon="-0.137805">
        <ele>1850.036</ele>
        <time>2020-07-22T12:05:05Z</time>
      </trkpt>
      <trkpt lat="42.817803" lon="-0.137780">
        <ele>1850.124</ele>
        <time>2020-07-22T12:05:14Z</time>
      </trkpt>
      <trkpt lat="42.817757" lon="-0.137745">
        <ele>1850.327</ele>
        <time>2020-07-22T12:05:19Z</time>
      </trkpt>
      <trkpt lat="42.817723" lon="-0.137712">
        <ele>1851.690</ele>
        <time>2020-07-22T12:05:25Z</time>
      </trkpt>
      <trkpt lat="42.817689" lon="-0.137747">
        <ele>1851.086</ele>
        <time>2020-07-22T12:05:59Z</time>
      </trkpt>
      <trkpt lat="42.817664" lon="-0.137712">
        <ele>1849.172</ele>
        <time>2020-07-22T12:07:02Z</time>
      </trkpt>
      <trkpt lat="42.817665" lon="-0.137649">
        <ele>1851.511</ele>
        <time>2020-07-22T12:07:48Z</time>
      </trkpt>
      <trkpt lat="42.817665" lon="-0.137578">
        <ele>1849.895</ele>
        <time>2020-07-22T12:07:53Z</time>
      </trkpt>
      <trkpt lat="42.817660" lon="-0.137502">
        <ele>1849.922</ele>
        <time>2020-07-22T12:07:58Z</time>
      </trkpt>
      <trkpt lat="42.817631" lon="-0.137441">
        <ele>1851.662</ele>
        <time>2020-07-22T12:08:03Z</time>
      </trkpt>
      <trkpt lat="42.817574" lon="-0.137421">
        <ele>1849.708</ele>
        <time>2020-07-22T12:08:08Z</time>
      </trkpt>
      <trkpt lat="42.817517" lon="-0.137423">
        <ele>1851.708</ele>
        <time>2020-07-22T12:08:12Z</time>
      </trkpt>
      <trkpt lat="42.817461" lon="-0.137422">
        <ele>1852.217</ele>
        <time>2020-07-22T12:08:17Z</time>
      </trkpt>
      <trkpt lat="42.817407" lon="-0.137403">
        <ele>1852.665</ele>
        <time>2020-07-22T12:08:22Z</time>
      </trkpt>
      <trkpt lat="42.817355" lon="-0.137407">
        <ele>1854.388</ele>
        <time>2020-07-22T12:08:29Z</time>
      </trkpt>
      <trkpt lat="42.817310" lon="-0.137381">
        <ele>1855.371</ele>
        <time>2020-07-22T12:08:36Z</time>
      </trkpt>
      <trkpt lat="42.817280" lon="-0.137325">
        <ele>1855.877</ele>
        <time>2020-07-22T12:08:44Z</time>
      </trkpt>
      <trkpt lat="42.817235" lon="-0.137314">
        <ele>1855.783</ele>
        <time>2020-07-22T12:08:49Z</time>
      </trkpt>
      <trkpt lat="42.817189" lon="-0.137297">
        <ele>1855.842</ele>
        <time>2020-07-22T12:08:56Z</time>
      </trkpt>
      <trkpt lat="42.817143" lon="-0.137291">
        <ele>1857.436</ele>
        <time>2020-07-22T12:09:03Z</time>
      </trkpt>
      <trkpt lat="42.817096" lon="-0.137279">
        <ele>1856.116</ele>
        <time>2020-07-22T12:09:10Z</time>
      </trkpt>
      <trkpt lat="42.817053" lon="-0.137296">
        <ele>1859.776</ele>
        <time>2020-07-22T12:09:18Z</time>
      </trkpt>
      <trkpt lat="42.816999" lon="-0.137292">
        <ele>1859.213</ele>
        <time>2020-07-22T12:09:25Z</time>
      </trkpt>
      <trkpt lat="42.816942" lon="-0.137295">
        <ele>1860.508</ele>
        <time>2020-07-22T12:09:31Z</time>
      </trkpt>
      <trkpt lat="42.816893" lon="-0.137295">
        <ele>1859.666</ele>
        <time>2020-07-22T12:09:37Z</time>
      </trkpt>
      <trkpt lat="42.816847" lon="-0.137269">
        <ele>1863.874</ele>
        <time>2020-07-22T12:09:45Z</time>
      </trkpt>
      <trkpt lat="42.816806" lon="-0.137238">
        <ele>1862.517</ele>
        <time>2020-07-22T12:09:53Z</time>
      </trkpt>
      <trkpt lat="42.816758" lon="-0.137222">
        <ele>1863.920</ele>
        <time>2020-07-22T12:10:02Z</time>
      </trkpt>
      <trkpt lat="42.816709" lon="-0.137240">
        <ele>1862.786</ele>
        <time>2020-07-22T12:10:13Z</time>
      </trkpt>
      <trkpt lat="42.816655" lon="-0.137264">
        <ele>1865.612</ele>
        <time>2020-07-22T12:10:22Z</time>
      </trkpt>
      <trkpt lat="42.816608" lon="-0.137280">
        <ele>1864.661</ele>
        <time>2020-07-22T12:10:29Z</time>
      </trkpt>
      <trkpt lat="42.816560" lon="-0.137289">
        <ele>1867.385</ele>
        <time>2020-07-22T12:10:37Z</time>
      </trkpt>
      <trkpt lat="42.816526" lon="-0.137308">
        <ele>1870.163</ele>
        <time>2020-07-22T12:11:06Z</time>
      </trkpt>
      <trkpt lat="42.816489" lon="-0.137293">
        <ele>1872.144</ele>
        <time>2020-07-22T12:11:56Z</time>
      </trkpt>
      <trkpt lat="42.816444" lon="-0.137280">
        <ele>1873.418</ele>
        <time>2020-07-22T12:12:02Z</time>
      </trkpt>
      <trkpt lat="42.816398" lon="-0.137281">
        <ele>1872.708</ele>
        <time>2020-07-22T12:12:07Z</time>
      </trkpt>
      <trkpt lat="42.816335" lon="-0.137284">
        <ele>1870.871</ele>
        <time>2020-07-22T12:12:11Z</time>
      </trkpt>
      <trkpt lat="42.816291" lon="-0.137255">
        <ele>1874.199</ele>
        <time>2020-07-22T12:12:21Z</time>
      </trkpt>
      <trkpt lat="42.816247" lon="-0.137223">
        <ele>1876.042</ele>
        <time>2020-07-22T12:12:31Z</time>
      </trkpt>
      <trkpt lat="42.816199" lon="-0.137222">
        <ele>1878.675</ele>
        <time>2020-07-22T12:12:40Z</time>
      </trkpt>
      <trkpt lat="42.816161" lon="-0.137189">
        <ele>1879.731</ele>
        <time>2020-07-22T12:15:27Z</time>
      </trkpt>
      <trkpt lat="42.816115" lon="-0.137191">
        <ele>1880.577</ele>
        <time>2020-07-22T12:15:33Z</time>
      </trkpt>
      <trkpt lat="42.816061" lon="-0.137200">
        <ele>1882.186</ele>
        <time>2020-07-22T12:15:37Z</time>
      </trkpt>
      <trkpt lat="42.816005" lon="-0.137202">
        <ele>1879.710</ele>
        <time>2020-07-22T12:15:42Z</time>
      </trkpt>
      <trkpt lat="42.815956" lon="-0.137207">
        <ele>1878.898</ele>
        <time>2020-07-22T12:15:47Z</time>
      </trkpt>
      <trkpt lat="42.815911" lon="-0.137234">
        <ele>1884.115</ele>
        <time>2020-07-22T12:15:53Z</time>
      </trkpt>
      <trkpt lat="42.815890" lon="-0.137286">
        <ele>1881.726</ele>
        <time>2020-07-22T12:16:00Z</time>
      </trkpt>
      <trkpt lat="42.815873" lon="-0.137344">
        <ele>1883.308</ele>
        <time>2020-07-22T12:16:06Z</time>
      </trkpt>
      <trkpt lat="42.815840" lon="-0.137403">
        <ele>1881.924</ele>
        <time>2020-07-22T12:16:14Z</time>
      </trkpt>
      <trkpt lat="42.815834" lon="-0.137467">
        <ele>1885.242</ele>
        <time>2020-07-22T12:16:22Z</time>
      </trkpt>
      <trkpt lat="42.815802" lon="-0.137524">
        <ele>1886.825</ele>
        <time>2020-07-22T12:16:30Z</time>
      </trkpt>
      <trkpt lat="42.815748" lon="-0.137542">
        <ele>1887.558</ele>
        <time>2020-07-22T12:16:36Z</time>
      </trkpt>
      <trkpt lat="42.815702" lon="-0.137528">
        <ele>1885.754</ele>
        <time>2020-07-22T12:16:41Z</time>
      </trkpt>
      <trkpt lat="42.815659" lon="-0.137509">
        <ele>1888.570</ele>
        <time>2020-07-22T12:16:50Z</time>
      </trkpt>
      <trkpt lat="42.815614" lon="-0.137473">
        <ele>1890.079</ele>
        <time>2020-07-22T12:18:40Z</time>
      </trkpt>
      <trkpt lat="42.815577" lon="-0.137438">
        <ele>1890.993</ele>
        <time>2020-07-22T12:18:48Z</time>
      </trkpt>
      <trkpt lat="42.815536" lon="-0.137402">
        <ele>1891.525</ele>
        <time>2020-07-22T12:18:54Z</time>
      </trkpt>
      <trkpt lat="42.815490" lon="-0.137388">
        <ele>1892.626</ele>
        <time>2020-07-22T12:18:59Z</time>
      </trkpt>
      <trkpt lat="42.815441" lon="-0.137377">
        <ele>1892.408</ele>
        <time>2020-07-22T12:19:08Z</time>
      </trkpt>
      <trkpt lat="42.815399" lon="-0.137342">
        <ele>1894.008</ele>
        <time>2020-07-22T12:19:14Z</time>
      </trkpt>
      <trkpt lat="42.815343" lon="-0.137340">
        <ele>1893.837</ele>
        <time>2020-07-22T12:19:20Z</time>
      </trkpt>
      <trkpt lat="42.815292" lon="-0.137322">
        <ele>1895.795</ele>
        <time>2020-07-22T12:19:28Z</time>
      </trkpt>
      <trkpt lat="42.815258" lon="-0.137280">
        <ele>1894.728</ele>
        <time>2020-07-22T12:19:34Z</time>
      </trkpt>
      <trkpt lat="42.815238" lon="-0.137224">
        <ele>1895.881</ele>
        <time>2020-07-22T12:19:42Z</time>
      </trkpt>
      <trkpt lat="42.815197" lon="-0.137192">
        <ele>1895.817</ele>
        <time>2020-07-22T12:19:48Z</time>
      </trkpt>
      <trkpt lat="42.815148" lon="-0.137195">
        <ele>1894.953</ele>
        <time>2020-07-22T12:19:54Z</time>
      </trkpt>
      <trkpt lat="42.815096" lon="-0.137211">
        <ele>1896.962</ele>
        <time>2020-07-22T12:20:01Z</time>
      </trkpt>
      <trkpt lat="42.815045" lon="-0.137203">
        <ele>1898.766</ele>
        <time>2020-07-22T12:20:09Z</time>
      </trkpt>
      <trkpt lat="42.814993" lon="-0.137205">
        <ele>1899.091</ele>
        <time>2020-07-22T12:20:16Z</time>
      </trkpt>
      <trkpt lat="42.814946" lon="-0.137217">
        <ele>1900.981</ele>
        <time>2020-07-22T12:20:24Z</time>
      </trkpt>
      <trkpt lat="42.814901" lon="-0.137194">
        <ele>1901.219</ele>
        <time>2020-07-22T12:20:35Z</time>
      </trkpt>
      <trkpt lat="42.814854" lon="-0.137182">
        <ele>1902.708</ele>
        <time>2020-07-22T12:20:43Z</time>
      </trkpt>
      <trkpt lat="42.814819" lon="-0.137139">
        <ele>1903.424</ele>
        <time>2020-07-22T12:20:54Z</time>
      </trkpt>
      <trkpt lat="42.814772" lon="-0.137113">
        <ele>1904.662</ele>
        <time>2020-07-22T12:21:02Z</time>
      </trkpt>
      <trkpt lat="42.814723" lon="-0.137114">
        <ele>1906.475</ele>
        <time>2020-07-22T12:21:10Z</time>
      </trkpt>
      <trkpt lat="42.814705" lon="-0.137170">
        <ele>1906.038</ele>
        <time>2020-07-22T12:21:29Z</time>
      </trkpt>
      <trkpt lat="42.814651" lon="-0.137171">
        <ele>1908.224</ele>
        <time>2020-07-22T12:23:00Z</time>
      </trkpt>
      <trkpt lat="42.814597" lon="-0.137174">
        <ele>1909.250</ele>
        <time>2020-07-22T12:23:05Z</time>
      </trkpt>
      <trkpt lat="42.814546" lon="-0.137171">
        <ele>1909.159</ele>
        <time>2020-07-22T12:23:11Z</time>
      </trkpt>
      <trkpt lat="42.814559" lon="-0.137103">
        <ele>1912.573</ele>
        <time>2020-07-22T12:23:39Z</time>
      </trkpt>
      <trkpt lat="42.814592" lon="-0.137061">
        <ele>1913.253</ele>
        <time>2020-07-22T12:23:46Z</time>
      </trkpt>
      <trkpt lat="42.814635" lon="-0.137021">
        <ele>1914.204</ele>
        <time>2020-07-22T12:23:54Z</time>
      </trkpt>
      <trkpt lat="42.814656" lon="-0.136960">
        <ele>1915.014</ele>
        <time>2020-07-22T12:24:01Z</time>
      </trkpt>
      <trkpt lat="42.814615" lon="-0.136924">
        <ele>1914.608</ele>
        <time>2020-07-22T12:24:07Z</time>
      </trkpt>
      <trkpt lat="42.814566" lon="-0.136928">
        <ele>1916.940</ele>
        <time>2020-07-22T12:24:15Z</time>
      </trkpt>
      <trkpt lat="42.814553" lon="-0.136988">
        <ele>1917.618</ele>
        <time>2020-07-22T12:25:09Z</time>
      </trkpt>
      <trkpt lat="42.814502" lon="-0.136989">
        <ele>1919.231</ele>
        <time>2020-07-22T12:25:29Z</time>
      </trkpt>
      <trkpt lat="42.814455" lon="-0.136994">
        <ele>1919.474</ele>
        <time>2020-07-22T12:25:34Z</time>
      </trkpt>
      <trkpt lat="42.814397" lon="-0.136988">
        <ele>1922.960</ele>
        <time>2020-07-22T12:25:41Z</time>
      </trkpt>
      <trkpt lat="42.814349" lon="-0.136974">
        <ele>1922.656</ele>
        <time>2020-07-22T12:25:46Z</time>
      </trkpt>
      <trkpt lat="42.814298" lon="-0.136950">
        <ele>1923.665</ele>
        <time>2020-07-22T12:25:51Z</time>
      </trkpt>
      <trkpt lat="42.814253" lon="-0.136939">
        <ele>1924.499</ele>
        <time>2020-07-22T12:25:58Z</time>
      </trkpt>
      <trkpt lat="42.814203" lon="-0.136931">
        <ele>1925.892</ele>
        <time>2020-07-22T12:26:04Z</time>
      </trkpt>
      <trkpt lat="42.814156" lon="-0.136952">
        <ele>1926.873</ele>
        <time>2020-07-22T12:26:12Z</time>
      </trkpt>
      <trkpt lat="42.814133" lon="-0.137007">
        <ele>1927.520</ele>
        <time>2020-07-22T12:26:21Z</time>
      </trkpt>
      <trkpt lat="42.814097" lon="-0.137045">
        <ele>1928.808</ele>
        <time>2020-07-22T12:26:25Z</time>
      </trkpt>
      <trkpt lat="42.814056" lon="-0.137092">
        <ele>1929.134</ele>
        <time>2020-07-22T12:26:37Z</time>
      </trkpt>
      <trkpt lat="42.814004" lon="-0.137134">
        <ele>1929.792</ele>
        <time>2020-07-22T12:26:44Z</time>
      </trkpt>
      <trkpt lat="42.813960" lon="-0.137173">
        <ele>1929.335</ele>
        <time>2020-07-22T12:26:51Z</time>
      </trkpt>
      <trkpt lat="42.813944" lon="-0.137236">
        <ele>1929.138</ele>
        <time>2020-07-22T12:27:01Z</time>
      </trkpt>
      <trkpt lat="42.813985" lon="-0.137264">
        <ele>1929.964</ele>
        <time>2020-07-22T12:27:32Z</time>
      </trkpt>
      <trkpt lat="42.813965" lon="-0.137319">
        <ele>1932.280</ele>
        <time>2020-07-22T12:28:09Z</time>
      </trkpt>
      <trkpt lat="42.813920" lon="-0.137354">
        <ele>1933.339</ele>
        <time>2020-07-22T12:28:17Z</time>
      </trkpt>
      <trkpt lat="42.813875" lon="-0.137377">
        <ele>1932.253</ele>
        <time>2020-07-22T12:28:20Z</time>
      </trkpt>
      <trkpt lat="42.813827" lon="-0.137403">
        <ele>1933.464</ele>
        <time>2020-07-22T12:28:28Z</time>
      </trkpt>
      <trkpt lat="42.813786" lon="-0.137443">
        <ele>1935.306</ele>
        <time>2020-07-22T12:28:35Z</time>
      </trkpt>
      <trkpt lat="42.813752" lon="-0.137483">
        <ele>1936.816</ele>
        <time>2020-07-22T12:28:43Z</time>
      </trkpt>
      <trkpt lat="42.813709" lon="-0.137523">
        <ele>1938.808</ele>
        <time>2020-07-22T12:28:53Z</time>
      </trkpt>
      <trkpt lat="42.813662" lon="-0.137526">
        <ele>1938.771</ele>
        <time>2020-07-22T12:29:00Z</time>
      </trkpt>
      <trkpt lat="42.813612" lon="-0.137527">
        <ele>1940.039</ele>
        <time>2020-07-22T12:29:08Z</time>
      </trkpt>
      <trkpt lat="42.813569" lon="-0.137552">
        <ele>1940.242</ele>
        <time>2020-07-22T12:29:15Z</time>
      </trkpt>
      <trkpt lat="42.813527" lon="-0.137582">
        <ele>1940.425</ele>
        <time>2020-07-22T12:29:23Z</time>
      </trkpt>
      <trkpt lat="42.813481" lon="-0.137608">
        <ele>1940.921</ele>
        <time>2020-07-22T12:29:29Z</time>
      </trkpt>
      <trkpt lat="42.813450" lon="-0.137669">
        <ele>1943.547</ele>
        <time>2020-07-22T12:29:34Z</time>
      </trkpt>
      <trkpt lat="42.813401" lon="-0.137697">
        <ele>1942.566</ele>
        <time>2020-07-22T12:29:43Z</time>
      </trkpt>
      <trkpt lat="42.813377" lon="-0.137760">
        <ele>1944.380</ele>
        <time>2020-07-22T12:29:51Z</time>
      </trkpt>
      <trkpt lat="42.813317" lon="-0.137776">
        <ele>1945.723</ele>
        <time>2020-07-22T12:31:12Z</time>
      </trkpt>
      <trkpt lat="42.813263" lon="-0.137772">
        <ele>1945.083</ele>
        <time>2020-07-22T12:31:20Z</time>
      </trkpt>
      <trkpt lat="42.813227" lon="-0.137817">
        <ele>1947.011</ele>
        <time>2020-07-22T12:32:28Z</time>
      </trkpt>
      <trkpt lat="42.813182" lon="-0.137799">
        <ele>1945.808</ele>
        <time>2020-07-22T12:32:32Z</time>
      </trkpt>
      <trkpt lat="42.813135" lon="-0.137767">
        <ele>1944.947</ele>
        <time>2020-07-22T12:32:37Z</time>
      </trkpt>
      <trkpt lat="42.813086" lon="-0.137731">
        <ele>1946.475</ele>
        <time>2020-07-22T12:32:42Z</time>
      </trkpt>
      <trkpt lat="42.813046" lon="-0.137697">
        <ele>1945.438</ele>
        <time>2020-07-22T12:32:46Z</time>
      </trkpt>
      <trkpt lat="42.812991" lon="-0.137688">
        <ele>1945.851</ele>
        <time>2020-07-22T12:32:51Z</time>
      </trkpt>
      <trkpt lat="42.812945" lon="-0.137713">
        <ele>1945.867</ele>
        <time>2020-07-22T12:32:56Z</time>
      </trkpt>
      <trkpt lat="42.812932" lon="-0.137780">
        <ele>1946.623</ele>
        <time>2020-07-22T12:33:03Z</time>
      </trkpt>
      <trkpt lat="42.812907" lon="-0.137832">
        <ele>1946.252</ele>
        <time>2020-07-22T12:33:09Z</time>
      </trkpt>
      <trkpt lat="42.812864" lon="-0.137855">
        <ele>1946.316</ele>
        <time>2020-07-22T12:33:17Z</time>
      </trkpt>
      <trkpt lat="42.812828" lon="-0.137859">
        <ele>1947.026</ele>
        <time>2020-07-22T12:35:37Z</time>
      </trkpt>
      <trkpt lat="42.812804" lon="-0.137807">
        <ele>1946.647</ele>
        <time>2020-07-22T12:35:44Z</time>
      </trkpt>
      <trkpt lat="42.812783" lon="-0.137747">
        <ele>1947.311</ele>
        <time>2020-07-22T12:35:50Z</time>
      </trkpt>
      <trkpt lat="42.812736" lon="-0.137715">
        <ele>1947.208</ele>
        <time>2020-07-22T12:35:55Z</time>
      </trkpt>
      <trkpt lat="42.812682" lon="-0.137686">
        <ele>1947.927</ele>
        <time>2020-07-22T12:36:01Z</time>
      </trkpt>
      <trkpt lat="42.812632" lon="-0.137679">
        <ele>1947.365</ele>
        <time>2020-07-22T12:36:09Z</time>
      </trkpt>
      <trkpt lat="42.812583" lon="-0.137672">
        <ele>1947.548</ele>
        <time>2020-07-22T12:36:13Z</time>
      </trkpt>
      <trkpt lat="42.812537" lon="-0.137694">
        <ele>1949.491</ele>
        <time>2020-07-22T12:36:18Z</time>
      </trkpt>
      <trkpt lat="42.812490" lon="-0.137723">
        <ele>1947.997</ele>
        <time>2020-07-22T12:36:25Z</time>
      </trkpt>
      <trkpt lat="42.812440" lon="-0.137755">
        <ele>1949.863</ele>
        <time>2020-07-22T12:36:31Z</time>
      </trkpt>
      <trkpt lat="42.812392" lon="-0.137731">
        <ele>1948.842</ele>
        <time>2020-07-22T12:36:38Z</time>
      </trkpt>
      <trkpt lat="42.812356" lon="-0.137687">
        <ele>1948.186</ele>
        <time>2020-07-22T12:36:42Z</time>
      </trkpt>
      <trkpt lat="42.812343" lon="-0.137609">
        <ele>1951.256</ele>
        <time>2020-07-22T12:36:47Z</time>
      </trkpt>
      <trkpt lat="42.812302" lon="-0.137572">
        <ele>1950.059</ele>
        <time>2020-07-22T12:36:54Z</time>
      </trkpt>
      <trkpt lat="42.812256" lon="-0.137591">
        <ele>1949.814</ele>
        <time>2020-07-22T12:37:00Z</time>
      </trkpt>
      <trkpt lat="42.812213" lon="-0.137612">
        <ele>1950.808</ele>
        <time>2020-07-22T12:37:03Z</time>
      </trkpt>
      <trkpt lat="42.812160" lon="-0.137624">
        <ele>1950.990</ele>
        <time>2020-07-22T12:37:11Z</time>
      </trkpt>
      <trkpt lat="42.812111" lon="-0.137627">
        <ele>1950.668</ele>
        <time>2020-07-22T12:37:16Z</time>
      </trkpt>
      <trkpt lat="42.812072" lon="-0.137672">
        <ele>1949.951</ele>
        <time>2020-07-22T12:37:22Z</time>
      </trkpt>
      <trkpt lat="42.812024" lon="-0.137676">
        <ele>1950.514</ele>
        <time>2020-07-22T12:37:26Z</time>
      </trkpt>
      <trkpt lat="42.811978" lon="-0.137672">
        <ele>1951.360</ele>
        <time>2020-07-22T12:37:31Z</time>
      </trkpt>
      <trkpt lat="42.811933" lon="-0.137678">
        <ele>1952.756</ele>
        <time>2020-07-22T12:37:36Z</time>
      </trkpt>
      <trkpt lat="42.811884" lon="-0.137701">
        <ele>1952.635</ele>
        <time>2020-07-22T12:37:42Z</time>
      </trkpt>
      <trkpt lat="42.811841" lon="-0.137745">
        <ele>1952.559</ele>
        <time>2020-07-22T12:37:50Z</time>
      </trkpt>
      <trkpt lat="42.811787" lon="-0.137760">
        <ele>1953.631</ele>
        <time>2020-07-22T12:37:56Z</time>
      </trkpt>
      <trkpt lat="42.811733" lon="-0.137766">
        <ele>1953.261</ele>
        <time>2020-07-22T12:38:02Z</time>
      </trkpt>
      <trkpt lat="42.811693" lon="-0.137736">
        <ele>1953.607</ele>
        <time>2020-07-22T12:38:06Z</time>
      </trkpt>
      <trkpt lat="42.811649" lon="-0.137704">
        <ele>1955.008</ele>
        <time>2020-07-22T12:38:13Z</time>
      </trkpt>
      <trkpt lat="42.811610" lon="-0.137670">
        <ele>1952.688</ele>
        <time>2020-07-22T12:38:19Z</time>
      </trkpt>
      <trkpt lat="42.811559" lon="-0.137653">
        <ele>1955.196</ele>
        <time>2020-07-22T12:38:26Z</time>
      </trkpt>
      <trkpt lat="42.811505" lon="-0.137657">
        <ele>1953.939</ele>
        <time>2020-07-22T12:38:32Z</time>
      </trkpt>
      <trkpt lat="42.811459" lon="-0.137651">
        <ele>1954.672</ele>
        <time>2020-07-22T12:38:38Z</time>
      </trkpt>
      <trkpt lat="42.811415" lon="-0.137630">
        <ele>1954.978</ele>
        <time>2020-07-22T12:38:46Z</time>
      </trkpt>
      <trkpt lat="42.811370" lon="-0.137645">
        <ele>1955.624</ele>
        <time>2020-07-22T12:38:53Z</time>
      </trkpt>
      <trkpt lat="42.811323" lon="-0.137646">
        <ele>1954.923</ele>
        <time>2020-07-22T12:39:00Z</time>
      </trkpt>
      <trkpt lat="42.811276" lon="-0.137662">
        <ele>1953.717</ele>
        <time>2020-07-22T12:39:06Z</time>
      </trkpt>
      <trkpt lat="42.811231" lon="-0.137658">
        <ele>1955.691</ele>
        <time>2020-07-22T12:39:15Z</time>
      </trkpt>
      <trkpt lat="42.811181" lon="-0.137655">
        <ele>1957.081</ele>
        <time>2020-07-22T12:39:24Z</time>
      </trkpt>
      <trkpt lat="42.811128" lon="-0.137631">
        <ele>1961.919</ele>
        <time>2020-07-22T12:39:32Z</time>
      </trkpt>
      <trkpt lat="42.811086" lon="-0.137647">
        <ele>1961.108</ele>
        <time>2020-07-22T12:39:40Z</time>
      </trkpt>
      <trkpt lat="42.811068" lon="-0.137690">
        <ele>1962.154</ele>
        <time>2020-07-22T12:41:53Z</time>
      </trkpt>
      <trkpt lat="42.811028" lon="-0.137733">
        <ele>1965.542</ele>
        <time>2020-07-22T12:42:07Z</time>
      </trkpt>
      <trkpt lat="42.810995" lon="-0.137777">
        <ele>1964.445</ele>
        <time>2020-07-22T12:42:14Z</time>
      </trkpt>
      <trkpt lat="42.810955" lon="-0.137808">
        <ele>1966.218</ele>
        <time>2020-07-22T12:42:20Z</time>
      </trkpt>
      <trkpt lat="42.810917" lon="-0.137849">
        <ele>1968.314</ele>
        <time>2020-07-22T12:42:25Z</time>
      </trkpt>
      <trkpt lat="42.810872" lon="-0.137876">
        <ele>1968.090</ele>
        <time>2020-07-22T12:42:33Z</time>
      </trkpt>
      <trkpt lat="42.810840" lon="-0.137926">
        <ele>1968.989</ele>
        <time>2020-07-22T12:42:41Z</time>
      </trkpt>
      <trkpt lat="42.810808" lon="-0.137977">
        <ele>1969.083</ele>
        <time>2020-07-22T12:42:48Z</time>
      </trkpt>
      <trkpt lat="42.810777" lon="-0.138025">
        <ele>1967.846</ele>
        <time>2020-07-22T12:42:54Z</time>
      </trkpt>
      <trkpt lat="42.810747" lon="-0.138072">
        <ele>1970.488</ele>
        <time>2020-07-22T12:43:01Z</time>
      </trkpt>
      <trkpt lat="42.810707" lon="-0.138106">
        <ele>1971.416</ele>
        <time>2020-07-22T12:43:08Z</time>
      </trkpt>
      <trkpt lat="42.810663" lon="-0.138130">
        <ele>1971.208</ele>
        <time>2020-07-22T12:43:18Z</time>
      </trkpt>
      <trkpt lat="42.810617" lon="-0.138142">
        <ele>1973.459</ele>
        <time>2020-07-22T12:43:26Z</time>
      </trkpt>
      <trkpt lat="42.810572" lon="-0.138166">
        <ele>1973.317</ele>
        <time>2020-07-22T12:43:31Z</time>
      </trkpt>
      <trkpt lat="42.810521" lon="-0.138182">
        <ele>1972.580</ele>
        <time>2020-07-22T12:43:40Z</time>
      </trkpt>
      <trkpt lat="42.810468" lon="-0.138167">
        <ele>1971.233</ele>
        <time>2020-07-22T12:43:50Z</time>
      </trkpt>
      <trkpt lat="42.810424" lon="-0.138160">
        <ele>1972.329</ele>
        <time>2020-07-22T12:43:56Z</time>
      </trkpt>
      <trkpt lat="42.810362" lon="-0.138134">
        <ele>1970.765</ele>
        <time>2020-07-22T12:44:05Z</time>
      </trkpt>
      <trkpt lat="42.810313" lon="-0.138116">
        <ele>1971.644</ele>
        <time>2020-07-22T12:44:12Z</time>
      </trkpt>
      <trkpt lat="42.810268" lon="-0.138092">
        <ele>1970.158</ele>
        <time>2020-07-22T12:44:18Z</time>
      </trkpt>
      <trkpt lat="42.810234" lon="-0.138050">
        <ele>1970.477</ele>
        <time>2020-07-22T12:44:24Z</time>
      </trkpt>
      <trkpt lat="42.810188" lon="-0.138017">
        <ele>1971.361</ele>
        <time>2020-07-22T12:44:28Z</time>
      </trkpt>
      <trkpt lat="42.810134" lon="-0.137999">
        <ele>1969.927</ele>
        <time>2020-07-22T12:44:33Z</time>
      </trkpt>
      <trkpt lat="42.810090" lon="-0.137973">
        <ele>1970.808</ele>
        <time>2020-07-22T12:44:39Z</time>
      </trkpt>
      <trkpt lat="42.810036" lon="-0.137950">
        <ele>1970.442</ele>
        <time>2020-07-22T12:44:46Z</time>
      </trkpt>
      <trkpt lat="42.809993" lon="-0.137929">
        <ele>1972.440</ele>
        <time>2020-07-22T12:44:53Z</time>
      </trkpt>
      <trkpt lat="42.809955" lon="-0.137896">
        <ele>1973.473</ele>
        <time>2020-07-22T12:44:56Z</time>
      </trkpt>
      <trkpt lat="42.809930" lon="-0.137853">
        <ele>1978.296</ele>
        <time>2020-07-22T12:47:17Z</time>
      </trkpt>
      <trkpt lat="42.809900" lon="-0.137803">
        <ele>1981.262</ele>
        <time>2020-07-22T12:47:18Z</time>
      </trkpt>
      <trkpt lat="42.809882" lon="-0.137769">
        <ele>1981.288</ele>
        <time>2020-07-22T12:47:19Z</time>
      </trkpt>
      <trkpt lat="42.809869" lon="-0.137732">
        <ele>1981.387</ele>
        <time>2020-07-22T12:47:20Z</time>
      </trkpt>
      <trkpt lat="42.809855" lon="-0.137696">
        <ele>1981.411</ele>
        <time>2020-07-22T12:47:21Z</time>
      </trkpt>
      <trkpt lat="42.809827" lon="-0.137674">
        <ele>1981.492</ele>
        <time>2020-07-22T12:47:23Z</time>
      </trkpt>
      <trkpt lat="42.809805" lon="-0.137650">
        <ele>1981.573</ele>
        <time>2020-07-22T12:47:24Z</time>
      </trkpt>
      <trkpt lat="42.809784" lon="-0.137619">
        <ele>1981.620</ele>
        <time>2020-07-22T12:47:25Z</time>
      </trkpt>
      <trkpt lat="42.809751" lon="-0.137589">
        <ele>1981.708</ele>
        <time>2020-07-22T12:47:26Z</time>
      </trkpt>
      <trkpt lat="42.809723" lon="-0.137563">
        <ele>1981.744</ele>
        <time>2020-07-22T12:47:28Z</time>
      </trkpt>
      <trkpt lat="42.809700" lon="-0.137532">
        <ele>1981.832</ele>
        <time>2020-07-22T12:47:29Z</time>
      </trkpt>
      <trkpt lat="42.809679" lon="-0.137513">
        <ele>1981.995</ele>
        <time>2020-07-22T12:47:30Z</time>
      </trkpt>
      <trkpt lat="42.809662" lon="-0.137470">
        <ele>1981.918</ele>
        <time>2020-07-22T12:47:31Z</time>
      </trkpt>
      <trkpt lat="42.809651" lon="-0.137431">
        <ele>1982.064</ele>
        <time>2020-07-22T12:47:32Z</time>
      </trkpt>
      <trkpt lat="42.809632" lon="-0.137383">
        <ele>1982.180</ele>
        <time>2020-07-22T12:47:34Z</time>
      </trkpt>
      <trkpt lat="42.809614" lon="-0.137313">
        <ele>1982.159</ele>
        <time>2020-07-22T12:47:35Z</time>
      </trkpt>
      <trkpt lat="42.809592" lon="-0.137258">
        <ele>1982.223</ele>
        <time>2020-07-22T12:47:36Z</time>
      </trkpt>
      <trkpt lat="42.809559" lon="-0.137249">
        <ele>1982.333</ele>
        <time>2020-07-22T12:47:38Z</time>
      </trkpt>
      <trkpt lat="42.809525" lon="-0.137234">
        <ele>1982.423</ele>
        <time>2020-07-22T12:47:39Z</time>
      </trkpt>
      <trkpt lat="42.809473" lon="-0.137193">
        <ele>1982.515</ele>
        <time>2020-07-22T12:47:41Z</time>
      </trkpt>
      <trkpt lat="42.809433" lon="-0.137173">
        <ele>1982.608</ele>
        <time>2020-07-22T12:47:43Z</time>
      </trkpt>
      <trkpt lat="42.809411" lon="-0.137134">
        <ele>1982.748</ele>
        <time>2020-07-22T12:47:44Z</time>
      </trkpt>
      <trkpt lat="42.809390" lon="-0.137113">
        <ele>1982.756</ele>
        <time>2020-07-22T12:47:45Z</time>
      </trkpt>
      <trkpt lat="42.809371" lon="-0.137064">
        <ele>1982.849</ele>
        <time>2020-07-22T12:47:46Z</time>
      </trkpt>
      <trkpt lat="42.809350" lon="-0.137012">
        <ele>1982.922</ele>
        <time>2020-07-22T12:47:48Z</time>
      </trkpt>
      <trkpt lat="42.809321" lon="-0.136977">
        <ele>1983.068</ele>
        <time>2020-07-22T12:47:49Z</time>
      </trkpt>
      <trkpt lat="42.809290" lon="-0.136952">
        <ele>1983.044</ele>
        <time>2020-07-22T12:47:50Z</time>
      </trkpt>
      <trkpt lat="42.809258" lon="-0.136912">
        <ele>1983.173</ele>
        <time>2020-07-22T12:47:52Z</time>
      </trkpt>
      <trkpt lat="42.809229" lon="-0.136872">
        <ele>1983.287</ele>
        <time>2020-07-22T12:47:53Z</time>
      </trkpt>
      <trkpt lat="42.809206" lon="-0.136824">
        <ele>1983.374</ele>
        <time>2020-07-22T12:47:55Z</time>
      </trkpt>
      <trkpt lat="42.809194" lon="-0.136788">
        <ele>1983.356</ele>
        <time>2020-07-22T12:47:56Z</time>
      </trkpt>
      <trkpt lat="42.809178" lon="-0.136742">
        <ele>1983.421</ele>
        <time>2020-07-22T12:47:57Z</time>
      </trkpt>
      <trkpt lat="42.809148" lon="-0.136695">
        <ele>1984.008</ele>
        <time>2020-07-22T12:48:02Z</time>
      </trkpt>
      <trkpt lat="42.809103" lon="-0.136645">
        <ele>1984.612</ele>
        <time>2020-07-22T12:48:09Z</time>
      </trkpt>
      <trkpt lat="42.809057" lon="-0.136603">
        <ele>1984.560</ele>
        <time>2020-07-22T12:48:14Z</time>
      </trkpt>
      <trkpt lat="42.809018" lon="-0.136567">
        <ele>1983.943</ele>
        <time>2020-07-22T12:48:16Z</time>
      </trkpt>
      <trkpt lat="42.808981" lon="-0.136526">
        <ele>1984.866</ele>
        <time>2020-07-22T12:48:20Z</time>
      </trkpt>
      <trkpt lat="42.808929" lon="-0.136491">
        <ele>1984.422</ele>
        <time>2020-07-22T12:48:25Z</time>
      </trkpt>
      <trkpt lat="42.808880" lon="-0.136472">
        <ele>1982.428</ele>
        <time>2020-07-22T12:48:30Z</time>
      </trkpt>
      <trkpt lat="42.808832" lon="-0.136438">
        <ele>1984.777</ele>
        <time>2020-07-22T12:48:36Z</time>
      </trkpt>
      <trkpt lat="42.808785" lon="-0.136410">
        <ele>1986.121</ele>
        <time>2020-07-22T12:48:41Z</time>
      </trkpt>
      <trkpt lat="42.808722" lon="-0.136424">
        <ele>1984.645</ele>
        <time>2020-07-22T12:48:49Z</time>
      </trkpt>
      <trkpt lat="42.808675" lon="-0.136436">
        <ele>1986.847</ele>
        <time>2020-07-22T12:48:53Z</time>
      </trkpt>
      <trkpt lat="42.808634" lon="-0.136471">
        <ele>1985.411</ele>
        <time>2020-07-22T12:48:58Z</time>
      </trkpt>
      <trkpt lat="42.808604" lon="-0.136522">
        <ele>1985.908</ele>
        <time>2020-07-22T12:49:03Z</time>
      </trkpt>
      <trkpt lat="42.808595" lon="-0.136566">
        <ele>1984.979</ele>
        <time>2020-07-22T12:49:09Z</time>
      </trkpt>
      <trkpt lat="42.808601" lon="-0.136614">
        <ele>1985.887</ele>
        <time>2020-07-22T12:50:49Z</time>
      </trkpt>
      <trkpt lat="42.808632" lon="-0.136651">
        <ele>1983.940</ele>
        <time>2020-07-22T12:51:37Z</time>
      </trkpt>
      <trkpt lat="42.808661" lon="-0.136705">
        <ele>1985.243</ele>
        <time>2020-07-22T12:51:43Z</time>
      </trkpt>
      <trkpt lat="42.808688" lon="-0.136767">
        <ele>1984.469</ele>
        <time>2020-07-22T12:51:47Z</time>
      </trkpt>
      <trkpt lat="42.808679" lon="-0.136830">
        <ele>1986.125</ele>
        <time>2020-07-22T12:51:52Z</time>
      </trkpt>
      <trkpt lat="42.808631" lon="-0.136835">
        <ele>1986.034</ele>
        <time>2020-07-22T12:51:58Z</time>
      </trkpt>
      <trkpt lat="42.808579" lon="-0.136825">
        <ele>1985.048</ele>
        <time>2020-07-22T12:52:04Z</time>
      </trkpt>
      <trkpt lat="42.808531" lon="-0.136865">
        <ele>1984.965</ele>
        <time>2020-07-22T12:52:10Z</time>
      </trkpt>
      <trkpt lat="42.808490" lon="-0.136909">
        <ele>1985.168</ele>
        <time>2020-07-22T12:52:14Z</time>
      </trkpt>
      <trkpt lat="42.808440" lon="-0.136916">
        <ele>1985.314</ele>
        <time>2020-07-22T12:52:20Z</time>
      </trkpt>
      <trkpt lat="42.808385" lon="-0.136903">
        <ele>1984.608</ele>
        <time>2020-07-22T12:52:26Z</time>
      </trkpt>
      <trkpt lat="42.808334" lon="-0.136884">
        <ele>1984.821</ele>
        <time>2020-07-22T12:52:33Z</time>
      </trkpt>
      <trkpt lat="42.808291" lon="-0.136829">
        <ele>1985.299</ele>
        <time>2020-07-22T12:52:41Z</time>
      </trkpt>
      <trkpt lat="42.808243" lon="-0.136812">
        <ele>1985.962</ele>
        <time>2020-07-22T12:52:46Z</time>
      </trkpt>
      <trkpt lat="42.808197" lon="-0.136803">
        <ele>1985.075</ele>
        <time>2020-07-22T12:52:50Z</time>
      </trkpt>
      <trkpt lat="42.808144" lon="-0.136789">
        <ele>1986.111</ele>
        <time>2020-07-22T12:52:56Z</time>
      </trkpt>
      <trkpt lat="42.808090" lon="-0.136792">
        <ele>1985.217</ele>
        <time>2020-07-22T12:53:02Z</time>
      </trkpt>
      <trkpt lat="42.808041" lon="-0.136785">
        <ele>1985.016</ele>
        <time>2020-07-22T12:53:07Z</time>
      </trkpt>
      <trkpt lat="42.807997" lon="-0.136768">
        <ele>1985.440</ele>
        <time>2020-07-22T12:53:14Z</time>
      </trkpt>
      <trkpt lat="42.807966" lon="-0.136718">
        <ele>1985.417</ele>
        <time>2020-07-22T12:53:19Z</time>
      </trkpt>
      <trkpt lat="42.807929" lon="-0.136680">
        <ele>1984.787</ele>
        <time>2020-07-22T12:53:24Z</time>
      </trkpt>
      <trkpt lat="42.807882" lon="-0.136676">
        <ele>1984.615</ele>
        <time>2020-07-22T12:53:29Z</time>
      </trkpt>
      <trkpt lat="42.807833" lon="-0.136687">
        <ele>1985.708</ele>
        <time>2020-07-22T12:53:35Z</time>
      </trkpt>
      <trkpt lat="42.807779" lon="-0.136697">
        <ele>1985.686</ele>
        <time>2020-07-22T12:53:43Z</time>
      </trkpt>
      <trkpt lat="42.807730" lon="-0.136720">
        <ele>1985.474</ele>
        <time>2020-07-22T12:53:48Z</time>
      </trkpt>
      <trkpt lat="42.807681" lon="-0.136708">
        <ele>1984.827</ele>
        <time>2020-07-22T12:53:53Z</time>
      </trkpt>
      <trkpt lat="42.807634" lon="-0.136698">
        <ele>1985.540</ele>
        <time>2020-07-22T12:53:58Z</time>
      </trkpt>
      <trkpt lat="42.807582" lon="-0.136676">
        <ele>1986.066</ele>
        <time>2020-07-22T12:54:06Z</time>
      </trkpt>
      <trkpt lat="42.807536" lon="-0.136622">
        <ele>1985.962</ele>
        <time>2020-07-22T12:54:12Z</time>
      </trkpt>
      <trkpt lat="42.807497" lon="-0.136584">
        <ele>1985.621</ele>
        <time>2020-07-22T12:54:17Z</time>
      </trkpt>
      <trkpt lat="42.807457" lon="-0.136551">
        <ele>1985.335</ele>
        <time>2020-07-22T12:54:21Z</time>
      </trkpt>
      <trkpt lat="42.807404" lon="-0.136550">
        <ele>1985.042</ele>
        <time>2020-07-22T12:54:27Z</time>
      </trkpt>
      <trkpt lat="42.807360" lon="-0.136577">
        <ele>1986.222</ele>
        <time>2020-07-22T12:54:32Z</time>
      </trkpt>
      <trkpt lat="42.807319" lon="-0.136609">
        <ele>1986.414</ele>
        <time>2020-07-22T12:54:37Z</time>
      </trkpt>
      <trkpt lat="42.807269" lon="-0.136631">
        <ele>1984.308</ele>
        <time>2020-07-22T12:54:44Z</time>
      </trkpt>
      <trkpt lat="42.807219" lon="-0.136675">
        <ele>1985.399</ele>
        <time>2020-07-22T12:54:48Z</time>
      </trkpt>
      <trkpt lat="42.807170" lon="-0.136694">
        <ele>1986.147</ele>
        <time>2020-07-22T12:54:53Z</time>
      </trkpt>
      <trkpt lat="42.807121" lon="-0.136675">
        <ele>1984.720</ele>
        <time>2020-07-22T12:55:01Z</time>
      </trkpt>
      <trkpt lat="42.807066" lon="-0.136653">
        <ele>1985.033</ele>
        <time>2020-07-22T12:55:06Z</time>
      </trkpt>
      <trkpt lat="42.807021" lon="-0.136654">
        <ele>1985.729</ele>
        <time>2020-07-22T12:55:12Z</time>
      </trkpt>
      <trkpt lat="42.806975" lon="-0.136662">
        <ele>1986.435</ele>
        <time>2020-07-22T12:55:16Z</time>
      </trkpt>
      <trkpt lat="42.806927" lon="-0.136649">
        <ele>1985.824</ele>
        <time>2020-07-22T12:55:21Z</time>
      </trkpt>
      <trkpt lat="42.806881" lon="-0.136628">
        <ele>1985.888</ele>
        <time>2020-07-22T12:55:26Z</time>
      </trkpt>
      <trkpt lat="42.806827" lon="-0.136613">
        <ele>1986.386</ele>
        <time>2020-07-22T12:55:33Z</time>
      </trkpt>
      <trkpt lat="42.806783" lon="-0.136597">
        <ele>1986.160</ele>
        <time>2020-07-22T12:55:39Z</time>
      </trkpt>
      <trkpt lat="42.806729" lon="-0.136590">
        <ele>1988.226</ele>
        <time>2020-07-22T12:55:43Z</time>
      </trkpt>
      <trkpt lat="42.806674" lon="-0.136601">
        <ele>1988.108</ele>
        <time>2020-07-22T12:55:50Z</time>
      </trkpt>
      <trkpt lat="42.806628" lon="-0.136597">
        <ele>1986.593</ele>
        <time>2020-07-22T12:55:53Z</time>
      </trkpt>
      <trkpt lat="42.806575" lon="-0.136601">
        <ele>1987.091</ele>
        <time>2020-07-22T12:56:00Z</time>
      </trkpt>
      <trkpt lat="42.806521" lon="-0.136610">
        <ele>1987.814</ele>
        <time>2020-07-22T12:56:04Z</time>
      </trkpt>
      <trkpt lat="42.806469" lon="-0.136615">
        <ele>1987.777</ele>
        <time>2020-07-22T12:56:09Z</time>
      </trkpt>
      <trkpt lat="42.806422" lon="-0.136600">
        <ele>1987.663</ele>
        <time>2020-07-22T12:56:14Z</time>
      </trkpt>
      <trkpt lat="42.806373" lon="-0.136595">
        <ele>1990.299</ele>
        <time>2020-07-22T12:56:20Z</time>
      </trkpt>
      <trkpt lat="42.806327" lon="-0.136625">
        <ele>1990.558</ele>
        <time>2020-07-22T12:56:26Z</time>
      </trkpt>
      <trkpt lat="42.806292" lon="-0.136670">
        <ele>1991.312</ele>
        <time>2020-07-22T12:56:31Z</time>
      </trkpt>
      <trkpt lat="42.806254" lon="-0.136714">
        <ele>1991.376</ele>
        <time>2020-07-22T12:56:36Z</time>
      </trkpt>
      <trkpt lat="42.806218" lon="-0.136761">
        <ele>1992.090</ele>
        <time>2020-07-22T12:56:43Z</time>
      </trkpt>
      <trkpt lat="42.806184" lon="-0.136812">
        <ele>1992.619</ele>
        <time>2020-07-22T12:56:51Z</time>
      </trkpt>
      <trkpt lat="42.806157" lon="-0.136864">
        <ele>1992.108</ele>
        <time>2020-07-22T12:56:55Z</time>
      </trkpt>
      <trkpt lat="42.806125" lon="-0.136923">
        <ele>1993.912</ele>
        <time>2020-07-22T12:57:03Z</time>
      </trkpt>
      <trkpt lat="42.806101" lon="-0.136985">
        <ele>1992.120</ele>
        <time>2020-07-22T12:57:09Z</time>
      </trkpt>
      <trkpt lat="42.806092" lon="-0.137050">
        <ele>1994.163</ele>
        <time>2020-07-22T12:57:16Z</time>
      </trkpt>
      <trkpt lat="42.806074" lon="-0.137112">
        <ele>1995.696</ele>
        <time>2020-07-22T12:57:23Z</time>
      </trkpt>
      <trkpt lat="42.806042" lon="-0.137160">
        <ele>1995.452</ele>
        <time>2020-07-22T12:57:31Z</time>
      </trkpt>
      <trkpt lat="42.806007" lon="-0.137200">
        <ele>1994.478</ele>
        <time>2020-07-22T12:57:35Z</time>
      </trkpt>
      <trkpt lat="42.805970" lon="-0.137250">
        <ele>1995.157</ele>
        <time>2020-07-22T12:57:43Z</time>
      </trkpt>
      <trkpt lat="42.805954" lon="-0.137309">
        <ele>1996.381</ele>
        <time>2020-07-22T12:57:51Z</time>
      </trkpt>
      <trkpt lat="42.805926" lon="-0.137363">
        <ele>1998.354</ele>
        <time>2020-07-22T12:57:57Z</time>
      </trkpt>
      <trkpt lat="42.805882" lon="-0.137392">
        <ele>1997.756</ele>
        <time>2020-07-22T12:58:05Z</time>
      </trkpt>
      <trkpt lat="42.805842" lon="-0.137424">
        <ele>1999.611</ele>
        <time>2020-07-22T12:58:10Z</time>
      </trkpt>
      <trkpt lat="42.805814" lon="-0.137478">
        <ele>2001.308</ele>
        <time>2020-07-22T12:58:20Z</time>
      </trkpt>
      <trkpt lat="42.805795" lon="-0.137542">
        <ele>2001.160</ele>
        <time>2020-07-22T12:59:36Z</time>
      </trkpt>
      <trkpt lat="42.805755" lon="-0.137577">
        <ele>2002.978</ele>
        <time>2020-07-22T12:59:50Z</time>
      </trkpt>
      <trkpt lat="42.805712" lon="-0.137622">
        <ele>2004.281</ele>
        <time>2020-07-22T12:59:54Z</time>
      </trkpt>
      <trkpt lat="42.805678" lon="-0.137676">
        <ele>2006.494</ele>
        <time>2020-07-22T13:00:02Z</time>
      </trkpt>
      <trkpt lat="42.805622" lon="-0.137688">
        <ele>2005.440</ele>
        <time>2020-07-22T13:00:10Z</time>
      </trkpt>
      <trkpt lat="42.805574" lon="-0.137681">
        <ele>2005.616</ele>
        <time>2020-07-22T13:00:16Z</time>
      </trkpt>
      <trkpt lat="42.805529" lon="-0.137671">
        <ele>2006.895</ele>
        <time>2020-07-22T13:00:21Z</time>
      </trkpt>
      <trkpt lat="42.805482" lon="-0.137690">
        <ele>2006.679</ele>
        <time>2020-07-22T13:00:29Z</time>
      </trkpt>
      <trkpt lat="42.805439" lon="-0.137663">
        <ele>2008.979</ele>
        <time>2020-07-22T13:00:38Z</time>
      </trkpt>
      <trkpt lat="42.805431" lon="-0.137605">
        <ele>2008.405</ele>
        <time>2020-07-22T13:00:44Z</time>
      </trkpt>
      <trkpt lat="42.805401" lon="-0.137553">
        <ele>2008.725</ele>
        <time>2020-07-22T13:00:50Z</time>
      </trkpt>
      <trkpt lat="42.805354" lon="-0.137523">
        <ele>2009.508</ele>
        <time>2020-07-22T13:00:57Z</time>
      </trkpt>
      <trkpt lat="42.805303" lon="-0.137528">
        <ele>2010.152</ele>
        <time>2020-07-22T13:01:05Z</time>
      </trkpt>
      <trkpt lat="42.805266" lon="-0.137494">
        <ele>2011.880</ele>
        <time>2020-07-22T13:01:11Z</time>
      </trkpt>
      <trkpt lat="42.805223" lon="-0.137484">
        <ele>2011.143</ele>
        <time>2020-07-22T13:01:19Z</time>
      </trkpt>
      <trkpt lat="42.805185" lon="-0.137451">
        <ele>2014.646</ele>
        <time>2020-07-22T13:01:34Z</time>
      </trkpt>
      <trkpt lat="42.805143" lon="-0.137416">
        <ele>2014.632</ele>
        <time>2020-07-22T13:01:43Z</time>
      </trkpt>
      <trkpt lat="42.805095" lon="-0.137394">
        <ele>2016.888</ele>
        <time>2020-07-22T13:01:50Z</time>
      </trkpt>
      <trkpt lat="42.805052" lon="-0.137364">
        <ele>2017.497</ele>
        <time>2020-07-22T13:01:59Z</time>
      </trkpt>
      <trkpt lat="42.805005" lon="-0.137372">
        <ele>2016.941</ele>
        <time>2020-07-22T13:02:05Z</time>
      </trkpt>
      <trkpt lat="42.804957" lon="-0.137381">
        <ele>2017.299</ele>
        <time>2020-07-22T13:02:10Z</time>
      </trkpt>
      <trkpt lat="42.804909" lon="-0.137385">
        <ele>2016.607</ele>
        <time>2020-07-22T13:02:18Z</time>
      </trkpt>
      <trkpt lat="42.804864" lon="-0.137419">
        <ele>2018.627</ele>
        <time>2020-07-22T13:02:27Z</time>
      </trkpt>
      <trkpt lat="42.804816" lon="-0.137459">
        <ele>2020.308</ele>
        <time>2020-07-22T13:02:33Z</time>
      </trkpt>
      <trkpt lat="42.804768" lon="-0.137451">
        <ele>2023.054</ele>
        <time>2020-07-22T13:04:29Z</time>
      </trkpt>
      <trkpt lat="42.804722" lon="-0.137455">
        <ele>2020.452</ele>
        <time>2020-07-22T13:04:34Z</time>
      </trkpt>
      <trkpt lat="42.804676" lon="-0.137474">
        <ele>2022.755</ele>
        <time>2020-07-22T13:04:42Z</time>
      </trkpt>
      <trkpt lat="42.804621" lon="-0.137473">
        <ele>2025.058</ele>
        <time>2020-07-22T13:04:48Z</time>
      </trkpt>
      <trkpt lat="42.804573" lon="-0.137466">
        <ele>2025.184</ele>
        <time>2020-07-22T13:04:56Z</time>
      </trkpt>
      <trkpt lat="42.804523" lon="-0.137461">
        <ele>2026.070</ele>
        <time>2020-07-22T13:05:05Z</time>
      </trkpt>
      <trkpt lat="42.804475" lon="-0.137454">
        <ele>2026.949</ele>
        <time>2020-07-22T13:05:14Z</time>
      </trkpt>
      <trkpt lat="42.804425" lon="-0.137436">
        <ele>2026.893</ele>
        <time>2020-07-22T13:05:19Z</time>
      </trkpt>
      <trkpt lat="42.804381" lon="-0.137419">
        <ele>2029.044</ele>
        <time>2020-07-22T13:05:26Z</time>
      </trkpt>
      <trkpt lat="42.804335" lon="-0.137411">
        <ele>2030.205</ele>
        <time>2020-07-22T13:05:36Z</time>
      </trkpt>
      <trkpt lat="42.804285" lon="-0.137408">
        <ele>2030.615</ele>
        <time>2020-07-22T13:05:46Z</time>
      </trkpt>
      <trkpt lat="42.804240" lon="-0.137414">
        <ele>2032.808</ele>
        <time>2020-07-22T13:05:53Z</time>
      </trkpt>
      <trkpt lat="42.804200" lon="-0.137401">
        <ele>2032.519</ele>
        <time>2020-07-22T13:06:06Z</time>
      </trkpt>
      <trkpt lat="42.804155" lon="-0.137377">
        <ele>2036.077</ele>
        <time>2020-07-22T13:06:35Z</time>
      </trkpt>
      <trkpt lat="42.804106" lon="-0.137367">
        <ele>2036.040</ele>
        <time>2020-07-22T13:06:42Z</time>
      </trkpt>
      <trkpt lat="42.804061" lon="-0.137393">
        <ele>2036.933</ele>
        <time>2020-07-22T13:06:47Z</time>
      </trkpt>
      <trkpt lat="42.804018" lon="-0.137438">
        <ele>2035.059</ele>
        <time>2020-07-22T13:06:54Z</time>
      </trkpt>
      <trkpt lat="42.803985" lon="-0.137480">
        <ele>2035.835</ele>
        <time>2020-07-22T13:07:00Z</time>
      </trkpt>
      <trkpt lat="42.803947" lon="-0.137499">
        <ele>2038.044</ele>
        <time>2020-07-22T13:07:10Z</time>
      </trkpt>
      <trkpt lat="42.803894" lon="-0.137501">
        <ele>2038.598</ele>
        <time>2020-07-22T13:07:16Z</time>
      </trkpt>
      <trkpt lat="42.803846" lon="-0.137510">
        <ele>2039.966</ele>
        <time>2020-07-22T13:07:24Z</time>
      </trkpt>
      <trkpt lat="42.803801" lon="-0.137522">
        <ele>2037.229</ele>
        <time>2020-07-22T13:07:28Z</time>
      </trkpt>
      <trkpt lat="42.803755" lon="-0.137558">
        <ele>2039.421</ele>
        <time>2020-07-22T13:07:34Z</time>
      </trkpt>
      <trkpt lat="42.803709" lon="-0.137574">
        <ele>2040.308</ele>
        <time>2020-07-22T13:07:39Z</time>
      </trkpt>
      <trkpt lat="42.803670" lon="-0.137611">
        <ele>2038.811</ele>
        <time>2020-07-22T13:07:44Z</time>
      </trkpt>
      <trkpt lat="42.803632" lon="-0.137647">
        <ele>2038.159</ele>
        <time>2020-07-22T13:07:50Z</time>
      </trkpt>
      <trkpt lat="42.803588" lon="-0.137675">
        <ele>2040.652</ele>
        <time>2020-07-22T13:07:58Z</time>
      </trkpt>
      <trkpt lat="42.803539" lon="-0.137677">
        <ele>2038.925</ele>
        <time>2020-07-22T13:08:03Z</time>
      </trkpt>
      <trkpt lat="42.803497" lon="-0.137701">
        <ele>2038.381</ele>
        <time>2020-07-22T13:08:10Z</time>
      </trkpt>
      <trkpt lat="42.803455" lon="-0.137729">
        <ele>2042.497</ele>
        <time>2020-07-22T13:08:15Z</time>
      </trkpt>
      <trkpt lat="42.803416" lon="-0.137783">
        <ele>2041.586</ele>
        <time>2020-07-22T13:08:21Z</time>
      </trkpt>
      <trkpt lat="42.803377" lon="-0.137833">
        <ele>2042.180</ele>
        <time>2020-07-22T13:08:29Z</time>
      </trkpt>
      <trkpt lat="42.803344" lon="-0.137876">
        <ele>2043.095</ele>
        <time>2020-07-22T13:08:32Z</time>
      </trkpt>
      <trkpt lat="42.803301" lon="-0.137899">
        <ele>2044.049</ele>
        <time>2020-07-22T13:08:39Z</time>
      </trkpt>
      <trkpt lat="42.803244" lon="-0.137887">
        <ele>2042.523</ele>
        <time>2020-07-22T13:08:47Z</time>
      </trkpt>
      <trkpt lat="42.803194" lon="-0.137875">
        <ele>2044.008</ele>
        <time>2020-07-22T13:08:52Z</time>
      </trkpt>
      <trkpt lat="42.803145" lon="-0.137894">
        <ele>2043.864</ele>
        <time>2020-07-22T13:09:01Z</time>
      </trkpt>
      <trkpt lat="42.803099" lon="-0.137913">
        <ele>2046.152</ele>
        <time>2020-07-22T13:09:10Z</time>
      </trkpt>
      <trkpt lat="42.803059" lon="-0.137945">
        <ele>2045.765</ele>
        <time>2020-07-22T13:09:16Z</time>
      </trkpt>
      <trkpt lat="42.803019" lon="-0.137982">
        <ele>2046.998</ele>
        <time>2020-07-22T13:09:22Z</time>
      </trkpt>
      <trkpt lat="42.802977" lon="-0.137989">
        <ele>2047.384</ele>
        <time>2020-07-22T13:09:29Z</time>
      </trkpt>
      <trkpt lat="42.802930" lon="-0.137972">
        <ele>2046.610</ele>
        <time>2020-07-22T13:09:35Z</time>
      </trkpt>
      <trkpt lat="42.802884" lon="-0.137941">
        <ele>2048.619</ele>
        <time>2020-07-22T13:09:39Z</time>
      </trkpt>
      <trkpt lat="42.802832" lon="-0.137936">
        <ele>2048.093</ele>
        <time>2020-07-22T13:09:45Z</time>
      </trkpt>
      <trkpt lat="42.802780" lon="-0.137940">
        <ele>2046.347</ele>
        <time>2020-07-22T13:09:49Z</time>
      </trkpt>
      <trkpt lat="42.802742" lon="-0.137987">
        <ele>2047.729</ele>
        <time>2020-07-22T13:09:56Z</time>
      </trkpt>
      <trkpt lat="42.802705" lon="-0.138029">
        <ele>2047.621</ele>
        <time>2020-07-22T13:10:00Z</time>
      </trkpt>
      <trkpt lat="42.802679" lon="-0.138097">
        <ele>2048.308</ele>
        <time>2020-07-22T13:10:07Z</time>
      </trkpt>
      <trkpt lat="42.802656" lon="-0.138162">
        <ele>2048.019</ele>
        <time>2020-07-22T13:10:15Z</time>
      </trkpt>
      <trkpt lat="42.802639" lon="-0.138219">
        <ele>2047.887</ele>
        <time>2020-07-22T13:10:19Z</time>
      </trkpt>
      <trkpt lat="42.802608" lon="-0.138267">
        <ele>2048.050</ele>
        <time>2020-07-22T13:10:25Z</time>
      </trkpt>
      <trkpt lat="42.802573" lon="-0.138312">
        <ele>2048.043</ele>
        <time>2020-07-22T13:10:32Z</time>
      </trkpt>
      <trkpt lat="42.802528" lon="-0.138347">
        <ele>2048.929</ele>
        <time>2020-07-22T13:10:38Z</time>
      </trkpt>
      <trkpt lat="42.802492" lon="-0.138398">
        <ele>2049.755</ele>
        <time>2020-07-22T13:10:45Z</time>
      </trkpt>
      <trkpt lat="42.802453" lon="-0.138418">
        <ele>2049.014</ele>
        <time>2020-07-22T13:11:08Z</time>
      </trkpt>
      <trkpt lat="42.802406" lon="-0.138456">
        <ele>2048.468</ele>
        <time>2020-07-22T13:11:12Z</time>
      </trkpt>
      <trkpt lat="42.802362" lon="-0.138471">
        <ele>2049.068</ele>
        <time>2020-07-22T13:11:18Z</time>
      </trkpt>
      <trkpt lat="42.802318" lon="-0.138489">
        <ele>2049.442</ele>
        <time>2020-07-22T13:11:21Z</time>
      </trkpt>
      <trkpt lat="42.802273" lon="-0.138523">
        <ele>2048.626</ele>
        <time>2020-07-22T13:11:28Z</time>
      </trkpt>
      <trkpt lat="42.802236" lon="-0.138572">
        <ele>2048.108</ele>
        <time>2020-07-22T13:11:32Z</time>
      </trkpt>
      <trkpt lat="42.802207" lon="-0.138624">
        <ele>2048.971</ele>
        <time>2020-07-22T13:11:37Z</time>
      </trkpt>
      <trkpt lat="42.802166" lon="-0.138670">
        <ele>2048.049</ele>
        <time>2020-07-22T13:11:44Z</time>
      </trkpt>
      <trkpt lat="42.802115" lon="-0.138687">
        <ele>2048.152</ele>
        <time>2020-07-22T13:11:49Z</time>
      </trkpt>
      <trkpt lat="42.802065" lon="-0.138697">
        <ele>2049.125</ele>
        <time>2020-07-22T13:11:52Z</time>
      </trkpt>
      <trkpt lat="42.802006" lon="-0.138729">
        <ele>2047.721</ele>
        <time>2020-07-22T13:11:58Z</time>
      </trkpt>
      <trkpt lat="42.801963" lon="-0.138753">
        <ele>2048.577</ele>
        <time>2020-07-22T13:12:04Z</time>
      </trkpt>
      <trkpt lat="42.801915" lon="-0.138778">
        <ele>2049.466</ele>
        <time>2020-07-22T13:12:09Z</time>
      </trkpt>
      <trkpt lat="42.801869" lon="-0.138781">
        <ele>2049.750</ele>
        <time>2020-07-22T13:12:15Z</time>
      </trkpt>
      <trkpt lat="42.801825" lon="-0.138800">
        <ele>2048.822</ele>
        <time>2020-07-22T13:12:20Z</time>
      </trkpt>
      <trkpt lat="42.801779" lon="-0.138837">
        <ele>2048.262</ele>
        <time>2020-07-22T13:12:26Z</time>
      </trkpt>
      <trkpt lat="42.801732" lon="-0.138863">
        <ele>2047.508</ele>
        <time>2020-07-22T13:12:31Z</time>
      </trkpt>
      <trkpt lat="42.801686" lon="-0.138874">
        <ele>2048.308</ele>
        <time>2020-07-22T13:12:37Z</time>
      </trkpt>
      <trkpt lat="42.801637" lon="-0.138875">
        <ele>2049.277</ele>
        <time>2020-07-22T13:12:44Z</time>
      </trkpt>
      <trkpt lat="42.801587" lon="-0.138858">
        <ele>2047.845</ele>
        <time>2020-07-22T13:12:48Z</time>
      </trkpt>
      <trkpt lat="42.801535" lon="-0.138845">
        <ele>2048.818</ele>
        <time>2020-07-22T13:12:54Z</time>
      </trkpt>
      <trkpt lat="42.801485" lon="-0.138839">
        <ele>2048.881</ele>
        <time>2020-07-22T13:12:57Z</time>
      </trkpt>
      <trkpt lat="42.801430" lon="-0.138824">
        <ele>2048.367</ele>
        <time>2020-07-22T13:13:02Z</time>
      </trkpt>
      <trkpt lat="42.801381" lon="-0.138811">
        <ele>2048.993</ele>
        <time>2020-07-22T13:13:07Z</time>
      </trkpt>
      <trkpt lat="42.801331" lon="-0.138801">
        <ele>2049.752</ele>
        <time>2020-07-22T13:13:10Z</time>
      </trkpt>
      <trkpt lat="42.801285" lon="-0.138799">
        <ele>2048.876</ele>
        <time>2020-07-22T13:13:15Z</time>
      </trkpt>
      <trkpt lat="42.801233" lon="-0.138798">
        <ele>2047.832</ele>
        <time>2020-07-22T13:13:22Z</time>
      </trkpt>
      <trkpt lat="42.801187" lon="-0.138787">
        <ele>2049.592</ele>
        <time>2020-07-22T13:13:27Z</time>
      </trkpt>
      <trkpt lat="42.801136" lon="-0.138781">
        <ele>2048.011</ele>
        <time>2020-07-22T13:13:33Z</time>
      </trkpt>
      <trkpt lat="42.801090" lon="-0.138765">
        <ele>2049.408</ele>
        <time>2020-07-22T13:13:38Z</time>
      </trkpt>
      <trkpt lat="42.801041" lon="-0.138772">
        <ele>2049.288</ele>
        <time>2020-07-22T13:13:42Z</time>
      </trkpt>
      <trkpt lat="42.800998" lon="-0.138809">
        <ele>2048.856</ele>
        <time>2020-07-22T13:13:47Z</time>
      </trkpt>
      <trkpt lat="42.800965" lon="-0.138852">
        <ele>2048.649</ele>
        <time>2020-07-22T13:13:54Z</time>
      </trkpt>
      <trkpt lat="42.800919" lon="-0.138888">
        <ele>2050.162</ele>
        <time>2020-07-22T13:13:58Z</time>
      </trkpt>
      <trkpt lat="42.800870" lon="-0.138902">
        <ele>2050.398</ele>
        <time>2020-07-22T13:14:04Z</time>
      </trkpt>
      <trkpt lat="42.800812" lon="-0.138911">
        <ele>2049.454</ele>
        <time>2020-07-22T13:14:09Z</time>
      </trkpt>
      <trkpt lat="42.800763" lon="-0.138929">
        <ele>2049.073</ele>
        <time>2020-07-22T13:14:16Z</time>
      </trkpt>
      <trkpt lat="42.800719" lon="-0.138955">
        <ele>2047.217</ele>
        <time>2020-07-22T13:14:22Z</time>
      </trkpt>
      <trkpt lat="42.800671" lon="-0.138954">
        <ele>2049.849</ele>
        <time>2020-07-22T13:14:28Z</time>
      </trkpt>
      <trkpt lat="42.800617" lon="-0.138940">
        <ele>2048.602</ele>
        <time>2020-07-22T13:14:34Z</time>
      </trkpt>
      <trkpt lat="42.800567" lon="-0.138929">
        <ele>2050.322</ele>
        <time>2020-07-22T13:14:39Z</time>
      </trkpt>
      <trkpt lat="42.800521" lon="-0.138929">
        <ele>2049.208</ele>
        <time>2020-07-22T13:14:47Z</time>
      </trkpt>
      <trkpt lat="42.800471" lon="-0.138929">
        <ele>2049.369</ele>
        <time>2020-07-22T13:14:53Z</time>
      </trkpt>
      <trkpt lat="42.800420" lon="-0.138933">
        <ele>2049.567</ele>
        <time>2020-07-22T13:14:59Z</time>
      </trkpt>
      <trkpt lat="42.800374" lon="-0.138936">
        <ele>2050.110</ele>
        <time>2020-07-22T13:15:05Z</time>
      </trkpt>
      <trkpt lat="42.800326" lon="-0.138937">
        <ele>2049.823</ele>
        <time>2020-07-22T13:15:10Z</time>
      </trkpt>
      <trkpt lat="42.800278" lon="-0.138922">
        <ele>2047.039</ele>
        <time>2020-07-22T13:15:16Z</time>
      </trkpt>
      <trkpt lat="42.800231" lon="-0.138910">
        <ele>2050.185</ele>
        <time>2020-07-22T13:15:20Z</time>
      </trkpt>
      <trkpt lat="42.800185" lon="-0.138915">
        <ele>2050.344</ele>
        <time>2020-07-22T13:15:26Z</time>
      </trkpt>
      <trkpt lat="42.800130" lon="-0.138917">
        <ele>2050.368</ele>
        <time>2020-07-22T13:15:32Z</time>
      </trkpt>
      <trkpt lat="42.800084" lon="-0.138903">
        <ele>2049.728</ele>
        <time>2020-07-22T13:15:37Z</time>
      </trkpt>
      <trkpt lat="42.800039" lon="-0.138902">
        <ele>2049.789</ele>
        <time>2020-07-22T13:15:42Z</time>
      </trkpt>
      <trkpt lat="42.799985" lon="-0.138910">
        <ele>2050.217</ele>
        <time>2020-07-22T13:15:48Z</time>
      </trkpt>
      <trkpt lat="42.799938" lon="-0.138927">
        <ele>2050.308</ele>
        <time>2020-07-22T13:15:54Z</time>
      </trkpt>
      <trkpt lat="42.799882" lon="-0.138941">
        <ele>2049.627</ele>
        <time>2020-07-22T13:18:13Z</time>
      </trkpt>
      <trkpt lat="42.799828" lon="-0.138945">
        <ele>2051.015</ele>
        <time>2020-07-22T13:18:19Z</time>
      </trkpt>
      <trkpt lat="42.799777" lon="-0.138965">
        <ele>2050.698</ele>
        <time>2020-07-22T13:18:23Z</time>
      </trkpt>
      <trkpt lat="42.799723" lon="-0.138993">
        <ele>2050.391</ele>
        <time>2020-07-22T13:18:28Z</time>
      </trkpt>
      <trkpt lat="42.799671" lon="-0.139020">
        <ele>2051.767</ele>
        <time>2020-07-22T13:18:33Z</time>
      </trkpt>
      <trkpt lat="42.799621" lon="-0.139037">
        <ele>2050.763</ele>
        <time>2020-07-22T13:18:38Z</time>
      </trkpt>
      <trkpt lat="42.799570" lon="-0.139071">
        <ele>2051.392</ele>
        <time>2020-07-22T13:18:43Z</time>
      </trkpt>
      <trkpt lat="42.799530" lon="-0.139112">
        <ele>2050.136</ele>
        <time>2020-07-22T13:18:48Z</time>
      </trkpt>
      <trkpt lat="42.799490" lon="-0.139153">
        <ele>2051.166</ele>
        <time>2020-07-22T13:18:53Z</time>
      </trkpt>
      <trkpt lat="42.799430" lon="-0.139176">
        <ele>2052.029</ele>
        <time>2020-07-22T13:18:58Z</time>
      </trkpt>
      <trkpt lat="42.799381" lon="-0.139167">
        <ele>2052.221</ele>
        <time>2020-07-22T13:19:03Z</time>
      </trkpt>
      <trkpt lat="42.799331" lon="-0.139157">
        <ele>2051.908</ele>
        <time>2020-07-22T13:19:09Z</time>
      </trkpt>
      <trkpt lat="42.799281" lon="-0.139171">
        <ele>2051.851</ele>
        <time>2020-07-22T13:19:14Z</time>
      </trkpt>
      <trkpt lat="42.799230" lon="-0.139191">
        <ele>2051.229</ele>
        <time>2020-07-22T13:19:19Z</time>
      </trkpt>
      <trkpt lat="42.799184" lon="-0.139205">
        <ele>2052.182</ele>
        <time>2020-07-22T13:19:26Z</time>
      </trkpt>
      <trkpt lat="42.799145" lon="-0.139245">
        <ele>2052.945</ele>
        <time>2020-07-22T13:19:33Z</time>
      </trkpt>
      <trkpt lat="42.799099" lon="-0.139276">
        <ele>2052.591</ele>
        <time>2020-07-22T13:19:38Z</time>
      </trkpt>
      <trkpt lat="42.799055" lon="-0.139294">
        <ele>2051.127</ele>
        <time>2020-07-22T13:19:43Z</time>
      </trkpt>
      <trkpt lat="42.799011" lon="-0.139310">
        <ele>2051.526</ele>
        <time>2020-07-22T13:19:48Z</time>
      </trkpt>
      <trkpt lat="42.798960" lon="-0.139330">
        <ele>2051.910</ele>
        <time>2020-07-22T13:19:55Z</time>
      </trkpt>
      <trkpt lat="42.798907" lon="-0.139359">
        <ele>2053.181</ele>
        <time>2020-07-22T13:20:00Z</time>
      </trkpt>
      <trkpt lat="42.798864" lon="-0.139398">
        <ele>2053.661</ele>
        <time>2020-07-22T13:20:05Z</time>
      </trkpt>
      <trkpt lat="42.798816" lon="-0.139421">
        <ele>2053.117</ele>
        <time>2020-07-22T13:20:10Z</time>
      </trkpt>
      <trkpt lat="42.798772" lon="-0.139438">
        <ele>2055.108</ele>
        <time>2020-07-22T13:20:15Z</time>
      </trkpt>
      <trkpt lat="42.798717" lon="-0.139442">
        <ele>2053.163</ele>
        <time>2020-07-22T13:20:21Z</time>
      </trkpt>
      <trkpt lat="42.798667" lon="-0.139420">
        <ele>2052.951</ele>
        <time>2020-07-22T13:20:26Z</time>
      </trkpt>
      <trkpt lat="42.798614" lon="-0.139418">
        <ele>2054.764</ele>
        <time>2020-07-22T13:20:32Z</time>
      </trkpt>
      <trkpt lat="42.798568" lon="-0.139412">
        <ele>2055.537</ele>
        <time>2020-07-22T13:20:38Z</time>
      </trkpt>
      <trkpt lat="42.798522" lon="-0.139396">
        <ele>2054.653</ele>
        <time>2020-07-22T13:20:44Z</time>
      </trkpt>
      <trkpt lat="42.798467" lon="-0.139408">
        <ele>2054.649</ele>
        <time>2020-07-22T13:20:50Z</time>
      </trkpt>
      <trkpt lat="42.798417" lon="-0.139451">
        <ele>2055.098</ele>
        <time>2020-07-22T13:20:56Z</time>
      </trkpt>
      <trkpt lat="42.798362" lon="-0.139475">
        <ele>2055.672</ele>
        <time>2020-07-22T13:21:04Z</time>
      </trkpt>
      <trkpt lat="42.798325" lon="-0.139521">
        <ele>2056.322</ele>
        <time>2020-07-22T13:21:10Z</time>
      </trkpt>
      <trkpt lat="42.798293" lon="-0.139579">
        <ele>2056.162</ele>
        <time>2020-07-22T13:21:17Z</time>
      </trkpt>
      <trkpt lat="42.798256" lon="-0.139622">
        <ele>2056.308</ele>
        <time>2020-07-22T13:21:23Z</time>
      </trkpt>
      <trkpt lat="42.798236" lon="-0.139654">
        <ele>2055.408</ele>
        <time>2020-07-22T13:22:46Z</time>
      </trkpt>
      <trkpt lat="42.798215" lon="-0.139693">
        <ele>2056.697</ele>
        <time>2020-07-22T13:22:51Z</time>
      </trkpt>
      <trkpt lat="42.798192" lon="-0.139749">
        <ele>2055.495</ele>
        <time>2020-07-22T13:23:03Z</time>
      </trkpt>
      <trkpt lat="42.798147" lon="-0.139783">
        <ele>2057.498</ele>
        <time>2020-07-22T13:23:10Z</time>
      </trkpt>
      <trkpt lat="42.798093" lon="-0.139779">
        <ele>2057.851</ele>
        <time>2020-07-22T13:23:15Z</time>
      </trkpt>
      <trkpt lat="42.798039" lon="-0.139768">
        <ele>2058.467</ele>
        <time>2020-07-22T13:23:20Z</time>
      </trkpt>
      <trkpt lat="42.797993" lon="-0.139791">
        <ele>2057.383</ele>
        <time>2020-07-22T13:23:25Z</time>
      </trkpt>
      <trkpt lat="42.797945" lon="-0.139818">
        <ele>2057.262</ele>
        <time>2020-07-22T13:23:32Z</time>
      </trkpt>
      <trkpt lat="42.797905" lon="-0.139863">
        <ele>2057.426</ele>
        <time>2020-07-22T13:23:38Z</time>
      </trkpt>
      <trkpt lat="42.797863" lon="-0.139905">
        <ele>2057.998</ele>
        <time>2020-07-22T13:23:43Z</time>
      </trkpt>
      <trkpt lat="42.797827" lon="-0.139948">
        <ele>2058.315</ele>
        <time>2020-07-22T13:23:49Z</time>
      </trkpt>
      <trkpt lat="42.797781" lon="-0.139959">
        <ele>2058.326</ele>
        <time>2020-07-22T13:23:54Z</time>
      </trkpt>
      <trkpt lat="42.797735" lon="-0.139981">
        <ele>2059.508</ele>
        <time>2020-07-22T13:23:59Z</time>
      </trkpt>
      <trkpt lat="42.797682" lon="-0.140001">
        <ele>2059.934</ele>
        <time>2020-07-22T13:24:05Z</time>
      </trkpt>
      <trkpt lat="42.797632" lon="-0.140023">
        <ele>2060.032</ele>
        <time>2020-07-22T13:24:10Z</time>
      </trkpt>
      <trkpt lat="42.797580" lon="-0.140063">
        <ele>2060.655</ele>
        <time>2020-07-22T13:24:19Z</time>
      </trkpt>
      <trkpt lat="42.797533" lon="-0.140082">
        <ele>2060.278</ele>
        <time>2020-07-22T13:24:24Z</time>
      </trkpt>
      <trkpt lat="42.797489" lon="-0.140103">
        <ele>2059.784</ele>
        <time>2020-07-22T13:24:29Z</time>
      </trkpt>
      <trkpt lat="42.797446" lon="-0.140122">
        <ele>2060.910</ele>
        <time>2020-07-22T13:24:35Z</time>
      </trkpt>
      <trkpt lat="42.797399" lon="-0.140158">
        <ele>2063.619</ele>
        <time>2020-07-22T13:24:42Z</time>
      </trkpt>
      <trkpt lat="42.797354" lon="-0.140181">
        <ele>2063.053</ele>
        <time>2020-07-22T13:24:48Z</time>
      </trkpt>
      <trkpt lat="42.797311" lon="-0.140217">
        <ele>2063.537</ele>
        <time>2020-07-22T13:24:57Z</time>
      </trkpt>
      <trkpt lat="42.797262" lon="-0.140257">
        <ele>2064.549</ele>
        <time>2020-07-22T13:25:03Z</time>
      </trkpt>
      <trkpt lat="42.797218" lon="-0.140293">
        <ele>2064.313</ele>
        <time>2020-07-22T13:25:10Z</time>
      </trkpt>
      <trkpt lat="42.797189" lon="-0.140356">
        <ele>2064.108</ele>
        <time>2020-07-22T13:25:16Z</time>
      </trkpt>
      <trkpt lat="42.797173" lon="-0.140414">
        <ele>2063.398</ele>
        <time>2020-07-22T13:25:21Z</time>
      </trkpt>
      <trkpt lat="42.797128" lon="-0.140460">
        <ele>2065.746</ele>
        <time>2020-07-22T13:25:27Z</time>
      </trkpt>
      <trkpt lat="42.797079" lon="-0.140484">
        <ele>2065.219</ele>
        <time>2020-07-22T13:25:34Z</time>
      </trkpt>
      <trkpt lat="42.797041" lon="-0.140525">
        <ele>2066.822</ele>
        <time>2020-07-22T13:25:42Z</time>
      </trkpt>
      <trkpt lat="42.796992" lon="-0.140550">
        <ele>2069.938</ele>
        <time>2020-07-22T13:25:50Z</time>
      </trkpt>
      <trkpt lat="42.796941" lon="-0.140551">
        <ele>2067.754</ele>
        <time>2020-07-22T13:25:55Z</time>
      </trkpt>
      <trkpt lat="42.796895" lon="-0.140563">
        <ele>2069.173</ele>
        <time>2020-07-22T13:26:01Z</time>
      </trkpt>
      <trkpt lat="42.796854" lon="-0.140599">
        <ele>2069.957</ele>
        <time>2020-07-22T13:26:06Z</time>
      </trkpt>
      <trkpt lat="42.796821" lon="-0.140657">
        <ele>2069.154</ele>
        <time>2020-07-22T13:26:14Z</time>
      </trkpt>
      <trkpt lat="42.796776" lon="-0.140670">
        <ele>2070.156</ele>
        <time>2020-07-22T13:26:21Z</time>
      </trkpt>
      <trkpt lat="42.796728" lon="-0.140674">
        <ele>2070.911</ele>
        <time>2020-07-22T13:26:27Z</time>
      </trkpt>
      <trkpt lat="42.796680" lon="-0.140669">
        <ele>2071.408</ele>
        <time>2020-07-22T13:26:32Z</time>
      </trkpt>
      <trkpt lat="42.796629" lon="-0.140674">
        <ele>2069.680</ele>
        <time>2020-07-22T13:26:39Z</time>
      </trkpt>
      <trkpt lat="42.796581" lon="-0.140686">
        <ele>2070.018</ele>
        <time>2020-07-22T13:26:44Z</time>
      </trkpt>
      <trkpt lat="42.796539" lon="-0.140663">
        <ele>2073.461</ele>
        <time>2020-07-22T13:26:53Z</time>
      </trkpt>
      <trkpt lat="42.796495" lon="-0.140687">
        <ele>2073.314</ele>
        <time>2020-07-22T13:26:59Z</time>
      </trkpt>
      <trkpt lat="42.796460" lon="-0.140742">
        <ele>2073.640</ele>
        <time>2020-07-22T13:27:05Z</time>
      </trkpt>
      <trkpt lat="42.796416" lon="-0.140774">
        <ele>2074.446</ele>
        <time>2020-07-22T13:27:11Z</time>
      </trkpt>
      <trkpt lat="42.796391" lon="-0.140829">
        <ele>2073.225</ele>
        <time>2020-07-22T13:27:17Z</time>
      </trkpt>
      <trkpt lat="42.796369" lon="-0.140893">
        <ele>2074.279</ele>
        <time>2020-07-22T13:27:23Z</time>
      </trkpt>
      <trkpt lat="42.796325" lon="-0.140922">
        <ele>2076.522</ele>
        <time>2020-07-22T13:27:30Z</time>
      </trkpt>
      <trkpt lat="42.796279" lon="-0.140940">
        <ele>2077.462</ele>
        <time>2020-07-22T13:27:38Z</time>
      </trkpt>
      <trkpt lat="42.796233" lon="-0.140959">
        <ele>2078.108</ele>
        <time>2020-07-22T13:27:46Z</time>
      </trkpt>
      <trkpt lat="42.796180" lon="-0.140970">
        <ele>2077.908</ele>
        <time>2020-07-22T13:27:54Z</time>
      </trkpt>
      <trkpt lat="42.796146" lon="-0.141011">
        <ele>2080.327</ele>
        <time>2020-07-22T13:28:03Z</time>
      </trkpt>
      <trkpt lat="42.796105" lon="-0.141028">
        <ele>2080.885</ele>
        <time>2020-07-22T13:28:11Z</time>
      </trkpt>
      <trkpt lat="42.796059" lon="-0.141048">
        <ele>2079.388</ele>
        <time>2020-07-22T13:28:18Z</time>
      </trkpt>
      <trkpt lat="42.796014" lon="-0.141075">
        <ele>2079.441</ele>
        <time>2020-07-22T13:28:25Z</time>
      </trkpt>
      <trkpt lat="42.795976" lon="-0.141122">
        <ele>2082.917</ele>
        <time>2020-07-22T13:28:35Z</time>
      </trkpt>
      <trkpt lat="42.795926" lon="-0.141144">
        <ele>2079.243</ele>
        <time>2020-07-22T13:28:42Z</time>
      </trkpt>
      <trkpt lat="42.795883" lon="-0.141169">
        <ele>2084.252</ele>
        <time>2020-07-22T13:28:49Z</time>
      </trkpt>
      <trkpt lat="42.795883" lon="-0.141247">
        <ele>2086.296</ele>
        <time>2020-07-22T13:28:56Z</time>
      </trkpt>
      <trkpt lat="42.795917" lon="-0.141290">
        <ele>2083.925</ele>
        <time>2020-07-22T13:28:59Z</time>
      </trkpt>
      <trkpt lat="42.795955" lon="-0.141338">
        <ele>2085.226</ele>
        <time>2020-07-22T13:29:06Z</time>
      </trkpt>
      <trkpt lat="42.795935" lon="-0.141412">
        <ele>2087.108</ele>
        <time>2020-07-22T13:29:14Z</time>
      </trkpt>
      <trkpt lat="42.795910" lon="-0.141468">
        <ele>2087.908</ele>
        <time>2020-07-22T13:29:19Z</time>
      </trkpt>
      <trkpt lat="42.795889" lon="-0.141523">
        <ele>2087.867</ele>
        <time>2020-07-22T13:29:26Z</time>
      </trkpt>
      <trkpt lat="42.795928" lon="-0.141554">
        <ele>2087.995</ele>
        <time>2020-07-22T13:30:45Z</time>
      </trkpt>
      <trkpt lat="42.795977" lon="-0.141599">
        <ele>2090.788</ele>
        <time>2020-07-22T13:30:59Z</time>
      </trkpt>
      <trkpt lat="42.795938" lon="-0.141643">
        <ele>2089.381</ele>
        <time>2020-07-22T13:31:13Z</time>
      </trkpt>
      <trkpt lat="42.795879" lon="-0.141656">
        <ele>2091.517</ele>
        <time>2020-07-22T13:31:20Z</time>
      </trkpt>
      <trkpt lat="42.795828" lon="-0.141663">
        <ele>2094.973</ele>
        <time>2020-07-22T13:31:27Z</time>
      </trkpt>
      <trkpt lat="42.795784" lon="-0.141693">
        <ele>2094.282</ele>
        <time>2020-07-22T13:31:33Z</time>
      </trkpt>
      <trkpt lat="42.795737" lon="-0.141717">
        <ele>2095.266</ele>
        <time>2020-07-22T13:31:39Z</time>
      </trkpt>
      <trkpt lat="42.795685" lon="-0.141740">
        <ele>2094.635</ele>
        <time>2020-07-22T13:31:46Z</time>
      </trkpt>
      <trkpt lat="42.795634" lon="-0.141724">
        <ele>2096.786</ele>
        <time>2020-07-22T13:31:54Z</time>
      </trkpt>
      <trkpt lat="42.795589" lon="-0.141735">
        <ele>2098.014</ele>
        <time>2020-07-22T13:32:00Z</time>
      </trkpt>
      <trkpt lat="42.795545" lon="-0.141705">
        <ele>2099.008</ele>
        <time>2020-07-22T13:32:06Z</time>
      </trkpt>
      <trkpt lat="42.795501" lon="-0.141710">
        <ele>2099.448</ele>
        <time>2020-07-22T13:32:14Z</time>
      </trkpt>
      <trkpt lat="42.795454" lon="-0.141712">
        <ele>2100.046</ele>
        <time>2020-07-22T13:32:21Z</time>
      </trkpt>
      <trkpt lat="42.795406" lon="-0.141724">
        <ele>2101.389</ele>
        <time>2020-07-22T13:32:28Z</time>
      </trkpt>
      <trkpt lat="42.795363" lon="-0.141740">
        <ele>2101.792</ele>
        <time>2020-07-22T13:32:36Z</time>
      </trkpt>
      <trkpt lat="42.795314" lon="-0.141723">
        <ele>2102.918</ele>
        <time>2020-07-22T13:32:43Z</time>
      </trkpt>
      <trkpt lat="42.795268" lon="-0.141730">
        <ele>2103.014</ele>
        <time>2020-07-22T13:32:49Z</time>
      </trkpt>
      <trkpt lat="42.795221" lon="-0.141742">
        <ele>2103.533</ele>
        <time>2020-07-22T13:32:57Z</time>
      </trkpt>
      <trkpt lat="42.795182" lon="-0.141782">
        <ele>2104.157</ele>
        <time>2020-07-22T13:33:04Z</time>
      </trkpt>
      <trkpt lat="42.795133" lon="-0.141792">
        <ele>2106.266</ele>
        <time>2020-07-22T13:33:11Z</time>
      </trkpt>
      <trkpt lat="42.795079" lon="-0.141781">
        <ele>2103.729</ele>
        <time>2020-07-22T13:33:18Z</time>
      </trkpt>
      <trkpt lat="42.795027" lon="-0.141765">
        <ele>2108.421</ele>
        <time>2020-07-22T13:33:26Z</time>
      </trkpt>
      <trkpt lat="42.794982" lon="-0.141782">
        <ele>2108.608</ele>
        <time>2020-07-22T13:33:34Z</time>
      </trkpt>
      <trkpt lat="42.794933" lon="-0.141801">
        <ele>2107.861</ele>
        <time>2020-07-22T13:33:41Z</time>
      </trkpt>
      <trkpt lat="42.794904" lon="-0.141852">
        <ele>2108.239</ele>
        <time>2020-07-22T13:33:49Z</time>
      </trkpt>
      <trkpt lat="42.794865" lon="-0.141885">
        <ele>2109.482</ele>
        <time>2020-07-22T13:33:57Z</time>
      </trkpt>
      <trkpt lat="42.794824" lon="-0.141916">
        <ele>2111.355</ele>
        <time>2020-07-22T13:34:01Z</time>
      </trkpt>
      <trkpt lat="42.794805" lon="-0.141972">
        <ele>2113.531</ele>
        <time>2020-07-22T13:35:07Z</time>
      </trkpt>
      <trkpt lat="42.794758" lon="-0.141992">
        <ele>2113.667</ele>
        <time>2020-07-22T13:35:16Z</time>
      </trkpt>
      <trkpt lat="42.794709" lon="-0.142003">
        <ele>2114.226</ele>
        <time>2020-07-22T13:35:21Z</time>
      </trkpt>
      <trkpt lat="42.794654" lon="-0.142023">
        <ele>2114.860</ele>
        <time>2020-07-22T13:35:24Z</time>
      </trkpt>
      <trkpt lat="42.794608" lon="-0.142006">
        <ele>2117.047</ele>
        <time>2020-07-22T13:35:32Z</time>
      </trkpt>
      <trkpt lat="42.794560" lon="-0.142020">
        <ele>2116.629</ele>
        <time>2020-07-22T13:35:41Z</time>
      </trkpt>
      <trkpt lat="42.794511" lon="-0.142040">
        <ele>2113.921</ele>
        <time>2020-07-22T13:35:46Z</time>
      </trkpt>
      <trkpt lat="42.794518" lon="-0.142106">
        <ele>2119.308</ele>
        <time>2020-07-22T13:36:01Z</time>
      </trkpt>
      <trkpt lat="42.794539" lon="-0.142161">
        <ele>2120.379</ele>
        <time>2020-07-22T13:36:10Z</time>
      </trkpt>
      <trkpt lat="42.794581" lon="-0.142200">
        <ele>2122.157</ele>
        <time>2020-07-22T13:36:15Z</time>
      </trkpt>
      <trkpt lat="42.794622" lon="-0.142227">
        <ele>2123.070</ele>
        <time>2020-07-22T13:36:22Z</time>
      </trkpt>
      <trkpt lat="42.794595" lon="-0.142280">
        <ele>2122.853</ele>
        <time>2020-07-22T13:36:33Z</time>
      </trkpt>
      <trkpt lat="42.794548" lon="-0.142294">
        <ele>2124.239</ele>
        <time>2020-07-22T13:36:41Z</time>
      </trkpt>
      <trkpt lat="42.794557" lon="-0.142356">
        <ele>2125.825</ele>
        <time>2020-07-22T13:36:55Z</time>
      </trkpt>
      <trkpt lat="42.794606" lon="-0.142365">
        <ele>2126.724</ele>
        <time>2020-07-22T13:37:06Z</time>
      </trkpt>
      <trkpt lat="42.794663" lon="-0.142346">
        <ele>2127.238</ele>
        <time>2020-07-22T13:37:16Z</time>
      </trkpt>
      <trkpt lat="42.794699" lon="-0.142297">
        <ele>2125.498</ele>
        <time>2020-07-22T13:37:21Z</time>
      </trkpt>
      <trkpt lat="42.794742" lon="-0.142276">
        <ele>2128.615</ele>
        <time>2020-07-22T13:37:27Z</time>
      </trkpt>
      <trkpt lat="42.794788" lon="-0.142272">
        <ele>2128.826</ele>
        <time>2020-07-22T13:37:33Z</time>
      </trkpt>
      <trkpt lat="42.794840" lon="-0.142256">
        <ele>2131.208</ele>
        <time>2020-07-22T13:37:43Z</time>
      </trkpt>
      <trkpt lat="42.794850" lon="-0.142322">
        <ele>2132.694</ele>
        <time>2020-07-22T13:37:53Z</time>
      </trkpt>
      <trkpt lat="42.794807" lon="-0.142348">
        <ele>2132.092</ele>
        <time>2020-07-22T13:38:03Z</time>
      </trkpt>
      <trkpt lat="42.794836" lon="-0.142396">
        <ele>2133.275</ele>
        <time>2020-07-22T13:39:10Z</time>
      </trkpt>
      <trkpt lat="42.794874" lon="-0.142428">
        <ele>2134.678</ele>
        <time>2020-07-22T13:39:14Z</time>
      </trkpt>
      <trkpt lat="42.794917" lon="-0.142468">
        <ele>2135.644</ele>
        <time>2020-07-22T13:39:19Z</time>
      </trkpt>
      <trkpt lat="42.794957" lon="-0.142512">
        <ele>2136.210</ele>
        <time>2020-07-22T13:39:25Z</time>
      </trkpt>
      <trkpt lat="42.794984" lon="-0.142565">
        <ele>2138.379</ele>
        <time>2020-07-22T13:39:32Z</time>
      </trkpt>
      <trkpt lat="42.794953" lon="-0.142610">
        <ele>2134.933</ele>
        <time>2020-07-22T13:39:37Z</time>
      </trkpt>
      <trkpt lat="42.794901" lon="-0.142614">
        <ele>2138.622</ele>
        <time>2020-07-22T13:39:45Z</time>
      </trkpt>
      <trkpt lat="42.794850" lon="-0.142585">
        <ele>2136.562</ele>
        <time>2020-07-22T13:39:51Z</time>
      </trkpt>
      <trkpt lat="42.794803" lon="-0.142582">
        <ele>2138.708</ele>
        <time>2020-07-22T13:39:57Z</time>
      </trkpt>
      <trkpt lat="42.794763" lon="-0.142612">
        <ele>2138.708</ele>
        <time>2020-07-22T13:40:03Z</time>
      </trkpt>
      <trkpt lat="42.794718" lon="-0.142643">
        <ele>2138.017</ele>
        <time>2020-07-22T13:40:10Z</time>
      </trkpt>
      <trkpt lat="42.794686" lon="-0.142689">
        <ele>2139.915</ele>
        <time>2020-07-22T13:40:14Z</time>
      </trkpt>
      <trkpt lat="42.794650" lon="-0.142729">
        <ele>2140.668</ele>
        <time>2020-07-22T13:40:21Z</time>
      </trkpt>
      <trkpt lat="42.794598" lon="-0.142733">
        <ele>2141.261</ele>
        <time>2020-07-22T13:40:30Z</time>
      </trkpt>
      <trkpt lat="42.794554" lon="-0.142701">
        <ele>2139.877</ele>
        <time>2020-07-22T13:40:36Z</time>
      </trkpt>
      <trkpt lat="42.794504" lon="-0.142711">
        <ele>2140.113</ele>
        <time>2020-07-22T13:40:41Z</time>
      </trkpt>
      <trkpt lat="42.794452" lon="-0.142728">
        <ele>2141.012</ele>
        <time>2020-07-22T13:40:47Z</time>
      </trkpt>
      <trkpt lat="42.794407" lon="-0.142702">
        <ele>2140.566</ele>
        <time>2020-07-22T13:40:55Z</time>
      </trkpt>
      <trkpt lat="42.794388" lon="-0.142644">
        <ele>2139.687</ele>
        <time>2020-07-22T13:41:00Z</time>
      </trkpt>
      <trkpt lat="42.794366" lon="-0.142584">
        <ele>2140.442</ele>
        <time>2020-07-22T13:41:07Z</time>
      </trkpt>
      <trkpt lat="42.794325" lon="-0.142535">
        <ele>2140.726</ele>
        <time>2020-07-22T13:41:11Z</time>
      </trkpt>
      <trkpt lat="42.794272" lon="-0.142513">
        <ele>2140.808</ele>
        <time>2020-07-22T13:41:18Z</time>
      </trkpt>
      <trkpt lat="42.794237" lon="-0.142473">
        <ele>2139.833</ele>
        <time>2020-07-22T13:41:46Z</time>
      </trkpt>
      <trkpt lat="42.794196" lon="-0.142428">
        <ele>2141.181</ele>
        <time>2020-07-22T13:41:54Z</time>
      </trkpt>
      <trkpt lat="42.794137" lon="-0.142434">
        <ele>2140.314</ele>
        <time>2020-07-22T13:41:59Z</time>
      </trkpt>
      <trkpt lat="42.794092" lon="-0.142449">
        <ele>2140.157</ele>
        <time>2020-07-22T13:42:03Z</time>
      </trkpt>
      <trkpt lat="42.794029" lon="-0.142443">
        <ele>2139.213</ele>
        <time>2020-07-22T13:42:08Z</time>
      </trkpt>
      <trkpt lat="42.794002" lon="-0.142483">
        <ele>2138.969</ele>
        <time>2020-07-22T13:42:42Z</time>
      </trkpt>
      <trkpt lat="42.793963" lon="-0.142512">
        <ele>2141.248</ele>
        <time>2020-07-22T13:43:05Z</time>
      </trkpt>
      <trkpt lat="42.793915" lon="-0.142524">
        <ele>2141.462</ele>
        <time>2020-07-22T13:43:12Z</time>
      </trkpt>
      <trkpt lat="42.793857" lon="-0.142517">
        <ele>2140.131</ele>
        <time>2020-07-22T13:43:16Z</time>
      </trkpt>
      <trkpt lat="42.793806" lon="-0.142516">
        <ele>2140.461</ele>
        <time>2020-07-22T13:43:23Z</time>
      </trkpt>
      <trkpt lat="42.793756" lon="-0.142501">
        <ele>2142.307</ele>
        <time>2020-07-22T13:43:27Z</time>
      </trkpt>
      <trkpt lat="42.793711" lon="-0.142529">
        <ele>2141.408</ele>
        <time>2020-07-22T13:45:15Z</time>
      </trkpt>
      <trkpt lat="42.793684" lon="-0.142578">
        <ele>2139.638</ele>
        <time>2020-07-22T13:45:20Z</time>
      </trkpt>
      <trkpt lat="42.793633" lon="-0.142591">
        <ele>2138.786</ele>
        <time>2020-07-22T13:45:25Z</time>
      </trkpt>
      <trkpt lat="42.793589" lon="-0.142554">
        <ele>2138.129</ele>
        <time>2020-07-22T13:45:33Z</time>
      </trkpt>
      <trkpt lat="42.793581" lon="-0.142484">
        <ele>2138.362</ele>
        <time>2020-07-22T13:45:36Z</time>
      </trkpt>
      <trkpt lat="42.793560" lon="-0.142408">
        <ele>2137.178</ele>
        <time>2020-07-22T13:45:41Z</time>
      </trkpt>
      <trkpt lat="42.793539" lon="-0.142328">
        <ele>2136.214</ele>
        <time>2020-07-22T13:45:46Z</time>
      </trkpt>
      <trkpt lat="42.793502" lon="-0.142269">
        <ele>2137.843</ele>
        <time>2020-07-22T13:45:51Z</time>
      </trkpt>
      <trkpt lat="42.793456" lon="-0.142246">
        <ele>2136.767</ele>
        <time>2020-07-22T13:45:56Z</time>
      </trkpt>
      <trkpt lat="42.793421" lon="-0.142227">
        <ele>2135.482</ele>
        <time>2020-07-22T13:46:01Z</time>
      </trkpt>
      <trkpt lat="42.793419" lon="-0.142171">
        <ele>2135.643</ele>
        <time>2020-07-22T13:46:28Z</time>
      </trkpt>
      <trkpt lat="42.793441" lon="-0.142103">
        <ele>2136.717</ele>
        <time>2020-07-22T13:46:34Z</time>
      </trkpt>
      <trkpt lat="42.793454" lon="-0.142030">
        <ele>2133.808</ele>
        <time>2020-07-22T13:46:40Z</time>
      </trkpt>
      <trkpt lat="42.793438" lon="-0.141971">
        <ele>2135.243</ele>
        <time>2020-07-22T13:46:42Z</time>
      </trkpt>
      <trkpt lat="42.793408" lon="-0.141918">
        <ele>2135.461</ele>
        <time>2020-07-22T13:46:46Z</time>
      </trkpt>
      <trkpt lat="42.793348" lon="-0.141905">
        <ele>2135.374</ele>
        <time>2020-07-22T13:46:50Z</time>
      </trkpt>
      <trkpt lat="42.793293" lon="-0.141922">
        <ele>2137.817</ele>
        <time>2020-07-22T13:46:56Z</time>
      </trkpt>
      <trkpt lat="42.793247" lon="-0.141901">
        <ele>2137.573</ele>
        <time>2020-07-22T13:46:58Z</time>
      </trkpt>
      <trkpt lat="42.793205" lon="-0.141862">
        <ele>2135.879</ele>
        <time>2020-07-22T13:47:04Z</time>
      </trkpt>
      <trkpt lat="42.793167" lon="-0.141827">
        <ele>2136.428</ele>
        <time>2020-07-22T13:47:07Z</time>
      </trkpt>
      <trkpt lat="42.793120" lon="-0.141788">
        <ele>2136.822</ele>
        <time>2020-07-22T13:47:13Z</time>
      </trkpt>
      <trkpt lat="42.793073" lon="-0.141777">
        <ele>2137.532</ele>
        <time>2020-07-22T13:47:19Z</time>
      </trkpt>
      <trkpt lat="42.793027" lon="-0.141781">
        <ele>2137.792</ele>
        <time>2020-07-22T13:47:25Z</time>
      </trkpt>
      <trkpt lat="42.792978" lon="-0.141754">
        <ele>2137.311</ele>
        <time>2020-07-22T13:47:28Z</time>
      </trkpt>
      <trkpt lat="42.792937" lon="-0.141726">
        <ele>2134.408</ele>
        <time>2020-07-22T13:47:33Z</time>
      </trkpt>
      <trkpt lat="42.792778" lon="-0.141332">
        <ele>2142.367</ele>
        <time>2020-07-23T06:03:08Z</time>
      </trkpt>
      <trkpt lat="42.792768" lon="-0.141250">
        <ele>2145.081</ele>
        <time>2020-07-23T06:03:37Z</time>
      </trkpt>
      <trkpt lat="42.792733" lon="-0.141205">
        <ele>2148.719</ele>
        <time>2020-07-23T06:03:44Z</time>
      </trkpt>
      <trkpt lat="42.792687" lon="-0.141215">
        <ele>2151.808</ele>
        <time>2020-07-23T06:04:07Z</time>
      </trkpt>
      <trkpt lat="42.792684" lon="-0.141151">
        <ele>2154.291</ele>
        <time>2020-07-23T06:04:12Z</time>
      </trkpt>
      <trkpt lat="42.792693" lon="-0.141085">
        <ele>2155.469</ele>
        <time>2020-07-23T06:04:16Z</time>
      </trkpt>
      <trkpt lat="42.792703" lon="-0.141023">
        <ele>2155.933</ele>
        <time>2020-07-23T06:04:20Z</time>
      </trkpt>
      <trkpt lat="42.792699" lon="-0.140961">
        <ele>2155.226</ele>
        <time>2020-07-23T06:04:24Z</time>
      </trkpt>
      <trkpt lat="42.792662" lon="-0.140902">
        <ele>2155.496</ele>
        <time>2020-07-23T06:04:29Z</time>
      </trkpt>
      <trkpt lat="42.792617" lon="-0.140866">
        <ele>2155.828</ele>
        <time>2020-07-23T06:04:35Z</time>
      </trkpt>
      <trkpt lat="42.792587" lon="-0.140808">
        <ele>2157.898</ele>
        <time>2020-07-23T06:04:41Z</time>
      </trkpt>
      <trkpt lat="42.792598" lon="-0.140740">
        <ele>2159.357</ele>
        <time>2020-07-23T06:04:47Z</time>
      </trkpt>
      <trkpt lat="42.792583" lon="-0.140672">
        <ele>2160.569</ele>
        <time>2020-07-23T06:04:54Z</time>
      </trkpt>
      <trkpt lat="42.792575" lon="-0.140605">
        <ele>2159.604</ele>
        <time>2020-07-23T06:05:00Z</time>
      </trkpt>
      <trkpt lat="42.792563" lon="-0.140534">
        <ele>2159.324</ele>
        <time>2020-07-23T06:05:06Z</time>
      </trkpt>
      <trkpt lat="42.792523" lon="-0.140484">
        <ele>2160.308</ele>
        <time>2020-07-23T06:05:13Z</time>
      </trkpt>
      <trkpt lat="42.792480" lon="-0.140433">
        <ele>2160.421</ele>
        <time>2020-07-23T06:05:19Z</time>
      </trkpt>
      <trkpt lat="42.792442" lon="-0.140400">
        <ele>2160.789</ele>
        <time>2020-07-23T06:05:24Z</time>
      </trkpt>
      <trkpt lat="42.792420" lon="-0.140340">
        <ele>2161.813</ele>
        <time>2020-07-23T06:05:30Z</time>
      </trkpt>
      <trkpt lat="42.792384" lon="-0.140298">
        <ele>2162.976</ele>
        <time>2020-07-23T06:05:39Z</time>
      </trkpt>
      <trkpt lat="42.792347" lon="-0.140258">
        <ele>2164.686</ele>
        <time>2020-07-23T06:05:50Z</time>
      </trkpt>
      <trkpt lat="42.792307" lon="-0.140220">
        <ele>2164.568</ele>
        <time>2020-07-23T06:05:57Z</time>
      </trkpt>
      <trkpt lat="42.792257" lon="-0.140207">
        <ele>2165.628</ele>
        <time>2020-07-23T06:06:58Z</time>
      </trkpt>
      <trkpt lat="42.792210" lon="-0.140177">
        <ele>2166.037</ele>
        <time>2020-07-23T06:07:08Z</time>
      </trkpt>
      <trkpt lat="42.792196" lon="-0.140124">
        <ele>2166.735</ele>
        <time>2020-07-23T06:07:15Z</time>
      </trkpt>
      <trkpt lat="42.792150" lon="-0.140073">
        <ele>2166.486</ele>
        <time>2020-07-23T06:07:21Z</time>
      </trkpt>
      <trkpt lat="42.792103" lon="-0.140025">
        <ele>2164.714</ele>
        <time>2020-07-23T06:07:29Z</time>
      </trkpt>
      <trkpt lat="42.792071" lon="-0.139973">
        <ele>2166.308</ele>
        <time>2020-07-23T06:07:35Z</time>
      </trkpt>
      <trkpt lat="42.792027" lon="-0.139941">
        <ele>2166.328</ele>
        <time>2020-07-23T06:07:43Z</time>
      </trkpt>
      <trkpt lat="42.791994" lon="-0.139908">
        <ele>2167.556</ele>
        <time>2020-07-23T06:07:49Z</time>
      </trkpt>
      <trkpt lat="42.791952" lon="-0.139888">
        <ele>2168.490</ele>
        <time>2020-07-23T06:07:57Z</time>
      </trkpt>
      <trkpt lat="42.791899" lon="-0.139858">
        <ele>2170.713</ele>
        <time>2020-07-23T06:08:07Z</time>
      </trkpt>
      <trkpt lat="42.791881" lon="-0.139818">
        <ele>2171.953</ele>
        <time>2020-07-23T06:08:16Z</time>
      </trkpt>
      <trkpt lat="42.791833" lon="-0.139783">
        <ele>2172.895</ele>
        <time>2020-07-23T06:08:28Z</time>
      </trkpt>
      <trkpt lat="42.791793" lon="-0.139738">
        <ele>2174.165</ele>
        <time>2020-07-23T06:08:37Z</time>
      </trkpt>
      <trkpt lat="42.791757" lon="-0.139691">
        <ele>2175.834</ele>
        <time>2020-07-23T06:08:46Z</time>
      </trkpt>
      <trkpt lat="42.791716" lon="-0.139647">
        <ele>2176.187</ele>
        <time>2020-07-23T06:08:54Z</time>
      </trkpt>
      <trkpt lat="42.791675" lon="-0.139615">
        <ele>2177.342</ele>
        <time>2020-07-23T06:09:02Z</time>
      </trkpt>
      <trkpt lat="42.791647" lon="-0.139566">
        <ele>2177.126</ele>
        <time>2020-07-23T06:09:10Z</time>
      </trkpt>
      <trkpt lat="42.791616" lon="-0.139512">
        <ele>2179.108</ele>
        <time>2020-07-23T06:09:18Z</time>
      </trkpt>
      <trkpt lat="42.791577" lon="-0.139470">
        <ele>2179.833</ele>
        <time>2020-07-23T06:09:27Z</time>
      </trkpt>
      <trkpt lat="42.791530" lon="-0.139465">
        <ele>2179.251</ele>
        <time>2020-07-23T06:09:35Z</time>
      </trkpt>
      <trkpt lat="42.791487" lon="-0.139442">
        <ele>2182.585</ele>
        <time>2020-07-23T06:09:43Z</time>
      </trkpt>
      <trkpt lat="42.791443" lon="-0.139436">
        <ele>2181.618</ele>
        <time>2020-07-23T06:09:52Z</time>
      </trkpt>
      <trkpt lat="42.791402" lon="-0.139412">
        <ele>2183.918</ele>
        <time>2020-07-23T06:10:01Z</time>
      </trkpt>
      <trkpt lat="42.791368" lon="-0.139405">
        <ele>2185.780</ele>
        <time>2020-07-23T06:10:12Z</time>
      </trkpt>
      <trkpt lat="42.791327" lon="-0.139362">
        <ele>2185.730</ele>
        <time>2020-07-23T06:10:24Z</time>
      </trkpt>
      <trkpt lat="42.791291" lon="-0.139318">
        <ele>2188.099</ele>
        <time>2020-07-23T06:10:34Z</time>
      </trkpt>
      <trkpt lat="42.791253" lon="-0.139303">
        <ele>2189.776</ele>
        <time>2020-07-23T06:10:44Z</time>
      </trkpt>
      <trkpt lat="42.791206" lon="-0.139244">
        <ele>2189.590</ele>
        <time>2020-07-23T06:10:54Z</time>
      </trkpt>
      <trkpt lat="42.791166" lon="-0.139178">
        <ele>2190.119</ele>
        <time>2020-07-23T06:11:06Z</time>
      </trkpt>
      <trkpt lat="42.791130" lon="-0.139132">
        <ele>2192.908</ele>
        <time>2020-07-23T06:11:18Z</time>
      </trkpt>
      <trkpt lat="42.791081" lon="-0.139110">
        <ele>2193.272</ele>
        <time>2020-07-23T06:11:26Z</time>
      </trkpt>
      <trkpt lat="42.791042" lon="-0.139060">
        <ele>2192.920</ele>
        <time>2020-07-23T06:11:36Z</time>
      </trkpt>
      <trkpt lat="42.790998" lon="-0.139044">
        <ele>2194.454</ele>
        <time>2020-07-23T06:11:44Z</time>
      </trkpt>
      <trkpt lat="42.790963" lon="-0.139011">
        <ele>2195.337</ele>
        <time>2020-07-23T06:11:54Z</time>
      </trkpt>
      <trkpt lat="42.790924" lon="-0.138981">
        <ele>2196.747</ele>
        <time>2020-07-23T06:12:01Z</time>
      </trkpt>
      <trkpt lat="42.790884" lon="-0.138936">
        <ele>2197.949</ele>
        <time>2020-07-23T06:12:12Z</time>
      </trkpt>
      <trkpt lat="42.790852" lon="-0.138893">
        <ele>2197.719</ele>
        <time>2020-07-23T06:12:28Z</time>
      </trkpt>
      <trkpt lat="42.790825" lon="-0.138869">
        <ele>2198.168</ele>
        <time>2020-07-23T06:12:37Z</time>
      </trkpt>
      <trkpt lat="42.790793" lon="-0.138844">
        <ele>2199.742</ele>
        <time>2020-07-23T06:12:47Z</time>
      </trkpt>
      <trkpt lat="42.790750" lon="-0.138834">
        <ele>2200.322</ele>
        <time>2020-07-23T06:12:55Z</time>
      </trkpt>
      <trkpt lat="42.790710" lon="-0.138877">
        <ele>2201.414</ele>
        <time>2020-07-23T06:13:03Z</time>
      </trkpt>
      <trkpt lat="42.790654" lon="-0.138898">
        <ele>2202.208</ele>
        <time>2020-07-23T06:13:12Z</time>
      </trkpt>
      <trkpt lat="42.790609" lon="-0.138927">
        <ele>2203.629</ele>
        <time>2020-07-23T06:13:20Z</time>
      </trkpt>
      <trkpt lat="42.790562" lon="-0.138951">
        <ele>2203.637</ele>
        <time>2020-07-23T06:13:26Z</time>
      </trkpt>
      <trkpt lat="42.790520" lon="-0.138977">
        <ele>2203.891</ele>
        <time>2020-07-23T06:14:00Z</time>
      </trkpt>
      <trkpt lat="42.790480" lon="-0.138985">
        <ele>2204.164</ele>
        <time>2020-07-23T06:14:29Z</time>
      </trkpt>
      <trkpt lat="42.790440" lon="-0.138989">
        <ele>2204.394</ele>
        <time>2020-07-23T06:14:40Z</time>
      </trkpt>
      <trkpt lat="42.790383" lon="-0.138988">
        <ele>2204.726</ele>
        <time>2020-07-23T06:14:53Z</time>
      </trkpt>
      <trkpt lat="42.790300" lon="-0.138991">
        <ele>2205.226</ele>
        <time>2020-07-23T06:15:14Z</time>
      </trkpt>
      <trkpt lat="42.790212" lon="-0.138943">
        <ele>2205.835</ele>
        <time>2020-07-23T06:15:36Z</time>
      </trkpt>
      <trkpt lat="42.790172" lon="-0.138892">
        <ele>2206.178</ele>
        <time>2020-07-23T06:15:48Z</time>
      </trkpt>
      <trkpt lat="42.790127" lon="-0.138855">
        <ele>2206.433</ele>
        <time>2020-07-23T06:16:02Z</time>
      </trkpt>
      <trkpt lat="42.790072" lon="-0.138855">
        <ele>2208.226</ele>
        <time>2020-07-23T06:16:09Z</time>
      </trkpt>
      <trkpt lat="42.790015" lon="-0.138836">
        <ele>2208.508</ele>
        <time>2020-07-23T06:16:16Z</time>
      </trkpt>
      <trkpt lat="42.790037" lon="-0.138745">
        <ele>2212.732</ele>
        <time>2020-07-23T06:17:22Z</time>
      </trkpt>
      <trkpt lat="42.789971" lon="-0.138734">
        <ele>2214.190</ele>
        <time>2020-07-23T06:17:33Z</time>
      </trkpt>
      <trkpt lat="42.789909" lon="-0.138730">
        <ele>2215.714</ele>
        <time>2020-07-23T06:17:43Z</time>
      </trkpt>
      <trkpt lat="42.789800" lon="-0.138677">
        <ele>2220.227</ele>
        <time>2020-07-23T06:18:17Z</time>
      </trkpt>
      <trkpt lat="42.789717" lon="-0.138644">
        <ele>2220.947</ele>
        <time>2020-07-23T06:18:24Z</time>
      </trkpt>
      <trkpt lat="42.789630" lon="-0.138579">
        <ele>2222.449</ele>
        <time>2020-07-23T06:18:32Z</time>
      </trkpt>
      <trkpt lat="42.789572" lon="-0.138553">
        <ele>2222.549</ele>
        <time>2020-07-23T06:18:39Z</time>
      </trkpt>
      <trkpt lat="42.789543" lon="-0.138511">
        <ele>2224.578</ele>
        <time>2020-07-23T06:18:48Z</time>
      </trkpt>
      <trkpt lat="42.789535" lon="-0.138453">
        <ele>2225.852</ele>
        <time>2020-07-23T06:20:03Z</time>
      </trkpt>
      <trkpt lat="42.789590" lon="-0.138449">
        <ele>2228.053</ele>
        <time>2020-07-23T06:20:12Z</time>
      </trkpt>
      <trkpt lat="42.789630" lon="-0.138479">
        <ele>2228.408</ele>
        <time>2020-07-23T06:20:19Z</time>
      </trkpt>
      <trkpt lat="42.789709" lon="-0.138481">
        <ele>2228.908</ele>
        <time>2020-07-23T06:20:24Z</time>
      </trkpt>
      <trkpt lat="42.789772" lon="-0.138459">
        <ele>2229.310</ele>
        <time>2020-07-23T06:20:32Z</time>
      </trkpt>
      <trkpt lat="42.789755" lon="-0.138369">
        <ele>2231.518</ele>
        <time>2020-07-23T06:20:43Z</time>
      </trkpt>
      <trkpt lat="42.789721" lon="-0.138324">
        <ele>2232.222</ele>
        <time>2020-07-23T06:20:58Z</time>
      </trkpt>
      <trkpt lat="42.789700" lon="-0.138260">
        <ele>2232.845</ele>
        <time>2020-07-23T06:22:14Z</time>
      </trkpt>
      <trkpt lat="42.789663" lon="-0.138204">
        <ele>2234.375</ele>
        <time>2020-07-23T06:22:24Z</time>
      </trkpt>
      <trkpt lat="42.789616" lon="-0.138151">
        <ele>2235.317</ele>
        <time>2020-07-23T06:22:32Z</time>
      </trkpt>
      <trkpt lat="42.789553" lon="-0.138134">
        <ele>2234.037</ele>
        <time>2020-07-23T06:22:37Z</time>
      </trkpt>
      <trkpt lat="42.789449" lon="-0.138119">
        <ele>2236.896</ele>
        <time>2020-07-23T06:22:46Z</time>
      </trkpt>
      <trkpt lat="42.789397" lon="-0.138101">
        <ele>2236.335</ele>
        <time>2020-07-23T06:22:50Z</time>
      </trkpt>
      <trkpt lat="42.789350" lon="-0.138083">
        <ele>2237.086</ele>
        <time>2020-07-23T06:22:54Z</time>
      </trkpt>
      <trkpt lat="42.789296" lon="-0.138072">
        <ele>2237.614</ele>
        <time>2020-07-23T06:23:00Z</time>
      </trkpt>
      <trkpt lat="42.789249" lon="-0.138055">
        <ele>2238.408</ele>
        <time>2020-07-23T06:23:08Z</time>
      </trkpt>
      <trkpt lat="42.789178" lon="-0.138001">
        <ele>2240.138</ele>
        <time>2020-07-23T06:23:23Z</time>
      </trkpt>
      <trkpt lat="42.789051" lon="-0.137993">
        <ele>2242.046</ele>
        <time>2020-07-23T06:23:41Z</time>
      </trkpt>
      <trkpt lat="42.789005" lon="-0.137994">
        <ele>2244.310</ele>
        <time>2020-07-23T06:23:53Z</time>
      </trkpt>
      <trkpt lat="42.788956" lon="-0.137991">
        <ele>2245.633</ele>
        <time>2020-07-23T06:24:02Z</time>
      </trkpt>
      <trkpt lat="42.788911" lon="-0.138008">
        <ele>2247.273</ele>
        <time>2020-07-23T06:24:11Z</time>
      </trkpt>
      <trkpt lat="42.788869" lon="-0.137981">
        <ele>2248.775</ele>
        <time>2020-07-23T06:24:24Z</time>
      </trkpt>
      <trkpt lat="42.788829" lon="-0.138004">
        <ele>2250.375</ele>
        <time>2020-07-23T06:24:33Z</time>
      </trkpt>
      <trkpt lat="42.788786" lon="-0.138017">
        <ele>2251.624</ele>
        <time>2020-07-23T06:24:44Z</time>
      </trkpt>
      <trkpt lat="42.788729" lon="-0.138033">
        <ele>2251.751</ele>
        <time>2020-07-23T06:24:52Z</time>
      </trkpt>
      <trkpt lat="42.788679" lon="-0.138046">
        <ele>2253.401</ele>
        <time>2020-07-23T06:24:59Z</time>
      </trkpt>
      <trkpt lat="42.788636" lon="-0.138068">
        <ele>2254.411</ele>
        <time>2020-07-23T06:25:17Z</time>
      </trkpt>
      <trkpt lat="42.788586" lon="-0.138114">
        <ele>2254.608</ele>
        <time>2020-07-23T06:25:32Z</time>
      </trkpt>
      <trkpt lat="42.788527" lon="-0.138118">
        <ele>2254.440</ele>
        <time>2020-07-23T06:26:05Z</time>
      </trkpt>
      <trkpt lat="42.788474" lon="-0.138075">
        <ele>2253.838</ele>
        <time>2020-07-23T06:26:10Z</time>
      </trkpt>
      <trkpt lat="42.788410" lon="-0.138028">
        <ele>2255.252</ele>
        <time>2020-07-23T06:26:23Z</time>
      </trkpt>
      <trkpt lat="42.788333" lon="-0.137990">
        <ele>2254.855</ele>
        <time>2020-07-23T06:26:27Z</time>
      </trkpt>
      <trkpt lat="42.788282" lon="-0.137983">
        <ele>2255.355</ele>
        <time>2020-07-23T06:26:32Z</time>
      </trkpt>
      <trkpt lat="42.788240" lon="-0.137929">
        <ele>2255.117</ele>
        <time>2020-07-23T06:26:37Z</time>
      </trkpt>
      <trkpt lat="42.788182" lon="-0.137916">
        <ele>2254.287</ele>
        <time>2020-07-23T06:26:40Z</time>
      </trkpt>
      <trkpt lat="42.788146" lon="-0.137895">
        <ele>2255.086</ele>
        <time>2020-07-23T06:26:45Z</time>
      </trkpt>
      <trkpt lat="42.788069" lon="-0.137881">
        <ele>2255.114</ele>
        <time>2020-07-23T06:26:50Z</time>
      </trkpt>
      <trkpt lat="42.788024" lon="-0.137856">
        <ele>2255.754</ele>
        <time>2020-07-23T06:26:56Z</time>
      </trkpt>
      <trkpt lat="42.787983" lon="-0.137826">
        <ele>2256.009</ele>
        <time>2020-07-23T06:27:01Z</time>
      </trkpt>
      <trkpt lat="42.787918" lon="-0.137801">
        <ele>2261.608</ele>
        <time>2020-07-23T06:27:35Z</time>
      </trkpt>
      <trkpt lat="42.787985" lon="-0.137718">
        <ele>2263.266</ele>
        <time>2020-07-23T06:27:44Z</time>
      </trkpt>
      <trkpt lat="42.788036" lon="-0.137628">
        <ele>2264.764</ele>
        <time>2020-07-23T06:27:53Z</time>
      </trkpt>
      <trkpt lat="42.788091" lon="-0.137605">
        <ele>2264.128</ele>
        <time>2020-07-23T06:28:00Z</time>
      </trkpt>
      <trkpt lat="42.788114" lon="-0.137532">
        <ele>2265.681</ele>
        <time>2020-07-23T06:28:07Z</time>
      </trkpt>
      <trkpt lat="42.788164" lon="-0.137501">
        <ele>2265.711</ele>
        <time>2020-07-23T06:28:13Z</time>
      </trkpt>
      <trkpt lat="42.788193" lon="-0.137468">
        <ele>2269.543</ele>
        <time>2020-07-23T06:28:40Z</time>
      </trkpt>
      <trkpt lat="42.788229" lon="-0.137435">
        <ele>2271.273</ele>
        <time>2020-07-23T06:28:48Z</time>
      </trkpt>
      <trkpt lat="42.788284" lon="-0.137395">
        <ele>2271.132</ele>
        <time>2020-07-23T06:28:56Z</time>
      </trkpt>
      <trkpt lat="42.788335" lon="-0.137359">
        <ele>2273.618</ele>
        <time>2020-07-23T06:29:03Z</time>
      </trkpt>
      <trkpt lat="42.788370" lon="-0.137302">
        <ele>2273.398</ele>
        <time>2020-07-23T06:29:12Z</time>
      </trkpt>
      <trkpt lat="42.788396" lon="-0.137288">
        <ele>2273.517</ele>
        <time>2020-07-23T06:29:19Z</time>
      </trkpt>
      <trkpt lat="42.788444" lon="-0.137272">
        <ele>2275.208</ele>
        <time>2020-07-23T06:29:32Z</time>
      </trkpt>
      <trkpt lat="42.788492" lon="-0.137260">
        <ele>2277.826</ele>
        <time>2020-07-23T06:29:45Z</time>
      </trkpt>
      <trkpt lat="42.788533" lon="-0.137230">
        <ele>2278.054</ele>
        <time>2020-07-23T06:29:54Z</time>
      </trkpt>
      <trkpt lat="42.788583" lon="-0.137224">
        <ele>2279.688</ele>
        <time>2020-07-23T06:30:03Z</time>
      </trkpt>
      <trkpt lat="42.788633" lon="-0.137212">
        <ele>2279.741</ele>
        <time>2020-07-23T06:30:11Z</time>
      </trkpt>
      <trkpt lat="42.788682" lon="-0.137197">
        <ele>2280.191</ele>
        <time>2020-07-23T06:30:19Z</time>
      </trkpt>
      <trkpt lat="42.788728" lon="-0.137184">
        <ele>2280.563</ele>
        <time>2020-07-23T06:30:27Z</time>
      </trkpt>
      <trkpt lat="42.788779" lon="-0.137190">
        <ele>2282.483</ele>
        <time>2020-07-23T06:30:34Z</time>
      </trkpt>
      <trkpt lat="42.788824" lon="-0.137166">
        <ele>2284.182</ele>
        <time>2020-07-23T06:30:44Z</time>
      </trkpt>
      <trkpt lat="42.788866" lon="-0.137139">
        <ele>2285.336</ele>
        <time>2020-07-23T06:30:50Z</time>
      </trkpt>
      <trkpt lat="42.788913" lon="-0.137147">
        <ele>2286.617</ele>
        <time>2020-07-23T06:30:59Z</time>
      </trkpt>
      <trkpt lat="42.788957" lon="-0.137131">
        <ele>2285.718</ele>
        <time>2020-07-23T06:31:06Z</time>
      </trkpt>
      <trkpt lat="42.789011" lon="-0.137138">
        <ele>2287.108</ele>
        <time>2020-07-23T06:31:14Z</time>
      </trkpt>
      <trkpt lat="42.789061" lon="-0.137125">
        <ele>2288.848</ele>
        <time>2020-07-23T06:31:23Z</time>
      </trkpt>
      <trkpt lat="42.789119" lon="-0.137120">
        <ele>2289.166</ele>
        <time>2020-07-23T06:31:32Z</time>
      </trkpt>
      <trkpt lat="42.789169" lon="-0.137107">
        <ele>2290.610</ele>
        <time>2020-07-23T06:31:41Z</time>
      </trkpt>
      <trkpt lat="42.789235" lon="-0.137098">
        <ele>2289.573</ele>
        <time>2020-07-23T06:31:47Z</time>
      </trkpt>
      <trkpt lat="42.789284" lon="-0.137111">
        <ele>2290.533</ele>
        <time>2020-07-23T06:32:17Z</time>
      </trkpt>
      <trkpt lat="42.789357" lon="-0.137089">
        <ele>2290.185</ele>
        <time>2020-07-23T06:32:37Z</time>
      </trkpt>
      <trkpt lat="42.789419" lon="-0.137060">
        <ele>2290.115</ele>
        <time>2020-07-23T06:32:44Z</time>
      </trkpt>
      <trkpt lat="42.789463" lon="-0.137024">
        <ele>2290.274</ele>
        <time>2020-07-23T06:32:51Z</time>
      </trkpt>
      <trkpt lat="42.789514" lon="-0.136965">
        <ele>2291.047</ele>
        <time>2020-07-23T06:34:06Z</time>
      </trkpt>
      <trkpt lat="42.789523" lon="-0.136894">
        <ele>2291.129</ele>
        <time>2020-07-23T06:34:12Z</time>
      </trkpt>
      <trkpt lat="42.789526" lon="-0.136839">
        <ele>2292.321</ele>
        <time>2020-07-23T06:34:19Z</time>
      </trkpt>
      <trkpt lat="42.789560" lon="-0.136828">
        <ele>2292.408</ele>
        <time>2020-07-23T06:34:25Z</time>
      </trkpt>
      <trkpt lat="42.789598" lon="-0.136823">
        <ele>2293.279</ele>
        <time>2020-07-23T06:34:31Z</time>
      </trkpt>
      <trkpt lat="42.789646" lon="-0.136845">
        <ele>2293.147</ele>
        <time>2020-07-23T06:34:38Z</time>
      </trkpt>
      <trkpt lat="42.789687" lon="-0.136858">
        <ele>2293.151</ele>
        <time>2020-07-23T06:34:43Z</time>
      </trkpt>
      <trkpt lat="42.789731" lon="-0.136862">
        <ele>2293.284</ele>
        <time>2020-07-23T06:34:50Z</time>
      </trkpt>
      <trkpt lat="42.789778" lon="-0.136884">
        <ele>2295.364</ele>
        <time>2020-07-23T06:34:57Z</time>
      </trkpt>
      <trkpt lat="42.789840" lon="-0.136856">
        <ele>2295.526</ele>
        <time>2020-07-23T06:35:05Z</time>
      </trkpt>
      <trkpt lat="42.789876" lon="-0.136834">
        <ele>2296.476</ele>
        <time>2020-07-23T06:35:16Z</time>
      </trkpt>
      <trkpt lat="42.789913" lon="-0.136808">
        <ele>2297.425</ele>
        <time>2020-07-23T06:35:25Z</time>
      </trkpt>
      <trkpt lat="42.789958" lon="-0.136788">
        <ele>2297.415</ele>
        <time>2020-07-23T06:35:32Z</time>
      </trkpt>
      <trkpt lat="42.789989" lon="-0.136759">
        <ele>2298.265</ele>
        <time>2020-07-23T06:35:38Z</time>
      </trkpt>
      <trkpt lat="42.790041" lon="-0.136751">
        <ele>2301.011</ele>
        <time>2020-07-23T06:35:47Z</time>
      </trkpt>
      <trkpt lat="42.790084" lon="-0.136726">
        <ele>2300.608</ele>
        <time>2020-07-23T06:35:54Z</time>
      </trkpt>
      <trkpt lat="42.790167" lon="-0.136709">
        <ele>2302.026</ele>
        <time>2020-07-23T06:36:00Z</time>
      </trkpt>
      <trkpt lat="42.790226" lon="-0.136667">
        <ele>2302.794</ele>
        <time>2020-07-23T06:36:07Z</time>
      </trkpt>
      <trkpt lat="42.790212" lon="-0.136593">
        <ele>2303.438</ele>
        <time>2020-07-23T06:36:16Z</time>
      </trkpt>
      <trkpt lat="42.790133" lon="-0.136582">
        <ele>2302.991</ele>
        <time>2020-07-23T06:36:24Z</time>
      </trkpt>
      <trkpt lat="42.790055" lon="-0.136523">
        <ele>2305.181</ele>
        <time>2020-07-23T06:36:34Z</time>
      </trkpt>
      <trkpt lat="42.790022" lon="-0.136459">
        <ele>2307.483</ele>
        <time>2020-07-23T06:36:41Z</time>
      </trkpt>
      <trkpt lat="42.790061" lon="-0.136415">
        <ele>2306.863</ele>
        <time>2020-07-23T06:37:29Z</time>
      </trkpt>
      <trkpt lat="42.790106" lon="-0.136448">
        <ele>2309.412</ele>
        <time>2020-07-23T06:38:40Z</time>
      </trkpt>
      <trkpt lat="42.790167" lon="-0.136439">
        <ele>2312.058</ele>
        <time>2020-07-23T06:38:49Z</time>
      </trkpt>
      <trkpt lat="42.790198" lon="-0.136403">
        <ele>2312.752</ele>
        <time>2020-07-23T06:38:56Z</time>
      </trkpt>
      <trkpt lat="42.790272" lon="-0.136403">
        <ele>2312.117</ele>
        <time>2020-07-23T06:39:02Z</time>
      </trkpt>
      <trkpt lat="42.790327" lon="-0.136366">
        <ele>2313.208</ele>
        <time>2020-07-23T06:39:15Z</time>
      </trkpt>
      <trkpt lat="42.790214" lon="-0.136279">
        <ele>2314.750</ele>
        <time>2020-07-23T06:39:24Z</time>
      </trkpt>
      <trkpt lat="42.790170" lon="-0.136250">
        <ele>2315.438</ele>
        <time>2020-07-23T06:39:32Z</time>
      </trkpt>
      <trkpt lat="42.790122" lon="-0.136230">
        <ele>2315.632</ele>
        <time>2020-07-23T06:39:42Z</time>
      </trkpt>
      <trkpt lat="42.790085" lon="-0.136180">
        <ele>2318.655</ele>
        <time>2020-07-23T06:39:51Z</time>
      </trkpt>
      <trkpt lat="42.790038" lon="-0.136162">
        <ele>2320.035</ele>
        <time>2020-07-23T06:39:58Z</time>
      </trkpt>
      <trkpt lat="42.790005" lon="-0.136108">
        <ele>2319.997</ele>
        <time>2020-07-23T06:40:08Z</time>
      </trkpt>
      <trkpt lat="42.790076" lon="-0.136079">
        <ele>2321.117</ele>
        <time>2020-07-23T06:40:14Z</time>
      </trkpt>
      <trkpt lat="42.790125" lon="-0.136080">
        <ele>2322.136</ele>
        <time>2020-07-23T06:40:22Z</time>
      </trkpt>
      <trkpt lat="42.790175" lon="-0.136081">
        <ele>2321.796</ele>
        <time>2020-07-23T06:40:31Z</time>
      </trkpt>
      <trkpt lat="42.790226" lon="-0.136086">
        <ele>2322.831</ele>
        <time>2020-07-23T06:40:39Z</time>
      </trkpt>
      <trkpt lat="42.790281" lon="-0.136088">
        <ele>2323.324</ele>
        <time>2020-07-23T06:40:47Z</time>
      </trkpt>
      <trkpt lat="42.790330" lon="-0.136086">
        <ele>2324.608</ele>
        <time>2020-07-23T06:40:55Z</time>
      </trkpt>
      <trkpt lat="42.790376" lon="-0.136088">
        <ele>2326.664</ele>
        <time>2020-07-23T06:41:05Z</time>
      </trkpt>
      <trkpt lat="42.790334" lon="-0.136032">
        <ele>2327.072</ele>
        <time>2020-07-23T06:41:15Z</time>
      </trkpt>
      <trkpt lat="42.790324" lon="-0.135962">
        <ele>2329.766</ele>
        <time>2020-07-23T06:41:25Z</time>
      </trkpt>
      <trkpt lat="42.790405" lon="-0.135972">
        <ele>2330.679</ele>
        <time>2020-07-23T06:41:37Z</time>
      </trkpt>
      <trkpt lat="42.790362" lon="-0.135900">
        <ele>2332.789</ele>
        <time>2020-07-23T06:41:59Z</time>
      </trkpt>
      <trkpt lat="42.790347" lon="-0.135888">
        <ele>2334.631</ele>
        <time>2020-07-23T06:42:06Z</time>
      </trkpt>
      <trkpt lat="42.790413" lon="-0.135888">
        <ele>2334.931</ele>
        <time>2020-07-23T06:42:15Z</time>
      </trkpt>
      <trkpt lat="42.790443" lon="-0.135910">
        <ele>2335.690</ele>
        <time>2020-07-23T06:42:23Z</time>
      </trkpt>
      <trkpt lat="42.790473" lon="-0.135913">
        <ele>2335.771</ele>
        <time>2020-07-23T06:42:31Z</time>
      </trkpt>
      <trkpt lat="42.790511" lon="-0.135959">
        <ele>2337.041</ele>
        <time>2020-07-23T06:42:38Z</time>
      </trkpt>
      <trkpt lat="42.790555" lon="-0.135980">
        <ele>2339.215</ele>
        <time>2020-07-23T06:42:48Z</time>
      </trkpt>
      <trkpt lat="42.790601" lon="-0.135946">
        <ele>2339.508</ele>
        <time>2020-07-23T06:42:57Z</time>
      </trkpt>
      <trkpt lat="42.790641" lon="-0.135909">
        <ele>2340.242</ele>
        <time>2020-07-23T06:43:06Z</time>
      </trkpt>
      <trkpt lat="42.790694" lon="-0.135860">
        <ele>2341.980</ele>
        <time>2020-07-23T06:43:21Z</time>
      </trkpt>
      <trkpt lat="42.790595" lon="-0.135773">
        <ele>2343.374</ele>
        <time>2020-07-23T06:43:28Z</time>
      </trkpt>
      <trkpt lat="42.790552" lon="-0.135727">
        <ele>2343.627</ele>
        <time>2020-07-23T06:43:34Z</time>
      </trkpt>
      <trkpt lat="42.790526" lon="-0.135697">
        <ele>2344.867</ele>
        <time>2020-07-23T06:43:43Z</time>
      </trkpt>
      <trkpt lat="42.790489" lon="-0.135648">
        <ele>2344.359</ele>
        <time>2020-07-23T06:43:51Z</time>
      </trkpt>
      <trkpt lat="42.790443" lon="-0.135630">
        <ele>2345.589</ele>
        <time>2020-07-23T06:43:57Z</time>
      </trkpt>
      <trkpt lat="42.790400" lon="-0.135596">
        <ele>2346.468</ele>
        <time>2020-07-23T06:44:06Z</time>
      </trkpt>
      <trkpt lat="42.790370" lon="-0.135581">
        <ele>2347.859</ele>
        <time>2020-07-23T06:44:16Z</time>
      </trkpt>
      <trkpt lat="42.790438" lon="-0.135546">
        <ele>2348.903</ele>
        <time>2020-07-23T06:44:24Z</time>
      </trkpt>
      <trkpt lat="42.790491" lon="-0.135530">
        <ele>2349.623</ele>
        <time>2020-07-23T06:44:30Z</time>
      </trkpt>
      <trkpt lat="42.790534" lon="-0.135520">
        <ele>2350.008</ele>
        <time>2020-07-23T06:44:37Z</time>
      </trkpt>
      <trkpt lat="42.790587" lon="-0.135500">
        <ele>2350.820</ele>
        <time>2020-07-23T06:44:45Z</time>
      </trkpt>
      <trkpt lat="42.790626" lon="-0.135502">
        <ele>2353.418</ele>
        <time>2020-07-23T06:44:54Z</time>
      </trkpt>
      <trkpt lat="42.790669" lon="-0.135464">
        <ele>2354.252</ele>
        <time>2020-07-23T06:45:05Z</time>
      </trkpt>
      <trkpt lat="42.790630" lon="-0.135415">
        <ele>2355.765</ele>
        <time>2020-07-23T06:45:20Z</time>
      </trkpt>
      <trkpt lat="42.790585" lon="-0.135391">
        <ele>2356.575</ele>
        <time>2020-07-23T06:45:25Z</time>
      </trkpt>
      <trkpt lat="42.790535" lon="-0.135344">
        <ele>2357.227</ele>
        <time>2020-07-23T06:45:33Z</time>
      </trkpt>
      <trkpt lat="42.790492" lon="-0.135327">
        <ele>2358.577</ele>
        <time>2020-07-23T06:45:39Z</time>
      </trkpt>
      <trkpt lat="42.790441" lon="-0.135321">
        <ele>2359.116</ele>
        <time>2020-07-23T06:45:46Z</time>
      </trkpt>
      <trkpt lat="42.790390" lon="-0.135307">
        <ele>2360.855</ele>
        <time>2020-07-23T06:45:53Z</time>
      </trkpt>
      <trkpt lat="42.790350" lon="-0.135295">
        <ele>2359.807</ele>
        <time>2020-07-23T06:46:02Z</time>
      </trkpt>
      <trkpt lat="42.790309" lon="-0.135287">
        <ele>2362.917</ele>
        <time>2020-07-23T06:46:09Z</time>
      </trkpt>
      <trkpt lat="42.790273" lon="-0.135261">
        <ele>2363.608</ele>
        <time>2020-07-23T06:46:19Z</time>
      </trkpt>
      <trkpt lat="42.790224" lon="-0.135235">
        <ele>2364.130</ele>
        <time>2020-07-23T06:46:30Z</time>
      </trkpt>
      <trkpt lat="42.790179" lon="-0.135209">
        <ele>2363.968</ele>
        <time>2020-07-23T06:46:38Z</time>
      </trkpt>
      <trkpt lat="42.790137" lon="-0.135177">
        <ele>2366.592</ele>
        <time>2020-07-23T06:46:46Z</time>
      </trkpt>
      <trkpt lat="42.790095" lon="-0.135144">
        <ele>2367.075</ele>
        <time>2020-07-23T06:46:54Z</time>
      </trkpt>
      <trkpt lat="42.790051" lon="-0.135119">
        <ele>2367.725</ele>
        <time>2020-07-23T06:47:02Z</time>
      </trkpt>
      <trkpt lat="42.790004" lon="-0.135128">
        <ele>2368.797</ele>
        <time>2020-07-23T06:47:10Z</time>
      </trkpt>
      <trkpt lat="42.789966" lon="-0.135171">
        <ele>2369.467</ele>
        <time>2020-07-23T06:47:21Z</time>
      </trkpt>
      <trkpt lat="42.789912" lon="-0.135168">
        <ele>2370.356</ele>
        <time>2020-07-23T06:47:28Z</time>
      </trkpt>
      <trkpt lat="42.789869" lon="-0.135148">
        <ele>2371.225</ele>
        <time>2020-07-23T06:47:35Z</time>
      </trkpt>
      <trkpt lat="42.789831" lon="-0.135109">
        <ele>2372.126</ele>
        <time>2020-07-23T06:48:00Z</time>
      </trkpt>
      <trkpt lat="42.789787" lon="-0.135069">
        <ele>2371.908</ele>
        <time>2020-07-23T06:48:07Z</time>
      </trkpt>
      <trkpt lat="42.789729" lon="-0.135044">
        <ele>2373.008</ele>
        <time>2020-07-23T06:48:13Z</time>
      </trkpt>
      <trkpt lat="42.789701" lon="-0.134984">
        <ele>2373.927</ele>
        <time>2020-07-23T06:48:19Z</time>
      </trkpt>
      <trkpt lat="42.789757" lon="-0.134954">
        <ele>2375.995</ele>
        <time>2020-07-23T06:48:36Z</time>
      </trkpt>
      <trkpt lat="42.789807" lon="-0.134956">
        <ele>2377.169</ele>
        <time>2020-07-23T06:48:43Z</time>
      </trkpt>
      <trkpt lat="42.789855" lon="-0.134944">
        <ele>2377.952</ele>
        <time>2020-07-23T06:48:51Z</time>
      </trkpt>
      <trkpt lat="42.789907" lon="-0.134933">
        <ele>2378.652</ele>
        <time>2020-07-23T06:48:59Z</time>
      </trkpt>
      <trkpt lat="42.789947" lon="-0.134893">
        <ele>2379.564</ele>
        <time>2020-07-23T06:49:09Z</time>
      </trkpt>
      <trkpt lat="42.789995" lon="-0.134864">
        <ele>2379.934</ele>
        <time>2020-07-23T06:49:17Z</time>
      </trkpt>
      <trkpt lat="42.790032" lon="-0.134822">
        <ele>2379.533</ele>
        <time>2020-07-23T06:49:24Z</time>
      </trkpt>
      <trkpt lat="42.790073" lon="-0.134793">
        <ele>2381.488</ele>
        <time>2020-07-23T06:49:37Z</time>
      </trkpt>
      <trkpt lat="42.790115" lon="-0.134760">
        <ele>2381.524</ele>
        <time>2020-07-23T06:50:03Z</time>
      </trkpt>
      <trkpt lat="42.790168" lon="-0.134745">
        <ele>2384.126</ele>
        <time>2020-07-23T06:50:11Z</time>
      </trkpt>
      <trkpt lat="42.790219" lon="-0.134744">
        <ele>2383.908</ele>
        <time>2020-07-23T06:50:15Z</time>
      </trkpt>
      <trkpt lat="42.790263" lon="-0.134739">
        <ele>2385.293</ele>
        <time>2020-07-23T06:50:19Z</time>
      </trkpt>
      <trkpt lat="42.790325" lon="-0.134720">
        <ele>2386.081</ele>
        <time>2020-07-23T06:50:24Z</time>
      </trkpt>
      <trkpt lat="42.790367" lon="-0.134710">
        <ele>2386.245</ele>
        <time>2020-07-23T06:50:31Z</time>
      </trkpt>
      <trkpt lat="42.790417" lon="-0.134706">
        <ele>2388.328</ele>
        <time>2020-07-23T06:50:38Z</time>
      </trkpt>
      <trkpt lat="42.790466" lon="-0.134692">
        <ele>2388.868</ele>
        <time>2020-07-23T06:50:46Z</time>
      </trkpt>
      <trkpt lat="42.790521" lon="-0.134699">
        <ele>2389.140</ele>
        <time>2020-07-23T06:50:55Z</time>
      </trkpt>
      <trkpt lat="42.790569" lon="-0.134679">
        <ele>2390.740</ele>
        <time>2020-07-23T06:51:06Z</time>
      </trkpt>
      <trkpt lat="42.790592" lon="-0.134609">
        <ele>2391.969</ele>
        <time>2020-07-23T06:51:14Z</time>
      </trkpt>
      <trkpt lat="42.790552" lon="-0.134551">
        <ele>2392.182</ele>
        <time>2020-07-23T06:51:22Z</time>
      </trkpt>
      <trkpt lat="42.790501" lon="-0.134536">
        <ele>2392.143</ele>
        <time>2020-07-23T06:51:29Z</time>
      </trkpt>
      <trkpt lat="42.790461" lon="-0.134503">
        <ele>2392.617</ele>
        <time>2020-07-23T06:51:35Z</time>
      </trkpt>
      <trkpt lat="42.790409" lon="-0.134487">
        <ele>2393.308</ele>
        <time>2020-07-23T06:51:41Z</time>
      </trkpt>
      <trkpt lat="42.790362" lon="-0.134469">
        <ele>2393.463</ele>
        <time>2020-07-23T06:51:49Z</time>
      </trkpt>
      <trkpt lat="42.790310" lon="-0.134466">
        <ele>2393.451</ele>
        <time>2020-07-23T06:52:05Z</time>
      </trkpt>
      <trkpt lat="42.790257" lon="-0.134452">
        <ele>2392.945</ele>
        <time>2020-07-23T06:52:13Z</time>
      </trkpt>
      <trkpt lat="42.790213" lon="-0.134441">
        <ele>2394.198</ele>
        <time>2020-07-23T06:52:17Z</time>
      </trkpt>
      <trkpt lat="42.790163" lon="-0.134425">
        <ele>2394.548</ele>
        <time>2020-07-23T06:52:21Z</time>
      </trkpt>
      <trkpt lat="42.790145" lon="-0.134354">
        <ele>2395.380</ele>
        <time>2020-07-23T06:52:29Z</time>
      </trkpt>
      <trkpt lat="42.790169" lon="-0.134303">
        <ele>2397.170</ele>
        <time>2020-07-23T06:52:37Z</time>
      </trkpt>
      <trkpt lat="42.790194" lon="-0.134241">
        <ele>2396.999</ele>
        <time>2020-07-23T06:52:43Z</time>
      </trkpt>
      <trkpt lat="42.790224" lon="-0.134190">
        <ele>2397.769</ele>
        <time>2020-07-23T06:52:48Z</time>
      </trkpt>
      <trkpt lat="42.790271" lon="-0.134158">
        <ele>2398.504</ele>
        <time>2020-07-23T06:52:54Z</time>
      </trkpt>
      <trkpt lat="42.790309" lon="-0.134126">
        <ele>2398.424</ele>
        <time>2020-07-23T06:53:06Z</time>
      </trkpt>
      <trkpt lat="42.790348" lon="-0.134084">
        <ele>2400.008</ele>
        <time>2020-07-23T06:53:17Z</time>
      </trkpt>
      <trkpt lat="42.790386" lon="-0.134043">
        <ele>2401.021</ele>
        <time>2020-07-23T06:53:24Z</time>
      </trkpt>
      <trkpt lat="42.790420" lon="-0.133992">
        <ele>2401.999</ele>
        <time>2020-07-23T06:53:30Z</time>
      </trkpt>
      <trkpt lat="42.790466" lon="-0.133956">
        <ele>2403.193</ele>
        <time>2020-07-23T06:53:38Z</time>
      </trkpt>
      <trkpt lat="42.790520" lon="-0.133934">
        <ele>2403.766</ele>
        <time>2020-07-23T06:53:45Z</time>
      </trkpt>
      <trkpt lat="42.790569" lon="-0.133912">
        <ele>2404.846</ele>
        <time>2020-07-23T06:53:52Z</time>
      </trkpt>
      <trkpt lat="42.790610" lon="-0.133868">
        <ele>2405.868</ele>
        <time>2020-07-23T06:54:00Z</time>
      </trkpt>
      <trkpt lat="42.790654" lon="-0.133831">
        <ele>2405.578</ele>
        <time>2020-07-23T06:54:07Z</time>
      </trkpt>
      <trkpt lat="42.790691" lon="-0.133794">
        <ele>2406.577</ele>
        <time>2020-07-23T06:54:15Z</time>
      </trkpt>
      <trkpt lat="42.790646" lon="-0.133721">
        <ele>2409.087</ele>
        <time>2020-07-23T06:54:22Z</time>
      </trkpt>
      <trkpt lat="42.790599" lon="-0.133694">
        <ele>2409.142</ele>
        <time>2020-07-23T06:54:30Z</time>
      </trkpt>
      <trkpt lat="42.790555" lon="-0.133677">
        <ele>2409.426</ele>
        <time>2020-07-23T06:54:36Z</time>
      </trkpt>
      <trkpt lat="42.790505" lon="-0.133667">
        <ele>2409.808</ele>
        <time>2020-07-23T06:54:43Z</time>
      </trkpt>
      <trkpt lat="42.790463" lon="-0.133651">
        <ele>2412.083</ele>
        <time>2020-07-23T06:54:49Z</time>
      </trkpt>
      <trkpt lat="42.790421" lon="-0.133614">
        <ele>2411.771</ele>
        <time>2020-07-23T06:54:58Z</time>
      </trkpt>
      <trkpt lat="42.790375" lon="-0.133623">
        <ele>2413.355</ele>
        <time>2020-07-23T06:55:05Z</time>
      </trkpt>
      <trkpt lat="42.790321" lon="-0.133604">
        <ele>2414.268</ele>
        <time>2020-07-23T06:55:14Z</time>
      </trkpt>
      <trkpt lat="42.790280" lon="-0.133586">
        <ele>2414.198</ele>
        <time>2020-07-23T06:55:21Z</time>
      </trkpt>
      <trkpt lat="42.790219" lon="-0.133573">
        <ele>2416.070</ele>
        <time>2020-07-23T06:55:29Z</time>
      </trkpt>
      <trkpt lat="42.790242" lon="-0.133507">
        <ele>2417.070</ele>
        <time>2020-07-23T06:55:36Z</time>
      </trkpt>
      <trkpt lat="42.790281" lon="-0.133472">
        <ele>2416.799</ele>
        <time>2020-07-23T06:55:41Z</time>
      </trkpt>
      <trkpt lat="42.790327" lon="-0.133441">
        <ele>2418.078</ele>
        <time>2020-07-23T06:55:48Z</time>
      </trkpt>
      <trkpt lat="42.790375" lon="-0.133437">
        <ele>2420.033</ele>
        <time>2020-07-23T06:55:55Z</time>
      </trkpt>
      <trkpt lat="42.790428" lon="-0.133425">
        <ele>2421.426</ele>
        <time>2020-07-23T06:56:03Z</time>
      </trkpt>
      <trkpt lat="42.790477" lon="-0.133410">
        <ele>2421.108</ele>
        <time>2020-07-23T06:56:10Z</time>
      </trkpt>
      <trkpt lat="42.790522" lon="-0.133378">
        <ele>2422.672</ele>
        <time>2020-07-23T06:56:19Z</time>
      </trkpt>
      <trkpt lat="42.790558" lon="-0.133339">
        <ele>2422.650</ele>
        <time>2020-07-23T06:56:25Z</time>
      </trkpt>
      <trkpt lat="42.790591" lon="-0.133296">
        <ele>2424.914</ele>
        <time>2020-07-23T06:56:34Z</time>
      </trkpt>
      <trkpt lat="42.790611" lon="-0.133235">
        <ele>2425.547</ele>
        <time>2020-07-23T06:56:53Z</time>
      </trkpt>
      <trkpt lat="42.790568" lon="-0.133259">
        <ele>2426.037</ele>
        <time>2020-07-23T06:58:05Z</time>
      </trkpt>
      <trkpt lat="42.790515" lon="-0.133271">
        <ele>2427.129</ele>
        <time>2020-07-23T06:58:34Z</time>
      </trkpt>
      <trkpt lat="42.790468" lon="-0.133285">
        <ele>2428.179</ele>
        <time>2020-07-23T06:58:40Z</time>
      </trkpt>
      <trkpt lat="42.790422" lon="-0.133293">
        <ele>2429.868</ele>
        <time>2020-07-23T06:58:45Z</time>
      </trkpt>
      <trkpt lat="42.790376" lon="-0.133304">
        <ele>2431.088</ele>
        <time>2020-07-23T06:58:50Z</time>
      </trkpt>
      <trkpt lat="42.790319" lon="-0.133244">
        <ele>2431.624</ele>
        <time>2020-07-23T06:58:59Z</time>
      </trkpt>
      <trkpt lat="42.790393" lon="-0.133215">
        <ele>2432.426</ele>
        <time>2020-07-23T06:59:05Z</time>
      </trkpt>
      <trkpt lat="42.790424" lon="-0.133164">
        <ele>2432.908</ele>
        <time>2020-07-23T06:59:14Z</time>
      </trkpt>
      <trkpt lat="42.790461" lon="-0.133120">
        <ele>2435.023</ele>
        <time>2020-07-23T06:59:21Z</time>
      </trkpt>
      <trkpt lat="42.790516" lon="-0.133059">
        <ele>2435.851</ele>
        <time>2020-07-23T06:59:32Z</time>
      </trkpt>
      <trkpt lat="42.790454" lon="-0.133042">
        <ele>2437.975</ele>
        <time>2020-07-23T06:59:44Z</time>
      </trkpt>
      <trkpt lat="42.790406" lon="-0.133067">
        <ele>2437.638</ele>
        <time>2020-07-23T06:59:51Z</time>
      </trkpt>
      <trkpt lat="42.790350" lon="-0.133100">
        <ele>2438.978</ele>
        <time>2020-07-23T07:00:34Z</time>
      </trkpt>
      <trkpt lat="42.790311" lon="-0.133098">
        <ele>2442.170</ele>
        <time>2020-07-23T07:00:50Z</time>
      </trkpt>
      <trkpt lat="42.790260" lon="-0.133121">
        <ele>2442.530</ele>
        <time>2020-07-23T07:00:57Z</time>
      </trkpt>
      <trkpt lat="42.790204" lon="-0.133108">
        <ele>2443.879</ele>
        <time>2020-07-23T07:01:03Z</time>
      </trkpt>
      <trkpt lat="42.790154" lon="-0.133089">
        <ele>2445.513</ele>
        <time>2020-07-23T07:01:10Z</time>
      </trkpt>
      <trkpt lat="42.790097" lon="-0.133100">
        <ele>2445.743</ele>
        <time>2020-07-23T07:01:18Z</time>
      </trkpt>
      <trkpt lat="42.790043" lon="-0.133105">
        <ele>2446.307</ele>
        <time>2020-07-23T07:01:26Z</time>
      </trkpt>
      <trkpt lat="42.789987" lon="-0.133114">
        <ele>2448.308</ele>
        <time>2020-07-23T07:01:34Z</time>
      </trkpt>
      <trkpt lat="42.789929" lon="-0.133106">
        <ele>2448.836</ele>
        <time>2020-07-23T07:01:42Z</time>
      </trkpt>
      <trkpt lat="42.789895" lon="-0.133100">
        <ele>2449.184</ele>
        <time>2020-07-23T07:01:48Z</time>
      </trkpt>
      <trkpt lat="42.789856" lon="-0.133092">
        <ele>2449.898</ele>
        <time>2020-07-23T07:01:56Z</time>
      </trkpt>
      <trkpt lat="42.789880" lon="-0.133027">
        <ele>2451.951</ele>
        <time>2020-07-23T07:02:06Z</time>
      </trkpt>
      <trkpt lat="42.789936" lon="-0.132984">
        <ele>2453.161</ele>
        <time>2020-07-23T07:02:15Z</time>
      </trkpt>
      <trkpt lat="42.789962" lon="-0.132906">
        <ele>2453.843</ele>
        <time>2020-07-23T07:02:23Z</time>
      </trkpt>
      <trkpt lat="42.789977" lon="-0.132857">
        <ele>2453.653</ele>
        <time>2020-07-23T07:02:30Z</time>
      </trkpt>
      <trkpt lat="42.790006" lon="-0.132806">
        <ele>2454.292</ele>
        <time>2020-07-23T07:02:36Z</time>
      </trkpt>
      <trkpt lat="42.790040" lon="-0.132769">
        <ele>2455.556</ele>
        <time>2020-07-23T07:02:42Z</time>
      </trkpt>
      <trkpt lat="42.790085" lon="-0.132713">
        <ele>2454.559</ele>
        <time>2020-07-23T07:02:47Z</time>
      </trkpt>
      <trkpt lat="42.790093" lon="-0.132661">
        <ele>2455.714</ele>
        <time>2020-07-23T07:02:56Z</time>
      </trkpt>
      <trkpt lat="42.790090" lon="-0.132592">
        <ele>2457.208</ele>
        <time>2020-07-23T07:03:03Z</time>
      </trkpt>
      <trkpt lat="42.790048" lon="-0.132626">
        <ele>2456.410</ele>
        <time>2020-07-23T07:03:08Z</time>
      </trkpt>
      <trkpt lat="42.789995" lon="-0.132650">
        <ele>2457.178</ele>
        <time>2020-07-23T07:03:14Z</time>
      </trkpt>
      <trkpt lat="42.789944" lon="-0.132644">
        <ele>2458.522</ele>
        <time>2020-07-23T07:03:22Z</time>
      </trkpt>
      <trkpt lat="42.789921" lon="-0.132608">
        <ele>2459.715</ele>
        <time>2020-07-23T07:03:30Z</time>
      </trkpt>
      <trkpt lat="42.789932" lon="-0.132561">
        <ele>2460.745</ele>
        <time>2020-07-23T07:03:46Z</time>
      </trkpt>
      <trkpt lat="42.789970" lon="-0.132509">
        <ele>2461.047</ele>
        <time>2020-07-23T07:04:01Z</time>
      </trkpt>
      <trkpt lat="42.789971" lon="-0.132439">
        <ele>2463.037</ele>
        <time>2020-07-23T07:04:33Z</time>
      </trkpt>
      <trkpt lat="42.789952" lon="-0.132368">
        <ele>2464.266</ele>
        <time>2020-07-23T07:04:46Z</time>
      </trkpt>
      <trkpt lat="42.789924" lon="-0.132308">
        <ele>2464.969</ele>
        <time>2020-07-23T07:04:51Z</time>
      </trkpt>
      <trkpt lat="42.789916" lon="-0.132233">
        <ele>2466.504</ele>
        <time>2020-07-23T07:04:58Z</time>
      </trkpt>
      <trkpt lat="42.789867" lon="-0.132180">
        <ele>2466.024</ele>
        <time>2020-07-23T07:05:04Z</time>
      </trkpt>
      <trkpt lat="42.789810" lon="-0.132223">
        <ele>2468.008</ele>
        <time>2020-07-23T07:06:10Z</time>
      </trkpt>
      <trkpt lat="42.789764" lon="-0.132252">
        <ele>2470.011</ele>
        <time>2020-07-23T07:06:34Z</time>
      </trkpt>
      <trkpt lat="42.789719" lon="-0.132273">
        <ele>2470.359</ele>
        <time>2020-07-23T07:06:38Z</time>
      </trkpt>
      <trkpt lat="42.789670" lon="-0.132304">
        <ele>2471.053</ele>
        <time>2020-07-23T07:06:43Z</time>
      </trkpt>
      <trkpt lat="42.789627" lon="-0.132347">
        <ele>2469.866</ele>
        <time>2020-07-23T07:06:47Z</time>
      </trkpt>
      <trkpt lat="42.789591" lon="-0.132394">
        <ele>2469.336</ele>
        <time>2020-07-23T07:06:52Z</time>
      </trkpt>
      <trkpt lat="42.789565" lon="-0.132442">
        <ele>2469.948</ele>
        <time>2020-07-23T07:06:58Z</time>
      </trkpt>
      <trkpt lat="42.789524" lon="-0.132500">
        <ele>2471.778</ele>
        <time>2020-07-23T07:07:04Z</time>
      </trkpt>
      <trkpt lat="42.789475" lon="-0.132527">
        <ele>2471.017</ele>
        <time>2020-07-23T07:07:11Z</time>
      </trkpt>
      <trkpt lat="42.789430" lon="-0.132521">
        <ele>2473.857</ele>
        <time>2020-07-23T07:07:16Z</time>
      </trkpt>
      <trkpt lat="42.789379" lon="-0.132534">
        <ele>2473.300</ele>
        <time>2020-07-23T07:07:23Z</time>
      </trkpt>
      <trkpt lat="42.789328" lon="-0.132531">
        <ele>2473.620</ele>
        <time>2020-07-23T07:07:30Z</time>
      </trkpt>
      <trkpt lat="42.789280" lon="-0.132522">
        <ele>2474.908</ele>
        <time>2020-07-23T07:07:39Z</time>
      </trkpt>
      <trkpt lat="42.789234" lon="-0.132513">
        <ele>2478.230</ele>
        <time>2020-07-23T07:07:45Z</time>
      </trkpt>
      <trkpt lat="42.789201" lon="-0.132563">
        <ele>2478.388</ele>
        <time>2020-07-23T07:07:56Z</time>
      </trkpt>
      <trkpt lat="42.789171" lon="-0.132608">
        <ele>2479.572</ele>
        <time>2020-07-23T07:08:03Z</time>
      </trkpt>
      <trkpt lat="42.789116" lon="-0.132601">
        <ele>2480.115</ele>
        <time>2020-07-23T07:08:09Z</time>
      </trkpt>
      <trkpt lat="42.789078" lon="-0.132623">
        <ele>2481.025</ele>
        <time>2020-07-23T07:08:15Z</time>
      </trkpt>
      <trkpt lat="42.789028" lon="-0.132671">
        <ele>2482.547</ele>
        <time>2020-07-23T07:08:22Z</time>
      </trkpt>
      <trkpt lat="42.789001" lon="-0.132711">
        <ele>2483.457</ele>
        <time>2020-07-23T07:08:30Z</time>
      </trkpt>
      <trkpt lat="42.788954" lon="-0.132745">
        <ele>2483.696</ele>
        <time>2020-07-23T07:08:38Z</time>
      </trkpt>
      <trkpt lat="42.788948" lon="-0.132806">
        <ele>2483.211</ele>
        <time>2020-07-23T07:08:44Z</time>
      </trkpt>
      <trkpt lat="42.788930" lon="-0.132863">
        <ele>2483.321</ele>
        <time>2020-07-23T07:08:50Z</time>
      </trkpt>
      <trkpt lat="42.788903" lon="-0.132912">
        <ele>2482.803</ele>
        <time>2020-07-23T07:08:55Z</time>
      </trkpt>
      <trkpt lat="42.788866" lon="-0.132961">
        <ele>2481.908</ele>
        <time>2020-07-23T07:09:00Z</time>
      </trkpt>
      <trkpt lat="42.788832" lon="-0.133029">
        <ele>2482.736</ele>
        <time>2020-07-23T07:09:09Z</time>
      </trkpt>
      <trkpt lat="42.788798" lon="-0.133064">
        <ele>2483.224</ele>
        <time>2020-07-23T07:09:16Z</time>
      </trkpt>
      <trkpt lat="42.788771" lon="-0.133120">
        <ele>2483.138</ele>
        <time>2020-07-23T07:09:51Z</time>
      </trkpt>
      <trkpt lat="42.788727" lon="-0.133077">
        <ele>2485.911</ele>
        <time>2020-07-23T07:10:03Z</time>
      </trkpt>
      <trkpt lat="42.788686" lon="-0.133116">
        <ele>2485.941</ele>
        <time>2020-07-23T07:10:12Z</time>
      </trkpt>
      <trkpt lat="42.788644" lon="-0.133138">
        <ele>2488.063</ele>
        <time>2020-07-23T07:10:23Z</time>
      </trkpt>
      <trkpt lat="42.788660" lon="-0.133038">
        <ele>2489.013</ele>
        <time>2020-07-23T07:10:32Z</time>
      </trkpt>
      <trkpt lat="42.788639" lon="-0.132962">
        <ele>2490.182</ele>
        <time>2020-07-23T07:10:40Z</time>
      </trkpt>
      <trkpt lat="42.788578" lon="-0.132989">
        <ele>2491.711</ele>
        <time>2020-07-23T07:10:46Z</time>
      </trkpt>
      <trkpt lat="42.788546" lon="-0.133045">
        <ele>2491.421</ele>
        <time>2020-07-23T07:10:56Z</time>
      </trkpt>
      <trkpt lat="42.788481" lon="-0.133000">
        <ele>2492.103</ele>
        <time>2020-07-23T07:11:03Z</time>
      </trkpt>
      <trkpt lat="42.788435" lon="-0.132964">
        <ele>2494.108</ele>
        <time>2020-07-23T07:11:10Z</time>
      </trkpt>
      <trkpt lat="42.788399" lon="-0.132972">
        <ele>2494.696</ele>
        <time>2020-07-23T07:11:18Z</time>
      </trkpt>
      <trkpt lat="42.788363" lon="-0.132926">
        <ele>2495.384</ele>
        <time>2020-07-23T07:11:24Z</time>
      </trkpt>
      <trkpt lat="42.788311" lon="-0.132926">
        <ele>2495.428</ele>
        <time>2020-07-23T07:11:30Z</time>
      </trkpt>
      <trkpt lat="42.788266" lon="-0.132915">
        <ele>2496.041</ele>
        <time>2020-07-23T07:11:36Z</time>
      </trkpt>
      <trkpt lat="42.788235" lon="-0.132862">
        <ele>2495.181</ele>
        <time>2020-07-23T07:11:43Z</time>
      </trkpt>
      <trkpt lat="42.788229" lon="-0.132787">
        <ele>2495.653</ele>
        <time>2020-07-23T07:11:49Z</time>
      </trkpt>
      <trkpt lat="42.788224" lon="-0.132724">
        <ele>2495.193</ele>
        <time>2020-07-23T07:11:53Z</time>
      </trkpt>
      <trkpt lat="42.788206" lon="-0.132659">
        <ele>2496.712</ele>
        <time>2020-07-23T07:12:00Z</time>
      </trkpt>
      <trkpt lat="42.788177" lon="-0.132610">
        <ele>2496.818</ele>
        <time>2020-07-23T07:12:06Z</time>
      </trkpt>
      <trkpt lat="42.788141" lon="-0.132550">
        <ele>2496.598</ele>
        <time>2020-07-23T07:12:12Z</time>
      </trkpt>
      <trkpt lat="42.788082" lon="-0.132546">
        <ele>2498.617</ele>
        <time>2020-07-23T07:12:18Z</time>
      </trkpt>
      <trkpt lat="42.788049" lon="-0.132590">
        <ele>2498.208</ele>
        <time>2020-07-23T07:12:23Z</time>
      </trkpt>
      <trkpt lat="42.788032" lon="-0.132671">
        <ele>2498.276</ele>
        <time>2020-07-23T07:12:28Z</time>
      </trkpt>
      <trkpt lat="42.788018" lon="-0.132730">
        <ele>2498.694</ele>
        <time>2020-07-23T07:12:32Z</time>
      </trkpt>
      <trkpt lat="42.788033" lon="-0.132805">
        <ele>2498.858</ele>
        <time>2020-07-23T07:12:37Z</time>
      </trkpt>
      <trkpt lat="42.788035" lon="-0.132874">
        <ele>2498.231</ele>
        <time>2020-07-23T07:12:42Z</time>
      </trkpt>
      <trkpt lat="42.788035" lon="-0.132946">
        <ele>2499.131</ele>
        <time>2020-07-23T07:12:48Z</time>
      </trkpt>
      <trkpt lat="42.788024" lon="-0.133008">
        <ele>2499.633</ele>
        <time>2020-07-23T07:12:53Z</time>
      </trkpt>
      <trkpt lat="42.787983" lon="-0.133041">
        <ele>2499.633</ele>
        <time>2020-07-23T07:12:59Z</time>
      </trkpt>
      <trkpt lat="42.787954" lon="-0.133086">
        <ele>2500.462</ele>
        <time>2020-07-23T07:13:07Z</time>
      </trkpt>
      <trkpt lat="42.787931" lon="-0.133125">
        <ele>2500.258</ele>
        <time>2020-07-23T07:13:13Z</time>
      </trkpt>
      <trkpt lat="42.787891" lon="-0.133162">
        <ele>2500.652</ele>
        <time>2020-07-23T07:13:19Z</time>
      </trkpt>
      <trkpt lat="42.787850" lon="-0.133172">
        <ele>2501.317</ele>
        <time>2020-07-23T07:13:25Z</time>
      </trkpt>
      <trkpt lat="42.787824" lon="-0.133142">
        <ele>2502.408</ele>
        <time>2020-07-23T07:13:31Z</time>
      </trkpt>
      <trkpt lat="42.787803" lon="-0.133119">
        <ele>2503.820</ele>
        <time>2020-07-23T07:13:48Z</time>
      </trkpt>
      <trkpt lat="42.787786" lon="-0.133116">
        <ele>2505.538</ele>
        <time>2020-07-23T07:13:56Z</time>
      </trkpt>
      <trkpt lat="42.787741" lon="-0.133084">
        <ele>2505.762</ele>
        <time>2020-07-23T07:14:02Z</time>
      </trkpt>
      <trkpt lat="42.787689" lon="-0.133140">
        <ele>2507.025</ele>
        <time>2020-07-23T07:14:07Z</time>
      </trkpt>
      <trkpt lat="42.787643" lon="-0.133175">
        <ele>2507.635</ele>
        <time>2020-07-23T07:14:14Z</time>
      </trkpt>
      <trkpt lat="42.787597" lon="-0.133150">
        <ele>2508.457</ele>
        <time>2020-07-23T07:14:21Z</time>
      </trkpt>
      <trkpt lat="42.787555" lon="-0.133123">
        <ele>2508.257</ele>
        <time>2020-07-23T07:14:28Z</time>
      </trkpt>
      <trkpt lat="42.787510" lon="-0.133137">
        <ele>2510.926</ele>
        <time>2020-07-23T07:14:39Z</time>
      </trkpt>
      <trkpt lat="42.787479" lon="-0.133158">
        <ele>2510.659</ele>
        <time>2020-07-23T07:14:45Z</time>
      </trkpt>
      <trkpt lat="42.787433" lon="-0.133166">
        <ele>2511.303</ele>
        <time>2020-07-23T07:14:51Z</time>
      </trkpt>
      <trkpt lat="42.787372" lon="-0.133157">
        <ele>2511.123</ele>
        <time>2020-07-23T07:14:57Z</time>
      </trkpt>
      <trkpt lat="42.787316" lon="-0.133147">
        <ele>2512.108</ele>
        <time>2020-07-23T07:15:03Z</time>
      </trkpt>
      <trkpt lat="42.787268" lon="-0.133161">
        <ele>2512.390</ele>
        <time>2020-07-23T07:15:10Z</time>
      </trkpt>
      <trkpt lat="42.787242" lon="-0.133235">
        <ele>2513.568</ele>
        <time>2020-07-23T07:15:15Z</time>
      </trkpt>
      <trkpt lat="42.787188" lon="-0.133241">
        <ele>2514.632</ele>
        <time>2020-07-23T07:15:22Z</time>
      </trkpt>
      <trkpt lat="42.787142" lon="-0.133254">
        <ele>2514.615</ele>
        <time>2020-07-23T07:15:30Z</time>
      </trkpt>
      <trkpt lat="42.787088" lon="-0.133267">
        <ele>2514.685</ele>
        <time>2020-07-23T07:15:37Z</time>
      </trkpt>
      <trkpt lat="42.787045" lon="-0.133272">
        <ele>2515.367</ele>
        <time>2020-07-23T07:15:44Z</time>
      </trkpt>
      <trkpt lat="42.787007" lon="-0.133274">
        <ele>2515.027</ele>
        <time>2020-07-23T07:16:06Z</time>
      </trkpt>
      <trkpt lat="42.786956" lon="-0.133268">
        <ele>2515.286</ele>
        <time>2020-07-23T07:16:12Z</time>
      </trkpt>
      <trkpt lat="42.786907" lon="-0.133247">
        <ele>2517.995</ele>
        <time>2020-07-23T07:16:18Z</time>
      </trkpt>
      <trkpt lat="42.786861" lon="-0.133256">
        <ele>2518.349</ele>
        <time>2020-07-23T07:16:24Z</time>
      </trkpt>
      <trkpt lat="42.786798" lon="-0.133248">
        <ele>2518.823</ele>
        <time>2020-07-23T07:16:29Z</time>
      </trkpt>
      <trkpt lat="42.786759" lon="-0.133259">
        <ele>2518.608</ele>
        <time>2020-07-23T07:16:36Z</time>
      </trkpt>
      <trkpt lat="42.786711" lon="-0.133284">
        <ele>2519.044</ele>
        <time>2020-07-23T07:16:44Z</time>
      </trkpt>
      <trkpt lat="42.786681" lon="-0.133333">
        <ele>2519.522</ele>
        <time>2020-07-23T07:16:49Z</time>
      </trkpt>
      <trkpt lat="42.786633" lon="-0.133329">
        <ele>2519.776</ele>
        <time>2020-07-23T07:16:55Z</time>
      </trkpt>
      <trkpt lat="42.786583" lon="-0.133336">
        <ele>2520.299</ele>
        <time>2020-07-23T07:17:02Z</time>
      </trkpt>
      <trkpt lat="42.786536" lon="-0.133342">
        <ele>2521.289</ele>
        <time>2020-07-23T07:17:09Z</time>
      </trkpt>
      <trkpt lat="42.786489" lon="-0.133347">
        <ele>2524.881</ele>
        <time>2020-07-23T07:17:19Z</time>
      </trkpt>
      <trkpt lat="42.786445" lon="-0.133372">
        <ele>2524.881</ele>
        <time>2020-07-23T07:17:25Z</time>
      </trkpt>
      <trkpt lat="42.786390" lon="-0.133394">
        <ele>2524.420</ele>
        <time>2020-07-23T07:17:33Z</time>
      </trkpt>
      <trkpt lat="42.786338" lon="-0.133406">
        <ele>2524.015</ele>
        <time>2020-07-23T07:17:39Z</time>
      </trkpt>
      <trkpt lat="42.786290" lon="-0.133430">
        <ele>2525.465</ele>
        <time>2020-07-23T07:17:45Z</time>
      </trkpt>
      <trkpt lat="42.786242" lon="-0.133459">
        <ele>2525.811</ele>
        <time>2020-07-23T07:17:52Z</time>
      </trkpt>
      <trkpt lat="42.786195" lon="-0.133481">
        <ele>2526.308</ele>
        <time>2020-07-23T07:17:58Z</time>
      </trkpt>
      <trkpt lat="42.786151" lon="-0.133508">
        <ele>2527.346</ele>
        <time>2020-07-23T07:18:04Z</time>
      </trkpt>
      <trkpt lat="42.786104" lon="-0.133523">
        <ele>2528.274</ele>
        <time>2020-07-23T07:19:06Z</time>
      </trkpt>
      <trkpt lat="42.786049" lon="-0.133542">
        <ele>2529.528</ele>
        <time>2020-07-23T07:19:12Z</time>
      </trkpt>
      <trkpt lat="42.786001" lon="-0.133564">
        <ele>2529.541</ele>
        <time>2020-07-23T07:19:18Z</time>
      </trkpt>
      <trkpt lat="42.785948" lon="-0.133573">
        <ele>2530.371</ele>
        <time>2020-07-23T07:19:22Z</time>
      </trkpt>
      <trkpt lat="42.785898" lon="-0.133612">
        <ele>2530.973</ele>
        <time>2020-07-23T07:19:28Z</time>
      </trkpt>
      <trkpt lat="42.785852" lon="-0.133634">
        <ele>2530.413</ele>
        <time>2020-07-23T07:19:36Z</time>
      </trkpt>
      <trkpt lat="42.785833" lon="-0.133694">
        <ele>2532.512</ele>
        <time>2020-07-23T07:19:42Z</time>
      </trkpt>
      <trkpt lat="42.785811" lon="-0.133758">
        <ele>2531.915</ele>
        <time>2020-07-23T07:19:49Z</time>
      </trkpt>
      <trkpt lat="42.785765" lon="-0.133788">
        <ele>2533.665</ele>
        <time>2020-07-23T07:19:58Z</time>
      </trkpt>
      <trkpt lat="42.785718" lon="-0.133822">
        <ele>2534.911</ele>
        <time>2020-07-23T07:20:04Z</time>
      </trkpt>
      <trkpt lat="42.785679" lon="-0.133858">
        <ele>2535.008</ele>
        <time>2020-07-23T07:20:08Z</time>
      </trkpt>
      <trkpt lat="42.785636" lon="-0.133898">
        <ele>2535.086</ele>
        <time>2020-07-23T07:20:14Z</time>
      </trkpt>
      <trkpt lat="42.785595" lon="-0.133943">
        <ele>2535.724</ele>
        <time>2020-07-23T07:20:20Z</time>
      </trkpt>
      <trkpt lat="42.785558" lon="-0.133995">
        <ele>2537.148</ele>
        <time>2020-07-23T07:20:28Z</time>
      </trkpt>
      <trkpt lat="42.785532" lon="-0.134035">
        <ele>2538.411</ele>
        <time>2020-07-23T07:21:28Z</time>
      </trkpt>
      <trkpt lat="42.785497" lon="-0.134061">
        <ele>2538.991</ele>
        <time>2020-07-23T07:21:44Z</time>
      </trkpt>
      <trkpt lat="42.785450" lon="-0.134090">
        <ele>2538.423</ele>
        <time>2020-07-23T07:21:51Z</time>
      </trkpt>
      <trkpt lat="42.785394" lon="-0.134114">
        <ele>2538.323</ele>
        <time>2020-07-23T07:21:55Z</time>
      </trkpt>
      <trkpt lat="42.785358" lon="-0.134156">
        <ele>2538.242</ele>
        <time>2020-07-23T07:21:59Z</time>
      </trkpt>
      <trkpt lat="42.785305" lon="-0.134166">
        <ele>2538.725</ele>
        <time>2020-07-23T07:22:03Z</time>
      </trkpt>
      <trkpt lat="42.785255" lon="-0.134200">
        <ele>2538.826</ele>
        <time>2020-07-23T07:22:08Z</time>
      </trkpt>
      <trkpt lat="42.785207" lon="-0.134204">
        <ele>2539.808</ele>
        <time>2020-07-23T07:22:13Z</time>
      </trkpt>
      <trkpt lat="42.785193" lon="-0.134289">
        <ele>2540.408</ele>
        <time>2020-07-23T07:22:20Z</time>
      </trkpt>
      <trkpt lat="42.785161" lon="-0.134337">
        <ele>2541.167</ele>
        <time>2020-07-23T07:22:27Z</time>
      </trkpt>
      <trkpt lat="42.785133" lon="-0.134358">
        <ele>2541.215</ele>
        <time>2020-07-23T07:22:33Z</time>
      </trkpt>
      <trkpt lat="42.785100" lon="-0.134395">
        <ele>2543.359</ele>
        <time>2020-07-23T07:22:38Z</time>
      </trkpt>
      <trkpt lat="42.785054" lon="-0.134422">
        <ele>2544.182</ele>
        <time>2020-07-23T07:22:44Z</time>
      </trkpt>
      <trkpt lat="42.784999" lon="-0.134440">
        <ele>2544.092</ele>
        <time>2020-07-23T07:22:51Z</time>
      </trkpt>
      <trkpt lat="42.784953" lon="-0.134467">
        <ele>2545.034</ele>
        <time>2020-07-23T07:22:57Z</time>
      </trkpt>
      <trkpt lat="42.784971" lon="-0.134396">
        <ele>2549.364</ele>
        <time>2020-07-23T07:25:09Z</time>
      </trkpt>
      <trkpt lat="42.784970" lon="-0.134327">
        <ele>2550.643</ele>
        <time>2020-07-23T07:25:16Z</time>
      </trkpt>
      <trkpt lat="42.784924" lon="-0.134306">
        <ele>2551.919</ele>
        <time>2020-07-23T07:25:23Z</time>
      </trkpt>
      <trkpt lat="42.784886" lon="-0.134350">
        <ele>2554.509</ele>
        <time>2020-07-23T07:25:31Z</time>
      </trkpt>
      <trkpt lat="42.784841" lon="-0.134339">
        <ele>2555.219</ele>
        <time>2020-07-23T07:25:40Z</time>
      </trkpt>
      <trkpt lat="42.784839" lon="-0.134276">
        <ele>2555.608</ele>
        <time>2020-07-23T07:25:47Z</time>
      </trkpt>
      <trkpt lat="42.784838" lon="-0.134214">
        <ele>2557.366</ele>
        <time>2020-07-23T07:25:54Z</time>
      </trkpt>
      <trkpt lat="42.784791" lon="-0.134252">
        <ele>2558.894</ele>
        <time>2020-07-23T07:26:04Z</time>
      </trkpt>
      <trkpt lat="42.784779" lon="-0.134311">
        <ele>2558.818</ele>
        <time>2020-07-23T07:26:09Z</time>
      </trkpt>
      <trkpt lat="42.784750" lon="-0.134360">
        <ele>2559.881</ele>
        <time>2020-07-23T07:27:00Z</time>
      </trkpt>
      <trkpt lat="42.784728" lon="-0.134414">
        <ele>2560.651</ele>
        <time>2020-07-23T07:27:05Z</time>
      </trkpt>
      <trkpt lat="42.784686" lon="-0.134455">
        <ele>2560.373</ele>
        <time>2020-07-23T07:27:11Z</time>
      </trkpt>
      <trkpt lat="42.784650" lon="-0.134493">
        <ele>2561.883</ele>
        <time>2020-07-23T07:27:16Z</time>
      </trkpt>
      <trkpt lat="42.784604" lon="-0.134494">
        <ele>2561.592</ele>
        <time>2020-07-23T07:27:22Z</time>
      </trkpt>
      <trkpt lat="42.784549" lon="-0.134512">
        <ele>2561.643</ele>
        <time>2020-07-23T07:27:28Z</time>
      </trkpt>
      <trkpt lat="42.784507" lon="-0.134516">
        <ele>2563.464</ele>
        <time>2020-07-23T07:27:34Z</time>
      </trkpt>
      <trkpt lat="42.784473" lon="-0.134518">
        <ele>2563.810</ele>
        <time>2020-07-23T07:28:06Z</time>
      </trkpt>
      <trkpt lat="42.784430" lon="-0.134528">
        <ele>2562.108</ele>
        <time>2020-07-23T07:28:13Z</time>
      </trkpt>
      <trkpt lat="42.784373" lon="-0.134517">
        <ele>2563.839</ele>
        <time>2020-07-23T07:28:36Z</time>
      </trkpt>
      <trkpt lat="42.784329" lon="-0.134546">
        <ele>2563.237</ele>
        <time>2020-07-23T07:29:03Z</time>
      </trkpt>
      <trkpt lat="42.784265" lon="-0.134527">
        <ele>2563.351</ele>
        <time>2020-07-23T07:29:10Z</time>
      </trkpt>
      <trkpt lat="42.784203" lon="-0.134494">
        <ele>2564.054</ele>
        <time>2020-07-23T07:29:15Z</time>
      </trkpt>
      <trkpt lat="42.784146" lon="-0.134488">
        <ele>2564.044</ele>
        <time>2020-07-23T07:29:20Z</time>
      </trkpt>
      <trkpt lat="42.784097" lon="-0.134481">
        <ele>2563.996</ele>
        <time>2020-07-23T07:29:25Z</time>
      </trkpt>
      <trkpt lat="42.784054" lon="-0.134462">
        <ele>2564.826</ele>
        <time>2020-07-23T07:29:31Z</time>
      </trkpt>
      <trkpt lat="42.784004" lon="-0.134452">
        <ele>2567.655</ele>
        <time>2020-07-23T07:29:37Z</time>
      </trkpt>
      <trkpt lat="42.783956" lon="-0.134468">
        <ele>2568.474</ele>
        <time>2020-07-23T07:29:43Z</time>
      </trkpt>
      <trkpt lat="42.783912" lon="-0.134506">
        <ele>2568.156</ele>
        <time>2020-07-23T07:29:51Z</time>
      </trkpt>
      <trkpt lat="42.783872" lon="-0.134526">
        <ele>2570.321</ele>
        <time>2020-07-23T07:29:58Z</time>
      </trkpt>
      <trkpt lat="42.783822" lon="-0.134548">
        <ele>2570.308</ele>
        <time>2020-07-23T07:30:06Z</time>
      </trkpt>
      <trkpt lat="42.783769" lon="-0.134575">
        <ele>2572.162</ele>
        <time>2020-07-23T07:30:15Z</time>
      </trkpt>
      <trkpt lat="42.783721" lon="-0.134590">
        <ele>2572.850</ele>
        <time>2020-07-23T07:30:23Z</time>
      </trkpt>
      <trkpt lat="42.783673" lon="-0.134583">
        <ele>2575.784</ele>
        <time>2020-07-23T07:30:30Z</time>
      </trkpt>
      <trkpt lat="42.783629" lon="-0.134558">
        <ele>2575.097</ele>
        <time>2020-07-23T07:30:37Z</time>
      </trkpt>
      <trkpt lat="42.783616" lon="-0.134498">
        <ele>2576.447</ele>
        <time>2020-07-23T07:30:46Z</time>
      </trkpt>
      <trkpt lat="42.783619" lon="-0.134451">
        <ele>2577.059</ele>
        <time>2020-07-23T07:32:53Z</time>
      </trkpt>
      <trkpt lat="42.783598" lon="-0.134420">
        <ele>2577.799</ele>
        <time>2020-07-23T07:32:59Z</time>
      </trkpt>
      <trkpt lat="42.783586" lon="-0.134357">
        <ele>2579.118</ele>
        <time>2020-07-23T07:33:08Z</time>
      </trkpt>
      <trkpt lat="42.783547" lon="-0.134311">
        <ele>2578.166</ele>
        <time>2020-07-23T07:33:17Z</time>
      </trkpt>
      <trkpt lat="42.783495" lon="-0.134293">
        <ele>2578.729</ele>
        <time>2020-07-23T07:33:23Z</time>
      </trkpt>
      <trkpt lat="42.783448" lon="-0.134265">
        <ele>2578.821</ele>
        <time>2020-07-23T07:33:31Z</time>
      </trkpt>
      <trkpt lat="42.783398" lon="-0.134262">
        <ele>2579.208</ele>
        <time>2020-07-23T07:33:37Z</time>
      </trkpt>
      <trkpt lat="42.783354" lon="-0.134287">
        <ele>2579.411</ele>
        <time>2020-07-23T07:33:43Z</time>
      </trkpt>
      <trkpt lat="42.783328" lon="-0.134340">
        <ele>2578.959</ele>
        <time>2020-07-23T07:33:47Z</time>
      </trkpt>
      <trkpt lat="42.783289" lon="-0.134390">
        <ele>2581.233</ele>
        <time>2020-07-23T07:33:53Z</time>
      </trkpt>
      <trkpt lat="42.783264" lon="-0.134449">
        <ele>2581.936</ele>
        <time>2020-07-23T07:34:04Z</time>
      </trkpt>
      <trkpt lat="42.783229" lon="-0.134494">
        <ele>2583.416</ele>
        <time>2020-07-23T07:34:13Z</time>
      </trkpt>
      <trkpt lat="42.783174" lon="-0.134491">
        <ele>2584.468</ele>
        <time>2020-07-23T07:34:21Z</time>
      </trkpt>
      <trkpt lat="42.783128" lon="-0.134466">
        <ele>2584.988</ele>
        <time>2020-07-23T07:34:28Z</time>
      </trkpt>
      <trkpt lat="42.783110" lon="-0.134405">
        <ele>2585.437</ele>
        <time>2020-07-23T07:34:33Z</time>
      </trkpt>
      <trkpt lat="42.783070" lon="-0.134411">
        <ele>2584.826</ele>
        <time>2020-07-23T07:34:39Z</time>
      </trkpt>
      <trkpt lat="42.783026" lon="-0.134380">
        <ele>2585.547</ele>
        <time>2020-07-23T07:34:48Z</time>
      </trkpt>
      <trkpt lat="42.782977" lon="-0.134387">
        <ele>2585.311</ele>
        <time>2020-07-23T07:34:55Z</time>
      </trkpt>
      <trkpt lat="42.782947" lon="-0.134341">
        <ele>2586.008</ele>
        <time>2020-07-23T07:35:02Z</time>
      </trkpt>
      <trkpt lat="42.782924" lon="-0.134281">
        <ele>2586.937</ele>
        <time>2020-07-23T07:35:09Z</time>
      </trkpt>
      <trkpt lat="42.782881" lon="-0.134278">
        <ele>2586.495</ele>
        <time>2020-07-23T07:35:16Z</time>
      </trkpt>
      <trkpt lat="42.782836" lon="-0.134284">
        <ele>2587.299</ele>
        <time>2020-07-23T07:35:22Z</time>
      </trkpt>
      <trkpt lat="42.782782" lon="-0.134279">
        <ele>2587.742</ele>
        <time>2020-07-23T07:35:27Z</time>
      </trkpt>
      <trkpt lat="42.782739" lon="-0.134312">
        <ele>2588.362</ele>
        <time>2020-07-23T07:35:33Z</time>
      </trkpt>
      <trkpt lat="42.782689" lon="-0.134317">
        <ele>2587.764</ele>
        <time>2020-07-23T07:35:38Z</time>
      </trkpt>
      <trkpt lat="42.782642" lon="-0.134338">
        <ele>2588.874</ele>
        <time>2020-07-23T07:35:44Z</time>
      </trkpt>
      <trkpt lat="42.782603" lon="-0.134396">
        <ele>2589.553</ele>
        <time>2020-07-23T07:35:51Z</time>
      </trkpt>
      <trkpt lat="42.782566" lon="-0.134427">
        <ele>2589.434</ele>
        <time>2020-07-23T07:35:58Z</time>
      </trkpt>
      <trkpt lat="42.782506" lon="-0.134382">
        <ele>2591.355</ele>
        <time>2020-07-23T07:36:04Z</time>
      </trkpt>
      <trkpt lat="42.782460" lon="-0.134390">
        <ele>2593.310</ele>
        <time>2020-07-23T07:36:11Z</time>
      </trkpt>
      <trkpt lat="42.782413" lon="-0.134383">
        <ele>2594.608</ele>
        <time>2020-07-23T07:36:19Z</time>
      </trkpt>
      <trkpt lat="42.782367" lon="-0.134390">
        <ele>2594.438</ele>
        <time>2020-07-23T07:36:26Z</time>
      </trkpt>
      <trkpt lat="42.782326" lon="-0.134422">
        <ele>2594.566</ele>
        <time>2020-07-23T07:36:33Z</time>
      </trkpt>
      <trkpt lat="42.782274" lon="-0.134433">
        <ele>2596.030</ele>
        <time>2020-07-23T07:36:40Z</time>
      </trkpt>
      <trkpt lat="42.782225" lon="-0.134430">
        <ele>2596.853</ele>
        <time>2020-07-23T07:36:46Z</time>
      </trkpt>
      <trkpt lat="42.782178" lon="-0.134441">
        <ele>2597.173</ele>
        <time>2020-07-23T07:36:53Z</time>
      </trkpt>
      <trkpt lat="42.782131" lon="-0.134419">
        <ele>2598.055</ele>
        <time>2020-07-23T07:37:00Z</time>
      </trkpt>
      <trkpt lat="42.782082" lon="-0.134410">
        <ele>2599.255</ele>
        <time>2020-07-23T07:37:06Z</time>
      </trkpt>
      <trkpt lat="42.782037" lon="-0.134426">
        <ele>2600.274</ele>
        <time>2020-07-23T07:37:13Z</time>
      </trkpt>
      <trkpt lat="42.781998" lon="-0.134456">
        <ele>2600.757</ele>
        <time>2020-07-23T07:37:22Z</time>
      </trkpt>
      <trkpt lat="42.781951" lon="-0.134458">
        <ele>2601.400</ele>
        <time>2020-07-23T07:37:37Z</time>
      </trkpt>
      <trkpt lat="42.781905" lon="-0.134445">
        <ele>2603.020</ele>
        <time>2020-07-23T07:37:46Z</time>
      </trkpt>
      <trkpt lat="42.781864" lon="-0.134412">
        <ele>2603.608</ele>
        <time>2020-07-23T07:37:58Z</time>
      </trkpt>
      <trkpt lat="42.781846" lon="-0.134342">
        <ele>2604.650</ele>
        <time>2020-07-23T07:39:11Z</time>
      </trkpt>
      <trkpt lat="42.781812" lon="-0.134278">
        <ele>2604.788</ele>
        <time>2020-07-23T07:39:16Z</time>
      </trkpt>
      <trkpt lat="42.781766" lon="-0.134234">
        <ele>2605.162</ele>
        <time>2020-07-23T07:39:22Z</time>
      </trkpt>
      <trkpt lat="42.781715" lon="-0.134218">
        <ele>2604.725</ele>
        <time>2020-07-23T07:39:27Z</time>
      </trkpt>
      <trkpt lat="42.781674" lon="-0.134176">
        <ele>2606.585</ele>
        <time>2020-07-23T07:39:34Z</time>
      </trkpt>
      <trkpt lat="42.781638" lon="-0.134128">
        <ele>2605.627</ele>
        <time>2020-07-23T07:39:39Z</time>
      </trkpt>
      <trkpt lat="42.781588" lon="-0.134106">
        <ele>2606.887</ele>
        <time>2020-07-23T07:39:45Z</time>
      </trkpt>
      <trkpt lat="42.781548" lon="-0.134077">
        <ele>2608.176</ele>
        <time>2020-07-23T07:39:51Z</time>
      </trkpt>
      <trkpt lat="42.781503" lon="-0.134055">
        <ele>2608.824</ele>
        <time>2020-07-23T07:39:58Z</time>
      </trkpt>
      <trkpt lat="42.781467" lon="-0.134018">
        <ele>2610.104</ele>
        <time>2020-07-23T07:40:08Z</time>
      </trkpt>
      <trkpt lat="42.781428" lon="-0.133983">
        <ele>2610.914</ele>
        <time>2020-07-23T07:40:16Z</time>
      </trkpt>
      <trkpt lat="42.781437" lon="-0.133916">
        <ele>2612.408</ele>
        <time>2020-07-23T07:40:26Z</time>
      </trkpt>
      <trkpt lat="42.781393" lon="-0.133887">
        <ele>2613.227</ele>
        <time>2020-07-23T07:40:35Z</time>
      </trkpt>
      <trkpt lat="42.781358" lon="-0.133835">
        <ele>2616.065</ele>
        <time>2020-07-23T07:40:42Z</time>
      </trkpt>
      <trkpt lat="42.781347" lon="-0.133772">
        <ele>2615.739</ele>
        <time>2020-07-23T07:40:48Z</time>
      </trkpt>
      <trkpt lat="42.781287" lon="-0.133718">
        <ele>2617.042</ele>
        <time>2020-07-23T07:40:55Z</time>
      </trkpt>
      <trkpt lat="42.781310" lon="-0.133662">
        <ele>2619.272</ele>
        <time>2020-07-23T07:41:05Z</time>
      </trkpt>
      <trkpt lat="42.781331" lon="-0.133632">
        <ele>2619.894</ele>
        <time>2020-07-23T07:41:58Z</time>
      </trkpt>
      <trkpt lat="42.781370" lon="-0.133621">
        <ele>2621.664</ele>
        <time>2020-07-23T07:42:08Z</time>
      </trkpt>
      <trkpt lat="42.781410" lon="-0.133589">
        <ele>2623.453</ele>
        <time>2020-07-23T07:42:14Z</time>
      </trkpt>
      <trkpt lat="42.781349" lon="-0.133524">
        <ele>2623.877</ele>
        <time>2020-07-23T07:42:21Z</time>
      </trkpt>
      <trkpt lat="42.781304" lon="-0.133493">
        <ele>2626.061</ele>
        <time>2020-07-23T07:42:28Z</time>
      </trkpt>
      <trkpt lat="42.781277" lon="-0.133443">
        <ele>2625.527</ele>
        <time>2020-07-23T07:42:36Z</time>
      </trkpt>
      <trkpt lat="42.781232" lon="-0.133403">
        <ele>2629.308</ele>
        <time>2020-07-23T07:42:47Z</time>
      </trkpt>
      <trkpt lat="42.781178" lon="-0.133417">
        <ele>2629.822</ele>
        <time>2020-07-23T07:42:54Z</time>
      </trkpt>
      <trkpt lat="42.781124" lon="-0.133418">
        <ele>2629.240</ele>
        <time>2020-07-23T07:43:00Z</time>
      </trkpt>
      <trkpt lat="42.781061" lon="-0.133382">
        <ele>2630.124</ele>
        <time>2020-07-23T07:43:06Z</time>
      </trkpt>
      <trkpt lat="42.781061" lon="-0.133357">
        <ele>2631.667</ele>
        <time>2020-07-23T07:43:13Z</time>
      </trkpt>
      <trkpt lat="42.781100" lon="-0.133323">
        <ele>2632.567</ele>
        <time>2020-07-23T07:43:20Z</time>
      </trkpt>
      <trkpt lat="42.781137" lon="-0.133291">
        <ele>2634.949</ele>
        <time>2020-07-23T07:43:26Z</time>
      </trkpt>
      <trkpt lat="42.781191" lon="-0.133287">
        <ele>2634.649</ele>
        <time>2020-07-23T07:43:33Z</time>
      </trkpt>
      <trkpt lat="42.781227" lon="-0.133248">
        <ele>2634.718</ele>
        <time>2020-07-23T07:43:43Z</time>
      </trkpt>
      <trkpt lat="42.781280" lon="-0.133243">
        <ele>2636.625</ele>
        <time>2020-07-23T07:43:52Z</time>
      </trkpt>
      <trkpt lat="42.781334" lon="-0.133185">
        <ele>2638.126</ele>
        <time>2020-07-23T07:43:59Z</time>
      </trkpt>
      <trkpt lat="42.781259" lon="-0.133154">
        <ele>2637.908</ele>
        <time>2020-07-23T07:44:08Z</time>
      </trkpt>
      <trkpt lat="42.781212" lon="-0.133152">
        <ele>2638.608</ele>
        <time>2020-07-23T07:44:15Z</time>
      </trkpt>
      <trkpt lat="42.781167" lon="-0.133142">
        <ele>2639.677</ele>
        <time>2020-07-23T07:44:22Z</time>
      </trkpt>
      <trkpt lat="42.781126" lon="-0.133102">
        <ele>2640.865</ele>
        <time>2020-07-23T07:44:30Z</time>
      </trkpt>
      <trkpt lat="42.781089" lon="-0.133062">
        <ele>2641.679</ele>
        <time>2020-07-23T07:44:40Z</time>
      </trkpt>
      <trkpt lat="42.781053" lon="-0.133018">
        <ele>2644.062</ele>
        <time>2020-07-23T07:44:47Z</time>
      </trkpt>
      <trkpt lat="42.781006" lon="-0.132985">
        <ele>2645.362</ele>
        <time>2020-07-23T07:44:55Z</time>
      </trkpt>
      <trkpt lat="42.780966" lon="-0.132954">
        <ele>2643.894</ele>
        <time>2020-07-23T07:45:02Z</time>
      </trkpt>
      <trkpt lat="42.780911" lon="-0.132936">
        <ele>2645.974</ele>
        <time>2020-07-23T07:45:12Z</time>
      </trkpt>
      <trkpt lat="42.780869" lon="-0.132911">
        <ele>2647.433</ele>
        <time>2020-07-23T07:45:18Z</time>
      </trkpt>
      <trkpt lat="42.780825" lon="-0.132871">
        <ele>2647.131</ele>
        <time>2020-07-23T07:45:26Z</time>
      </trkpt>
      <trkpt lat="42.780769" lon="-0.132860">
        <ele>2648.261</ele>
        <time>2020-07-23T07:45:32Z</time>
      </trkpt>
      <trkpt lat="42.780714" lon="-0.132849">
        <ele>2648.607</ele>
        <time>2020-07-23T07:45:39Z</time>
      </trkpt>
      <trkpt lat="42.780671" lon="-0.132822">
        <ele>2648.908</ele>
        <time>2020-07-23T07:45:45Z</time>
      </trkpt>
      <trkpt lat="42.780627" lon="-0.132785">
        <ele>2650.088</ele>
        <time>2020-07-23T07:45:51Z</time>
      </trkpt>
      <trkpt lat="42.780581" lon="-0.132773">
        <ele>2651.186</ele>
        <time>2020-07-23T07:45:59Z</time>
      </trkpt>
      <trkpt lat="42.780538" lon="-0.132750">
        <ele>2653.170</ele>
        <time>2020-07-23T07:46:05Z</time>
      </trkpt>
      <trkpt lat="42.780493" lon="-0.132715">
        <ele>2652.833</ele>
        <time>2020-07-23T07:46:14Z</time>
      </trkpt>
      <trkpt lat="42.780446" lon="-0.132706">
        <ele>2655.233</ele>
        <time>2020-07-23T07:46:23Z</time>
      </trkpt>
      <trkpt lat="42.780399" lon="-0.132695">
        <ele>2656.515</ele>
        <time>2020-07-23T07:46:31Z</time>
      </trkpt>
      <trkpt lat="42.780355" lon="-0.132666">
        <ele>2656.455</ele>
        <time>2020-07-23T07:46:39Z</time>
      </trkpt>
      <trkpt lat="42.780313" lon="-0.132636">
        <ele>2656.244</ele>
        <time>2020-07-23T07:46:46Z</time>
      </trkpt>
      <trkpt lat="42.780268" lon="-0.132638">
        <ele>2658.156</ele>
        <time>2020-07-23T07:46:53Z</time>
      </trkpt>
      <trkpt lat="42.780222" lon="-0.132637">
        <ele>2659.859</ele>
        <time>2020-07-23T07:47:02Z</time>
      </trkpt>
      <trkpt lat="42.780180" lon="-0.132608">
        <ele>2659.014</ele>
        <time>2020-07-23T07:47:08Z</time>
      </trkpt>
      <trkpt lat="42.780135" lon="-0.132590">
        <ele>2659.508</ele>
        <time>2020-07-23T07:47:14Z</time>
      </trkpt>
      <trkpt lat="42.780088" lon="-0.132567">
        <ele>2659.590</ele>
        <time>2020-07-23T07:47:21Z</time>
      </trkpt>
      <trkpt lat="42.780037" lon="-0.132554">
        <ele>2661.138</ele>
        <time>2020-07-23T07:47:27Z</time>
      </trkpt>
      <trkpt lat="42.779992" lon="-0.132540">
        <ele>2661.272</ele>
        <time>2020-07-23T07:47:34Z</time>
      </trkpt>
      <trkpt lat="42.779946" lon="-0.132514">
        <ele>2662.665</ele>
        <time>2020-07-23T07:47:40Z</time>
      </trkpt>
      <trkpt lat="42.779900" lon="-0.132486">
        <ele>2665.195</ele>
        <time>2020-07-23T07:47:50Z</time>
      </trkpt>
      <trkpt lat="42.779856" lon="-0.132457">
        <ele>2665.147</ele>
        <time>2020-07-23T07:48:00Z</time>
      </trkpt>
      <trkpt lat="42.779813" lon="-0.132437">
        <ele>2666.837</ele>
        <time>2020-07-23T07:48:09Z</time>
      </trkpt>
      <trkpt lat="42.779798" lon="-0.132372">
        <ele>2667.626</ele>
        <time>2020-07-23T07:48:19Z</time>
      </trkpt>
      <trkpt lat="42.779780" lon="-0.132303">
        <ele>2669.442</ele>
        <time>2020-07-23T07:48:28Z</time>
      </trkpt>
      <trkpt lat="42.779754" lon="-0.132246">
        <ele>2669.922</ele>
        <time>2020-07-23T07:48:38Z</time>
      </trkpt>
      <trkpt lat="42.779711" lon="-0.132203">
        <ele>2671.514</ele>
        <time>2020-07-23T07:48:48Z</time>
      </trkpt>
      <trkpt lat="42.779685" lon="-0.132152">
        <ele>2673.008</ele>
        <time>2020-07-23T07:48:56Z</time>
      </trkpt>
      <trkpt lat="42.779632" lon="-0.132127">
        <ele>2674.689</ele>
        <time>2020-07-23T07:49:04Z</time>
      </trkpt>
      <trkpt lat="42.779599" lon="-0.132079">
        <ele>2674.577</ele>
        <time>2020-07-23T07:49:12Z</time>
      </trkpt>
      <trkpt lat="42.779565" lon="-0.132062">
        <ele>2676.931</ele>
        <time>2020-07-23T07:49:27Z</time>
      </trkpt>
      <trkpt lat="42.779530" lon="-0.132032">
        <ele>2677.544</ele>
        <time>2020-07-23T07:49:47Z</time>
      </trkpt>
      <trkpt lat="42.779484" lon="-0.132009">
        <ele>2679.184</ele>
        <time>2020-07-23T07:49:56Z</time>
      </trkpt>
      <trkpt lat="42.779506" lon="-0.131942">
        <ele>2681.616</ele>
        <time>2020-07-23T07:50:06Z</time>
      </trkpt>
      <trkpt lat="42.779551" lon="-0.131941">
        <ele>2682.666</ele>
        <time>2020-07-23T07:50:19Z</time>
      </trkpt>
      <trkpt lat="42.779598" lon="-0.131910">
        <ele>2682.675</ele>
        <time>2020-07-23T07:50:28Z</time>
      </trkpt>
      <trkpt lat="42.779639" lon="-0.131922">
        <ele>2684.294</ele>
        <time>2020-07-23T07:50:37Z</time>
      </trkpt>
      <trkpt lat="42.779680" lon="-0.131917">
        <ele>2685.857</ele>
        <time>2020-07-23T07:50:46Z</time>
      </trkpt>
      <trkpt lat="42.779721" lon="-0.131946">
        <ele>2686.022</ele>
        <time>2020-07-23T07:51:12Z</time>
      </trkpt>
      <trkpt lat="42.779771" lon="-0.131946">
        <ele>2687.508</ele>
        <time>2020-07-23T07:51:23Z</time>
      </trkpt>
      <trkpt lat="42.779823" lon="-0.131941">
        <ele>2689.814</ele>
        <time>2020-07-23T07:51:31Z</time>
      </trkpt>
      <trkpt lat="42.779840" lon="-0.131879">
        <ele>2691.892</ele>
        <time>2020-07-23T07:51:45Z</time>
      </trkpt>
      <trkpt lat="42.779819" lon="-0.131824">
        <ele>2692.966</ele>
        <time>2020-07-23T07:51:53Z</time>
      </trkpt>
      <trkpt lat="42.779779" lon="-0.131793">
        <ele>2694.389</ele>
        <time>2020-07-23T07:52:02Z</time>
      </trkpt>
      <trkpt lat="42.779730" lon="-0.131771">
        <ele>2695.129</ele>
        <time>2020-07-23T07:52:12Z</time>
      </trkpt>
      <trkpt lat="42.779692" lon="-0.131738">
        <ele>2697.151</ele>
        <time>2020-07-23T07:52:19Z</time>
      </trkpt>
      <trkpt lat="42.779655" lon="-0.131688">
        <ele>2698.471</ele>
        <time>2020-07-23T07:52:27Z</time>
      </trkpt>
      <trkpt lat="42.779639" lon="-0.131624">
        <ele>2699.610</ele>
        <time>2020-07-23T07:52:36Z</time>
      </trkpt>
      <trkpt lat="42.779592" lon="-0.131583">
        <ele>2700.686</ele>
        <time>2020-07-23T07:52:47Z</time>
      </trkpt>
      <trkpt lat="42.779544" lon="-0.131565">
        <ele>2702.060</ele>
        <time>2020-07-23T07:52:56Z</time>
      </trkpt>
      <trkpt lat="42.779500" lon="-0.131546">
        <ele>2703.226</ele>
        <time>2020-07-23T07:53:05Z</time>
      </trkpt>
      <trkpt lat="42.779453" lon="-0.131539">
        <ele>2705.608</ele>
        <time>2020-07-23T07:53:15Z</time>
      </trkpt>
      <trkpt lat="42.779411" lon="-0.131514">
        <ele>2707.613</ele>
        <time>2020-07-23T07:53:29Z</time>
      </trkpt>
      <trkpt lat="42.779367" lon="-0.131493">
        <ele>2708.751</ele>
        <time>2020-07-23T07:53:39Z</time>
      </trkpt>
      <trkpt lat="42.779321" lon="-0.131478">
        <ele>2709.345</ele>
        <time>2020-07-23T07:53:46Z</time>
      </trkpt>
      <trkpt lat="42.779281" lon="-0.131445">
        <ele>2709.568</ele>
        <time>2020-07-23T07:54:42Z</time>
      </trkpt>
      <trkpt lat="42.779237" lon="-0.131466">
        <ele>2710.918</ele>
        <time>2020-07-23T07:56:15Z</time>
      </trkpt>
      <trkpt lat="42.779191" lon="-0.131461">
        <ele>2712.210</ele>
        <time>2020-07-23T07:56:41Z</time>
      </trkpt>
      <trkpt lat="42.779146" lon="-0.131443">
        <ele>2709.760</ele>
        <time>2020-07-23T07:57:29Z</time>
      </trkpt>
      <trkpt lat="42.779092" lon="-0.131452">
        <ele>2710.489</ele>
        <time>2020-07-23T07:57:38Z</time>
      </trkpt>
      <trkpt lat="42.779045" lon="-0.131450">
        <ele>2710.557</ele>
        <time>2020-07-23T07:57:56Z</time>
      </trkpt>
      <trkpt lat="42.778996" lon="-0.131418">
        <ele>2709.500</ele>
        <time>2020-07-23T07:58:04Z</time>
      </trkpt>
      <trkpt lat="42.778957" lon="-0.131458">
        <ele>2711.720</ele>
        <time>2020-07-23T07:58:11Z</time>
      </trkpt>
      <trkpt lat="42.778909" lon="-0.131464">
        <ele>2712.208</ele>
        <time>2020-07-23T07:58:16Z</time>
      </trkpt>
      <trkpt lat="42.778854" lon="-0.131449">
        <ele>2713.570</ele>
        <time>2020-07-23T07:58:22Z</time>
      </trkpt>
      <trkpt lat="42.778801" lon="-0.131425">
        <ele>2713.178</ele>
        <time>2020-07-23T07:58:30Z</time>
      </trkpt>
      <trkpt lat="42.778753" lon="-0.131420">
        <ele>2714.882</ele>
        <time>2020-07-23T07:58:37Z</time>
      </trkpt>
      <trkpt lat="42.778712" lon="-0.131384">
        <ele>2716.255</ele>
        <time>2020-07-23T07:58:45Z</time>
      </trkpt>
      <trkpt lat="42.778667" lon="-0.131371">
        <ele>2716.795</ele>
        <time>2020-07-23T07:58:55Z</time>
      </trkpt>
      <trkpt lat="42.778620" lon="-0.131353">
        <ele>2716.937</ele>
        <time>2020-07-23T07:59:03Z</time>
      </trkpt>
      <trkpt lat="42.778572" lon="-0.131359">
        <ele>2718.527</ele>
        <time>2020-07-23T07:59:11Z</time>
      </trkpt>
      <trkpt lat="42.778535" lon="-0.131397">
        <ele>2720.846</ele>
        <time>2020-07-23T07:59:18Z</time>
      </trkpt>
      <trkpt lat="42.778507" lon="-0.131448">
        <ele>2722.117</ele>
        <time>2020-07-23T07:59:31Z</time>
      </trkpt>
      <trkpt lat="42.778535" lon="-0.131504">
        <ele>2724.387</ele>
        <time>2020-07-23T07:59:39Z</time>
      </trkpt>
      <trkpt lat="42.778512" lon="-0.131562">
        <ele>2726.315</ele>
        <time>2020-07-23T07:59:51Z</time>
      </trkpt>
      <trkpt lat="42.778521" lon="-0.131611">
        <ele>2727.508</ele>
        <time>2020-07-23T08:00:01Z</time>
      </trkpt>
      <trkpt lat="42.778481" lon="-0.131569">
        <ele>2729.296</ele>
        <time>2020-07-23T08:00:11Z</time>
      </trkpt>
      <trkpt lat="42.778438" lon="-0.131543">
        <ele>2730.134</ele>
        <time>2020-07-23T08:00:21Z</time>
      </trkpt>
      <trkpt lat="42.778424" lon="-0.131602">
        <ele>2730.838</ele>
        <time>2020-07-23T08:00:28Z</time>
      </trkpt>
      <trkpt lat="42.778373" lon="-0.131616">
        <ele>2733.711</ele>
        <time>2020-07-23T08:00:45Z</time>
      </trkpt>
      <trkpt lat="42.778346" lon="-0.131670">
        <ele>2735.991</ele>
        <time>2020-07-23T08:00:59Z</time>
      </trkpt>
      <trkpt lat="42.778298" lon="-0.131658">
        <ele>2736.853</ele>
        <time>2020-07-23T08:01:12Z</time>
      </trkpt>
      <trkpt lat="42.778249" lon="-0.131642">
        <ele>2738.363</ele>
        <time>2020-07-23T08:01:22Z</time>
      </trkpt>
      <trkpt lat="42.778203" lon="-0.131618">
        <ele>2740.272</ele>
        <time>2020-07-23T08:01:33Z</time>
      </trkpt>
      <trkpt lat="42.778157" lon="-0.131602">
        <ele>2742.216</ele>
        <time>2020-07-23T08:01:43Z</time>
      </trkpt>
      <trkpt lat="42.778113" lon="-0.131620">
        <ele>2742.976</ele>
        <time>2020-07-23T08:01:52Z</time>
      </trkpt>
      <trkpt lat="42.778107" lon="-0.131686">
        <ele>2745.213</ele>
        <time>2020-07-23T08:02:08Z</time>
      </trkpt>
      <trkpt lat="42.778068" lon="-0.131652">
        <ele>2746.608</ele>
        <time>2020-07-23T08:02:18Z</time>
      </trkpt>
      <trkpt lat="42.778015" lon="-0.131636">
        <ele>2748.066</ele>
        <time>2020-07-23T08:02:25Z</time>
      </trkpt>
      <trkpt lat="42.777925" lon="-0.131605">
        <ele>2749.064</ele>
        <time>2020-07-23T08:02:33Z</time>
      </trkpt>
      <trkpt lat="42.777941" lon="-0.131658">
        <ele>2751.848</ele>
        <time>2020-07-23T08:02:46Z</time>
      </trkpt>
      <trkpt lat="42.777919" lon="-0.131709">
        <ele>2751.681</ele>
        <time>2020-07-23T08:02:53Z</time>
      </trkpt>
      <trkpt lat="42.777931" lon="-0.131736">
        <ele>2752.191</ele>
        <time>2020-07-23T08:03:00Z</time>
      </trkpt>
      <trkpt lat="42.777924" lon="-0.131776">
        <ele>2755.213</ele>
        <time>2020-07-23T08:03:16Z</time>
      </trkpt>
      <trkpt lat="42.777905" lon="-0.131779">
        <ele>2756.993</ele>
        <time>2020-07-23T08:03:28Z</time>
      </trkpt>
      <trkpt lat="42.777880" lon="-0.131817">
        <ele>2757.322</ele>
        <time>2020-07-23T08:03:34Z</time>
      </trkpt>
      <trkpt lat="42.777895" lon="-0.131864">
        <ele>2759.723</ele>
        <time>2020-07-23T08:03:46Z</time>
      </trkpt>
      <trkpt lat="42.777894" lon="-0.131926">
        <ele>2760.983</ele>
        <time>2020-07-23T08:03:57Z</time>
      </trkpt>
      <trkpt lat="42.777850" lon="-0.131945">
        <ele>2763.111</ele>
        <time>2020-07-23T08:04:16Z</time>
      </trkpt>
      <trkpt lat="42.777804" lon="-0.131924">
        <ele>2766.708</ele>
        <time>2020-07-23T08:04:28Z</time>
      </trkpt>
      <trkpt lat="42.777756" lon="-0.131927">
        <ele>2767.687</ele>
        <time>2020-07-23T08:04:37Z</time>
      </trkpt>
      <trkpt lat="42.777712" lon="-0.131959">
        <ele>2771.815</ele>
        <time>2020-07-23T08:05:14Z</time>
      </trkpt>
      <trkpt lat="42.777706" lon="-0.132023">
        <ele>2775.159</ele>
        <time>2020-07-23T08:05:40Z</time>
      </trkpt>
      <trkpt lat="42.777683" lon="-0.132066">
        <ele>2780.182</ele>
        <time>2020-07-23T08:06:53Z</time>
      </trkpt>
      <trkpt lat="42.777641" lon="-0.132055">
        <ele>2779.112</ele>
        <time>2020-07-23T08:07:01Z</time>
      </trkpt>
      <trkpt lat="42.777590" lon="-0.132060">
        <ele>2781.894</ele>
        <time>2020-07-23T08:07:09Z</time>
      </trkpt>
      <trkpt lat="42.777544" lon="-0.132061">
        <ele>2782.814</ele>
        <time>2020-07-23T08:07:18Z</time>
      </trkpt>
      <trkpt lat="42.777505" lon="-0.132103">
        <ele>2785.613</ele>
        <time>2020-07-23T08:07:29Z</time>
      </trkpt>
      <trkpt lat="42.777462" lon="-0.132124">
        <ele>2787.719</ele>
        <time>2020-07-23T08:07:41Z</time>
      </trkpt>
      <trkpt lat="42.777415" lon="-0.132134">
        <ele>2789.209</ele>
        <time>2020-07-23T08:07:53Z</time>
      </trkpt>
      <trkpt lat="42.777368" lon="-0.132150">
        <ele>2792.119</ele>
        <time>2020-07-23T08:08:05Z</time>
      </trkpt>
      <trkpt lat="42.777355" lon="-0.132162">
        <ele>2794.408</ele>
        <time>2020-07-23T08:08:32Z</time>
      </trkpt>
      <trkpt lat="42.777332" lon="-0.132221">
        <ele>2795.866</ele>
        <time>2020-07-23T08:08:43Z</time>
      </trkpt>
      <trkpt lat="42.777298" lon="-0.132266">
        <ele>2798.284</ele>
        <time>2020-07-23T08:09:01Z</time>
      </trkpt>
      <trkpt lat="42.777240" lon="-0.132279">
        <ele>2801.588</ele>
        <time>2020-07-23T08:09:12Z</time>
      </trkpt>
      <trkpt lat="42.777184" lon="-0.132282">
        <ele>2802.681</ele>
        <time>2020-07-23T08:09:33Z</time>
      </trkpt>
      <trkpt lat="42.777143" lon="-0.132245">
        <ele>2804.131</ele>
        <time>2020-07-23T08:09:40Z</time>
      </trkpt>
      <trkpt lat="42.777096" lon="-0.132256">
        <ele>2805.863</ele>
        <time>2020-07-23T08:09:47Z</time>
      </trkpt>
      <trkpt lat="42.777052" lon="-0.132223">
        <ele>2806.653</ele>
        <time>2020-07-23T08:09:58Z</time>
      </trkpt>
      <trkpt lat="42.777004" lon="-0.132220">
        <ele>2809.032</ele>
        <time>2020-07-23T08:10:08Z</time>
      </trkpt>
      <trkpt lat="42.777004" lon="-0.132286">
        <ele>2809.546</ele>
        <time>2020-07-23T08:10:18Z</time>
      </trkpt>
      <trkpt lat="42.776992" lon="-0.132352">
        <ele>2810.588</ele>
        <time>2020-07-23T08:10:29Z</time>
      </trkpt>
      <trkpt lat="42.776950" lon="-0.132380">
        <ele>2814.216</ele>
        <time>2020-07-23T08:10:42Z</time>
      </trkpt>
      <trkpt lat="42.776901" lon="-0.132380">
        <ele>2815.008</ele>
        <time>2020-07-23T08:10:54Z</time>
      </trkpt>
      <trkpt lat="42.776853" lon="-0.132368">
        <ele>2816.369</ele>
        <time>2020-07-23T08:11:07Z</time>
      </trkpt>
      <trkpt lat="42.776834" lon="-0.132427">
        <ele>2819.237</ele>
        <time>2020-07-23T08:11:18Z</time>
      </trkpt>
      <trkpt lat="42.776803" lon="-0.132475">
        <ele>2821.071</ele>
        <time>2020-07-23T08:11:32Z</time>
      </trkpt>
      <trkpt lat="42.776780" lon="-0.132512">
        <ele>2826.084</ele>
        <time>2020-07-23T08:12:12Z</time>
      </trkpt>
      <trkpt lat="42.776744" lon="-0.132505">
        <ele>2827.434</ele>
        <time>2020-07-23T08:12:26Z</time>
      </trkpt>
      <trkpt lat="42.776733" lon="-0.132443">
        <ele>2829.116</ele>
        <time>2020-07-23T08:12:37Z</time>
      </trkpt>
      <trkpt lat="42.776691" lon="-0.132474">
        <ele>2830.856</ele>
        <time>2020-07-23T08:12:55Z</time>
      </trkpt>
      <trkpt lat="42.776658" lon="-0.132423">
        <ele>2833.695</ele>
        <time>2020-07-23T08:13:05Z</time>
      </trkpt>
      <trkpt lat="42.776622" lon="-0.132476">
        <ele>2835.053</ele>
        <time>2020-07-23T08:13:18Z</time>
      </trkpt>
      <trkpt lat="42.776599" lon="-0.132414">
        <ele>2836.704</ele>
        <time>2020-07-23T08:13:29Z</time>
      </trkpt>
      <trkpt lat="42.776575" lon="-0.132481">
        <ele>2839.014</ele>
        <time>2020-07-23T08:13:45Z</time>
      </trkpt>
      <trkpt lat="42.776533" lon="-0.132443">
        <ele>2839.408</ele>
        <time>2020-07-23T08:13:57Z</time>
      </trkpt>
      <trkpt lat="42.776486" lon="-0.132447">
        <ele>2842.060</ele>
        <time>2020-07-23T08:14:11Z</time>
      </trkpt>
      <trkpt lat="42.776447" lon="-0.132412">
        <ele>2843.568</ele>
        <time>2020-07-23T08:14:21Z</time>
      </trkpt>
      <trkpt lat="42.776404" lon="-0.132396">
        <ele>2844.282</ele>
        <time>2020-07-23T08:14:29Z</time>
      </trkpt>
      <trkpt lat="42.776362" lon="-0.132364">
        <ele>2846.485</ele>
        <time>2020-07-23T08:14:40Z</time>
      </trkpt>
      <trkpt lat="42.776352" lon="-0.132424">
        <ele>2847.965</ele>
        <time>2020-07-23T08:14:57Z</time>
      </trkpt>
      <trkpt lat="42.776335" lon="-0.132482">
        <ele>2850.677</ele>
        <time>2020-07-23T08:15:07Z</time>
      </trkpt>
      <trkpt lat="42.776305" lon="-0.132432">
        <ele>2851.527</ele>
        <time>2020-07-23T08:15:33Z</time>
      </trkpt>
      <trkpt lat="42.776278" lon="-0.132379">
        <ele>2852.636</ele>
        <time>2020-07-23T08:15:40Z</time>
      </trkpt>
      <trkpt lat="42.776240" lon="-0.132335">
        <ele>2854.297</ele>
        <time>2020-07-23T08:15:48Z</time>
      </trkpt>
      <trkpt lat="42.776193" lon="-0.132323">
        <ele>2854.523</ele>
        <time>2020-07-23T08:15:56Z</time>
      </trkpt>
      <trkpt lat="42.776194" lon="-0.132391">
        <ele>2857.125</ele>
        <time>2020-07-23T08:16:03Z</time>
      </trkpt>
      <trkpt lat="42.776202" lon="-0.132459">
        <ele>2858.108</ele>
        <time>2020-07-23T08:16:11Z</time>
      </trkpt>
      <trkpt lat="42.776208" lon="-0.132523">
        <ele>2859.994</ele>
        <time>2020-07-23T08:16:20Z</time>
      </trkpt>
      <trkpt lat="42.776225" lon="-0.132585">
        <ele>2858.812</ele>
        <time>2020-07-23T08:16:28Z</time>
      </trkpt>
      <trkpt lat="42.776230" lon="-0.132647">
        <ele>2861.386</ele>
        <time>2020-07-23T08:16:39Z</time>
      </trkpt>
      <trkpt lat="42.776221" lon="-0.132713">
        <ele>2862.649</ele>
        <time>2020-07-23T08:16:50Z</time>
      </trkpt>
      <trkpt lat="42.776222" lon="-0.132785">
        <ele>2864.049</ele>
        <time>2020-07-23T08:17:02Z</time>
      </trkpt>
      <trkpt lat="42.776176" lon="-0.132763">
        <ele>2865.421</ele>
        <time>2020-07-23T08:17:10Z</time>
      </trkpt>
      <trkpt lat="42.776187" lon="-0.132827">
        <ele>2867.021</ele>
        <time>2020-07-23T08:17:29Z</time>
      </trkpt>
      <trkpt lat="42.776210" lon="-0.132881">
        <ele>2870.760</ele>
        <time>2020-07-23T08:17:48Z</time>
      </trkpt>
      <trkpt lat="42.776183" lon="-0.132935">
        <ele>2874.046</ele>
        <time>2020-07-23T08:18:15Z</time>
      </trkpt>
      <trkpt lat="42.776137" lon="-0.132950">
        <ele>2874.688</ele>
        <time>2020-07-23T08:18:27Z</time>
      </trkpt>
      <trkpt lat="42.776146" lon="-0.133000">
        <ele>2876.416</ele>
        <time>2020-07-23T08:18:53Z</time>
      </trkpt>
      <trkpt lat="42.776122" lon="-0.133014">
        <ele>2879.708</ele>
        <time>2020-07-23T08:19:17Z</time>
      </trkpt>
      <trkpt lat="42.776119" lon="-0.133042">
        <ele>2880.519</ele>
        <time>2020-07-23T08:19:35Z</time>
      </trkpt>
      <trkpt lat="42.776116" lon="-0.133076">
        <ele>2881.687</ele>
        <time>2020-07-23T08:19:56Z</time>
      </trkpt>
      <trkpt lat="42.776060" lon="-0.133077">
        <ele>2884.451</ele>
        <time>2020-07-23T08:20:14Z</time>
      </trkpt>
      <trkpt lat="42.776011" lon="-0.133069">
        <ele>2887.784</ele>
        <time>2020-07-23T08:20:33Z</time>
      </trkpt>
      <trkpt lat="42.775959" lon="-0.133067">
        <ele>2890.354</ele>
        <time>2020-07-23T08:20:44Z</time>
      </trkpt>
      <trkpt lat="42.775912" lon="-0.133083">
        <ele>2893.126</ele>
        <time>2020-07-23T08:21:13Z</time>
      </trkpt>
      <trkpt lat="42.775848" lon="-0.133015">
        <ele>2896.096</ele>
        <time>2020-07-23T08:21:45Z</time>
      </trkpt>
      <trkpt lat="42.775780" lon="-0.133004">
        <ele>2897.265</ele>
        <time>2020-07-23T08:21:59Z</time>
      </trkpt>
      <trkpt lat="42.775821" lon="-0.133106">
        <ele>2899.377</ele>
        <time>2020-07-23T08:22:08Z</time>
      </trkpt>
      <trkpt lat="42.775859" lon="-0.133179">
        <ele>2900.861</ele>
        <time>2020-07-23T08:22:20Z</time>
      </trkpt>
      <trkpt lat="42.775877" lon="-0.133257">
        <ele>2901.327</ele>
        <time>2020-07-23T08:22:34Z</time>
      </trkpt>
      <trkpt lat="42.775824" lon="-0.133250">
        <ele>2910.308</ele>
        <time>2020-07-23T08:23:56Z</time>
      </trkpt>
      <trkpt lat="42.775765" lon="-0.133244">
        <ele>2915.312</ele>
        <time>2020-07-23T08:24:40Z</time>
      </trkpt>
      <trkpt lat="42.775748" lon="-0.133282">
        <ele>2915.230</ele>
        <time>2020-07-23T08:26:30Z</time>
      </trkpt>
      <trkpt lat="42.775793" lon="-0.133390">
        <ele>2915.784</ele>
        <time>2020-07-23T08:26:53Z</time>
      </trkpt>
      <trkpt lat="42.775774" lon="-0.133394">
        <ele>2916.037</ele>
        <time>2020-07-23T08:27:10Z</time>
      </trkpt>
      <trkpt lat="42.775723" lon="-0.133400">
        <ele>2918.847</ele>
        <time>2020-07-23T08:27:23Z</time>
      </trkpt>
      <trkpt lat="42.775688" lon="-0.133442">
        <ele>2920.439</ele>
        <time>2020-07-23T08:27:35Z</time>
      </trkpt>
      <trkpt lat="42.775712" lon="-0.133504">
        <ele>2922.169</ele>
        <time>2020-07-23T08:27:46Z</time>
      </trkpt>
      <trkpt lat="42.775723" lon="-0.133564">
        <ele>2923.218</ele>
        <time>2020-07-23T08:27:51Z</time>
      </trkpt>
      <trkpt lat="42.775717" lon="-0.133605">
        <ele>2924.571</ele>
        <time>2020-07-23T08:27:59Z</time>
      </trkpt>
      <trkpt lat="42.775693" lon="-0.133593">
        <ele>2926.741</ele>
        <time>2020-07-23T08:33:10Z</time>
      </trkpt>
      <trkpt lat="42.775653" lon="-0.133605">
        <ele>2928.715</ele>
        <time>2020-07-23T08:35:59Z</time>
      </trkpt>
      <trkpt lat="42.775649" lon="-0.133650">
        <ele>2928.508</ele>
        <time>2020-07-23T08:36:33Z</time>
      </trkpt>
      <trkpt lat="42.775606" lon="-0.133686">
        <ele>2931.932</ele>
        <time>2020-07-23T08:36:55Z</time>
      </trkpt>
      <trkpt lat="42.775595" lon="-0.133759">
        <ele>2935.150</ele>
        <time>2020-07-23T08:37:05Z</time>
      </trkpt>
      <trkpt lat="42.775614" lon="-0.133786">
        <ele>2935.254</ele>
        <time>2020-07-23T08:37:13Z</time>
      </trkpt>
      <trkpt lat="42.775637" lon="-0.133815">
        <ele>2937.397</ele>
        <time>2020-07-23T08:37:24Z</time>
      </trkpt>
      <trkpt lat="42.775678" lon="-0.133882">
        <ele>2939.797</ele>
        <time>2020-07-23T08:37:34Z</time>
      </trkpt>
      <trkpt lat="42.775703" lon="-0.133923">
        <ele>2938.519</ele>
        <time>2020-07-23T08:37:43Z</time>
      </trkpt>
      <trkpt lat="42.775718" lon="-0.133981">
        <ele>2941.749</ele>
        <time>2020-07-23T08:37:54Z</time>
      </trkpt>
      <trkpt lat="42.775625" lon="-0.133953">
        <ele>2943.148</ele>
        <time>2020-07-23T08:38:01Z</time>
      </trkpt>
      <trkpt lat="42.775560" lon="-0.133975">
        <ele>2944.465</ele>
        <time>2020-07-23T08:38:10Z</time>
      </trkpt>
      <trkpt lat="42.775552" lon="-0.134057">
        <ele>2946.968</ele>
        <time>2020-07-23T08:38:45Z</time>
      </trkpt>
      <trkpt lat="42.775580" lon="-0.134125">
        <ele>2948.814</ele>
        <time>2020-07-23T08:38:57Z</time>
      </trkpt>
      <trkpt lat="42.775602" lon="-0.134140">
        <ele>2950.008</ele>
        <time>2020-07-23T08:39:06Z</time>
      </trkpt>
      <trkpt lat="42.775650" lon="-0.134231">
        <ele>2953.231</ele>
        <time>2020-07-23T08:39:20Z</time>
      </trkpt>
      <trkpt lat="42.775596" lon="-0.134215">
        <ele>2954.269</ele>
        <time>2020-07-23T08:39:30Z</time>
      </trkpt>
      <trkpt lat="42.775560" lon="-0.134217">
        <ele>2955.983</ele>
        <time>2020-07-23T08:39:41Z</time>
      </trkpt>
      <trkpt lat="42.775472" lon="-0.134218">
        <ele>2958.436</ele>
        <time>2020-07-23T08:40:07Z</time>
      </trkpt>
      <trkpt lat="42.775453" lon="-0.134273">
        <ele>2959.766</ele>
        <time>2020-07-23T08:40:17Z</time>
      </trkpt>
      <trkpt lat="42.775397" lon="-0.134286">
        <ele>2959.778</ele>
        <time>2020-07-23T08:40:24Z</time>
      </trkpt>
      <trkpt lat="42.775406" lon="-0.134349">
        <ele>2962.498</ele>
        <time>2020-07-23T08:41:03Z</time>
      </trkpt>
      <trkpt lat="42.775368" lon="-0.134340">
        <ele>2964.727</ele>
        <time>2020-07-23T08:41:11Z</time>
      </trkpt>
      <trkpt lat="42.775340" lon="-0.134362">
        <ele>2966.277</ele>
        <time>2020-07-23T08:41:19Z</time>
      </trkpt>
      <trkpt lat="42.775363" lon="-0.134424">
        <ele>2969.161</ele>
        <time>2020-07-23T08:41:36Z</time>
      </trkpt>
      <trkpt lat="42.775368" lon="-0.134461">
        <ele>2970.427</ele>
        <time>2020-07-23T08:41:50Z</time>
      </trkpt>
      <trkpt lat="42.775405" lon="-0.134462">
        <ele>2971.908</ele>
        <time>2020-07-23T08:42:01Z</time>
      </trkpt>
      <trkpt lat="42.775428" lon="-0.134523">
        <ele>2974.422</ele>
        <time>2020-07-23T08:42:14Z</time>
      </trkpt>
      <trkpt lat="42.775424" lon="-0.134570">
        <ele>2975.460</ele>
        <time>2020-07-23T08:42:26Z</time>
      </trkpt>
      <trkpt lat="42.775363" lon="-0.134558">
        <ele>2977.674</ele>
        <time>2020-07-23T08:42:37Z</time>
      </trkpt>
      <trkpt lat="42.775321" lon="-0.134547">
        <ele>2979.227</ele>
        <time>2020-07-23T08:42:53Z</time>
      </trkpt>
      <trkpt lat="42.775287" lon="-0.134572">
        <ele>2979.587</ele>
        <time>2020-07-23T08:43:04Z</time>
      </trkpt>
      <trkpt lat="42.775245" lon="-0.134585">
        <ele>2981.029</ele>
        <time>2020-07-23T08:43:22Z</time>
      </trkpt>
      <trkpt lat="42.775203" lon="-0.134565">
        <ele>2982.589</ele>
        <time>2020-07-23T08:43:31Z</time>
      </trkpt>
      <trkpt lat="42.775134" lon="-0.134513">
        <ele>2984.458</ele>
        <time>2020-07-23T08:43:50Z</time>
      </trkpt>
      <trkpt lat="42.775175" lon="-0.134580">
        <ele>2984.088</ele>
        <time>2020-07-23T08:43:57Z</time>
      </trkpt>
      <trkpt lat="42.775150" lon="-0.134644">
        <ele>2986.224</ele>
        <time>2020-07-23T08:44:07Z</time>
      </trkpt>
      <trkpt lat="42.775100" lon="-0.134641">
        <ele>2988.926</ele>
        <time>2020-07-23T08:44:20Z</time>
      </trkpt>
      <trkpt lat="42.775045" lon="-0.134622">
        <ele>2989.808</ele>
        <time>2020-07-23T08:45:16Z</time>
      </trkpt>
      <trkpt lat="42.774973" lon="-0.134594">
        <ele>2992.623</ele>
        <time>2020-07-23T08:45:33Z</time>
      </trkpt>
      <trkpt lat="42.774952" lon="-0.134603">
        <ele>2994.991</ele>
        <time>2020-07-23T08:45:38Z</time>
      </trkpt>
      <trkpt lat="42.774903" lon="-0.134721">
        <ele>2996.585</ele>
        <time>2020-07-23T08:45:45Z</time>
      </trkpt>
      <trkpt lat="42.774911" lon="-0.134820">
        <ele>2998.318</ele>
        <time>2020-07-23T08:45:53Z</time>
      </trkpt>
      <trkpt lat="42.774869" lon="-0.134851">
        <ele>3000.558</ele>
        <time>2020-07-23T08:46:01Z</time>
      </trkpt>
      <trkpt lat="42.774834" lon="-0.134900">
        <ele>3010.590</ele>
        <time>2020-07-23T08:46:11Z</time>
      </trkpt>
      <trkpt lat="42.774815" lon="-0.134948">
        <ele>3012.910</ele>
        <time>2020-07-23T08:46:23Z</time>
      </trkpt>
      <trkpt lat="42.774784" lon="-0.134994">
        <ele>3014.379</ele>
        <time>2020-07-23T08:46:31Z</time>
      </trkpt>
      <trkpt lat="42.774754" lon="-0.135019">
        <ele>3016.439</ele>
        <time>2020-07-23T08:46:43Z</time>
      </trkpt>
      <trkpt lat="42.774744" lon="-0.135046">
        <ele>3018.001</ele>
        <time>2020-07-23T08:49:15Z</time>
      </trkpt>
      <trkpt lat="42.774711" lon="-0.135092">
        <ele>3020.521</ele>
        <time>2020-07-23T08:49:27Z</time>
      </trkpt>
      <trkpt lat="42.774742" lon="-0.135008">
        <ele>3022.808</ele>
        <time>2020-07-23T08:52:37Z</time>
      </trkpt>
      <trkpt lat="42.774702" lon="-0.135022">
        <ele>3024.498</ele>
        <time>2020-07-23T08:53:56Z</time>
      </trkpt>
      <trkpt lat="42.774697" lon="-0.135091">
        <ele>3026.626</ele>
        <time>2020-07-23T08:55:17Z</time>
      </trkpt>
      <trkpt lat="42.774698" lon="-0.135144">
        <ele>3028.410</ele>
        <time>2020-07-23T08:55:54Z</time>
      </trkpt>
      <trkpt lat="42.774715" lon="-0.135202">
        <ele>3030.623</ele>
        <time>2020-07-23T08:56:09Z</time>
      </trkpt>
      <trkpt lat="42.774721" lon="-0.135116">
        <ele>3031.273</ele>
        <time>2020-07-23T08:57:14Z</time>
      </trkpt>
      <trkpt lat="42.774732" lon="-0.135067">
        <ele>3032.295</ele>
        <time>2020-07-23T08:57:18Z</time>
      </trkpt>
      <trkpt lat="42.774748" lon="-0.135004">
        <ele>3031.445</ele>
        <time>2020-07-23T08:57:23Z</time>
      </trkpt>
      <trkpt lat="42.774776" lon="-0.134976">
        <ele>3030.114</ele>
        <time>2020-07-23T08:57:56Z</time>
      </trkpt>
      <trkpt lat="42.774793" lon="-0.134919">
        <ele>3030.997</ele>
        <time>2020-07-23T08:58:15Z</time>
      </trkpt>
      <trkpt lat="42.774829" lon="-0.134875">
        <ele>3030.423</ele>
        <time>2020-07-23T08:58:22Z</time>
      </trkpt>
      <trkpt lat="42.774868" lon="-0.134833">
        <ele>3030.325</ele>
        <time>2020-07-23T08:58:27Z</time>
      </trkpt>
      <trkpt lat="42.774901" lon="-0.134765">
        <ele>3028.008</ele>
        <time>2020-07-23T09:27:09Z</time>
      </trkpt>
      <trkpt lat="42.774910" lon="-0.134699">
        <ele>3026.074</ele>
        <time>2020-07-23T09:27:16Z</time>
      </trkpt>
      <trkpt lat="42.774937" lon="-0.134635">
        <ele>3024.422</ele>
        <time>2020-07-23T09:27:22Z</time>
      </trkpt>
      <trkpt lat="42.774954" lon="-0.134571">
        <ele>3022.436</ele>
        <time>2020-07-23T09:27:32Z</time>
      </trkpt>
      <trkpt lat="42.774999" lon="-0.134579">
        <ele>3020.769</ele>
        <time>2020-07-23T09:27:40Z</time>
      </trkpt>
      <trkpt lat="42.775049" lon="-0.134598">
        <ele>3018.469</ele>
        <time>2020-07-23T09:27:48Z</time>
      </trkpt>
      <trkpt lat="42.775095" lon="-0.134625">
        <ele>3016.441</ele>
        <time>2020-07-23T09:27:57Z</time>
      </trkpt>
      <trkpt lat="42.775107" lon="-0.134627">
        <ele>3014.711</ele>
        <time>2020-07-23T09:27:59Z</time>
      </trkpt>
      <trkpt lat="42.775144" lon="-0.134635">
        <ele>3012.710</ele>
        <time>2020-07-23T09:28:05Z</time>
      </trkpt>
      <trkpt lat="42.775168" lon="-0.134579">
        <ele>3010.278</ele>
        <time>2020-07-23T09:28:19Z</time>
      </trkpt>
      <trkpt lat="42.775146" lon="-0.134518">
        <ele>3008.033</ele>
        <time>2020-07-23T09:28:25Z</time>
      </trkpt>
      <trkpt lat="42.775194" lon="-0.134546">
        <ele>3006.226</ele>
        <time>2020-07-23T09:28:40Z</time>
      </trkpt>
      <trkpt lat="42.775236" lon="-0.134582">
        <ele>3004.408</ele>
        <time>2020-07-23T09:28:57Z</time>
      </trkpt>
      <trkpt lat="42.775283" lon="-0.134563">
        <ele>3002.732</ele>
        <time>2020-07-23T09:29:05Z</time>
      </trkpt>
      <trkpt lat="42.775335" lon="-0.134573">
        <ele>3000.740</ele>
        <time>2020-07-23T09:29:13Z</time>
      </trkpt>
      <trkpt lat="42.775385" lon="-0.134571">
        <ele>2998.514</ele>
        <time>2020-07-23T09:29:21Z</time>
      </trkpt>
      <trkpt lat="42.775428" lon="-0.134557">
        <ele>2996.027</ele>
        <time>2020-07-23T09:29:30Z</time>
      </trkpt>
      <trkpt lat="42.775412" lon="-0.134499">
        <ele>2994.947</ele>
        <time>2020-07-23T09:29:35Z</time>
      </trkpt>
      <trkpt lat="42.775382" lon="-0.134452">
        <ele>2992.699</ele>
        <time>2020-07-23T09:29:40Z</time>
      </trkpt>
      <trkpt lat="42.775352" lon="-0.134399">
        <ele>2990.219</ele>
        <time>2020-07-23T09:29:54Z</time>
      </trkpt>
      <trkpt lat="42.775345" lon="-0.134336">
        <ele>2988.298</ele>
        <time>2020-07-23T09:30:04Z</time>
      </trkpt>
      <trkpt lat="42.775396" lon="-0.134350">
        <ele>2986.145</ele>
        <time>2020-07-23T09:30:12Z</time>
      </trkpt>
      <trkpt lat="42.775389" lon="-0.134286">
        <ele>2984.447</ele>
        <time>2020-07-23T09:30:53Z</time>
      </trkpt>
      <trkpt lat="42.775436" lon="-0.134281">
        <ele>2982.711</ele>
        <time>2020-07-23T09:31:00Z</time>
      </trkpt>
      <trkpt lat="42.775447" lon="-0.134221">
        <ele>2981.908</ele>
        <time>2020-07-23T09:31:08Z</time>
      </trkpt>
      <trkpt lat="42.775498" lon="-0.134222">
        <ele>2980.519</ele>
        <time>2020-07-23T09:31:16Z</time>
      </trkpt>
      <trkpt lat="42.775543" lon="-0.134199">
        <ele>2978.157</ele>
        <time>2020-07-23T09:31:26Z</time>
      </trkpt>
      <trkpt lat="42.775599" lon="-0.134197">
        <ele>2976.831</ele>
        <time>2020-07-23T09:31:34Z</time>
      </trkpt>
      <trkpt lat="42.775643" lon="-0.134231">
        <ele>2974.874</ele>
        <time>2020-07-23T09:31:45Z</time>
      </trkpt>
      <trkpt lat="42.775609" lon="-0.134176">
        <ele>2973.214</ele>
        <time>2020-07-23T09:31:53Z</time>
      </trkpt>
      <trkpt lat="42.775570" lon="-0.134129">
        <ele>2972.136</ele>
        <time>2020-07-23T09:31:57Z</time>
      </trkpt>
      <trkpt lat="42.775573" lon="-0.134067">
        <ele>2970.596</ele>
        <time>2020-07-23T09:32:06Z</time>
      </trkpt>
      <trkpt lat="42.775560" lon="-0.134002">
        <ele>2968.185</ele>
        <time>2020-07-23T09:32:17Z</time>
      </trkpt>
      <trkpt lat="42.775571" lon="-0.133940">
        <ele>2966.564</ele>
        <time>2020-07-23T09:32:30Z</time>
      </trkpt>
      <trkpt lat="42.775581" lon="-0.133941">
        <ele>2965.006</ele>
        <time>2020-07-23T09:32:32Z</time>
      </trkpt>
      <trkpt lat="42.775622" lon="-0.133943">
        <ele>2964.816</ele>
        <time>2020-07-23T09:32:38Z</time>
      </trkpt>
      <trkpt lat="42.775664" lon="-0.133968">
        <ele>2962.408</ele>
        <time>2020-07-23T09:32:44Z</time>
      </trkpt>
      <trkpt lat="42.775708" lon="-0.133962">
        <ele>2943.761</ele>
        <time>2020-07-23T09:32:54Z</time>
      </trkpt>
      <trkpt lat="42.775688" lon="-0.133895">
        <ele>2960.799</ele>
        <time>2020-07-23T09:33:00Z</time>
      </trkpt>
      <trkpt lat="42.775642" lon="-0.133844">
        <ele>2958.553</ele>
        <time>2020-07-23T09:33:06Z</time>
      </trkpt>
      <trkpt lat="42.775626" lon="-0.133786">
        <ele>2956.556</ele>
        <time>2020-07-23T09:33:12Z</time>
      </trkpt>
      <trkpt lat="42.775596" lon="-0.133730">
        <ele>2954.646</ele>
        <time>2020-07-23T09:33:21Z</time>
      </trkpt>
      <trkpt lat="42.775597" lon="-0.133667">
        <ele>2953.738</ele>
        <time>2020-07-23T09:33:28Z</time>
      </trkpt>
      <trkpt lat="42.775646" lon="-0.133663">
        <ele>2952.518</ele>
        <time>2020-07-23T09:33:43Z</time>
      </trkpt>
      <trkpt lat="42.775662" lon="-0.133596">
        <ele>2949.757</ele>
        <time>2020-07-23T09:33:52Z</time>
      </trkpt>
      <trkpt lat="42.775710" lon="-0.133602">
        <ele>2946.066</ele>
        <time>2020-07-23T09:34:07Z</time>
      </trkpt>
      <trkpt lat="42.775706" lon="-0.133537">
        <ele>2943.729</ele>
        <time>2020-07-23T09:34:19Z</time>
      </trkpt>
      <trkpt lat="42.775680" lon="-0.133487">
        <ele>2926.021</ele>
        <time>2020-07-23T09:34:28Z</time>
      </trkpt>
      <trkpt lat="42.775690" lon="-0.133426">
        <ele>2940.908</ele>
        <time>2020-07-23T09:34:37Z</time>
      </trkpt>
      <trkpt lat="42.775737" lon="-0.133419">
        <ele>2935.821</ele>
        <time>2020-07-23T09:34:49Z</time>
      </trkpt>
      <trkpt lat="42.775782" lon="-0.133412">
        <ele>2930.549</ele>
        <time>2020-07-23T09:35:07Z</time>
      </trkpt>
      <trkpt lat="42.775786" lon="-0.133350">
        <ele>2925.213</ele>
        <time>2020-07-23T09:35:16Z</time>
      </trkpt>
      <trkpt lat="42.775759" lon="-0.133294">
        <ele>2921.326</ele>
        <time>2020-07-23T09:35:25Z</time>
      </trkpt>
      <trkpt lat="42.775751" lon="-0.133233">
        <ele>2917.426</ele>
        <time>2020-07-23T09:35:43Z</time>
      </trkpt>
      <trkpt lat="42.775796" lon="-0.133240">
        <ele>2915.918</ele>
        <time>2020-07-23T09:35:50Z</time>
      </trkpt>
      <trkpt lat="42.775836" lon="-0.133269">
        <ele>2913.798</ele>
        <time>2020-07-23T09:35:55Z</time>
      </trkpt>
      <trkpt lat="42.775874" lon="-0.133231">
        <ele>2909.987</ele>
        <time>2020-07-23T09:36:24Z</time>
      </trkpt>
      <trkpt lat="42.775852" lon="-0.133175">
        <ele>2906.939</ele>
        <time>2020-07-23T09:36:45Z</time>
      </trkpt>
      <trkpt lat="42.775827" lon="-0.133120">
        <ele>2904.801</ele>
        <time>2020-07-23T09:36:56Z</time>
      </trkpt>
      <trkpt lat="42.775808" lon="-0.133058">
        <ele>2903.021</ele>
        <time>2020-07-23T09:37:05Z</time>
      </trkpt>
      <trkpt lat="42.775781" lon="-0.133004">
        <ele>2901.708</ele>
        <time>2020-07-23T09:37:12Z</time>
      </trkpt>
      <trkpt lat="42.775829" lon="-0.132984">
        <ele>2899.128</ele>
        <time>2020-07-23T09:37:23Z</time>
      </trkpt>
      <trkpt lat="42.775862" lon="-0.133030">
        <ele>2897.656</ele>
        <time>2020-07-23T09:37:32Z</time>
      </trkpt>
      <trkpt lat="42.775876" lon="-0.133091">
        <ele>2894.950</ele>
        <time>2020-07-23T09:37:44Z</time>
      </trkpt>
      <trkpt lat="42.775910" lon="-0.133078">
        <ele>2892.453</ele>
        <time>2020-07-23T09:38:04Z</time>
      </trkpt>
      <trkpt lat="42.775950" lon="-0.133048">
        <ele>2891.013</ele>
        <time>2020-07-23T09:38:20Z</time>
      </trkpt>
      <trkpt lat="42.775975" lon="-0.133083">
        <ele>2889.625</ele>
        <time>2020-07-23T09:38:39Z</time>
      </trkpt>
      <trkpt lat="42.776026" lon="-0.133062">
        <ele>2889.865</ele>
        <time>2020-07-23T09:38:46Z</time>
      </trkpt>
      <trkpt lat="42.776066" lon="-0.133096">
        <ele>2888.984</ele>
        <time>2020-07-23T09:38:57Z</time>
      </trkpt>
      <trkpt lat="42.776125" lon="-0.133091">
        <ele>2887.092</ele>
        <time>2020-07-23T09:39:10Z</time>
      </trkpt>
      <trkpt lat="42.776134" lon="-0.133035">
        <ele>2885.173</ele>
        <time>2020-07-23T09:39:25Z</time>
      </trkpt>
      <trkpt lat="42.776164" lon="-0.132984">
        <ele>2883.520</ele>
        <time>2020-07-23T09:39:35Z</time>
      </trkpt>
      <trkpt lat="42.776128" lon="-0.132939">
        <ele>2879.708</ele>
        <time>2020-07-23T09:39:43Z</time>
      </trkpt>
      <trkpt lat="42.776197" lon="-0.132881">
        <ele>2879.184</ele>
        <time>2020-07-23T09:39:55Z</time>
      </trkpt>
      <trkpt lat="42.776174" lon="-0.132809">
        <ele>2877.122</ele>
        <time>2020-07-23T09:40:01Z</time>
      </trkpt>
      <trkpt lat="42.776171" lon="-0.132749">
        <ele>2875.466</ele>
        <time>2020-07-23T09:40:08Z</time>
      </trkpt>
      <trkpt lat="42.776215" lon="-0.132768">
        <ele>2873.979</ele>
        <time>2020-07-23T09:40:19Z</time>
      </trkpt>
      <trkpt lat="42.776220" lon="-0.132663">
        <ele>2870.279</ele>
        <time>2020-07-23T09:40:28Z</time>
      </trkpt>
      <trkpt lat="42.776209" lon="-0.132593">
        <ele>2866.511</ele>
        <time>2020-07-23T09:40:37Z</time>
      </trkpt>
      <trkpt lat="42.776208" lon="-0.132471">
        <ele>2864.321</ele>
        <time>2020-07-23T09:40:43Z</time>
      </trkpt>
      <trkpt lat="42.776194" lon="-0.132333">
        <ele>2864.250</ele>
        <time>2020-07-23T09:40:47Z</time>
      </trkpt>
      <trkpt lat="42.776280" lon="-0.132398">
        <ele>2863.226</ele>
        <time>2020-07-23T09:40:52Z</time>
      </trkpt>
      <trkpt lat="42.776318" lon="-0.132480">
        <ele>2860.147</ele>
        <time>2020-07-23T09:40:59Z</time>
      </trkpt>
      <trkpt lat="42.776353" lon="-0.132460">
        <ele>2860.111</ele>
        <time>2020-07-23T09:41:03Z</time>
      </trkpt>
      <trkpt lat="42.776338" lon="-0.132387">
        <ele>2859.108</ele>
        <time>2020-07-23T09:41:07Z</time>
      </trkpt>
      <trkpt lat="42.776364" lon="-0.132344">
        <ele>2850.477</ele>
        <time>2020-07-23T09:41:47Z</time>
      </trkpt>
      <trkpt lat="42.776387" lon="-0.132367">
        <ele>2849.185</ele>
        <time>2020-07-23T09:41:53Z</time>
      </trkpt>
      <trkpt lat="42.776426" lon="-0.132374">
        <ele>2848.399</ele>
        <time>2020-07-23T09:41:58Z</time>
      </trkpt>
      <trkpt lat="42.776467" lon="-0.132395">
        <ele>2847.632</ele>
        <time>2020-07-23T09:42:03Z</time>
      </trkpt>
      <trkpt lat="42.776509" lon="-0.132425">
        <ele>2844.982</ele>
        <time>2020-07-23T09:42:09Z</time>
      </trkpt>
      <trkpt lat="42.776564" lon="-0.132469">
        <ele>2843.784</ele>
        <time>2020-07-23T09:42:14Z</time>
      </trkpt>
      <trkpt lat="42.776604" lon="-0.132416">
        <ele>2843.784</ele>
        <time>2020-07-23T09:42:19Z</time>
      </trkpt>
      <trkpt lat="42.776652" lon="-0.132444">
        <ele>2839.043</ele>
        <time>2020-07-23T09:42:26Z</time>
      </trkpt>
      <trkpt lat="42.776693" lon="-0.132486">
        <ele>2839.543</ele>
        <time>2020-07-23T09:42:39Z</time>
      </trkpt>
      <trkpt lat="42.776730" lon="-0.132445">
        <ele>2835.564</ele>
        <time>2020-07-23T09:43:20Z</time>
      </trkpt>
      <trkpt lat="42.776763" lon="-0.132500">
        <ele>2833.910</ele>
        <time>2020-07-23T09:44:43Z</time>
      </trkpt>
      <trkpt lat="42.776810" lon="-0.132444">
        <ele>2832.508</ele>
        <time>2020-07-23T09:44:53Z</time>
      </trkpt>
      <trkpt lat="42.776830" lon="-0.132384">
        <ele>2831.479</ele>
        <time>2020-07-23T09:45:03Z</time>
      </trkpt>
      <trkpt lat="42.776879" lon="-0.132368">
        <ele>2826.367</ele>
        <time>2020-07-23T09:45:20Z</time>
      </trkpt>
      <trkpt lat="42.776955" lon="-0.132368">
        <ele>2825.041</ele>
        <time>2020-07-23T09:45:31Z</time>
      </trkpt>
      <trkpt lat="42.776987" lon="-0.132316">
        <ele>2823.764</ele>
        <time>2020-07-23T09:45:43Z</time>
      </trkpt>
      <trkpt lat="42.776989" lon="-0.132250">
        <ele>2821.274</ele>
        <time>2020-07-23T09:45:52Z</time>
      </trkpt>
      <trkpt lat="42.777027" lon="-0.132215">
        <ele>2816.686</ele>
        <time>2020-07-23T09:46:10Z</time>
      </trkpt>
      <trkpt lat="42.777065" lon="-0.132215">
        <ele>2813.046</ele>
        <time>2020-07-23T09:46:35Z</time>
      </trkpt>
      <trkpt lat="42.777102" lon="-0.132236">
        <ele>2811.735</ele>
        <time>2020-07-23T09:46:40Z</time>
      </trkpt>
      <trkpt lat="42.777150" lon="-0.132242">
        <ele>2809.556</ele>
        <time>2020-07-23T09:46:49Z</time>
      </trkpt>
      <trkpt lat="42.777198" lon="-0.132271">
        <ele>2808.459</ele>
        <time>2020-07-23T09:46:56Z</time>
      </trkpt>
      <trkpt lat="42.777271" lon="-0.132262">
        <ele>2807.114</ele>
        <time>2020-07-23T09:47:04Z</time>
      </trkpt>
      <trkpt lat="42.777314" lon="-0.132226">
        <ele>2804.608</ele>
        <time>2020-07-23T09:47:15Z</time>
      </trkpt>
      <trkpt lat="42.777326" lon="-0.132179">
        <ele>2801.480</ele>
        <time>2020-07-23T09:47:36Z</time>
      </trkpt>
      <trkpt lat="42.777349" lon="-0.132152">
        <ele>2799.128</ele>
        <time>2020-07-23T09:47:42Z</time>
      </trkpt>
      <trkpt lat="42.777381" lon="-0.132124">
        <ele>2799.752</ele>
        <time>2020-07-23T09:47:47Z</time>
      </trkpt>
      <trkpt lat="42.777416" lon="-0.132112">
        <ele>2797.675</ele>
        <time>2020-07-23T09:47:53Z</time>
      </trkpt>
      <trkpt lat="42.777465" lon="-0.132090">
        <ele>2797.645</ele>
        <time>2020-07-23T09:48:01Z</time>
      </trkpt>
      <trkpt lat="42.777502" lon="-0.132094">
        <ele>2795.047</ele>
        <time>2020-07-23T09:48:13Z</time>
      </trkpt>
      <trkpt lat="42.777520" lon="-0.132064">
        <ele>2792.697</ele>
        <time>2020-07-23T09:48:34Z</time>
      </trkpt>
      <trkpt lat="42.777555" lon="-0.132056">
        <ele>2791.166</ele>
        <time>2020-07-23T09:48:41Z</time>
      </trkpt>
      <trkpt lat="42.777575" lon="-0.132051">
        <ele>2789.366</ele>
        <time>2020-07-23T09:48:49Z</time>
      </trkpt>
      <trkpt lat="42.777607" lon="-0.132066">
        <ele>2785.829</ele>
        <time>2020-07-23T09:49:10Z</time>
      </trkpt>
      <trkpt lat="42.777681" lon="-0.132036">
        <ele>2785.821</ele>
        <time>2020-07-23T09:49:17Z</time>
      </trkpt>
      <trkpt lat="42.777698" lon="-0.132021">
        <ele>2784.308</ele>
        <time>2020-07-23T09:49:27Z</time>
      </trkpt>
      <trkpt lat="42.777700" lon="-0.131969">
        <ele>2780.931</ele>
        <time>2020-07-23T09:49:38Z</time>
      </trkpt>
      <trkpt lat="42.777727" lon="-0.131928">
        <ele>2780.249</ele>
        <time>2020-07-23T09:49:43Z</time>
      </trkpt>
      <trkpt lat="42.777769" lon="-0.131932">
        <ele>2777.963</ele>
        <time>2020-07-23T09:49:53Z</time>
      </trkpt>
      <trkpt lat="42.777841" lon="-0.131933">
        <ele>2776.246</ele>
        <time>2020-07-23T09:49:59Z</time>
      </trkpt>
      <trkpt lat="42.777884" lon="-0.131911">
        <ele>2774.256</ele>
        <time>2020-07-23T09:50:05Z</time>
      </trkpt>
      <trkpt lat="42.777869" lon="-0.131838">
        <ele>2771.398</ele>
        <time>2020-07-23T09:50:15Z</time>
      </trkpt>
      <trkpt lat="42.777893" lon="-0.131778">
        <ele>2769.158</ele>
        <time>2020-07-23T09:50:21Z</time>
      </trkpt>
      <trkpt lat="42.777927" lon="-0.131737">
        <ele>2768.457</ele>
        <time>2020-07-23T09:50:31Z</time>
      </trkpt>
      <trkpt lat="42.777898" lon="-0.131687">
        <ele>2766.371</ele>
        <time>2020-07-23T09:50:36Z</time>
      </trkpt>
      <trkpt lat="42.777943" lon="-0.131668">
        <ele>2765.041</ele>
        <time>2020-07-23T09:50:47Z</time>
      </trkpt>
      <trkpt lat="42.777923" lon="-0.131610">
        <ele>2762.615</ele>
        <time>2020-07-23T09:50:53Z</time>
      </trkpt>
      <trkpt lat="42.777976" lon="-0.131612">
        <ele>2762.008</ele>
        <time>2020-07-23T09:51:01Z</time>
      </trkpt>
      <trkpt lat="42.778022" lon="-0.131637">
        <ele>2760.742</ele>
        <time>2020-07-23T09:51:07Z</time>
      </trkpt>
      <trkpt lat="42.778062" lon="-0.131643">
        <ele>2755.240</ele>
        <time>2020-07-23T09:51:37Z</time>
      </trkpt>
      <trkpt lat="42.778097" lon="-0.131660">
        <ele>2753.544</ele>
        <time>2020-07-23T09:51:42Z</time>
      </trkpt>
      <trkpt lat="42.778122" lon="-0.131606">
        <ele>2751.997</ele>
        <time>2020-07-23T09:51:48Z</time>
      </trkpt>
      <trkpt lat="42.778155" lon="-0.131587">
        <ele>2749.887</ele>
        <time>2020-07-23T09:51:56Z</time>
      </trkpt>
      <trkpt lat="42.778204" lon="-0.131595">
        <ele>2749.679</ele>
        <time>2020-07-23T09:52:06Z</time>
      </trkpt>
      <trkpt lat="42.778258" lon="-0.131609">
        <ele>2748.019</ele>
        <time>2020-07-23T09:52:12Z</time>
      </trkpt>
      <trkpt lat="42.778339" lon="-0.131651">
        <ele>2745.668</ele>
        <time>2020-07-23T09:52:18Z</time>
      </trkpt>
      <trkpt lat="42.778379" lon="-0.131605">
        <ele>2744.238</ele>
        <time>2020-07-23T09:52:25Z</time>
      </trkpt>
      <trkpt lat="42.778414" lon="-0.131587">
        <ele>2742.770</ele>
        <time>2020-07-23T09:52:35Z</time>
      </trkpt>
      <trkpt lat="42.778431" lon="-0.131537">
        <ele>2740.017</ele>
        <time>2020-07-23T09:52:47Z</time>
      </trkpt>
      <trkpt lat="42.778511" lon="-0.131592">
        <ele>2737.808</ele>
        <time>2020-07-23T09:52:51Z</time>
      </trkpt>
      <trkpt lat="42.778520" lon="-0.131526">
        <ele>2736.728</ele>
        <time>2020-07-23T09:52:57Z</time>
      </trkpt>
      <trkpt lat="42.778533" lon="-0.131439">
        <ele>2734.466</ele>
        <time>2020-07-23T09:53:05Z</time>
      </trkpt>
      <trkpt lat="42.778541" lon="-0.131392">
        <ele>2733.510</ele>
        <time>2020-07-23T09:53:16Z</time>
      </trkpt>
      <trkpt lat="42.778576" lon="-0.131378">
        <ele>2730.963</ele>
        <time>2020-07-23T09:53:22Z</time>
      </trkpt>
      <trkpt lat="42.778579" lon="-0.131348">
        <ele>2730.163</ele>
        <time>2020-07-23T09:53:29Z</time>
      </trkpt>
      <trkpt lat="42.778596" lon="-0.131337">
        <ele>2725.455</ele>
        <time>2020-07-23T09:53:36Z</time>
      </trkpt>
      <trkpt lat="42.778634" lon="-0.131342">
        <ele>2725.035</ele>
        <time>2020-07-23T09:53:39Z</time>
      </trkpt>
      <trkpt lat="42.778659" lon="-0.131336">
        <ele>2724.564</ele>
        <time>2020-07-23T09:53:44Z</time>
      </trkpt>
      <trkpt lat="42.778709" lon="-0.131375">
        <ele>2723.122</ele>
        <time>2020-07-23T09:53:47Z</time>
      </trkpt>
      <trkpt lat="42.778766" lon="-0.131405">
        <ele>2721.962</ele>
        <time>2020-07-23T09:53:51Z</time>
      </trkpt>
      <trkpt lat="42.778809" lon="-0.131403">
        <ele>2721.708</ele>
        <time>2020-07-23T09:53:57Z</time>
      </trkpt>
      <trkpt lat="42.778861" lon="-0.131437">
        <ele>2720.608</ele>
        <time>2020-07-23T09:54:07Z</time>
      </trkpt>
      <trkpt lat="42.778915" lon="-0.131441">
        <ele>2717.277</ele>
        <time>2020-07-23T09:54:13Z</time>
      </trkpt>
      <trkpt lat="42.778968" lon="-0.131445">
        <ele>2718.225</ele>
        <time>2020-07-23T09:54:20Z</time>
      </trkpt>
      <trkpt lat="42.779026" lon="-0.131419">
        <ele>2717.999</ele>
        <time>2020-07-23T09:54:27Z</time>
      </trkpt>
      <trkpt lat="42.779064" lon="-0.131435">
        <ele>2715.422</ele>
        <time>2020-07-23T09:54:32Z</time>
      </trkpt>
      <trkpt lat="42.779102" lon="-0.131429">
        <ele>2716.372</ele>
        <time>2020-07-23T09:54:37Z</time>
      </trkpt>
      <trkpt lat="42.779141" lon="-0.131418">
        <ele>2715.584</ele>
        <time>2020-07-23T09:54:42Z</time>
      </trkpt>
      <trkpt lat="42.779198" lon="-0.131458">
        <ele>2714.174</ele>
        <time>2020-07-23T09:54:46Z</time>
      </trkpt>
      <trkpt lat="42.779233" lon="-0.131466">
        <ele>2713.893</ele>
        <time>2020-07-23T09:54:52Z</time>
      </trkpt>
      <trkpt lat="42.779273" lon="-0.131437">
        <ele>2715.057</ele>
        <time>2020-07-23T09:54:58Z</time>
      </trkpt>
      <trkpt lat="42.779313" lon="-0.131455">
        <ele>2715.000</ele>
        <time>2020-07-23T09:55:03Z</time>
      </trkpt>
      <trkpt lat="42.779358" lon="-0.131469">
        <ele>2714.220</ele>
        <time>2020-07-23T09:55:08Z</time>
      </trkpt>
      <trkpt lat="42.779397" lon="-0.131485">
        <ele>2713.708</ele>
        <time>2020-07-23T09:55:14Z</time>
      </trkpt>
      <trkpt lat="42.779446" lon="-0.131518">
        <ele>2711.570</ele>
        <time>2020-07-23T09:55:22Z</time>
      </trkpt>
      <trkpt lat="42.779500" lon="-0.131534">
        <ele>2711.248</ele>
        <time>2020-07-23T09:55:28Z</time>
      </trkpt>
      <trkpt lat="42.779548" lon="-0.131559">
        <ele>2710.542</ele>
        <time>2020-07-23T09:55:34Z</time>
      </trkpt>
      <trkpt lat="42.779598" lon="-0.131576">
        <ele>2708.655</ele>
        <time>2020-07-23T09:55:39Z</time>
      </trkpt>
      <trkpt lat="42.779617" lon="-0.131605">
        <ele>2706.865</ele>
        <time>2020-07-23T09:55:43Z</time>
      </trkpt>
      <trkpt lat="42.779653" lon="-0.131634">
        <ele>2703.877</ele>
        <time>2020-07-23T09:55:53Z</time>
      </trkpt>
      <trkpt lat="42.779655" lon="-0.131691">
        <ele>2703.727</ele>
        <time>2020-07-23T09:55:58Z</time>
      </trkpt>
      <trkpt lat="42.779670" lon="-0.131715">
        <ele>2702.136</ele>
        <time>2020-07-23T09:56:03Z</time>
      </trkpt>
      <trkpt lat="42.779693" lon="-0.131746">
        <ele>2700.388</ele>
        <time>2020-07-23T09:56:09Z</time>
      </trkpt>
      <trkpt lat="42.779720" lon="-0.131756">
        <ele>2700.324</ele>
        <time>2020-07-23T09:56:15Z</time>
      </trkpt>
      <trkpt lat="42.779761" lon="-0.131768">
        <ele>2699.026</ele>
        <time>2020-07-23T09:56:20Z</time>
      </trkpt>
      <trkpt lat="42.779808" lon="-0.131818">
        <ele>2696.308</ele>
        <time>2020-07-23T09:56:24Z</time>
      </trkpt>
      <trkpt lat="42.779836" lon="-0.131859">
        <ele>2696.173</ele>
        <time>2020-07-23T09:56:28Z</time>
      </trkpt>
      <trkpt lat="42.779845" lon="-0.131911">
        <ele>2694.931</ele>
        <time>2020-07-23T09:56:31Z</time>
      </trkpt>
      <trkpt lat="42.779822" lon="-0.131942">
        <ele>2693.455</ele>
        <time>2020-07-23T09:56:35Z</time>
      </trkpt>
      <trkpt lat="42.779774" lon="-0.131961">
        <ele>2693.168</ele>
        <time>2020-07-23T09:56:42Z</time>
      </trkpt>
      <trkpt lat="42.779729" lon="-0.131959">
        <ele>2691.748</ele>
        <time>2020-07-23T09:56:50Z</time>
      </trkpt>
      <trkpt lat="42.779683" lon="-0.131937">
        <ele>2690.640</ele>
        <time>2020-07-23T09:56:54Z</time>
      </trkpt>
      <trkpt lat="42.779636" lon="-0.131923">
        <ele>2690.210</ele>
        <time>2020-07-23T09:56:59Z</time>
      </trkpt>
      <trkpt lat="42.779559" lon="-0.131920">
        <ele>2689.259</ele>
        <time>2020-07-23T09:57:05Z</time>
      </trkpt>
      <trkpt lat="42.779494" lon="-0.131981">
        <ele>2687.183</ele>
        <time>2020-07-23T09:57:13Z</time>
      </trkpt>
      <trkpt lat="42.779537" lon="-0.132039">
        <ele>2686.225</ele>
        <time>2020-07-23T09:57:21Z</time>
      </trkpt>
      <trkpt lat="42.779581" lon="-0.132086">
        <ele>2684.117</ele>
        <time>2020-07-23T09:57:26Z</time>
      </trkpt>
      <trkpt lat="42.779623" lon="-0.132130">
        <ele>2682.708</ele>
        <time>2020-07-23T09:57:32Z</time>
      </trkpt>
      <trkpt lat="42.779671" lon="-0.132154">
        <ele>2681.823</ele>
        <time>2020-07-23T09:57:38Z</time>
      </trkpt>
      <trkpt lat="42.779708" lon="-0.132167">
        <ele>2680.161</ele>
        <time>2020-07-23T09:57:43Z</time>
      </trkpt>
      <trkpt lat="42.779732" lon="-0.132183">
        <ele>2679.115</ele>
        <time>2020-07-23T09:57:52Z</time>
      </trkpt>
      <trkpt lat="42.779750" lon="-0.132222">
        <ele>2676.918</ele>
        <time>2020-07-23T09:57:58Z</time>
      </trkpt>
      <trkpt lat="42.779778" lon="-0.132262">
        <ele>2675.398</ele>
        <time>2020-07-23T09:58:03Z</time>
      </trkpt>
      <trkpt lat="42.779804" lon="-0.132313">
        <ele>2675.970</ele>
        <time>2020-07-23T09:58:08Z</time>
      </trkpt>
      <trkpt lat="42.779810" lon="-0.132419">
        <ele>2674.720</ele>
        <time>2020-07-23T09:58:13Z</time>
      </trkpt>
      <trkpt lat="42.779860" lon="-0.132453">
        <ele>2673.829</ele>
        <time>2020-07-23T09:58:19Z</time>
      </trkpt>
      <trkpt lat="42.779921" lon="-0.132491">
        <ele>2672.415</ele>
        <time>2020-07-23T09:58:26Z</time>
      </trkpt>
      <trkpt lat="42.780000" lon="-0.132505">
        <ele>2671.665</ele>
        <time>2020-07-23T09:58:32Z</time>
      </trkpt>
      <trkpt lat="42.780070" lon="-0.132527">
        <ele>2671.111</ele>
        <time>2020-07-23T09:58:36Z</time>
      </trkpt>
      <trkpt lat="42.780136" lon="-0.132576">
        <ele>2668.608</ele>
        <time>2020-07-23T09:58:42Z</time>
      </trkpt>
      <trkpt lat="42.780181" lon="-0.132602">
        <ele>2668.016</ele>
        <time>2020-07-23T09:58:47Z</time>
      </trkpt>
      <trkpt lat="42.780240" lon="-0.132640">
        <ele>2666.324</ele>
        <time>2020-07-23T09:58:52Z</time>
      </trkpt>
      <trkpt lat="42.780291" lon="-0.132628">
        <ele>2665.088</ele>
        <time>2020-07-23T09:58:58Z</time>
      </trkpt>
      <trkpt lat="42.780343" lon="-0.132646">
        <ele>2665.891</ele>
        <time>2020-07-23T09:59:03Z</time>
      </trkpt>
      <trkpt lat="42.780385" lon="-0.132674">
        <ele>2663.841</ele>
        <time>2020-07-23T09:59:10Z</time>
      </trkpt>
      <trkpt lat="42.780430" lon="-0.132692">
        <ele>2663.573</ele>
        <time>2020-07-23T09:59:16Z</time>
      </trkpt>
      <trkpt lat="42.780484" lon="-0.132703">
        <ele>2662.613</ele>
        <time>2020-07-23T09:59:23Z</time>
      </trkpt>
      <trkpt lat="42.780526" lon="-0.132724">
        <ele>2661.252</ele>
        <time>2020-07-23T09:59:28Z</time>
      </trkpt>
      <trkpt lat="42.780578" lon="-0.132756">
        <ele>2661.558</ele>
        <time>2020-07-23T09:59:34Z</time>
      </trkpt>
      <trkpt lat="42.780628" lon="-0.132766">
        <ele>2660.552</ele>
        <time>2020-07-23T09:59:39Z</time>
      </trkpt>
      <trkpt lat="42.780669" lon="-0.132808">
        <ele>2658.917</ele>
        <time>2020-07-23T09:59:43Z</time>
      </trkpt>
      <trkpt lat="42.780713" lon="-0.132822">
        <ele>2657.608</ele>
        <time>2020-07-23T09:59:48Z</time>
      </trkpt>
      <trkpt lat="42.780756" lon="-0.132843">
        <ele>2655.850</ele>
        <time>2020-07-23T09:59:53Z</time>
      </trkpt>
      <trkpt lat="42.780797" lon="-0.132849">
        <ele>2656.128</ele>
        <time>2020-07-23T09:59:58Z</time>
      </trkpt>
      <trkpt lat="42.780836" lon="-0.132867">
        <ele>2655.462</ele>
        <time>2020-07-23T10:00:03Z</time>
      </trkpt>
      <trkpt lat="42.780892" lon="-0.132905">
        <ele>2652.545</ele>
        <time>2020-07-23T10:00:08Z</time>
      </trkpt>
      <trkpt lat="42.780925" lon="-0.132918">
        <ele>2651.485</ele>
        <time>2020-07-23T10:00:13Z</time>
      </trkpt>
      <trkpt lat="42.780967" lon="-0.132957">
        <ele>2651.717</ele>
        <time>2020-07-23T10:00:17Z</time>
      </trkpt>
      <trkpt lat="42.781020" lon="-0.132966">
        <ele>2651.257</ele>
        <time>2020-07-23T10:00:24Z</time>
      </trkpt>
      <trkpt lat="42.781060" lon="-0.133011">
        <ele>2649.036</ele>
        <time>2020-07-23T10:00:30Z</time>
      </trkpt>
      <trkpt lat="42.781107" lon="-0.133062">
        <ele>2648.272</ele>
        <time>2020-07-23T10:00:35Z</time>
      </trkpt>
      <trkpt lat="42.781155" lon="-0.133097">
        <ele>2648.213</ele>
        <time>2020-07-23T10:00:42Z</time>
      </trkpt>
      <trkpt lat="42.781200" lon="-0.133135">
        <ele>2646.514</ele>
        <time>2020-07-23T10:00:47Z</time>
      </trkpt>
      <trkpt lat="42.781256" lon="-0.133155">
        <ele>2645.308</ele>
        <time>2020-07-23T10:00:51Z</time>
      </trkpt>
      <trkpt lat="42.781302" lon="-0.133176">
        <ele>2645.592</ele>
        <time>2020-07-23T10:00:55Z</time>
      </trkpt>
      <trkpt lat="42.781349" lon="-0.133187">
        <ele>2644.340</ele>
        <time>2020-07-23T10:00:59Z</time>
      </trkpt>
      <trkpt lat="42.781308" lon="-0.133233">
        <ele>2642.444</ele>
        <time>2020-07-23T10:01:08Z</time>
      </trkpt>
      <trkpt lat="42.781254" lon="-0.133254">
        <ele>2640.787</ele>
        <time>2020-07-23T10:01:12Z</time>
      </trkpt>
      <trkpt lat="42.781197" lon="-0.133291">
        <ele>2640.257</ele>
        <time>2020-07-23T10:01:17Z</time>
      </trkpt>
      <trkpt lat="42.781146" lon="-0.133306">
        <ele>2638.589</ele>
        <time>2020-07-23T10:01:21Z</time>
      </trkpt>
      <trkpt lat="42.781104" lon="-0.133331">
        <ele>2639.349</ele>
        <time>2020-07-23T10:01:25Z</time>
      </trkpt>
      <trkpt lat="42.781070" lon="-0.133377">
        <ele>2637.958</ele>
        <time>2020-07-23T10:01:31Z</time>
      </trkpt>
      <trkpt lat="42.781107" lon="-0.133416">
        <ele>2637.069</ele>
        <time>2020-07-23T10:01:37Z</time>
      </trkpt>
      <trkpt lat="42.781156" lon="-0.133422">
        <ele>2636.304</ele>
        <time>2020-07-23T10:01:41Z</time>
      </trkpt>
      <trkpt lat="42.781212" lon="-0.133417">
        <ele>2635.324</ele>
        <time>2020-07-23T10:01:47Z</time>
      </trkpt>
      <trkpt lat="42.781257" lon="-0.133428">
        <ele>2635.208</ele>
        <time>2020-07-23T10:01:52Z</time>
      </trkpt>
      <trkpt lat="42.781299" lon="-0.133465">
        <ele>2633.391</ele>
        <time>2020-07-23T10:01:57Z</time>
      </trkpt>
      <trkpt lat="42.781338" lon="-0.133513">
        <ele>2632.499</ele>
        <time>2020-07-23T10:02:02Z</time>
      </trkpt>
      <trkpt lat="42.781385" lon="-0.133545">
        <ele>2629.943</ele>
        <time>2020-07-23T10:02:07Z</time>
      </trkpt>
      <trkpt lat="42.781419" lon="-0.133599">
        <ele>2629.876</ele>
        <time>2020-07-23T10:02:13Z</time>
      </trkpt>
      <trkpt lat="42.781368" lon="-0.133626">
        <ele>2628.956</ele>
        <time>2020-07-23T10:02:19Z</time>
      </trkpt>
      <trkpt lat="42.781312" lon="-0.133658">
        <ele>2627.798</ele>
        <time>2020-07-23T10:02:23Z</time>
      </trkpt>
      <trkpt lat="42.781273" lon="-0.133712">
        <ele>2625.758</ele>
        <time>2020-07-23T10:02:28Z</time>
      </trkpt>
      <trkpt lat="42.781320" lon="-0.133763">
        <ele>2623.847</ele>
        <time>2020-07-23T10:02:36Z</time>
      </trkpt>
      <trkpt lat="42.781353" lon="-0.133805">
        <ele>2622.883</ele>
        <time>2020-07-23T10:02:42Z</time>
      </trkpt>
      <trkpt lat="42.781386" lon="-0.133849">
        <ele>2622.425</ele>
        <time>2020-07-23T10:02:46Z</time>
      </trkpt>
      <trkpt lat="42.781421" lon="-0.133890">
        <ele>2620.317</ele>
        <time>2020-07-23T10:02:51Z</time>
      </trkpt>
      <trkpt lat="42.781454" lon="-0.133920">
        <ele>2618.808</ele>
        <time>2020-07-23T10:02:57Z</time>
      </trkpt>
      <trkpt lat="42.781452" lon="-0.133998">
        <ele>2617.783</ele>
        <time>2020-07-23T10:03:04Z</time>
      </trkpt>
      <trkpt lat="42.781509" lon="-0.134037">
        <ele>2616.441</ele>
        <time>2020-07-23T10:03:09Z</time>
      </trkpt>
      <trkpt lat="42.781567" lon="-0.134059">
        <ele>2615.765</ele>
        <time>2020-07-23T10:03:14Z</time>
      </trkpt>
      <trkpt lat="42.781599" lon="-0.134125">
        <ele>2613.988</ele>
        <time>2020-07-23T10:03:20Z</time>
      </trkpt>
      <trkpt lat="42.781621" lon="-0.134145">
        <ele>2613.748</ele>
        <time>2020-07-23T10:03:23Z</time>
      </trkpt>
      <trkpt lat="42.781647" lon="-0.134169">
        <ele>2613.520</ele>
        <time>2020-07-23T10:03:26Z</time>
      </trkpt>
      <trkpt lat="42.781695" lon="-0.134201">
        <ele>2611.480</ele>
        <time>2020-07-23T10:03:32Z</time>
      </trkpt>
      <trkpt lat="42.781731" lon="-0.134243">
        <ele>2611.569</ele>
        <time>2020-07-23T10:03:37Z</time>
      </trkpt>
      <trkpt lat="42.781785" lon="-0.134263">
        <ele>2610.645</ele>
        <time>2020-07-23T10:03:42Z</time>
      </trkpt>
      <trkpt lat="42.781825" lon="-0.134282">
        <ele>2610.947</ele>
        <time>2020-07-23T10:03:46Z</time>
      </trkpt>
      <trkpt lat="42.781852" lon="-0.134340">
        <ele>2611.111</ele>
        <time>2020-07-23T10:03:51Z</time>
      </trkpt>
      <trkpt lat="42.781893" lon="-0.134425">
        <ele>2610.308</ele>
        <time>2020-07-23T10:03:55Z</time>
      </trkpt>
      <trkpt lat="42.781940" lon="-0.134442">
        <ele>2610.219</ele>
        <time>2020-07-23T10:03:58Z</time>
      </trkpt>
      <trkpt lat="42.781996" lon="-0.134444">
        <ele>2609.597</ele>
        <time>2020-07-23T10:04:03Z</time>
      </trkpt>
      <trkpt lat="42.782052" lon="-0.134420">
        <ele>2608.211</ele>
        <time>2020-07-23T10:04:10Z</time>
      </trkpt>
      <trkpt lat="42.782093" lon="-0.134392">
        <ele>2607.024</ele>
        <time>2020-07-23T10:04:16Z</time>
      </trkpt>
      <trkpt lat="42.782154" lon="-0.134415">
        <ele>2604.284</ele>
        <time>2020-07-23T10:04:21Z</time>
      </trkpt>
      <trkpt lat="42.782203" lon="-0.134422">
        <ele>2604.016</ele>
        <time>2020-07-23T10:04:25Z</time>
      </trkpt>
      <trkpt lat="42.782256" lon="-0.134423">
        <ele>2603.066</ele>
        <time>2020-07-23T10:04:30Z</time>
      </trkpt>
      <trkpt lat="42.782314" lon="-0.134414">
        <ele>2602.695</ele>
        <time>2020-07-23T10:04:34Z</time>
      </trkpt>
      <trkpt lat="42.782359" lon="-0.134409">
        <ele>2600.615</ele>
        <time>2020-07-23T10:04:38Z</time>
      </trkpt>
      <trkpt lat="42.782413" lon="-0.134388">
        <ele>2600.665</ele>
        <time>2020-07-23T10:04:43Z</time>
      </trkpt>
      <trkpt lat="42.782463" lon="-0.134386">
        <ele>2600.111</ele>
        <time>2020-07-23T10:04:47Z</time>
      </trkpt>
      <trkpt lat="42.782519" lon="-0.134411">
        <ele>2599.108</ele>
        <time>2020-07-23T10:04:52Z</time>
      </trkpt>
      <trkpt lat="42.782566" lon="-0.134440">
        <ele>2597.836</ele>
        <time>2020-07-23T10:04:58Z</time>
      </trkpt>
      <trkpt lat="42.782609" lon="-0.134413">
        <ele>2596.794</ele>
        <time>2020-07-23T10:05:04Z</time>
      </trkpt>
      <trkpt lat="42.782640" lon="-0.134364">
        <ele>2595.668</ele>
        <time>2020-07-23T10:05:09Z</time>
      </trkpt>
      <trkpt lat="42.782694" lon="-0.134335">
        <ele>2593.851</ele>
        <time>2020-07-23T10:05:15Z</time>
      </trkpt>
      <trkpt lat="42.782741" lon="-0.134327">
        <ele>2593.451</ele>
        <time>2020-07-23T10:05:19Z</time>
      </trkpt>
      <trkpt lat="42.782793" lon="-0.134303">
        <ele>2592.883</ele>
        <time>2020-07-23T10:05:24Z</time>
      </trkpt>
      <trkpt lat="42.782852" lon="-0.134295">
        <ele>2592.083</ele>
        <time>2020-07-23T10:05:29Z</time>
      </trkpt>
      <trkpt lat="42.782904" lon="-0.134292">
        <ele>2593.612</ele>
        <time>2020-07-23T10:05:33Z</time>
      </trkpt>
      <trkpt lat="42.782945" lon="-0.134318">
        <ele>2592.593</ele>
        <time>2020-07-23T10:05:37Z</time>
      </trkpt>
      <trkpt lat="42.782981" lon="-0.134363">
        <ele>2592.865</ele>
        <time>2020-07-23T10:05:41Z</time>
      </trkpt>
      <trkpt lat="42.783018" lon="-0.134406">
        <ele>2591.621</ele>
        <time>2020-07-23T10:05:44Z</time>
      </trkpt>
      <trkpt lat="42.783062" lon="-0.134420">
        <ele>2591.708</ele>
        <time>2020-07-23T10:05:48Z</time>
      </trkpt>
      <trkpt lat="42.783112" lon="-0.134417">
        <ele>2591.184</ele>
        <time>2020-07-23T10:05:53Z</time>
      </trkpt>
      <trkpt lat="42.783145" lon="-0.134463">
        <ele>2591.232</ele>
        <time>2020-07-23T10:05:57Z</time>
      </trkpt>
      <trkpt lat="42.783186" lon="-0.134503">
        <ele>2589.976</ele>
        <time>2020-07-23T10:06:03Z</time>
      </trkpt>
      <trkpt lat="42.783238" lon="-0.134504">
        <ele>2589.269</ele>
        <time>2020-07-23T10:06:12Z</time>
      </trkpt>
      <trkpt lat="42.783269" lon="-0.134453">
        <ele>2588.329</ele>
        <time>2020-07-23T10:06:17Z</time>
      </trkpt>
      <trkpt lat="42.783306" lon="-0.134393">
        <ele>2587.151</ele>
        <time>2020-07-23T10:06:24Z</time>
      </trkpt>
      <trkpt lat="42.783336" lon="-0.134344">
        <ele>2585.881</ele>
        <time>2020-07-23T10:06:30Z</time>
      </trkpt>
      <trkpt lat="42.783370" lon="-0.134288">
        <ele>2586.340</ele>
        <time>2020-07-23T10:06:35Z</time>
      </trkpt>
      <trkpt lat="42.783418" lon="-0.134280">
        <ele>2585.376</ele>
        <time>2020-07-23T10:06:41Z</time>
      </trkpt>
      <trkpt lat="42.783473" lon="-0.134275">
        <ele>2584.690</ele>
        <time>2020-07-23T10:06:47Z</time>
      </trkpt>
      <trkpt lat="42.783522" lon="-0.134289">
        <ele>2584.319</ele>
        <time>2020-07-23T10:06:53Z</time>
      </trkpt>
      <trkpt lat="42.783570" lon="-0.134310">
        <ele>2585.708</ele>
        <time>2020-07-23T10:06:59Z</time>
      </trkpt>
      <trkpt lat="42.783606" lon="-0.134376">
        <ele>2584.492</ele>
        <time>2020-07-23T10:07:05Z</time>
      </trkpt>
      <trkpt lat="42.783627" lon="-0.134444">
        <ele>2583.450</ele>
        <time>2020-07-23T10:07:10Z</time>
      </trkpt>
      <trkpt lat="42.783635" lon="-0.134518">
        <ele>2583.254</ele>
        <time>2020-07-23T10:07:15Z</time>
      </trkpt>
      <trkpt lat="42.783671" lon="-0.134572">
        <ele>2582.037</ele>
        <time>2020-07-23T10:07:20Z</time>
      </trkpt>
      <trkpt lat="42.783724" lon="-0.134571">
        <ele>2580.727</ele>
        <time>2020-07-23T10:07:24Z</time>
      </trkpt>
      <trkpt lat="42.783773" lon="-0.134551">
        <ele>2579.349</ele>
        <time>2020-07-23T10:07:27Z</time>
      </trkpt>
      <trkpt lat="42.783828" lon="-0.134530">
        <ele>2577.659</ele>
        <time>2020-07-23T10:07:30Z</time>
      </trkpt>
      <trkpt lat="42.783872" lon="-0.134499">
        <ele>2576.068</ele>
        <time>2020-07-23T10:07:33Z</time>
      </trkpt>
      <trkpt lat="42.783919" lon="-0.134469">
        <ele>2576.297</ele>
        <time>2020-07-23T10:07:35Z</time>
      </trkpt>
      <trkpt lat="42.783980" lon="-0.134442">
        <ele>2574.723</ele>
        <time>2020-07-23T10:07:38Z</time>
      </trkpt>
      <trkpt lat="42.784025" lon="-0.134436">
        <ele>2573.725</ele>
        <time>2020-07-23T10:07:40Z</time>
      </trkpt>
      <trkpt lat="42.784090" lon="-0.134465">
        <ele>2571.508</ele>
        <time>2020-07-23T10:07:43Z</time>
      </trkpt>
      <trkpt lat="42.784161" lon="-0.134475">
        <ele>2570.494</ele>
        <time>2020-07-23T10:07:46Z</time>
      </trkpt>
      <trkpt lat="42.784213" lon="-0.134483">
        <ele>2570.982</ele>
        <time>2020-07-23T10:07:50Z</time>
      </trkpt>
      <trkpt lat="42.784268" lon="-0.134510">
        <ele>2569.246</ele>
        <time>2020-07-23T10:07:54Z</time>
      </trkpt>
      <trkpt lat="42.784324" lon="-0.134518">
        <ele>2569.869</ele>
        <time>2020-07-23T10:07:58Z</time>
      </trkpt>
      <trkpt lat="42.784388" lon="-0.134517">
        <ele>2570.259</ele>
        <time>2020-07-23T10:08:03Z</time>
      </trkpt>
      <trkpt lat="42.784447" lon="-0.134512">
        <ele>2570.261</ele>
        <time>2020-07-23T10:08:07Z</time>
      </trkpt>
      <trkpt lat="42.784499" lon="-0.134508">
        <ele>2569.731</ele>
        <time>2020-07-23T10:08:10Z</time>
      </trkpt>
      <trkpt lat="42.784546" lon="-0.134502">
        <ele>2570.390</ele>
        <time>2020-07-23T10:08:13Z</time>
      </trkpt>
      <trkpt lat="42.784601" lon="-0.134493">
        <ele>2569.489</ele>
        <time>2020-07-23T10:08:18Z</time>
      </trkpt>
      <trkpt lat="42.784651" lon="-0.134462">
        <ele>2568.406</ele>
        <time>2020-07-23T10:08:22Z</time>
      </trkpt>
      <trkpt lat="42.784692" lon="-0.134427">
        <ele>2568.126</ele>
        <time>2020-07-23T10:08:25Z</time>
      </trkpt>
      <trkpt lat="42.784731" lon="-0.134395">
        <ele>2565.408</ele>
        <time>2020-07-23T10:08:28Z</time>
      </trkpt>
      <trkpt lat="42.784761" lon="-0.134333">
        <ele>2565.783</ele>
        <time>2020-07-23T10:08:31Z</time>
      </trkpt>
      <trkpt lat="42.784791" lon="-0.134282">
        <ele>2565.521</ele>
        <time>2020-07-23T10:08:34Z</time>
      </trkpt>
      <trkpt lat="42.784808" lon="-0.134209">
        <ele>2563.015</ele>
        <time>2020-07-23T10:08:39Z</time>
      </trkpt>
      <trkpt lat="42.784850" lon="-0.134259">
        <ele>2562.338</ele>
        <time>2020-07-23T10:08:46Z</time>
      </trkpt>
      <trkpt lat="42.784837" lon="-0.134319">
        <ele>2561.338</ele>
        <time>2020-07-23T10:08:50Z</time>
      </trkpt>
      <trkpt lat="42.784848" lon="-0.134361">
        <ele>2558.750</ele>
        <time>2020-07-23T10:08:57Z</time>
      </trkpt>
      <trkpt lat="42.784891" lon="-0.134341">
        <ele>2556.260</ele>
        <time>2020-07-23T10:09:00Z</time>
      </trkpt>
      <trkpt lat="42.784949" lon="-0.134314">
        <ele>2556.549</ele>
        <time>2020-07-23T10:09:07Z</time>
      </trkpt>
      <trkpt lat="42.784961" lon="-0.134402">
        <ele>2553.529</ele>
        <time>2020-07-23T10:09:15Z</time>
      </trkpt>
      <trkpt lat="42.784940" lon="-0.134468">
        <ele>2553.300</ele>
        <time>2020-07-23T10:09:21Z</time>
      </trkpt>
      <trkpt lat="42.784973" lon="-0.134480">
        <ele>2552.120</ele>
        <time>2020-07-23T10:09:25Z</time>
      </trkpt>
      <trkpt lat="42.785022" lon="-0.134453">
        <ele>2552.008</ele>
        <time>2020-07-23T10:09:28Z</time>
      </trkpt>
      <trkpt lat="42.785088" lon="-0.134426">
        <ele>2550.137</ele>
        <time>2020-07-23T10:09:33Z</time>
      </trkpt>
      <trkpt lat="42.785143" lon="-0.134382">
        <ele>2549.445</ele>
        <time>2020-07-23T10:09:37Z</time>
      </trkpt>
      <trkpt lat="42.785181" lon="-0.134323">
        <ele>2548.269</ele>
        <time>2020-07-23T10:09:40Z</time>
      </trkpt>
      <trkpt lat="42.785205" lon="-0.134257">
        <ele>2547.842</ele>
        <time>2020-07-23T10:09:44Z</time>
      </trkpt>
      <trkpt lat="42.785226" lon="-0.134191">
        <ele>2546.342</ele>
        <time>2020-07-23T10:09:48Z</time>
      </trkpt>
      <trkpt lat="42.785266" lon="-0.134159">
        <ele>2546.034</ele>
        <time>2020-07-23T10:09:52Z</time>
      </trkpt>
      <trkpt lat="42.785313" lon="-0.134149">
        <ele>2545.054</ele>
        <time>2020-07-23T10:09:57Z</time>
      </trkpt>
      <trkpt lat="42.785361" lon="-0.134131">
        <ele>2544.693</ele>
        <time>2020-07-23T10:10:01Z</time>
      </trkpt>
      <trkpt lat="42.785401" lon="-0.134101">
        <ele>2544.851</ele>
        <time>2020-07-23T10:10:05Z</time>
      </trkpt>
      <trkpt lat="42.785441" lon="-0.134071">
        <ele>2544.001</ele>
        <time>2020-07-23T10:10:08Z</time>
      </trkpt>
      <trkpt lat="42.785483" lon="-0.134046">
        <ele>2544.211</ele>
        <time>2020-07-23T10:10:11Z</time>
      </trkpt>
      <trkpt lat="42.785527" lon="-0.134016">
        <ele>2544.908</ele>
        <time>2020-07-23T10:10:15Z</time>
      </trkpt>
      <trkpt lat="42.785565" lon="-0.133970">
        <ele>2543.840</ele>
        <time>2020-07-23T10:10:19Z</time>
      </trkpt>
      <trkpt lat="42.785607" lon="-0.133921">
        <ele>2542.768</ele>
        <time>2020-07-23T10:10:23Z</time>
      </trkpt>
      <trkpt lat="42.785648" lon="-0.133849">
        <ele>2542.062</ele>
        <time>2020-07-23T10:10:27Z</time>
      </trkpt>
      <trkpt lat="42.785713" lon="-0.133831">
        <ele>2541.565</ele>
        <time>2020-07-23T10:10:31Z</time>
      </trkpt>
      <trkpt lat="42.785767" lon="-0.133802">
        <ele>2540.055</ele>
        <time>2020-07-23T10:10:35Z</time>
      </trkpt>
      <trkpt lat="42.785809" lon="-0.133756">
        <ele>2538.587</ele>
        <time>2020-07-23T10:10:39Z</time>
      </trkpt>
      <trkpt lat="42.785829" lon="-0.133686">
        <ele>2538.187</ele>
        <time>2020-07-23T10:10:43Z</time>
      </trkpt>
      <trkpt lat="42.785857" lon="-0.133619">
        <ele>2536.326</ele>
        <time>2020-07-23T10:10:47Z</time>
      </trkpt>
      <trkpt lat="42.785902" lon="-0.133581">
        <ele>2537.111</ele>
        <time>2020-07-23T10:10:51Z</time>
      </trkpt>
      <trkpt lat="42.785946" lon="-0.133566">
        <ele>2536.421</ele>
        <time>2020-07-23T10:10:54Z</time>
      </trkpt>
      <trkpt lat="42.786007" lon="-0.133558">
        <ele>2536.803</ele>
        <time>2020-07-23T10:10:58Z</time>
      </trkpt>
      <trkpt lat="42.786064" lon="-0.133548">
        <ele>2536.108</ele>
        <time>2020-07-23T10:11:02Z</time>
      </trkpt>
      <trkpt lat="42.786116" lon="-0.133532">
        <ele>2533.646</ele>
        <time>2020-07-23T10:11:06Z</time>
      </trkpt>
      <trkpt lat="42.786155" lon="-0.133492">
        <ele>2534.254</ele>
        <time>2020-07-23T10:11:10Z</time>
      </trkpt>
      <trkpt lat="42.786195" lon="-0.133450">
        <ele>2533.178</ele>
        <time>2020-07-23T10:11:13Z</time>
      </trkpt>
      <trkpt lat="42.786249" lon="-0.133430">
        <ele>2532.371</ele>
        <time>2020-07-23T10:11:17Z</time>
      </trkpt>
      <trkpt lat="42.786297" lon="-0.133419">
        <ele>2532.561</ele>
        <time>2020-07-23T10:11:21Z</time>
      </trkpt>
      <trkpt lat="42.786342" lon="-0.133398">
        <ele>2531.463</ele>
        <time>2020-07-23T10:11:25Z</time>
      </trkpt>
      <trkpt lat="42.786408" lon="-0.133387">
        <ele>2531.323</ele>
        <time>2020-07-23T10:11:30Z</time>
      </trkpt>
      <trkpt lat="42.786461" lon="-0.133375">
        <ele>2531.772</ele>
        <time>2020-07-23T10:11:34Z</time>
      </trkpt>
      <trkpt lat="42.786505" lon="-0.133361">
        <ele>2531.111</ele>
        <time>2020-07-23T10:11:38Z</time>
      </trkpt>
      <trkpt lat="42.786560" lon="-0.133363">
        <ele>2528.821</ele>
        <time>2020-07-23T10:11:42Z</time>
      </trkpt>
      <trkpt lat="42.786609" lon="-0.133349">
        <ele>2527.903</ele>
        <time>2020-07-23T10:11:46Z</time>
      </trkpt>
      <trkpt lat="42.786660" lon="-0.133317">
        <ele>2527.708</ele>
        <time>2020-07-23T10:11:50Z</time>
      </trkpt>
      <trkpt lat="42.786699" lon="-0.133280">
        <ele>2526.056</ele>
        <time>2020-07-23T10:11:53Z</time>
      </trkpt>
      <trkpt lat="42.786750" lon="-0.133258">
        <ele>2526.384</ele>
        <time>2020-07-23T10:11:56Z</time>
      </trkpt>
      <trkpt lat="42.786807" lon="-0.133238">
        <ele>2524.998</ele>
        <time>2020-07-23T10:12:00Z</time>
      </trkpt>
      <trkpt lat="42.786868" lon="-0.133238">
        <ele>2525.321</ele>
        <time>2020-07-23T10:12:04Z</time>
      </trkpt>
      <trkpt lat="42.786939" lon="-0.133241">
        <ele>2524.431</ele>
        <time>2020-07-23T10:12:09Z</time>
      </trkpt>
      <trkpt lat="42.786987" lon="-0.133253">
        <ele>2523.683</ele>
        <time>2020-07-23T10:12:13Z</time>
      </trkpt>
      <trkpt lat="42.787038" lon="-0.133252">
        <ele>2522.513</ele>
        <time>2020-07-23T10:12:17Z</time>
      </trkpt>
      <trkpt lat="42.787098" lon="-0.133255">
        <ele>2521.742</ele>
        <time>2020-07-23T10:12:22Z</time>
      </trkpt>
      <trkpt lat="42.787147" lon="-0.133247">
        <ele>2521.417</ele>
        <time>2020-07-23T10:12:26Z</time>
      </trkpt>
      <trkpt lat="42.787197" lon="-0.133237">
        <ele>2519.887</ele>
        <time>2020-07-23T10:12:29Z</time>
      </trkpt>
      <trkpt lat="42.787246" lon="-0.133212">
        <ele>2520.615</ele>
        <time>2020-07-23T10:12:33Z</time>
      </trkpt>
      <trkpt lat="42.787276" lon="-0.133156">
        <ele>2520.208</ele>
        <time>2020-07-23T10:12:38Z</time>
      </trkpt>
      <trkpt lat="42.787328" lon="-0.133140">
        <ele>2519.146</ele>
        <time>2020-07-23T10:12:42Z</time>
      </trkpt>
      <trkpt lat="42.787387" lon="-0.133144">
        <ele>2519.074</ele>
        <time>2020-07-23T10:12:45Z</time>
      </trkpt>
      <trkpt lat="42.787434" lon="-0.133141">
        <ele>2517.028</ele>
        <time>2020-07-23T10:12:48Z</time>
      </trkpt>
      <trkpt lat="42.787488" lon="-0.133131">
        <ele>2516.951</ele>
        <time>2020-07-23T10:12:52Z</time>
      </trkpt>
      <trkpt lat="42.787543" lon="-0.133115">
        <ele>2517.871</ele>
        <time>2020-07-23T10:12:56Z</time>
      </trkpt>
      <trkpt lat="42.787588" lon="-0.133117">
        <ele>2514.873</ele>
        <time>2020-07-23T10:13:01Z</time>
      </trkpt>
      <trkpt lat="42.787618" lon="-0.133190">
        <ele>2515.373</ele>
        <time>2020-07-23T10:13:06Z</time>
      </trkpt>
      <trkpt lat="42.787671" lon="-0.133171">
        <ele>2514.812</ele>
        <time>2020-07-23T10:13:12Z</time>
      </trkpt>
      <trkpt lat="42.787711" lon="-0.133138">
        <ele>2514.575</ele>
        <time>2020-07-23T10:13:15Z</time>
      </trkpt>
      <trkpt lat="42.787753" lon="-0.133110">
        <ele>2512.928</ele>
        <time>2020-07-23T10:13:19Z</time>
      </trkpt>
      <trkpt lat="42.787804" lon="-0.133105">
        <ele>2511.420</ele>
        <time>2020-07-23T10:13:25Z</time>
      </trkpt>
      <trkpt lat="42.787846" lon="-0.133153">
        <ele>2510.208</ele>
        <time>2020-07-23T10:13:30Z</time>
      </trkpt>
      <trkpt lat="42.787893" lon="-0.133169">
        <ele>2509.042</ele>
        <time>2020-07-23T10:13:35Z</time>
      </trkpt>
      <trkpt lat="42.787923" lon="-0.133142">
        <ele>2508.050</ele>
        <time>2020-07-23T10:13:40Z</time>
      </trkpt>
      <trkpt lat="42.787949" lon="-0.133094">
        <ele>2506.694</ele>
        <time>2020-07-23T10:13:44Z</time>
      </trkpt>
      <trkpt lat="42.787978" lon="-0.133032">
        <ele>2507.027</ele>
        <time>2020-07-23T10:13:48Z</time>
      </trkpt>
      <trkpt lat="42.788031" lon="-0.132995">
        <ele>2505.967</ele>
        <time>2020-07-23T10:13:52Z</time>
      </trkpt>
      <trkpt lat="42.788031" lon="-0.132886">
        <ele>2505.779</ele>
        <time>2020-07-23T10:13:53Z</time>
      </trkpt>
      <trkpt lat="42.788050" lon="-0.132803">
        <ele>2505.679</ele>
        <time>2020-07-23T10:13:54Z</time>
      </trkpt>
      <trkpt lat="42.788027" lon="-0.132686">
        <ele>2505.378</ele>
        <time>2020-07-23T10:13:55Z</time>
      </trkpt>
      <trkpt lat="42.788051" lon="-0.132593">
        <ele>2505.282</ele>
        <time>2020-07-23T10:13:56Z</time>
      </trkpt>
      <trkpt lat="42.788118" lon="-0.132551">
        <ele>2505.043</ele>
        <time>2020-07-23T10:13:56Z</time>
      </trkpt>
      <trkpt lat="42.788186" lon="-0.132636">
        <ele>2504.317</ele>
        <time>2020-07-23T10:14:00Z</time>
      </trkpt>
      <trkpt lat="42.788217" lon="-0.132740">
        <ele>2503.308</ele>
        <time>2020-07-23T10:14:03Z</time>
      </trkpt>
      <trkpt lat="42.788221" lon="-0.132853">
        <ele>2501.323</ele>
        <time>2020-07-23T10:14:06Z</time>
      </trkpt>
      <trkpt lat="42.788257" lon="-0.132921">
        <ele>2502.331</ele>
        <time>2020-07-23T10:14:10Z</time>
      </trkpt>
      <trkpt lat="42.788313" lon="-0.132937">
        <ele>2501.375</ele>
        <time>2020-07-23T10:14:14Z</time>
      </trkpt>
      <trkpt lat="42.788363" lon="-0.132959">
        <ele>2502.078</ele>
        <time>2020-07-23T10:14:18Z</time>
      </trkpt>
      <trkpt lat="42.788423" lon="-0.132947">
        <ele>2500.398</ele>
        <time>2020-07-23T10:14:23Z</time>
      </trkpt>
      <trkpt lat="42.788471" lon="-0.132986">
        <ele>2500.710</ele>
        <time>2020-07-23T10:14:29Z</time>
      </trkpt>
      <trkpt lat="42.788503" lon="-0.133046">
        <ele>2499.450</ele>
        <time>2020-07-23T10:14:33Z</time>
      </trkpt>
      <trkpt lat="42.788555" lon="-0.133044">
        <ele>2497.059</ele>
        <time>2020-07-23T10:14:38Z</time>
      </trkpt>
      <trkpt lat="42.788592" lon="-0.132999">
        <ele>2497.584</ele>
        <time>2020-07-23T10:14:41Z</time>
      </trkpt>
      <trkpt lat="42.788638" lon="-0.132964">
        <ele>2497.507</ele>
        <time>2020-07-23T10:14:46Z</time>
      </trkpt>
      <trkpt lat="42.788661" lon="-0.133023">
        <ele>2494.917</ele>
        <time>2020-07-23T10:14:50Z</time>
      </trkpt>
      <trkpt lat="42.788665" lon="-0.133096">
        <ele>2495.808</ele>
        <time>2020-07-23T10:14:55Z</time>
      </trkpt>
      <trkpt lat="42.788646" lon="-0.133154">
        <ele>2493.873</ele>
        <time>2020-07-23T10:15:01Z</time>
      </trkpt>
      <trkpt lat="42.788715" lon="-0.133095">
        <ele>2492.391</ele>
        <time>2020-07-23T10:15:06Z</time>
      </trkpt>
      <trkpt lat="42.788732" lon="-0.133074">
        <ele>2490.945</ele>
        <time>2020-07-23T10:15:10Z</time>
      </trkpt>
      <trkpt lat="42.788779" lon="-0.133099">
        <ele>2489.728</ele>
        <time>2020-07-23T10:15:17Z</time>
      </trkpt>
      <trkpt lat="42.788824" lon="-0.133072">
        <ele>2489.388</ele>
        <time>2020-07-23T10:15:22Z</time>
      </trkpt>
      <trkpt lat="42.788848" lon="-0.133017">
        <ele>2488.320</ele>
        <time>2020-07-23T10:15:26Z</time>
      </trkpt>
      <trkpt lat="42.788866" lon="-0.132954">
        <ele>2488.640</ele>
        <time>2020-07-23T10:15:29Z</time>
      </trkpt>
      <trkpt lat="42.788895" lon="-0.132888">
        <ele>2487.799</ele>
        <time>2020-07-23T10:15:33Z</time>
      </trkpt>
      <trkpt lat="42.788938" lon="-0.132821">
        <ele>2489.478</ele>
        <time>2020-07-23T10:15:37Z</time>
      </trkpt>
      <trkpt lat="42.788971" lon="-0.132762">
        <ele>2489.033</ele>
        <time>2020-07-23T10:15:41Z</time>
      </trkpt>
      <trkpt lat="42.788987" lon="-0.132700">
        <ele>2489.726</ele>
        <time>2020-07-23T10:15:45Z</time>
      </trkpt>
      <trkpt lat="42.789029" lon="-0.132658">
        <ele>2489.108</ele>
        <time>2020-07-23T10:15:50Z</time>
      </trkpt>
      <trkpt lat="42.789071" lon="-0.132615">
        <ele>2488.772</ele>
        <time>2020-07-23T10:15:55Z</time>
      </trkpt>
      <trkpt lat="42.789114" lon="-0.132587">
        <ele>2486.430</ele>
        <time>2020-07-23T10:16:00Z</time>
      </trkpt>
      <trkpt lat="42.789168" lon="-0.132597">
        <ele>2485.884</ele>
        <time>2020-07-23T10:16:05Z</time>
      </trkpt>
      <trkpt lat="42.789213" lon="-0.132555">
        <ele>2484.257</ele>
        <time>2020-07-23T10:16:09Z</time>
      </trkpt>
      <trkpt lat="42.789241" lon="-0.132503">
        <ele>2482.897</ele>
        <time>2020-07-23T10:16:13Z</time>
      </trkpt>
      <trkpt lat="42.789294" lon="-0.132512">
        <ele>2483.059</ele>
        <time>2020-07-23T10:16:17Z</time>
      </trkpt>
      <trkpt lat="42.789334" lon="-0.132520">
        <ele>2481.489</ele>
        <time>2020-07-23T10:16:23Z</time>
      </trkpt>
      <trkpt lat="42.789392" lon="-0.132521">
        <ele>2480.448</ele>
        <time>2020-07-23T10:16:29Z</time>
      </trkpt>
      <trkpt lat="42.789457" lon="-0.132518">
        <ele>2479.341</ele>
        <time>2020-07-23T10:16:34Z</time>
      </trkpt>
      <trkpt lat="42.789504" lon="-0.132498">
        <ele>2479.381</ele>
        <time>2020-07-23T10:16:38Z</time>
      </trkpt>
      <trkpt lat="42.789552" lon="-0.132489">
        <ele>2477.409</ele>
        <time>2020-07-23T10:16:43Z</time>
      </trkpt>
      <trkpt lat="42.789583" lon="-0.132429">
        <ele>2476.908</ele>
        <time>2020-07-23T10:16:48Z</time>
      </trkpt>
      <trkpt lat="42.789618" lon="-0.132389">
        <ele>2476.669</ele>
        <time>2020-07-23T10:16:52Z</time>
      </trkpt>
      <trkpt lat="42.789659" lon="-0.132329">
        <ele>2476.227</ele>
        <time>2020-07-23T10:16:57Z</time>
      </trkpt>
      <trkpt lat="42.789704" lon="-0.132301">
        <ele>2475.351</ele>
        <time>2020-07-23T10:17:02Z</time>
      </trkpt>
      <trkpt lat="42.789752" lon="-0.132255">
        <ele>2474.634</ele>
        <time>2020-07-23T10:17:07Z</time>
      </trkpt>
      <trkpt lat="42.789793" lon="-0.132223">
        <ele>2474.864</ele>
        <time>2020-07-23T10:17:10Z</time>
      </trkpt>
      <trkpt lat="42.789851" lon="-0.132195">
        <ele>2473.476</ele>
        <time>2020-07-23T10:17:16Z</time>
      </trkpt>
      <trkpt lat="42.789890" lon="-0.132200">
        <ele>2472.846</ele>
        <time>2020-07-23T10:17:21Z</time>
      </trkpt>
      <trkpt lat="42.789926" lon="-0.132248">
        <ele>2471.285</ele>
        <time>2020-07-23T10:17:25Z</time>
      </trkpt>
      <trkpt lat="42.789943" lon="-0.132328">
        <ele>2469.738</ele>
        <time>2020-07-23T10:17:29Z</time>
      </trkpt>
      <trkpt lat="42.789969" lon="-0.132391">
        <ele>2470.170</ele>
        <time>2020-07-23T10:17:32Z</time>
      </trkpt>
      <trkpt lat="42.789981" lon="-0.132452">
        <ele>2469.917</ele>
        <time>2020-07-23T10:17:36Z</time>
      </trkpt>
      <trkpt lat="42.789978" lon="-0.132531">
        <ele>2467.708</ele>
        <time>2020-07-23T10:17:42Z</time>
      </trkpt>
      <trkpt lat="42.789927" lon="-0.132600">
        <ele>2467.118</ele>
        <time>2020-07-23T10:17:46Z</time>
      </trkpt>
      <trkpt lat="42.789961" lon="-0.132651">
        <ele>2464.846</ele>
        <time>2020-07-23T10:17:55Z</time>
      </trkpt>
      <trkpt lat="42.790002" lon="-0.132655">
        <ele>2464.020</ele>
        <time>2020-07-23T10:17:59Z</time>
      </trkpt>
      <trkpt lat="42.790057" lon="-0.132633">
        <ele>2464.023</ele>
        <time>2020-07-23T10:18:04Z</time>
      </trkpt>
      <trkpt lat="42.790101" lon="-0.132593">
        <ele>2463.443</ele>
        <time>2020-07-23T10:18:09Z</time>
      </trkpt>
      <trkpt lat="42.790101" lon="-0.132704">
        <ele>2461.785</ele>
        <time>2020-07-23T10:18:14Z</time>
      </trkpt>
      <trkpt lat="42.790062" lon="-0.132760">
        <ele>2460.695</ele>
        <time>2020-07-23T10:18:17Z</time>
      </trkpt>
      <trkpt lat="42.790023" lon="-0.132801">
        <ele>2460.684</ele>
        <time>2020-07-23T10:18:20Z</time>
      </trkpt>
      <trkpt lat="42.789987" lon="-0.132862">
        <ele>2460.231</ele>
        <time>2020-07-23T10:18:25Z</time>
      </trkpt>
      <trkpt lat="42.789965" lon="-0.132930">
        <ele>2459.561</ele>
        <time>2020-07-23T10:18:31Z</time>
      </trkpt>
      <trkpt lat="42.789944" lon="-0.132992">
        <ele>2457.407</ele>
        <time>2020-07-23T10:18:35Z</time>
      </trkpt>
      <trkpt lat="42.789897" lon="-0.133039">
        <ele>2458.008</ele>
        <time>2020-07-23T10:18:40Z</time>
      </trkpt>
      <trkpt lat="42.789861" lon="-0.133092">
        <ele>2456.478</ele>
        <time>2020-07-23T10:18:46Z</time>
      </trkpt>
      <trkpt lat="42.789917" lon="-0.133120">
        <ele>2455.536</ele>
        <time>2020-07-23T10:18:53Z</time>
      </trkpt>
      <trkpt lat="42.789965" lon="-0.133120">
        <ele>2454.040</ele>
        <time>2020-07-23T10:18:58Z</time>
      </trkpt>
      <trkpt lat="42.790012" lon="-0.133106">
        <ele>2453.343</ele>
        <time>2020-07-23T10:19:02Z</time>
      </trkpt>
      <trkpt lat="42.790061" lon="-0.133117">
        <ele>2452.253</ele>
        <time>2020-07-23T10:19:06Z</time>
      </trkpt>
      <trkpt lat="42.790116" lon="-0.133108">
        <ele>2451.325</ele>
        <time>2020-07-23T10:19:10Z</time>
      </trkpt>
      <trkpt lat="42.790172" lon="-0.133098">
        <ele>2451.455</ele>
        <time>2020-07-23T10:19:15Z</time>
      </trkpt>
      <trkpt lat="42.790217" lon="-0.133107">
        <ele>2450.514</ele>
        <time>2020-07-23T10:19:19Z</time>
      </trkpt>
      <trkpt lat="42.790265" lon="-0.133098">
        <ele>2448.332</ele>
        <time>2020-07-23T10:19:25Z</time>
      </trkpt>
      <trkpt lat="42.790315" lon="-0.133081">
        <ele>2447.492</ele>
        <time>2020-07-23T10:19:30Z</time>
      </trkpt>
      <trkpt lat="42.790360" lon="-0.133070">
        <ele>2446.711</ele>
        <time>2020-07-23T10:19:36Z</time>
      </trkpt>
      <trkpt lat="42.790412" lon="-0.133068">
        <ele>2445.308</ele>
        <time>2020-07-23T10:19:41Z</time>
      </trkpt>
      <trkpt lat="42.790462" lon="-0.133036">
        <ele>2444.648</ele>
        <time>2020-07-23T10:19:47Z</time>
      </trkpt>
      <trkpt lat="42.790512" lon="-0.133025">
        <ele>2442.146</ele>
        <time>2020-07-23T10:19:51Z</time>
      </trkpt>
      <trkpt lat="42.790499" lon="-0.133101">
        <ele>2442.620</ele>
        <time>2020-07-23T10:19:56Z</time>
      </trkpt>
      <trkpt lat="42.790441" lon="-0.133148">
        <ele>2440.943</ele>
        <time>2020-07-23T10:20:00Z</time>
      </trkpt>
      <trkpt lat="42.790398" lon="-0.133179">
        <ele>2439.783</ele>
        <time>2020-07-23T10:20:04Z</time>
      </trkpt>
      <trkpt lat="42.790358" lon="-0.133215">
        <ele>2439.775</ele>
        <time>2020-07-23T10:20:08Z</time>
      </trkpt>
      <trkpt lat="42.790308" lon="-0.133244">
        <ele>2438.145</ele>
        <time>2020-07-23T10:20:12Z</time>
      </trkpt>
      <trkpt lat="42.790360" lon="-0.133283">
        <ele>2435.734</ele>
        <time>2020-07-23T10:20:20Z</time>
      </trkpt>
      <trkpt lat="42.790410" lon="-0.133294">
        <ele>2435.939</ele>
        <time>2020-07-23T10:20:24Z</time>
      </trkpt>
      <trkpt lat="42.790462" lon="-0.133274">
        <ele>2434.501</ele>
        <time>2020-07-23T10:20:27Z</time>
      </trkpt>
      <trkpt lat="42.790518" lon="-0.133263">
        <ele>2432.621</ele>
        <time>2020-07-23T10:20:31Z</time>
      </trkpt>
      <trkpt lat="42.790619" lon="-0.133251">
        <ele>2431.908</ele>
        <time>2020-07-23T10:20:36Z</time>
      </trkpt>
      <trkpt lat="42.790542" lon="-0.133347">
        <ele>2430.548</ele>
        <time>2020-07-23T10:20:43Z</time>
      </trkpt>
      <trkpt lat="42.790496" lon="-0.133377">
        <ele>2429.976</ele>
        <time>2020-07-23T10:20:47Z</time>
      </trkpt>
      <trkpt lat="42.790447" lon="-0.133409">
        <ele>2429.120</ele>
        <time>2020-07-23T10:20:53Z</time>
      </trkpt>
      <trkpt lat="42.790400" lon="-0.133442">
        <ele>2426.663</ele>
        <time>2020-07-23T10:20:58Z</time>
      </trkpt>
      <trkpt lat="42.790352" lon="-0.133457">
        <ele>2425.923</ele>
        <time>2020-07-23T10:21:03Z</time>
      </trkpt>
      <trkpt lat="42.790306" lon="-0.133463">
        <ele>2425.595</ele>
        <time>2020-07-23T10:21:06Z</time>
      </trkpt>
      <trkpt lat="42.790253" lon="-0.133497">
        <ele>2424.445</ele>
        <time>2020-07-23T10:21:12Z</time>
      </trkpt>
      <trkpt lat="42.790217" lon="-0.133551">
        <ele>2422.884</ele>
        <time>2020-07-23T10:21:16Z</time>
      </trkpt>
      <trkpt lat="42.790246" lon="-0.133590">
        <ele>2421.682</ele>
        <time>2020-07-23T10:21:20Z</time>
      </trkpt>
      <trkpt lat="42.790307" lon="-0.133611">
        <ele>2420.343</ele>
        <time>2020-07-23T10:21:24Z</time>
      </trkpt>
      <trkpt lat="42.790359" lon="-0.133622">
        <ele>2419.417</ele>
        <time>2020-07-23T10:21:28Z</time>
      </trkpt>
      <trkpt lat="42.790404" lon="-0.133630">
        <ele>2419.008</ele>
        <time>2020-07-23T10:21:31Z</time>
      </trkpt>
      <trkpt lat="42.790465" lon="-0.133662">
        <ele>2416.793</ele>
        <time>2020-07-23T10:21:36Z</time>
      </trkpt>
      <trkpt lat="42.790512" lon="-0.133687">
        <ele>2415.991</ele>
        <time>2020-07-23T10:21:40Z</time>
      </trkpt>
      <trkpt lat="42.790563" lon="-0.133696">
        <ele>2416.045</ele>
        <time>2020-07-23T10:21:44Z</time>
      </trkpt>
      <trkpt lat="42.790609" lon="-0.133731">
        <ele>2412.958</ele>
        <time>2020-07-23T10:21:48Z</time>
      </trkpt>
      <trkpt lat="42.790669" lon="-0.133744">
        <ele>2413.288</ele>
        <time>2020-07-23T10:21:52Z</time>
      </trkpt>
      <trkpt lat="42.790700" lon="-0.133794">
        <ele>2412.310</ele>
        <time>2020-07-23T10:21:57Z</time>
      </trkpt>
      <trkpt lat="42.790656" lon="-0.133842">
        <ele>2412.010</ele>
        <time>2020-07-23T10:22:02Z</time>
      </trkpt>
      <trkpt lat="42.790619" lon="-0.133894">
        <ele>2409.319</ele>
        <time>2020-07-23T10:22:08Z</time>
      </trkpt>
      <trkpt lat="42.790575" lon="-0.133929">
        <ele>2409.571</ele>
        <time>2020-07-23T10:22:12Z</time>
      </trkpt>
      <trkpt lat="42.790528" lon="-0.133945">
        <ele>2408.341</ele>
        <time>2020-07-23T10:22:15Z</time>
      </trkpt>
      <trkpt lat="42.790482" lon="-0.133967">
        <ele>2408.015</ele>
        <time>2020-07-23T10:22:18Z</time>
      </trkpt>
      <trkpt lat="42.790437" lon="-0.134000">
        <ele>2406.908</ele>
        <time>2020-07-23T10:22:21Z</time>
      </trkpt>
      <trkpt lat="42.790398" lon="-0.134037">
        <ele>2405.212</ele>
        <time>2020-07-23T10:22:23Z</time>
      </trkpt>
      <trkpt lat="42.790350" lon="-0.134076">
        <ele>2405.410</ele>
        <time>2020-07-23T10:22:26Z</time>
      </trkpt>
      <trkpt lat="42.790297" lon="-0.134114">
        <ele>2405.794</ele>
        <time>2020-07-23T10:22:30Z</time>
      </trkpt>
      <trkpt lat="42.790251" lon="-0.134169">
        <ele>2403.767</ele>
        <time>2020-07-23T10:22:33Z</time>
      </trkpt>
      <trkpt lat="42.790217" lon="-0.134221">
        <ele>2403.617</ele>
        <time>2020-07-23T10:22:36Z</time>
      </trkpt>
      <trkpt lat="42.790187" lon="-0.134280">
        <ele>2403.359</ele>
        <time>2020-07-23T10:22:39Z</time>
      </trkpt>
      <trkpt lat="42.790158" lon="-0.134350">
        <ele>2401.959</ele>
        <time>2020-07-23T10:22:43Z</time>
      </trkpt>
      <trkpt lat="42.790146" lon="-0.134418">
        <ele>2401.258</ele>
        <time>2020-07-23T10:22:47Z</time>
      </trkpt>
      <trkpt lat="42.790205" lon="-0.134454">
        <ele>2399.826</ele>
        <time>2020-07-23T10:22:52Z</time>
      </trkpt>
      <trkpt lat="42.790262" lon="-0.134472">
        <ele>2399.547</ele>
        <time>2020-07-23T10:22:56Z</time>
      </trkpt>
      <trkpt lat="42.790312" lon="-0.134478">
        <ele>2398.911</ele>
        <time>2020-07-23T10:22:59Z</time>
      </trkpt>
      <trkpt lat="42.790362" lon="-0.134481">
        <ele>2399.108</ele>
        <time>2020-07-23T10:23:02Z</time>
      </trkpt>
      <trkpt lat="42.790413" lon="-0.134492">
        <ele>2398.837</ele>
        <time>2020-07-23T10:23:05Z</time>
      </trkpt>
      <trkpt lat="42.790466" lon="-0.134511">
        <ele>2397.725</ele>
        <time>2020-07-23T10:23:09Z</time>
      </trkpt>
      <trkpt lat="42.790509" lon="-0.134542">
        <ele>2398.089</ele>
        <time>2020-07-23T10:23:12Z</time>
      </trkpt>
      <trkpt lat="42.790570" lon="-0.134564">
        <ele>2397.632</ele>
        <time>2020-07-23T10:23:16Z</time>
      </trkpt>
      <trkpt lat="42.790598" lon="-0.134621">
        <ele>2399.012</ele>
        <time>2020-07-23T10:23:20Z</time>
      </trkpt>
      <trkpt lat="42.790547" lon="-0.134681">
        <ele>2397.394</ele>
        <time>2020-07-23T10:23:25Z</time>
      </trkpt>
      <trkpt lat="42.790495" lon="-0.134698">
        <ele>2396.684</ele>
        <time>2020-07-23T10:23:29Z</time>
      </trkpt>
      <trkpt lat="42.790433" lon="-0.134714">
        <ele>2394.723</ele>
        <time>2020-07-23T10:23:33Z</time>
      </trkpt>
      <trkpt lat="42.790383" lon="-0.134718">
        <ele>2393.428</ele>
        <time>2020-07-23T10:23:37Z</time>
      </trkpt>
      <trkpt lat="42.790326" lon="-0.134737">
        <ele>2392.689</ele>
        <time>2020-07-23T10:23:41Z</time>
      </trkpt>
      <trkpt lat="42.790272" lon="-0.134754">
        <ele>2391.817</ele>
        <time>2020-07-23T10:23:45Z</time>
      </trkpt>
      <trkpt lat="42.790222" lon="-0.134753">
        <ele>2392.108</ele>
        <time>2020-07-23T10:23:49Z</time>
      </trkpt>
      <trkpt lat="42.790176" lon="-0.134764">
        <ele>2389.847</ele>
        <time>2020-07-23T10:23:54Z</time>
      </trkpt>
      <trkpt lat="42.790123" lon="-0.134758">
        <ele>2388.875</ele>
        <time>2020-07-23T10:23:59Z</time>
      </trkpt>
      <trkpt lat="42.790075" lon="-0.134790">
        <ele>2388.739</ele>
        <time>2020-07-23T10:24:04Z</time>
      </trkpt>
      <trkpt lat="42.790035" lon="-0.134833">
        <ele>2387.482</ele>
        <time>2020-07-23T10:24:09Z</time>
      </trkpt>
      <trkpt lat="42.789987" lon="-0.134868">
        <ele>2386.312</ele>
        <time>2020-07-23T10:24:14Z</time>
      </trkpt>
      <trkpt lat="42.789943" lon="-0.134915">
        <ele>2385.894</ele>
        <time>2020-07-23T10:24:19Z</time>
      </trkpt>
      <trkpt lat="42.789901" lon="-0.134947">
        <ele>2385.354</ele>
        <time>2020-07-23T10:24:23Z</time>
      </trkpt>
      <trkpt lat="42.789852" lon="-0.134959">
        <ele>2385.423</ele>
        <time>2020-07-23T10:24:26Z</time>
      </trkpt>
      <trkpt lat="42.789789" lon="-0.134981">
        <ele>2383.349</ele>
        <time>2020-07-23T10:24:31Z</time>
      </trkpt>
      <trkpt lat="42.789738" lon="-0.134973">
        <ele>2381.602</ele>
        <time>2020-07-23T10:24:35Z</time>
      </trkpt>
      <trkpt lat="42.789690" lon="-0.134972">
        <ele>2380.722</ele>
        <time>2020-07-23T10:24:41Z</time>
      </trkpt>
      <trkpt lat="42.789715" lon="-0.135042">
        <ele>2378.608</ele>
        <time>2020-07-23T10:24:46Z</time>
      </trkpt>
      <trkpt lat="42.789756" lon="-0.135067">
        <ele>2378.859</ele>
        <time>2020-07-23T10:24:49Z</time>
      </trkpt>
      <trkpt lat="42.789803" lon="-0.135093">
        <ele>2379.047</ele>
        <time>2020-07-23T10:24:54Z</time>
      </trkpt>
      <trkpt lat="42.789842" lon="-0.135134">
        <ele>2377.181</ele>
        <time>2020-07-23T10:24:57Z</time>
      </trkpt>
      <trkpt lat="42.789885" lon="-0.135175">
        <ele>2378.334</ele>
        <time>2020-07-23T10:25:01Z</time>
      </trkpt>
      <trkpt lat="42.789946" lon="-0.135175">
        <ele>2377.934</ele>
        <time>2020-07-23T10:25:05Z</time>
      </trkpt>
      <trkpt lat="42.789989" lon="-0.135154">
        <ele>2376.236</ele>
        <time>2020-07-23T10:25:09Z</time>
      </trkpt>
      <trkpt lat="42.790035" lon="-0.135126">
        <ele>2374.836</ele>
        <time>2020-07-23T10:25:14Z</time>
      </trkpt>
      <trkpt lat="42.790083" lon="-0.135123">
        <ele>2374.095</ele>
        <time>2020-07-23T10:25:18Z</time>
      </trkpt>
      <trkpt lat="42.790128" lon="-0.135152">
        <ele>2374.024</ele>
        <time>2020-07-23T10:25:21Z</time>
      </trkpt>
      <trkpt lat="42.790171" lon="-0.135192">
        <ele>2373.104</ele>
        <time>2020-07-23T10:25:25Z</time>
      </trkpt>
      <trkpt lat="42.790212" lon="-0.135227">
        <ele>2371.514</ele>
        <time>2020-07-23T10:25:31Z</time>
      </trkpt>
      <trkpt lat="42.790267" lon="-0.135255">
        <ele>2369.808</ele>
        <time>2020-07-23T10:25:36Z</time>
      </trkpt>
      <trkpt lat="42.790306" lon="-0.135290">
        <ele>2370.247</ele>
        <time>2020-07-23T10:25:40Z</time>
      </trkpt>
      <trkpt lat="42.790357" lon="-0.135303">
        <ele>2369.515</ele>
        <time>2020-07-23T10:25:43Z</time>
      </trkpt>
      <trkpt lat="42.790402" lon="-0.135321">
        <ele>2367.459</ele>
        <time>2020-07-23T10:25:47Z</time>
      </trkpt>
      <trkpt lat="42.790453" lon="-0.135340">
        <ele>2367.542</ele>
        <time>2020-07-23T10:25:52Z</time>
      </trkpt>
      <trkpt lat="42.790506" lon="-0.135350">
        <ele>2366.852</ele>
        <time>2020-07-23T10:25:56Z</time>
      </trkpt>
      <trkpt lat="42.790553" lon="-0.135365">
        <ele>2365.794</ele>
        <time>2020-07-23T10:26:01Z</time>
      </trkpt>
      <trkpt lat="42.790595" lon="-0.135392">
        <ele>2364.834</ele>
        <time>2020-07-23T10:26:05Z</time>
      </trkpt>
      <trkpt lat="42.790644" lon="-0.135428">
        <ele>2362.153</ele>
        <time>2020-07-23T10:26:10Z</time>
      </trkpt>
      <trkpt lat="42.790681" lon="-0.135466">
        <ele>2362.591</ele>
        <time>2020-07-23T10:26:14Z</time>
      </trkpt>
      <trkpt lat="42.790642" lon="-0.135505">
        <ele>2360.881</ele>
        <time>2020-07-23T10:26:20Z</time>
      </trkpt>
      <trkpt lat="42.790585" lon="-0.135511">
        <ele>2360.119</ele>
        <time>2020-07-23T10:26:24Z</time>
      </trkpt>
      <trkpt lat="42.790538" lon="-0.135527">
        <ele>2359.308</ele>
        <time>2020-07-23T10:26:27Z</time>
      </trkpt>
      <trkpt lat="42.790487" lon="-0.135546">
        <ele>2358.474</ele>
        <time>2020-07-23T10:26:31Z</time>
      </trkpt>
      <trkpt lat="42.790427" lon="-0.135556">
        <ele>2357.422</ele>
        <time>2020-07-23T10:26:36Z</time>
      </trkpt>
      <trkpt lat="42.790386" lon="-0.135581">
        <ele>2356.646</ele>
        <time>2020-07-23T10:26:39Z</time>
      </trkpt>
      <trkpt lat="42.790433" lon="-0.135635">
        <ele>2353.879</ele>
        <time>2020-07-23T10:26:50Z</time>
      </trkpt>
      <trkpt lat="42.790486" lon="-0.135653">
        <ele>2353.069</ele>
        <time>2020-07-23T10:26:54Z</time>
      </trkpt>
      <trkpt lat="42.790530" lon="-0.135678">
        <ele>2352.791</ele>
        <time>2020-07-23T10:26:58Z</time>
      </trkpt>
      <trkpt lat="42.790571" lon="-0.135732">
        <ele>2351.941</ele>
        <time>2020-07-23T10:27:03Z</time>
      </trkpt>
      <trkpt lat="42.790605" lon="-0.135800">
        <ele>2349.910</ele>
        <time>2020-07-23T10:27:07Z</time>
      </trkpt>
      <trkpt lat="42.790658" lon="-0.135844">
        <ele>2348.826</ele>
        <time>2020-07-23T10:27:12Z</time>
      </trkpt>
      <trkpt lat="42.790708" lon="-0.135863">
        <ele>2346.947</ele>
        <time>2020-07-23T10:27:17Z</time>
      </trkpt>
      <trkpt lat="42.790658" lon="-0.135915">
        <ele>2347.311</ele>
        <time>2020-07-23T10:27:22Z</time>
      </trkpt>
      <trkpt lat="42.790608" lon="-0.135941">
        <ele>2346.208</ele>
        <time>2020-07-23T10:27:25Z</time>
      </trkpt>
      <trkpt lat="42.790566" lon="-0.135963">
        <ele>2344.497</ele>
        <time>2020-07-23T10:27:28Z</time>
      </trkpt>
      <trkpt lat="42.790502" lon="-0.135956">
        <ele>2344.645</ele>
        <time>2020-07-23T10:27:32Z</time>
      </trkpt>
      <trkpt lat="42.790462" lon="-0.135924">
        <ele>2344.649</ele>
        <time>2020-07-23T10:27:35Z</time>
      </trkpt>
      <trkpt lat="42.790405" lon="-0.135901">
        <ele>2343.332</ele>
        <time>2020-07-23T10:27:40Z</time>
      </trkpt>
      <trkpt lat="42.790357" lon="-0.135892">
        <ele>2342.952</ele>
        <time>2020-07-23T10:27:45Z</time>
      </trkpt>
      <trkpt lat="42.790387" lon="-0.135934">
        <ele>2340.294</ele>
        <time>2020-07-23T10:27:57Z</time>
      </trkpt>
      <trkpt lat="42.790417" lon="-0.135986">
        <ele>2338.544</ele>
        <time>2020-07-23T10:28:02Z</time>
      </trkpt>
      <trkpt lat="42.790369" lon="-0.135978">
        <ele>2338.593</ele>
        <time>2020-07-23T10:28:07Z</time>
      </trkpt>
      <trkpt lat="42.790318" lon="-0.135967">
        <ele>2336.783</ele>
        <time>2020-07-23T10:28:12Z</time>
      </trkpt>
      <trkpt lat="42.790329" lon="-0.136033">
        <ele>2336.025</ele>
        <time>2020-07-23T10:28:19Z</time>
      </trkpt>
      <trkpt lat="42.790362" lon="-0.136078">
        <ele>2334.217</ele>
        <time>2020-07-23T10:28:24Z</time>
      </trkpt>
      <trkpt lat="42.790315" lon="-0.136096">
        <ele>2331.808</ele>
        <time>2020-07-23T10:28:32Z</time>
      </trkpt>
      <trkpt lat="42.790260" lon="-0.136093">
        <ele>2331.373</ele>
        <time>2020-07-23T10:28:38Z</time>
      </trkpt>
      <trkpt lat="42.790207" lon="-0.136094">
        <ele>2331.581</ele>
        <time>2020-07-23T10:28:43Z</time>
      </trkpt>
      <trkpt lat="42.790156" lon="-0.136099">
        <ele>2330.715</ele>
        <time>2020-07-23T10:28:48Z</time>
      </trkpt>
      <trkpt lat="42.790101" lon="-0.136105">
        <ele>2328.188</ele>
        <time>2020-07-23T10:28:53Z</time>
      </trkpt>
      <trkpt lat="42.790044" lon="-0.136103">
        <ele>2329.368</ele>
        <time>2020-07-23T10:28:58Z</time>
      </trkpt>
      <trkpt lat="42.789997" lon="-0.136121">
        <ele>2329.160</ele>
        <time>2020-07-23T10:29:03Z</time>
      </trkpt>
      <trkpt lat="42.790039" lon="-0.136175">
        <ele>2327.250</ele>
        <time>2020-07-23T10:29:08Z</time>
      </trkpt>
      <trkpt lat="42.790087" lon="-0.136206">
        <ele>2325.869</ele>
        <time>2020-07-23T10:29:11Z</time>
      </trkpt>
      <trkpt lat="42.790137" lon="-0.136242">
        <ele>2324.163</ele>
        <time>2020-07-23T10:29:17Z</time>
      </trkpt>
      <trkpt lat="42.790188" lon="-0.136265">
        <ele>2324.544</ele>
        <time>2020-07-23T10:29:22Z</time>
      </trkpt>
      <trkpt lat="42.790251" lon="-0.136287">
        <ele>2322.918</ele>
        <time>2020-07-23T10:29:27Z</time>
      </trkpt>
      <trkpt lat="42.790298" lon="-0.136330">
        <ele>2321.108</ele>
        <time>2020-07-23T10:29:32Z</time>
      </trkpt>
      <trkpt lat="42.790331" lon="-0.136393">
        <ele>2322.181</ele>
        <time>2020-07-23T10:29:37Z</time>
      </trkpt>
      <trkpt lat="42.790276" lon="-0.136412">
        <ele>2320.999</ele>
        <time>2020-07-23T10:29:44Z</time>
      </trkpt>
      <trkpt lat="42.790221" lon="-0.136407">
        <ele>2320.063</ele>
        <time>2020-07-23T10:29:48Z</time>
      </trkpt>
      <trkpt lat="42.790177" lon="-0.136442">
        <ele>2318.276</ele>
        <time>2020-07-23T10:29:53Z</time>
      </trkpt>
      <trkpt lat="42.790124" lon="-0.136462">
        <ele>2317.046</ele>
        <time>2020-07-23T10:29:59Z</time>
      </trkpt>
      <trkpt lat="42.790067" lon="-0.136432">
        <ele>2316.638</ele>
        <time>2020-07-23T10:30:05Z</time>
      </trkpt>
      <trkpt lat="42.790021" lon="-0.136443">
        <ele>2315.718</ele>
        <time>2020-07-23T10:30:09Z</time>
      </trkpt>
      <trkpt lat="42.790061" lon="-0.136497">
        <ele>2312.777</ele>
        <time>2020-07-23T10:30:16Z</time>
      </trkpt>
      <trkpt lat="42.790096" lon="-0.136541">
        <ele>2312.629</ele>
        <time>2020-07-23T10:30:19Z</time>
      </trkpt>
      <trkpt lat="42.790143" lon="-0.136567">
        <ele>2311.200</ele>
        <time>2020-07-23T10:30:23Z</time>
      </trkpt>
      <trkpt lat="42.790193" lon="-0.136596">
        <ele>2312.020</ele>
        <time>2020-07-23T10:30:28Z</time>
      </trkpt>
      <trkpt lat="42.790234" lon="-0.136635">
        <ele>2311.708</ele>
        <time>2020-07-23T10:30:32Z</time>
      </trkpt>
      <trkpt lat="42.790227" lon="-0.136702">
        <ele>2308.357</ele>
        <time>2020-07-23T10:30:38Z</time>
      </trkpt>
      <trkpt lat="42.790177" lon="-0.136722">
        <ele>2308.985</ele>
        <time>2020-07-23T10:30:42Z</time>
      </trkpt>
      <trkpt lat="42.790117" lon="-0.136729">
        <ele>2306.289</ele>
        <time>2020-07-23T10:30:46Z</time>
      </trkpt>
      <trkpt lat="42.790063" lon="-0.136728">
        <ele>2307.732</ele>
        <time>2020-07-23T10:30:49Z</time>
      </trkpt>
      <trkpt lat="42.790020" lon="-0.136753">
        <ele>2306.542</ele>
        <time>2020-07-23T10:30:53Z</time>
      </trkpt>
      <trkpt lat="42.789979" lon="-0.136780">
        <ele>2305.724</ele>
        <time>2020-07-23T10:30:56Z</time>
      </trkpt>
      <trkpt lat="42.789926" lon="-0.136813">
        <ele>2305.914</ele>
        <time>2020-07-23T10:31:00Z</time>
      </trkpt>
      <trkpt lat="42.789878" lon="-0.136844">
        <ele>2305.273</ele>
        <time>2020-07-23T10:31:05Z</time>
      </trkpt>
      <trkpt lat="42.789833" lon="-0.136887">
        <ele>2304.945</ele>
        <time>2020-07-23T10:31:10Z</time>
      </trkpt>
      <trkpt lat="42.789787" lon="-0.136888">
        <ele>2303.847</ele>
        <time>2020-07-23T10:31:15Z</time>
      </trkpt>
      <trkpt lat="42.789740" lon="-0.136883">
        <ele>2303.511</ele>
        <time>2020-07-23T10:31:19Z</time>
      </trkpt>
      <trkpt lat="42.789684" lon="-0.136872">
        <ele>2302.808</ele>
        <time>2020-07-23T10:31:24Z</time>
      </trkpt>
      <trkpt lat="42.789636" lon="-0.136851">
        <ele>2301.949</ele>
        <time>2020-07-23T10:31:28Z</time>
      </trkpt>
      <trkpt lat="42.789589" lon="-0.136836">
        <ele>2301.187</ele>
        <time>2020-07-23T10:31:33Z</time>
      </trkpt>
      <trkpt lat="42.789539" lon="-0.136851">
        <ele>2300.631</ele>
        <time>2020-07-23T10:31:38Z</time>
      </trkpt>
      <trkpt lat="42.789519" lon="-0.136922">
        <ele>2300.034</ele>
        <time>2020-07-23T10:31:43Z</time>
      </trkpt>
      <trkpt lat="42.789506" lon="-0.136993">
        <ele>2299.454</ele>
        <time>2020-07-23T10:31:48Z</time>
      </trkpt>
      <trkpt lat="42.789463" lon="-0.137045">
        <ele>2299.496</ele>
        <time>2020-07-23T10:31:52Z</time>
      </trkpt>
      <trkpt lat="42.789410" lon="-0.137079">
        <ele>2299.816</ele>
        <time>2020-07-23T10:31:56Z</time>
      </trkpt>
      <trkpt lat="42.789355" lon="-0.137098">
        <ele>2299.565</ele>
        <time>2020-07-23T10:32:01Z</time>
      </trkpt>
      <trkpt lat="42.789311" lon="-0.137120">
        <ele>2296.798</ele>
        <time>2020-07-23T10:32:04Z</time>
      </trkpt>
      <trkpt lat="42.789256" lon="-0.137125">
        <ele>2296.715</ele>
        <time>2020-07-23T10:32:08Z</time>
      </trkpt>
      <trkpt lat="42.789188" lon="-0.137135">
        <ele>2294.226</ele>
        <time>2020-07-23T10:32:12Z</time>
      </trkpt>
      <trkpt lat="42.789141" lon="-0.137139">
        <ele>2294.408</ele>
        <time>2020-07-23T10:32:14Z</time>
      </trkpt>
      <trkpt lat="42.789079" lon="-0.137139">
        <ele>2294.044</ele>
        <time>2020-07-23T10:32:17Z</time>
      </trkpt>
      <trkpt lat="42.789017" lon="-0.137149">
        <ele>2291.772</ele>
        <time>2020-07-23T10:32:22Z</time>
      </trkpt>
      <trkpt lat="42.788964" lon="-0.137154">
        <ele>2290.896</ele>
        <time>2020-07-23T10:32:27Z</time>
      </trkpt>
      <trkpt lat="42.788910" lon="-0.137159">
        <ele>2290.199</ele>
        <time>2020-07-23T10:32:30Z</time>
      </trkpt>
      <trkpt lat="42.788855" lon="-0.137169">
        <ele>2288.369</ele>
        <time>2020-07-23T10:32:35Z</time>
      </trkpt>
      <trkpt lat="42.788798" lon="-0.137183">
        <ele>2288.241</ele>
        <time>2020-07-23T10:32:39Z</time>
      </trkpt>
      <trkpt lat="42.788741" lon="-0.137207">
        <ele>2288.721</ele>
        <time>2020-07-23T10:32:44Z</time>
      </trkpt>
      <trkpt lat="42.788679" lon="-0.137225">
        <ele>2286.980</ele>
        <time>2020-07-23T10:32:48Z</time>
      </trkpt>
      <trkpt lat="42.788624" lon="-0.137251">
        <ele>2285.847</ele>
        <time>2020-07-23T10:32:52Z</time>
      </trkpt>
      <trkpt lat="42.788578" lon="-0.137257">
        <ele>2285.229</ele>
        <time>2020-07-23T10:32:57Z</time>
      </trkpt>
      <trkpt lat="42.788532" lon="-0.137258">
        <ele>2284.121</ele>
        <time>2020-07-23T10:33:01Z</time>
      </trkpt>
      <trkpt lat="42.788487" lon="-0.137268">
        <ele>2283.808</ele>
        <time>2020-07-23T10:33:06Z</time>
      </trkpt>
      <trkpt lat="42.788442" lon="-0.137305">
        <ele>2282.629</ele>
        <time>2020-07-23T10:33:10Z</time>
      </trkpt>
      <trkpt lat="42.788396" lon="-0.137323">
        <ele>2281.567</ele>
        <time>2020-07-23T10:33:13Z</time>
      </trkpt>
      <trkpt lat="42.788348" lon="-0.137349">
        <ele>2282.331</ele>
        <time>2020-07-23T10:33:18Z</time>
      </trkpt>
      <trkpt lat="42.788300" lon="-0.137389">
        <ele>2280.094</ele>
        <time>2020-07-23T10:33:24Z</time>
      </trkpt>
      <trkpt lat="42.788252" lon="-0.137419">
        <ele>2279.654</ele>
        <time>2020-07-23T10:33:29Z</time>
      </trkpt>
      <trkpt lat="42.788197" lon="-0.137444">
        <ele>2277.086</ele>
        <time>2020-07-23T10:33:34Z</time>
      </trkpt>
      <trkpt lat="42.788153" lon="-0.137495">
        <ele>2273.866</ele>
        <time>2020-07-23T10:33:37Z</time>
      </trkpt>
      <trkpt lat="42.788114" lon="-0.137526">
        <ele>2275.535</ele>
        <time>2020-07-23T10:33:40Z</time>
      </trkpt>
      <trkpt lat="42.788072" lon="-0.137586">
        <ele>2273.186</ele>
        <time>2020-07-23T10:33:43Z</time>
      </trkpt>
      <trkpt lat="42.788023" lon="-0.137643">
        <ele>2274.260</ele>
        <time>2020-07-23T10:33:46Z</time>
      </trkpt>
      <trkpt lat="42.788001" lon="-0.137710">
        <ele>2272.626</ele>
        <time>2020-07-23T10:33:49Z</time>
      </trkpt>
      <trkpt lat="42.787963" lon="-0.137755">
        <ele>2272.708</ele>
        <time>2020-07-23T10:33:53Z</time>
      </trkpt>
      <trkpt lat="42.787920" lon="-0.137797">
        <ele>2271.223</ele>
        <time>2020-07-23T10:33:57Z</time>
      </trkpt>
      <trkpt lat="42.787962" lon="-0.137842">
        <ele>2269.461</ele>
        <time>2020-07-23T10:34:04Z</time>
      </trkpt>
      <trkpt lat="42.788012" lon="-0.137867">
        <ele>2267.945</ele>
        <time>2020-07-23T10:34:06Z</time>
      </trkpt>
      <trkpt lat="42.788059" lon="-0.137898">
        <ele>2268.528</ele>
        <time>2020-07-23T10:34:09Z</time>
      </trkpt>
      <trkpt lat="42.788126" lon="-0.137907">
        <ele>2266.918</ele>
        <time>2020-07-23T10:34:13Z</time>
      </trkpt>
      <trkpt lat="42.788186" lon="-0.137924">
        <ele>2266.250</ele>
        <time>2020-07-23T10:34:18Z</time>
      </trkpt>
      <trkpt lat="42.788242" lon="-0.137941">
        <ele>2264.980</ele>
        <time>2020-07-23T10:34:21Z</time>
      </trkpt>
      <trkpt lat="42.788283" lon="-0.137975">
        <ele>2265.339</ele>
        <time>2020-07-23T10:34:24Z</time>
      </trkpt>
      <trkpt lat="42.788333" lon="-0.138018">
        <ele>2264.944</ele>
        <time>2020-07-23T10:34:29Z</time>
      </trkpt>
      <trkpt lat="42.788379" lon="-0.138029">
        <ele>2264.805</ele>
        <time>2020-07-23T10:34:32Z</time>
      </trkpt>
      <trkpt lat="42.788422" lon="-0.138063">
        <ele>2265.015</ele>
        <time>2020-07-23T10:34:35Z</time>
      </trkpt>
      <trkpt lat="42.788481" lon="-0.138088">
        <ele>2264.108</ele>
        <time>2020-07-23T10:34:40Z</time>
      </trkpt>
      <trkpt lat="42.788537" lon="-0.138121">
        <ele>2263.619</ele>
        <time>2020-07-23T10:34:44Z</time>
      </trkpt>
      <trkpt lat="42.788596" lon="-0.138100">
        <ele>2265.577</ele>
        <time>2020-07-23T10:34:48Z</time>
      </trkpt>
      <trkpt lat="42.788653" lon="-0.138072">
        <ele>2263.891</ele>
        <time>2020-07-23T10:34:52Z</time>
      </trkpt>
      <trkpt lat="42.788725" lon="-0.138057">
        <ele>2262.924</ele>
        <time>2020-07-23T10:34:56Z</time>
      </trkpt>
      <trkpt lat="42.788777" lon="-0.138037">
        <ele>2261.724</ele>
        <time>2020-07-23T10:35:00Z</time>
      </trkpt>
      <trkpt lat="42.788819" lon="-0.138013">
        <ele>2260.596</ele>
        <time>2020-07-23T10:35:04Z</time>
      </trkpt>
      <trkpt lat="42.788873" lon="-0.138011">
        <ele>2260.576</ele>
        <time>2020-07-23T10:35:09Z</time>
      </trkpt>
      <trkpt lat="42.788931" lon="-0.138002">
        <ele>2260.025</ele>
        <time>2020-07-23T10:35:15Z</time>
      </trkpt>
      <trkpt lat="42.788983" lon="-0.138007">
        <ele>2258.741</ele>
        <time>2020-07-23T10:35:18Z</time>
      </trkpt>
      <trkpt lat="42.789032" lon="-0.138009">
        <ele>2257.981</ele>
        <time>2020-07-23T10:35:22Z</time>
      </trkpt>
      <trkpt lat="42.789081" lon="-0.138004">
        <ele>2256.209</ele>
        <time>2020-07-23T10:35:26Z</time>
      </trkpt>
      <trkpt lat="42.789132" lon="-0.137991">
        <ele>2255.408</ele>
        <time>2020-07-23T10:35:31Z</time>
      </trkpt>
      <trkpt lat="42.789175" lon="-0.138019">
        <ele>2254.629</ele>
        <time>2020-07-23T10:35:35Z</time>
      </trkpt>
      <trkpt lat="42.789214" lon="-0.138016">
        <ele>2252.727</ele>
        <time>2020-07-23T10:35:39Z</time>
      </trkpt>
      <trkpt lat="42.789267" lon="-0.138046">
        <ele>2253.071</ele>
        <time>2020-07-23T10:35:44Z</time>
      </trkpt>
      <trkpt lat="42.789309" lon="-0.138066">
        <ele>2251.284</ele>
        <time>2020-07-23T10:35:49Z</time>
      </trkpt>
      <trkpt lat="42.789364" lon="-0.138071">
        <ele>2248.524</ele>
        <time>2020-07-23T10:35:55Z</time>
      </trkpt>
      <trkpt lat="42.789419" lon="-0.138105">
        <ele>2249.596</ele>
        <time>2020-07-23T10:36:00Z</time>
      </trkpt>
      <trkpt lat="42.789469" lon="-0.138123">
        <ele>2247.276</ele>
        <time>2020-07-23T10:36:06Z</time>
      </trkpt>
      <trkpt lat="42.789521" lon="-0.138124">
        <ele>2246.655</ele>
        <time>2020-07-23T10:36:11Z</time>
      </trkpt>
      <trkpt lat="42.789568" lon="-0.138136">
        <ele>2246.182</ele>
        <time>2020-07-23T10:36:16Z</time>
      </trkpt>
      <trkpt lat="42.789615" lon="-0.138146">
        <ele>2245.543</ele>
        <time>2020-07-23T10:36:21Z</time>
      </trkpt>
      <trkpt lat="42.789650" lon="-0.138184">
        <ele>2244.817</ele>
        <time>2020-07-23T10:36:25Z</time>
      </trkpt>
      <trkpt lat="42.789681" lon="-0.138250">
        <ele>2243.308</ele>
        <time>2020-07-23T10:36:30Z</time>
      </trkpt>
      <trkpt lat="42.789705" lon="-0.138312">
        <ele>2243.493</ele>
        <time>2020-07-23T10:36:34Z</time>
      </trkpt>
      <trkpt lat="42.789739" lon="-0.138360">
        <ele>2241.121</ele>
        <time>2020-07-23T10:36:40Z</time>
      </trkpt>
      <trkpt lat="42.789772" lon="-0.138422">
        <ele>2240.925</ele>
        <time>2020-07-23T10:36:45Z</time>
      </trkpt>
      <trkpt lat="42.789752" lon="-0.138484">
        <ele>2238.588</ele>
        <time>2020-07-23T10:36:55Z</time>
      </trkpt>
      <trkpt lat="42.789692" lon="-0.138489">
        <ele>2237.148</ele>
        <time>2020-07-23T10:36:59Z</time>
      </trkpt>
      <trkpt lat="42.789646" lon="-0.138487">
        <ele>2237.380</ele>
        <time>2020-07-23T10:37:03Z</time>
      </trkpt>
      <trkpt lat="42.789606" lon="-0.138447">
        <ele>2235.950</ele>
        <time>2020-07-23T10:37:07Z</time>
      </trkpt>
      <trkpt lat="42.789544" lon="-0.138449">
        <ele>2236.749</ele>
        <time>2020-07-23T10:37:12Z</time>
      </trkpt>
      <trkpt lat="42.789552" lon="-0.138516">
        <ele>2234.063</ele>
        <time>2020-07-23T10:37:18Z</time>
      </trkpt>
      <trkpt lat="42.789595" lon="-0.138558">
        <ele>2235.044</ele>
        <time>2020-07-23T10:37:22Z</time>
      </trkpt>
      <trkpt lat="42.789635" lon="-0.138593">
        <ele>2233.718</ele>
        <time>2020-07-23T10:37:25Z</time>
      </trkpt>
      <trkpt lat="42.789696" lon="-0.138617">
        <ele>2232.808</ele>
        <time>2020-07-23T10:37:30Z</time>
      </trkpt>
      <trkpt lat="42.789755" lon="-0.138653">
        <ele>2230.591</ele>
        <time>2020-07-23T10:37:35Z</time>
      </trkpt>
      <trkpt lat="42.789796" lon="-0.138688">
        <ele>2230.559</ele>
        <time>2020-07-23T10:37:40Z</time>
      </trkpt>
      <trkpt lat="42.789844" lon="-0.138713">
        <ele>2228.183</ele>
        <time>2020-07-23T10:37:45Z</time>
      </trkpt>
      <trkpt lat="42.789892" lon="-0.138727">
        <ele>2227.476</ele>
        <time>2020-07-23T10:37:49Z</time>
      </trkpt>
      <trkpt lat="42.789938" lon="-0.138732">
        <ele>2225.476</ele>
        <time>2020-07-23T10:37:54Z</time>
      </trkpt>
      <trkpt lat="42.789984" lon="-0.138748">
        <ele>2224.688</ele>
        <time>2020-07-23T10:37:58Z</time>
      </trkpt>
      <trkpt lat="42.790042" lon="-0.138776">
        <ele>2222.968</ele>
        <time>2020-07-23T10:38:04Z</time>
      </trkpt>
      <trkpt lat="42.790009" lon="-0.138832">
        <ele>2222.177</ele>
        <time>2020-07-23T10:38:14Z</time>
      </trkpt>
      <trkpt lat="42.790058" lon="-0.138865">
        <ele>2218.186</ele>
        <time>2020-07-23T10:38:26Z</time>
      </trkpt>
      <trkpt lat="42.790107" lon="-0.138854">
        <ele>2218.160</ele>
        <time>2020-07-23T10:38:30Z</time>
      </trkpt>
      <trkpt lat="42.790149" lon="-0.138885">
        <ele>2216.926</ele>
        <time>2020-07-23T10:38:34Z</time>
      </trkpt>
      <trkpt lat="42.790190" lon="-0.138923">
        <ele>2214.808</ele>
        <time>2020-07-23T10:38:38Z</time>
      </trkpt>
      <trkpt lat="42.790237" lon="-0.138966">
        <ele>2213.713</ele>
        <time>2020-07-23T10:38:42Z</time>
      </trkpt>
      <trkpt lat="42.790280" lon="-0.138994">
        <ele>2215.931</ele>
        <time>2020-07-23T10:38:46Z</time>
      </trkpt>
      <trkpt lat="42.790327" lon="-0.138999">
        <ele>2215.045</ele>
        <time>2020-07-23T10:38:50Z</time>
      </trkpt>
      <trkpt lat="42.790377" lon="-0.138997">
        <ele>2214.998</ele>
        <time>2020-07-23T10:38:54Z</time>
      </trkpt>
      <trkpt lat="42.790442" lon="-0.138993">
        <ele>2215.558</ele>
        <time>2020-07-23T10:38:59Z</time>
      </trkpt>
      <trkpt lat="42.790500" lon="-0.138995">
        <ele>2215.070</ele>
        <time>2020-07-23T10:39:03Z</time>
      </trkpt>
      <trkpt lat="42.790560" lon="-0.138965">
        <ele>2214.330</ele>
        <time>2020-07-23T10:39:07Z</time>
      </trkpt>
      <trkpt lat="42.790614" lon="-0.138939">
        <ele>2213.219</ele>
        <time>2020-07-23T10:39:10Z</time>
      </trkpt>
      <trkpt lat="42.790664" lon="-0.138908">
        <ele>2211.795</ele>
        <time>2020-07-23T10:39:15Z</time>
      </trkpt>
      <trkpt lat="42.790710" lon="-0.138859">
        <ele>2212.149</ele>
        <time>2020-07-23T10:39:19Z</time>
      </trkpt>
      <trkpt lat="42.790755" lon="-0.138841">
        <ele>2211.923</ele>
        <time>2020-07-23T10:39:22Z</time>
      </trkpt>
      <trkpt lat="42.790800" lon="-0.138853">
        <ele>2210.708</ele>
        <time>2020-07-23T10:39:27Z</time>
      </trkpt>
      <trkpt lat="42.790843" lon="-0.138902">
        <ele>2210.314</ele>
        <time>2020-07-23T10:39:32Z</time>
      </trkpt>
      <trkpt lat="42.790870" lon="-0.138961">
        <ele>2209.612</ele>
        <time>2020-07-23T10:39:38Z</time>
      </trkpt>
      <trkpt lat="42.790906" lon="-0.138999">
        <ele>2208.776</ele>
        <time>2020-07-23T10:39:42Z</time>
      </trkpt>
      <trkpt lat="42.790952" lon="-0.139029">
        <ele>2207.579</ele>
        <time>2020-07-23T10:39:47Z</time>
      </trkpt>
      <trkpt lat="42.791002" lon="-0.139063">
        <ele>2206.839</ele>
        <time>2020-07-23T10:39:52Z</time>
      </trkpt>
      <trkpt lat="42.791040" lon="-0.139098">
        <ele>2205.541</ele>
        <time>2020-07-23T10:39:56Z</time>
      </trkpt>
      <trkpt lat="42.791081" lon="-0.139139">
        <ele>2204.341</ele>
        <time>2020-07-23T10:40:00Z</time>
      </trkpt>
      <trkpt lat="42.791122" lon="-0.139171">
        <ele>2204.130</ele>
        <time>2020-07-23T10:40:04Z</time>
      </trkpt>
      <trkpt lat="42.791165" lon="-0.139221">
        <ele>2203.766</ele>
        <time>2020-07-23T10:40:08Z</time>
      </trkpt>
      <trkpt lat="42.791197" lon="-0.139269">
        <ele>2202.829</ele>
        <time>2020-07-23T10:40:13Z</time>
      </trkpt>
      <trkpt lat="42.791242" lon="-0.139297">
        <ele>2201.521</ele>
        <time>2020-07-23T10:40:18Z</time>
      </trkpt>
      <trkpt lat="42.791280" lon="-0.139347">
        <ele>2198.208</ele>
        <time>2020-07-23T10:40:23Z</time>
      </trkpt>
      <trkpt lat="42.791324" lon="-0.139377">
        <ele>2197.411</ele>
        <time>2020-07-23T10:40:28Z</time>
      </trkpt>
      <trkpt lat="42.791377" lon="-0.139415">
        <ele>2197.199</ele>
        <time>2020-07-23T10:40:33Z</time>
      </trkpt>
      <trkpt lat="42.791423" lon="-0.139435">
        <ele>2196.953</ele>
        <time>2020-07-23T10:40:37Z</time>
      </trkpt>
      <trkpt lat="42.791472" lon="-0.139461">
        <ele>2195.076</ele>
        <time>2020-07-23T10:40:42Z</time>
      </trkpt>
      <trkpt lat="42.791574" lon="-0.139498">
        <ele>2193.166</ele>
        <time>2020-07-23T10:40:51Z</time>
      </trkpt>
      <trkpt lat="42.791622" lon="-0.139534">
        <ele>2190.258</ele>
        <time>2020-07-23T10:40:56Z</time>
      </trkpt>
      <trkpt lat="42.791665" lon="-0.139580">
        <ele>2188.638</ele>
        <time>2020-07-23T10:41:01Z</time>
      </trkpt>
      <trkpt lat="42.791697" lon="-0.139627">
        <ele>2188.087</ele>
        <time>2020-07-23T10:41:04Z</time>
      </trkpt>
      <trkpt lat="42.791736" lon="-0.139673">
        <ele>2186.964</ele>
        <time>2020-07-23T10:41:08Z</time>
      </trkpt>
      <trkpt lat="42.791768" lon="-0.139730">
        <ele>2186.906</ele>
        <time>2020-07-23T10:41:13Z</time>
      </trkpt>
      <trkpt lat="42.791799" lon="-0.139791">
        <ele>2184.316</ele>
        <time>2020-07-23T10:41:19Z</time>
      </trkpt>
      <trkpt lat="42.791846" lon="-0.139825">
        <ele>2183.308</ele>
        <time>2020-07-23T10:41:24Z</time>
      </trkpt>
      <trkpt lat="42.791891" lon="-0.139861">
        <ele>2182.481</ele>
        <time>2020-07-23T10:41:29Z</time>
      </trkpt>
      <trkpt lat="42.791934" lon="-0.139889">
        <ele>2181.079</ele>
        <time>2020-07-23T10:41:35Z</time>
      </trkpt>
      <trkpt lat="42.791979" lon="-0.139908">
        <ele>2179.833</ele>
        <time>2020-07-23T10:41:40Z</time>
      </trkpt>
      <trkpt lat="42.792029" lon="-0.139944">
        <ele>2180.496</ele>
        <time>2020-07-23T10:41:45Z</time>
      </trkpt>
      <trkpt lat="42.792061" lon="-0.139990">
        <ele>2180.166</ele>
        <time>2020-07-23T10:41:49Z</time>
      </trkpt>
      <trkpt lat="42.792094" lon="-0.140034">
        <ele>2178.258</ele>
        <time>2020-07-23T10:41:52Z</time>
      </trkpt>
      <trkpt lat="42.792139" lon="-0.140084">
        <ele>2178.348</ele>
        <time>2020-07-23T10:41:57Z</time>
      </trkpt>
      <trkpt lat="42.792175" lon="-0.140132">
        <ele>2178.337</ele>
        <time>2020-07-23T10:42:02Z</time>
      </trkpt>
      <trkpt lat="42.792201" lon="-0.140191">
        <ele>2178.464</ele>
        <time>2020-07-23T10:42:06Z</time>
      </trkpt>
      <trkpt lat="42.792243" lon="-0.140219">
        <ele>2178.506</ele>
        <time>2020-07-23T10:42:10Z</time>
      </trkpt>
      <trkpt lat="42.792284" lon="-0.140243">
        <ele>2178.016</ele>
        <time>2020-07-23T10:42:13Z</time>
      </trkpt>
      <trkpt lat="42.792324" lon="-0.140270">
        <ele>2178.008</ele>
        <time>2020-07-23T10:42:17Z</time>
      </trkpt>
      <trkpt lat="42.792370" lon="-0.140317">
        <ele>2177.761</ele>
        <time>2020-07-23T10:42:21Z</time>
      </trkpt>
      <trkpt lat="42.792410" lon="-0.140373">
        <ele>2175.259</ele>
        <time>2020-07-23T10:42:26Z</time>
      </trkpt>
      <trkpt lat="42.792444" lon="-0.140417">
        <ele>2174.873</ele>
        <time>2020-07-23T10:42:30Z</time>
      </trkpt>
      <trkpt lat="42.792489" lon="-0.140440">
        <ele>2172.826</ele>
        <time>2020-07-23T10:42:34Z</time>
      </trkpt>
      <trkpt lat="42.792541" lon="-0.140472">
        <ele>2172.686</ele>
        <time>2020-07-23T10:42:39Z</time>
      </trkpt>
      <trkpt lat="42.792578" lon="-0.140521">
        <ele>2170.768</ele>
        <time>2020-07-23T10:42:44Z</time>
      </trkpt>
      <trkpt lat="42.792585" lon="-0.140587">
        <ele>2171.448</ele>
        <time>2020-07-23T10:42:47Z</time>
      </trkpt>
      <trkpt lat="42.792594" lon="-0.140643">
        <ele>2171.967</ele>
        <time>2020-07-23T10:42:51Z</time>
      </trkpt>
      <trkpt lat="42.792585" lon="-0.140768">
        <ele>2171.168</ele>
        <time>2020-07-23T10:42:53Z</time>
      </trkpt>
      <trkpt lat="42.792622" lon="-0.140833">
        <ele>2169.142</ele>
        <time>2020-07-23T10:42:57Z</time>
      </trkpt>
      <trkpt lat="42.792666" lon="-0.140882">
        <ele>2166.926</ele>
        <time>2020-07-23T10:43:01Z</time>
      </trkpt>
      <trkpt lat="42.792704" lon="-0.140936">
        <ele>2163.008</ele>
        <time>2020-07-23T10:43:05Z</time>
      </trkpt>
      <trkpt lat="42.792723" lon="-0.140978">
        <ele>2160.961</ele>
        <time>2020-07-23T10:43:08Z</time>
      </trkpt>
      <trkpt lat="42.792711" lon="-0.141035">
        <ele>2157.199</ele>
        <time>2020-07-23T10:43:10Z</time>
      </trkpt>
      <trkpt lat="42.792703" lon="-0.141109">
        <ele>2154.973</ele>
        <time>2020-07-23T10:43:13Z</time>
      </trkpt>
      <trkpt lat="42.792696" lon="-0.141208">
        <ele>2151.396</ele>
        <time>2020-07-23T10:43:17Z</time>
      </trkpt>
      <trkpt lat="42.792765" lon="-0.141210">
        <ele>2148.376</ele>
        <time>2020-07-23T10:43:21Z</time>
      </trkpt>
      <trkpt lat="42.792783" lon="-0.141267">
        <ele>2145.868</ele>
        <time>2020-07-23T10:43:25Z</time>
      </trkpt>
      <trkpt lat="42.792792" lon="-0.141330">
        <ele>2142.438</ele>
        <time>2020-07-23T10:43:31Z</time>
      </trkpt>
      <trkpt lat="42.792778" lon="-0.141318">
        <ele>2157.912</ele>
        <time>2020-07-24T05:23:10Z</time>
      </trkpt>
      <trkpt lat="42.792755" lon="-0.141422">
        <ele>2157.532</ele>
        <time>2020-07-24T05:23:16Z</time>
      </trkpt>
      <trkpt lat="42.792747" lon="-0.141496">
        <ele>2155.605</ele>
        <time>2020-07-24T05:23:22Z</time>
      </trkpt>
      <trkpt lat="42.792732" lon="-0.141576">
        <ele>2153.108</ele>
        <time>2020-07-24T05:23:29Z</time>
      </trkpt>
      <trkpt lat="42.792733" lon="-0.141649">
        <ele>2152.626</ele>
        <time>2020-07-24T05:23:37Z</time>
      </trkpt>
      <trkpt lat="42.792778" lon="-0.141663">
        <ele>2152.364</ele>
        <time>2020-07-24T05:23:42Z</time>
      </trkpt>
      <trkpt lat="42.792828" lon="-0.141662">
        <ele>2152.048</ele>
        <time>2020-07-24T05:23:47Z</time>
      </trkpt>
      <trkpt lat="42.792881" lon="-0.141662">
        <ele>2152.181</ele>
        <time>2020-07-24T05:23:52Z</time>
      </trkpt>
      <trkpt lat="42.792926" lon="-0.141672">
        <ele>2153.695</ele>
        <time>2020-07-24T05:23:56Z</time>
      </trkpt>
      <trkpt lat="42.792973" lon="-0.141705">
        <ele>2152.298</ele>
        <time>2020-07-24T05:24:02Z</time>
      </trkpt>
      <trkpt lat="42.793014" lon="-0.141762">
        <ele>2152.348</ele>
        <time>2020-07-24T05:24:07Z</time>
      </trkpt>
      <trkpt lat="42.793057" lon="-0.141805">
        <ele>2152.627</ele>
        <time>2020-07-24T05:24:12Z</time>
      </trkpt>
      <trkpt lat="42.793103" lon="-0.141823">
        <ele>2152.193</ele>
        <time>2020-07-24T05:24:16Z</time>
      </trkpt>
      <trkpt lat="42.793148" lon="-0.141856">
        <ele>2151.665</ele>
        <time>2020-07-24T05:24:21Z</time>
      </trkpt>
      <trkpt lat="42.793200" lon="-0.141896">
        <ele>2151.421</ele>
        <time>2020-07-24T05:24:25Z</time>
      </trkpt>
      <trkpt lat="42.793242" lon="-0.141939">
        <ele>2152.408</ele>
        <time>2020-07-24T05:24:30Z</time>
      </trkpt>
      <trkpt lat="42.793286" lon="-0.141984">
        <ele>2151.744</ele>
        <time>2020-07-24T05:24:34Z</time>
      </trkpt>
      <trkpt lat="42.793336" lon="-0.141993">
        <ele>2152.782</ele>
        <time>2020-07-24T05:24:39Z</time>
      </trkpt>
      <trkpt lat="42.793378" lon="-0.141963">
        <ele>2152.456</ele>
        <time>2020-07-24T05:24:43Z</time>
      </trkpt>
      <trkpt lat="42.793426" lon="-0.141970">
        <ele>2151.949</ele>
        <time>2020-07-24T05:24:48Z</time>
      </trkpt>
      <trkpt lat="42.793463" lon="-0.142018">
        <ele>2152.393</ele>
        <time>2020-07-24T05:24:53Z</time>
      </trkpt>
      <trkpt lat="42.793456" lon="-0.142089">
        <ele>2151.136</ele>
        <time>2020-07-24T05:24:58Z</time>
      </trkpt>
      <trkpt lat="42.793436" lon="-0.142156">
        <ele>2151.336</ele>
        <time>2020-07-24T05:25:01Z</time>
      </trkpt>
      <trkpt lat="42.793412" lon="-0.142212">
        <ele>2152.165</ele>
        <time>2020-07-24T05:25:05Z</time>
      </trkpt>
      <trkpt lat="42.793373" lon="-0.142256">
        <ele>2151.654</ele>
        <time>2020-07-24T05:25:09Z</time>
      </trkpt>
      <trkpt lat="42.793326" lon="-0.142294">
        <ele>2151.256</ele>
        <time>2020-07-24T05:25:13Z</time>
      </trkpt>
      <trkpt lat="42.793283" lon="-0.142320">
        <ele>2152.511</ele>
        <time>2020-07-24T05:25:17Z</time>
      </trkpt>
      <trkpt lat="42.793230" lon="-0.142343">
        <ele>2152.508</ele>
        <time>2020-07-24T05:25:22Z</time>
      </trkpt>
      <trkpt lat="42.793171" lon="-0.142374">
        <ele>2151.650</ele>
        <time>2020-07-24T05:25:27Z</time>
      </trkpt>
      <trkpt lat="42.793128" lon="-0.142416">
        <ele>2152.968</ele>
        <time>2020-07-24T05:25:32Z</time>
      </trkpt>
      <trkpt lat="42.793093" lon="-0.142472">
        <ele>2152.652</ele>
        <time>2020-07-24T05:25:37Z</time>
      </trkpt>
      <trkpt lat="42.793073" lon="-0.142533">
        <ele>2152.675</ele>
        <time>2020-07-24T05:25:47Z</time>
      </trkpt>
      <trkpt lat="42.793063" lon="-0.142598">
        <ele>2153.219</ele>
        <time>2020-07-24T05:25:53Z</time>
      </trkpt>
      <trkpt lat="42.793038" lon="-0.142657">
        <ele>2153.292</ele>
        <time>2020-07-24T05:25:57Z</time>
      </trkpt>
      <trkpt lat="42.793017" lon="-0.142714">
        <ele>2153.062</ele>
        <time>2020-07-24T05:26:03Z</time>
      </trkpt>
      <trkpt lat="42.792979" lon="-0.142748">
        <ele>2152.981</ele>
        <time>2020-07-24T05:26:13Z</time>
      </trkpt>
      <trkpt lat="42.792921" lon="-0.142749">
        <ele>2153.559</ele>
        <time>2020-07-24T05:26:23Z</time>
      </trkpt>
      <trkpt lat="42.792856" lon="-0.142731">
        <ele>2154.303</ele>
        <time>2020-07-24T05:26:30Z</time>
      </trkpt>
      <trkpt lat="42.792796" lon="-0.142699">
        <ele>2153.423</ele>
        <time>2020-07-24T05:26:34Z</time>
      </trkpt>
      <trkpt lat="42.792753" lon="-0.142667">
        <ele>2153.708</ele>
        <time>2020-07-24T05:26:38Z</time>
      </trkpt>
      <trkpt lat="42.792706" lon="-0.142664">
        <ele>2153.920</ele>
        <time>2020-07-24T05:27:06Z</time>
      </trkpt>
      <trkpt lat="42.792670" lon="-0.142704">
        <ele>2154.588</ele>
        <time>2020-07-24T05:27:09Z</time>
      </trkpt>
      <trkpt lat="42.792625" lon="-0.142733">
        <ele>2153.992</ele>
        <time>2020-07-24T05:27:13Z</time>
      </trkpt>
      <trkpt lat="42.792578" lon="-0.142762">
        <ele>2155.125</ele>
        <time>2020-07-24T05:27:16Z</time>
      </trkpt>
      <trkpt lat="42.792514" lon="-0.142790">
        <ele>2154.749</ele>
        <time>2020-07-24T05:27:22Z</time>
      </trkpt>
      <trkpt lat="42.792471" lon="-0.142834">
        <ele>2155.232</ele>
        <time>2020-07-24T05:27:27Z</time>
      </trkpt>
      <trkpt lat="42.792428" lon="-0.142853">
        <ele>2156.282</ele>
        <time>2020-07-24T05:27:31Z</time>
      </trkpt>
      <trkpt lat="42.792401" lon="-0.142870">
        <ele>2156.021</ele>
        <time>2020-07-24T05:29:03Z</time>
      </trkpt>
      <trkpt lat="42.792371" lon="-0.142887">
        <ele>2154.816</ele>
        <time>2020-07-24T05:29:12Z</time>
      </trkpt>
      <trkpt lat="42.792326" lon="-0.142910">
        <ele>2154.276</ele>
        <time>2020-07-24T05:29:19Z</time>
      </trkpt>
      <trkpt lat="42.792292" lon="-0.142952">
        <ele>2154.913</ele>
        <time>2020-07-24T05:29:23Z</time>
      </trkpt>
      <trkpt lat="42.792254" lon="-0.143010">
        <ele>2154.408</ele>
        <time>2020-07-24T05:29:28Z</time>
      </trkpt>
      <trkpt lat="42.792204" lon="-0.143049">
        <ele>2154.456</ele>
        <time>2020-07-24T05:29:34Z</time>
      </trkpt>
      <trkpt lat="42.792151" lon="-0.143092">
        <ele>2155.064</ele>
        <time>2020-07-24T05:29:41Z</time>
      </trkpt>
      <trkpt lat="42.792108" lon="-0.143137">
        <ele>2155.288</ele>
        <time>2020-07-24T05:29:47Z</time>
      </trkpt>
      <trkpt lat="42.792082" lon="-0.143190">
        <ele>2155.761</ele>
        <time>2020-07-24T05:29:52Z</time>
      </trkpt>
      <trkpt lat="42.792058" lon="-0.143251">
        <ele>2155.015</ele>
        <time>2020-07-24T05:30:00Z</time>
      </trkpt>
      <trkpt lat="42.792013" lon="-0.143291">
        <ele>2155.148</ele>
        <time>2020-07-24T05:30:09Z</time>
      </trkpt>
      <trkpt lat="42.791968" lon="-0.143292">
        <ele>2154.538</ele>
        <time>2020-07-24T05:30:17Z</time>
      </trkpt>
      <trkpt lat="42.791920" lon="-0.143275">
        <ele>2155.547</ele>
        <time>2020-07-24T05:30:24Z</time>
      </trkpt>
      <trkpt lat="42.791887" lon="-0.143297">
        <ele>2155.523</ele>
        <time>2020-07-24T05:30:29Z</time>
      </trkpt>
      <trkpt lat="42.791861" lon="-0.143353">
        <ele>2155.883</ele>
        <time>2020-07-24T05:30:35Z</time>
      </trkpt>
      <trkpt lat="42.791825" lon="-0.143365">
        <ele>2155.811</ele>
        <time>2020-07-24T05:30:55Z</time>
      </trkpt>
      <trkpt lat="42.791808" lon="-0.143417">
        <ele>2156.208</ele>
        <time>2020-07-24T05:31:02Z</time>
      </trkpt>
      <trkpt lat="42.791795" lon="-0.143482">
        <ele>2155.787</ele>
        <time>2020-07-24T05:31:07Z</time>
      </trkpt>
      <trkpt lat="42.791741" lon="-0.143527">
        <ele>2156.165</ele>
        <time>2020-07-24T05:31:14Z</time>
      </trkpt>
      <trkpt lat="42.791685" lon="-0.143536">
        <ele>2155.859</ele>
        <time>2020-07-24T05:31:19Z</time>
      </trkpt>
      <trkpt lat="42.791639" lon="-0.143505">
        <ele>2156.252</ele>
        <time>2020-07-24T05:31:23Z</time>
      </trkpt>
      <trkpt lat="42.791619" lon="-0.143450">
        <ele>2155.986</ele>
        <time>2020-07-24T05:31:27Z</time>
      </trkpt>
      <trkpt lat="42.791604" lon="-0.143391">
        <ele>2156.299</ele>
        <time>2020-07-24T05:31:30Z</time>
      </trkpt>
      <trkpt lat="42.791587" lon="-0.143340">
        <ele>2155.839</ele>
        <time>2020-07-24T05:31:34Z</time>
      </trkpt>
      <trkpt lat="42.791544" lon="-0.143324">
        <ele>2157.058</ele>
        <time>2020-07-24T05:31:41Z</time>
      </trkpt>
      <trkpt lat="42.791501" lon="-0.143362">
        <ele>2156.829</ele>
        <time>2020-07-24T05:31:45Z</time>
      </trkpt>
      <trkpt lat="42.791471" lon="-0.143409">
        <ele>2156.600</ele>
        <time>2020-07-24T05:31:49Z</time>
      </trkpt>
      <trkpt lat="42.791452" lon="-0.143466">
        <ele>2157.320</ele>
        <time>2020-07-24T05:31:53Z</time>
      </trkpt>
      <trkpt lat="42.791436" lon="-0.143520">
        <ele>2156.308</ele>
        <time>2020-07-24T05:31:58Z</time>
      </trkpt>
      <trkpt lat="42.791393" lon="-0.143559">
        <ele>2157.117</ele>
        <time>2020-07-24T05:32:07Z</time>
      </trkpt>
      <trkpt lat="42.791352" lon="-0.143600">
        <ele>2157.125</ele>
        <time>2020-07-24T05:32:11Z</time>
      </trkpt>
      <trkpt lat="42.791304" lon="-0.143604">
        <ele>2157.569</ele>
        <time>2020-07-24T05:32:16Z</time>
      </trkpt>
      <trkpt lat="42.791243" lon="-0.143599">
        <ele>2157.142</ele>
        <time>2020-07-24T05:32:22Z</time>
      </trkpt>
      <trkpt lat="42.791187" lon="-0.143589">
        <ele>2157.486</ele>
        <time>2020-07-24T05:32:27Z</time>
      </trkpt>
      <trkpt lat="42.791133" lon="-0.143593">
        <ele>2157.179</ele>
        <time>2020-07-24T05:32:32Z</time>
      </trkpt>
      <trkpt lat="42.791081" lon="-0.143618">
        <ele>2158.329</ele>
        <time>2020-07-24T05:32:37Z</time>
      </trkpt>
      <trkpt lat="42.791032" lon="-0.143618">
        <ele>2158.218</ele>
        <time>2020-07-24T05:32:42Z</time>
      </trkpt>
      <trkpt lat="42.790981" lon="-0.143636">
        <ele>2158.085</ele>
        <time>2020-07-24T05:32:47Z</time>
      </trkpt>
      <trkpt lat="42.790928" lon="-0.143660">
        <ele>2159.189</ele>
        <time>2020-07-24T05:32:52Z</time>
      </trkpt>
      <trkpt lat="42.790880" lon="-0.143658">
        <ele>2158.517</ele>
        <time>2020-07-24T05:32:57Z</time>
      </trkpt>
      <trkpt lat="42.790832" lon="-0.143646">
        <ele>2158.708</ele>
        <time>2020-07-24T05:33:02Z</time>
      </trkpt>
      <trkpt lat="42.790790" lon="-0.143615">
        <ele>2159.163</ele>
        <time>2020-07-24T05:33:07Z</time>
      </trkpt>
      <trkpt lat="42.790734" lon="-0.143607">
        <ele>2159.281</ele>
        <time>2020-07-24T05:33:12Z</time>
      </trkpt>
      <trkpt lat="42.790689" lon="-0.143609">
        <ele>2159.645</ele>
        <time>2020-07-24T05:33:15Z</time>
      </trkpt>
      <trkpt lat="42.790641" lon="-0.143615">
        <ele>2160.288</ele>
        <time>2020-07-24T05:33:20Z</time>
      </trkpt>
      <trkpt lat="42.790591" lon="-0.143622">
        <ele>2160.582</ele>
        <time>2020-07-24T05:33:25Z</time>
      </trkpt>
      <trkpt lat="42.790545" lon="-0.143642">
        <ele>2160.315</ele>
        <time>2020-07-24T05:33:29Z</time>
      </trkpt>
      <trkpt lat="42.790502" lon="-0.143668">
        <ele>2160.865</ele>
        <time>2020-07-24T05:33:34Z</time>
      </trkpt>
      <trkpt lat="42.790455" lon="-0.143659">
        <ele>2160.774</ele>
        <time>2020-07-24T05:33:39Z</time>
      </trkpt>
      <trkpt lat="42.790402" lon="-0.143658">
        <ele>2161.098</ele>
        <time>2020-07-24T05:33:45Z</time>
      </trkpt>
      <trkpt lat="42.790363" lon="-0.143702">
        <ele>2161.615</ele>
        <time>2020-07-24T05:33:53Z</time>
      </trkpt>
      <trkpt lat="42.790343" lon="-0.143764">
        <ele>2162.026</ele>
        <time>2020-07-24T05:33:58Z</time>
      </trkpt>
      <trkpt lat="42.790321" lon="-0.143799">
        <ele>2161.408</ele>
        <time>2020-07-24T05:34:05Z</time>
      </trkpt>
      <trkpt lat="42.790318" lon="-0.143853">
        <ele>2161.224</ele>
        <time>2020-07-24T05:34:30Z</time>
      </trkpt>
      <trkpt lat="42.790292" lon="-0.143900">
        <ele>2163.592</ele>
        <time>2020-07-24T05:34:39Z</time>
      </trkpt>
      <trkpt lat="42.790245" lon="-0.143928">
        <ele>2165.086</ele>
        <time>2020-07-24T05:34:45Z</time>
      </trkpt>
      <trkpt lat="42.790207" lon="-0.143944">
        <ele>2165.659</ele>
        <time>2020-07-24T05:34:51Z</time>
      </trkpt>
      <trkpt lat="42.790179" lon="-0.143985">
        <ele>2167.473</ele>
        <time>2020-07-24T05:34:57Z</time>
      </trkpt>
      <trkpt lat="42.790142" lon="-0.144029">
        <ele>2167.386</ele>
        <time>2020-07-24T05:35:05Z</time>
      </trkpt>
      <trkpt lat="42.790105" lon="-0.144073">
        <ele>2169.366</ele>
        <time>2020-07-24T05:35:14Z</time>
      </trkpt>
      <trkpt lat="42.790067" lon="-0.144124">
        <ele>2169.555</ele>
        <time>2020-07-24T05:35:21Z</time>
      </trkpt>
      <trkpt lat="42.790043" lon="-0.144182">
        <ele>2170.647</ele>
        <time>2020-07-24T05:35:28Z</time>
      </trkpt>
      <trkpt lat="42.790017" lon="-0.144234">
        <ele>2172.429</ele>
        <time>2020-07-24T05:35:37Z</time>
      </trkpt>
      <trkpt lat="42.789989" lon="-0.144294">
        <ele>2174.721</ele>
        <time>2020-07-24T05:36:14Z</time>
      </trkpt>
      <trkpt lat="42.790008" lon="-0.144365">
        <ele>2176.708</ele>
        <time>2020-07-24T05:36:20Z</time>
      </trkpt>
      <trkpt lat="42.790021" lon="-0.144424">
        <ele>2177.059</ele>
        <time>2020-07-24T05:36:27Z</time>
      </trkpt>
      <trkpt lat="42.790042" lon="-0.144481">
        <ele>2178.357</ele>
        <time>2020-07-24T05:36:35Z</time>
      </trkpt>
      <trkpt lat="42.790039" lon="-0.144548">
        <ele>2178.771</ele>
        <time>2020-07-24T05:36:40Z</time>
      </trkpt>
      <trkpt lat="42.790064" lon="-0.144591">
        <ele>2180.214</ele>
        <time>2020-07-24T05:36:51Z</time>
      </trkpt>
      <trkpt lat="42.790104" lon="-0.144624">
        <ele>2181.298</ele>
        <time>2020-07-24T05:36:59Z</time>
      </trkpt>
      <trkpt lat="42.790154" lon="-0.144650">
        <ele>2182.391</ele>
        <time>2020-07-24T05:37:10Z</time>
      </trkpt>
      <trkpt lat="42.790199" lon="-0.144681">
        <ele>2183.081</ele>
        <time>2020-07-24T05:37:18Z</time>
      </trkpt>
      <trkpt lat="42.790211" lon="-0.144744">
        <ele>2184.850</ele>
        <time>2020-07-24T05:37:27Z</time>
      </trkpt>
      <trkpt lat="42.790202" lon="-0.144795">
        <ele>2185.923</ele>
        <time>2020-07-24T05:37:33Z</time>
      </trkpt>
      <trkpt lat="42.790162" lon="-0.144802">
        <ele>2187.583</ele>
        <time>2020-07-24T05:38:08Z</time>
      </trkpt>
      <trkpt lat="42.790118" lon="-0.144790">
        <ele>2189.411</ele>
        <time>2020-07-24T05:38:52Z</time>
      </trkpt>
      <trkpt lat="42.790087" lon="-0.144835">
        <ele>2191.408</ele>
        <time>2020-07-24T05:39:05Z</time>
      </trkpt>
      <trkpt lat="42.790093" lon="-0.144894">
        <ele>2192.837</ele>
        <time>2020-07-24T05:39:12Z</time>
      </trkpt>
      <trkpt lat="42.790094" lon="-0.144961">
        <ele>2194.635</ele>
        <time>2020-07-24T05:39:22Z</time>
      </trkpt>
      <trkpt lat="42.790077" lon="-0.145021">
        <ele>2196.819</ele>
        <time>2020-07-24T05:39:37Z</time>
      </trkpt>
      <trkpt lat="42.790044" lon="-0.145056">
        <ele>2200.142</ele>
        <time>2020-07-24T05:40:05Z</time>
      </trkpt>
      <trkpt lat="42.790020" lon="-0.145110">
        <ele>2201.476</ele>
        <time>2020-07-24T05:40:16Z</time>
      </trkpt>
      <trkpt lat="42.789992" lon="-0.145166">
        <ele>2204.929</ele>
        <time>2020-07-24T05:40:38Z</time>
      </trkpt>
      <trkpt lat="42.789959" lon="-0.145191">
        <ele>2205.779</ele>
        <time>2020-07-24T05:40:47Z</time>
      </trkpt>
      <trkpt lat="42.789941" lon="-0.145243">
        <ele>2208.278</ele>
        <time>2020-07-24T05:41:06Z</time>
      </trkpt>
      <trkpt lat="42.789927" lon="-0.145303">
        <ele>2207.823</ele>
        <time>2020-07-24T05:41:17Z</time>
      </trkpt>
      <trkpt lat="42.789901" lon="-0.145362">
        <ele>2210.983</ele>
        <time>2020-07-24T05:41:30Z</time>
      </trkpt>
      <trkpt lat="42.789859" lon="-0.145386">
        <ele>2213.111</ele>
        <time>2020-07-24T05:42:38Z</time>
      </trkpt>
      <trkpt lat="42.789819" lon="-0.145416">
        <ele>2214.608</ele>
        <time>2020-07-24T05:42:44Z</time>
      </trkpt>
      <trkpt lat="42.789788" lon="-0.145465">
        <ele>2214.137</ele>
        <time>2020-07-24T05:42:52Z</time>
      </trkpt>
      <trkpt lat="42.789763" lon="-0.145525">
        <ele>2215.615</ele>
        <time>2020-07-24T05:43:00Z</time>
      </trkpt>
      <trkpt lat="42.789757" lon="-0.145592">
        <ele>2216.979</ele>
        <time>2020-07-24T05:43:10Z</time>
      </trkpt>
      <trkpt lat="42.789764" lon="-0.145662">
        <ele>2218.222</ele>
        <time>2020-07-24T05:43:18Z</time>
      </trkpt>
      <trkpt lat="42.789759" lon="-0.145727">
        <ele>2217.856</ele>
        <time>2020-07-24T05:43:25Z</time>
      </trkpt>
      <trkpt lat="42.789739" lon="-0.145792">
        <ele>2220.279</ele>
        <time>2020-07-24T05:43:34Z</time>
      </trkpt>
      <trkpt lat="42.789689" lon="-0.145799">
        <ele>2220.929</ele>
        <time>2020-07-24T05:43:56Z</time>
      </trkpt>
      <trkpt lat="42.789647" lon="-0.145766">
        <ele>2222.248</ele>
        <time>2020-07-24T05:44:03Z</time>
      </trkpt>
      <trkpt lat="42.789597" lon="-0.145785">
        <ele>2223.749</ele>
        <time>2020-07-24T05:44:11Z</time>
      </trkpt>
      <trkpt lat="42.789546" lon="-0.145781">
        <ele>2225.402</ele>
        <time>2020-07-24T05:44:19Z</time>
      </trkpt>
      <trkpt lat="42.789498" lon="-0.145820">
        <ele>2225.922</ele>
        <time>2020-07-24T05:44:28Z</time>
      </trkpt>
      <trkpt lat="42.789441" lon="-0.145840">
        <ele>2227.708</ele>
        <time>2020-07-24T05:44:36Z</time>
      </trkpt>
      <trkpt lat="42.789426" lon="-0.145906">
        <ele>2228.469</ele>
        <time>2020-07-24T05:44:46Z</time>
      </trkpt>
      <trkpt lat="42.789442" lon="-0.145973">
        <ele>2229.677</ele>
        <time>2020-07-24T05:44:52Z</time>
      </trkpt>
      <trkpt lat="42.789424" lon="-0.146027">
        <ele>2230.321</ele>
        <time>2020-07-24T05:45:02Z</time>
      </trkpt>
      <trkpt lat="42.789436" lon="-0.146088">
        <ele>2232.514</ele>
        <time>2020-07-24T05:45:16Z</time>
      </trkpt>
      <trkpt lat="42.789430" lon="-0.146151">
        <ele>2233.558</ele>
        <time>2020-07-24T05:45:28Z</time>
      </trkpt>
      <trkpt lat="42.789417" lon="-0.146190">
        <ele>2235.711</ele>
        <time>2020-07-24T05:45:37Z</time>
      </trkpt>
      <trkpt lat="42.789433" lon="-0.146231">
        <ele>2237.511</ele>
        <time>2020-07-24T05:45:50Z</time>
      </trkpt>
      <trkpt lat="42.789458" lon="-0.146291">
        <ele>2238.530</ele>
        <time>2020-07-24T05:45:59Z</time>
      </trkpt>
      <trkpt lat="42.789464" lon="-0.146357">
        <ele>2240.168</ele>
        <time>2020-07-24T05:46:09Z</time>
      </trkpt>
      <trkpt lat="42.789490" lon="-0.146409">
        <ele>2242.742</ele>
        <time>2020-07-24T05:46:23Z</time>
      </trkpt>
      <trkpt lat="42.789482" lon="-0.146470">
        <ele>2244.126</ele>
        <time>2020-07-24T05:46:35Z</time>
      </trkpt>
      <trkpt lat="42.789494" lon="-0.146531">
        <ele>2246.208</ele>
        <time>2020-07-24T05:46:49Z</time>
      </trkpt>
      <trkpt lat="42.789533" lon="-0.146583">
        <ele>2247.671</ele>
        <time>2020-07-24T05:47:03Z</time>
      </trkpt>
      <trkpt lat="42.789580" lon="-0.146610">
        <ele>2248.539</ele>
        <time>2020-07-24T05:47:12Z</time>
      </trkpt>
      <trkpt lat="42.789614" lon="-0.146651">
        <ele>2250.283</ele>
        <time>2020-07-24T05:47:26Z</time>
      </trkpt>
      <trkpt lat="42.789564" lon="-0.146664">
        <ele>2253.716</ele>
        <time>2020-07-24T05:47:50Z</time>
      </trkpt>
      <trkpt lat="42.789519" lon="-0.146640">
        <ele>2254.830</ele>
        <time>2020-07-24T05:47:57Z</time>
      </trkpt>
      <trkpt lat="42.789471" lon="-0.146651">
        <ele>2256.713</ele>
        <time>2020-07-24T05:48:06Z</time>
      </trkpt>
      <trkpt lat="42.789426" lon="-0.146645">
        <ele>2258.073</ele>
        <time>2020-07-24T05:48:16Z</time>
      </trkpt>
      <trkpt lat="42.789454" lon="-0.146713">
        <ele>2260.492</ele>
        <time>2020-07-24T05:48:30Z</time>
      </trkpt>
      <trkpt lat="42.789461" lon="-0.146761">
        <ele>2261.334</ele>
        <time>2020-07-24T05:48:38Z</time>
      </trkpt>
      <trkpt lat="42.789474" lon="-0.146823">
        <ele>2262.455</ele>
        <time>2020-07-24T05:48:48Z</time>
      </trkpt>
      <trkpt lat="42.789447" lon="-0.146863">
        <ele>2264.410</ele>
        <time>2020-07-24T05:49:01Z</time>
      </trkpt>
      <trkpt lat="42.789401" lon="-0.146866">
        <ele>2266.308</ele>
        <time>2020-07-24T05:49:14Z</time>
      </trkpt>
      <trkpt lat="42.789357" lon="-0.146887">
        <ele>2269.688</ele>
        <time>2020-07-24T05:49:35Z</time>
      </trkpt>
      <trkpt lat="42.789312" lon="-0.146882">
        <ele>2272.256</ele>
        <time>2020-07-24T05:49:49Z</time>
      </trkpt>
      <trkpt lat="42.789271" lon="-0.146857">
        <ele>2273.480</ele>
        <time>2020-07-24T05:49:59Z</time>
      </trkpt>
      <trkpt lat="42.789224" lon="-0.146837">
        <ele>2275.023</ele>
        <time>2020-07-24T05:50:09Z</time>
      </trkpt>
      <trkpt lat="42.789180" lon="-0.146832">
        <ele>2276.847</ele>
        <time>2020-07-24T05:50:20Z</time>
      </trkpt>
      <trkpt lat="42.789139" lon="-0.146802">
        <ele>2278.380</ele>
        <time>2020-07-24T05:50:31Z</time>
      </trkpt>
      <trkpt lat="42.789093" lon="-0.146780">
        <ele>2279.190</ele>
        <time>2020-07-24T05:50:40Z</time>
      </trkpt>
      <trkpt lat="42.789048" lon="-0.146803">
        <ele>2280.229</ele>
        <time>2020-07-24T05:50:52Z</time>
      </trkpt>
      <trkpt lat="42.789003" lon="-0.146798">
        <ele>2282.884</ele>
        <time>2020-07-24T05:51:01Z</time>
      </trkpt>
      <trkpt lat="42.788965" lon="-0.146827">
        <ele>2282.807</ele>
        <time>2020-07-24T05:51:11Z</time>
      </trkpt>
      <trkpt lat="42.788927" lon="-0.146862">
        <ele>2284.217</ele>
        <time>2020-07-24T05:51:21Z</time>
      </trkpt>
      <trkpt lat="42.788882" lon="-0.146848">
        <ele>2286.308</ele>
        <time>2020-07-24T05:51:33Z</time>
      </trkpt>
      <trkpt lat="42.788838" lon="-0.146865">
        <ele>2287.453</ele>
        <time>2020-07-24T05:51:43Z</time>
      </trkpt>
      <trkpt lat="42.788795" lon="-0.146903">
        <ele>2289.081</ele>
        <time>2020-07-24T05:51:51Z</time>
      </trkpt>
      <trkpt lat="42.788781" lon="-0.146984">
        <ele>2289.495</ele>
        <time>2020-07-24T05:51:59Z</time>
      </trkpt>
      <trkpt lat="42.788787" lon="-0.147056">
        <ele>2291.818</ele>
        <time>2020-07-24T05:52:07Z</time>
      </trkpt>
      <trkpt lat="42.788815" lon="-0.147105">
        <ele>2292.412</ele>
        <time>2020-07-24T05:52:14Z</time>
      </trkpt>
      <trkpt lat="42.788850" lon="-0.147162">
        <ele>2295.565</ele>
        <time>2020-07-24T05:52:55Z</time>
      </trkpt>
      <trkpt lat="42.788877" lon="-0.147234">
        <ele>2296.455</ele>
        <time>2020-07-24T05:53:04Z</time>
      </trkpt>
      <trkpt lat="42.788906" lon="-0.147281">
        <ele>2297.434</ele>
        <time>2020-07-24T05:53:09Z</time>
      </trkpt>
      <trkpt lat="42.788924" lon="-0.147340">
        <ele>2297.989</ele>
        <time>2020-07-24T05:53:15Z</time>
      </trkpt>
      <trkpt lat="42.788923" lon="-0.147405">
        <ele>2298.306</ele>
        <time>2020-07-24T05:53:20Z</time>
      </trkpt>
      <trkpt lat="42.788930" lon="-0.147467">
        <ele>2298.926</ele>
        <time>2020-07-24T05:53:28Z</time>
      </trkpt>
      <trkpt lat="42.788972" lon="-0.147498">
        <ele>2300.608</ele>
        <time>2020-07-24T05:53:37Z</time>
      </trkpt>
      <trkpt lat="42.789004" lon="-0.147545">
        <ele>2302.733</ele>
        <time>2020-07-24T05:53:56Z</time>
      </trkpt>
      <trkpt lat="42.789034" lon="-0.147596">
        <ele>2306.931</ele>
        <time>2020-07-24T05:54:21Z</time>
      </trkpt>
      <trkpt lat="42.789053" lon="-0.147652">
        <ele>2308.645</ele>
        <time>2020-07-24T05:54:36Z</time>
      </trkpt>
      <trkpt lat="42.789103" lon="-0.147657">
        <ele>2309.348</ele>
        <time>2020-07-24T05:54:41Z</time>
      </trkpt>
      <trkpt lat="42.789146" lon="-0.147631">
        <ele>2310.562</ele>
        <time>2020-07-24T05:54:47Z</time>
      </trkpt>
      <trkpt lat="42.789192" lon="-0.147647">
        <ele>2311.995</ele>
        <time>2020-07-24T05:54:56Z</time>
      </trkpt>
      <trkpt lat="42.789237" lon="-0.147657">
        <ele>2311.795</ele>
        <time>2020-07-24T05:55:04Z</time>
      </trkpt>
      <trkpt lat="42.789284" lon="-0.147673">
        <ele>2314.244</ele>
        <time>2020-07-24T05:55:14Z</time>
      </trkpt>
      <trkpt lat="42.789328" lon="-0.147706">
        <ele>2314.527</ele>
        <time>2020-07-24T05:55:25Z</time>
      </trkpt>
      <trkpt lat="42.789342" lon="-0.147773">
        <ele>2316.868</ele>
        <time>2020-07-24T05:55:35Z</time>
      </trkpt>
      <trkpt lat="42.789379" lon="-0.147800">
        <ele>2319.214</ele>
        <time>2020-07-24T05:55:50Z</time>
      </trkpt>
      <trkpt lat="42.789383" lon="-0.147868">
        <ele>2320.008</ele>
        <time>2020-07-24T05:56:00Z</time>
      </trkpt>
      <trkpt lat="42.789368" lon="-0.147919">
        <ele>2322.087</ele>
        <time>2020-07-24T05:56:11Z</time>
      </trkpt>
      <trkpt lat="42.789399" lon="-0.147962">
        <ele>2324.545</ele>
        <time>2020-07-24T05:56:25Z</time>
      </trkpt>
      <trkpt lat="42.789443" lon="-0.147991">
        <ele>2328.069</ele>
        <time>2020-07-24T05:56:58Z</time>
      </trkpt>
      <trkpt lat="42.789450" lon="-0.148051">
        <ele>2328.252</ele>
        <time>2020-07-24T05:57:10Z</time>
      </trkpt>
      <trkpt lat="42.789417" lon="-0.148080">
        <ele>2329.626</ele>
        <time>2020-07-24T05:57:21Z</time>
      </trkpt>
      <trkpt lat="42.789388" lon="-0.148042">
        <ele>2330.369</ele>
        <time>2020-07-24T05:57:48Z</time>
      </trkpt>
      <trkpt lat="42.789353" lon="-0.148007">
        <ele>2332.669</ele>
        <time>2020-07-24T05:58:01Z</time>
      </trkpt>
      <trkpt lat="42.789319" lon="-0.148043">
        <ele>2337.328</ele>
        <time>2020-07-24T05:58:23Z</time>
      </trkpt>
      <trkpt lat="42.789340" lon="-0.148107">
        <ele>2337.762</ele>
        <time>2020-07-24T05:58:28Z</time>
      </trkpt>
      <trkpt lat="42.789367" lon="-0.148168">
        <ele>2337.483</ele>
        <time>2020-07-24T05:58:34Z</time>
      </trkpt>
      <trkpt lat="42.789375" lon="-0.148233">
        <ele>2339.411</ele>
        <time>2020-07-24T05:58:39Z</time>
      </trkpt>
      <trkpt lat="42.789394" lon="-0.148292">
        <ele>2339.808</ele>
        <time>2020-07-24T05:58:45Z</time>
      </trkpt>
      <trkpt lat="42.789407" lon="-0.148351">
        <ele>2339.551</ele>
        <time>2020-07-24T05:58:50Z</time>
      </trkpt>
      <trkpt lat="42.789414" lon="-0.148416">
        <ele>2338.139</ele>
        <time>2020-07-24T05:58:56Z</time>
      </trkpt>
      <trkpt lat="42.789424" lon="-0.148477">
        <ele>2340.093</ele>
        <time>2020-07-24T05:59:02Z</time>
      </trkpt>
      <trkpt lat="42.789454" lon="-0.148537">
        <ele>2340.136</ele>
        <time>2020-07-24T05:59:09Z</time>
      </trkpt>
      <trkpt lat="42.789468" lon="-0.148606">
        <ele>2338.490</ele>
        <time>2020-07-24T05:59:15Z</time>
      </trkpt>
      <trkpt lat="42.789483" lon="-0.148664">
        <ele>2339.433</ele>
        <time>2020-07-24T05:59:22Z</time>
      </trkpt>
      <trkpt lat="42.789489" lon="-0.148727">
        <ele>2338.543</ele>
        <time>2020-07-24T05:59:28Z</time>
      </trkpt>
      <trkpt lat="42.789511" lon="-0.148780">
        <ele>2339.022</ele>
        <time>2020-07-24T05:59:35Z</time>
      </trkpt>
      <trkpt lat="42.789537" lon="-0.148825">
        <ele>2338.121</ele>
        <time>2020-07-24T05:59:39Z</time>
      </trkpt>
      <trkpt lat="42.789581" lon="-0.148835">
        <ele>2340.741</ele>
        <time>2020-07-24T05:59:49Z</time>
      </trkpt>
      <trkpt lat="42.789609" lon="-0.148893">
        <ele>2342.305</ele>
        <time>2020-07-24T06:00:06Z</time>
      </trkpt>
      <trkpt lat="42.789609" lon="-0.148964">
        <ele>2342.608</ele>
        <time>2020-07-24T06:00:11Z</time>
      </trkpt>
      <trkpt lat="42.789605" lon="-0.149033">
        <ele>2342.937</ele>
        <time>2020-07-24T06:00:17Z</time>
      </trkpt>
      <trkpt lat="42.789620" lon="-0.149099">
        <ele>2343.315</ele>
        <time>2020-07-24T06:00:24Z</time>
      </trkpt>
      <trkpt lat="42.789639" lon="-0.149170">
        <ele>2344.239</ele>
        <time>2020-07-24T06:00:32Z</time>
      </trkpt>
      <trkpt lat="42.789626" lon="-0.149231">
        <ele>2343.642</ele>
        <time>2020-07-24T06:00:39Z</time>
      </trkpt>
      <trkpt lat="42.789615" lon="-0.149294">
        <ele>2347.026</ele>
        <time>2020-07-24T06:00:52Z</time>
      </trkpt>
      <trkpt lat="42.789639" lon="-0.149356">
        <ele>2348.189</ele>
        <time>2020-07-24T06:01:07Z</time>
      </trkpt>
      <trkpt lat="42.789676" lon="-0.149411">
        <ele>2348.569</ele>
        <time>2020-07-24T06:01:15Z</time>
      </trkpt>
      <trkpt lat="42.789716" lon="-0.149461">
        <ele>2350.628</ele>
        <time>2020-07-24T06:01:25Z</time>
      </trkpt>
      <trkpt lat="42.789753" lon="-0.149507">
        <ele>2353.819</ele>
        <time>2020-07-24T06:01:39Z</time>
      </trkpt>
      <trkpt lat="42.789805" lon="-0.149501">
        <ele>2354.209</ele>
        <time>2020-07-24T06:01:49Z</time>
      </trkpt>
      <trkpt lat="42.789840" lon="-0.149482">
        <ele>2355.319</ele>
        <time>2020-07-24T06:01:58Z</time>
      </trkpt>
      <trkpt lat="42.789869" lon="-0.149503">
        <ele>2359.708</ele>
        <time>2020-07-24T06:02:32Z</time>
      </trkpt>
      <trkpt lat="42.789887" lon="-0.149563">
        <ele>2362.496</ele>
        <time>2020-07-24T06:02:53Z</time>
      </trkpt>
      <trkpt lat="42.789912" lon="-0.149628">
        <ele>2364.344</ele>
        <time>2020-07-24T06:03:06Z</time>
      </trkpt>
      <trkpt lat="42.789965" lon="-0.149644">
        <ele>2364.828</ele>
        <time>2020-07-24T06:03:14Z</time>
      </trkpt>
      <trkpt lat="42.789999" lon="-0.149626">
        <ele>2367.821</ele>
        <time>2020-07-24T06:03:23Z</time>
      </trkpt>
      <trkpt lat="42.790043" lon="-0.149630">
        <ele>2375.185</ele>
        <time>2020-07-24T06:04:21Z</time>
      </trkpt>
      <trkpt lat="42.790082" lon="-0.149661">
        <ele>2376.918</ele>
        <time>2020-07-24T06:04:36Z</time>
      </trkpt>
      <trkpt lat="42.790127" lon="-0.149645">
        <ele>2377.798</ele>
        <time>2020-07-24T06:04:43Z</time>
      </trkpt>
      <trkpt lat="42.790177" lon="-0.149627">
        <ele>2378.487</ele>
        <time>2020-07-24T06:04:51Z</time>
      </trkpt>
      <trkpt lat="42.790227" lon="-0.149644">
        <ele>2379.868</ele>
        <time>2020-07-24T06:05:00Z</time>
      </trkpt>
      <trkpt lat="42.790269" lon="-0.149690">
        <ele>2381.542</ele>
        <time>2020-07-24T06:05:07Z</time>
      </trkpt>
      <trkpt lat="42.790317" lon="-0.149690">
        <ele>2381.526</ele>
        <time>2020-07-24T06:05:15Z</time>
      </trkpt>
      <trkpt lat="42.790356" lon="-0.149651">
        <ele>2383.708</ele>
        <time>2020-07-24T06:05:25Z</time>
      </trkpt>
      <trkpt lat="42.790404" lon="-0.149622">
        <ele>2383.931</ele>
        <time>2020-07-24T06:05:32Z</time>
      </trkpt>
      <trkpt lat="42.790447" lon="-0.149602">
        <ele>2385.629</ele>
        <time>2020-07-24T06:05:38Z</time>
      </trkpt>
      <trkpt lat="42.790499" lon="-0.149596">
        <ele>2387.793</ele>
        <time>2020-07-24T06:05:45Z</time>
      </trkpt>
      <trkpt lat="42.790533" lon="-0.149552">
        <ele>2388.476</ele>
        <time>2020-07-24T06:05:53Z</time>
      </trkpt>
      <trkpt lat="42.790571" lon="-0.149512">
        <ele>2389.020</ele>
        <time>2020-07-24T06:06:02Z</time>
      </trkpt>
      <trkpt lat="42.790620" lon="-0.149483">
        <ele>2390.083</ele>
        <time>2020-07-24T06:06:11Z</time>
      </trkpt>
      <trkpt lat="42.790666" lon="-0.149467">
        <ele>2390.683</ele>
        <time>2020-07-24T06:06:21Z</time>
      </trkpt>
      <trkpt lat="42.790692" lon="-0.149520">
        <ele>2395.142</ele>
        <time>2020-07-24T06:06:38Z</time>
      </trkpt>
      <trkpt lat="42.790680" lon="-0.149592">
        <ele>2395.114</ele>
        <time>2020-07-24T06:06:49Z</time>
      </trkpt>
      <trkpt lat="42.790649" lon="-0.149640">
        <ele>2397.354</ele>
        <time>2020-07-24T06:06:55Z</time>
      </trkpt>
      <trkpt lat="42.790628" lon="-0.149705">
        <ele>2396.809</ele>
        <time>2020-07-24T06:07:04Z</time>
      </trkpt>
      <trkpt lat="42.790622" lon="-0.149775">
        <ele>2399.708</ele>
        <time>2020-07-24T06:07:24Z</time>
      </trkpt>
      <trkpt lat="42.790600" lon="-0.149855">
        <ele>2403.096</ele>
        <time>2020-07-24T06:07:48Z</time>
      </trkpt>
      <trkpt lat="42.790577" lon="-0.149944">
        <ele>2406.774</ele>
        <time>2020-07-24T06:08:14Z</time>
      </trkpt>
      <trkpt lat="42.790581" lon="-0.150023">
        <ele>2408.558</ele>
        <time>2020-07-24T06:08:21Z</time>
      </trkpt>
      <trkpt lat="42.790616" lon="-0.150083">
        <ele>2409.221</ele>
        <time>2020-07-24T06:08:27Z</time>
      </trkpt>
      <trkpt lat="42.790644" lon="-0.150132">
        <ele>2410.815</ele>
        <time>2020-07-24T06:08:31Z</time>
      </trkpt>
      <trkpt lat="42.790666" lon="-0.150206">
        <ele>2410.888</ele>
        <time>2020-07-24T06:08:37Z</time>
      </trkpt>
      <trkpt lat="42.790689" lon="-0.150264">
        <ele>2412.458</ele>
        <time>2020-07-24T06:08:44Z</time>
      </trkpt>
      <trkpt lat="42.790726" lon="-0.150305">
        <ele>2411.547</ele>
        <time>2020-07-24T06:08:50Z</time>
      </trkpt>
      <trkpt lat="42.790771" lon="-0.150329">
        <ele>2414.246</ele>
        <time>2020-07-24T06:08:58Z</time>
      </trkpt>
      <trkpt lat="42.790814" lon="-0.150357">
        <ele>2416.588</ele>
        <time>2020-07-24T06:09:08Z</time>
      </trkpt>
      <trkpt lat="42.790874" lon="-0.150390">
        <ele>2419.016</ele>
        <time>2020-07-24T06:09:33Z</time>
      </trkpt>
      <trkpt lat="42.790926" lon="-0.150423">
        <ele>2420.108</ele>
        <time>2020-07-24T06:09:40Z</time>
      </trkpt>
      <trkpt lat="42.790974" lon="-0.150429">
        <ele>2421.269</ele>
        <time>2020-07-24T06:09:50Z</time>
      </trkpt>
      <trkpt lat="42.791030" lon="-0.150453">
        <ele>2422.097</ele>
        <time>2020-07-24T06:09:57Z</time>
      </trkpt>
      <trkpt lat="42.791072" lon="-0.150502">
        <ele>2423.831</ele>
        <time>2020-07-24T06:10:08Z</time>
      </trkpt>
      <trkpt lat="42.790988" lon="-0.150518">
        <ele>2424.334</ele>
        <time>2020-07-24T06:10:24Z</time>
      </trkpt>
      <trkpt lat="42.790936" lon="-0.150517">
        <ele>2424.198</ele>
        <time>2020-07-24T06:10:29Z</time>
      </trkpt>
      <trkpt lat="42.790869" lon="-0.150491">
        <ele>2424.281</ele>
        <time>2020-07-24T06:10:31Z</time>
      </trkpt>
      <trkpt lat="42.790816" lon="-0.150513">
        <ele>2425.251</ele>
        <time>2020-07-24T06:10:41Z</time>
      </trkpt>
      <trkpt lat="42.790798" lon="-0.150582">
        <ele>2427.420</ele>
        <time>2020-07-24T06:10:58Z</time>
      </trkpt>
      <trkpt lat="42.790773" lon="-0.150640">
        <ele>2428.836</ele>
        <time>2020-07-24T06:11:09Z</time>
      </trkpt>
      <trkpt lat="42.790756" lon="-0.150702">
        <ele>2430.017</ele>
        <time>2020-07-24T06:11:19Z</time>
      </trkpt>
      <trkpt lat="42.790783" lon="-0.150742">
        <ele>2433.318</ele>
        <time>2020-07-24T06:11:39Z</time>
      </trkpt>
      <trkpt lat="42.790791" lon="-0.150793">
        <ele>2438.008</ele>
        <time>2020-07-24T06:12:17Z</time>
      </trkpt>
      <trkpt lat="42.790773" lon="-0.150851">
        <ele>2439.798</ele>
        <time>2020-07-24T06:12:26Z</time>
      </trkpt>
      <trkpt lat="42.790773" lon="-0.150918">
        <ele>2439.976</ele>
        <time>2020-07-24T06:12:36Z</time>
      </trkpt>
      <trkpt lat="42.790785" lon="-0.150986">
        <ele>2442.550</ele>
        <time>2020-07-24T06:12:48Z</time>
      </trkpt>
      <trkpt lat="42.790749" lon="-0.151026">
        <ele>2443.643</ele>
        <time>2020-07-24T06:12:58Z</time>
      </trkpt>
      <trkpt lat="42.790698" lon="-0.151030">
        <ele>2444.877</ele>
        <time>2020-07-24T06:13:05Z</time>
      </trkpt>
      <trkpt lat="42.790647" lon="-0.151018">
        <ele>2444.040</ele>
        <time>2020-07-24T06:13:10Z</time>
      </trkpt>
      <trkpt lat="42.790599" lon="-0.151012">
        <ele>2446.220</ele>
        <time>2020-07-24T06:13:20Z</time>
      </trkpt>
      <trkpt lat="42.790547" lon="-0.151030">
        <ele>2446.949</ele>
        <time>2020-07-24T06:13:28Z</time>
      </trkpt>
      <trkpt lat="42.790525" lon="-0.151081">
        <ele>2448.151</ele>
        <time>2020-07-24T06:13:38Z</time>
      </trkpt>
      <trkpt lat="42.790547" lon="-0.151141">
        <ele>2447.901</ele>
        <time>2020-07-24T06:13:44Z</time>
      </trkpt>
      <trkpt lat="42.790547" lon="-0.151204">
        <ele>2450.011</ele>
        <time>2020-07-24T06:13:53Z</time>
      </trkpt>
      <trkpt lat="42.790508" lon="-0.151247">
        <ele>2451.408</ele>
        <time>2020-07-24T06:14:03Z</time>
      </trkpt>
      <trkpt lat="42.790489" lon="-0.151297">
        <ele>2452.440</ele>
        <time>2020-07-24T06:14:18Z</time>
      </trkpt>
      <trkpt lat="42.790514" lon="-0.151344">
        <ele>2454.548</ele>
        <time>2020-07-24T06:14:26Z</time>
      </trkpt>
      <trkpt lat="42.790508" lon="-0.151402">
        <ele>2455.072</ele>
        <time>2020-07-24T06:14:36Z</time>
      </trkpt>
      <trkpt lat="42.790520" lon="-0.151466">
        <ele>2457.045</ele>
        <time>2020-07-24T06:14:44Z</time>
      </trkpt>
      <trkpt lat="42.790527" lon="-0.151530">
        <ele>2457.789</ele>
        <time>2020-07-24T06:15:01Z</time>
      </trkpt>
      <trkpt lat="42.790492" lon="-0.151581">
        <ele>2459.422</ele>
        <time>2020-07-24T06:15:11Z</time>
      </trkpt>
      <trkpt lat="42.790487" lon="-0.151654">
        <ele>2461.692</ele>
        <time>2020-07-24T06:15:30Z</time>
      </trkpt>
      <trkpt lat="42.790451" lon="-0.151672">
        <ele>2463.451</ele>
        <time>2020-07-24T06:15:51Z</time>
      </trkpt>
      <trkpt lat="42.790399" lon="-0.151641">
        <ele>2464.942</ele>
        <time>2020-07-24T06:15:57Z</time>
      </trkpt>
      <trkpt lat="42.790353" lon="-0.151650">
        <ele>2465.622</ele>
        <time>2020-07-24T06:16:06Z</time>
      </trkpt>
      <trkpt lat="42.790348" lon="-0.151704">
        <ele>2467.614</ele>
        <time>2020-07-24T06:16:16Z</time>
      </trkpt>
      <trkpt lat="42.790309" lon="-0.151724">
        <ele>2468.608</ele>
        <time>2020-07-24T06:16:26Z</time>
      </trkpt>
      <trkpt lat="42.790267" lon="-0.151735">
        <ele>2469.879</ele>
        <time>2020-07-24T06:16:33Z</time>
      </trkpt>
      <trkpt lat="42.790253" lon="-0.151786">
        <ele>2471.997</ele>
        <time>2020-07-24T06:16:41Z</time>
      </trkpt>
      <trkpt lat="42.790246" lon="-0.151856">
        <ele>2472.571</ele>
        <time>2020-07-24T06:16:48Z</time>
      </trkpt>
      <trkpt lat="42.790208" lon="-0.151887">
        <ele>2472.224</ele>
        <time>2020-07-24T06:17:07Z</time>
      </trkpt>
      <trkpt lat="42.790194" lon="-0.151958">
        <ele>2471.938</ele>
        <time>2020-07-24T06:17:17Z</time>
      </trkpt>
      <trkpt lat="42.790204" lon="-0.152019">
        <ele>2473.261</ele>
        <time>2020-07-24T06:17:24Z</time>
      </trkpt>
      <trkpt lat="42.790222" lon="-0.152082">
        <ele>2474.151</ele>
        <time>2020-07-24T06:17:33Z</time>
      </trkpt>
      <trkpt lat="42.790232" lon="-0.152153">
        <ele>2474.890</ele>
        <time>2020-07-24T06:17:40Z</time>
      </trkpt>
      <trkpt lat="42.790232" lon="-0.152230">
        <ele>2477.238</ele>
        <time>2020-07-24T06:17:52Z</time>
      </trkpt>
      <trkpt lat="42.790262" lon="-0.152278">
        <ele>2479.170</ele>
        <time>2020-07-24T06:18:07Z</time>
      </trkpt>
      <trkpt lat="42.790265" lon="-0.152347">
        <ele>2481.417</ele>
        <time>2020-07-24T06:18:27Z</time>
      </trkpt>
      <trkpt lat="42.790252" lon="-0.152391">
        <ele>2484.108</ele>
        <time>2020-07-24T06:18:42Z</time>
      </trkpt>
      <trkpt lat="42.790212" lon="-0.152408">
        <ele>2484.478</ele>
        <time>2020-07-24T06:18:49Z</time>
      </trkpt>
      <trkpt lat="42.790167" lon="-0.152448">
        <ele>2486.636</ele>
        <time>2020-07-24T06:19:03Z</time>
      </trkpt>
      <trkpt lat="42.790121" lon="-0.152446">
        <ele>2488.640</ele>
        <time>2020-07-24T06:19:15Z</time>
      </trkpt>
      <trkpt lat="42.790097" lon="-0.152507">
        <ele>2491.223</ele>
        <time>2020-07-24T06:19:31Z</time>
      </trkpt>
      <trkpt lat="42.790055" lon="-0.152535">
        <ele>2491.377</ele>
        <time>2020-07-24T06:19:41Z</time>
      </trkpt>
      <trkpt lat="42.790043" lon="-0.152597">
        <ele>2493.830</ele>
        <time>2020-07-24T06:19:55Z</time>
      </trkpt>
      <trkpt lat="42.790013" lon="-0.152643">
        <ele>2495.850</ele>
        <time>2020-07-24T06:20:08Z</time>
      </trkpt>
      <trkpt lat="42.789997" lon="-0.152707">
        <ele>2497.889</ele>
        <time>2020-07-24T06:20:19Z</time>
      </trkpt>
      <trkpt lat="42.789965" lon="-0.152745">
        <ele>2500.493</ele>
        <time>2020-07-24T06:20:31Z</time>
      </trkpt>
      <trkpt lat="42.789924" lon="-0.152751">
        <ele>2500.165</ele>
        <time>2020-07-24T06:20:40Z</time>
      </trkpt>
      <trkpt lat="42.789876" lon="-0.152753">
        <ele>2501.221</ele>
        <time>2020-07-24T06:20:50Z</time>
      </trkpt>
      <trkpt lat="42.789853" lon="-0.152762">
        <ele>2503.408</ele>
        <time>2020-07-24T06:20:58Z</time>
      </trkpt>
      <trkpt lat="42.789842" lon="-0.152807">
        <ele>2507.734</ele>
        <time>2020-07-24T06:22:31Z</time>
      </trkpt>
      <trkpt lat="42.789853" lon="-0.152876">
        <ele>2508.392</ele>
        <time>2020-07-24T06:22:37Z</time>
      </trkpt>
      <trkpt lat="42.789846" lon="-0.152950">
        <ele>2509.366</ele>
        <time>2020-07-24T06:22:44Z</time>
      </trkpt>
      <trkpt lat="42.789831" lon="-0.153017">
        <ele>2509.539</ele>
        <time>2020-07-24T06:23:00Z</time>
      </trkpt>
      <trkpt lat="42.789844" lon="-0.153086">
        <ele>2510.733</ele>
        <time>2020-07-24T06:23:07Z</time>
      </trkpt>
      <trkpt lat="42.789861" lon="-0.153147">
        <ele>2511.816</ele>
        <time>2020-07-24T06:23:17Z</time>
      </trkpt>
      <trkpt lat="42.789869" lon="-0.153217">
        <ele>2512.936</ele>
        <time>2020-07-24T06:23:25Z</time>
      </trkpt>
      <trkpt lat="42.789883" lon="-0.153278">
        <ele>2514.755</ele>
        <time>2020-07-24T06:23:35Z</time>
      </trkpt>
      <trkpt lat="42.789871" lon="-0.153334">
        <ele>2516.241</ele>
        <time>2020-07-24T06:23:46Z</time>
      </trkpt>
      <trkpt lat="42.789874" lon="-0.153399">
        <ele>2518.181</ele>
        <time>2020-07-24T06:24:02Z</time>
      </trkpt>
      <trkpt lat="42.789835" lon="-0.153454">
        <ele>2519.509</ele>
        <time>2020-07-24T06:24:12Z</time>
      </trkpt>
      <trkpt lat="42.789790" lon="-0.153456">
        <ele>2520.608</ele>
        <time>2020-07-24T06:24:22Z</time>
      </trkpt>
      <trkpt lat="42.789756" lon="-0.153516">
        <ele>2522.759</ele>
        <time>2020-07-24T06:24:35Z</time>
      </trkpt>
      <trkpt lat="42.789756" lon="-0.153581">
        <ele>2523.857</ele>
        <time>2020-07-24T06:24:52Z</time>
      </trkpt>
      <trkpt lat="42.789725" lon="-0.153637">
        <ele>2525.091</ele>
        <time>2020-07-24T06:25:01Z</time>
      </trkpt>
      <trkpt lat="42.789682" lon="-0.153665">
        <ele>2527.464</ele>
        <time>2020-07-24T06:25:27Z</time>
      </trkpt>
      <trkpt lat="42.789674" lon="-0.153730">
        <ele>2531.318</ele>
        <time>2020-07-24T06:26:15Z</time>
      </trkpt>
      <trkpt lat="42.789650" lon="-0.153799">
        <ele>2533.061</ele>
        <time>2020-07-24T06:26:25Z</time>
      </trkpt>
      <trkpt lat="42.789629" lon="-0.153859">
        <ele>2533.881</ele>
        <time>2020-07-24T06:26:33Z</time>
      </trkpt>
      <trkpt lat="42.789612" lon="-0.153924">
        <ele>2534.260</ele>
        <time>2020-07-24T06:26:40Z</time>
      </trkpt>
      <trkpt lat="42.789609" lon="-0.153990">
        <ele>2535.839</ele>
        <time>2020-07-24T06:26:48Z</time>
      </trkpt>
      <trkpt lat="42.789601" lon="-0.154054">
        <ele>2537.001</ele>
        <time>2020-07-24T06:26:56Z</time>
      </trkpt>
      <trkpt lat="42.789588" lon="-0.154119">
        <ele>2538.421</ele>
        <time>2020-07-24T06:27:05Z</time>
      </trkpt>
      <trkpt lat="42.789589" lon="-0.154186">
        <ele>2539.608</ele>
        <time>2020-07-24T06:27:16Z</time>
      </trkpt>
      <trkpt lat="42.789595" lon="-0.154248">
        <ele>2540.918</ele>
        <time>2020-07-24T06:27:28Z</time>
      </trkpt>
      <trkpt lat="42.789608" lon="-0.154310">
        <ele>2542.056</ele>
        <time>2020-07-24T06:27:44Z</time>
      </trkpt>
      <trkpt lat="42.789602" lon="-0.154374">
        <ele>2544.530</ele>
        <time>2020-07-24T06:27:58Z</time>
      </trkpt>
      <trkpt lat="42.789574" lon="-0.154425">
        <ele>2547.083</ele>
        <time>2020-07-24T06:28:17Z</time>
      </trkpt>
      <trkpt lat="42.789574" lon="-0.154488">
        <ele>2548.727</ele>
        <time>2020-07-24T06:28:36Z</time>
      </trkpt>
      <trkpt lat="42.789567" lon="-0.154552">
        <ele>2551.630</ele>
        <time>2020-07-24T06:28:52Z</time>
      </trkpt>
      <trkpt lat="42.789558" lon="-0.154617">
        <ele>2552.150</ele>
        <time>2020-07-24T06:29:03Z</time>
      </trkpt>
      <trkpt lat="42.789581" lon="-0.154679">
        <ele>2553.519</ele>
        <time>2020-07-24T06:29:17Z</time>
      </trkpt>
      <trkpt lat="42.789591" lon="-0.154749">
        <ele>2556.145</ele>
        <time>2020-07-24T06:29:30Z</time>
      </trkpt>
      <trkpt lat="42.789610" lon="-0.154806">
        <ele>2557.747</ele>
        <time>2020-07-24T06:29:40Z</time>
      </trkpt>
      <trkpt lat="42.789628" lon="-0.154852">
        <ele>2558.411</ele>
        <time>2020-07-24T06:29:56Z</time>
      </trkpt>
      <trkpt lat="42.789604" lon="-0.154895">
        <ele>2562.208</ele>
        <time>2020-07-24T06:30:16Z</time>
      </trkpt>
      <trkpt lat="42.789559" lon="-0.154892">
        <ele>2562.469</ele>
        <time>2020-07-24T06:30:22Z</time>
      </trkpt>
      <trkpt lat="42.789516" lon="-0.154913">
        <ele>2563.027</ele>
        <time>2020-07-24T06:30:30Z</time>
      </trkpt>
      <trkpt lat="42.789471" lon="-0.154929">
        <ele>2563.481</ele>
        <time>2020-07-24T06:30:40Z</time>
      </trkpt>
      <trkpt lat="42.789432" lon="-0.154965">
        <ele>2564.414</ele>
        <time>2020-07-24T06:30:49Z</time>
      </trkpt>
      <trkpt lat="42.789415" lon="-0.155028">
        <ele>2567.258</ele>
        <time>2020-07-24T06:31:01Z</time>
      </trkpt>
      <trkpt lat="42.789411" lon="-0.155093">
        <ele>2570.161</ele>
        <time>2020-07-24T06:31:33Z</time>
      </trkpt>
      <trkpt lat="42.789447" lon="-0.155144">
        <ele>2571.531</ele>
        <time>2020-07-24T06:31:43Z</time>
      </trkpt>
      <trkpt lat="42.789479" lon="-0.155175">
        <ele>2573.330</ele>
        <time>2020-07-24T06:31:56Z</time>
      </trkpt>
      <trkpt lat="42.789468" lon="-0.155229">
        <ele>2574.934</ele>
        <time>2020-07-24T06:32:06Z</time>
      </trkpt>
      <trkpt lat="42.789421" lon="-0.155247">
        <ele>2576.655</ele>
        <time>2020-07-24T06:32:13Z</time>
      </trkpt>
      <trkpt lat="42.789371" lon="-0.155260">
        <ele>2577.210</ele>
        <time>2020-07-24T06:32:21Z</time>
      </trkpt>
      <trkpt lat="42.789321" lon="-0.155254">
        <ele>2578.408</ele>
        <time>2020-07-24T06:32:33Z</time>
      </trkpt>
      <trkpt lat="42.789280" lon="-0.155282">
        <ele>2580.348</ele>
        <time>2020-07-24T06:32:45Z</time>
      </trkpt>
      <trkpt lat="42.789248" lon="-0.155330">
        <ele>2582.886</ele>
        <time>2020-07-24T06:32:59Z</time>
      </trkpt>
      <trkpt lat="42.789214" lon="-0.155373">
        <ele>2584.150</ele>
        <time>2020-07-24T06:33:09Z</time>
      </trkpt>
      <trkpt lat="42.789197" lon="-0.155435">
        <ele>2586.063</ele>
        <time>2020-07-24T06:33:17Z</time>
      </trkpt>
      <trkpt lat="42.789196" lon="-0.155502">
        <ele>2587.587</ele>
        <time>2020-07-24T06:33:25Z</time>
      </trkpt>
      <trkpt lat="42.789191" lon="-0.155573">
        <ele>2589.210</ele>
        <time>2020-07-24T06:33:34Z</time>
      </trkpt>
      <trkpt lat="42.789211" lon="-0.155630">
        <ele>2590.130</ele>
        <time>2020-07-24T06:33:42Z</time>
      </trkpt>
      <trkpt lat="42.789251" lon="-0.155673">
        <ele>2591.349</ele>
        <time>2020-07-24T06:33:49Z</time>
      </trkpt>
      <trkpt lat="42.789289" lon="-0.155713">
        <ele>2592.542</ele>
        <time>2020-07-24T06:33:59Z</time>
      </trkpt>
      <trkpt lat="42.789334" lon="-0.155719">
        <ele>2594.022</ele>
        <time>2020-07-24T06:34:27Z</time>
      </trkpt>
      <trkpt lat="42.789362" lon="-0.155763">
        <ele>2592.514</ele>
        <time>2020-07-24T06:34:36Z</time>
      </trkpt>
      <trkpt lat="42.789367" lon="-0.155829">
        <ele>2589.008</ele>
        <time>2020-07-24T06:34:41Z</time>
      </trkpt>
      <trkpt lat="42.789372" lon="-0.155878">
        <ele>2587.349</ele>
        <time>2020-07-24T06:34:48Z</time>
      </trkpt>
      <trkpt lat="42.789334" lon="-0.155887">
        <ele>2586.417</ele>
        <time>2020-07-24T06:35:05Z</time>
      </trkpt>
      <trkpt lat="42.789321" lon="-0.155940">
        <ele>2587.241</ele>
        <time>2020-07-24T06:35:14Z</time>
      </trkpt>
      <trkpt lat="42.789333" lon="-0.156006">
        <ele>2584.884</ele>
        <time>2020-07-24T06:35:22Z</time>
      </trkpt>
      <trkpt lat="42.789373" lon="-0.156060">
        <ele>2583.368</ele>
        <time>2020-07-24T06:35:28Z</time>
      </trkpt>
      <trkpt lat="42.789424" lon="-0.156057">
        <ele>2582.481</ele>
        <time>2020-07-24T06:35:33Z</time>
      </trkpt>
      <trkpt lat="42.789472" lon="-0.156058">
        <ele>2582.091</ele>
        <time>2020-07-24T06:35:38Z</time>
      </trkpt>
      <trkpt lat="42.789500" lon="-0.156080">
        <ele>2582.140</ele>
        <time>2020-07-24T06:35:45Z</time>
      </trkpt>
      <trkpt lat="42.789493" lon="-0.156138">
        <ele>2578.411</ele>
        <time>2020-07-24T06:35:55Z</time>
      </trkpt>
      <trkpt lat="42.789493" lon="-0.156208">
        <ele>2575.121</ele>
        <time>2020-07-24T06:36:21Z</time>
      </trkpt>
      <trkpt lat="42.789524" lon="-0.156266">
        <ele>2574.203</ele>
        <time>2020-07-24T06:36:24Z</time>
      </trkpt>
      <trkpt lat="42.789547" lon="-0.156327">
        <ele>2573.008</ele>
        <time>2020-07-24T06:36:30Z</time>
      </trkpt>
      <trkpt lat="42.789589" lon="-0.156385">
        <ele>2572.836</ele>
        <time>2020-07-24T06:36:34Z</time>
      </trkpt>
      <trkpt lat="42.789623" lon="-0.156426">
        <ele>2571.564</ele>
        <time>2020-07-24T06:36:37Z</time>
      </trkpt>
      <trkpt lat="42.789623" lon="-0.156492">
        <ele>2569.768</ele>
        <time>2020-07-24T06:36:43Z</time>
      </trkpt>
      <trkpt lat="42.789643" lon="-0.156548">
        <ele>2562.161</ele>
        <time>2020-07-24T06:37:28Z</time>
      </trkpt>
      <trkpt lat="42.789625" lon="-0.156608">
        <ele>2561.095</ele>
        <time>2020-07-24T06:37:33Z</time>
      </trkpt>
      <trkpt lat="42.789582" lon="-0.156633">
        <ele>2559.058</ele>
        <time>2020-07-24T06:37:37Z</time>
      </trkpt>
      <trkpt lat="42.789528" lon="-0.156647">
        <ele>2559.048</ele>
        <time>2020-07-24T06:37:42Z</time>
      </trkpt>
      <trkpt lat="42.789490" lon="-0.156709">
        <ele>2558.337</ele>
        <time>2020-07-24T06:37:47Z</time>
      </trkpt>
      <trkpt lat="42.789490" lon="-0.156774">
        <ele>2556.896</ele>
        <time>2020-07-24T06:37:52Z</time>
      </trkpt>
      <trkpt lat="42.789531" lon="-0.156816">
        <ele>2556.231</ele>
        <time>2020-07-24T06:37:56Z</time>
      </trkpt>
      <trkpt lat="42.789555" lon="-0.156877">
        <ele>2554.824</ele>
        <time>2020-07-24T06:38:01Z</time>
      </trkpt>
      <trkpt lat="42.789592" lon="-0.156918">
        <ele>2553.908</ele>
        <time>2020-07-24T06:38:07Z</time>
      </trkpt>
      <trkpt lat="42.789637" lon="-0.156940">
        <ele>2551.784</ele>
        <time>2020-07-24T06:38:12Z</time>
      </trkpt>
      <trkpt lat="42.789687" lon="-0.156974">
        <ele>2551.062</ele>
        <time>2020-07-24T06:38:18Z</time>
      </trkpt>
      <trkpt lat="42.789729" lon="-0.157009">
        <ele>2549.836</ele>
        <time>2020-07-24T06:38:26Z</time>
      </trkpt>
      <trkpt lat="42.789775" lon="-0.157029">
        <ele>2547.759</ele>
        <time>2020-07-24T06:38:36Z</time>
      </trkpt>
      <trkpt lat="42.789819" lon="-0.157042">
        <ele>2546.793</ele>
        <time>2020-07-24T06:38:42Z</time>
      </trkpt>
      <trkpt lat="42.789868" lon="-0.157010">
        <ele>2544.236</ele>
        <time>2020-07-24T06:38:51Z</time>
      </trkpt>
      <trkpt lat="42.789889" lon="-0.156944">
        <ele>2546.566</ele>
        <time>2020-07-24T06:38:57Z</time>
      </trkpt>
      <trkpt lat="42.789907" lon="-0.156882">
        <ele>2544.135</ele>
        <time>2020-07-24T06:39:01Z</time>
      </trkpt>
      <trkpt lat="42.789912" lon="-0.156841">
        <ele>2543.689</ele>
        <time>2020-07-24T06:39:08Z</time>
      </trkpt>
      <trkpt lat="42.789960" lon="-0.156829">
        <ele>2542.506</ele>
        <time>2020-07-24T06:39:15Z</time>
      </trkpt>
      <trkpt lat="42.789987" lon="-0.156795">
        <ele>2540.726</ele>
        <time>2020-07-24T06:39:22Z</time>
      </trkpt>
      <trkpt lat="42.790025" lon="-0.156831">
        <ele>2539.108</ele>
        <time>2020-07-24T06:39:29Z</time>
      </trkpt>
      <trkpt lat="42.790035" lon="-0.156907">
        <ele>2537.823</ele>
        <time>2020-07-24T06:39:34Z</time>
      </trkpt>
      <trkpt lat="42.790084" lon="-0.156931">
        <ele>2537.021</ele>
        <time>2020-07-24T06:39:40Z</time>
      </trkpt>
      <trkpt lat="42.790117" lon="-0.156982">
        <ele>2535.165</ele>
        <time>2020-07-24T06:39:47Z</time>
      </trkpt>
      <trkpt lat="42.790167" lon="-0.156949">
        <ele>2534.398</ele>
        <time>2020-07-24T06:39:54Z</time>
      </trkpt>
      <trkpt lat="42.790209" lon="-0.156941">
        <ele>2532.632</ele>
        <time>2020-07-24T06:39:59Z</time>
      </trkpt>
      <trkpt lat="42.790221" lon="-0.157004">
        <ele>2531.275</ele>
        <time>2020-07-24T06:40:05Z</time>
      </trkpt>
      <trkpt lat="42.790268" lon="-0.157001">
        <ele>2529.955</ele>
        <time>2020-07-24T06:40:12Z</time>
      </trkpt>
      <trkpt lat="42.790316" lon="-0.156993">
        <ele>2527.264</ele>
        <time>2020-07-24T06:40:21Z</time>
      </trkpt>
      <trkpt lat="42.790354" lon="-0.156960">
        <ele>2526.056</ele>
        <time>2020-07-24T06:40:28Z</time>
      </trkpt>
      <trkpt lat="42.790399" lon="-0.156932">
        <ele>2525.959</ele>
        <time>2020-07-24T06:40:32Z</time>
      </trkpt>
      <trkpt lat="42.790448" lon="-0.156926">
        <ele>2523.014</ele>
        <time>2020-07-24T06:40:37Z</time>
      </trkpt>
      <trkpt lat="42.790481" lon="-0.156971">
        <ele>2519.208</ele>
        <time>2020-07-24T06:40:54Z</time>
      </trkpt>
      <trkpt lat="42.790512" lon="-0.157017">
        <ele>2518.930</ele>
        <time>2020-07-24T06:40:59Z</time>
      </trkpt>
      <trkpt lat="42.790495" lon="-0.157075">
        <ele>2517.798</ele>
        <time>2020-07-24T06:41:07Z</time>
      </trkpt>
      <trkpt lat="42.790452" lon="-0.157064">
        <ele>2517.572</ele>
        <time>2020-07-24T06:41:19Z</time>
      </trkpt>
      <trkpt lat="42.790417" lon="-0.157034">
        <ele>2517.565</ele>
        <time>2020-07-24T06:41:29Z</time>
      </trkpt>
      <trkpt lat="42.790378" lon="-0.157058">
        <ele>2514.579</ele>
        <time>2020-07-24T06:42:14Z</time>
      </trkpt>
      <trkpt lat="42.790334" lon="-0.157087">
        <ele>2511.832</ele>
        <time>2020-07-24T06:42:19Z</time>
      </trkpt>
      <trkpt lat="42.790292" lon="-0.157127">
        <ele>2510.322</ele>
        <time>2020-07-24T06:42:25Z</time>
      </trkpt>
      <trkpt lat="42.790250" lon="-0.157164">
        <ele>2509.381</ele>
        <time>2020-07-24T06:42:28Z</time>
      </trkpt>
      <trkpt lat="42.790242" lon="-0.157227">
        <ele>2509.221</ele>
        <time>2020-07-24T06:42:31Z</time>
      </trkpt>
      <trkpt lat="42.790266" lon="-0.157293">
        <ele>2507.041</ele>
        <time>2020-07-24T06:42:36Z</time>
      </trkpt>
      <trkpt lat="42.790264" lon="-0.157356">
        <ele>2506.105</ele>
        <time>2020-07-24T06:42:41Z</time>
      </trkpt>
      <trkpt lat="42.790258" lon="-0.157417">
        <ele>2505.208</ele>
        <time>2020-07-24T06:42:50Z</time>
      </trkpt>
      <trkpt lat="42.790247" lon="-0.157481">
        <ele>2503.597</ele>
        <time>2020-07-24T06:42:56Z</time>
      </trkpt>
      <trkpt lat="42.790255" lon="-0.157553">
        <ele>2501.835</ele>
        <time>2020-07-24T06:43:02Z</time>
      </trkpt>
      <trkpt lat="42.790278" lon="-0.157615">
        <ele>2499.759</ele>
        <time>2020-07-24T06:43:06Z</time>
      </trkpt>
      <trkpt lat="42.790313" lon="-0.157659">
        <ele>2498.432</ele>
        <time>2020-07-24T06:43:09Z</time>
      </trkpt>
      <trkpt lat="42.790356" lon="-0.157691">
        <ele>2497.776</ele>
        <time>2020-07-24T06:43:11Z</time>
      </trkpt>
      <trkpt lat="42.790414" lon="-0.157697">
        <ele>2495.779</ele>
        <time>2020-07-24T06:43:15Z</time>
      </trkpt>
      <trkpt lat="42.790455" lon="-0.157698">
        <ele>2495.969</ele>
        <time>2020-07-24T06:43:19Z</time>
      </trkpt>
      <trkpt lat="42.790487" lon="-0.157744">
        <ele>2493.268</ele>
        <time>2020-07-24T06:43:30Z</time>
      </trkpt>
      <trkpt lat="42.790536" lon="-0.157784">
        <ele>2489.723</ele>
        <time>2020-07-24T06:43:40Z</time>
      </trkpt>
      <trkpt lat="42.790500" lon="-0.157833">
        <ele>2487.383</ele>
        <time>2020-07-24T06:43:49Z</time>
      </trkpt>
      <trkpt lat="42.790449" lon="-0.157822">
        <ele>2486.811</ele>
        <time>2020-07-24T06:43:54Z</time>
      </trkpt>
      <trkpt lat="42.790402" lon="-0.157808">
        <ele>2485.208</ele>
        <time>2020-07-24T06:43:57Z</time>
      </trkpt>
      <trkpt lat="42.790349" lon="-0.157819">
        <ele>2484.297</ele>
        <time>2020-07-24T06:44:02Z</time>
      </trkpt>
      <trkpt lat="42.790319" lon="-0.157872">
        <ele>2482.975</ele>
        <time>2020-07-24T06:44:07Z</time>
      </trkpt>
      <trkpt lat="42.790311" lon="-0.157955">
        <ele>2481.219</ele>
        <time>2020-07-24T06:44:12Z</time>
      </trkpt>
      <trkpt lat="42.790321" lon="-0.158017">
        <ele>2479.022</ele>
        <time>2020-07-24T06:44:18Z</time>
      </trkpt>
      <trkpt lat="42.790316" lon="-0.158090">
        <ele>2476.816</ele>
        <time>2020-07-24T06:44:29Z</time>
      </trkpt>
      <trkpt lat="42.790352" lon="-0.158135">
        <ele>2476.479</ele>
        <time>2020-07-24T06:44:34Z</time>
      </trkpt>
      <trkpt lat="42.790399" lon="-0.158162">
        <ele>2475.319</ele>
        <time>2020-07-24T06:44:39Z</time>
      </trkpt>
      <trkpt lat="42.790446" lon="-0.158167">
        <ele>2474.518</ele>
        <time>2020-07-24T06:44:43Z</time>
      </trkpt>
      <trkpt lat="42.790435" lon="-0.158235">
        <ele>2472.815</ele>
        <time>2020-07-24T06:44:50Z</time>
      </trkpt>
      <trkpt lat="42.790397" lon="-0.158270">
        <ele>2471.565</ele>
        <time>2020-07-24T06:44:53Z</time>
      </trkpt>
      <trkpt lat="42.790345" lon="-0.158278">
        <ele>2471.411</ele>
        <time>2020-07-24T06:44:59Z</time>
      </trkpt>
      <trkpt lat="42.790300" lon="-0.158293">
        <ele>2469.108</ele>
        <time>2020-07-24T06:45:07Z</time>
      </trkpt>
      <trkpt lat="42.790255" lon="-0.158315">
        <ele>2467.236</ele>
        <time>2020-07-24T06:45:14Z</time>
      </trkpt>
      <trkpt lat="42.790215" lon="-0.158346">
        <ele>2465.474</ele>
        <time>2020-07-24T06:45:21Z</time>
      </trkpt>
      <trkpt lat="42.790231" lon="-0.158414">
        <ele>2463.378</ele>
        <time>2020-07-24T06:45:28Z</time>
      </trkpt>
      <trkpt lat="42.790257" lon="-0.158468">
        <ele>2462.631</ele>
        <time>2020-07-24T06:45:33Z</time>
      </trkpt>
      <trkpt lat="42.790306" lon="-0.158522">
        <ele>2461.135</ele>
        <time>2020-07-24T06:45:38Z</time>
      </trkpt>
      <trkpt lat="42.790361" lon="-0.158530">
        <ele>2460.068</ele>
        <time>2020-07-24T06:45:42Z</time>
      </trkpt>
      <trkpt lat="42.790414" lon="-0.158526">
        <ele>2459.088</ele>
        <time>2020-07-24T06:45:45Z</time>
      </trkpt>
      <trkpt lat="42.790423" lon="-0.158592">
        <ele>2457.137</ele>
        <time>2020-07-24T06:45:52Z</time>
      </trkpt>
      <trkpt lat="42.790385" lon="-0.158639">
        <ele>2456.885</ele>
        <time>2020-07-24T06:45:56Z</time>
      </trkpt>
      <trkpt lat="42.790339" lon="-0.158673">
        <ele>2455.589</ele>
        <time>2020-07-24T06:46:02Z</time>
      </trkpt>
      <trkpt lat="42.790287" lon="-0.158703">
        <ele>2454.217</ele>
        <time>2020-07-24T06:46:08Z</time>
      </trkpt>
      <trkpt lat="42.790235" lon="-0.158698">
        <ele>2453.608</ele>
        <time>2020-07-24T06:46:14Z</time>
      </trkpt>
      <trkpt lat="42.790236" lon="-0.158773">
        <ele>2449.933</ele>
        <time>2020-07-24T06:46:27Z</time>
      </trkpt>
      <trkpt lat="42.790266" lon="-0.158815">
        <ele>2448.121</ele>
        <time>2020-07-24T06:46:35Z</time>
      </trkpt>
      <trkpt lat="42.790287" lon="-0.158876">
        <ele>2443.945</ele>
        <time>2020-07-24T06:46:41Z</time>
      </trkpt>
      <trkpt lat="42.790284" lon="-0.158941">
        <ele>2443.838</ele>
        <time>2020-07-24T06:46:46Z</time>
      </trkpt>
      <trkpt lat="42.790278" lon="-0.159015">
        <ele>2442.282</ele>
        <time>2020-07-24T06:46:53Z</time>
      </trkpt>
      <trkpt lat="42.790239" lon="-0.159053">
        <ele>2439.655</ele>
        <time>2020-07-24T06:46:58Z</time>
      </trkpt>
      <trkpt lat="42.790202" lon="-0.159090">
        <ele>2439.165</ele>
        <time>2020-07-24T06:47:03Z</time>
      </trkpt>
      <trkpt lat="42.790169" lon="-0.159143">
        <ele>2436.964</ele>
        <time>2020-07-24T06:47:07Z</time>
      </trkpt>
      <trkpt lat="42.790137" lon="-0.159199">
        <ele>2435.646</ele>
        <time>2020-07-24T06:47:12Z</time>
      </trkpt>
      <trkpt lat="42.790109" lon="-0.159265">
        <ele>2434.188</ele>
        <time>2020-07-24T06:47:18Z</time>
      </trkpt>
      <trkpt lat="42.790115" lon="-0.159333">
        <ele>2431.616</ele>
        <time>2020-07-24T06:47:25Z</time>
      </trkpt>
      <trkpt lat="42.790086" lon="-0.159386">
        <ele>2429.108</ele>
        <time>2020-07-24T06:47:31Z</time>
      </trkpt>
      <trkpt lat="42.790053" lon="-0.159434">
        <ele>2427.799</ele>
        <time>2020-07-24T06:47:37Z</time>
      </trkpt>
      <trkpt lat="42.790013" lon="-0.159480">
        <ele>2425.547</ele>
        <time>2020-07-24T06:47:43Z</time>
      </trkpt>
      <trkpt lat="42.789968" lon="-0.159520">
        <ele>2424.851</ele>
        <time>2020-07-24T06:47:48Z</time>
      </trkpt>
      <trkpt lat="42.789927" lon="-0.159567">
        <ele>2422.234</ele>
        <time>2020-07-24T06:47:54Z</time>
      </trkpt>
      <trkpt lat="42.789907" lon="-0.159625">
        <ele>2421.468</ele>
        <time>2020-07-24T06:47:59Z</time>
      </trkpt>
      <trkpt lat="42.789889" lon="-0.159693">
        <ele>2419.561</ele>
        <time>2020-07-24T06:48:05Z</time>
      </trkpt>
      <trkpt lat="42.789861" lon="-0.159744">
        <ele>2417.221</ele>
        <time>2020-07-24T06:48:10Z</time>
      </trkpt>
      <trkpt lat="42.789865" lon="-0.159812">
        <ele>2415.210</ele>
        <time>2020-07-24T06:48:18Z</time>
      </trkpt>
      <trkpt lat="42.789834" lon="-0.159866">
        <ele>2413.851</ele>
        <time>2020-07-24T06:48:22Z</time>
      </trkpt>
      <trkpt lat="42.789820" lon="-0.159933">
        <ele>2410.901</ele>
        <time>2020-07-24T06:48:30Z</time>
      </trkpt>
      <trkpt lat="42.789769" lon="-0.159955">
        <ele>2410.011</ele>
        <time>2020-07-24T06:48:36Z</time>
      </trkpt>
      <trkpt lat="42.789748" lon="-0.160010">
        <ele>2408.708</ele>
        <time>2020-07-24T06:48:41Z</time>
      </trkpt>
      <trkpt lat="42.789719" lon="-0.160063">
        <ele>2406.320</ele>
        <time>2020-07-24T06:48:47Z</time>
      </trkpt>
      <trkpt lat="42.789682" lon="-0.160100">
        <ele>2405.228</ele>
        <time>2020-07-24T06:48:51Z</time>
      </trkpt>
      <trkpt lat="42.789635" lon="-0.160122">
        <ele>2403.852</ele>
        <time>2020-07-24T06:48:57Z</time>
      </trkpt>
      <trkpt lat="42.789591" lon="-0.160150">
        <ele>2401.675</ele>
        <time>2020-07-24T06:49:05Z</time>
      </trkpt>
      <trkpt lat="42.789563" lon="-0.160205">
        <ele>2400.269</ele>
        <time>2020-07-24T06:49:09Z</time>
      </trkpt>
      <trkpt lat="42.789543" lon="-0.160262">
        <ele>2397.672</ele>
        <time>2020-07-24T06:49:15Z</time>
      </trkpt>
      <trkpt lat="42.789558" lon="-0.160327">
        <ele>2396.312</ele>
        <time>2020-07-24T06:49:41Z</time>
      </trkpt>
      <trkpt lat="42.789549" lon="-0.160402">
        <ele>2395.541</ele>
        <time>2020-07-24T06:49:49Z</time>
      </trkpt>
      <trkpt lat="42.789519" lon="-0.160454">
        <ele>2393.865</ele>
        <time>2020-07-24T06:49:56Z</time>
      </trkpt>
      <trkpt lat="42.789475" lon="-0.160482">
        <ele>2391.468</ele>
        <time>2020-07-24T06:50:02Z</time>
      </trkpt>
      <trkpt lat="42.789431" lon="-0.160519">
        <ele>2390.214</ele>
        <time>2020-07-24T06:50:08Z</time>
      </trkpt>
      <trkpt lat="42.789417" lon="-0.160590">
        <ele>2389.808</ele>
        <time>2020-07-24T06:50:14Z</time>
      </trkpt>
      <trkpt lat="42.789402" lon="-0.160657">
        <ele>2388.741</ele>
        <time>2020-07-24T06:50:19Z</time>
      </trkpt>
      <trkpt lat="42.789386" lon="-0.160731">
        <ele>2387.199</ele>
        <time>2020-07-24T06:50:24Z</time>
      </trkpt>
      <trkpt lat="42.789373" lon="-0.160793">
        <ele>2386.513</ele>
        <time>2020-07-24T06:50:29Z</time>
      </trkpt>
      <trkpt lat="42.789361" lon="-0.160853">
        <ele>2384.866</ele>
        <time>2020-07-24T06:50:33Z</time>
      </trkpt>
      <trkpt lat="42.789347" lon="-0.160923">
        <ele>2385.060</ele>
        <time>2020-07-24T06:50:36Z</time>
      </trkpt>
      <trkpt lat="42.789320" lon="-0.161001">
        <ele>2382.253</ele>
        <time>2020-07-24T06:50:41Z</time>
      </trkpt>
      <trkpt lat="42.789304" lon="-0.161072">
        <ele>2381.243</ele>
        <time>2020-07-24T06:50:45Z</time>
      </trkpt>
      <trkpt lat="42.789303" lon="-0.161145">
        <ele>2381.112</ele>
        <time>2020-07-24T06:50:49Z</time>
      </trkpt>
      <trkpt lat="42.789314" lon="-0.161214">
        <ele>2380.375</ele>
        <time>2020-07-24T06:50:53Z</time>
      </trkpt>
      <trkpt lat="42.789336" lon="-0.161292">
        <ele>2379.028</ele>
        <time>2020-07-24T06:50:57Z</time>
      </trkpt>
      <trkpt lat="42.789340" lon="-0.161376">
        <ele>2377.120</ele>
        <time>2020-07-24T06:51:02Z</time>
      </trkpt>
      <trkpt lat="42.789321" lon="-0.161434">
        <ele>2375.008</ele>
        <time>2020-07-24T06:51:08Z</time>
      </trkpt>
      <trkpt lat="42.789335" lon="-0.161504">
        <ele>2373.712</ele>
        <time>2020-07-24T06:51:15Z</time>
      </trkpt>
      <trkpt lat="42.789352" lon="-0.161568">
        <ele>2373.420</ele>
        <time>2020-07-24T06:51:20Z</time>
      </trkpt>
      <trkpt lat="42.789373" lon="-0.161655">
        <ele>2371.254</ele>
        <time>2020-07-24T06:51:26Z</time>
      </trkpt>
      <trkpt lat="42.789376" lon="-0.161731">
        <ele>2369.557</ele>
        <time>2020-07-24T06:51:32Z</time>
      </trkpt>
      <trkpt lat="42.789363" lon="-0.161810">
        <ele>2369.771</ele>
        <time>2020-07-24T06:51:37Z</time>
      </trkpt>
      <trkpt lat="42.789340" lon="-0.161878">
        <ele>2368.494</ele>
        <time>2020-07-24T06:51:40Z</time>
      </trkpt>
      <trkpt lat="42.789312" lon="-0.161933">
        <ele>2367.994</ele>
        <time>2020-07-24T06:51:43Z</time>
      </trkpt>
      <trkpt lat="42.789285" lon="-0.162002">
        <ele>2366.023</ele>
        <time>2020-07-24T06:51:48Z</time>
      </trkpt>
      <trkpt lat="42.789242" lon="-0.162056">
        <ele>2365.238</ele>
        <time>2020-07-24T06:51:52Z</time>
      </trkpt>
      <trkpt lat="42.789207" lon="-0.162110">
        <ele>2363.970</ele>
        <time>2020-07-24T06:51:56Z</time>
      </trkpt>
      <trkpt lat="42.789189" lon="-0.162174">
        <ele>2363.417</ele>
        <time>2020-07-24T06:52:00Z</time>
      </trkpt>
      <trkpt lat="42.789177" lon="-0.162266">
        <ele>2363.308</ele>
        <time>2020-07-24T06:52:05Z</time>
      </trkpt>
      <trkpt lat="42.789126" lon="-0.162376">
        <ele>2362.778</ele>
        <time>2020-07-24T06:52:17Z</time>
      </trkpt>
      <trkpt lat="42.789099" lon="-0.162445">
        <ele>2363.946</ele>
        <time>2020-07-24T06:52:21Z</time>
      </trkpt>
      <trkpt lat="42.789085" lon="-0.162507">
        <ele>2363.010</ele>
        <time>2020-07-24T06:52:25Z</time>
      </trkpt>
      <trkpt lat="42.789070" lon="-0.162576">
        <ele>2362.833</ele>
        <time>2020-07-24T06:52:29Z</time>
      </trkpt>
      <trkpt lat="42.789067" lon="-0.162669">
        <ele>2361.887</ele>
        <time>2020-07-24T06:52:34Z</time>
      </trkpt>
      <trkpt lat="42.789040" lon="-0.162733">
        <ele>2362.450</ele>
        <time>2020-07-24T06:52:38Z</time>
      </trkpt>
      <trkpt lat="42.789015" lon="-0.162791">
        <ele>2363.780</ele>
        <time>2020-07-24T06:52:42Z</time>
      </trkpt>
      <trkpt lat="42.788990" lon="-0.162843">
        <ele>2361.959</ele>
        <time>2020-07-24T06:52:46Z</time>
      </trkpt>
      <trkpt lat="42.788952" lon="-0.162881">
        <ele>2362.395</ele>
        <time>2020-07-24T06:52:55Z</time>
      </trkpt>
      <trkpt lat="42.788916" lon="-0.162929">
        <ele>2362.349</ele>
        <time>2020-07-24T06:53:17Z</time>
      </trkpt>
      <trkpt lat="42.788876" lon="-0.162987">
        <ele>2362.323</ele>
        <time>2020-07-24T06:53:21Z</time>
      </trkpt>
      <trkpt lat="42.788851" lon="-0.163045">
        <ele>2362.108</ele>
        <time>2020-07-24T06:53:31Z</time>
      </trkpt>
      <trkpt lat="42.788863" lon="-0.163120">
        <ele>2360.044</ele>
        <time>2020-07-24T06:53:43Z</time>
      </trkpt>
      <trkpt lat="42.788876" lon="-0.163185">
        <ele>2357.392</ele>
        <time>2020-07-24T06:53:47Z</time>
      </trkpt>
      <trkpt lat="42.788891" lon="-0.163248">
        <ele>2356.946</ele>
        <time>2020-07-24T06:53:50Z</time>
      </trkpt>
      <trkpt lat="42.788885" lon="-0.163318">
        <ele>2356.799</ele>
        <time>2020-07-24T06:53:55Z</time>
      </trkpt>
      <trkpt lat="42.788879" lon="-0.163385">
        <ele>2355.783</ele>
        <time>2020-07-24T06:54:00Z</time>
      </trkpt>
      <trkpt lat="42.788851" lon="-0.163443">
        <ele>2356.176</ele>
        <time>2020-07-24T06:54:05Z</time>
      </trkpt>
      <trkpt lat="42.788828" lon="-0.163503">
        <ele>2355.756</ele>
        <time>2020-07-24T06:54:10Z</time>
      </trkpt>
      <trkpt lat="42.788780" lon="-0.163565">
        <ele>2357.545</ele>
        <time>2020-07-24T06:54:15Z</time>
      </trkpt>
      <trkpt lat="42.788741" lon="-0.163615">
        <ele>2355.935</ele>
        <time>2020-07-24T06:54:18Z</time>
      </trkpt>
      <trkpt lat="42.788702" lon="-0.163663">
        <ele>2355.786</ele>
        <time>2020-07-24T06:54:23Z</time>
      </trkpt>
      <trkpt lat="42.788643" lon="-0.163683">
        <ele>2356.714</ele>
        <time>2020-07-24T06:54:27Z</time>
      </trkpt>
      <trkpt lat="42.788610" lon="-0.163731">
        <ele>2356.008</ele>
        <time>2020-07-24T06:54:32Z</time>
      </trkpt>
      <trkpt lat="42.788588" lon="-0.163792">
        <ele>2353.498</ele>
        <time>2020-07-24T06:54:36Z</time>
      </trkpt>
      <trkpt lat="42.788558" lon="-0.163857">
        <ele>2355.696</ele>
        <time>2020-07-24T06:54:43Z</time>
      </trkpt>
      <trkpt lat="42.788546" lon="-0.163927">
        <ele>2355.810</ele>
        <time>2020-07-24T06:54:48Z</time>
      </trkpt>
      <trkpt lat="42.788513" lon="-0.163971">
        <ele>2357.253</ele>
        <time>2020-07-24T06:54:54Z</time>
      </trkpt>
      <trkpt lat="42.788499" lon="-0.164044">
        <ele>2356.657</ele>
        <time>2020-07-24T06:54:58Z</time>
      </trkpt>
      <trkpt lat="42.788475" lon="-0.164119">
        <ele>2356.120</ele>
        <time>2020-07-24T06:55:02Z</time>
      </trkpt>
      <trkpt lat="42.788449" lon="-0.164169">
        <ele>2356.450</ele>
        <time>2020-07-24T06:55:06Z</time>
      </trkpt>
      <trkpt lat="42.788421" lon="-0.164221">
        <ele>2356.449</ele>
        <time>2020-07-24T06:55:10Z</time>
      </trkpt>
      <trkpt lat="42.788406" lon="-0.164293">
        <ele>2357.957</ele>
        <time>2020-07-24T06:55:14Z</time>
      </trkpt>
      <trkpt lat="42.788386" lon="-0.164359">
        <ele>2356.400</ele>
        <time>2020-07-24T06:55:52Z</time>
      </trkpt>
      <trkpt lat="42.788365" lon="-0.164425">
        <ele>2357.620</ele>
        <time>2020-07-24T06:56:00Z</time>
      </trkpt>
      <trkpt lat="42.788335" lon="-0.164478">
        <ele>2358.908</ele>
        <time>2020-07-24T06:56:08Z</time>
      </trkpt>
      <trkpt lat="42.788305" lon="-0.164539">
        <ele>2359.280</ele>
        <time>2020-07-24T06:56:16Z</time>
      </trkpt>
      <trkpt lat="42.788262" lon="-0.164581">
        <ele>2360.378</ele>
        <time>2020-07-24T06:56:24Z</time>
      </trkpt>
      <trkpt lat="42.788232" lon="-0.164631">
        <ele>2360.042</ele>
        <time>2020-07-24T06:56:30Z</time>
      </trkpt>
      <trkpt lat="42.788214" lon="-0.164690">
        <ele>2360.565</ele>
        <time>2020-07-24T06:56:36Z</time>
      </trkpt>
      <trkpt lat="42.788215" lon="-0.164762">
        <ele>2361.279</ele>
        <time>2020-07-24T06:56:46Z</time>
      </trkpt>
      <trkpt lat="42.788190" lon="-0.164818">
        <ele>2360.952</ele>
        <time>2020-07-24T06:57:01Z</time>
      </trkpt>
      <trkpt lat="42.788147" lon="-0.164845">
        <ele>2362.752</ele>
        <time>2020-07-24T06:57:08Z</time>
      </trkpt>
      <trkpt lat="42.788096" lon="-0.164885">
        <ele>2363.171</ele>
        <time>2020-07-24T06:57:13Z</time>
      </trkpt>
      <trkpt lat="42.788044" lon="-0.164900">
        <ele>2361.651</ele>
        <time>2020-07-24T06:57:16Z</time>
      </trkpt>
      <trkpt lat="42.787989" lon="-0.164918">
        <ele>2360.601</ele>
        <time>2020-07-24T06:57:21Z</time>
      </trkpt>
      <trkpt lat="42.787942" lon="-0.164946">
        <ele>2360.111</ele>
        <time>2020-07-24T06:57:26Z</time>
      </trkpt>
      <trkpt lat="42.787894" lon="-0.164978">
        <ele>2359.908</ele>
        <time>2020-07-24T06:57:31Z</time>
      </trkpt>
      <trkpt lat="42.787839" lon="-0.164983">
        <ele>2359.140</ele>
        <time>2020-07-24T06:57:37Z</time>
      </trkpt>
      <trkpt lat="42.787790" lon="-0.164980">
        <ele>2359.128</ele>
        <time>2020-07-24T06:57:41Z</time>
      </trkpt>
      <trkpt lat="42.787742" lon="-0.165004">
        <ele>2357.312</ele>
        <time>2020-07-24T06:57:48Z</time>
      </trkpt>
      <trkpt lat="42.787683" lon="-0.165009">
        <ele>2355.855</ele>
        <time>2020-07-24T06:57:56Z</time>
      </trkpt>
      <trkpt lat="42.787631" lon="-0.165032">
        <ele>2356.219</ele>
        <time>2020-07-24T06:58:00Z</time>
      </trkpt>
      <trkpt lat="42.787592" lon="-0.165072">
        <ele>2356.732</ele>
        <time>2020-07-24T06:58:02Z</time>
      </trkpt>
      <trkpt lat="42.787559" lon="-0.165140">
        <ele>2356.342</ele>
        <time>2020-07-24T06:58:06Z</time>
      </trkpt>
      <trkpt lat="42.787523" lon="-0.165190">
        <ele>2356.371</ele>
        <time>2020-07-24T06:58:10Z</time>
      </trkpt>
      <trkpt lat="42.787465" lon="-0.165229">
        <ele>2355.784</ele>
        <time>2020-07-24T06:58:14Z</time>
      </trkpt>
      <trkpt lat="42.787412" lon="-0.165273">
        <ele>2355.607</ele>
        <time>2020-07-24T06:58:20Z</time>
      </trkpt>
      <trkpt lat="42.787371" lon="-0.165320">
        <ele>2355.517</ele>
        <time>2020-07-24T06:58:24Z</time>
      </trkpt>
      <trkpt lat="42.787323" lon="-0.165328">
        <ele>2355.008</ele>
        <time>2020-07-24T06:58:27Z</time>
      </trkpt>
      <trkpt lat="42.787270" lon="-0.165314">
        <ele>2355.223</ele>
        <time>2020-07-24T06:58:32Z</time>
      </trkpt>
      <trkpt lat="42.787230" lon="-0.165344">
        <ele>2353.551</ele>
        <time>2020-07-24T06:58:35Z</time>
      </trkpt>
      <trkpt lat="42.787177" lon="-0.165378">
        <ele>2353.995</ele>
        <time>2020-07-24T06:58:41Z</time>
      </trkpt>
      <trkpt lat="42.787139" lon="-0.165448">
        <ele>2352.498</ele>
        <time>2020-07-24T06:58:47Z</time>
      </trkpt>
      <trkpt lat="42.787108" lon="-0.165503">
        <ele>2351.322</ele>
        <time>2020-07-24T06:58:52Z</time>
      </trkpt>
      <trkpt lat="42.787069" lon="-0.165543">
        <ele>2351.045</ele>
        <time>2020-07-24T06:58:56Z</time>
      </trkpt>
      <trkpt lat="42.787019" lon="-0.165560">
        <ele>2350.685</ele>
        <time>2020-07-24T06:58:59Z</time>
      </trkpt>
      <trkpt lat="42.786971" lon="-0.165573">
        <ele>2349.814</ele>
        <time>2020-07-24T06:59:03Z</time>
      </trkpt>
      <trkpt lat="42.786930" lon="-0.165538">
        <ele>2349.519</ele>
        <time>2020-07-24T06:59:17Z</time>
      </trkpt>
      <trkpt lat="42.786883" lon="-0.165543">
        <ele>2348.709</ele>
        <time>2020-07-24T06:59:24Z</time>
      </trkpt>
      <trkpt lat="42.786842" lon="-0.165595">
        <ele>2346.419</ele>
        <time>2020-07-24T06:59:28Z</time>
      </trkpt>
      <trkpt lat="42.786783" lon="-0.165655">
        <ele>2345.908</ele>
        <time>2020-07-24T06:59:32Z</time>
      </trkpt>
      <trkpt lat="42.786730" lon="-0.165690">
        <ele>2346.086</ele>
        <time>2020-07-24T06:59:36Z</time>
      </trkpt>
      <trkpt lat="42.786687" lon="-0.165726">
        <ele>2343.964</ele>
        <time>2020-07-24T06:59:40Z</time>
      </trkpt>
      <trkpt lat="42.786678" lon="-0.165791">
        <ele>2344.028</ele>
        <time>2020-07-24T06:59:48Z</time>
      </trkpt>
      <trkpt lat="42.786674" lon="-0.165853">
        <ele>2342.041</ele>
        <time>2020-07-24T07:00:26Z</time>
      </trkpt>
      <trkpt lat="42.786642" lon="-0.165900">
        <ele>2339.865</ele>
        <time>2020-07-24T07:00:31Z</time>
      </trkpt>
      <trkpt lat="42.786603" lon="-0.165975">
        <ele>2338.978</ele>
        <time>2020-07-24T07:00:36Z</time>
      </trkpt>
      <trkpt lat="42.786561" lon="-0.166014">
        <ele>2338.088</ele>
        <time>2020-07-24T07:00:40Z</time>
      </trkpt>
      <trkpt lat="42.786512" lon="-0.166031">
        <ele>2339.177</ele>
        <time>2020-07-24T07:00:43Z</time>
      </trkpt>
      <trkpt lat="42.786453" lon="-0.166061">
        <ele>2337.766</ele>
        <time>2020-07-24T07:00:47Z</time>
      </trkpt>
      <trkpt lat="42.786407" lon="-0.166087">
        <ele>2336.029</ele>
        <time>2020-07-24T07:00:50Z</time>
      </trkpt>
      <trkpt lat="42.786362" lon="-0.166132">
        <ele>2334.921</ele>
        <time>2020-07-24T07:00:54Z</time>
      </trkpt>
      <trkpt lat="42.786315" lon="-0.166183">
        <ele>2335.208</ele>
        <time>2020-07-24T07:00:59Z</time>
      </trkpt>
      <trkpt lat="42.786268" lon="-0.166218">
        <ele>2334.031</ele>
        <time>2020-07-24T07:01:03Z</time>
      </trkpt>
      <trkpt lat="42.786234" lon="-0.166263">
        <ele>2333.559</ele>
        <time>2020-07-24T07:01:06Z</time>
      </trkpt>
      <trkpt lat="42.786192" lon="-0.166301">
        <ele>2332.273</ele>
        <time>2020-07-24T07:01:11Z</time>
      </trkpt>
      <trkpt lat="42.786163" lon="-0.166350">
        <ele>2330.636</ele>
        <time>2020-07-24T07:01:16Z</time>
      </trkpt>
      <trkpt lat="42.786143" lon="-0.166413">
        <ele>2331.160</ele>
        <time>2020-07-24T07:01:21Z</time>
      </trkpt>
      <trkpt lat="42.786106" lon="-0.166468">
        <ele>2329.433</ele>
        <time>2020-07-24T07:01:26Z</time>
      </trkpt>
      <trkpt lat="42.786061" lon="-0.166495">
        <ele>2328.563</ele>
        <time>2020-07-24T07:01:31Z</time>
      </trkpt>
      <trkpt lat="42.786015" lon="-0.166530">
        <ele>2327.562</ele>
        <time>2020-07-24T07:01:35Z</time>
      </trkpt>
      <trkpt lat="42.785962" lon="-0.166559">
        <ele>2326.156</ele>
        <time>2020-07-24T07:01:40Z</time>
      </trkpt>
      <trkpt lat="42.785919" lon="-0.166600">
        <ele>2326.659</ele>
        <time>2020-07-24T07:01:44Z</time>
      </trkpt>
      <trkpt lat="42.785889" lon="-0.166660">
        <ele>2324.014</ele>
        <time>2020-07-24T07:01:49Z</time>
      </trkpt>
      <trkpt lat="42.785848" lon="-0.166692">
        <ele>2324.808</ele>
        <time>2020-07-24T07:02:10Z</time>
      </trkpt>
      <trkpt lat="42.785809" lon="-0.166731">
        <ele>2323.230</ele>
        <time>2020-07-24T07:02:15Z</time>
      </trkpt>
      <trkpt lat="42.785767" lon="-0.166775">
        <ele>2322.938</ele>
        <time>2020-07-24T07:02:19Z</time>
      </trkpt>
      <trkpt lat="42.785726" lon="-0.166808">
        <ele>2322.382</ele>
        <time>2020-07-24T07:02:22Z</time>
      </trkpt>
      <trkpt lat="42.785672" lon="-0.166850">
        <ele>2321.825</ele>
        <time>2020-07-24T07:02:26Z</time>
      </trkpt>
      <trkpt lat="42.785617" lon="-0.166879">
        <ele>2321.959</ele>
        <time>2020-07-24T07:02:29Z</time>
      </trkpt>
      <trkpt lat="42.785570" lon="-0.166906">
        <ele>2320.472</ele>
        <time>2020-07-24T07:02:32Z</time>
      </trkpt>
      <trkpt lat="42.785507" lon="-0.166934">
        <ele>2321.522</ele>
        <time>2020-07-24T07:02:36Z</time>
      </trkpt>
      <trkpt lat="42.785463" lon="-0.166958">
        <ele>2321.231</ele>
        <time>2020-07-24T07:02:39Z</time>
      </trkpt>
      <trkpt lat="42.785401" lon="-0.166977">
        <ele>2321.925</ele>
        <time>2020-07-24T07:02:44Z</time>
      </trkpt>
      <trkpt lat="42.785347" lon="-0.166994">
        <ele>2322.026</ele>
        <time>2020-07-24T07:02:47Z</time>
      </trkpt>
      <trkpt lat="42.785298" lon="-0.167007">
        <ele>2322.708</ele>
        <time>2020-07-24T07:02:51Z</time>
      </trkpt>
      <trkpt lat="42.785244" lon="-0.167031">
        <ele>2320.908</ele>
        <time>2020-07-24T07:02:55Z</time>
      </trkpt>
      <trkpt lat="42.785190" lon="-0.167097">
        <ele>2323.157</ele>
        <time>2020-07-24T07:03:00Z</time>
      </trkpt>
      <trkpt lat="42.785148" lon="-0.167143">
        <ele>2324.665</ele>
        <time>2020-07-24T07:03:03Z</time>
      </trkpt>
      <trkpt lat="42.785096" lon="-0.167199">
        <ele>2324.449</ele>
        <time>2020-07-24T07:03:07Z</time>
      </trkpt>
      <trkpt lat="42.785072" lon="-0.167257">
        <ele>2325.412</ele>
        <time>2020-07-24T07:03:11Z</time>
      </trkpt>
      <trkpt lat="42.785051" lon="-0.167318">
        <ele>2324.916</ele>
        <time>2020-07-24T07:03:14Z</time>
      </trkpt>
      <trkpt lat="42.785007" lon="-0.167350">
        <ele>2323.139</ele>
        <time>2020-07-24T07:03:19Z</time>
      </trkpt>
      <trkpt lat="42.784990" lon="-0.167418">
        <ele>2321.169</ele>
        <time>2020-07-24T07:03:24Z</time>
      </trkpt>
      <trkpt lat="42.784970" lon="-0.167484">
        <ele>2322.278</ele>
        <time>2020-07-24T07:03:29Z</time>
      </trkpt>
      <trkpt lat="42.784947" lon="-0.167547">
        <ele>2322.147</ele>
        <time>2020-07-24T07:03:34Z</time>
      </trkpt>
      <trkpt lat="42.784915" lon="-0.167592">
        <ele>2320.329</ele>
        <time>2020-07-24T07:03:38Z</time>
      </trkpt>
      <trkpt lat="42.784884" lon="-0.167643">
        <ele>2318.821</ele>
        <time>2020-07-24T07:03:42Z</time>
      </trkpt>
      <trkpt lat="42.784845" lon="-0.167689">
        <ele>2318.408</ele>
        <time>2020-07-24T07:03:47Z</time>
      </trkpt>
      <trkpt lat="42.784794" lon="-0.167730">
        <ele>2318.669</ele>
        <time>2020-07-24T07:03:52Z</time>
      </trkpt>
      <trkpt lat="42.784762" lon="-0.167778">
        <ele>2318.347</ele>
        <time>2020-07-24T07:03:56Z</time>
      </trkpt>
      <trkpt lat="42.784734" lon="-0.167830">
        <ele>2319.151</ele>
        <time>2020-07-24T07:04:00Z</time>
      </trkpt>
      <trkpt lat="42.784690" lon="-0.167869">
        <ele>2317.084</ele>
        <time>2020-07-24T07:04:14Z</time>
      </trkpt>
      <trkpt lat="42.784647" lon="-0.167901">
        <ele>2315.558</ele>
        <time>2020-07-24T07:04:19Z</time>
      </trkpt>
      <trkpt lat="42.784603" lon="-0.167927">
        <ele>2316.271</ele>
        <time>2020-07-24T07:04:26Z</time>
      </trkpt>
      <trkpt lat="42.784553" lon="-0.167929">
        <ele>2315.551</ele>
        <time>2020-07-24T07:04:31Z</time>
      </trkpt>
      <trkpt lat="42.784507" lon="-0.167951">
        <ele>2317.370</ele>
        <time>2020-07-24T07:04:37Z</time>
      </trkpt>
      <trkpt lat="42.784451" lon="-0.167966">
        <ele>2316.826</ele>
        <time>2020-07-24T07:04:42Z</time>
      </trkpt>
      <trkpt lat="42.784394" lon="-0.167991">
        <ele>2317.547</ele>
        <time>2020-07-24T07:04:46Z</time>
      </trkpt>
      <trkpt lat="42.784340" lon="-0.168013">
        <ele>2318.911</ele>
        <time>2020-07-24T07:04:50Z</time>
      </trkpt>
      <trkpt lat="42.784293" lon="-0.168031">
        <ele>2317.408</ele>
        <time>2020-07-24T07:04:54Z</time>
      </trkpt>
      <trkpt lat="42.784244" lon="-0.168064">
        <ele>2319.227</ele>
        <time>2020-07-24T07:04:57Z</time>
      </trkpt>
      <trkpt lat="42.784203" lon="-0.168098">
        <ele>2319.285</ele>
        <time>2020-07-24T07:05:01Z</time>
      </trkpt>
      <trkpt lat="42.784151" lon="-0.168122">
        <ele>2319.459</ele>
        <time>2020-07-24T07:05:04Z</time>
      </trkpt>
      <trkpt lat="42.784092" lon="-0.168134">
        <ele>2318.552</ele>
        <time>2020-07-24T07:05:07Z</time>
      </trkpt>
      <trkpt lat="42.784032" lon="-0.168152">
        <ele>2319.426</ele>
        <time>2020-07-24T07:05:11Z</time>
      </trkpt>
      <trkpt lat="42.783984" lon="-0.168165">
        <ele>2319.079</ele>
        <time>2020-07-24T07:05:14Z</time>
      </trkpt>
      <trkpt lat="42.783927" lon="-0.168180">
        <ele>2319.179</ele>
        <time>2020-07-24T07:05:19Z</time>
      </trkpt>
      <trkpt lat="42.783881" lon="-0.168196">
        <ele>2317.838</ele>
        <time>2020-07-24T07:05:22Z</time>
      </trkpt>
      <trkpt lat="42.783828" lon="-0.168225">
        <ele>2319.778</ele>
        <time>2020-07-24T07:05:27Z</time>
      </trkpt>
      <trkpt lat="42.783775" lon="-0.168238">
        <ele>2319.433</ele>
        <time>2020-07-24T07:05:30Z</time>
      </trkpt>
      <trkpt lat="42.783729" lon="-0.168233">
        <ele>2318.226</ele>
        <time>2020-07-24T07:05:34Z</time>
      </trkpt>
      <trkpt lat="42.783673" lon="-0.168232">
        <ele>2317.908</ele>
        <time>2020-07-24T07:05:38Z</time>
      </trkpt>
      <trkpt lat="42.783628" lon="-0.168229">
        <ele>2318.782</ele>
        <time>2020-07-24T07:05:41Z</time>
      </trkpt>
      <trkpt lat="42.783580" lon="-0.168215">
        <ele>2317.790</ele>
        <time>2020-07-24T07:05:45Z</time>
      </trkpt>
      <trkpt lat="42.783529" lon="-0.168212">
        <ele>2318.814</ele>
        <time>2020-07-24T07:05:49Z</time>
      </trkpt>
      <trkpt lat="42.783477" lon="-0.168204">
        <ele>2318.337</ele>
        <time>2020-07-24T07:05:53Z</time>
      </trkpt>
      <trkpt lat="42.783422" lon="-0.168183">
        <ele>2319.481</ele>
        <time>2020-07-24T07:05:58Z</time>
      </trkpt>
      <trkpt lat="42.783377" lon="-0.168166">
        <ele>2318.764</ele>
        <time>2020-07-24T07:06:01Z</time>
      </trkpt>
      <trkpt lat="42.783333" lon="-0.168155">
        <ele>2317.774</ele>
        <time>2020-07-24T07:06:04Z</time>
      </trkpt>
      <trkpt lat="42.783281" lon="-0.168142">
        <ele>2319.173</ele>
        <time>2020-07-24T07:06:09Z</time>
      </trkpt>
      <trkpt lat="42.783227" lon="-0.168153">
        <ele>2317.934</ele>
        <time>2020-07-24T07:06:15Z</time>
      </trkpt>
      <trkpt lat="42.783179" lon="-0.168152">
        <ele>2316.655</ele>
        <time>2020-07-24T07:06:20Z</time>
      </trkpt>
      <trkpt lat="42.783130" lon="-0.168129">
        <ele>2313.610</ele>
        <time>2020-07-24T07:06:24Z</time>
      </trkpt>
      <trkpt lat="42.783068" lon="-0.168147">
        <ele>2310.608</ele>
        <time>2020-07-24T07:06:29Z</time>
      </trkpt>
      <trkpt lat="42.783028" lon="-0.168182">
        <ele>2310.668</ele>
        <time>2020-07-24T07:06:33Z</time>
      </trkpt>
      <trkpt lat="42.782981" lon="-0.168210">
        <ele>2309.886</ele>
        <time>2020-07-24T07:06:36Z</time>
      </trkpt>
      <trkpt lat="42.782920" lon="-0.168219">
        <ele>2311.210</ele>
        <time>2020-07-24T07:06:41Z</time>
      </trkpt>
      <trkpt lat="42.782869" lon="-0.168203">
        <ele>2310.433</ele>
        <time>2020-07-24T07:06:46Z</time>
      </trkpt>
      <trkpt lat="42.782823" lon="-0.168189">
        <ele>2308.987</ele>
        <time>2020-07-24T07:06:50Z</time>
      </trkpt>
      <trkpt lat="42.782771" lon="-0.168174">
        <ele>2308.670</ele>
        <time>2020-07-24T07:06:54Z</time>
      </trkpt>
      <trkpt lat="42.782724" lon="-0.168159">
        <ele>2307.980</ele>
        <time>2020-07-24T07:06:58Z</time>
      </trkpt>
      <trkpt lat="42.782667" lon="-0.168141">
        <ele>2306.749</ele>
        <time>2020-07-24T07:07:02Z</time>
      </trkpt>
      <trkpt lat="42.782619" lon="-0.168131">
        <ele>2308.198</ele>
        <time>2020-07-24T07:07:05Z</time>
      </trkpt>
      <trkpt lat="42.782562" lon="-0.168127">
        <ele>2306.315</ele>
        <time>2020-07-24T07:07:09Z</time>
      </trkpt>
      <trkpt lat="42.782504" lon="-0.168145">
        <ele>2305.926</ele>
        <time>2020-07-24T07:07:11Z</time>
      </trkpt>
      <trkpt lat="42.782453" lon="-0.168143">
        <ele>2306.608</ele>
        <time>2020-07-24T07:07:15Z</time>
      </trkpt>
      <trkpt lat="42.782407" lon="-0.168125">
        <ele>2303.724</ele>
        <time>2020-07-24T07:07:19Z</time>
      </trkpt>
      <trkpt lat="42.782350" lon="-0.168129">
        <ele>2305.482</ele>
        <time>2020-07-24T07:07:23Z</time>
      </trkpt>
      <trkpt lat="42.782305" lon="-0.168140">
        <ele>2305.396</ele>
        <time>2020-07-24T07:07:26Z</time>
      </trkpt>
      <trkpt lat="42.782253" lon="-0.168165">
        <ele>2303.399</ele>
        <time>2020-07-24T07:07:29Z</time>
      </trkpt>
      <trkpt lat="42.782207" lon="-0.168196">
        <ele>2303.973</ele>
        <time>2020-07-24T07:07:33Z</time>
      </trkpt>
      <trkpt lat="42.782153" lon="-0.168239">
        <ele>2302.416</ele>
        <time>2020-07-24T07:07:37Z</time>
      </trkpt>
      <trkpt lat="42.782106" lon="-0.168258">
        <ele>2300.736</ele>
        <time>2020-07-24T07:07:40Z</time>
      </trkpt>
      <trkpt lat="42.782051" lon="-0.168267">
        <ele>2302.295</ele>
        <time>2020-07-24T07:07:45Z</time>
      </trkpt>
      <trkpt lat="42.782001" lon="-0.168270">
        <ele>2300.839</ele>
        <time>2020-07-24T07:07:48Z</time>
      </trkpt>
      <trkpt lat="42.781941" lon="-0.168278">
        <ele>2299.401</ele>
        <time>2020-07-24T07:07:52Z</time>
      </trkpt>
      <trkpt lat="42.781891" lon="-0.168255">
        <ele>2300.821</ele>
        <time>2020-07-24T07:07:55Z</time>
      </trkpt>
      <trkpt lat="42.781828" lon="-0.168222">
        <ele>2300.508</ele>
        <time>2020-07-24T07:07:59Z</time>
      </trkpt>
      <trkpt lat="42.781784" lon="-0.168206">
        <ele>2299.638</ele>
        <time>2020-07-24T07:08:02Z</time>
      </trkpt>
      <trkpt lat="42.781742" lon="-0.168183">
        <ele>2299.426</ele>
        <time>2020-07-24T07:08:27Z</time>
      </trkpt>
      <trkpt lat="42.781681" lon="-0.168176">
        <ele>2297.050</ele>
        <time>2020-07-24T07:08:32Z</time>
      </trkpt>
      <trkpt lat="42.781628" lon="-0.168174">
        <ele>2296.233</ele>
        <time>2020-07-24T07:08:36Z</time>
      </trkpt>
      <trkpt lat="42.781579" lon="-0.168181">
        <ele>2296.647</ele>
        <time>2020-07-24T07:08:39Z</time>
      </trkpt>
      <trkpt lat="42.781521" lon="-0.168199">
        <ele>2297.240</ele>
        <time>2020-07-24T07:08:43Z</time>
      </trkpt>
      <trkpt lat="42.781470" lon="-0.168210">
        <ele>2295.590</ele>
        <time>2020-07-24T07:08:47Z</time>
      </trkpt>
      <trkpt lat="42.781416" lon="-0.168216">
        <ele>2295.619</ele>
        <time>2020-07-24T07:08:51Z</time>
      </trkpt>
      <trkpt lat="42.781369" lon="-0.168220">
        <ele>2294.242</ele>
        <time>2020-07-24T07:08:55Z</time>
      </trkpt>
      <trkpt lat="42.781318" lon="-0.168218">
        <ele>2294.822</ele>
        <time>2020-07-24T07:09:01Z</time>
      </trkpt>
      <trkpt lat="42.781263" lon="-0.168235">
        <ele>2295.514</ele>
        <time>2020-07-24T07:09:06Z</time>
      </trkpt>
      <trkpt lat="42.781203" lon="-0.168254">
        <ele>2294.008</ele>
        <time>2020-07-24T07:09:10Z</time>
      </trkpt>
      <trkpt lat="42.781150" lon="-0.168243">
        <ele>2292.359</ele>
        <time>2020-07-24T07:09:14Z</time>
      </trkpt>
      <trkpt lat="42.781091" lon="-0.168238">
        <ele>2291.867</ele>
        <time>2020-07-24T07:09:18Z</time>
      </trkpt>
      <trkpt lat="42.781033" lon="-0.168245">
        <ele>2290.341</ele>
        <time>2020-07-24T07:09:22Z</time>
      </trkpt>
      <trkpt lat="42.780985" lon="-0.168267">
        <ele>2290.864</ele>
        <time>2020-07-24T07:09:26Z</time>
      </trkpt>
      <trkpt lat="42.780953" lon="-0.168308">
        <ele>2289.178</ele>
        <time>2020-07-24T07:09:30Z</time>
      </trkpt>
      <trkpt lat="42.780906" lon="-0.168300">
        <ele>2287.111</ele>
        <time>2020-07-24T07:09:37Z</time>
      </trkpt>
      <trkpt lat="42.780872" lon="-0.168260">
        <ele>2285.211</ele>
        <time>2020-07-24T07:09:43Z</time>
      </trkpt>
      <trkpt lat="42.780832" lon="-0.168227">
        <ele>2284.320</ele>
        <time>2020-07-24T07:09:51Z</time>
      </trkpt>
      <trkpt lat="42.780789" lon="-0.168192">
        <ele>2282.978</ele>
        <time>2020-07-24T07:09:58Z</time>
      </trkpt>
      <trkpt lat="42.780743" lon="-0.168179">
        <ele>2280.933</ele>
        <time>2020-07-24T07:10:02Z</time>
      </trkpt>
      <trkpt lat="42.780687" lon="-0.168174">
        <ele>2279.426</ele>
        <time>2020-07-24T07:10:07Z</time>
      </trkpt>
      <trkpt lat="42.780633" lon="-0.168170">
        <ele>2276.408</ele>
        <time>2020-07-24T07:10:13Z</time>
      </trkpt>
      <trkpt lat="42.780581" lon="-0.168181">
        <ele>2276.692</ele>
        <time>2020-07-24T07:10:18Z</time>
      </trkpt>
      <trkpt lat="42.780534" lon="-0.168169">
        <ele>2273.980</ele>
        <time>2020-07-24T07:10:24Z</time>
      </trkpt>
      <trkpt lat="42.780483" lon="-0.168170">
        <ele>2272.644</ele>
        <time>2020-07-24T07:10:29Z</time>
      </trkpt>
      <trkpt lat="42.780437" lon="-0.168206">
        <ele>2270.387</ele>
        <time>2020-07-24T07:10:34Z</time>
      </trkpt>
      <trkpt lat="42.780393" lon="-0.168218">
        <ele>2270.881</ele>
        <time>2020-07-24T07:10:39Z</time>
      </trkpt>
      <trkpt lat="42.780350" lon="-0.168179">
        <ele>2269.344</ele>
        <time>2020-07-24T07:10:45Z</time>
      </trkpt>
      <trkpt lat="42.780312" lon="-0.168139">
        <ele>2269.964</ele>
        <time>2020-07-24T07:10:49Z</time>
      </trkpt>
      <trkpt lat="42.780288" lon="-0.168082">
        <ele>2269.753</ele>
        <time>2020-07-24T07:10:53Z</time>
      </trkpt>
      <trkpt lat="42.780277" lon="-0.168020">
        <ele>2268.748</ele>
        <time>2020-07-24T07:10:55Z</time>
      </trkpt>
      <trkpt lat="42.780273" lon="-0.167947">
        <ele>2269.361</ele>
        <time>2020-07-24T07:10:59Z</time>
      </trkpt>
      <trkpt lat="42.780256" lon="-0.167883">
        <ele>2270.417</ele>
        <time>2020-07-24T07:11:03Z</time>
      </trkpt>
      <trkpt lat="42.780228" lon="-0.167832">
        <ele>2269.408</ele>
        <time>2020-07-24T07:11:06Z</time>
      </trkpt>
      <trkpt lat="42.780182" lon="-0.167786">
        <ele>2270.899</ele>
        <time>2020-07-24T07:11:10Z</time>
      </trkpt>
      <trkpt lat="42.780140" lon="-0.167749">
        <ele>2271.617</ele>
        <time>2020-07-24T07:11:13Z</time>
      </trkpt>
      <trkpt lat="42.780116" lon="-0.167690">
        <ele>2272.241</ele>
        <time>2020-07-24T07:11:19Z</time>
      </trkpt>
      <trkpt lat="42.780078" lon="-0.167634">
        <ele>2272.314</ele>
        <time>2020-07-24T07:11:24Z</time>
      </trkpt>
      <trkpt lat="42.780039" lon="-0.167585">
        <ele>2269.958</ele>
        <time>2020-07-24T07:11:28Z</time>
      </trkpt>
      <trkpt lat="42.779989" lon="-0.167563">
        <ele>2270.351</ele>
        <time>2020-07-24T07:11:32Z</time>
      </trkpt>
      <trkpt lat="42.779942" lon="-0.167558">
        <ele>2269.641</ele>
        <time>2020-07-24T07:11:35Z</time>
      </trkpt>
      <trkpt lat="42.779892" lon="-0.167552">
        <ele>2269.260</ele>
        <time>2020-07-24T07:11:39Z</time>
      </trkpt>
      <trkpt lat="42.779845" lon="-0.167568">
        <ele>2269.419</ele>
        <time>2020-07-24T07:11:43Z</time>
      </trkpt>
      <trkpt lat="42.779783" lon="-0.167569">
        <ele>2268.609</ele>
        <time>2020-07-24T07:11:49Z</time>
      </trkpt>
      <trkpt lat="42.779727" lon="-0.167575">
        <ele>2267.619</ele>
        <time>2020-07-24T07:11:53Z</time>
      </trkpt>
      <trkpt lat="42.779676" lon="-0.167585">
        <ele>2266.308</ele>
        <time>2020-07-24T07:11:57Z</time>
      </trkpt>
      <trkpt lat="42.779625" lon="-0.167586">
        <ele>2268.096</ele>
        <time>2020-07-24T07:12:01Z</time>
      </trkpt>
      <trkpt lat="42.779581" lon="-0.167578">
        <ele>2267.514</ele>
        <time>2020-07-24T07:12:06Z</time>
      </trkpt>
      <trkpt lat="42.779533" lon="-0.167580">
        <ele>2266.798</ele>
        <time>2020-07-24T07:12:10Z</time>
      </trkpt>
      <trkpt lat="42.779486" lon="-0.167570">
        <ele>2264.271</ele>
        <time>2020-07-24T07:12:14Z</time>
      </trkpt>
      <trkpt lat="42.779437" lon="-0.167562">
        <ele>2264.235</ele>
        <time>2020-07-24T07:12:19Z</time>
      </trkpt>
      <trkpt lat="42.779391" lon="-0.167541">
        <ele>2265.018</ele>
        <time>2020-07-24T07:12:24Z</time>
      </trkpt>
      <trkpt lat="42.779348" lon="-0.167556">
        <ele>2264.168</ele>
        <time>2020-07-24T07:12:42Z</time>
      </trkpt>
      <trkpt lat="42.779309" lon="-0.167561">
        <ele>2264.247</ele>
        <time>2020-07-24T07:12:50Z</time>
      </trkpt>
      <trkpt lat="42.779266" lon="-0.167533">
        <ele>2263.028</ele>
        <time>2020-07-24T07:12:53Z</time>
      </trkpt>
      <trkpt lat="42.779216" lon="-0.167525">
        <ele>2262.989</ele>
        <time>2020-07-24T07:12:56Z</time>
      </trkpt>
      <trkpt lat="42.779169" lon="-0.167529">
        <ele>2262.817</ele>
        <time>2020-07-24T07:12:59Z</time>
      </trkpt>
      <trkpt lat="42.779121" lon="-0.167528">
        <ele>2261.608</ele>
        <time>2020-07-24T07:13:01Z</time>
      </trkpt>
      <trkpt lat="42.779060" lon="-0.167543">
        <ele>2260.617</ele>
        <time>2020-07-24T07:13:05Z</time>
      </trkpt>
      <trkpt lat="42.779003" lon="-0.167557">
        <ele>2258.935</ele>
        <time>2020-07-24T07:13:08Z</time>
      </trkpt>
      <trkpt lat="42.778959" lon="-0.167573">
        <ele>2258.739</ele>
        <time>2020-07-24T07:13:11Z</time>
      </trkpt>
      <trkpt lat="42.778923" lon="-0.167611">
        <ele>2258.162</ele>
        <time>2020-07-24T07:13:13Z</time>
      </trkpt>
      <trkpt lat="42.778872" lon="-0.167642">
        <ele>2258.756</ele>
        <time>2020-07-24T07:13:17Z</time>
      </trkpt>
      <trkpt lat="42.778825" lon="-0.167668">
        <ele>2256.479</ele>
        <time>2020-07-24T07:13:21Z</time>
      </trkpt>
      <trkpt lat="42.778787" lon="-0.167715">
        <ele>2256.399</ele>
        <time>2020-07-24T07:13:25Z</time>
      </trkpt>
      <trkpt lat="42.778747" lon="-0.167755">
        <ele>2256.918</ele>
        <time>2020-07-24T07:13:28Z</time>
      </trkpt>
      <trkpt lat="42.778689" lon="-0.167791">
        <ele>2256.758</ele>
        <time>2020-07-24T07:13:33Z</time>
      </trkpt>
      <trkpt lat="42.778629" lon="-0.167807">
        <ele>2255.152</ele>
        <time>2020-07-24T07:13:38Z</time>
      </trkpt>
      <trkpt lat="42.778582" lon="-0.167810">
        <ele>2254.617</ele>
        <time>2020-07-24T07:13:42Z</time>
      </trkpt>
      <trkpt lat="42.778525" lon="-0.167804">
        <ele>2253.408</ele>
        <time>2020-07-24T07:13:46Z</time>
      </trkpt>
      <trkpt lat="42.778480" lon="-0.167807">
        <ele>2252.950</ele>
        <time>2020-07-24T07:13:49Z</time>
      </trkpt>
      <trkpt lat="42.778432" lon="-0.167821">
        <ele>2252.868</ele>
        <time>2020-07-24T07:13:53Z</time>
      </trkpt>
      <trkpt lat="42.778371" lon="-0.167831">
        <ele>2252.632</ele>
        <time>2020-07-24T07:13:57Z</time>
      </trkpt>
      <trkpt lat="42.778325" lon="-0.167846">
        <ele>2252.075</ele>
        <time>2020-07-24T07:14:02Z</time>
      </trkpt>
      <trkpt lat="42.778272" lon="-0.167859">
        <ele>2250.939</ele>
        <time>2020-07-24T07:14:06Z</time>
      </trkpt>
      <trkpt lat="42.778220" lon="-0.167861">
        <ele>2251.672</ele>
        <time>2020-07-24T07:14:10Z</time>
      </trkpt>
      <trkpt lat="42.778175" lon="-0.167865">
        <ele>2250.832</ele>
        <time>2020-07-24T07:14:14Z</time>
      </trkpt>
      <trkpt lat="42.778121" lon="-0.167867">
        <ele>2250.961</ele>
        <time>2020-07-24T07:14:18Z</time>
      </trkpt>
      <trkpt lat="42.778077" lon="-0.167880">
        <ele>2249.058</ele>
        <time>2020-07-24T07:14:22Z</time>
      </trkpt>
      <trkpt lat="42.778028" lon="-0.167893">
        <ele>2249.352</ele>
        <time>2020-07-24T07:14:26Z</time>
      </trkpt>
      <trkpt lat="42.777980" lon="-0.167872">
        <ele>2249.417</ele>
        <time>2020-07-24T07:14:30Z</time>
      </trkpt>
      <trkpt lat="42.777925" lon="-0.167880">
        <ele>2246.508</ele>
        <time>2020-07-24T07:14:34Z</time>
      </trkpt>
      <trkpt lat="42.777879" lon="-0.167886">
        <ele>2245.240</ele>
        <time>2020-07-24T07:14:38Z</time>
      </trkpt>
      <trkpt lat="42.777835" lon="-0.167936">
        <ele>2244.558</ele>
        <time>2020-07-24T07:14:42Z</time>
      </trkpt>
      <trkpt lat="42.777806" lon="-0.168006">
        <ele>2246.042</ele>
        <time>2020-07-24T07:14:48Z</time>
      </trkpt>
      <trkpt lat="42.777762" lon="-0.168036">
        <ele>2245.845</ele>
        <time>2020-07-24T07:14:53Z</time>
      </trkpt>
      <trkpt lat="42.777713" lon="-0.168062">
        <ele>2245.639</ele>
        <time>2020-07-24T07:14:57Z</time>
      </trkpt>
      <trkpt lat="42.777667" lon="-0.168083">
        <ele>2245.272</ele>
        <time>2020-07-24T07:15:01Z</time>
      </trkpt>
      <trkpt lat="42.777610" lon="-0.168090">
        <ele>2244.782</ele>
        <time>2020-07-24T07:15:05Z</time>
      </trkpt>
      <trkpt lat="42.777550" lon="-0.168095">
        <ele>2242.991</ele>
        <time>2020-07-24T07:15:10Z</time>
      </trkpt>
      <trkpt lat="42.777501" lon="-0.168094">
        <ele>2244.468</ele>
        <time>2020-07-24T07:15:13Z</time>
      </trkpt>
      <trkpt lat="42.777450" lon="-0.168113">
        <ele>2245.242</ele>
        <time>2020-07-24T07:15:17Z</time>
      </trkpt>
      <trkpt lat="42.777391" lon="-0.168138">
        <ele>2243.826</ele>
        <time>2020-07-24T07:15:22Z</time>
      </trkpt>
      <trkpt lat="42.777342" lon="-0.168153">
        <ele>2243.508</ele>
        <time>2020-07-24T07:15:25Z</time>
      </trkpt>
      <trkpt lat="42.777297" lon="-0.168166">
        <ele>2242.561</ele>
        <time>2020-07-24T07:15:29Z</time>
      </trkpt>
      <trkpt lat="42.777255" lon="-0.168201">
        <ele>2242.749</ele>
        <time>2020-07-24T07:15:33Z</time>
      </trkpt>
      <trkpt lat="42.777211" lon="-0.168244">
        <ele>2243.813</ele>
        <time>2020-07-24T07:15:36Z</time>
      </trkpt>
      <trkpt lat="42.777147" lon="-0.168287">
        <ele>2242.986</ele>
        <time>2020-07-24T07:15:41Z</time>
      </trkpt>
      <trkpt lat="42.777101" lon="-0.168318">
        <ele>2243.710</ele>
        <time>2020-07-24T07:15:46Z</time>
      </trkpt>
      <trkpt lat="42.777064" lon="-0.168355">
        <ele>2243.533</ele>
        <time>2020-07-24T07:15:50Z</time>
      </trkpt>
      <trkpt lat="42.777021" lon="-0.168411">
        <ele>2241.753</ele>
        <time>2020-07-24T07:15:54Z</time>
      </trkpt>
      <trkpt lat="42.776984" lon="-0.168454">
        <ele>2243.382</ele>
        <time>2020-07-24T07:15:58Z</time>
      </trkpt>
      <trkpt lat="42.776937" lon="-0.168497">
        <ele>2243.683</ele>
        <time>2020-07-24T07:16:03Z</time>
      </trkpt>
      <trkpt lat="42.776829" lon="-0.168543">
        <ele>2241.925</ele>
        <time>2020-07-24T07:16:12Z</time>
      </trkpt>
      <trkpt lat="42.776775" lon="-0.168571">
        <ele>2242.417</ele>
        <time>2020-07-24T07:16:17Z</time>
      </trkpt>
      <trkpt lat="42.776715" lon="-0.168597">
        <ele>2241.208</ele>
        <time>2020-07-24T07:16:21Z</time>
      </trkpt>
      <trkpt lat="42.776660" lon="-0.168620">
        <ele>2241.043</ele>
        <time>2020-07-24T07:16:24Z</time>
      </trkpt>
      <trkpt lat="42.776606" lon="-0.168654">
        <ele>2240.451</ele>
        <time>2020-07-24T07:16:30Z</time>
      </trkpt>
      <trkpt lat="42.776560" lon="-0.168644">
        <ele>2240.125</ele>
        <time>2020-07-24T07:16:34Z</time>
      </trkpt>
      <trkpt lat="42.776507" lon="-0.168644">
        <ele>2239.388</ele>
        <time>2020-07-24T07:16:38Z</time>
      </trkpt>
      <trkpt lat="42.776465" lon="-0.168673">
        <ele>2238.612</ele>
        <time>2020-07-24T07:16:43Z</time>
      </trkpt>
      <trkpt lat="42.776415" lon="-0.168684">
        <ele>2238.155</ele>
        <time>2020-07-24T07:16:47Z</time>
      </trkpt>
      <trkpt lat="42.776350" lon="-0.168667">
        <ele>2237.215</ele>
        <time>2020-07-24T07:16:51Z</time>
      </trkpt>
      <trkpt lat="42.776302" lon="-0.168667">
        <ele>2237.784</ele>
        <time>2020-07-24T07:16:55Z</time>
      </trkpt>
      <trkpt lat="42.776239" lon="-0.168687">
        <ele>2238.073</ele>
        <time>2020-07-24T07:17:00Z</time>
      </trkpt>
      <trkpt lat="42.776192" lon="-0.168705">
        <ele>2236.785</ele>
        <time>2020-07-24T07:17:04Z</time>
      </trkpt>
      <trkpt lat="42.776146" lon="-0.168680">
        <ele>2235.913</ele>
        <time>2020-07-24T07:17:10Z</time>
      </trkpt>
      <trkpt lat="42.776101" lon="-0.168680">
        <ele>2235.808</ele>
        <time>2020-07-24T07:17:17Z</time>
      </trkpt>
      <trkpt lat="42.776056" lon="-0.168699">
        <ele>2235.252</ele>
        <time>2020-07-24T07:17:36Z</time>
      </trkpt>
      <trkpt lat="42.776009" lon="-0.168708">
        <ele>2236.040</ele>
        <time>2020-07-24T07:17:41Z</time>
      </trkpt>
      <trkpt lat="42.775958" lon="-0.168705">
        <ele>2232.474</ele>
        <time>2020-07-24T07:17:45Z</time>
      </trkpt>
      <trkpt lat="42.775913" lon="-0.168698">
        <ele>2233.277</ele>
        <time>2020-07-24T07:17:48Z</time>
      </trkpt>
      <trkpt lat="42.775852" lon="-0.168679">
        <ele>2234.031</ele>
        <time>2020-07-24T07:17:53Z</time>
      </trkpt>
      <trkpt lat="42.775796" lon="-0.168671">
        <ele>2233.124</ele>
        <time>2020-07-24T07:17:57Z</time>
      </trkpt>
      <trkpt lat="42.775740" lon="-0.168661">
        <ele>2232.454</ele>
        <time>2020-07-24T07:18:00Z</time>
      </trkpt>
      <trkpt lat="42.775677" lon="-0.168655">
        <ele>2231.983</ele>
        <time>2020-07-24T07:18:04Z</time>
      </trkpt>
      <trkpt lat="42.775625" lon="-0.168657">
        <ele>2230.752</ele>
        <time>2020-07-24T07:18:08Z</time>
      </trkpt>
      <trkpt lat="42.775562" lon="-0.168664">
        <ele>2231.653</ele>
        <time>2020-07-24T07:18:12Z</time>
      </trkpt>
      <trkpt lat="42.775518" lon="-0.168679">
        <ele>2231.208</ele>
        <time>2020-07-24T07:18:14Z</time>
      </trkpt>
      <trkpt lat="42.775467" lon="-0.168706">
        <ele>2230.008</ele>
        <time>2020-07-24T07:18:18Z</time>
      </trkpt>
      <trkpt lat="42.775424" lon="-0.168732">
        <ele>2229.570</ele>
        <time>2020-07-24T07:18:21Z</time>
      </trkpt>
      <trkpt lat="42.775373" lon="-0.168758">
        <ele>2230.868</ele>
        <time>2020-07-24T07:18:25Z</time>
      </trkpt>
      <trkpt lat="42.775323" lon="-0.168765">
        <ele>2230.192</ele>
        <time>2020-07-24T07:18:28Z</time>
      </trkpt>
      <trkpt lat="42.775262" lon="-0.168757">
        <ele>2229.675</ele>
        <time>2020-07-24T07:18:32Z</time>
      </trkpt>
      <trkpt lat="42.775202" lon="-0.168746">
        <ele>2228.489</ele>
        <time>2020-07-24T07:18:36Z</time>
      </trkpt>
      <trkpt lat="42.775156" lon="-0.168741">
        <ele>2227.292</ele>
        <time>2020-07-24T07:18:39Z</time>
      </trkpt>
      <trkpt lat="42.775109" lon="-0.168724">
        <ele>2227.042</ele>
        <time>2020-07-24T07:18:43Z</time>
      </trkpt>
      <trkpt lat="42.775053" lon="-0.168703">
        <ele>2227.051</ele>
        <time>2020-07-24T07:18:47Z</time>
      </trkpt>
      <trkpt lat="42.775004" lon="-0.168690">
        <ele>2227.527</ele>
        <time>2020-07-24T07:18:51Z</time>
      </trkpt>
      <trkpt lat="42.774956" lon="-0.168689">
        <ele>2226.068</ele>
        <time>2020-07-24T07:18:54Z</time>
      </trkpt>
      <trkpt lat="42.774893" lon="-0.168681">
        <ele>2227.014</ele>
        <time>2020-07-24T07:18:59Z</time>
      </trkpt>
      <trkpt lat="42.774841" lon="-0.168673">
        <ele>2224.908</ele>
        <time>2020-07-24T07:19:02Z</time>
      </trkpt>
      <trkpt lat="42.774793" lon="-0.168671">
        <ele>2224.757</ele>
        <time>2020-07-24T07:19:06Z</time>
      </trkpt>
      <trkpt lat="42.774737" lon="-0.168677">
        <ele>2224.275</ele>
        <time>2020-07-24T07:19:10Z</time>
      </trkpt>
      <trkpt lat="42.774687" lon="-0.168677">
        <ele>2223.499</ele>
        <time>2020-07-24T07:19:13Z</time>
      </trkpt>
      <trkpt lat="42.774639" lon="-0.168659">
        <ele>2222.362</ele>
        <time>2020-07-24T07:19:18Z</time>
      </trkpt>
      <trkpt lat="42.774596" lon="-0.168626">
        <ele>2222.386</ele>
        <time>2020-07-24T07:19:23Z</time>
      </trkpt>
      <trkpt lat="42.774563" lon="-0.168576">
        <ele>2220.849</ele>
        <time>2020-07-24T07:19:28Z</time>
      </trkpt>
      <trkpt lat="42.774538" lon="-0.168522">
        <ele>2220.469</ele>
        <time>2020-07-24T07:19:33Z</time>
      </trkpt>
      <trkpt lat="42.774500" lon="-0.168480">
        <ele>2219.778</ele>
        <time>2020-07-24T07:19:38Z</time>
      </trkpt>
      <trkpt lat="42.774454" lon="-0.168453">
        <ele>2217.686</ele>
        <time>2020-07-24T07:19:42Z</time>
      </trkpt>
      <trkpt lat="42.774398" lon="-0.168425">
        <ele>2216.860</ele>
        <time>2020-07-24T07:19:46Z</time>
      </trkpt>
      <trkpt lat="42.774352" lon="-0.168404">
        <ele>2216.226</ele>
        <time>2020-07-24T07:19:50Z</time>
      </trkpt>
      <trkpt lat="42.774299" lon="-0.168372">
        <ele>2213.408</ele>
        <time>2020-07-24T07:19:54Z</time>
      </trkpt>
      <trkpt lat="42.774249" lon="-0.168338">
        <ele>2213.453</ele>
        <time>2020-07-24T07:19:58Z</time>
      </trkpt>
      <trkpt lat="42.774192" lon="-0.168318">
        <ele>2210.191</ele>
        <time>2020-07-24T07:20:04Z</time>
      </trkpt>
      <trkpt lat="42.774147" lon="-0.168326">
        <ele>2207.085</ele>
        <time>2020-07-24T07:20:07Z</time>
      </trkpt>
      <trkpt lat="42.774096" lon="-0.168310">
        <ele>2207.468</ele>
        <time>2020-07-24T07:20:12Z</time>
      </trkpt>
      <trkpt lat="42.774043" lon="-0.168293">
        <ele>2206.152</ele>
        <time>2020-07-24T07:20:16Z</time>
      </trkpt>
      <trkpt lat="42.773986" lon="-0.168297">
        <ele>2204.685</ele>
        <time>2020-07-24T07:20:21Z</time>
      </trkpt>
      <trkpt lat="42.773926" lon="-0.168309">
        <ele>2203.725</ele>
        <time>2020-07-24T07:20:27Z</time>
      </trkpt>
      <trkpt lat="42.773881" lon="-0.168321">
        <ele>2203.694</ele>
        <time>2020-07-24T07:20:30Z</time>
      </trkpt>
      <trkpt lat="42.773823" lon="-0.168298">
        <ele>2201.639</ele>
        <time>2020-07-24T07:20:35Z</time>
      </trkpt>
      <trkpt lat="42.773775" lon="-0.168289">
        <ele>2201.701</ele>
        <time>2020-07-24T07:20:40Z</time>
      </trkpt>
      <trkpt lat="42.773725" lon="-0.168308">
        <ele>2200.221</ele>
        <time>2020-07-24T07:20:45Z</time>
      </trkpt>
      <trkpt lat="42.773680" lon="-0.168331">
        <ele>2200.608</ele>
        <time>2020-07-24T07:20:49Z</time>
      </trkpt>
      <trkpt lat="42.773632" lon="-0.168359">
        <ele>2200.518</ele>
        <time>2020-07-24T07:20:54Z</time>
      </trkpt>
      <trkpt lat="42.773573" lon="-0.168352">
        <ele>2199.176</ele>
        <time>2020-07-24T07:21:00Z</time>
      </trkpt>
      <trkpt lat="42.773522" lon="-0.168345">
        <ele>2197.440</ele>
        <time>2020-07-24T07:21:04Z</time>
      </trkpt>
      <trkpt lat="42.773469" lon="-0.168327">
        <ele>2198.753</ele>
        <time>2020-07-24T07:21:09Z</time>
      </trkpt>
      <trkpt lat="42.773419" lon="-0.168310">
        <ele>2197.487</ele>
        <time>2020-07-24T07:21:13Z</time>
      </trkpt>
      <trkpt lat="42.773371" lon="-0.168302">
        <ele>2195.530</ele>
        <time>2020-07-24T07:21:17Z</time>
      </trkpt>
      <trkpt lat="42.773311" lon="-0.168297">
        <ele>2194.340</ele>
        <time>2020-07-24T07:21:23Z</time>
      </trkpt>
      <trkpt lat="42.773263" lon="-0.168330">
        <ele>2194.559</ele>
        <time>2020-07-24T07:21:27Z</time>
      </trkpt>
      <trkpt lat="42.773221" lon="-0.168367">
        <ele>2193.133</ele>
        <time>2020-07-24T07:21:32Z</time>
      </trkpt>
      <trkpt lat="42.773176" lon="-0.168396">
        <ele>2192.423</ele>
        <time>2020-07-24T07:21:38Z</time>
      </trkpt>
      <trkpt lat="42.773120" lon="-0.168427">
        <ele>2190.615</ele>
        <time>2020-07-24T07:21:43Z</time>
      </trkpt>
      <trkpt lat="42.773068" lon="-0.168449">
        <ele>2189.708</ele>
        <time>2020-07-24T07:21:49Z</time>
      </trkpt>
      <trkpt lat="42.773019" lon="-0.168451">
        <ele>2187.758</ele>
        <time>2020-07-24T07:21:54Z</time>
      </trkpt>
      <trkpt lat="42.772974" lon="-0.168476">
        <ele>2187.216</ele>
        <time>2020-07-24T07:21:59Z</time>
      </trkpt>
      <trkpt lat="42.772926" lon="-0.168479">
        <ele>2185.640</ele>
        <time>2020-07-24T07:22:02Z</time>
      </trkpt>
      <trkpt lat="42.772875" lon="-0.168468">
        <ele>2185.813</ele>
        <time>2020-07-24T07:22:07Z</time>
      </trkpt>
      <trkpt lat="42.772819" lon="-0.168479">
        <ele>2184.967</ele>
        <time>2020-07-24T07:22:13Z</time>
      </trkpt>
      <trkpt lat="42.772768" lon="-0.168456">
        <ele>2183.890</ele>
        <time>2020-07-24T07:22:18Z</time>
      </trkpt>
      <trkpt lat="42.772722" lon="-0.168451">
        <ele>2185.260</ele>
        <time>2020-07-24T07:22:22Z</time>
      </trkpt>
      <trkpt lat="42.772668" lon="-0.168444">
        <ele>2184.549</ele>
        <time>2020-07-24T07:22:28Z</time>
      </trkpt>
      <trkpt lat="42.772618" lon="-0.168432">
        <ele>2183.621</ele>
        <time>2020-07-24T07:22:32Z</time>
      </trkpt>
      <trkpt lat="42.772578" lon="-0.168383">
        <ele>2180.241</ele>
        <time>2020-07-24T07:22:37Z</time>
      </trkpt>
      <trkpt lat="42.772531" lon="-0.168349">
        <ele>2179.705</ele>
        <time>2020-07-24T07:22:42Z</time>
      </trkpt>
      <trkpt lat="42.772480" lon="-0.168326">
        <ele>2179.808</ele>
        <time>2020-07-24T07:22:47Z</time>
      </trkpt>
      <trkpt lat="42.772428" lon="-0.168299">
        <ele>2179.617</ele>
        <time>2020-07-24T07:22:51Z</time>
      </trkpt>
      <trkpt lat="42.772385" lon="-0.168270">
        <ele>2178.465</ele>
        <time>2020-07-24T07:22:56Z</time>
      </trkpt>
      <trkpt lat="42.772341" lon="-0.168230">
        <ele>2176.649</ele>
        <time>2020-07-24T07:23:00Z</time>
      </trkpt>
      <trkpt lat="42.772289" lon="-0.168209">
        <ele>2176.932</ele>
        <time>2020-07-24T07:23:05Z</time>
      </trkpt>
      <trkpt lat="42.772236" lon="-0.168171">
        <ele>2175.216</ele>
        <time>2020-07-24T07:23:09Z</time>
      </trkpt>
      <trkpt lat="42.772199" lon="-0.168131">
        <ele>2174.079</ele>
        <time>2020-07-24T07:23:13Z</time>
      </trkpt>
      <trkpt lat="42.772158" lon="-0.168099">
        <ele>2169.929</ele>
        <time>2020-07-24T07:23:19Z</time>
      </trkpt>
      <trkpt lat="42.772109" lon="-0.168086">
        <ele>2171.728</ele>
        <time>2020-07-24T07:23:23Z</time>
      </trkpt>
      <trkpt lat="42.772060" lon="-0.168097">
        <ele>2169.762</ele>
        <time>2020-07-24T07:23:29Z</time>
      </trkpt>
      <trkpt lat="42.772013" lon="-0.168129">
        <ele>2171.483</ele>
        <time>2020-07-24T07:23:36Z</time>
      </trkpt>
      <trkpt lat="42.771967" lon="-0.168137">
        <ele>2170.411</ele>
        <time>2020-07-24T07:23:39Z</time>
      </trkpt>
      <trkpt lat="42.771912" lon="-0.168111">
        <ele>2167.908</ele>
        <time>2020-07-24T07:23:45Z</time>
      </trkpt>
      <trkpt lat="42.771858" lon="-0.168127">
        <ele>2165.411</ele>
        <time>2020-07-24T07:23:49Z</time>
      </trkpt>
      <trkpt lat="42.771805" lon="-0.168141">
        <ele>2165.619</ele>
        <time>2020-07-24T07:23:53Z</time>
      </trkpt>
      <trkpt lat="42.771763" lon="-0.168119">
        <ele>2164.283</ele>
        <time>2020-07-24T07:23:57Z</time>
      </trkpt>
      <trkpt lat="42.771714" lon="-0.168130">
        <ele>2163.186</ele>
        <time>2020-07-24T07:24:00Z</time>
      </trkpt>
      <trkpt lat="42.771666" lon="-0.168160">
        <ele>2162.260</ele>
        <time>2020-07-24T07:24:06Z</time>
      </trkpt>
      <trkpt lat="42.771623" lon="-0.168150">
        <ele>2157.523</ele>
        <time>2020-07-24T07:24:17Z</time>
      </trkpt>
      <trkpt lat="42.771599" lon="-0.168087">
        <ele>2159.873</ele>
        <time>2020-07-24T07:24:30Z</time>
      </trkpt>
      <trkpt lat="42.771599" lon="-0.168023">
        <ele>2158.732</ele>
        <time>2020-07-24T07:24:35Z</time>
      </trkpt>
      <trkpt lat="42.771617" lon="-0.167959">
        <ele>2159.056</ele>
        <time>2020-07-24T07:24:42Z</time>
      </trkpt>
      <trkpt lat="42.771632" lon="-0.167908">
        <ele>2157.359</ele>
        <time>2020-07-24T07:24:47Z</time>
      </trkpt>
      <trkpt lat="42.771608" lon="-0.167855">
        <ele>2156.914</ele>
        <time>2020-07-24T07:24:57Z</time>
      </trkpt>
      <trkpt lat="42.771570" lon="-0.167836">
        <ele>2155.208</ele>
        <time>2020-07-24T07:25:09Z</time>
      </trkpt>
      <trkpt lat="42.771540" lon="-0.167785">
        <ele>2156.540</ele>
        <time>2020-07-24T07:25:17Z</time>
      </trkpt>
      <trkpt lat="42.771512" lon="-0.167737">
        <ele>2156.188</ele>
        <time>2020-07-24T07:25:24Z</time>
      </trkpt>
      <trkpt lat="42.771468" lon="-0.167709">
        <ele>2153.322</ele>
        <time>2020-07-24T07:25:33Z</time>
      </trkpt>
      <trkpt lat="42.771422" lon="-0.167698">
        <ele>2153.395</ele>
        <time>2020-07-24T07:25:37Z</time>
      </trkpt>
      <trkpt lat="42.771369" lon="-0.167709">
        <ele>2152.279</ele>
        <time>2020-07-24T07:25:41Z</time>
      </trkpt>
      <trkpt lat="42.771314" lon="-0.167726">
        <ele>2152.352</ele>
        <time>2020-07-24T07:25:49Z</time>
      </trkpt>
      <trkpt lat="42.771262" lon="-0.167728">
        <ele>2151.892</ele>
        <time>2020-07-24T07:25:54Z</time>
      </trkpt>
      <trkpt lat="42.771214" lon="-0.167713">
        <ele>2150.621</ele>
        <time>2020-07-24T07:26:01Z</time>
      </trkpt>
      <trkpt lat="42.771164" lon="-0.167714">
        <ele>2149.428</ele>
        <time>2020-07-24T07:26:05Z</time>
      </trkpt>
      <trkpt lat="42.771123" lon="-0.167731">
        <ele>2149.789</ele>
        <time>2020-07-24T07:26:10Z</time>
      </trkpt>
      <trkpt lat="42.771081" lon="-0.167757">
        <ele>2147.617</ele>
        <time>2020-07-24T07:26:14Z</time>
      </trkpt>
      <trkpt lat="42.771036" lon="-0.167773">
        <ele>2147.808</ele>
        <time>2020-07-24T07:26:19Z</time>
      </trkpt>
      <trkpt lat="42.770985" lon="-0.167806">
        <ele>2146.727</ele>
        <time>2020-07-24T07:26:23Z</time>
      </trkpt>
      <trkpt lat="42.770936" lon="-0.167821">
        <ele>2146.315</ele>
        <time>2020-07-24T07:26:28Z</time>
      </trkpt>
      <trkpt lat="42.770899" lon="-0.167862">
        <ele>2144.339</ele>
        <time>2020-07-24T07:26:34Z</time>
      </trkpt>
      <trkpt lat="42.770895" lon="-0.167926">
        <ele>2144.572</ele>
        <time>2020-07-24T07:26:42Z</time>
      </trkpt>
      <trkpt lat="42.770873" lon="-0.167988">
        <ele>2143.696</ele>
        <time>2020-07-24T07:26:50Z</time>
      </trkpt>
      <trkpt lat="42.770849" lon="-0.168040">
        <ele>2142.769</ele>
        <time>2020-07-24T07:26:57Z</time>
      </trkpt>
      <trkpt lat="42.770812" lon="-0.168085">
        <ele>2142.989</ele>
        <time>2020-07-24T07:27:04Z</time>
      </trkpt>
      <trkpt lat="42.770765" lon="-0.168085">
        <ele>2141.358</ele>
        <time>2020-07-24T07:27:10Z</time>
      </trkpt>
      <trkpt lat="42.770724" lon="-0.168061">
        <ele>2138.793</ele>
        <time>2020-07-24T07:27:17Z</time>
      </trkpt>
      <trkpt lat="42.770673" lon="-0.168074">
        <ele>2138.165</ele>
        <time>2020-07-24T07:27:24Z</time>
      </trkpt>
      <trkpt lat="42.770631" lon="-0.168104">
        <ele>2136.421</ele>
        <time>2020-07-24T07:27:28Z</time>
      </trkpt>
      <trkpt lat="42.770583" lon="-0.168106">
        <ele>2135.108</ele>
        <time>2020-07-24T07:27:33Z</time>
      </trkpt>
      <trkpt lat="42.770531" lon="-0.168126">
        <ele>2134.964</ele>
        <time>2020-07-24T07:27:39Z</time>
      </trkpt>
      <trkpt lat="42.770484" lon="-0.168173">
        <ele>2133.572</ele>
        <time>2020-07-24T07:27:44Z</time>
      </trkpt>
      <trkpt lat="42.770426" lon="-0.168191">
        <ele>2133.726</ele>
        <time>2020-07-24T07:27:49Z</time>
      </trkpt>
      <trkpt lat="42.770368" lon="-0.168188">
        <ele>2133.539</ele>
        <time>2020-07-24T07:27:53Z</time>
      </trkpt>
      <trkpt lat="42.770321" lon="-0.168184">
        <ele>2134.083</ele>
        <time>2020-07-24T07:27:56Z</time>
      </trkpt>
      <trkpt lat="42.770266" lon="-0.168196">
        <ele>2133.646</ele>
        <time>2020-07-24T07:28:01Z</time>
      </trkpt>
      <trkpt lat="42.770215" lon="-0.168211">
        <ele>2134.136</ele>
        <time>2020-07-24T07:28:06Z</time>
      </trkpt>
      <trkpt lat="42.770170" lon="-0.168225">
        <ele>2133.465</ele>
        <time>2020-07-24T07:28:12Z</time>
      </trkpt>
      <trkpt lat="42.770126" lon="-0.168258">
        <ele>2132.747</ele>
        <time>2020-07-24T07:28:18Z</time>
      </trkpt>
      <trkpt lat="42.770110" lon="-0.168316">
        <ele>2133.029</ele>
        <time>2020-07-24T07:28:22Z</time>
      </trkpt>
      <trkpt lat="42.770070" lon="-0.168365">
        <ele>2131.221</ele>
        <time>2020-07-24T07:28:28Z</time>
      </trkpt>
      <trkpt lat="42.770027" lon="-0.168400">
        <ele>2129.408</ele>
        <time>2020-07-24T07:28:33Z</time>
      </trkpt>
      <trkpt lat="42.769976" lon="-0.168401">
        <ele>2129.649</ele>
        <time>2020-07-24T07:28:52Z</time>
      </trkpt>
      <trkpt lat="42.769929" lon="-0.168420">
        <ele>2127.937</ele>
        <time>2020-07-24T07:29:00Z</time>
      </trkpt>
      <trkpt lat="42.769894" lon="-0.168465">
        <ele>2127.451</ele>
        <time>2020-07-24T07:29:04Z</time>
      </trkpt>
      <trkpt lat="42.769850" lon="-0.168493">
        <ele>2126.124</ele>
        <time>2020-07-24T07:29:07Z</time>
      </trkpt>
      <trkpt lat="42.769804" lon="-0.168516">
        <ele>2126.218</ele>
        <time>2020-07-24T07:29:13Z</time>
      </trkpt>
      <trkpt lat="42.769757" lon="-0.168519">
        <ele>2123.581</ele>
        <time>2020-07-24T07:29:20Z</time>
      </trkpt>
      <trkpt lat="42.769721" lon="-0.168466">
        <ele>2122.921</ele>
        <time>2020-07-24T07:29:26Z</time>
      </trkpt>
      <trkpt lat="42.769692" lon="-0.168410">
        <ele>2121.430</ele>
        <time>2020-07-24T07:29:30Z</time>
      </trkpt>
      <trkpt lat="42.769640" lon="-0.168397">
        <ele>2120.573</ele>
        <time>2020-07-24T07:29:35Z</time>
      </trkpt>
      <trkpt lat="42.769585" lon="-0.168410">
        <ele>2121.185</ele>
        <time>2020-07-24T07:29:41Z</time>
      </trkpt>
      <trkpt lat="42.769539" lon="-0.168436">
        <ele>2119.013</ele>
        <time>2020-07-24T07:29:44Z</time>
      </trkpt>
      <trkpt lat="42.769476" lon="-0.168454">
        <ele>2117.208</ele>
        <time>2020-07-24T07:29:50Z</time>
      </trkpt>
      <trkpt lat="42.769422" lon="-0.168481">
        <ele>2117.412</ele>
        <time>2020-07-24T07:29:55Z</time>
      </trkpt>
      <trkpt lat="42.769376" lon="-0.168500">
        <ele>2116.410</ele>
        <time>2020-07-24T07:29:59Z</time>
      </trkpt>
      <trkpt lat="42.769326" lon="-0.168508">
        <ele>2116.344</ele>
        <time>2020-07-24T07:30:03Z</time>
      </trkpt>
      <trkpt lat="42.769275" lon="-0.168528">
        <ele>2115.657</ele>
        <time>2020-07-24T07:30:08Z</time>
      </trkpt>
      <trkpt lat="42.769231" lon="-0.168558">
        <ele>2114.461</ele>
        <time>2020-07-24T07:30:14Z</time>
      </trkpt>
      <trkpt lat="42.769193" lon="-0.168613">
        <ele>2114.244</ele>
        <time>2020-07-24T07:30:18Z</time>
      </trkpt>
      <trkpt lat="42.769158" lon="-0.168653">
        <ele>2113.264</ele>
        <time>2020-07-24T07:30:23Z</time>
      </trkpt>
      <trkpt lat="42.769119" lon="-0.168707">
        <ele>2111.143</ele>
        <time>2020-07-24T07:30:28Z</time>
      </trkpt>
      <trkpt lat="42.769093" lon="-0.168765">
        <ele>2112.148</ele>
        <time>2020-07-24T07:30:32Z</time>
      </trkpt>
      <trkpt lat="42.769048" lon="-0.168811">
        <ele>2110.461</ele>
        <time>2020-07-24T07:30:38Z</time>
      </trkpt>
      <trkpt lat="42.768996" lon="-0.168849">
        <ele>2110.617</ele>
        <time>2020-07-24T07:30:44Z</time>
      </trkpt>
      <trkpt lat="42.768945" lon="-0.168885">
        <ele>2110.208</ele>
        <time>2020-07-24T07:30:49Z</time>
      </trkpt>
      <trkpt lat="42.768885" lon="-0.168897">
        <ele>2110.029</ele>
        <time>2020-07-24T07:30:53Z</time>
      </trkpt>
      <trkpt lat="42.768828" lon="-0.168908">
        <ele>2109.997</ele>
        <time>2020-07-24T07:30:58Z</time>
      </trkpt>
      <trkpt lat="42.768784" lon="-0.168939">
        <ele>2108.891</ele>
        <time>2020-07-24T07:31:03Z</time>
      </trkpt>
      <trkpt lat="42.768745" lon="-0.168970">
        <ele>2108.134</ele>
        <time>2020-07-24T07:31:09Z</time>
      </trkpt>
      <trkpt lat="42.768696" lon="-0.168994">
        <ele>2106.698</ele>
        <time>2020-07-24T07:31:12Z</time>
      </trkpt>
      <trkpt lat="42.768644" lon="-0.169012">
        <ele>2107.051</ele>
        <time>2020-07-24T07:31:17Z</time>
      </trkpt>
      <trkpt lat="42.768592" lon="-0.169038">
        <ele>2105.611</ele>
        <time>2020-07-24T07:31:21Z</time>
      </trkpt>
      <trkpt lat="42.768541" lon="-0.169039">
        <ele>2104.070</ele>
        <time>2020-07-24T07:31:27Z</time>
      </trkpt>
      <trkpt lat="42.768498" lon="-0.169015">
        <ele>2103.051</ele>
        <time>2020-07-24T07:31:31Z</time>
      </trkpt>
      <trkpt lat="42.768447" lon="-0.169010">
        <ele>2104.201</ele>
        <time>2020-07-24T07:31:37Z</time>
      </trkpt>
      <trkpt lat="42.768403" lon="-0.169041">
        <ele>2102.311</ele>
        <time>2020-07-24T07:31:42Z</time>
      </trkpt>
      <trkpt lat="42.768373" lon="-0.169088">
        <ele>2102.308</ele>
        <time>2020-07-24T07:31:45Z</time>
      </trkpt>
      <trkpt lat="42.768340" lon="-0.169146">
        <ele>2100.810</ele>
        <time>2020-07-24T07:31:50Z</time>
      </trkpt>
      <trkpt lat="42.768298" lon="-0.169187">
        <ele>2100.098</ele>
        <time>2020-07-24T07:31:58Z</time>
      </trkpt>
      <trkpt lat="42.768264" lon="-0.169237">
        <ele>2098.092</ele>
        <time>2020-07-24T07:32:06Z</time>
      </trkpt>
      <trkpt lat="42.768218" lon="-0.169252">
        <ele>2097.895</ele>
        <time>2020-07-24T07:32:09Z</time>
      </trkpt>
      <trkpt lat="42.768162" lon="-0.169261">
        <ele>2097.519</ele>
        <time>2020-07-24T07:32:13Z</time>
      </trkpt>
      <trkpt lat="42.768117" lon="-0.169286">
        <ele>2096.312</ele>
        <time>2020-07-24T07:32:16Z</time>
      </trkpt>
      <trkpt lat="42.768074" lon="-0.169312">
        <ele>2095.272</ele>
        <time>2020-07-24T07:32:20Z</time>
      </trkpt>
      <trkpt lat="42.768029" lon="-0.169338">
        <ele>2094.641</ele>
        <time>2020-07-24T07:32:24Z</time>
      </trkpt>
      <trkpt lat="42.767981" lon="-0.169359">
        <ele>2093.536</ele>
        <time>2020-07-24T07:32:28Z</time>
      </trkpt>
      <trkpt lat="42.767941" lon="-0.169405">
        <ele>2092.617</ele>
        <time>2020-07-24T07:32:32Z</time>
      </trkpt>
      <trkpt lat="42.767910" lon="-0.169457">
        <ele>2091.318</ele>
        <time>2020-07-24T07:32:36Z</time>
      </trkpt>
      <trkpt lat="42.767888" lon="-0.169515">
        <ele>2090.908</ele>
        <time>2020-07-24T07:32:39Z</time>
      </trkpt>
      <trkpt lat="42.767845" lon="-0.169571">
        <ele>2089.818</ele>
        <time>2020-07-24T07:32:44Z</time>
      </trkpt>
      <trkpt lat="42.767812" lon="-0.169602">
        <ele>2088.626</ele>
        <time>2020-07-24T07:32:52Z</time>
      </trkpt>
      <trkpt lat="42.767806" lon="-0.169663">
        <ele>2085.030</ele>
        <time>2020-07-24T07:33:08Z</time>
      </trkpt>
      <trkpt lat="42.767762" lon="-0.169718">
        <ele>2083.933</ele>
        <time>2020-07-24T07:33:19Z</time>
      </trkpt>
      <trkpt lat="42.767723" lon="-0.169766">
        <ele>2081.977</ele>
        <time>2020-07-24T07:33:24Z</time>
      </trkpt>
      <trkpt lat="42.767703" lon="-0.169827">
        <ele>2081.950</ele>
        <time>2020-07-24T07:33:30Z</time>
      </trkpt>
      <trkpt lat="42.767659" lon="-0.169847">
        <ele>2079.760</ele>
        <time>2020-07-24T07:33:56Z</time>
      </trkpt>
      <trkpt lat="42.767604" lon="-0.169816">
        <ele>2078.249</ele>
        <time>2020-07-24T07:34:04Z</time>
      </trkpt>
      <trkpt lat="42.767558" lon="-0.169801">
        <ele>2076.571</ele>
        <time>2020-07-24T07:34:08Z</time>
      </trkpt>
      <trkpt lat="42.767506" lon="-0.169772">
        <ele>2076.141</ele>
        <time>2020-07-24T07:34:12Z</time>
      </trkpt>
      <trkpt lat="42.767454" lon="-0.169743">
        <ele>2074.815</ele>
        <time>2020-07-24T07:34:16Z</time>
      </trkpt>
      <trkpt lat="42.767410" lon="-0.169770">
        <ele>2072.008</ele>
        <time>2020-07-24T07:34:23Z</time>
      </trkpt>
      <trkpt lat="42.767362" lon="-0.169784">
        <ele>2070.152</ele>
        <time>2020-07-24T07:34:30Z</time>
      </trkpt>
      <trkpt lat="42.767333" lon="-0.169846">
        <ele>2067.950</ele>
        <time>2020-07-24T07:34:41Z</time>
      </trkpt>
      <trkpt lat="42.767291" lon="-0.169898">
        <ele>2066.334</ele>
        <time>2020-07-24T07:34:47Z</time>
      </trkpt>
      <trkpt lat="42.767250" lon="-0.169937">
        <ele>2064.597</ele>
        <time>2020-07-24T07:34:52Z</time>
      </trkpt>
      <trkpt lat="42.767209" lon="-0.169928">
        <ele>2063.681</ele>
        <time>2020-07-24T07:35:00Z</time>
      </trkpt>
      <trkpt lat="42.767201" lon="-0.169878">
        <ele>2061.724</ele>
        <time>2020-07-24T07:35:08Z</time>
      </trkpt>
      <trkpt lat="42.767188" lon="-0.169816">
        <ele>2060.284</ele>
        <time>2020-07-24T07:35:14Z</time>
      </trkpt>
      <trkpt lat="42.767171" lon="-0.169754">
        <ele>2057.583</ele>
        <time>2020-07-24T07:35:22Z</time>
      </trkpt>
      <trkpt lat="42.767135" lon="-0.169801">
        <ele>2054.649</ele>
        <time>2020-07-24T07:35:33Z</time>
      </trkpt>
      <trkpt lat="42.767153" lon="-0.169858">
        <ele>2051.302</ele>
        <time>2020-07-24T07:36:10Z</time>
      </trkpt>
      <trkpt lat="42.767167" lon="-0.169920">
        <ele>2049.122</ele>
        <time>2020-07-24T07:36:15Z</time>
      </trkpt>
      <trkpt lat="42.767161" lon="-0.169985">
        <ele>2048.408</ele>
        <time>2020-07-24T07:36:20Z</time>
      </trkpt>
      <trkpt lat="42.767145" lon="-0.170057">
        <ele>2047.539</ele>
        <time>2020-07-24T07:36:24Z</time>
      </trkpt>
      <trkpt lat="42.767132" lon="-0.170123">
        <ele>2047.477</ele>
        <time>2020-07-24T07:36:28Z</time>
      </trkpt>
      <trkpt lat="42.767123" lon="-0.170185">
        <ele>2045.861</ele>
        <time>2020-07-24T07:36:34Z</time>
      </trkpt>
      <trkpt lat="42.767128" lon="-0.170247">
        <ele>2043.824</ele>
        <time>2020-07-24T07:36:39Z</time>
      </trkpt>
      <trkpt lat="42.767122" lon="-0.170307">
        <ele>2042.168</ele>
        <time>2020-07-24T07:36:45Z</time>
      </trkpt>
      <trkpt lat="42.767103" lon="-0.170374">
        <ele>2040.891</ele>
        <time>2020-07-24T07:36:52Z</time>
      </trkpt>
      <trkpt lat="42.767077" lon="-0.170433">
        <ele>2038.681</ele>
        <time>2020-07-24T07:36:58Z</time>
      </trkpt>
      <trkpt lat="42.767059" lon="-0.170486">
        <ele>2037.890</ele>
        <time>2020-07-24T07:37:03Z</time>
      </trkpt>
      <trkpt lat="42.767054" lon="-0.170546">
        <ele>2037.639</ele>
        <time>2020-07-24T07:37:40Z</time>
      </trkpt>
      <trkpt lat="42.767051" lon="-0.170616">
        <ele>2037.301</ele>
        <time>2020-07-24T07:37:52Z</time>
      </trkpt>
      <trkpt lat="42.767040" lon="-0.170682">
        <ele>2036.521</ele>
        <time>2020-07-24T07:37:59Z</time>
      </trkpt>
      <trkpt lat="42.767013" lon="-0.170739">
        <ele>2035.908</ele>
        <time>2020-07-24T07:38:05Z</time>
      </trkpt>
      <trkpt lat="42.766968" lon="-0.170773">
        <ele>2033.268</ele>
        <time>2020-07-24T07:38:16Z</time>
      </trkpt>
      <trkpt lat="42.766939" lon="-0.170831">
        <ele>2033.026</ele>
        <time>2020-07-24T07:38:24Z</time>
      </trkpt>
      <trkpt lat="42.766913" lon="-0.170893">
        <ele>2032.440</ele>
        <time>2020-07-24T07:38:29Z</time>
      </trkpt>
      <trkpt lat="42.766915" lon="-0.170923">
        <ele>2034.283</ele>
        <time>2020-07-24T07:38:39Z</time>
      </trkpt>
      <trkpt lat="42.766939" lon="-0.170949">
        <ele>2035.047</ele>
        <time>2020-07-24T07:39:01Z</time>
      </trkpt>
      <trkpt lat="42.766966" lon="-0.171002">
        <ele>2035.190</ele>
        <time>2020-07-24T07:39:09Z</time>
      </trkpt>
      <trkpt lat="42.766991" lon="-0.171036">
        <ele>2032.630</ele>
        <time>2020-07-24T07:40:25Z</time>
      </trkpt>
      <trkpt lat="42.767007" lon="-0.171098">
        <ele>2032.959</ele>
        <time>2020-07-24T07:40:35Z</time>
      </trkpt>
      <trkpt lat="42.767012" lon="-0.171167">
        <ele>2030.464</ele>
        <time>2020-07-24T07:40:40Z</time>
      </trkpt>
      <trkpt lat="42.766984" lon="-0.171217">
        <ele>2032.706</ele>
        <time>2020-07-24T07:40:51Z</time>
      </trkpt>
      <trkpt lat="42.766959" lon="-0.171268">
        <ele>2033.316</ele>
        <time>2020-07-24T07:41:08Z</time>
      </trkpt>
      <trkpt lat="42.766944" lon="-0.171349">
        <ele>2035.108</ele>
        <time>2020-07-24T07:41:18Z</time>
      </trkpt>
      <trkpt lat="42.766927" lon="-0.171419">
        <ele>2035.291</ele>
        <time>2020-07-24T07:41:24Z</time>
      </trkpt>
      <trkpt lat="42.766909" lon="-0.171479">
        <ele>2037.029</ele>
        <time>2020-07-24T07:41:29Z</time>
      </trkpt>
      <trkpt lat="42.766871" lon="-0.171531">
        <ele>2038.313</ele>
        <time>2020-07-24T07:41:36Z</time>
      </trkpt>
      <trkpt lat="42.766817" lon="-0.171535">
        <ele>2037.846</ele>
        <time>2020-07-24T07:41:43Z</time>
      </trkpt>
      <trkpt lat="42.766770" lon="-0.171533">
        <ele>2039.370</ele>
        <time>2020-07-24T07:41:50Z</time>
      </trkpt>
      <trkpt lat="42.766719" lon="-0.171553">
        <ele>2039.983</ele>
        <time>2020-07-24T07:41:56Z</time>
      </trkpt>
      <trkpt lat="42.766671" lon="-0.171549">
        <ele>2041.743</ele>
        <time>2020-07-24T07:42:02Z</time>
      </trkpt>
      <trkpt lat="42.766620" lon="-0.171535">
        <ele>2042.442</ele>
        <time>2020-07-24T07:42:08Z</time>
      </trkpt>
      <trkpt lat="42.766562" lon="-0.171535">
        <ele>2044.593</ele>
        <time>2020-07-24T07:42:16Z</time>
      </trkpt>
      <trkpt lat="42.766518" lon="-0.171562">
        <ele>2043.865</ele>
        <time>2020-07-24T07:42:21Z</time>
      </trkpt>
      <trkpt lat="42.766522" lon="-0.171633">
        <ele>2044.621</ele>
        <time>2020-07-24T07:42:36Z</time>
      </trkpt>
      <trkpt lat="42.766499" lon="-0.171703">
        <ele>2045.308</ele>
        <time>2020-07-24T07:42:42Z</time>
      </trkpt>
      <trkpt lat="42.766475" lon="-0.171768">
        <ele>2046.054</ele>
        <time>2020-07-24T07:42:49Z</time>
      </trkpt>
      <trkpt lat="42.766489" lon="-0.171832">
        <ele>2047.992</ele>
        <time>2020-07-24T07:42:58Z</time>
      </trkpt>
      <trkpt lat="42.766532" lon="-0.171867">
        <ele>2049.596</ele>
        <time>2020-07-24T07:43:05Z</time>
      </trkpt>
      <trkpt lat="42.766575" lon="-0.171891">
        <ele>2049.819</ele>
        <time>2020-07-24T07:43:10Z</time>
      </trkpt>
      <trkpt lat="42.766619" lon="-0.171910">
        <ele>2050.793</ele>
        <time>2020-07-24T07:43:17Z</time>
      </trkpt>
      <trkpt lat="42.766633" lon="-0.171982">
        <ele>2052.746</ele>
        <time>2020-07-24T07:43:28Z</time>
      </trkpt>
      <trkpt lat="42.766619" lon="-0.172047">
        <ele>2052.856</ele>
        <time>2020-07-24T07:43:34Z</time>
      </trkpt>
      <trkpt lat="42.766608" lon="-0.172107">
        <ele>2052.595</ele>
        <time>2020-07-24T07:43:39Z</time>
      </trkpt>
      <trkpt lat="42.766595" lon="-0.172182">
        <ele>2054.419</ele>
        <time>2020-07-24T07:43:45Z</time>
      </trkpt>
      <trkpt lat="42.766585" lon="-0.172249">
        <ele>2054.809</ele>
        <time>2020-07-24T07:43:51Z</time>
      </trkpt>
      <trkpt lat="42.766608" lon="-0.172317">
        <ele>2056.919</ele>
        <time>2020-07-24T07:44:00Z</time>
      </trkpt>
      <trkpt lat="42.766619" lon="-0.172382">
        <ele>2058.108</ele>
        <time>2020-07-24T07:44:10Z</time>
      </trkpt>
      <trkpt lat="42.766657" lon="-0.172437">
        <ele>2059.146</ele>
        <time>2020-07-24T07:44:19Z</time>
      </trkpt>
      <trkpt lat="42.766676" lon="-0.172508">
        <ele>2059.024</ele>
        <time>2020-07-24T07:44:28Z</time>
      </trkpt>
      <trkpt lat="42.766685" lon="-0.172573">
        <ele>2059.158</ele>
        <time>2020-07-24T07:44:34Z</time>
      </trkpt>
      <trkpt lat="42.766697" lon="-0.172635">
        <ele>2061.611</ele>
        <time>2020-07-24T07:44:41Z</time>
      </trkpt>
      <trkpt lat="42.766708" lon="-0.172696">
        <ele>2062.735</ele>
        <time>2020-07-24T07:44:48Z</time>
      </trkpt>
      <trkpt lat="42.766717" lon="-0.172751">
        <ele>2064.238</ele>
        <time>2020-07-24T07:44:59Z</time>
      </trkpt>
      <trkpt lat="42.766757" lon="-0.172783">
        <ele>2066.098</ele>
        <time>2020-07-24T07:45:09Z</time>
      </trkpt>
      <trkpt lat="42.766804" lon="-0.172809">
        <ele>2066.777</ele>
        <time>2020-07-24T07:45:23Z</time>
      </trkpt>
      <trkpt lat="42.766813" lon="-0.172871">
        <ele>2068.756</ele>
        <time>2020-07-24T07:45:33Z</time>
      </trkpt>
      <trkpt lat="42.766835" lon="-0.172938">
        <ele>2069.959</ele>
        <time>2020-07-24T07:45:41Z</time>
      </trkpt>
      <trkpt lat="42.766820" lon="-0.173004">
        <ele>2070.614</ele>
        <time>2020-07-24T07:45:50Z</time>
      </trkpt>
      <trkpt lat="42.766846" lon="-0.173056">
        <ele>2071.708</ele>
        <time>2020-07-24T07:46:03Z</time>
      </trkpt>
      <trkpt lat="42.766887" lon="-0.173096">
        <ele>2073.720</ele>
        <time>2020-07-24T07:46:12Z</time>
      </trkpt>
      <trkpt lat="42.766930" lon="-0.173129">
        <ele>2074.998</ele>
        <time>2020-07-24T07:46:21Z</time>
      </trkpt>
      <trkpt lat="42.766941" lon="-0.173196">
        <ele>2076.342</ele>
        <time>2020-07-24T07:46:32Z</time>
      </trkpt>
      <trkpt lat="42.766969" lon="-0.173249">
        <ele>2078.765</ele>
        <time>2020-07-24T07:46:44Z</time>
      </trkpt>
      <trkpt lat="42.766975" lon="-0.173314">
        <ele>2079.299</ele>
        <time>2020-07-24T07:46:54Z</time>
      </trkpt>
      <trkpt lat="42.766952" lon="-0.173380">
        <ele>2081.632</ele>
        <time>2020-07-24T07:47:04Z</time>
      </trkpt>
      <trkpt lat="42.766913" lon="-0.173428">
        <ele>2081.852</ele>
        <time>2020-07-24T07:47:11Z</time>
      </trkpt>
      <trkpt lat="42.766877" lon="-0.173467">
        <ele>2082.391</ele>
        <time>2020-07-24T07:47:16Z</time>
      </trkpt>
      <trkpt lat="42.766843" lon="-0.173521">
        <ele>2084.733</ele>
        <time>2020-07-24T07:47:25Z</time>
      </trkpt>
      <trkpt lat="42.766799" lon="-0.173539">
        <ele>2084.423</ele>
        <time>2020-07-24T07:47:31Z</time>
      </trkpt>
      <trkpt lat="42.766767" lon="-0.173588">
        <ele>2084.915</ele>
        <time>2020-07-24T07:47:39Z</time>
      </trkpt>
      <trkpt lat="42.766722" lon="-0.173619">
        <ele>2086.008</ele>
        <time>2020-07-24T07:47:47Z</time>
      </trkpt>
      <trkpt lat="42.766703" lon="-0.173680">
        <ele>2087.048</ele>
        <time>2020-07-24T07:47:57Z</time>
      </trkpt>
      <trkpt lat="42.766669" lon="-0.173733">
        <ele>2088.016</ele>
        <time>2020-07-24T07:48:04Z</time>
      </trkpt>
      <trkpt lat="42.766650" lon="-0.173792">
        <ele>2089.510</ele>
        <time>2020-07-24T07:48:10Z</time>
      </trkpt>
      <trkpt lat="42.766654" lon="-0.173861">
        <ele>2088.933</ele>
        <time>2020-07-24T07:48:16Z</time>
      </trkpt>
      <trkpt lat="42.766667" lon="-0.173920">
        <ele>2090.677</ele>
        <time>2020-07-24T07:48:22Z</time>
      </trkpt>
      <trkpt lat="42.766713" lon="-0.173941">
        <ele>2091.560</ele>
        <time>2020-07-24T07:48:29Z</time>
      </trkpt>
      <trkpt lat="42.766728" lon="-0.173984">
        <ele>2092.290</ele>
        <time>2020-07-24T07:48:36Z</time>
      </trkpt>
      <trkpt lat="42.766780" lon="-0.174001">
        <ele>2093.859</ele>
        <time>2020-07-24T07:48:48Z</time>
      </trkpt>
      <trkpt lat="42.766806" lon="-0.174052">
        <ele>2096.469</ele>
        <time>2020-07-24T07:49:02Z</time>
      </trkpt>
      <trkpt lat="42.766810" lon="-0.174094">
        <ele>2097.304</ele>
        <time>2020-07-24T07:49:10Z</time>
      </trkpt>
      <trkpt lat="42.766843" lon="-0.174123">
        <ele>2097.624</ele>
        <time>2020-07-24T07:49:22Z</time>
      </trkpt>
      <trkpt lat="42.766888" lon="-0.174156">
        <ele>2097.708</ele>
        <time>2020-07-24T07:49:32Z</time>
      </trkpt>
      <trkpt lat="42.766909" lon="-0.174216">
        <ele>2100.411</ele>
        <time>2020-07-24T07:49:43Z</time>
      </trkpt>
      <trkpt lat="42.766930" lon="-0.174273">
        <ele>2102.449</ele>
        <time>2020-07-24T07:50:00Z</time>
      </trkpt>
      <trkpt lat="42.766926" lon="-0.174334">
        <ele>2104.583</ele>
        <time>2020-07-24T07:50:08Z</time>
      </trkpt>
      <trkpt lat="42.766893" lon="-0.174387">
        <ele>2104.266</ele>
        <time>2020-07-24T07:50:14Z</time>
      </trkpt>
      <trkpt lat="42.766885" lon="-0.174448">
        <ele>2104.540</ele>
        <time>2020-07-24T07:50:22Z</time>
      </trkpt>
      <trkpt lat="42.766909" lon="-0.174516">
        <ele>2106.623</ele>
        <time>2020-07-24T07:50:29Z</time>
      </trkpt>
      <trkpt lat="42.766948" lon="-0.174552">
        <ele>2108.283</ele>
        <time>2020-07-24T07:50:44Z</time>
      </trkpt>
      <trkpt lat="42.766992" lon="-0.174544">
        <ele>2111.382</ele>
        <time>2020-07-24T07:51:08Z</time>
      </trkpt>
      <trkpt lat="42.767025" lon="-0.174601">
        <ele>2111.725</ele>
        <time>2020-07-24T07:51:17Z</time>
      </trkpt>
      <trkpt lat="42.767044" lon="-0.174671">
        <ele>2112.426</ele>
        <time>2020-07-24T07:51:25Z</time>
      </trkpt>
      <trkpt lat="42.767046" lon="-0.174745">
        <ele>2112.908</ele>
        <time>2020-07-24T07:51:30Z</time>
      </trkpt>
      <trkpt lat="42.767032" lon="-0.174804">
        <ele>2112.308</ele>
        <time>2020-07-24T07:51:35Z</time>
      </trkpt>
      <trkpt lat="42.767004" lon="-0.174860">
        <ele>2113.517</ele>
        <time>2020-07-24T07:51:43Z</time>
      </trkpt>
      <trkpt lat="42.766961" lon="-0.174883">
        <ele>2114.815</ele>
        <time>2020-07-24T07:51:47Z</time>
      </trkpt>
      <trkpt lat="42.766911" lon="-0.174898">
        <ele>2115.059</ele>
        <time>2020-07-24T07:51:53Z</time>
      </trkpt>
      <trkpt lat="42.766883" lon="-0.174949">
        <ele>2116.232</ele>
        <time>2020-07-24T07:52:00Z</time>
      </trkpt>
      <trkpt lat="42.766852" lon="-0.175007">
        <ele>2116.056</ele>
        <time>2020-07-24T07:52:06Z</time>
      </trkpt>
      <trkpt lat="42.766821" lon="-0.175055">
        <ele>2118.319</ele>
        <time>2020-07-24T07:52:14Z</time>
      </trkpt>
      <trkpt lat="42.766816" lon="-0.175131">
        <ele>2119.859</ele>
        <time>2020-07-24T07:52:21Z</time>
      </trkpt>
      <trkpt lat="42.766815" lon="-0.175203">
        <ele>2120.198</ele>
        <time>2020-07-24T07:52:27Z</time>
      </trkpt>
      <trkpt lat="42.766838" lon="-0.175257">
        <ele>2120.311</ele>
        <time>2020-07-24T07:52:32Z</time>
      </trkpt>
      <trkpt lat="42.766835" lon="-0.175324">
        <ele>2119.721</ele>
        <time>2020-07-24T07:52:39Z</time>
      </trkpt>
      <trkpt lat="42.766821" lon="-0.175383">
        <ele>2121.703</ele>
        <time>2020-07-24T07:52:44Z</time>
      </trkpt>
      <trkpt lat="42.766824" lon="-0.175451">
        <ele>2121.608</ele>
        <time>2020-07-24T07:52:50Z</time>
      </trkpt>
      <trkpt lat="42.766846" lon="-0.175506">
        <ele>2119.726</ele>
        <time>2020-07-24T07:52:56Z</time>
      </trkpt>
      <trkpt lat="42.766878" lon="-0.175542">
        <ele>2119.514</ele>
        <time>2020-07-24T07:53:42Z</time>
      </trkpt>
      <trkpt lat="42.766885" lon="-0.175616">
        <ele>2122.258</ele>
        <time>2020-07-24T07:53:55Z</time>
      </trkpt>
      <trkpt lat="42.766852" lon="-0.175682">
        <ele>2121.861</ele>
        <time>2020-07-24T07:54:02Z</time>
      </trkpt>
      <trkpt lat="42.766846" lon="-0.175745">
        <ele>2122.645</ele>
        <time>2020-07-24T07:54:07Z</time>
      </trkpt>
      <trkpt lat="42.766833" lon="-0.175812">
        <ele>2121.128</ele>
        <time>2020-07-24T07:54:12Z</time>
      </trkpt>
      <trkpt lat="42.766818" lon="-0.175880">
        <ele>2124.528</ele>
        <time>2020-07-24T07:54:17Z</time>
      </trkpt>
      <trkpt lat="42.766822" lon="-0.175946">
        <ele>2124.687</ele>
        <time>2020-07-24T07:54:24Z</time>
      </trkpt>
      <trkpt lat="42.766840" lon="-0.176035">
        <ele>2125.634</ele>
        <time>2020-07-24T07:54:33Z</time>
      </trkpt>
      <trkpt lat="42.766819" lon="-0.176121">
        <ele>2126.855</ele>
        <time>2020-07-24T07:54:44Z</time>
      </trkpt>
      <trkpt lat="42.766773" lon="-0.176169">
        <ele>2125.710</ele>
        <time>2020-07-24T07:54:49Z</time>
      </trkpt>
      <trkpt lat="42.766738" lon="-0.176219">
        <ele>2126.008</ele>
        <time>2020-07-24T07:54:55Z</time>
      </trkpt>
      <trkpt lat="42.766730" lon="-0.176285">
        <ele>2128.388</ele>
        <time>2020-07-24T07:55:00Z</time>
      </trkpt>
      <trkpt lat="42.766706" lon="-0.176356">
        <ele>2128.176</ele>
        <time>2020-07-24T07:55:07Z</time>
      </trkpt>
      <trkpt lat="42.766687" lon="-0.176419">
        <ele>2128.460</ele>
        <time>2020-07-24T07:55:12Z</time>
      </trkpt>
      <trkpt lat="42.766665" lon="-0.176482">
        <ele>2128.943</ele>
        <time>2020-07-24T07:55:18Z</time>
      </trkpt>
      <trkpt lat="42.766614" lon="-0.176500">
        <ele>2128.387</ele>
        <time>2020-07-24T07:55:33Z</time>
      </trkpt>
      <trkpt lat="42.766592" lon="-0.176541">
        <ele>2128.910</ele>
        <time>2020-07-24T07:55:40Z</time>
      </trkpt>
      <trkpt lat="42.766543" lon="-0.176538">
        <ele>2130.920</ele>
        <time>2020-07-24T07:55:59Z</time>
      </trkpt>
      <trkpt lat="42.766509" lon="-0.176543">
        <ele>2130.129</ele>
        <time>2020-07-24T07:56:08Z</time>
      </trkpt>
      <trkpt lat="42.766509" lon="-0.176609">
        <ele>2131.213</ele>
        <time>2020-07-24T07:56:14Z</time>
      </trkpt>
      <trkpt lat="42.766509" lon="-0.176676">
        <ele>2130.043</ele>
        <time>2020-07-24T07:56:20Z</time>
      </trkpt>
      <trkpt lat="42.766512" lon="-0.176746">
        <ele>2131.607</ele>
        <time>2020-07-24T07:56:26Z</time>
      </trkpt>
      <trkpt lat="42.766521" lon="-0.176809">
        <ele>2132.408</ele>
        <time>2020-07-24T07:56:31Z</time>
      </trkpt>
      <trkpt lat="42.766515" lon="-0.176874">
        <ele>2132.486</ele>
        <time>2020-07-24T07:56:37Z</time>
      </trkpt>
      <trkpt lat="42.766514" lon="-0.176948">
        <ele>2133.144</ele>
        <time>2020-07-24T07:56:43Z</time>
      </trkpt>
      <trkpt lat="42.766541" lon="-0.177019">
        <ele>2133.428</ele>
        <time>2020-07-24T07:56:49Z</time>
      </trkpt>
      <trkpt lat="42.766560" lon="-0.177079">
        <ele>2133.921</ele>
        <time>2020-07-24T07:56:54Z</time>
      </trkpt>
      <trkpt lat="42.766569" lon="-0.177143">
        <ele>2133.795</ele>
        <time>2020-07-24T07:56:59Z</time>
      </trkpt>
      <trkpt lat="42.766578" lon="-0.177217">
        <ele>2134.798</ele>
        <time>2020-07-24T07:57:06Z</time>
      </trkpt>
      <trkpt lat="42.766567" lon="-0.177280">
        <ele>2134.958</ele>
        <time>2020-07-24T07:57:11Z</time>
      </trkpt>
      <trkpt lat="42.766557" lon="-0.177326">
        <ele>2136.717</ele>
        <time>2020-07-24T07:57:19Z</time>
      </trkpt>
      <trkpt lat="42.766525" lon="-0.177363">
        <ele>2138.017</ele>
        <time>2020-07-24T07:57:25Z</time>
      </trkpt>
      <trkpt lat="42.766496" lon="-0.177412">
        <ele>2138.787</ele>
        <time>2020-07-24T07:57:32Z</time>
      </trkpt>
      <trkpt lat="42.766464" lon="-0.177457">
        <ele>2140.115</ele>
        <time>2020-07-24T07:57:39Z</time>
      </trkpt>
      <trkpt lat="42.766448" lon="-0.177523">
        <ele>2138.808</ele>
        <time>2020-07-24T07:57:48Z</time>
      </trkpt>
      <trkpt lat="42.766473" lon="-0.177588">
        <ele>2140.496</ele>
        <time>2020-07-24T07:57:55Z</time>
      </trkpt>
      <trkpt lat="42.766496" lon="-0.177651">
        <ele>2141.964</ele>
        <time>2020-07-24T07:58:02Z</time>
      </trkpt>
      <trkpt lat="42.766498" lon="-0.177719">
        <ele>2143.858</ele>
        <time>2020-07-24T07:58:11Z</time>
      </trkpt>
      <trkpt lat="42.766478" lon="-0.177779">
        <ele>2143.581</ele>
        <time>2020-07-24T07:58:18Z</time>
      </trkpt>
      <trkpt lat="42.766461" lon="-0.177838">
        <ele>2144.365</ele>
        <time>2020-07-24T07:58:24Z</time>
      </trkpt>
      <trkpt lat="42.766441" lon="-0.177900">
        <ele>2145.698</ele>
        <time>2020-07-24T07:58:31Z</time>
      </trkpt>
      <trkpt lat="42.766432" lon="-0.177968">
        <ele>2145.278</ele>
        <time>2020-07-24T07:58:37Z</time>
      </trkpt>
      <trkpt lat="42.766425" lon="-0.178034">
        <ele>2148.227</ele>
        <time>2020-07-24T07:58:44Z</time>
      </trkpt>
      <trkpt lat="42.766407" lon="-0.178099">
        <ele>2148.688</ele>
        <time>2020-07-24T07:58:52Z</time>
      </trkpt>
      <trkpt lat="42.766382" lon="-0.178155">
        <ele>2147.924</ele>
        <time>2020-07-24T07:58:59Z</time>
      </trkpt>
      <trkpt lat="42.766369" lon="-0.178220">
        <ele>2150.826</ele>
        <time>2020-07-24T07:59:06Z</time>
      </trkpt>
      <trkpt lat="42.766353" lon="-0.178278">
        <ele>2149.708</ele>
        <time>2020-07-24T07:59:13Z</time>
      </trkpt>
      <trkpt lat="42.766348" lon="-0.178345">
        <ele>2152.283</ele>
        <time>2020-07-24T07:59:22Z</time>
      </trkpt>
      <trkpt lat="42.766329" lon="-0.178407">
        <ele>2154.551</ele>
        <time>2020-07-24T07:59:33Z</time>
      </trkpt>
      <trkpt lat="42.766348" lon="-0.178465">
        <ele>2155.475</ele>
        <time>2020-07-24T07:59:42Z</time>
      </trkpt>
      <trkpt lat="42.766368" lon="-0.178523">
        <ele>2155.128</ele>
        <time>2020-07-24T07:59:51Z</time>
      </trkpt>
      <trkpt lat="42.766378" lon="-0.178577">
        <ele>2157.242</ele>
        <time>2020-07-24T07:59:58Z</time>
      </trkpt>
      <trkpt lat="42.766373" lon="-0.178637">
        <ele>2158.895</ele>
        <time>2020-07-24T08:00:08Z</time>
      </trkpt>
      <trkpt lat="42.766394" lon="-0.178695">
        <ele>2161.555</ele>
        <time>2020-07-24T08:00:20Z</time>
      </trkpt>
      <trkpt lat="42.766402" lon="-0.178756">
        <ele>2159.794</ele>
        <time>2020-07-24T08:00:28Z</time>
      </trkpt>
      <trkpt lat="42.766408" lon="-0.178822">
        <ele>2159.692</ele>
        <time>2020-07-24T08:00:36Z</time>
      </trkpt>
      <trkpt lat="42.766438" lon="-0.178877">
        <ele>2162.873</ele>
        <time>2020-07-24T08:00:43Z</time>
      </trkpt>
      <trkpt lat="42.766466" lon="-0.178931">
        <ele>2161.820</ele>
        <time>2020-07-24T08:00:51Z</time>
      </trkpt>
      <trkpt lat="42.766497" lon="-0.178980">
        <ele>2163.208</ele>
        <time>2020-07-24T08:00:57Z</time>
      </trkpt>
      <trkpt lat="42.766507" lon="-0.179043">
        <ele>2164.914</ele>
        <time>2020-07-24T08:01:05Z</time>
      </trkpt>
      <trkpt lat="42.766516" lon="-0.179120">
        <ele>2166.462</ele>
        <time>2020-07-24T08:01:12Z</time>
      </trkpt>
      <trkpt lat="42.766488" lon="-0.179178">
        <ele>2168.486</ele>
        <time>2020-07-24T08:01:21Z</time>
      </trkpt>
      <trkpt lat="42.766460" lon="-0.179234">
        <ele>2168.179</ele>
        <time>2020-07-24T08:01:28Z</time>
      </trkpt>
      <trkpt lat="42.766443" lon="-0.179295">
        <ele>2167.923</ele>
        <time>2020-07-24T08:01:35Z</time>
      </trkpt>
      <trkpt lat="42.766421" lon="-0.179354">
        <ele>2168.996</ele>
        <time>2020-07-24T08:01:44Z</time>
      </trkpt>
      <trkpt lat="42.766385" lon="-0.179397">
        <ele>2170.956</ele>
        <time>2020-07-24T08:01:52Z</time>
      </trkpt>
      <trkpt lat="42.766352" lon="-0.179443">
        <ele>2173.025</ele>
        <time>2020-07-24T08:02:01Z</time>
      </trkpt>
      <trkpt lat="42.766331" lon="-0.179497">
        <ele>2173.096</ele>
        <time>2020-07-24T08:02:09Z</time>
      </trkpt>
      <trkpt lat="42.766311" lon="-0.179552">
        <ele>2174.331</ele>
        <time>2020-07-24T08:02:14Z</time>
      </trkpt>
      <trkpt lat="42.766310" lon="-0.179616">
        <ele>2174.524</ele>
        <time>2020-07-24T08:02:21Z</time>
      </trkpt>
      <trkpt lat="42.766304" lon="-0.179683">
        <ele>2172.708</ele>
        <time>2020-07-24T08:02:28Z</time>
      </trkpt>
      <trkpt lat="42.766309" lon="-0.179747">
        <ele>2174.344</ele>
        <time>2020-07-24T08:02:34Z</time>
      </trkpt>
      <trkpt lat="42.766292" lon="-0.179807">
        <ele>2173.742</ele>
        <time>2020-07-24T08:02:41Z</time>
      </trkpt>
      <trkpt lat="42.766249" lon="-0.179839">
        <ele>2175.246</ele>
        <time>2020-07-24T08:02:47Z</time>
      </trkpt>
      <trkpt lat="42.766218" lon="-0.179892">
        <ele>2176.629</ele>
        <time>2020-07-24T08:03:02Z</time>
      </trkpt>
      <trkpt lat="42.766197" lon="-0.179955">
        <ele>2177.993</ele>
        <time>2020-07-24T08:03:12Z</time>
      </trkpt>
      <trkpt lat="42.766187" lon="-0.180028">
        <ele>2179.056</ele>
        <time>2020-07-24T08:03:21Z</time>
      </trkpt>
      <trkpt lat="42.766178" lon="-0.180090">
        <ele>2179.386</ele>
        <time>2020-07-24T08:03:27Z</time>
      </trkpt>
      <trkpt lat="42.766153" lon="-0.180151">
        <ele>2178.745</ele>
        <time>2020-07-24T08:03:33Z</time>
      </trkpt>
      <trkpt lat="42.766122" lon="-0.180218">
        <ele>2179.736</ele>
        <time>2020-07-24T08:03:39Z</time>
      </trkpt>
      <trkpt lat="42.766117" lon="-0.180282">
        <ele>2181.317</ele>
        <time>2020-07-24T08:03:49Z</time>
      </trkpt>
      <trkpt lat="42.766130" lon="-0.180356">
        <ele>2181.818</ele>
        <time>2020-07-24T08:04:08Z</time>
      </trkpt>
      <trkpt lat="42.766139" lon="-0.180422">
        <ele>2183.208</ele>
        <time>2020-07-24T08:04:13Z</time>
      </trkpt>
      <trkpt lat="42.766130" lon="-0.180490">
        <ele>2182.938</ele>
        <time>2020-07-24T08:04:22Z</time>
      </trkpt>
      <trkpt lat="42.766098" lon="-0.180534">
        <ele>2184.126</ele>
        <time>2020-07-24T08:04:27Z</time>
      </trkpt>
      <trkpt lat="42.766081" lon="-0.180599">
        <ele>2183.920</ele>
        <time>2020-07-24T08:04:33Z</time>
      </trkpt>
      <trkpt lat="42.766073" lon="-0.180660">
        <ele>2184.043</ele>
        <time>2020-07-24T08:04:39Z</time>
      </trkpt>
      <trkpt lat="42.766038" lon="-0.180703">
        <ele>2185.117</ele>
        <time>2020-07-24T08:04:47Z</time>
      </trkpt>
      <trkpt lat="42.766034" lon="-0.180775">
        <ele>2187.990</ele>
        <time>2020-07-24T08:05:09Z</time>
      </trkpt>
      <trkpt lat="42.766000" lon="-0.180826">
        <ele>2189.220</ele>
        <time>2020-07-24T08:05:18Z</time>
      </trkpt>
      <trkpt lat="42.765955" lon="-0.180874">
        <ele>2190.299</ele>
        <time>2020-07-24T08:05:26Z</time>
      </trkpt>
      <trkpt lat="42.765911" lon="-0.180889">
        <ele>2191.263</ele>
        <time>2020-07-24T08:05:31Z</time>
      </trkpt>
      <trkpt lat="42.765879" lon="-0.180939">
        <ele>2191.944</ele>
        <time>2020-07-24T08:05:39Z</time>
      </trkpt>
      <trkpt lat="42.765860" lon="-0.181002">
        <ele>2192.018</ele>
        <time>2020-07-24T08:05:46Z</time>
      </trkpt>
      <trkpt lat="42.765821" lon="-0.181058">
        <ele>2193.508</ele>
        <time>2020-07-24T08:05:53Z</time>
      </trkpt>
      <trkpt lat="42.765789" lon="-0.181107">
        <ele>2192.411</ele>
        <time>2020-07-24T08:05:59Z</time>
      </trkpt>
      <trkpt lat="42.765786" lon="-0.181177">
        <ele>2194.579</ele>
        <time>2020-07-24T08:06:06Z</time>
      </trkpt>
      <trkpt lat="42.765794" lon="-0.181240">
        <ele>2195.373</ele>
        <time>2020-07-24T08:06:13Z</time>
      </trkpt>
      <trkpt lat="42.765805" lon="-0.181301">
        <ele>2195.146</ele>
        <time>2020-07-24T08:06:18Z</time>
      </trkpt>
      <trkpt lat="42.765800" lon="-0.181357">
        <ele>2196.720</ele>
        <time>2020-07-24T08:06:29Z</time>
      </trkpt>
      <trkpt lat="42.765769" lon="-0.181380">
        <ele>2199.233</ele>
        <time>2020-07-24T08:06:45Z</time>
      </trkpt>
      <trkpt lat="42.765730" lon="-0.181399">
        <ele>2198.243</ele>
        <time>2020-07-24T08:06:52Z</time>
      </trkpt>
      <trkpt lat="42.765706" lon="-0.181444">
        <ele>2197.682</ele>
        <time>2020-07-24T08:06:57Z</time>
      </trkpt>
      <trkpt lat="42.765680" lon="-0.181505">
        <ele>2201.131</ele>
        <time>2020-07-24T08:07:05Z</time>
      </trkpt>
      <trkpt lat="42.765631" lon="-0.181535">
        <ele>2200.661</ele>
        <time>2020-07-24T08:07:18Z</time>
      </trkpt>
      <trkpt lat="42.765577" lon="-0.181550">
        <ele>2202.607</ele>
        <time>2020-07-24T08:07:25Z</time>
      </trkpt>
      <trkpt lat="42.765524" lon="-0.181571">
        <ele>2203.708</ele>
        <time>2020-07-24T08:07:32Z</time>
      </trkpt>
      <trkpt lat="42.765475" lon="-0.181585">
        <ele>2204.368</ele>
        <time>2020-07-24T08:07:38Z</time>
      </trkpt>
      <trkpt lat="42.765424" lon="-0.181616">
        <ele>2204.456</ele>
        <time>2020-07-24T08:07:48Z</time>
      </trkpt>
      <trkpt lat="42.765374" lon="-0.181641">
        <ele>2205.760</ele>
        <time>2020-07-24T08:07:54Z</time>
      </trkpt>
      <trkpt lat="42.765347" lon="-0.181699">
        <ele>2205.353</ele>
        <time>2020-07-24T08:08:01Z</time>
      </trkpt>
      <trkpt lat="42.765328" lon="-0.181757">
        <ele>2206.757</ele>
        <time>2020-07-24T08:08:06Z</time>
      </trkpt>
      <trkpt lat="42.765340" lon="-0.181818">
        <ele>2206.470</ele>
        <time>2020-07-24T08:08:19Z</time>
      </trkpt>
      <trkpt lat="42.765354" lon="-0.181887">
        <ele>2205.730</ele>
        <time>2020-07-24T08:08:25Z</time>
      </trkpt>
      <trkpt lat="42.765381" lon="-0.181953">
        <ele>2205.619</ele>
        <time>2020-07-24T08:08:31Z</time>
      </trkpt>
      <trkpt lat="42.765393" lon="-0.182022">
        <ele>2208.459</ele>
        <time>2020-07-24T08:08:38Z</time>
      </trkpt>
      <trkpt lat="42.765383" lon="-0.182088">
        <ele>2207.403</ele>
        <time>2020-07-24T08:08:45Z</time>
      </trkpt>
      <trkpt lat="42.765372" lon="-0.182148">
        <ele>2207.523</ele>
        <time>2020-07-24T08:13:37Z</time>
      </trkpt>
      <trkpt lat="42.765382" lon="-0.182208">
        <ele>2207.508</ele>
        <time>2020-07-24T08:17:24Z</time>
      </trkpt>
      <trkpt lat="42.765397" lon="-0.182269">
        <ele>2207.260</ele>
        <time>2020-07-24T08:17:31Z</time>
      </trkpt>
      <trkpt lat="42.765431" lon="-0.182342">
        <ele>2207.188</ele>
        <time>2020-07-24T08:17:36Z</time>
      </trkpt>
      <trkpt lat="42.765466" lon="-0.182402">
        <ele>2207.812</ele>
        <time>2020-07-24T08:17:40Z</time>
      </trkpt>
      <trkpt lat="42.765505" lon="-0.182450">
        <ele>2207.895</ele>
        <time>2020-07-24T08:17:45Z</time>
      </trkpt>
      <trkpt lat="42.765516" lon="-0.182521">
        <ele>2208.479</ele>
        <time>2020-07-24T08:18:02Z</time>
      </trkpt>
      <trkpt lat="42.765513" lon="-0.182592">
        <ele>2208.362</ele>
        <time>2020-07-24T08:18:08Z</time>
      </trkpt>
      <trkpt lat="42.765531" lon="-0.182655">
        <ele>2208.272</ele>
        <time>2020-07-24T08:18:15Z</time>
      </trkpt>
      <trkpt lat="42.765547" lon="-0.182729">
        <ele>2209.761</ele>
        <time>2020-07-24T08:18:22Z</time>
      </trkpt>
      <trkpt lat="42.765557" lon="-0.182800">
        <ele>2209.799</ele>
        <time>2020-07-24T08:18:28Z</time>
      </trkpt>
      <trkpt lat="42.765591" lon="-0.182857">
        <ele>2210.907</ele>
        <time>2020-07-24T08:18:34Z</time>
      </trkpt>
      <trkpt lat="42.765629" lon="-0.182893">
        <ele>2210.527</ele>
        <time>2020-07-24T08:18:39Z</time>
      </trkpt>
      <trkpt lat="42.765662" lon="-0.182952">
        <ele>2210.808</ele>
        <time>2020-07-24T08:18:45Z</time>
      </trkpt>
      <trkpt lat="42.765705" lon="-0.182997">
        <ele>2210.284</ele>
        <time>2020-07-24T08:18:50Z</time>
      </trkpt>
      <trkpt lat="42.765744" lon="-0.183035">
        <ele>2211.112</ele>
        <time>2020-07-24T08:18:56Z</time>
      </trkpt>
      <trkpt lat="42.765780" lon="-0.183073">
        <ele>2209.966</ele>
        <time>2020-07-24T08:19:01Z</time>
      </trkpt>
      <trkpt lat="42.765830" lon="-0.183115">
        <ele>2210.429</ele>
        <time>2020-07-24T08:19:08Z</time>
      </trkpt>
      <trkpt lat="42.765858" lon="-0.183179">
        <ele>2211.863</ele>
        <time>2020-07-24T08:19:15Z</time>
      </trkpt>
      <trkpt lat="42.765853" lon="-0.183245">
        <ele>2212.676</ele>
        <time>2020-07-24T08:19:21Z</time>
      </trkpt>
      <trkpt lat="42.765823" lon="-0.183315">
        <ele>2211.946</ele>
        <time>2020-07-24T08:19:27Z</time>
      </trkpt>
      <trkpt lat="42.765800" lon="-0.183366">
        <ele>2213.025</ele>
        <time>2020-07-24T08:19:34Z</time>
      </trkpt>
      <trkpt lat="42.765764" lon="-0.183398">
        <ele>2213.017</ele>
        <time>2020-07-24T08:19:41Z</time>
      </trkpt>
      <trkpt lat="42.765743" lon="-0.183457">
        <ele>2213.987</ele>
        <time>2020-07-24T08:19:47Z</time>
      </trkpt>
      <trkpt lat="42.765725" lon="-0.183530">
        <ele>2215.415</ele>
        <time>2020-07-24T08:19:54Z</time>
      </trkpt>
      <trkpt lat="42.765702" lon="-0.183586">
        <ele>2215.508</ele>
        <time>2020-07-24T08:20:01Z</time>
      </trkpt>
      <trkpt lat="42.765713" lon="-0.183649">
        <ele>2215.516</ele>
        <time>2020-07-24T08:20:10Z</time>
      </trkpt>
      <trkpt lat="42.765731" lon="-0.183706">
        <ele>2217.254</ele>
        <time>2020-07-24T08:20:15Z</time>
      </trkpt>
      <trkpt lat="42.765741" lon="-0.183768">
        <ele>2215.878</ele>
        <time>2020-07-24T08:20:21Z</time>
      </trkpt>
      <trkpt lat="42.765724" lon="-0.183835">
        <ele>2217.821</ele>
        <time>2020-07-24T08:20:26Z</time>
      </trkpt>
      <trkpt lat="42.765699" lon="-0.183888">
        <ele>2217.585</ele>
        <time>2020-07-24T08:20:30Z</time>
      </trkpt>
      <trkpt lat="42.765680" lon="-0.183950">
        <ele>2218.458</ele>
        <time>2020-07-24T08:20:37Z</time>
      </trkpt>
      <trkpt lat="42.765677" lon="-0.184023">
        <ele>2219.048</ele>
        <time>2020-07-24T08:20:44Z</time>
      </trkpt>
      <trkpt lat="42.765682" lon="-0.184092">
        <ele>2219.197</ele>
        <time>2020-07-24T08:20:50Z</time>
      </trkpt>
      <trkpt lat="42.765703" lon="-0.184147">
        <ele>2219.164</ele>
        <time>2020-07-24T08:20:56Z</time>
      </trkpt>
      <trkpt lat="42.765728" lon="-0.184207">
        <ele>2221.206</ele>
        <time>2020-07-24T08:21:03Z</time>
      </trkpt>
      <trkpt lat="42.765738" lon="-0.184274">
        <ele>2221.216</ele>
        <time>2020-07-24T08:21:12Z</time>
      </trkpt>
      <trkpt lat="42.765716" lon="-0.184333">
        <ele>2222.408</ele>
        <time>2020-07-24T08:21:20Z</time>
      </trkpt>
      <trkpt lat="42.765671" lon="-0.184375">
        <ele>2224.451</ele>
        <time>2020-07-24T08:21:31Z</time>
      </trkpt>
      <trkpt lat="42.765651" lon="-0.184430">
        <ele>2222.679</ele>
        <time>2020-07-24T08:21:38Z</time>
      </trkpt>
      <trkpt lat="42.765633" lon="-0.184495">
        <ele>2226.523</ele>
        <time>2020-07-24T08:21:50Z</time>
      </trkpt>
      <trkpt lat="42.765624" lon="-0.184556">
        <ele>2227.186</ele>
        <time>2020-07-24T08:22:02Z</time>
      </trkpt>
      <trkpt lat="42.765607" lon="-0.184619">
        <ele>2228.890</ele>
        <time>2020-07-24T08:22:12Z</time>
      </trkpt>
      <trkpt lat="42.765595" lon="-0.184681">
        <ele>2228.143</ele>
        <time>2020-07-24T08:22:19Z</time>
      </trkpt>
      <trkpt lat="42.765590" lon="-0.184743">
        <ele>2230.283</ele>
        <time>2020-07-24T08:22:26Z</time>
      </trkpt>
      <trkpt lat="42.765595" lon="-0.184792">
        <ele>2231.352</ele>
        <time>2020-07-24T08:22:35Z</time>
      </trkpt>
      <trkpt lat="42.765573" lon="-0.184850">
        <ele>2234.494</ele>
        <time>2020-07-24T08:22:54Z</time>
      </trkpt>
      <trkpt lat="42.765567" lon="-0.184918">
        <ele>2236.657</ele>
        <time>2020-07-24T08:23:04Z</time>
      </trkpt>
      <trkpt lat="42.765550" lon="-0.184976">
        <ele>2237.622</ele>
        <time>2020-07-24T08:23:16Z</time>
      </trkpt>
      <trkpt lat="42.765538" lon="-0.185037">
        <ele>2239.908</ele>
        <time>2020-07-24T08:23:29Z</time>
      </trkpt>
      <trkpt lat="42.765543" lon="-0.185100">
        <ele>2240.534</ele>
        <time>2020-07-24T08:23:38Z</time>
      </trkpt>
      <trkpt lat="42.765553" lon="-0.185162">
        <ele>2240.292</ele>
        <time>2020-07-24T08:23:53Z</time>
      </trkpt>
      <trkpt lat="42.765548" lon="-0.185227">
        <ele>2242.066</ele>
        <time>2020-07-24T08:24:06Z</time>
      </trkpt>
      <trkpt lat="42.765546" lon="-0.185288">
        <ele>2244.769</ele>
        <time>2020-07-24T08:24:19Z</time>
      </trkpt>
      <trkpt lat="42.765553" lon="-0.185356">
        <ele>2245.523</ele>
        <time>2020-07-24T08:24:28Z</time>
      </trkpt>
      <trkpt lat="42.765547" lon="-0.185421">
        <ele>2248.436</ele>
        <time>2020-07-24T08:24:43Z</time>
      </trkpt>
      <trkpt lat="42.765525" lon="-0.185477">
        <ele>2250.536</ele>
        <time>2020-07-24T08:24:59Z</time>
      </trkpt>
      <trkpt lat="42.765514" lon="-0.185530">
        <ele>2252.445</ele>
        <time>2020-07-24T08:25:08Z</time>
      </trkpt>
      <trkpt lat="42.765515" lon="-0.185587">
        <ele>2251.668</ele>
        <time>2020-07-24T08:25:16Z</time>
      </trkpt>
      <trkpt lat="42.765485" lon="-0.185645">
        <ele>2254.642</ele>
        <time>2020-07-24T08:25:26Z</time>
      </trkpt>
      <trkpt lat="42.765468" lon="-0.185708">
        <ele>2255.326</ele>
        <time>2020-07-24T08:25:36Z</time>
      </trkpt>
      <trkpt lat="42.765451" lon="-0.185777">
        <ele>2256.608</ele>
        <time>2020-07-24T08:25:56Z</time>
      </trkpt>
      <trkpt lat="42.765471" lon="-0.185832">
        <ele>2258.021</ele>
        <time>2020-07-24T08:26:09Z</time>
      </trkpt>
      <trkpt lat="42.765474" lon="-0.185898">
        <ele>2258.379</ele>
        <time>2020-07-24T08:26:23Z</time>
      </trkpt>
      <trkpt lat="42.765445" lon="-0.185958">
        <ele>2258.253</ele>
        <time>2020-07-24T08:26:33Z</time>
      </trkpt>
      <trkpt lat="42.765432" lon="-0.186027">
        <ele>2259.596</ele>
        <time>2020-07-24T08:26:43Z</time>
      </trkpt>
      <trkpt lat="42.765459" lon="-0.186084">
        <ele>2261.120</ele>
        <time>2020-07-24T08:26:51Z</time>
      </trkpt>
      <trkpt lat="42.765469" lon="-0.186152">
        <ele>2262.543</ele>
        <time>2020-07-24T08:27:01Z</time>
      </trkpt>
      <trkpt lat="42.765471" lon="-0.186217">
        <ele>2263.873</ele>
        <time>2020-07-24T08:27:08Z</time>
      </trkpt>
      <trkpt lat="42.765469" lon="-0.186292">
        <ele>2264.132</ele>
        <time>2020-07-24T08:27:19Z</time>
      </trkpt>
      <trkpt lat="42.765469" lon="-0.186365">
        <ele>2265.655</ele>
        <time>2020-07-24T08:27:29Z</time>
      </trkpt>
      <trkpt lat="42.765439" lon="-0.186415">
        <ele>2267.207</ele>
        <time>2020-07-24T08:27:41Z</time>
      </trkpt>
      <trkpt lat="42.765391" lon="-0.186421">
        <ele>2269.217</ele>
        <time>2020-07-24T08:27:57Z</time>
      </trkpt>
      <trkpt lat="42.765392" lon="-0.186475">
        <ele>2271.808</ele>
        <time>2020-07-24T08:28:11Z</time>
      </trkpt>
      <trkpt lat="42.765417" lon="-0.186511">
        <ele>2272.510</ele>
        <time>2020-07-24T08:28:21Z</time>
      </trkpt>
      <trkpt lat="42.765418" lon="-0.186564">
        <ele>2274.378</ele>
        <time>2020-07-24T08:28:29Z</time>
      </trkpt>
      <trkpt lat="42.765381" lon="-0.186575">
        <ele>2274.232</ele>
        <time>2020-07-24T08:28:37Z</time>
      </trkpt>
      <trkpt lat="42.765337" lon="-0.186592">
        <ele>2277.275</ele>
        <time>2020-07-24T08:29:26Z</time>
      </trkpt>
      <trkpt lat="42.765299" lon="-0.186627">
        <ele>2278.079</ele>
        <time>2020-07-24T08:29:33Z</time>
      </trkpt>
      <trkpt lat="42.765303" lon="-0.186694">
        <ele>2280.752</ele>
        <time>2020-07-24T08:29:41Z</time>
      </trkpt>
      <trkpt lat="42.765292" lon="-0.186755">
        <ele>2280.762</ele>
        <time>2020-07-24T08:29:53Z</time>
      </trkpt>
      <trkpt lat="42.765313" lon="-0.186816">
        <ele>2282.971</ele>
        <time>2020-07-24T08:30:04Z</time>
      </trkpt>
      <trkpt lat="42.765336" lon="-0.186871">
        <ele>2283.762</ele>
        <time>2020-07-24T08:30:13Z</time>
      </trkpt>
      <trkpt lat="42.765348" lon="-0.186931">
        <ele>2285.883</ele>
        <time>2020-07-24T08:30:23Z</time>
      </trkpt>
      <trkpt lat="42.765372" lon="-0.186990">
        <ele>2285.511</ele>
        <time>2020-07-24T08:30:30Z</time>
      </trkpt>
      <trkpt lat="42.765367" lon="-0.187055">
        <ele>2286.808</ele>
        <time>2020-07-24T08:30:37Z</time>
      </trkpt>
      <trkpt lat="42.765367" lon="-0.187123">
        <ele>2287.931</ele>
        <time>2020-07-24T08:30:45Z</time>
      </trkpt>
      <trkpt lat="42.765353" lon="-0.187186">
        <ele>2288.029</ele>
        <time>2020-07-24T08:30:53Z</time>
      </trkpt>
      <trkpt lat="42.765349" lon="-0.187257">
        <ele>2288.343</ele>
        <time>2020-07-24T08:31:00Z</time>
      </trkpt>
      <trkpt lat="42.765337" lon="-0.187333">
        <ele>2287.796</ele>
        <time>2020-07-24T08:31:07Z</time>
      </trkpt>
      <trkpt lat="42.765324" lon="-0.187401">
        <ele>2289.070</ele>
        <time>2020-07-24T08:31:14Z</time>
      </trkpt>
      <trkpt lat="42.765318" lon="-0.187473">
        <ele>2289.633</ele>
        <time>2020-07-24T08:31:24Z</time>
      </trkpt>
      <trkpt lat="42.765331" lon="-0.187532">
        <ele>2292.683</ele>
        <time>2020-07-24T08:31:32Z</time>
      </trkpt>
      <trkpt lat="42.765338" lon="-0.187599">
        <ele>2294.132</ele>
        <time>2020-07-24T08:31:42Z</time>
      </trkpt>
      <trkpt lat="42.765337" lon="-0.187667">
        <ele>2293.854</ele>
        <time>2020-07-24T08:31:52Z</time>
      </trkpt>
      <trkpt lat="42.765344" lon="-0.187735">
        <ele>2294.856</ele>
        <time>2020-07-24T08:32:01Z</time>
      </trkpt>
      <trkpt lat="42.765332" lon="-0.187797">
        <ele>2296.111</ele>
        <time>2020-07-24T08:32:10Z</time>
      </trkpt>
      <trkpt lat="42.765325" lon="-0.187859">
        <ele>2299.108</ele>
        <time>2020-07-24T08:32:20Z</time>
      </trkpt>
      <trkpt lat="42.765315" lon="-0.187918">
        <ele>2300.720</ele>
        <time>2020-07-24T08:32:30Z</time>
      </trkpt>
      <trkpt lat="42.765339" lon="-0.187970">
        <ele>2300.478</ele>
        <time>2020-07-24T08:32:40Z</time>
      </trkpt>
      <trkpt lat="42.765374" lon="-0.188017">
        <ele>2302.922</ele>
        <time>2020-07-24T08:32:50Z</time>
      </trkpt>
      <trkpt lat="42.765421" lon="-0.188041">
        <ele>2304.585</ele>
        <time>2020-07-24T08:33:04Z</time>
      </trkpt>
      <trkpt lat="42.765439" lon="-0.188097">
        <ele>2306.819</ele>
        <time>2020-07-24T08:33:38Z</time>
      </trkpt>
      <trkpt lat="42.765448" lon="-0.188151">
        <ele>2306.782</ele>
        <time>2020-07-24T08:33:51Z</time>
      </trkpt>
      <trkpt lat="42.765473" lon="-0.188199">
        <ele>2309.832</ele>
        <time>2020-07-24T08:34:03Z</time>
      </trkpt>
      <trkpt lat="42.765503" lon="-0.188254">
        <ele>2312.151</ele>
        <time>2020-07-24T08:34:15Z</time>
      </trkpt>
      <trkpt lat="42.765520" lon="-0.188314">
        <ele>2314.014</ele>
        <time>2020-07-24T08:34:32Z</time>
      </trkpt>
      <trkpt lat="42.765521" lon="-0.188389">
        <ele>2315.254</ele>
        <time>2020-07-24T08:34:44Z</time>
      </trkpt>
      <trkpt lat="42.765494" lon="-0.188426">
        <ele>2317.109</ele>
        <time>2020-07-24T08:34:54Z</time>
      </trkpt>
      <trkpt lat="42.765508" lon="-0.188475">
        <ele>2318.608</ele>
        <time>2020-07-24T08:35:07Z</time>
      </trkpt>
      <trkpt lat="42.765533" lon="-0.188531">
        <ele>2319.396</ele>
        <time>2020-07-24T08:35:16Z</time>
      </trkpt>
      <trkpt lat="42.765515" lon="-0.188601">
        <ele>2320.914</ele>
        <time>2020-07-24T08:35:31Z</time>
      </trkpt>
      <trkpt lat="42.765498" lon="-0.188660">
        <ele>2321.728</ele>
        <time>2020-07-24T08:35:39Z</time>
      </trkpt>
      <trkpt lat="42.765462" lon="-0.188691">
        <ele>2325.371</ele>
        <time>2020-07-24T08:36:00Z</time>
      </trkpt>
      <trkpt lat="42.765450" lon="-0.188759">
        <ele>2325.485</ele>
        <time>2020-07-24T08:36:09Z</time>
      </trkpt>
      <trkpt lat="42.765428" lon="-0.188813">
        <ele>2327.758</ele>
        <time>2020-07-24T08:36:23Z</time>
      </trkpt>
      <trkpt lat="42.765430" lon="-0.188887">
        <ele>2328.428</ele>
        <time>2020-07-24T08:36:31Z</time>
      </trkpt>
      <trkpt lat="42.765390" lon="-0.188933">
        <ele>2330.497</ele>
        <time>2020-07-24T08:36:44Z</time>
      </trkpt>
      <trkpt lat="42.765351" lon="-0.188964">
        <ele>2332.539</ele>
        <time>2020-07-24T08:36:56Z</time>
      </trkpt>
      <trkpt lat="42.765333" lon="-0.189021">
        <ele>2334.501</ele>
        <time>2020-07-24T08:37:44Z</time>
      </trkpt>
      <trkpt lat="42.765289" lon="-0.189054">
        <ele>2337.021</ele>
        <time>2020-07-24T08:37:52Z</time>
      </trkpt>
      <trkpt lat="42.765256" lon="-0.189099">
        <ele>2337.908</ele>
        <time>2020-07-24T08:38:00Z</time>
      </trkpt>
      <trkpt lat="42.765227" lon="-0.189156">
        <ele>2338.338</ele>
        <time>2020-07-24T08:38:11Z</time>
      </trkpt>
      <trkpt lat="42.765215" lon="-0.189216">
        <ele>2340.056</ele>
        <time>2020-07-24T08:38:17Z</time>
      </trkpt>
      <trkpt lat="42.765200" lon="-0.189281">
        <ele>2341.510</ele>
        <time>2020-07-24T08:38:25Z</time>
      </trkpt>
      <trkpt lat="42.765167" lon="-0.189331">
        <ele>2340.373</ele>
        <time>2020-07-24T08:38:33Z</time>
      </trkpt>
      <trkpt lat="42.765118" lon="-0.189348">
        <ele>2341.077</ele>
        <time>2020-07-24T08:38:41Z</time>
      </trkpt>
      <trkpt lat="42.765075" lon="-0.189379">
        <ele>2342.110</ele>
        <time>2020-07-24T08:38:47Z</time>
      </trkpt>
      <trkpt lat="42.765042" lon="-0.189430">
        <ele>2342.280</ele>
        <time>2020-07-24T08:38:56Z</time>
      </trkpt>
      <trkpt lat="42.765042" lon="-0.189494">
        <ele>2341.799</ele>
        <time>2020-07-24T08:39:30Z</time>
      </trkpt>
      <trkpt lat="42.765021" lon="-0.189559">
        <ele>2341.588</ele>
        <time>2020-07-24T08:39:41Z</time>
      </trkpt>
      <trkpt lat="42.764995" lon="-0.189624">
        <ele>2341.624</ele>
        <time>2020-07-24T08:39:46Z</time>
      </trkpt>
      <trkpt lat="42.764974" lon="-0.189700">
        <ele>2342.326</ele>
        <time>2020-07-24T08:39:51Z</time>
      </trkpt>
      <trkpt lat="42.764960" lon="-0.189763">
        <ele>2342.308</ele>
        <time>2020-07-24T08:39:55Z</time>
      </trkpt>
      <trkpt lat="42.764937" lon="-0.189836">
        <ele>2342.533</ele>
        <time>2020-07-24T08:40:01Z</time>
      </trkpt>
      <trkpt lat="42.764921" lon="-0.189894">
        <ele>2342.221</ele>
        <time>2020-07-24T08:40:06Z</time>
      </trkpt>
      <trkpt lat="42.764897" lon="-0.189965">
        <ele>2341.945</ele>
        <time>2020-07-24T08:40:11Z</time>
      </trkpt>
      <trkpt lat="42.764888" lon="-0.190039">
        <ele>2343.478</ele>
        <time>2020-07-24T08:40:16Z</time>
      </trkpt>
      <trkpt lat="42.764872" lon="-0.190108">
        <ele>2343.462</ele>
        <time>2020-07-24T08:40:23Z</time>
      </trkpt>
      <trkpt lat="42.764857" lon="-0.190170">
        <ele>2343.945</ele>
        <time>2020-07-24T08:40:29Z</time>
      </trkpt>
      <trkpt lat="42.764844" lon="-0.190235">
        <ele>2344.575</ele>
        <time>2020-07-24T08:40:34Z</time>
      </trkpt>
      <trkpt lat="42.764814" lon="-0.190293">
        <ele>2344.574</ele>
        <time>2020-07-24T08:40:42Z</time>
      </trkpt>
      <trkpt lat="42.764773" lon="-0.190336">
        <ele>2345.498</ele>
        <time>2020-07-24T08:40:48Z</time>
      </trkpt>
      <trkpt lat="42.764747" lon="-0.190397">
        <ele>2345.615</ele>
        <time>2020-07-24T08:40:56Z</time>
      </trkpt>
      <trkpt lat="42.764732" lon="-0.190472">
        <ele>2346.326</ele>
        <time>2020-07-24T08:41:02Z</time>
      </trkpt>
      <trkpt lat="42.764724" lon="-0.190550">
        <ele>2346.608</ele>
        <time>2020-07-24T08:41:08Z</time>
      </trkpt>
      <trkpt lat="42.764697" lon="-0.190615">
        <ele>2346.064</ele>
        <time>2020-07-24T08:41:15Z</time>
      </trkpt>
      <trkpt lat="42.764672" lon="-0.190670">
        <ele>2347.332</ele>
        <time>2020-07-24T08:41:21Z</time>
      </trkpt>
      <trkpt lat="42.764680" lon="-0.190746">
        <ele>2349.276</ele>
        <time>2020-07-24T08:41:28Z</time>
      </trkpt>
      <trkpt lat="42.764679" lon="-0.190816">
        <ele>2349.119</ele>
        <time>2020-07-24T08:41:34Z</time>
      </trkpt>
      <trkpt lat="42.764645" lon="-0.190870">
        <ele>2350.793</ele>
        <time>2020-07-24T08:41:43Z</time>
      </trkpt>
      <trkpt lat="42.764619" lon="-0.190920">
        <ele>2349.026</ele>
        <time>2020-07-24T08:41:48Z</time>
      </trkpt>
      <trkpt lat="42.764601" lon="-0.190987">
        <ele>2350.996</ele>
        <time>2020-07-24T08:41:57Z</time>
      </trkpt>
      <trkpt lat="42.764617" lon="-0.191056">
        <ele>2352.715</ele>
        <time>2020-07-24T08:42:05Z</time>
      </trkpt>
      <trkpt lat="42.764613" lon="-0.191117">
        <ele>2352.326</ele>
        <time>2020-07-24T08:42:11Z</time>
      </trkpt>
      <trkpt lat="42.764610" lon="-0.191184">
        <ele>2354.447</ele>
        <time>2020-07-24T08:42:19Z</time>
      </trkpt>
      <trkpt lat="42.764594" lon="-0.191241">
        <ele>2354.011</ele>
        <time>2020-07-24T08:42:29Z</time>
      </trkpt>
      <trkpt lat="42.764570" lon="-0.191299">
        <ele>2354.808</ele>
        <time>2020-07-24T08:42:38Z</time>
      </trkpt>
      <trkpt lat="42.764560" lon="-0.191364">
        <ele>2354.767</ele>
        <time>2020-07-24T08:42:45Z</time>
      </trkpt>
      <trkpt lat="42.764556" lon="-0.191438">
        <ele>2355.255</ele>
        <time>2020-07-24T08:43:02Z</time>
      </trkpt>
      <trkpt lat="42.764527" lon="-0.191488">
        <ele>2354.849</ele>
        <time>2020-07-24T08:43:10Z</time>
      </trkpt>
      <trkpt lat="42.764506" lon="-0.191544">
        <ele>2355.412</ele>
        <time>2020-07-24T08:43:17Z</time>
      </trkpt>
      <trkpt lat="42.764489" lon="-0.191607">
        <ele>2356.216</ele>
        <time>2020-07-24T08:43:29Z</time>
      </trkpt>
      <trkpt lat="42.764477" lon="-0.191666">
        <ele>2357.349</ele>
        <time>2020-07-24T08:43:37Z</time>
      </trkpt>
      <trkpt lat="42.764475" lon="-0.191734">
        <ele>2356.749</ele>
        <time>2020-07-24T08:44:39Z</time>
      </trkpt>
      <trkpt lat="42.764453" lon="-0.191790">
        <ele>2357.238</ele>
        <time>2020-07-24T08:44:48Z</time>
      </trkpt>
      <trkpt lat="42.764438" lon="-0.191856">
        <ele>2356.539</ele>
        <time>2020-07-24T08:45:04Z</time>
      </trkpt>
      <trkpt lat="42.764410" lon="-0.191911">
        <ele>2357.701</ele>
        <time>2020-07-24T08:45:14Z</time>
      </trkpt>
      <trkpt lat="42.764380" lon="-0.191972">
        <ele>2358.421</ele>
        <time>2020-07-24T08:45:27Z</time>
      </trkpt>
      <trkpt lat="42.764334" lon="-0.191999">
        <ele>2356.208</ele>
        <time>2020-07-24T08:45:46Z</time>
      </trkpt>
      <trkpt lat="42.764298" lon="-0.192037">
        <ele>2355.918</ele>
        <time>2020-07-24T08:45:52Z</time>
      </trkpt>
      <trkpt lat="42.764269" lon="-0.192079">
        <ele>2354.546</ele>
        <time>2020-07-24T08:45:59Z</time>
      </trkpt>
      <trkpt lat="42.764267" lon="-0.192145">
        <ele>2357.060</ele>
        <time>2020-07-24T08:46:08Z</time>
      </trkpt>
      <trkpt lat="42.764234" lon="-0.192194">
        <ele>2356.363</ele>
        <time>2020-07-24T08:46:16Z</time>
      </trkpt>
      <trkpt lat="42.764211" lon="-0.192252">
        <ele>2357.397</ele>
        <time>2020-07-24T08:46:24Z</time>
      </trkpt>
      <trkpt lat="42.764172" lon="-0.192293">
        <ele>2357.370</ele>
        <time>2020-07-24T08:46:33Z</time>
      </trkpt>
      <trkpt lat="42.764130" lon="-0.192314">
        <ele>2357.290</ele>
        <time>2020-07-24T08:46:53Z</time>
      </trkpt>
      <trkpt lat="42.764085" lon="-0.192333">
        <ele>2356.689</ele>
        <time>2020-07-24T08:47:05Z</time>
      </trkpt>
      <trkpt lat="42.764039" lon="-0.192329">
        <ele>2356.883</ele>
        <time>2020-07-24T08:47:19Z</time>
      </trkpt>
      <trkpt lat="42.763993" lon="-0.192345">
        <ele>2355.625</ele>
        <time>2020-07-24T08:47:29Z</time>
      </trkpt>
      <trkpt lat="42.763945" lon="-0.192366">
        <ele>2355.717</ele>
        <time>2020-07-24T08:47:39Z</time>
      </trkpt>
      <trkpt lat="42.763902" lon="-0.192386">
        <ele>2355.808</ele>
        <time>2020-07-24T08:47:43Z</time>
      </trkpt>
      <trkpt lat="42.763854" lon="-0.192416">
        <ele>2355.323</ele>
        <time>2020-07-24T08:47:49Z</time>
      </trkpt>
      <trkpt lat="42.763808" lon="-0.192446">
        <ele>2354.291</ele>
        <time>2020-07-24T08:48:03Z</time>
      </trkpt>
      <trkpt lat="42.763791" lon="-0.192505">
        <ele>2355.715</ele>
        <time>2020-07-24T08:48:08Z</time>
      </trkpt>
      <trkpt lat="42.763775" lon="-0.192549">
        <ele>2355.698</ele>
        <time>2020-07-24T08:48:31Z</time>
      </trkpt>
      <trkpt lat="42.763778" lon="-0.192607">
        <ele>2355.062</ele>
        <time>2020-07-24T08:48:44Z</time>
      </trkpt>
      <trkpt lat="42.763762" lon="-0.192672">
        <ele>2354.545</ele>
        <time>2020-07-24T08:48:50Z</time>
      </trkpt>
      <trkpt lat="42.763736" lon="-0.192729">
        <ele>2355.945</ele>
        <time>2020-07-24T08:48:59Z</time>
      </trkpt>
      <trkpt lat="42.763711" lon="-0.192792">
        <ele>2356.144</ele>
        <time>2020-07-24T08:49:07Z</time>
      </trkpt>
      <trkpt lat="42.763696" lon="-0.192867">
        <ele>2357.337</ele>
        <time>2020-07-24T08:49:14Z</time>
      </trkpt>
      <trkpt lat="42.763667" lon="-0.192921">
        <ele>2358.249</ele>
        <time>2020-07-24T08:49:20Z</time>
      </trkpt>
      <trkpt lat="42.763661" lon="-0.192990">
        <ele>2360.113</ele>
        <time>2020-07-24T08:49:29Z</time>
      </trkpt>
      <trkpt lat="42.763650" lon="-0.193052">
        <ele>2360.408</ele>
        <time>2020-07-24T08:49:36Z</time>
      </trkpt>
      <trkpt lat="42.763644" lon="-0.193119">
        <ele>2361.558</ele>
        <time>2020-07-24T08:50:04Z</time>
      </trkpt>
      <trkpt lat="42.763618" lon="-0.193175">
        <ele>2361.976</ele>
        <time>2020-07-24T08:50:15Z</time>
      </trkpt>
      <trkpt lat="42.763595" lon="-0.193228">
        <ele>2362.910</ele>
        <time>2020-07-24T08:50:22Z</time>
      </trkpt>
      <trkpt lat="42.763573" lon="-0.193292">
        <ele>2362.413</ele>
        <time>2020-07-24T08:50:29Z</time>
      </trkpt>
      <trkpt lat="42.763555" lon="-0.193354">
        <ele>2363.017</ele>
        <time>2020-07-24T08:50:37Z</time>
      </trkpt>
      <trkpt lat="42.763526" lon="-0.193411">
        <ele>2364.920</ele>
        <time>2020-07-24T08:50:50Z</time>
      </trkpt>
      <trkpt lat="42.763498" lon="-0.193474">
        <ele>2367.540</ele>
        <time>2020-07-24T08:51:26Z</time>
      </trkpt>
      <trkpt lat="42.763482" lon="-0.193543">
        <ele>2368.669</ele>
        <time>2020-07-24T08:51:35Z</time>
      </trkpt>
      <trkpt lat="42.763492" lon="-0.193603">
        <ele>2370.736</ele>
        <time>2020-07-24T08:51:45Z</time>
      </trkpt>
      <trkpt lat="42.763494" lon="-0.193669">
        <ele>2371.617</ele>
        <time>2020-07-24T08:51:54Z</time>
      </trkpt>
      <trkpt lat="42.763476" lon="-0.193725">
        <ele>2372.918</ele>
        <time>2020-07-24T08:52:05Z</time>
      </trkpt>
      <trkpt lat="42.763446" lon="-0.193745">
        <ele>2374.608</ele>
        <time>2020-07-24T08:52:32Z</time>
      </trkpt>
      <trkpt lat="42.763440" lon="-0.193801">
        <ele>2377.148</ele>
        <time>2020-07-24T08:52:50Z</time>
      </trkpt>
      <trkpt lat="42.763422" lon="-0.193860">
        <ele>2378.026</ele>
        <time>2020-07-24T08:53:05Z</time>
      </trkpt>
      <trkpt lat="42.763440" lon="-0.193917">
        <ele>2379.730</ele>
        <time>2020-07-24T08:53:13Z</time>
      </trkpt>
      <trkpt lat="42.763422" lon="-0.193976">
        <ele>2379.853</ele>
        <time>2020-07-24T08:53:22Z</time>
      </trkpt>
      <trkpt lat="42.763397" lon="-0.194027">
        <ele>2380.957</ele>
        <time>2020-07-24T08:53:31Z</time>
      </trkpt>
      <trkpt lat="42.763366" lon="-0.194073">
        <ele>2381.590</ele>
        <time>2020-07-24T08:53:41Z</time>
      </trkpt>
      <trkpt lat="42.763338" lon="-0.194115">
        <ele>2380.850</ele>
        <time>2020-07-24T08:53:52Z</time>
      </trkpt>
      <trkpt lat="42.763332" lon="-0.194179">
        <ele>2383.449</ele>
        <time>2020-07-24T08:53:59Z</time>
      </trkpt>
      <trkpt lat="42.763345" lon="-0.194239">
        <ele>2381.379</ele>
        <time>2020-07-24T08:54:07Z</time>
      </trkpt>
      <trkpt lat="42.763364" lon="-0.194305">
        <ele>2384.505</ele>
        <time>2020-07-24T08:54:13Z</time>
      </trkpt>
      <trkpt lat="42.763369" lon="-0.194375">
        <ele>2384.525</ele>
        <time>2020-07-24T08:54:24Z</time>
      </trkpt>
      <trkpt lat="42.763374" lon="-0.194443">
        <ele>2384.208</ele>
        <time>2020-07-24T08:54:34Z</time>
      </trkpt>
      <trkpt lat="42.763398" lon="-0.194506">
        <ele>2388.292</ele>
        <time>2020-07-24T08:54:57Z</time>
      </trkpt>
      <trkpt lat="42.763383" lon="-0.194571">
        <ele>2390.720</ele>
        <time>2020-07-24T08:55:07Z</time>
      </trkpt>
      <trkpt lat="42.763355" lon="-0.194628">
        <ele>2391.144</ele>
        <time>2020-07-24T08:55:17Z</time>
      </trkpt>
      <trkpt lat="42.763326" lon="-0.194681">
        <ele>2392.277</ele>
        <time>2020-07-24T08:55:26Z</time>
      </trkpt>
      <trkpt lat="42.763303" lon="-0.194724">
        <ele>2395.161</ele>
        <time>2020-07-24T08:55:34Z</time>
      </trkpt>
      <trkpt lat="42.763289" lon="-0.194790">
        <ele>2395.944</ele>
        <time>2020-07-24T08:55:46Z</time>
      </trkpt>
      <trkpt lat="42.763258" lon="-0.194838">
        <ele>2398.924</ele>
        <time>2020-07-24T08:55:57Z</time>
      </trkpt>
      <trkpt lat="42.763219" lon="-0.194883">
        <ele>2399.653</ele>
        <time>2020-07-24T08:56:21Z</time>
      </trkpt>
      <trkpt lat="42.763183" lon="-0.194922">
        <ele>2400.932</ele>
        <time>2020-07-24T08:56:31Z</time>
      </trkpt>
      <trkpt lat="42.763147" lon="-0.194960">
        <ele>2401.692</ele>
        <time>2020-07-24T08:56:38Z</time>
      </trkpt>
      <trkpt lat="42.763128" lon="-0.195027">
        <ele>2402.611</ele>
        <time>2020-07-24T08:56:48Z</time>
      </trkpt>
      <trkpt lat="42.763098" lon="-0.195093">
        <ele>2401.708</ele>
        <time>2020-07-24T08:56:56Z</time>
      </trkpt>
      <trkpt lat="42.763091" lon="-0.195157">
        <ele>2403.628</ele>
        <time>2020-07-24T08:57:03Z</time>
      </trkpt>
      <trkpt lat="42.763072" lon="-0.195223">
        <ele>2405.136</ele>
        <time>2020-07-24T08:57:10Z</time>
      </trkpt>
      <trkpt lat="42.763054" lon="-0.195291">
        <ele>2405.810</ele>
        <time>2020-07-24T08:57:18Z</time>
      </trkpt>
      <trkpt lat="42.763015" lon="-0.195332">
        <ele>2405.963</ele>
        <time>2020-07-24T08:57:27Z</time>
      </trkpt>
      <trkpt lat="42.762985" lon="-0.195383">
        <ele>2405.897</ele>
        <time>2020-07-24T08:57:37Z</time>
      </trkpt>
      <trkpt lat="42.762949" lon="-0.195425">
        <ele>2408.320</ele>
        <time>2020-07-24T08:57:43Z</time>
      </trkpt>
      <trkpt lat="42.762913" lon="-0.195470">
        <ele>2407.080</ele>
        <time>2020-07-24T08:57:51Z</time>
      </trkpt>
      <trkpt lat="42.762896" lon="-0.195538">
        <ele>2406.659</ele>
        <time>2020-07-24T08:57:59Z</time>
      </trkpt>
      <trkpt lat="42.762889" lon="-0.195611">
        <ele>2405.015</ele>
        <time>2020-07-24T08:58:06Z</time>
      </trkpt>
      <trkpt lat="42.762888" lon="-0.195684">
        <ele>2404.365</ele>
        <time>2020-07-24T08:58:14Z</time>
      </trkpt>
      <trkpt lat="42.762924" lon="-0.195738">
        <ele>2404.811</ele>
        <time>2020-07-24T08:58:26Z</time>
      </trkpt>
      <trkpt lat="42.762950" lon="-0.195793">
        <ele>2404.508</ele>
        <time>2020-07-24T08:58:33Z</time>
      </trkpt>
      <trkpt lat="42.762948" lon="-0.195860">
        <ele>2405.116</ele>
        <time>2020-07-24T08:58:39Z</time>
      </trkpt>
      <trkpt lat="42.762903" lon="-0.195898">
        <ele>2403.964</ele>
        <time>2020-07-24T08:58:47Z</time>
      </trkpt>
      <trkpt lat="42.762862" lon="-0.195930">
        <ele>2404.318</ele>
        <time>2020-07-24T08:58:54Z</time>
      </trkpt>
      <trkpt lat="42.762822" lon="-0.195935">
        <ele>2407.661</ele>
        <time>2020-07-24T08:59:04Z</time>
      </trkpt>
      <trkpt lat="42.762789" lon="-0.195984">
        <ele>2408.165</ele>
        <time>2020-07-24T08:59:15Z</time>
      </trkpt>
      <trkpt lat="42.762759" lon="-0.196035">
        <ele>2408.088</ele>
        <time>2020-07-24T08:59:22Z</time>
      </trkpt>
      <trkpt lat="42.762717" lon="-0.196068">
        <ele>2410.598</ele>
        <time>2020-07-24T08:59:31Z</time>
      </trkpt>
      <trkpt lat="42.762691" lon="-0.196121">
        <ele>2411.027</ele>
        <time>2020-07-24T08:59:39Z</time>
      </trkpt>
      <trkpt lat="42.762649" lon="-0.196156">
        <ele>2412.363</ele>
        <time>2020-07-24T08:59:49Z</time>
      </trkpt>
      <trkpt lat="42.762599" lon="-0.196181">
        <ele>2412.844</ele>
        <time>2020-07-24T09:00:01Z</time>
      </trkpt>
      <trkpt lat="42.762556" lon="-0.196203">
        <ele>2413.918</ele>
        <time>2020-07-24T09:00:08Z</time>
      </trkpt>
      <trkpt lat="42.762517" lon="-0.196248">
        <ele>2412.508</ele>
        <time>2020-07-24T09:00:15Z</time>
      </trkpt>
      <trkpt lat="42.762472" lon="-0.196274">
        <ele>2414.991</ele>
        <time>2020-07-24T09:00:23Z</time>
      </trkpt>
      <trkpt lat="42.762423" lon="-0.196308">
        <ele>2415.049</ele>
        <time>2020-07-24T09:00:31Z</time>
      </trkpt>
      <trkpt lat="42.762384" lon="-0.196358">
        <ele>2417.183</ele>
        <time>2020-07-24T09:00:38Z</time>
      </trkpt>
      <trkpt lat="42.762348" lon="-0.196410">
        <ele>2416.986</ele>
        <time>2020-07-24T09:00:45Z</time>
      </trkpt>
      <trkpt lat="42.762309" lon="-0.196442">
        <ele>2416.970</ele>
        <time>2020-07-24T09:00:51Z</time>
      </trkpt>
      <trkpt lat="42.762270" lon="-0.196478">
        <ele>2416.783</ele>
        <time>2020-07-24T09:00:56Z</time>
      </trkpt>
      <trkpt lat="42.762231" lon="-0.196511">
        <ele>2417.053</ele>
        <time>2020-07-24T09:01:02Z</time>
      </trkpt>
      <trkpt lat="42.762185" lon="-0.196543">
        <ele>2417.162</ele>
        <time>2020-07-24T09:01:08Z</time>
      </trkpt>
      <trkpt lat="42.762130" lon="-0.196533">
        <ele>2416.964</ele>
        <time>2020-07-24T09:01:16Z</time>
      </trkpt>
      <trkpt lat="42.762088" lon="-0.196506">
        <ele>2420.906</ele>
        <time>2020-07-24T09:01:50Z</time>
      </trkpt>
      <trkpt lat="42.762038" lon="-0.196519">
        <ele>2420.916</ele>
        <time>2020-07-24T09:01:56Z</time>
      </trkpt>
      <trkpt lat="42.761993" lon="-0.196565">
        <ele>2420.508</ele>
        <time>2020-07-24T09:02:02Z</time>
      </trkpt>
      <trkpt lat="42.761964" lon="-0.196614">
        <ele>2422.161</ele>
        <time>2020-07-24T09:02:07Z</time>
      </trkpt>
      <trkpt lat="42.761927" lon="-0.196659">
        <ele>2422.779</ele>
        <time>2020-07-24T09:02:13Z</time>
      </trkpt>
      <trkpt lat="42.761892" lon="-0.196721">
        <ele>2422.743</ele>
        <time>2020-07-24T09:02:20Z</time>
      </trkpt>
      <trkpt lat="42.761865" lon="-0.196773">
        <ele>2422.826</ele>
        <time>2020-07-24T09:02:25Z</time>
      </trkpt>
      <trkpt lat="42.761828" lon="-0.196781">
        <ele>2422.360</ele>
        <time>2020-07-24T09:02:53Z</time>
      </trkpt>
      <trkpt lat="42.761782" lon="-0.196782">
        <ele>2422.063</ele>
        <time>2020-07-24T09:03:00Z</time>
      </trkpt>
      <trkpt lat="42.761733" lon="-0.196787">
        <ele>2422.223</ele>
        <time>2020-07-24T09:03:07Z</time>
      </trkpt>
      <trkpt lat="42.761695" lon="-0.196827">
        <ele>2421.012</ele>
        <time>2020-07-24T09:03:14Z</time>
      </trkpt>
      <trkpt lat="42.761643" lon="-0.196823">
        <ele>2419.228</ele>
        <time>2020-07-24T09:03:23Z</time>
      </trkpt>
      <trkpt lat="42.761588" lon="-0.196829">
        <ele>2418.489</ele>
        <time>2020-07-24T09:03:32Z</time>
      </trkpt>
      <trkpt lat="42.761539" lon="-0.196829">
        <ele>2417.417</ele>
        <time>2020-07-24T09:03:37Z</time>
      </trkpt>
      <trkpt lat="42.761490" lon="-0.196854">
        <ele>2417.108</ele>
        <time>2020-07-24T09:03:43Z</time>
      </trkpt>
      <trkpt lat="42.761452" lon="-0.196891">
        <ele>2416.697</ele>
        <time>2020-07-24T09:03:48Z</time>
      </trkpt>
      <trkpt lat="42.761414" lon="-0.196940">
        <ele>2415.275</ele>
        <time>2020-07-24T09:03:54Z</time>
      </trkpt>
      <trkpt lat="42.761376" lon="-0.196977">
        <ele>2414.789</ele>
        <time>2020-07-24T09:03:59Z</time>
      </trkpt>
      <trkpt lat="42.761326" lon="-0.196999">
        <ele>2414.852</ele>
        <time>2020-07-24T09:04:05Z</time>
      </trkpt>
      <trkpt lat="42.761284" lon="-0.197024">
        <ele>2414.896</ele>
        <time>2020-07-24T09:04:11Z</time>
      </trkpt>
      <trkpt lat="42.761258" lon="-0.197048">
        <ele>2411.249</ele>
        <time>2020-07-24T09:04:19Z</time>
      </trkpt>
      <trkpt lat="42.761243" lon="-0.197118">
        <ele>2413.039</ele>
        <time>2020-07-24T09:04:25Z</time>
      </trkpt>
      <trkpt lat="42.761232" lon="-0.197196">
        <ele>2412.638</ele>
        <time>2020-07-24T09:04:33Z</time>
      </trkpt>
      <trkpt lat="42.761215" lon="-0.197268">
        <ele>2412.845</ele>
        <time>2020-07-24T09:04:39Z</time>
      </trkpt>
      <trkpt lat="42.761201" lon="-0.197337">
        <ele>2413.047</ele>
        <time>2020-07-24T09:04:45Z</time>
      </trkpt>
      <trkpt lat="42.761192" lon="-0.197422">
        <ele>2412.711</ele>
        <time>2020-07-24T09:04:51Z</time>
      </trkpt>
      <trkpt lat="42.761161" lon="-0.197466">
        <ele>2412.908</ele>
        <time>2020-07-24T09:04:55Z</time>
      </trkpt>
      <trkpt lat="42.761123" lon="-0.197515">
        <ele>2411.999</ele>
        <time>2020-07-24T09:05:00Z</time>
      </trkpt>
      <trkpt lat="42.761089" lon="-0.197565">
        <ele>2413.097</ele>
        <time>2020-07-24T09:05:07Z</time>
      </trkpt>
      <trkpt lat="42.761048" lon="-0.197603">
        <ele>2412.991</ele>
        <time>2020-07-24T09:05:18Z</time>
      </trkpt>
      <trkpt lat="42.760998" lon="-0.197642">
        <ele>2412.484</ele>
        <time>2020-07-24T09:05:25Z</time>
      </trkpt>
      <trkpt lat="42.760955" lon="-0.197663">
        <ele>2412.298</ele>
        <time>2020-07-24T09:05:28Z</time>
      </trkpt>
      <trkpt lat="42.760917" lon="-0.197746">
        <ele>2415.051</ele>
        <time>2020-07-24T09:06:24Z</time>
      </trkpt>
      <trkpt lat="42.760900" lon="-0.197813">
        <ele>2415.391</ele>
        <time>2020-07-24T09:06:32Z</time>
      </trkpt>
      <trkpt lat="42.760870" lon="-0.197863">
        <ele>2416.280</ele>
        <time>2020-07-24T09:06:39Z</time>
      </trkpt>
      <trkpt lat="42.760829" lon="-0.197900">
        <ele>2418.564</ele>
        <time>2020-07-24T09:06:46Z</time>
      </trkpt>
      <trkpt lat="42.760794" lon="-0.197941">
        <ele>2417.906</ele>
        <time>2020-07-24T09:06:51Z</time>
      </trkpt>
      <trkpt lat="42.760756" lon="-0.197988">
        <ele>2419.216</ele>
        <time>2020-07-24T09:06:58Z</time>
      </trkpt>
      <trkpt lat="42.760730" lon="-0.198038">
        <ele>2418.808</ele>
        <time>2020-07-24T09:07:04Z</time>
      </trkpt>
      <trkpt lat="42.760687" lon="-0.198077">
        <ele>2420.461</ele>
        <time>2020-07-24T09:07:13Z</time>
      </trkpt>
      <trkpt lat="42.760647" lon="-0.198110">
        <ele>2420.579</ele>
        <time>2020-07-24T09:07:19Z</time>
      </trkpt>
      <trkpt lat="42.760586" lon="-0.198161">
        <ele>2421.843</ele>
        <time>2020-07-24T09:07:27Z</time>
      </trkpt>
      <trkpt lat="42.760541" lon="-0.198202">
        <ele>2421.776</ele>
        <time>2020-07-24T09:07:36Z</time>
      </trkpt>
      <trkpt lat="42.760514" lon="-0.198255">
        <ele>2424.090</ele>
        <time>2020-07-24T09:08:11Z</time>
      </trkpt>
      <trkpt lat="42.760491" lon="-0.198316">
        <ele>2424.313</ele>
        <time>2020-07-24T09:08:19Z</time>
      </trkpt>
      <trkpt lat="42.760456" lon="-0.198356">
        <ele>2423.893</ele>
        <time>2020-07-24T09:08:26Z</time>
      </trkpt>
      <trkpt lat="42.760449" lon="-0.198423">
        <ele>2427.352</ele>
        <time>2020-07-24T09:08:41Z</time>
      </trkpt>
      <trkpt lat="42.760422" lon="-0.198472">
        <ele>2429.172</ele>
        <time>2020-07-24T09:08:54Z</time>
      </trkpt>
      <trkpt lat="42.760382" lon="-0.198516">
        <ele>2428.713</ele>
        <time>2020-07-24T09:09:00Z</time>
      </trkpt>
      <trkpt lat="42.760351" lon="-0.198566">
        <ele>2429.314</ele>
        <time>2020-07-24T09:09:08Z</time>
      </trkpt>
      <trkpt lat="42.760317" lon="-0.198612">
        <ele>2430.408</ele>
        <time>2020-07-24T09:09:17Z</time>
      </trkpt>
      <trkpt lat="42.760288" lon="-0.198659">
        <ele>2432.772</ele>
        <time>2020-07-24T09:09:25Z</time>
      </trkpt>
      <trkpt lat="42.760237" lon="-0.198678">
        <ele>2433.460</ele>
        <time>2020-07-24T09:09:34Z</time>
      </trkpt>
      <trkpt lat="42.760194" lon="-0.198700">
        <ele>2434.184</ele>
        <time>2020-07-24T09:09:41Z</time>
      </trkpt>
      <trkpt lat="42.760158" lon="-0.198750">
        <ele>2435.867</ele>
        <time>2020-07-24T09:09:51Z</time>
      </trkpt>
      <trkpt lat="42.760112" lon="-0.198763">
        <ele>2436.421</ele>
        <time>2020-07-24T09:10:01Z</time>
      </trkpt>
      <trkpt lat="42.760073" lon="-0.198799">
        <ele>2438.374</ele>
        <time>2020-07-24T09:10:14Z</time>
      </trkpt>
      <trkpt lat="42.760037" lon="-0.198842">
        <ele>2440.034</ele>
        <time>2020-07-24T09:10:23Z</time>
      </trkpt>
      <trkpt lat="42.759991" lon="-0.198854">
        <ele>2441.833</ele>
        <time>2020-07-24T09:10:31Z</time>
      </trkpt>
      <trkpt lat="42.759945" lon="-0.198865">
        <ele>2441.728</ele>
        <time>2020-07-24T09:10:40Z</time>
      </trkpt>
      <trkpt lat="42.759908" lon="-0.198900">
        <ele>2443.289</ele>
        <time>2020-07-24T09:10:51Z</time>
      </trkpt>
      <trkpt lat="42.759869" lon="-0.198937">
        <ele>2445.017</ele>
        <time>2020-07-24T09:11:04Z</time>
      </trkpt>
      <trkpt lat="42.759817" lon="-0.198942">
        <ele>2446.208</ele>
        <time>2020-07-24T09:11:17Z</time>
      </trkpt>
      <trkpt lat="42.759775" lon="-0.198977">
        <ele>2448.777</ele>
        <time>2020-07-24T09:11:25Z</time>
      </trkpt>
      <trkpt lat="42.759749" lon="-0.199043">
        <ele>2449.545</ele>
        <time>2020-07-24T09:11:33Z</time>
      </trkpt>
      <trkpt lat="42.759762" lon="-0.199090">
        <ele>2449.019</ele>
        <time>2020-07-24T09:11:41Z</time>
      </trkpt>
      <trkpt lat="42.759803" lon="-0.199116">
        <ele>2449.812</ele>
        <time>2020-07-24T09:11:56Z</time>
      </trkpt>
      <trkpt lat="42.759826" lon="-0.199151">
        <ele>2450.876</ele>
        <time>2020-07-24T09:12:02Z</time>
      </trkpt>
      <trkpt lat="42.759816" lon="-0.199205">
        <ele>2452.159</ele>
        <time>2020-07-24T09:12:13Z</time>
      </trkpt>
      <trkpt lat="42.759778" lon="-0.199245">
        <ele>2454.379</ele>
        <time>2020-07-24T09:12:26Z</time>
      </trkpt>
      <trkpt lat="42.759728" lon="-0.199265">
        <ele>2455.818</ele>
        <time>2020-07-24T09:12:37Z</time>
      </trkpt>
      <trkpt lat="42.759698" lon="-0.199317">
        <ele>2456.721</ele>
        <time>2020-07-24T09:12:46Z</time>
      </trkpt>
      <trkpt lat="42.759668" lon="-0.199375">
        <ele>2457.941</ele>
        <time>2020-07-24T09:12:53Z</time>
      </trkpt>
      <trkpt lat="42.759645" lon="-0.199441">
        <ele>2458.505</ele>
        <time>2020-07-24T09:13:02Z</time>
      </trkpt>
      <trkpt lat="42.759635" lon="-0.199512">
        <ele>2461.608</ele>
        <time>2020-07-24T09:13:15Z</time>
      </trkpt>
      <trkpt lat="42.759620" lon="-0.199572">
        <ele>2463.197</ele>
        <time>2020-07-24T09:13:26Z</time>
      </trkpt>
      <trkpt lat="42.759631" lon="-0.199633">
        <ele>2463.325</ele>
        <time>2020-07-24T09:13:41Z</time>
      </trkpt>
      <trkpt lat="42.759635" lon="-0.199706">
        <ele>2465.229</ele>
        <time>2020-07-24T09:13:51Z</time>
      </trkpt>
      <trkpt lat="42.759674" lon="-0.199750">
        <ele>2466.782</ele>
        <time>2020-07-24T09:14:01Z</time>
      </trkpt>
      <trkpt lat="42.759709" lon="-0.199765">
        <ele>2467.076</ele>
        <time>2020-07-24T09:14:11Z</time>
      </trkpt>
      <trkpt lat="42.759737" lon="-0.199766">
        <ele>2468.149</ele>
        <time>2020-07-24T09:14:30Z</time>
      </trkpt>
      <trkpt lat="42.759753" lon="-0.199813">
        <ele>2473.279</ele>
        <time>2020-07-24T09:15:36Z</time>
      </trkpt>
      <trkpt lat="42.759760" lon="-0.199884">
        <ele>2473.418</ele>
        <time>2020-07-24T09:15:44Z</time>
      </trkpt>
      <trkpt lat="42.759773" lon="-0.199945">
        <ele>2475.445</ele>
        <time>2020-07-24T09:15:50Z</time>
      </trkpt>
      <trkpt lat="42.759751" lon="-0.199989">
        <ele>2475.947</ele>
        <time>2020-07-24T09:16:00Z</time>
      </trkpt>
      <trkpt lat="42.759701" lon="-0.199984">
        <ele>2479.111</ele>
        <time>2020-07-24T09:16:39Z</time>
      </trkpt>
      <trkpt lat="42.759659" lon="-0.200019">
        <ele>2480.508</ele>
        <time>2020-07-24T09:16:50Z</time>
      </trkpt>
      <trkpt lat="42.759632" lon="-0.200078">
        <ele>2482.479</ele>
        <time>2020-07-24T09:16:56Z</time>
      </trkpt>
      <trkpt lat="42.759607" lon="-0.200113">
        <ele>2482.717</ele>
        <time>2020-07-24T09:17:06Z</time>
      </trkpt>
      <trkpt lat="42.759605" lon="-0.200183">
        <ele>2485.671</ele>
        <time>2020-07-24T09:17:12Z</time>
      </trkpt>
      <trkpt lat="42.759593" lon="-0.200244">
        <ele>2487.054</ele>
        <time>2020-07-24T09:17:23Z</time>
      </trkpt>
      <trkpt lat="42.759553" lon="-0.200295">
        <ele>2488.258</ele>
        <time>2020-07-24T09:17:39Z</time>
      </trkpt>
      <trkpt lat="42.759508" lon="-0.200342">
        <ele>2488.771</ele>
        <time>2020-07-24T09:17:50Z</time>
      </trkpt>
      <trkpt lat="42.759464" lon="-0.200362">
        <ele>2490.131</ele>
        <time>2020-07-24T09:17:59Z</time>
      </trkpt>
      <trkpt lat="42.759428" lon="-0.200401">
        <ele>2491.830</ele>
        <time>2020-07-24T09:18:10Z</time>
      </trkpt>
      <trkpt lat="42.759386" lon="-0.200432">
        <ele>2494.623</ele>
        <time>2020-07-24T09:18:19Z</time>
      </trkpt>
      <trkpt lat="42.759364" lon="-0.200489">
        <ele>2496.183</ele>
        <time>2020-07-24T09:18:51Z</time>
      </trkpt>
      <trkpt lat="42.759354" lon="-0.200555">
        <ele>2500.211</ele>
        <time>2020-07-24T09:19:07Z</time>
      </trkpt>
      <trkpt lat="42.759329" lon="-0.200609">
        <ele>2500.808</ele>
        <time>2020-07-24T09:19:15Z</time>
      </trkpt>
      <trkpt lat="42.759318" lon="-0.200668">
        <ele>2502.677</ele>
        <time>2020-07-24T09:19:25Z</time>
      </trkpt>
      <trkpt lat="42.759310" lon="-0.200737">
        <ele>2504.485</ele>
        <time>2020-07-24T09:19:36Z</time>
      </trkpt>
      <trkpt lat="42.759296" lon="-0.200805">
        <ele>2506.279</ele>
        <time>2020-07-24T09:19:45Z</time>
      </trkpt>
      <trkpt lat="42.759290" lon="-0.200872">
        <ele>2507.142</ele>
        <time>2020-07-24T09:19:57Z</time>
      </trkpt>
      <trkpt lat="42.759295" lon="-0.200943">
        <ele>2507.866</ele>
        <time>2020-07-24T09:20:07Z</time>
      </trkpt>
      <trkpt lat="42.759285" lon="-0.201001">
        <ele>2509.229</ele>
        <time>2020-07-24T09:20:20Z</time>
      </trkpt>
      <trkpt lat="42.759256" lon="-0.201036">
        <ele>2510.479</ele>
        <time>2020-07-24T09:20:31Z</time>
      </trkpt>
      <trkpt lat="42.759246" lon="-0.201101">
        <ele>2513.148</ele>
        <time>2020-07-24T09:20:50Z</time>
      </trkpt>
      <trkpt lat="42.759203" lon="-0.201124">
        <ele>2515.391</ele>
        <time>2020-07-24T09:20:59Z</time>
      </trkpt>
      <trkpt lat="42.759156" lon="-0.201146">
        <ele>2519.281</ele>
        <time>2020-07-24T09:21:29Z</time>
      </trkpt>
      <trkpt lat="42.759110" lon="-0.201166">
        <ele>2520.319</ele>
        <time>2020-07-24T09:21:40Z</time>
      </trkpt>
      <trkpt lat="42.759078" lon="-0.201213">
        <ele>2522.108</ele>
        <time>2020-07-24T09:21:49Z</time>
      </trkpt>
      <trkpt lat="42.759033" lon="-0.201238">
        <ele>2523.084</ele>
        <time>2020-07-24T09:21:58Z</time>
      </trkpt>
      <trkpt lat="42.759002" lon="-0.201272">
        <ele>2524.992</ele>
        <time>2020-07-24T09:22:09Z</time>
      </trkpt>
      <trkpt lat="42.758961" lon="-0.201282">
        <ele>2524.966</ele>
        <time>2020-07-24T09:22:20Z</time>
      </trkpt>
      <trkpt lat="42.758916" lon="-0.201300">
        <ele>2527.539</ele>
        <time>2020-07-24T09:22:31Z</time>
      </trkpt>
      <trkpt lat="42.758871" lon="-0.201328">
        <ele>2530.113</ele>
        <time>2020-07-24T09:22:46Z</time>
      </trkpt>
      <trkpt lat="42.758833" lon="-0.201370">
        <ele>2532.396</ele>
        <time>2020-07-24T09:23:06Z</time>
      </trkpt>
      <trkpt lat="42.758799" lon="-0.201415">
        <ele>2534.286</ele>
        <time>2020-07-24T09:23:16Z</time>
      </trkpt>
      <trkpt lat="42.758758" lon="-0.201452">
        <ele>2534.295</ele>
        <time>2020-07-24T09:23:29Z</time>
      </trkpt>
      <trkpt lat="42.758724" lon="-0.201507">
        <ele>2536.077</ele>
        <time>2020-07-24T09:23:40Z</time>
      </trkpt>
      <trkpt lat="42.758680" lon="-0.201527">
        <ele>2537.961</ele>
        <time>2020-07-24T09:23:47Z</time>
      </trkpt>
      <trkpt lat="42.758626" lon="-0.201527">
        <ele>2540.227</ele>
        <time>2020-07-24T09:23:56Z</time>
      </trkpt>
      <trkpt lat="42.758579" lon="-0.201540">
        <ele>2538.708</ele>
        <time>2020-07-24T09:24:05Z</time>
      </trkpt>
      <trkpt lat="42.758528" lon="-0.201553">
        <ele>2539.752</ele>
        <time>2020-07-24T09:24:12Z</time>
      </trkpt>
      <trkpt lat="42.758478" lon="-0.201560">
        <ele>2542.120</ele>
        <time>2020-07-24T09:24:18Z</time>
      </trkpt>
      <trkpt lat="42.758432" lon="-0.201561">
        <ele>2542.784</ele>
        <time>2020-07-24T09:24:26Z</time>
      </trkpt>
      <trkpt lat="42.758389" lon="-0.201586">
        <ele>2542.497</ele>
        <time>2020-07-24T09:24:35Z</time>
      </trkpt>
      <trkpt lat="42.758344" lon="-0.201609">
        <ele>2543.021</ele>
        <time>2020-07-24T09:24:43Z</time>
      </trkpt>
      <trkpt lat="42.758297" lon="-0.201636">
        <ele>2545.034</ele>
        <time>2020-07-24T09:24:52Z</time>
      </trkpt>
      <trkpt lat="42.758267" lon="-0.201662">
        <ele>2547.074</ele>
        <time>2020-07-24T09:24:59Z</time>
      </trkpt>
      <trkpt lat="42.758244" lon="-0.201712">
        <ele>2553.353</ele>
        <time>2020-07-24T09:26:22Z</time>
      </trkpt>
      <trkpt lat="42.758222" lon="-0.201772">
        <ele>2554.186</ele>
        <time>2020-07-24T09:26:26Z</time>
      </trkpt>
      <trkpt lat="42.758180" lon="-0.201816">
        <ele>2554.060</ele>
        <time>2020-07-24T09:26:33Z</time>
      </trkpt>
      <trkpt lat="42.758171" lon="-0.201883">
        <ele>2554.626</ele>
        <time>2020-07-24T09:26:36Z</time>
      </trkpt>
      <trkpt lat="42.758159" lon="-0.201944">
        <ele>2555.008</ele>
        <time>2020-07-24T09:27:01Z</time>
      </trkpt>
      <trkpt lat="42.758164" lon="-0.202011">
        <ele>2555.093</ele>
        <time>2020-07-24T09:27:10Z</time>
      </trkpt>
      <trkpt lat="42.758138" lon="-0.202070">
        <ele>2555.111</ele>
        <time>2020-07-24T09:27:22Z</time>
      </trkpt>
      <trkpt lat="42.758103" lon="-0.202110">
        <ele>2554.145</ele>
        <time>2020-07-24T09:27:26Z</time>
      </trkpt>
      <trkpt lat="42.758072" lon="-0.202154">
        <ele>2552.968</ele>
        <time>2020-07-24T09:27:31Z</time>
      </trkpt>
      <trkpt lat="42.758044" lon="-0.202211">
        <ele>2550.422</ele>
        <time>2020-07-24T09:27:42Z</time>
      </trkpt>
      <trkpt lat="42.758038" lon="-0.202279">
        <ele>2549.265</ele>
        <time>2020-07-24T09:27:47Z</time>
      </trkpt>
      <trkpt lat="42.758010" lon="-0.202345">
        <ele>2547.515</ele>
        <time>2020-07-24T09:27:53Z</time>
      </trkpt>
      <trkpt lat="42.757982" lon="-0.202409">
        <ele>2544.064</ele>
        <time>2020-07-24T09:28:01Z</time>
      </trkpt>
      <trkpt lat="42.757974" lon="-0.202506">
        <ele>2542.129</ele>
        <time>2020-07-24T09:28:05Z</time>
      </trkpt>
      <trkpt lat="42.757937" lon="-0.202576">
        <ele>2541.700</ele>
        <time>2020-07-24T09:28:10Z</time>
      </trkpt>
      <trkpt lat="42.757914" lon="-0.202635">
        <ele>2541.020</ele>
        <time>2020-07-24T09:28:14Z</time>
      </trkpt>
      <trkpt lat="42.757900" lon="-0.202691">
        <ele>2542.108</ele>
        <time>2020-07-24T09:28:20Z</time>
      </trkpt>
      <trkpt lat="42.757857" lon="-0.202699">
        <ele>2539.817</ele>
        <time>2020-07-24T09:29:13Z</time>
      </trkpt>
      <trkpt lat="42.757816" lon="-0.202668">
        <ele>2540.795</ele>
        <time>2020-07-24T09:29:18Z</time>
      </trkpt>
      <trkpt lat="42.757770" lon="-0.202692">
        <ele>2540.479</ele>
        <time>2020-07-24T09:29:25Z</time>
      </trkpt>
      <trkpt lat="42.757716" lon="-0.202700">
        <ele>2539.932</ele>
        <time>2020-07-24T09:29:32Z</time>
      </trkpt>
      <trkpt lat="42.757671" lon="-0.202719">
        <ele>2539.816</ele>
        <time>2020-07-24T09:29:37Z</time>
      </trkpt>
      <trkpt lat="42.757651" lon="-0.202789">
        <ele>2538.899</ele>
        <time>2020-07-24T09:29:43Z</time>
      </trkpt>
      <trkpt lat="42.757636" lon="-0.202850">
        <ele>2540.069</ele>
        <time>2020-07-24T09:29:50Z</time>
      </trkpt>
      <trkpt lat="42.757625" lon="-0.202899">
        <ele>2542.528</ele>
        <time>2020-07-24T09:30:08Z</time>
      </trkpt>
      <trkpt lat="42.757630" lon="-0.202952">
        <ele>2539.942</ele>
        <time>2020-07-24T09:30:29Z</time>
      </trkpt>
      <trkpt lat="42.757604" lon="-0.203006">
        <ele>2538.322</ele>
        <time>2020-07-24T09:30:39Z</time>
      </trkpt>
      <trkpt lat="42.757557" lon="-0.203000">
        <ele>2535.114</ele>
        <time>2020-07-24T09:30:57Z</time>
      </trkpt>
      <trkpt lat="42.757507" lon="-0.202999">
        <ele>2532.808</ele>
        <time>2020-07-24T09:31:06Z</time>
      </trkpt>
      <trkpt lat="42.757469" lon="-0.203034">
        <ele>2531.289</ele>
        <time>2020-07-24T09:31:36Z</time>
      </trkpt>
      <trkpt lat="42.757425" lon="-0.203060">
        <ele>2532.227</ele>
        <time>2020-07-24T09:31:44Z</time>
      </trkpt>
      <trkpt lat="42.757373" lon="-0.203079">
        <ele>2532.131</ele>
        <time>2020-07-24T09:31:52Z</time>
      </trkpt>
      <trkpt lat="42.757324" lon="-0.203095">
        <ele>2533.294</ele>
        <time>2020-07-24T09:32:00Z</time>
      </trkpt>
      <trkpt lat="42.757281" lon="-0.203122">
        <ele>2533.918</ele>
        <time>2020-07-24T09:32:13Z</time>
      </trkpt>
      <trkpt lat="42.757236" lon="-0.203151">
        <ele>2535.411</ele>
        <time>2020-07-24T09:32:20Z</time>
      </trkpt>
      <trkpt lat="42.757198" lon="-0.203187">
        <ele>2534.511</ele>
        <time>2020-07-24T09:32:29Z</time>
      </trkpt>
      <trkpt lat="42.757169" lon="-0.203241">
        <ele>2533.550</ele>
        <time>2020-07-24T09:32:35Z</time>
      </trkpt>
      <trkpt lat="42.757144" lon="-0.203279">
        <ele>2534.336</ele>
        <time>2020-07-24T09:32:40Z</time>
      </trkpt>
      <trkpt lat="42.757102" lon="-0.203326">
        <ele>2532.617</ele>
        <time>2020-07-24T09:33:38Z</time>
      </trkpt>
      <trkpt lat="42.757075" lon="-0.203377">
        <ele>2531.018</ele>
        <time>2020-07-24T09:33:51Z</time>
      </trkpt>
      <trkpt lat="42.757074" lon="-0.203444">
        <ele>2530.008</ele>
        <time>2020-07-24T09:34:00Z</time>
      </trkpt>
      <trkpt lat="42.757061" lon="-0.203503">
        <ele>2530.478</ele>
        <time>2020-07-24T09:34:11Z</time>
      </trkpt>
      <trkpt lat="42.757030" lon="-0.203561">
        <ele>2530.686</ele>
        <time>2020-07-24T09:34:20Z</time>
      </trkpt>
      <trkpt lat="42.757016" lon="-0.203622">
        <ele>2530.490</ele>
        <time>2020-07-24T09:34:26Z</time>
      </trkpt>
      <trkpt lat="42.757017" lon="-0.203689">
        <ele>2528.453</ele>
        <time>2020-07-24T09:34:34Z</time>
      </trkpt>
      <trkpt lat="42.756992" lon="-0.203742">
        <ele>2528.997</ele>
        <time>2020-07-24T09:34:42Z</time>
      </trkpt>
      <trkpt lat="42.756989" lon="-0.203807">
        <ele>2527.450</ele>
        <time>2020-07-24T09:34:54Z</time>
      </trkpt>
      <trkpt lat="42.756976" lon="-0.203861">
        <ele>2526.870</ele>
        <time>2020-07-24T09:35:10Z</time>
      </trkpt>
      <trkpt lat="42.756940" lon="-0.203897">
        <ele>2524.889</ele>
        <time>2020-07-24T09:35:18Z</time>
      </trkpt>
      <trkpt lat="42.756896" lon="-0.203916">
        <ele>2523.293</ele>
        <time>2020-07-24T09:35:24Z</time>
      </trkpt>
      <trkpt lat="42.756852" lon="-0.203934">
        <ele>2526.865</ele>
        <time>2020-07-24T09:35:31Z</time>
      </trkpt>
      <trkpt lat="42.756811" lon="-0.203968">
        <ele>2525.521</ele>
        <time>2020-07-24T09:35:37Z</time>
      </trkpt>
      <trkpt lat="42.756794" lon="-0.204020">
        <ele>2525.908</ele>
        <time>2020-07-24T09:35:46Z</time>
      </trkpt>
      <trkpt lat="42.756755" lon="-0.204046">
        <ele>2524.794</ele>
        <time>2020-07-24T09:36:43Z</time>
      </trkpt>
      <trkpt lat="42.756718" lon="-0.204103">
        <ele>2523.872</ele>
        <time>2020-07-24T09:36:57Z</time>
      </trkpt>
      <trkpt lat="42.756674" lon="-0.204151">
        <ele>2525.066</ele>
        <time>2020-07-24T09:37:04Z</time>
      </trkpt>
      <trkpt lat="42.756655" lon="-0.204208">
        <ele>2525.059</ele>
        <time>2020-07-24T09:37:08Z</time>
      </trkpt>
      <trkpt lat="42.756646" lon="-0.204276">
        <ele>2522.323</ele>
        <time>2020-07-24T09:37:13Z</time>
      </trkpt>
      <trkpt lat="42.756638" lon="-0.204347">
        <ele>2522.036</ele>
        <time>2020-07-24T09:37:19Z</time>
      </trkpt>
      <trkpt lat="42.756617" lon="-0.204412">
        <ele>2522.516</ele>
        <time>2020-07-24T09:37:25Z</time>
      </trkpt>
      <trkpt lat="42.756595" lon="-0.204476">
        <ele>2522.485</ele>
        <time>2020-07-24T09:37:30Z</time>
      </trkpt>
      <trkpt lat="42.756553" lon="-0.204508">
        <ele>2524.577</ele>
        <time>2020-07-24T09:37:36Z</time>
      </trkpt>
      <trkpt lat="42.756524" lon="-0.204560">
        <ele>2523.061</ele>
        <time>2020-07-24T09:37:41Z</time>
      </trkpt>
      <trkpt lat="42.756494" lon="-0.204609">
        <ele>2522.227</ele>
        <time>2020-07-24T09:37:47Z</time>
      </trkpt>
      <trkpt lat="42.756449" lon="-0.204644">
        <ele>2524.108</ele>
        <time>2020-07-24T09:37:54Z</time>
      </trkpt>
      <trkpt lat="42.756411" lon="-0.204687">
        <ele>2523.182</ele>
        <time>2020-07-24T09:38:01Z</time>
      </trkpt>
      <trkpt lat="42.756367" lon="-0.204705">
        <ele>2522.160</ele>
        <time>2020-07-24T09:38:09Z</time>
      </trkpt>
      <trkpt lat="42.756332" lon="-0.204746">
        <ele>2521.324</ele>
        <time>2020-07-24T09:38:16Z</time>
      </trkpt>
      <trkpt lat="42.756282" lon="-0.204783">
        <ele>2519.317</ele>
        <time>2020-07-24T09:38:21Z</time>
      </trkpt>
      <trkpt lat="42.756238" lon="-0.204831">
        <ele>2516.841</ele>
        <time>2020-07-24T09:38:26Z</time>
      </trkpt>
      <trkpt lat="42.756222" lon="-0.204891">
        <ele>2515.694</ele>
        <time>2020-07-24T09:38:31Z</time>
      </trkpt>
      <trkpt lat="42.756188" lon="-0.204936">
        <ele>2513.884</ele>
        <time>2020-07-24T09:38:37Z</time>
      </trkpt>
      <trkpt lat="42.756141" lon="-0.204993">
        <ele>2513.043</ele>
        <time>2020-07-24T09:38:46Z</time>
      </trkpt>
      <trkpt lat="42.756101" lon="-0.205064">
        <ele>2509.993</ele>
        <time>2020-07-24T09:38:54Z</time>
      </trkpt>
      <trkpt lat="42.756077" lon="-0.205119">
        <ele>2512.565</ele>
        <time>2020-07-24T09:38:59Z</time>
      </trkpt>
      <trkpt lat="42.756046" lon="-0.205176">
        <ele>2513.021</ele>
        <time>2020-07-24T09:39:02Z</time>
      </trkpt>
      <trkpt lat="42.756012" lon="-0.205224">
        <ele>2512.308</ele>
        <time>2020-07-24T09:39:07Z</time>
      </trkpt>
      <trkpt lat="42.755967" lon="-0.205278">
        <ele>2511.924</ele>
        <time>2020-07-24T09:39:11Z</time>
      </trkpt>
      <trkpt lat="42.755924" lon="-0.205328">
        <ele>2511.212</ele>
        <time>2020-07-24T09:39:15Z</time>
      </trkpt>
      <trkpt lat="42.755894" lon="-0.205379">
        <ele>2511.686</ele>
        <time>2020-07-24T09:39:19Z</time>
      </trkpt>
      <trkpt lat="42.755851" lon="-0.205420">
        <ele>2511.369</ele>
        <time>2020-07-24T09:39:25Z</time>
      </trkpt>
      <trkpt lat="42.755809" lon="-0.205466">
        <ele>2510.563</ele>
        <time>2020-07-24T09:39:32Z</time>
      </trkpt>
      <trkpt lat="42.755777" lon="-0.205512">
        <ele>2509.446</ele>
        <time>2020-07-24T09:39:38Z</time>
      </trkpt>
      <trkpt lat="42.755741" lon="-0.205558">
        <ele>2508.526</ele>
        <time>2020-07-24T09:39:45Z</time>
      </trkpt>
      <trkpt lat="42.755702" lon="-0.205588">
        <ele>2508.445</ele>
        <time>2020-07-24T09:39:54Z</time>
      </trkpt>
      <trkpt lat="42.755653" lon="-0.205624">
        <ele>2507.126</ele>
        <time>2020-07-24T09:40:03Z</time>
      </trkpt>
      <trkpt lat="42.755625" lon="-0.205683">
        <ele>2506.147</ele>
        <time>2020-07-24T09:40:12Z</time>
      </trkpt>
      <trkpt lat="42.755594" lon="-0.205728">
        <ele>2506.011</ele>
        <time>2020-07-24T09:40:17Z</time>
      </trkpt>
      <trkpt lat="42.755556" lon="-0.205779">
        <ele>2503.708</ele>
        <time>2020-07-24T09:40:24Z</time>
      </trkpt>
      <trkpt lat="42.755515" lon="-0.205804">
        <ele>2501.547</ele>
        <time>2020-07-24T09:40:31Z</time>
      </trkpt>
      <trkpt lat="42.755477" lon="-0.205850">
        <ele>2500.515</ele>
        <time>2020-07-24T09:40:40Z</time>
      </trkpt>
      <trkpt lat="42.755441" lon="-0.205900">
        <ele>2498.849</ele>
        <time>2020-07-24T09:40:57Z</time>
      </trkpt>
      <trkpt lat="42.755426" lon="-0.205961">
        <ele>2499.422</ele>
        <time>2020-07-24T09:41:05Z</time>
      </trkpt>
      <trkpt lat="42.755404" lon="-0.206015">
        <ele>2499.746</ele>
        <time>2020-07-24T09:41:12Z</time>
      </trkpt>
      <trkpt lat="42.755391" lon="-0.206086">
        <ele>2498.679</ele>
        <time>2020-07-24T09:41:18Z</time>
      </trkpt>
      <trkpt lat="42.755376" lon="-0.206153">
        <ele>2500.529</ele>
        <time>2020-07-24T09:41:23Z</time>
      </trkpt>
      <trkpt lat="42.755345" lon="-0.206209">
        <ele>2501.538</ele>
        <time>2020-07-24T09:41:30Z</time>
      </trkpt>
      <trkpt lat="42.755328" lon="-0.206266">
        <ele>2499.351</ele>
        <time>2020-07-24T09:41:36Z</time>
      </trkpt>
      <trkpt lat="42.755324" lon="-0.206339">
        <ele>2498.601</ele>
        <time>2020-07-24T09:41:42Z</time>
      </trkpt>
      <trkpt lat="42.755308" lon="-0.206401">
        <ele>2498.511</ele>
        <time>2020-07-24T09:41:47Z</time>
      </trkpt>
      <trkpt lat="42.755291" lon="-0.206467">
        <ele>2498.308</ele>
        <time>2020-07-24T09:41:53Z</time>
      </trkpt>
      <trkpt lat="42.755259" lon="-0.206519">
        <ele>2497.690</ele>
        <time>2020-07-24T09:42:00Z</time>
      </trkpt>
      <trkpt lat="42.755242" lon="-0.206577">
        <ele>2496.988</ele>
        <time>2020-07-24T09:42:07Z</time>
      </trkpt>
      <trkpt lat="42.755237" lon="-0.206642">
        <ele>2497.662</ele>
        <time>2020-07-24T09:42:16Z</time>
      </trkpt>
      <trkpt lat="42.755223" lon="-0.206711">
        <ele>2495.435</ele>
        <time>2020-07-24T09:42:28Z</time>
      </trkpt>
      <trkpt lat="42.755208" lon="-0.206775">
        <ele>2495.139</ele>
        <time>2020-07-24T09:42:34Z</time>
      </trkpt>
      <trkpt lat="42.755206" lon="-0.206839">
        <ele>2495.762</ele>
        <time>2020-07-24T09:42:40Z</time>
      </trkpt>
      <trkpt lat="42.755202" lon="-0.206910">
        <ele>2496.262</ele>
        <time>2020-07-24T09:42:46Z</time>
      </trkpt>
      <trkpt lat="42.755198" lon="-0.206976">
        <ele>2495.151</ele>
        <time>2020-07-24T09:42:58Z</time>
      </trkpt>
      <trkpt lat="42.755182" lon="-0.207036">
        <ele>2494.321</ele>
        <time>2020-07-24T09:43:04Z</time>
      </trkpt>
      <trkpt lat="42.755172" lon="-0.207115">
        <ele>2494.941</ele>
        <time>2020-07-24T09:43:12Z</time>
      </trkpt>
      <trkpt lat="42.755164" lon="-0.207183">
        <ele>2495.405</ele>
        <time>2020-07-24T09:43:18Z</time>
      </trkpt>
      <trkpt lat="42.755148" lon="-0.207254">
        <ele>2494.508</ele>
        <time>2020-07-24T09:43:24Z</time>
      </trkpt>
      <trkpt lat="42.755134" lon="-0.207316">
        <ele>2495.947</ele>
        <time>2020-07-24T09:43:28Z</time>
      </trkpt>
      <trkpt lat="42.755125" lon="-0.207383">
        <ele>2497.785</ele>
        <time>2020-07-24T09:43:34Z</time>
      </trkpt>
      <trkpt lat="42.755120" lon="-0.207443">
        <ele>2497.549</ele>
        <time>2020-07-24T09:43:54Z</time>
      </trkpt>
      <trkpt lat="42.755096" lon="-0.207497">
        <ele>2497.112</ele>
        <time>2020-07-24T09:43:58Z</time>
      </trkpt>
      <trkpt lat="42.755057" lon="-0.207535">
        <ele>2497.196</ele>
        <time>2020-07-24T09:44:03Z</time>
      </trkpt>
      <trkpt lat="42.755020" lon="-0.207588">
        <ele>2496.859</ele>
        <time>2020-07-24T09:44:07Z</time>
      </trkpt>
      <trkpt lat="42.754978" lon="-0.207631">
        <ele>2497.079</ele>
        <time>2020-07-24T09:44:12Z</time>
      </trkpt>
      <trkpt lat="42.754958" lon="-0.207691">
        <ele>2496.828</ele>
        <time>2020-07-24T09:44:17Z</time>
      </trkpt>
      <trkpt lat="42.754931" lon="-0.207756">
        <ele>2496.551</ele>
        <time>2020-07-24T09:44:22Z</time>
      </trkpt>
      <trkpt lat="42.754882" lon="-0.207785">
        <ele>2495.601</ele>
        <time>2020-07-24T09:44:29Z</time>
      </trkpt>
      <trkpt lat="42.754837" lon="-0.207805">
        <ele>2494.611</ele>
        <time>2020-07-24T09:44:48Z</time>
      </trkpt>
      <trkpt lat="42.754816" lon="-0.207877">
        <ele>2492.108</ele>
        <time>2020-07-24T09:44:55Z</time>
      </trkpt>
      <trkpt lat="42.754825" lon="-0.207954">
        <ele>2492.770</ele>
        <time>2020-07-24T09:44:57Z</time>
      </trkpt>
      <trkpt lat="42.754821" lon="-0.208017">
        <ele>2491.198</ele>
        <time>2020-07-24T09:45:00Z</time>
      </trkpt>
      <trkpt lat="42.754818" lon="-0.208083">
        <ele>2491.392</ele>
        <time>2020-07-24T09:45:04Z</time>
      </trkpt>
      <trkpt lat="42.754803" lon="-0.208147">
        <ele>2490.715</ele>
        <time>2020-07-24T09:45:10Z</time>
      </trkpt>
      <trkpt lat="42.754816" lon="-0.208224">
        <ele>2487.649</ele>
        <time>2020-07-24T09:45:14Z</time>
      </trkpt>
      <trkpt lat="42.754784" lon="-0.208285">
        <ele>2488.692</ele>
        <time>2020-07-24T09:45:21Z</time>
      </trkpt>
      <trkpt lat="42.754731" lon="-0.208288">
        <ele>2487.212</ele>
        <time>2020-07-24T09:45:26Z</time>
      </trkpt>
      <trkpt lat="42.754685" lon="-0.208280">
        <ele>2487.931</ele>
        <time>2020-07-24T09:45:29Z</time>
      </trkpt>
      <trkpt lat="42.754639" lon="-0.208288">
        <ele>2485.122</ele>
        <time>2020-07-24T09:45:33Z</time>
      </trkpt>
      <trkpt lat="42.754597" lon="-0.208302">
        <ele>2483.462</ele>
        <time>2020-07-24T09:45:37Z</time>
      </trkpt>
      <trkpt lat="42.754566" lon="-0.208287">
        <ele>2477.408</ele>
        <time>2020-07-24T09:46:51Z</time>
      </trkpt>
      <trkpt lat="42.754548" lon="-0.208235">
        <ele>2476.508</ele>
        <time>2020-07-24T09:46:56Z</time>
      </trkpt>
      <trkpt lat="42.754540" lon="-0.208166">
        <ele>2475.827</ele>
        <time>2020-07-24T09:46:59Z</time>
      </trkpt>
      <trkpt lat="42.754518" lon="-0.208106">
        <ele>2474.765</ele>
        <time>2020-07-24T09:47:03Z</time>
      </trkpt>
      <trkpt lat="42.754477" lon="-0.208062">
        <ele>2473.889</ele>
        <time>2020-07-24T09:47:06Z</time>
      </trkpt>
      <trkpt lat="42.754453" lon="-0.208010">
        <ele>2474.252</ele>
        <time>2020-07-24T09:47:11Z</time>
      </trkpt>
      <trkpt lat="42.754409" lon="-0.208017">
        <ele>2472.266</ele>
        <time>2020-07-24T09:47:15Z</time>
      </trkpt>
      <trkpt lat="42.754356" lon="-0.208038">
        <ele>2472.179</ele>
        <time>2020-07-24T09:47:19Z</time>
      </trkpt>
      <trkpt lat="42.754301" lon="-0.208066">
        <ele>2472.399</ele>
        <time>2020-07-24T09:47:23Z</time>
      </trkpt>
      <trkpt lat="42.754246" lon="-0.208067">
        <ele>2470.658</ele>
        <time>2020-07-24T09:47:28Z</time>
      </trkpt>
      <trkpt lat="42.754194" lon="-0.208044">
        <ele>2469.678</ele>
        <time>2020-07-24T09:47:33Z</time>
      </trkpt>
      <trkpt lat="42.754141" lon="-0.208022">
        <ele>2468.733</ele>
        <time>2020-07-24T09:47:39Z</time>
      </trkpt>
      <trkpt lat="42.754144" lon="-0.207959">
        <ele>2467.726</ele>
        <time>2020-07-24T09:47:43Z</time>
      </trkpt>
      <trkpt lat="42.754159" lon="-0.207898">
        <ele>2468.908</ele>
        <time>2020-07-24T09:47:46Z</time>
      </trkpt>
      <trkpt lat="42.754188" lon="-0.207835">
        <ele>2467.882</ele>
        <time>2020-07-24T09:47:50Z</time>
      </trkpt>
      <trkpt lat="42.754204" lon="-0.207767">
        <ele>2466.240</ele>
        <time>2020-07-24T09:47:55Z</time>
      </trkpt>
      <trkpt lat="42.754204" lon="-0.207707">
        <ele>2466.374</ele>
        <time>2020-07-24T09:47:59Z</time>
      </trkpt>
      <trkpt lat="42.754163" lon="-0.207680">
        <ele>2465.197</ele>
        <time>2020-07-24T09:48:14Z</time>
      </trkpt>
      <trkpt lat="42.754107" lon="-0.207700">
        <ele>2464.651</ele>
        <time>2020-07-24T09:48:30Z</time>
      </trkpt>
      <trkpt lat="42.754069" lon="-0.207746">
        <ele>2463.434</ele>
        <time>2020-07-24T09:48:35Z</time>
      </trkpt>
      <trkpt lat="42.754029" lon="-0.207727">
        <ele>2462.024</ele>
        <time>2020-07-24T09:48:45Z</time>
      </trkpt>
      <trkpt lat="42.753999" lon="-0.207754">
        <ele>2460.313</ele>
        <time>2020-07-24T09:48:57Z</time>
      </trkpt>
      <trkpt lat="42.753968" lon="-0.207772">
        <ele>2458.163</ele>
        <time>2020-07-24T09:49:04Z</time>
      </trkpt>
      <trkpt lat="42.753932" lon="-0.207822">
        <ele>2456.844</ele>
        <time>2020-07-24T09:49:12Z</time>
      </trkpt>
      <trkpt lat="42.753936" lon="-0.207758">
        <ele>2455.718</ele>
        <time>2020-07-24T09:49:21Z</time>
      </trkpt>
      <trkpt lat="42.753957" lon="-0.207687">
        <ele>2452.908</ele>
        <time>2020-07-24T09:49:25Z</time>
      </trkpt>
      <trkpt lat="42.753914" lon="-0.207720">
        <ele>2451.621</ele>
        <time>2020-07-24T09:49:32Z</time>
      </trkpt>
      <trkpt lat="42.753892" lon="-0.207774">
        <ele>2451.929</ele>
        <time>2020-07-24T09:49:53Z</time>
      </trkpt>
      <trkpt lat="42.753895" lon="-0.207712">
        <ele>2448.663</ele>
        <time>2020-07-24T09:50:13Z</time>
      </trkpt>
      <trkpt lat="42.753854" lon="-0.207741">
        <ele>2446.546</ele>
        <time>2020-07-24T09:50:25Z</time>
      </trkpt>
      <trkpt lat="42.753840" lon="-0.207804">
        <ele>2445.480</ele>
        <time>2020-07-24T09:50:34Z</time>
      </trkpt>
      <trkpt lat="42.753799" lon="-0.207828">
        <ele>2443.283</ele>
        <time>2020-07-24T09:50:52Z</time>
      </trkpt>
      <trkpt lat="42.753769" lon="-0.207880">
        <ele>2438.613</ele>
        <time>2020-07-24T09:51:13Z</time>
      </trkpt>
      <trkpt lat="42.753758" lon="-0.207940">
        <ele>2436.592</ele>
        <time>2020-07-24T09:51:24Z</time>
      </trkpt>
      <trkpt lat="42.753767" lon="-0.208004">
        <ele>2435.817</ele>
        <time>2020-07-24T09:51:28Z</time>
      </trkpt>
      <trkpt lat="42.753767" lon="-0.208066">
        <ele>2434.487</ele>
        <time>2020-07-24T09:51:34Z</time>
      </trkpt>
      <trkpt lat="42.753776" lon="-0.208132">
        <ele>2432.915</ele>
        <time>2020-07-24T09:51:42Z</time>
      </trkpt>
      <trkpt lat="42.753774" lon="-0.208165">
        <ele>2431.308</ele>
        <time>2020-07-24T09:51:56Z</time>
      </trkpt>
      <trkpt lat="42.753765" lon="-0.208207">
        <ele>2430.126</ele>
        <time>2020-07-24T09:52:15Z</time>
      </trkpt>
      <trkpt lat="42.753739" lon="-0.208151">
        <ele>2427.294</ele>
        <time>2020-07-24T09:52:30Z</time>
      </trkpt>
      <trkpt lat="42.753721" lon="-0.208084">
        <ele>2426.588</ele>
        <time>2020-07-24T09:52:38Z</time>
      </trkpt>
      <trkpt lat="42.753710" lon="-0.208021">
        <ele>2426.191</ele>
        <time>2020-07-24T09:52:43Z</time>
      </trkpt>
      <trkpt lat="42.753696" lon="-0.207960">
        <ele>2425.775</ele>
        <time>2020-07-24T09:52:46Z</time>
      </trkpt>
      <trkpt lat="42.753673" lon="-0.207894">
        <ele>2426.178</ele>
        <time>2020-07-24T09:52:52Z</time>
      </trkpt>
      <trkpt lat="42.753643" lon="-0.207838">
        <ele>2423.038</ele>
        <time>2020-07-24T09:52:57Z</time>
      </trkpt>
      <trkpt lat="42.753609" lon="-0.207796">
        <ele>2422.037</ele>
        <time>2020-07-24T09:53:01Z</time>
      </trkpt>
      <trkpt lat="42.753568" lon="-0.207764">
        <ele>2421.773</ele>
        <time>2020-07-24T09:53:08Z</time>
      </trkpt>
      <trkpt lat="42.753555" lon="-0.207834">
        <ele>2419.285</ele>
        <time>2020-07-24T09:53:13Z</time>
      </trkpt>
      <trkpt lat="42.753544" lon="-0.207912">
        <ele>2420.213</ele>
        <time>2020-07-24T09:53:17Z</time>
      </trkpt>
      <trkpt lat="42.753544" lon="-0.207973">
        <ele>2418.408</ele>
        <time>2020-07-24T09:53:20Z</time>
      </trkpt>
      <trkpt lat="42.753555" lon="-0.208036">
        <ele>2417.762</ele>
        <time>2020-07-24T09:53:25Z</time>
      </trkpt>
      <trkpt lat="42.753551" lon="-0.208100">
        <ele>2415.650</ele>
        <time>2020-07-24T09:53:32Z</time>
      </trkpt>
      <trkpt lat="42.753540" lon="-0.208167">
        <ele>2413.444</ele>
        <time>2020-07-24T09:53:41Z</time>
      </trkpt>
      <trkpt lat="42.753524" lon="-0.208229">
        <ele>2412.497</ele>
        <time>2020-07-24T09:53:47Z</time>
      </trkpt>
      <trkpt lat="42.753505" lon="-0.208285">
        <ele>2411.671</ele>
        <time>2020-07-24T09:53:53Z</time>
      </trkpt>
      <trkpt lat="42.753503" lon="-0.208359">
        <ele>2407.574</ele>
        <time>2020-07-24T09:54:06Z</time>
      </trkpt>
      <trkpt lat="42.753500" lon="-0.208438">
        <ele>2406.714</ele>
        <time>2020-07-24T09:54:12Z</time>
      </trkpt>
      <trkpt lat="42.753506" lon="-0.208508">
        <ele>2404.513</ele>
        <time>2020-07-24T09:54:17Z</time>
      </trkpt>
      <trkpt lat="42.753510" lon="-0.208576">
        <ele>2404.527</ele>
        <time>2020-07-24T09:54:23Z</time>
      </trkpt>
      <trkpt lat="42.753513" lon="-0.208645">
        <ele>2402.868</ele>
        <time>2020-07-24T09:54:30Z</time>
      </trkpt>
      <trkpt lat="42.753525" lon="-0.208715">
        <ele>2399.914</ele>
        <time>2020-07-24T09:54:39Z</time>
      </trkpt>
      <trkpt lat="42.753526" lon="-0.208786">
        <ele>2399.808</ele>
        <time>2020-07-24T09:54:44Z</time>
      </trkpt>
      <trkpt lat="42.753527" lon="-0.208865">
        <ele>2398.377</ele>
        <time>2020-07-24T09:54:52Z</time>
      </trkpt>
      <trkpt lat="42.753535" lon="-0.208929">
        <ele>2397.545</ele>
        <time>2020-07-24T09:54:58Z</time>
      </trkpt>
      <trkpt lat="42.753575" lon="-0.208976">
        <ele>2396.089</ele>
        <time>2020-07-24T09:55:05Z</time>
      </trkpt>
      <trkpt lat="42.753602" lon="-0.209039">
        <ele>2393.722</ele>
        <time>2020-07-24T09:55:11Z</time>
      </trkpt>
      <trkpt lat="42.753611" lon="-0.209106">
        <ele>2393.746</ele>
        <time>2020-07-24T09:55:20Z</time>
      </trkpt>
      <trkpt lat="42.753614" lon="-0.209169">
        <ele>2391.699</ele>
        <time>2020-07-24T09:55:26Z</time>
      </trkpt>
      <trkpt lat="42.753611" lon="-0.209239">
        <ele>2393.169</ele>
        <time>2020-07-24T09:55:33Z</time>
      </trkpt>
      <trkpt lat="42.753616" lon="-0.209310">
        <ele>2392.088</ele>
        <time>2020-07-24T09:55:38Z</time>
      </trkpt>
      <trkpt lat="42.753615" lon="-0.209375">
        <ele>2390.682</ele>
        <time>2020-07-24T09:55:44Z</time>
      </trkpt>
      <trkpt lat="42.753613" lon="-0.209444">
        <ele>2390.743</ele>
        <time>2020-07-24T09:55:49Z</time>
      </trkpt>
      <trkpt lat="42.753618" lon="-0.209502">
        <ele>2389.917</ele>
        <time>2020-07-24T09:55:54Z</time>
      </trkpt>
      <trkpt lat="42.753643" lon="-0.209558">
        <ele>2388.908</ele>
        <time>2020-07-24T09:56:02Z</time>
      </trkpt>
      <trkpt lat="42.753675" lon="-0.209613">
        <ele>2389.523</ele>
        <time>2020-07-24T09:56:09Z</time>
      </trkpt>
      <trkpt lat="42.753686" lon="-0.209672">
        <ele>2387.071</ele>
        <time>2020-07-24T09:56:15Z</time>
      </trkpt>
      <trkpt lat="42.753708" lon="-0.209741">
        <ele>2387.285</ele>
        <time>2020-07-24T09:56:22Z</time>
      </trkpt>
      <trkpt lat="42.753735" lon="-0.209799">
        <ele>2388.998</ele>
        <time>2020-07-24T09:56:27Z</time>
      </trkpt>
      <trkpt lat="42.753760" lon="-0.209858">
        <ele>2388.972</ele>
        <time>2020-07-24T09:56:35Z</time>
      </trkpt>
      <trkpt lat="42.753790" lon="-0.209923">
        <ele>2386.965</ele>
        <time>2020-07-24T09:56:41Z</time>
      </trkpt>
      <trkpt lat="42.753804" lon="-0.209976">
        <ele>2387.555</ele>
        <time>2020-07-24T09:56:45Z</time>
      </trkpt>
      <trkpt lat="42.753813" lon="-0.210049">
        <ele>2386.754</ele>
        <time>2020-07-24T09:56:50Z</time>
      </trkpt>
      <trkpt lat="42.753803" lon="-0.210131">
        <ele>2388.586</ele>
        <time>2020-07-24T09:56:55Z</time>
      </trkpt>
      <trkpt lat="42.753811" lon="-0.210198">
        <ele>2386.360</ele>
        <time>2020-07-24T09:57:00Z</time>
      </trkpt>
      <trkpt lat="42.753822" lon="-0.210258">
        <ele>2385.226</ele>
        <time>2020-07-24T09:57:03Z</time>
      </trkpt>
      <trkpt lat="42.753835" lon="-0.210317">
        <ele>2385.208</ele>
        <time>2020-07-24T09:57:07Z</time>
      </trkpt>
      <trkpt lat="42.753847" lon="-0.210384">
        <ele>2385.633</ele>
        <time>2020-07-24T09:57:10Z</time>
      </trkpt>
      <trkpt lat="42.753863" lon="-0.210449">
        <ele>2385.341</ele>
        <time>2020-07-24T09:57:15Z</time>
      </trkpt>
      <trkpt lat="42.753888" lon="-0.210513">
        <ele>2384.715</ele>
        <time>2020-07-24T09:57:19Z</time>
      </trkpt>
      <trkpt lat="42.753913" lon="-0.210576">
        <ele>2384.958</ele>
        <time>2020-07-24T09:57:26Z</time>
      </trkpt>
      <trkpt lat="42.753924" lon="-0.210665">
        <ele>2383.842</ele>
        <time>2020-07-24T09:57:33Z</time>
      </trkpt>
      <trkpt lat="42.753918" lon="-0.210727">
        <ele>2383.715</ele>
        <time>2020-07-24T09:57:36Z</time>
      </trkpt>
      <trkpt lat="42.753917" lon="-0.210791">
        <ele>2382.795</ele>
        <time>2020-07-24T09:57:41Z</time>
      </trkpt>
      <trkpt lat="42.753917" lon="-0.210871">
        <ele>2383.344</ele>
        <time>2020-07-24T09:57:48Z</time>
      </trkpt>
      <trkpt lat="42.753924" lon="-0.210937">
        <ele>2382.543</ele>
        <time>2020-07-24T09:57:53Z</time>
      </trkpt>
      <trkpt lat="42.753933" lon="-0.211000">
        <ele>2381.964</ele>
        <time>2020-07-24T09:57:58Z</time>
      </trkpt>
      <trkpt lat="42.753935" lon="-0.211067">
        <ele>2382.810</ele>
        <time>2020-07-24T09:58:03Z</time>
      </trkpt>
      <trkpt lat="42.753933" lon="-0.211144">
        <ele>2381.208</ele>
        <time>2020-07-24T09:58:07Z</time>
      </trkpt>
      <trkpt lat="42.753930" lon="-0.211208">
        <ele>2382.869</ele>
        <time>2020-07-24T09:58:11Z</time>
      </trkpt>
      <trkpt lat="42.753910" lon="-0.211274">
        <ele>2381.617</ele>
        <time>2020-07-24T09:58:18Z</time>
      </trkpt>
      <trkpt lat="42.753884" lon="-0.211341">
        <ele>2383.071</ele>
        <time>2020-07-24T09:58:24Z</time>
      </trkpt>
      <trkpt lat="42.753860" lon="-0.211394">
        <ele>2381.984</ele>
        <time>2020-07-24T09:58:28Z</time>
      </trkpt>
      <trkpt lat="42.753821" lon="-0.211436">
        <ele>2382.918</ele>
        <time>2020-07-24T09:58:33Z</time>
      </trkpt>
      <trkpt lat="42.753778" lon="-0.211480">
        <ele>2381.861</ele>
        <time>2020-07-24T09:58:37Z</time>
      </trkpt>
      <trkpt lat="42.753745" lon="-0.211525">
        <ele>2381.611</ele>
        <time>2020-07-24T09:58:42Z</time>
      </trkpt>
      <trkpt lat="42.753702" lon="-0.211564">
        <ele>2382.120</ele>
        <time>2020-07-24T09:58:45Z</time>
      </trkpt>
      <trkpt lat="42.753655" lon="-0.211588">
        <ele>2382.347</ele>
        <time>2020-07-24T09:58:53Z</time>
      </trkpt>
      <trkpt lat="42.753601" lon="-0.211613">
        <ele>2382.529</ele>
        <time>2020-07-24T09:59:05Z</time>
      </trkpt>
      <trkpt lat="42.753561" lon="-0.211645">
        <ele>2383.221</ele>
        <time>2020-07-24T09:59:10Z</time>
      </trkpt>
      <trkpt lat="42.753514" lon="-0.211664">
        <ele>2383.208</ele>
        <time>2020-07-24T09:59:17Z</time>
      </trkpt>
      <trkpt lat="42.753471" lon="-0.211718">
        <ele>2382.649</ele>
        <time>2020-07-24T09:59:25Z</time>
      </trkpt>
      <trkpt lat="42.753438" lon="-0.211772">
        <ele>2381.397</ele>
        <time>2020-07-24T09:59:32Z</time>
      </trkpt>
      <trkpt lat="42.753401" lon="-0.211826">
        <ele>2381.571</ele>
        <time>2020-07-24T09:59:37Z</time>
      </trkpt>
      <trkpt lat="42.753379" lon="-0.211880">
        <ele>2382.354</ele>
        <time>2020-07-24T09:59:42Z</time>
      </trkpt>
      <trkpt lat="42.753345" lon="-0.211939">
        <ele>2382.188</ele>
        <time>2020-07-24T09:59:48Z</time>
      </trkpt>
      <trkpt lat="42.753300" lon="-0.211979">
        <ele>2381.471</ele>
        <time>2020-07-24T09:59:53Z</time>
      </trkpt>
      <trkpt lat="42.753252" lon="-0.212025">
        <ele>2380.211</ele>
        <time>2020-07-24T09:59:58Z</time>
      </trkpt>
      <trkpt lat="42.753208" lon="-0.212058">
        <ele>2383.180</ele>
        <time>2020-07-24T10:00:03Z</time>
      </trkpt>
      <trkpt lat="42.753151" lon="-0.212076">
        <ele>2381.651</ele>
        <time>2020-07-24T10:00:08Z</time>
      </trkpt>
      <trkpt lat="42.753097" lon="-0.212084">
        <ele>2381.801</ele>
        <time>2020-07-24T10:00:13Z</time>
      </trkpt>
      <trkpt lat="42.753046" lon="-0.212100">
        <ele>2381.711</ele>
        <time>2020-07-24T10:00:17Z</time>
      </trkpt>
      <trkpt lat="42.753002" lon="-0.212084">
        <ele>2383.208</ele>
        <time>2020-07-24T10:00:22Z</time>
      </trkpt>
      <trkpt lat="42.752948" lon="-0.212065">
        <ele>2383.210</ele>
        <time>2020-07-24T10:00:27Z</time>
      </trkpt>
      <trkpt lat="42.752898" lon="-0.212053">
        <ele>2381.978</ele>
        <time>2020-07-24T10:00:31Z</time>
      </trkpt>
      <trkpt lat="42.752843" lon="-0.212058">
        <ele>2382.072</ele>
        <time>2020-07-24T10:00:35Z</time>
      </trkpt>
      <trkpt lat="42.752793" lon="-0.212069">
        <ele>2382.675</ele>
        <time>2020-07-24T10:00:39Z</time>
      </trkpt>
      <trkpt lat="42.752751" lon="-0.212118">
        <ele>2383.239</ele>
        <time>2020-07-24T10:00:44Z</time>
      </trkpt>
      <trkpt lat="42.752732" lon="-0.212188">
        <ele>2380.632</ele>
        <time>2020-07-24T10:00:49Z</time>
      </trkpt>
      <trkpt lat="42.752709" lon="-0.212234">
        <ele>2382.282</ele>
        <time>2020-07-24T10:00:55Z</time>
      </trkpt>
      <trkpt lat="42.752677" lon="-0.212293">
        <ele>2382.131</ele>
        <time>2020-07-24T10:01:02Z</time>
      </trkpt>
      <trkpt lat="42.752660" lon="-0.212360">
        <ele>2382.861</ele>
        <time>2020-07-24T10:01:08Z</time>
      </trkpt>
      <trkpt lat="42.752645" lon="-0.212422">
        <ele>2381.221</ele>
        <time>2020-07-24T10:01:12Z</time>
      </trkpt>
      <trkpt lat="42.752644" lon="-0.212492">
        <ele>2381.213</ele>
        <time>2020-07-24T10:01:18Z</time>
      </trkpt>
      <trkpt lat="42.752625" lon="-0.212569">
        <ele>2380.408</ele>
        <time>2020-07-24T10:01:25Z</time>
      </trkpt>
      <trkpt lat="42.752663" lon="-0.212536">
        <ele>2380.191</ele>
        <time>2020-07-24T10:02:08Z</time>
      </trkpt>
      <trkpt lat="42.752707" lon="-0.212509">
        <ele>2381.059</ele>
        <time>2020-07-24T10:02:14Z</time>
      </trkpt>
      <trkpt lat="42.752756" lon="-0.212502">
        <ele>2381.013</ele>
        <time>2020-07-24T10:02:18Z</time>
      </trkpt>
      <trkpt lat="42.752803" lon="-0.212539">
        <ele>2380.856</ele>
        <time>2020-07-24T10:02:24Z</time>
      </trkpt>
      <trkpt lat="42.752817" lon="-0.212604">
        <ele>2380.540</ele>
        <time>2020-07-24T10:02:34Z</time>
      </trkpt>
      <trkpt lat="42.752827" lon="-0.212664">
        <ele>2380.143</ele>
        <time>2020-07-24T10:02:39Z</time>
      </trkpt>
      <trkpt lat="42.752836" lon="-0.212736">
        <ele>2379.043</ele>
        <time>2020-07-24T10:02:45Z</time>
      </trkpt>
      <trkpt lat="42.752882" lon="-0.212775">
        <ele>2378.492</ele>
        <time>2020-07-24T10:02:53Z</time>
      </trkpt>
      <trkpt lat="42.752935" lon="-0.212789">
        <ele>2377.275</ele>
        <time>2020-07-24T10:02:57Z</time>
      </trkpt>
      <trkpt lat="42.752981" lon="-0.212805">
        <ele>2378.928</ele>
        <time>2020-07-24T10:03:02Z</time>
      </trkpt>
      <trkpt lat="42.753024" lon="-0.212828">
        <ele>2378.320</ele>
        <time>2020-07-24T10:03:09Z</time>
      </trkpt>
      <trkpt lat="42.753064" lon="-0.212885">
        <ele>2375.708</ele>
        <time>2020-07-24T10:03:53Z</time>
      </trkpt>
      <trkpt lat="42.753110" lon="-0.212933">
        <ele>2375.182</ele>
        <time>2020-07-24T10:03:57Z</time>
      </trkpt>
      <trkpt lat="42.753149" lon="-0.212969">
        <ele>2375.410</ele>
        <time>2020-07-24T10:04:02Z</time>
      </trkpt>
      <trkpt lat="42.753192" lon="-0.213006">
        <ele>2373.664</ele>
        <time>2020-07-24T10:04:06Z</time>
      </trkpt>
      <trkpt lat="42.753240" lon="-0.213033">
        <ele>2374.117</ele>
        <time>2020-07-24T10:04:13Z</time>
      </trkpt>
      <trkpt lat="42.753259" lon="-0.213094">
        <ele>2372.751</ele>
        <time>2020-07-24T10:04:19Z</time>
      </trkpt>
      <trkpt lat="42.753268" lon="-0.213154">
        <ele>2372.154</ele>
        <time>2020-07-24T10:04:24Z</time>
      </trkpt>
      <trkpt lat="42.753303" lon="-0.213203">
        <ele>2369.174</ele>
        <time>2020-07-24T10:04:33Z</time>
      </trkpt>
      <trkpt lat="42.753347" lon="-0.213216">
        <ele>2368.633</ele>
        <time>2020-07-24T10:04:37Z</time>
      </trkpt>
      <trkpt lat="42.753393" lon="-0.213223">
        <ele>2368.183</ele>
        <time>2020-07-24T10:04:43Z</time>
      </trkpt>
      <trkpt lat="42.753370" lon="-0.213294">
        <ele>2366.725</ele>
        <time>2020-07-24T10:04:54Z</time>
      </trkpt>
      <trkpt lat="42.753329" lon="-0.213335">
        <ele>2367.117</ele>
        <time>2020-07-24T10:04:58Z</time>
      </trkpt>
      <trkpt lat="42.753290" lon="-0.213368">
        <ele>2366.408</ele>
        <time>2020-07-24T10:05:02Z</time>
      </trkpt>
      <trkpt lat="42.753327" lon="-0.213397">
        <ele>2365.453</ele>
        <time>2020-07-24T10:05:11Z</time>
      </trkpt>
      <trkpt lat="42.753375" lon="-0.213377">
        <ele>2364.491</ele>
        <time>2020-07-24T10:05:14Z</time>
      </trkpt>
      <trkpt lat="42.753432" lon="-0.213368">
        <ele>2363.285</ele>
        <time>2020-07-24T10:05:19Z</time>
      </trkpt>
      <trkpt lat="42.753468" lon="-0.213351">
        <ele>2363.078</ele>
        <time>2020-07-24T10:05:23Z</time>
      </trkpt>
      <trkpt lat="42.753494" lon="-0.213393">
        <ele>2361.612</ele>
        <time>2020-07-24T10:05:30Z</time>
      </trkpt>
      <trkpt lat="42.753545" lon="-0.213426">
        <ele>2360.345</ele>
        <time>2020-07-24T10:05:37Z</time>
      </trkpt>
      <trkpt lat="42.753586" lon="-0.213465">
        <ele>2359.465</ele>
        <time>2020-07-24T10:05:46Z</time>
      </trkpt>
      <trkpt lat="42.753631" lon="-0.213503">
        <ele>2358.254</ele>
        <time>2020-07-24T10:05:53Z</time>
      </trkpt>
      <trkpt lat="42.753660" lon="-0.213552">
        <ele>2358.994</ele>
        <time>2020-07-24T10:05:58Z</time>
      </trkpt>
      <trkpt lat="42.753698" lon="-0.213593">
        <ele>2358.457</ele>
        <time>2020-07-24T10:06:04Z</time>
      </trkpt>
      <trkpt lat="42.753731" lon="-0.213636">
        <ele>2358.222</ele>
        <time>2020-07-24T10:06:08Z</time>
      </trkpt>
      <trkpt lat="42.753761" lon="-0.213688">
        <ele>2356.308</ele>
        <time>2020-07-24T10:06:16Z</time>
      </trkpt>
      <trkpt lat="42.753787" lon="-0.213726">
        <ele>2356.244</ele>
        <time>2020-07-24T10:06:23Z</time>
      </trkpt>
      <trkpt lat="42.753795" lon="-0.213776">
        <ele>2353.732</ele>
        <time>2020-07-24T10:06:31Z</time>
      </trkpt>
      <trkpt lat="42.753812" lon="-0.213814">
        <ele>2354.376</ele>
        <time>2020-07-24T10:06:37Z</time>
      </trkpt>
      <trkpt lat="42.753849" lon="-0.213878">
        <ele>2351.929</ele>
        <time>2020-07-24T10:06:45Z</time>
      </trkpt>
      <trkpt lat="42.753884" lon="-0.213921">
        <ele>2353.243</ele>
        <time>2020-07-24T10:06:51Z</time>
      </trkpt>
      <trkpt lat="42.753935" lon="-0.213944">
        <ele>2351.136</ele>
        <time>2020-07-24T10:06:57Z</time>
      </trkpt>
      <trkpt lat="42.753985" lon="-0.213972">
        <ele>2350.776</ele>
        <time>2020-07-24T10:07:03Z</time>
      </trkpt>
      <trkpt lat="42.754040" lon="-0.213976">
        <ele>2349.665</ele>
        <time>2020-07-24T10:07:09Z</time>
      </trkpt>
      <trkpt lat="42.754091" lon="-0.214003">
        <ele>2349.036</ele>
        <time>2020-07-24T10:07:16Z</time>
      </trkpt>
      <trkpt lat="42.754138" lon="-0.214034">
        <ele>2347.817</ele>
        <time>2020-07-24T10:07:21Z</time>
      </trkpt>
      <trkpt lat="42.754182" lon="-0.214066">
        <ele>2347.418</ele>
        <time>2020-07-24T10:07:30Z</time>
      </trkpt>
      <trkpt lat="42.754235" lon="-0.214084">
        <ele>2347.108</ele>
        <time>2020-07-24T10:07:37Z</time>
      </trkpt>
      <trkpt lat="42.754282" lon="-0.214122">
        <ele>2345.918</ele>
        <time>2020-07-24T10:07:45Z</time>
      </trkpt>
      <trkpt lat="42.754321" lon="-0.214153">
        <ele>2343.366</ele>
        <time>2020-07-24T10:07:52Z</time>
      </trkpt>
      <trkpt lat="42.754367" lon="-0.214201">
        <ele>2341.720</ele>
        <time>2020-07-24T10:08:09Z</time>
      </trkpt>
      <trkpt lat="42.754412" lon="-0.214232">
        <ele>2342.613</ele>
        <time>2020-07-24T10:08:15Z</time>
      </trkpt>
      <trkpt lat="42.754462" lon="-0.214255">
        <ele>2342.957</ele>
        <time>2020-07-24T10:08:21Z</time>
      </trkpt>
      <trkpt lat="42.754510" lon="-0.214288">
        <ele>2340.820</ele>
        <time>2020-07-24T10:08:26Z</time>
      </trkpt>
      <trkpt lat="42.754552" lon="-0.214335">
        <ele>2340.250</ele>
        <time>2020-07-24T10:08:32Z</time>
      </trkpt>
      <trkpt lat="42.754599" lon="-0.214371">
        <ele>2337.019</ele>
        <time>2020-07-24T10:08:39Z</time>
      </trkpt>
      <trkpt lat="42.754636" lon="-0.214406">
        <ele>2338.835</ele>
        <time>2020-07-24T10:08:44Z</time>
      </trkpt>
      <trkpt lat="42.754684" lon="-0.214433">
        <ele>2336.986</ele>
        <time>2020-07-24T10:08:53Z</time>
      </trkpt>
      <trkpt lat="42.754744" lon="-0.214460">
        <ele>2336.214</ele>
        <time>2020-07-24T10:08:59Z</time>
      </trkpt>
      <trkpt lat="42.754796" lon="-0.214466">
        <ele>2335.208</ele>
        <time>2020-07-24T10:09:04Z</time>
      </trkpt>
      <trkpt lat="42.754839" lon="-0.214503">
        <ele>2333.018</ele>
        <time>2020-07-24T10:09:11Z</time>
      </trkpt>
      <trkpt lat="42.754888" lon="-0.214500">
        <ele>2332.586</ele>
        <time>2020-07-24T10:09:19Z</time>
      </trkpt>
      <trkpt lat="42.754933" lon="-0.214520">
        <ele>2332.080</ele>
        <time>2020-07-24T10:09:25Z</time>
      </trkpt>
      <trkpt lat="42.754971" lon="-0.214560">
        <ele>2330.713</ele>
        <time>2020-07-24T10:09:31Z</time>
      </trkpt>
      <trkpt lat="42.755023" lon="-0.214572">
        <ele>2328.567</ele>
        <time>2020-07-24T10:09:38Z</time>
      </trkpt>
      <trkpt lat="42.755072" lon="-0.214587">
        <ele>2329.110</ele>
        <time>2020-07-24T10:09:44Z</time>
      </trkpt>
      <trkpt lat="42.755118" lon="-0.214603">
        <ele>2327.180</ele>
        <time>2020-07-24T10:09:52Z</time>
      </trkpt>
      <trkpt lat="42.755158" lon="-0.214644">
        <ele>2327.249</ele>
        <time>2020-07-24T10:09:58Z</time>
      </trkpt>
      <trkpt lat="42.755198" lon="-0.214679">
        <ele>2326.148</ele>
        <time>2020-07-24T10:10:11Z</time>
      </trkpt>
      <trkpt lat="42.755248" lon="-0.214687">
        <ele>2322.261</ele>
        <time>2020-07-24T10:10:16Z</time>
      </trkpt>
      <trkpt lat="42.755305" lon="-0.214676">
        <ele>2321.917</ele>
        <time>2020-07-24T10:10:24Z</time>
      </trkpt>
      <trkpt lat="42.755350" lon="-0.214692">
        <ele>2323.208</ele>
        <time>2020-07-24T10:10:28Z</time>
      </trkpt>
      <trkpt lat="42.755396" lon="-0.214730">
        <ele>2321.989</ele>
        <time>2020-07-24T10:10:35Z</time>
      </trkpt>
      <trkpt lat="42.755432" lon="-0.214772">
        <ele>2322.367</ele>
        <time>2020-07-24T10:10:45Z</time>
      </trkpt>
      <trkpt lat="42.755471" lon="-0.214797">
        <ele>2319.871</ele>
        <time>2020-07-24T10:11:41Z</time>
      </trkpt>
      <trkpt lat="42.755515" lon="-0.214821">
        <ele>2318.984</ele>
        <time>2020-07-24T10:11:46Z</time>
      </trkpt>
      <trkpt lat="42.755553" lon="-0.214853">
        <ele>2319.638</ele>
        <time>2020-07-24T10:11:49Z</time>
      </trkpt>
      <trkpt lat="42.755522" lon="-0.214902">
        <ele>2317.111</ele>
        <time>2020-07-24T10:12:03Z</time>
      </trkpt>
      <trkpt lat="42.755475" lon="-0.214928">
        <ele>2315.641</ele>
        <time>2020-07-24T10:12:07Z</time>
      </trkpt>
      <trkpt lat="42.755428" lon="-0.214950">
        <ele>2315.340</ele>
        <time>2020-07-24T10:12:12Z</time>
      </trkpt>
      <trkpt lat="42.755370" lon="-0.214958">
        <ele>2314.518</ele>
        <time>2020-07-24T10:12:19Z</time>
      </trkpt>
      <trkpt lat="42.755401" lon="-0.215011">
        <ele>2313.398</ele>
        <time>2020-07-24T10:12:24Z</time>
      </trkpt>
      <trkpt lat="42.755436" lon="-0.215064">
        <ele>2313.417</ele>
        <time>2020-07-24T10:12:29Z</time>
      </trkpt>
      <trkpt lat="42.755477" lon="-0.215091">
        <ele>2312.408</ele>
        <time>2020-07-24T10:12:33Z</time>
      </trkpt>
      <trkpt lat="42.755527" lon="-0.215117">
        <ele>2311.216</ele>
        <time>2020-07-24T10:12:39Z</time>
      </trkpt>
      <trkpt lat="42.755573" lon="-0.215131">
        <ele>2310.214</ele>
        <time>2020-07-24T10:12:45Z</time>
      </trkpt>
      <trkpt lat="42.755624" lon="-0.215125">
        <ele>2309.028</ele>
        <time>2020-07-24T10:12:51Z</time>
      </trkpt>
      <trkpt lat="42.755674" lon="-0.215122">
        <ele>2308.741</ele>
        <time>2020-07-24T10:12:56Z</time>
      </trkpt>
      <trkpt lat="42.755739" lon="-0.215086">
        <ele>2308.145</ele>
        <time>2020-07-24T10:13:02Z</time>
      </trkpt>
      <trkpt lat="42.755791" lon="-0.215054">
        <ele>2307.888</ele>
        <time>2020-07-24T10:13:09Z</time>
      </trkpt>
      <trkpt lat="42.755844" lon="-0.215037">
        <ele>2303.748</ele>
        <time>2020-07-24T10:13:14Z</time>
      </trkpt>
      <trkpt lat="42.755900" lon="-0.215041">
        <ele>2306.787</ele>
        <time>2020-07-24T10:13:17Z</time>
      </trkpt>
      <trkpt lat="42.755950" lon="-0.215040">
        <ele>2305.244</ele>
        <time>2020-07-24T10:13:22Z</time>
      </trkpt>
      <trkpt lat="42.755997" lon="-0.215049">
        <ele>2305.405</ele>
        <time>2020-07-24T10:13:26Z</time>
      </trkpt>
      <trkpt lat="42.756048" lon="-0.215066">
        <ele>2304.715</ele>
        <time>2020-07-24T10:13:32Z</time>
      </trkpt>
      <trkpt lat="42.756096" lon="-0.215087">
        <ele>2303.908</ele>
        <time>2020-07-24T10:13:39Z</time>
      </trkpt>
      <trkpt lat="42.756140" lon="-0.215114">
        <ele>2303.349</ele>
        <time>2020-07-24T10:13:44Z</time>
      </trkpt>
      <trkpt lat="42.756177" lon="-0.215176">
        <ele>2303.917</ele>
        <time>2020-07-24T10:13:51Z</time>
      </trkpt>
      <trkpt lat="42.756211" lon="-0.215230">
        <ele>2302.311</ele>
        <time>2020-07-24T10:13:57Z</time>
      </trkpt>
      <trkpt lat="42.756240" lon="-0.215280">
        <ele>2304.784</ele>
        <time>2020-07-24T10:14:03Z</time>
      </trkpt>
      <trkpt lat="42.756257" lon="-0.215361">
        <ele>2303.788</ele>
        <time>2020-07-24T10:14:09Z</time>
      </trkpt>
      <trkpt lat="42.756284" lon="-0.215420">
        <ele>2302.611</ele>
        <time>2020-07-24T10:14:14Z</time>
      </trkpt>
      <trkpt lat="42.756320" lon="-0.215465">
        <ele>2302.671</ele>
        <time>2020-07-24T10:14:18Z</time>
      </trkpt>
      <trkpt lat="42.756362" lon="-0.215518">
        <ele>2301.960</ele>
        <time>2020-07-24T10:14:24Z</time>
      </trkpt>
      <trkpt lat="42.756402" lon="-0.215572">
        <ele>2299.854</ele>
        <time>2020-07-24T10:14:30Z</time>
      </trkpt>
      <trkpt lat="42.756419" lon="-0.215632">
        <ele>2300.156</ele>
        <time>2020-07-24T10:14:38Z</time>
      </trkpt>
      <trkpt lat="42.756439" lon="-0.215696">
        <ele>2298.811</ele>
        <time>2020-07-24T10:14:45Z</time>
      </trkpt>
      <trkpt lat="42.756468" lon="-0.215743">
        <ele>2298.808</ele>
        <time>2020-07-24T10:14:51Z</time>
      </trkpt>
      <trkpt lat="42.756489" lon="-0.215807">
        <ele>2298.580</ele>
        <time>2020-07-24T10:14:57Z</time>
      </trkpt>
      <trkpt lat="42.756512" lon="-0.215867">
        <ele>2296.568</ele>
        <time>2020-07-24T10:15:03Z</time>
      </trkpt>
      <trkpt lat="42.756543" lon="-0.215919">
        <ele>2294.512</ele>
        <time>2020-07-24T10:15:09Z</time>
      </trkpt>
      <trkpt lat="42.756564" lon="-0.215983">
        <ele>2293.715</ele>
        <time>2020-07-24T10:15:36Z</time>
      </trkpt>
      <trkpt lat="42.756576" lon="-0.216042">
        <ele>2291.819</ele>
        <time>2020-07-24T10:15:41Z</time>
      </trkpt>
      <trkpt lat="42.756609" lon="-0.216097">
        <ele>2291.872</ele>
        <time>2020-07-24T10:15:47Z</time>
      </trkpt>
      <trkpt lat="42.756650" lon="-0.216144">
        <ele>2289.352</ele>
        <time>2020-07-24T10:16:03Z</time>
      </trkpt>
      <trkpt lat="42.756677" lon="-0.216201">
        <ele>2287.081</ele>
        <time>2020-07-24T10:16:11Z</time>
      </trkpt>
      <trkpt lat="42.756707" lon="-0.216258">
        <ele>2286.657</ele>
        <time>2020-07-24T10:16:17Z</time>
      </trkpt>
      <trkpt lat="42.756739" lon="-0.216303">
        <ele>2286.600</ele>
        <time>2020-07-24T10:16:22Z</time>
      </trkpt>
      <trkpt lat="42.756709" lon="-0.216351">
        <ele>2285.520</ele>
        <time>2020-07-24T10:16:30Z</time>
      </trkpt>
      <trkpt lat="42.756655" lon="-0.216322">
        <ele>2284.108</ele>
        <time>2020-07-24T10:16:35Z</time>
      </trkpt>
      <trkpt lat="42.756608" lon="-0.216296">
        <ele>2283.390</ele>
        <time>2020-07-24T10:16:39Z</time>
      </trkpt>
      <trkpt lat="42.756549" lon="-0.216258">
        <ele>2282.898</ele>
        <time>2020-07-24T10:16:44Z</time>
      </trkpt>
      <trkpt lat="42.756542" lon="-0.216328">
        <ele>2279.872</ele>
        <time>2020-07-24T10:16:51Z</time>
      </trkpt>
      <trkpt lat="42.756573" lon="-0.216379">
        <ele>2279.465</ele>
        <time>2020-07-24T10:16:56Z</time>
      </trkpt>
      <trkpt lat="42.756597" lon="-0.216440">
        <ele>2279.059</ele>
        <time>2020-07-24T10:17:01Z</time>
      </trkpt>
      <trkpt lat="42.756623" lon="-0.216498">
        <ele>2279.582</ele>
        <time>2020-07-24T10:17:07Z</time>
      </trkpt>
      <trkpt lat="42.756643" lon="-0.216558">
        <ele>2275.832</ele>
        <time>2020-07-24T10:17:13Z</time>
      </trkpt>
      <trkpt lat="42.756664" lon="-0.216617">
        <ele>2276.421</ele>
        <time>2020-07-24T10:17:19Z</time>
      </trkpt>
      <trkpt lat="42.756693" lon="-0.216673">
        <ele>2276.481</ele>
        <time>2020-07-24T10:17:25Z</time>
      </trkpt>
      <trkpt lat="42.756695" lon="-0.216735">
        <ele>2274.961</ele>
        <time>2020-07-24T10:17:32Z</time>
      </trkpt>
      <trkpt lat="42.756695" lon="-0.216807">
        <ele>2275.017</ele>
        <time>2020-07-24T10:17:38Z</time>
      </trkpt>
      <trkpt lat="42.756692" lon="-0.216870">
        <ele>2273.508</ele>
        <time>2020-07-24T10:17:44Z</time>
      </trkpt>
      <trkpt lat="42.756650" lon="-0.216911">
        <ele>2271.193</ele>
        <time>2020-07-24T10:17:56Z</time>
      </trkpt>
      <trkpt lat="42.756603" lon="-0.216891">
        <ele>2270.711</ele>
        <time>2020-07-24T10:18:02Z</time>
      </trkpt>
      <trkpt lat="42.756556" lon="-0.216886">
        <ele>2268.815</ele>
        <time>2020-07-24T10:18:07Z</time>
      </trkpt>
      <trkpt lat="42.756529" lon="-0.216922">
        <ele>2266.798</ele>
        <time>2020-07-24T10:18:18Z</time>
      </trkpt>
      <trkpt lat="42.756481" lon="-0.216892">
        <ele>2264.972</ele>
        <time>2020-07-24T10:18:26Z</time>
      </trkpt>
      <trkpt lat="42.756448" lon="-0.216845">
        <ele>2264.635</ele>
        <time>2020-07-24T10:18:31Z</time>
      </trkpt>
      <trkpt lat="42.756419" lon="-0.216789">
        <ele>2264.575</ele>
        <time>2020-07-24T10:18:39Z</time>
      </trkpt>
      <trkpt lat="42.756378" lon="-0.216749">
        <ele>2263.254</ele>
        <time>2020-07-24T10:18:48Z</time>
      </trkpt>
      <trkpt lat="42.756386" lon="-0.216818">
        <ele>2260.399</ele>
        <time>2020-07-24T10:18:59Z</time>
      </trkpt>
      <trkpt lat="42.756404" lon="-0.216877">
        <ele>2260.907</ele>
        <time>2020-07-24T10:19:06Z</time>
      </trkpt>
      <trkpt lat="42.756403" lon="-0.216943">
        <ele>2259.927</ele>
        <time>2020-07-24T10:19:13Z</time>
      </trkpt>
      <trkpt lat="42.756391" lon="-0.216985">
        <ele>2258.208</ele>
        <time>2020-07-24T10:19:19Z</time>
      </trkpt>
      <trkpt lat="42.756360" lon="-0.217039">
        <ele>2257.374</ele>
        <time>2020-07-24T10:19:30Z</time>
      </trkpt>
      <trkpt lat="42.756346" lon="-0.217099">
        <ele>2255.052</ele>
        <time>2020-07-24T10:19:34Z</time>
      </trkpt>
      <trkpt lat="42.756345" lon="-0.217176">
        <ele>2254.526</ele>
        <time>2020-07-24T10:19:39Z</time>
      </trkpt>
      <trkpt lat="42.756298" lon="-0.217146">
        <ele>2252.869</ele>
        <time>2020-07-24T10:19:46Z</time>
      </trkpt>
      <trkpt lat="42.756271" lon="-0.217092">
        <ele>2252.393</ele>
        <time>2020-07-24T10:19:50Z</time>
      </trkpt>
      <trkpt lat="42.756237" lon="-0.217042">
        <ele>2252.286</ele>
        <time>2020-07-24T10:19:54Z</time>
      </trkpt>
      <trkpt lat="42.756206" lon="-0.216979">
        <ele>2250.496</ele>
        <time>2020-07-24T10:19:59Z</time>
      </trkpt>
      <trkpt lat="42.756174" lon="-0.217026">
        <ele>2249.775</ele>
        <time>2020-07-24T10:20:03Z</time>
      </trkpt>
      <trkpt lat="42.756173" lon="-0.217100">
        <ele>2249.214</ele>
        <time>2020-07-24T10:20:08Z</time>
      </trkpt>
      <trkpt lat="42.756193" lon="-0.217170">
        <ele>2247.254</ele>
        <time>2020-07-24T10:20:12Z</time>
      </trkpt>
      <trkpt lat="42.756223" lon="-0.217224">
        <ele>2247.909</ele>
        <time>2020-07-24T10:20:17Z</time>
      </trkpt>
      <trkpt lat="42.756259" lon="-0.217280">
        <ele>2247.208</ele>
        <time>2020-07-24T10:20:21Z</time>
      </trkpt>
      <trkpt lat="42.756295" lon="-0.217334">
        <ele>2245.146</ele>
        <time>2020-07-24T10:20:26Z</time>
      </trkpt>
      <trkpt lat="42.756330" lon="-0.217377">
        <ele>2244.664</ele>
        <time>2020-07-24T10:20:31Z</time>
      </trkpt>
      <trkpt lat="42.756369" lon="-0.217425">
        <ele>2243.948</ele>
        <time>2020-07-24T10:20:37Z</time>
      </trkpt>
      <trkpt lat="42.756388" lon="-0.217488">
        <ele>2242.541</ele>
        <time>2020-07-24T10:20:47Z</time>
      </trkpt>
      <trkpt lat="42.756340" lon="-0.217506">
        <ele>2240.195</ele>
        <time>2020-07-24T10:20:59Z</time>
      </trkpt>
      <trkpt lat="42.756295" lon="-0.217488">
        <ele>2240.018</ele>
        <time>2020-07-24T10:21:03Z</time>
      </trkpt>
      <trkpt lat="42.756228" lon="-0.217474">
        <ele>2239.688</ele>
        <time>2020-07-24T10:21:08Z</time>
      </trkpt>
      <trkpt lat="42.756175" lon="-0.217469">
        <ele>2238.497</ele>
        <time>2020-07-24T10:21:12Z</time>
      </trkpt>
      <trkpt lat="42.756190" lon="-0.217532">
        <ele>2236.437</ele>
        <time>2020-07-24T10:21:23Z</time>
      </trkpt>
      <trkpt lat="42.756226" lon="-0.217568">
        <ele>2236.549</ele>
        <time>2020-07-24T10:21:28Z</time>
      </trkpt>
      <trkpt lat="42.756266" lon="-0.217614">
        <ele>2235.413</ele>
        <time>2020-07-24T10:21:35Z</time>
      </trkpt>
      <trkpt lat="42.756294" lon="-0.217675">
        <ele>2232.708</ele>
        <time>2020-07-24T10:21:42Z</time>
      </trkpt>
      <trkpt lat="42.756323" lon="-0.217739">
        <ele>2234.138</ele>
        <time>2020-07-24T10:21:49Z</time>
      </trkpt>
      <trkpt lat="42.756347" lon="-0.217803">
        <ele>2233.336</ele>
        <time>2020-07-24T10:21:54Z</time>
      </trkpt>
      <trkpt lat="42.756353" lon="-0.217864">
        <ele>2232.950</ele>
        <time>2020-07-24T10:22:00Z</time>
      </trkpt>
      <trkpt lat="42.756346" lon="-0.217927">
        <ele>2231.673</ele>
        <time>2020-07-24T10:22:06Z</time>
      </trkpt>
      <trkpt lat="42.756296" lon="-0.217901">
        <ele>2230.517</ele>
        <time>2020-07-24T10:22:15Z</time>
      </trkpt>
      <trkpt lat="42.756261" lon="-0.217943">
        <ele>2228.850</ele>
        <time>2020-07-24T10:22:23Z</time>
      </trkpt>
      <trkpt lat="42.756267" lon="-0.218003">
        <ele>2226.080</ele>
        <time>2020-07-24T10:22:31Z</time>
      </trkpt>
      <trkpt lat="42.756287" lon="-0.218063">
        <ele>2226.359</ele>
        <time>2020-07-24T10:22:38Z</time>
      </trkpt>
      <trkpt lat="42.756284" lon="-0.218138">
        <ele>2223.921</ele>
        <time>2020-07-24T10:22:51Z</time>
      </trkpt>
      <trkpt lat="42.756247" lon="-0.218101">
        <ele>2221.241</ele>
        <time>2020-07-24T10:23:03Z</time>
      </trkpt>
      <trkpt lat="42.756205" lon="-0.218057">
        <ele>2220.605</ele>
        <time>2020-07-24T10:23:09Z</time>
      </trkpt>
      <trkpt lat="42.756165" lon="-0.218029">
        <ele>2219.308</ele>
        <time>2020-07-24T10:23:14Z</time>
      </trkpt>
      <trkpt lat="42.756111" lon="-0.218020">
        <ele>2219.897</ele>
        <time>2020-07-24T10:23:19Z</time>
      </trkpt>
      <trkpt lat="42.756063" lon="-0.218002">
        <ele>2219.455</ele>
        <time>2020-07-24T10:23:25Z</time>
      </trkpt>
      <trkpt lat="42.756012" lon="-0.217998">
        <ele>2217.949</ele>
        <time>2020-07-24T10:23:31Z</time>
      </trkpt>
      <trkpt lat="42.755962" lon="-0.217988">
        <ele>2216.812</ele>
        <time>2020-07-24T10:23:37Z</time>
      </trkpt>
      <trkpt lat="42.755912" lon="-0.217991">
        <ele>2217.546</ele>
        <time>2020-07-24T10:23:44Z</time>
      </trkpt>
      <trkpt lat="42.755912" lon="-0.218059">
        <ele>2218.099</ele>
        <time>2020-07-24T10:23:53Z</time>
      </trkpt>
      <trkpt lat="42.755950" lon="-0.218092">
        <ele>2217.569</ele>
        <time>2020-07-24T10:23:57Z</time>
      </trkpt>
      <trkpt lat="42.755989" lon="-0.218127">
        <ele>2216.628</ele>
        <time>2020-07-24T10:24:01Z</time>
      </trkpt>
      <trkpt lat="42.756030" lon="-0.218165">
        <ele>2213.532</ele>
        <time>2020-07-24T10:24:06Z</time>
      </trkpt>
      <trkpt lat="42.756075" lon="-0.218188">
        <ele>2214.292</ele>
        <time>2020-07-24T10:24:10Z</time>
      </trkpt>
      <trkpt lat="42.756123" lon="-0.218226">
        <ele>2213.511</ele>
        <time>2020-07-24T10:24:15Z</time>
      </trkpt>
      <trkpt lat="42.756149" lon="-0.218277">
        <ele>2211.108</ele>
        <time>2020-07-24T10:24:20Z</time>
      </trkpt>
      <trkpt lat="42.756162" lon="-0.218343">
        <ele>2212.168</ele>
        <time>2020-07-24T10:24:24Z</time>
      </trkpt>
      <trkpt lat="42.756162" lon="-0.218407">
        <ele>2212.516</ele>
        <time>2020-07-24T10:24:29Z</time>
      </trkpt>
      <trkpt lat="42.756147" lon="-0.218480">
        <ele>2210.940</ele>
        <time>2020-07-24T10:24:34Z</time>
      </trkpt>
      <trkpt lat="42.756144" lon="-0.218543">
        <ele>2211.973</ele>
        <time>2020-07-24T10:24:40Z</time>
      </trkpt>
      <trkpt lat="42.756129" lon="-0.218607">
        <ele>2212.117</ele>
        <time>2020-07-24T10:24:47Z</time>
      </trkpt>
      <trkpt lat="42.756120" lon="-0.218667">
        <ele>2211.770</ele>
        <time>2020-07-24T10:24:52Z</time>
      </trkpt>
      <trkpt lat="42.756105" lon="-0.218730">
        <ele>2211.220</ele>
        <time>2020-07-24T10:24:57Z</time>
      </trkpt>
      <trkpt lat="42.756073" lon="-0.218786">
        <ele>2209.919</ele>
        <time>2020-07-24T10:25:03Z</time>
      </trkpt>
      <trkpt lat="42.756045" lon="-0.218836">
        <ele>2209.319</ele>
        <time>2020-07-24T10:25:08Z</time>
      </trkpt>
      <trkpt lat="42.756026" lon="-0.218902">
        <ele>2209.709</ele>
        <time>2020-07-24T10:25:15Z</time>
      </trkpt>
      <trkpt lat="42.756022" lon="-0.218969">
        <ele>2207.819</ele>
        <time>2020-07-24T10:25:21Z</time>
      </trkpt>
      <trkpt lat="42.756004" lon="-0.219037">
        <ele>2209.108</ele>
        <time>2020-07-24T10:25:26Z</time>
      </trkpt>
      <trkpt lat="42.755978" lon="-0.219105">
        <ele>2208.416</ele>
        <time>2020-07-24T10:25:30Z</time>
      </trkpt>
      <trkpt lat="42.755947" lon="-0.219160">
        <ele>2208.164</ele>
        <time>2020-07-24T10:25:35Z</time>
      </trkpt>
      <trkpt lat="42.755938" lon="-0.219223">
        <ele>2207.758</ele>
        <time>2020-07-24T10:25:41Z</time>
      </trkpt>
      <trkpt lat="42.755937" lon="-0.219290">
        <ele>2207.411</ele>
        <time>2020-07-24T10:25:47Z</time>
      </trkpt>
      <trkpt lat="42.755984" lon="-0.219351">
        <ele>2205.385</ele>
        <time>2020-07-24T10:25:53Z</time>
      </trkpt>
      <trkpt lat="42.756025" lon="-0.219385">
        <ele>2204.578</ele>
        <time>2020-07-24T10:25:58Z</time>
      </trkpt>
      <trkpt lat="42.756070" lon="-0.219399">
        <ele>2204.548</ele>
        <time>2020-07-24T10:26:03Z</time>
      </trkpt>
      <trkpt lat="42.756115" lon="-0.219442">
        <ele>2203.917</ele>
        <time>2020-07-24T10:26:09Z</time>
      </trkpt>
      <trkpt lat="42.756132" lon="-0.219500">
        <ele>2202.011</ele>
        <time>2020-07-24T10:26:28Z</time>
      </trkpt>
      <trkpt lat="42.756135" lon="-0.219567">
        <ele>2201.621</ele>
        <time>2020-07-24T10:26:36Z</time>
      </trkpt>
      <trkpt lat="42.756158" lon="-0.219632">
        <ele>2201.103</ele>
        <time>2020-07-24T10:26:41Z</time>
      </trkpt>
      <trkpt lat="42.756190" lon="-0.219696">
        <ele>2199.608</ele>
        <time>2020-07-24T10:26:46Z</time>
      </trkpt>
      <trkpt lat="42.756212" lon="-0.219753">
        <ele>2200.516</ele>
        <time>2020-07-24T10:26:50Z</time>
      </trkpt>
      <trkpt lat="42.756235" lon="-0.219811">
        <ele>2198.284</ele>
        <time>2020-07-24T10:26:55Z</time>
      </trkpt>
      <trkpt lat="42.756265" lon="-0.219878">
        <ele>2200.198</ele>
        <time>2020-07-24T10:27:00Z</time>
      </trkpt>
      <trkpt lat="42.756292" lon="-0.219934">
        <ele>2199.991</ele>
        <time>2020-07-24T10:27:04Z</time>
      </trkpt>
      <trkpt lat="42.756335" lon="-0.219977">
        <ele>2197.695</ele>
        <time>2020-07-24T10:27:09Z</time>
      </trkpt>
      <trkpt lat="42.756382" lon="-0.220016">
        <ele>2196.498</ele>
        <time>2020-07-24T10:27:13Z</time>
      </trkpt>
      <trkpt lat="42.756430" lon="-0.220030">
        <ele>2197.158</ele>
        <time>2020-07-24T10:27:18Z</time>
      </trkpt>
      <trkpt lat="42.756486" lon="-0.220048">
        <ele>2195.387</ele>
        <time>2020-07-24T10:27:22Z</time>
      </trkpt>
      <trkpt lat="42.756544" lon="-0.220077">
        <ele>2195.732</ele>
        <time>2020-07-24T10:27:27Z</time>
      </trkpt>
      <trkpt lat="42.756594" lon="-0.220098">
        <ele>2193.292</ele>
        <time>2020-07-24T10:27:32Z</time>
      </trkpt>
      <trkpt lat="42.756648" lon="-0.220099">
        <ele>2194.611</ele>
        <time>2020-07-24T10:27:38Z</time>
      </trkpt>
      <trkpt lat="42.756700" lon="-0.220103">
        <ele>2192.708</ele>
        <time>2020-07-24T10:27:44Z</time>
      </trkpt>
      <trkpt lat="42.756745" lon="-0.220131">
        <ele>2192.048</ele>
        <time>2020-07-24T10:27:51Z</time>
      </trkpt>
      <trkpt lat="42.756780" lon="-0.220169">
        <ele>2190.826</ele>
        <time>2020-07-24T10:27:58Z</time>
      </trkpt>
      <trkpt lat="42.756829" lon="-0.220209">
        <ele>2190.560</ele>
        <time>2020-07-24T10:28:04Z</time>
      </trkpt>
      <trkpt lat="42.756871" lon="-0.220257">
        <ele>2190.623</ele>
        <time>2020-07-24T10:28:08Z</time>
      </trkpt>
      <trkpt lat="42.756919" lon="-0.220311">
        <ele>2191.067</ele>
        <time>2020-07-24T10:28:13Z</time>
      </trkpt>
      <trkpt lat="42.756960" lon="-0.220349">
        <ele>2190.930</ele>
        <time>2020-07-24T10:28:19Z</time>
      </trkpt>
      <trkpt lat="42.757005" lon="-0.220397">
        <ele>2191.920</ele>
        <time>2020-07-24T10:28:25Z</time>
      </trkpt>
      <trkpt lat="42.757048" lon="-0.220434">
        <ele>2191.399</ele>
        <time>2020-07-24T10:28:31Z</time>
      </trkpt>
      <trkpt lat="42.757102" lon="-0.220469">
        <ele>2191.551</ele>
        <time>2020-07-24T10:28:38Z</time>
      </trkpt>
      <trkpt lat="42.757144" lon="-0.220493">
        <ele>2191.901</ele>
        <time>2020-07-24T10:28:42Z</time>
      </trkpt>
      <trkpt lat="42.757193" lon="-0.220528">
        <ele>2191.011</ele>
        <time>2020-07-24T10:28:48Z</time>
      </trkpt>
      <trkpt lat="42.757241" lon="-0.220546">
        <ele>2190.108</ele>
        <time>2020-07-24T10:28:55Z</time>
      </trkpt>
      <trkpt lat="42.757294" lon="-0.220581">
        <ele>2187.830</ele>
        <time>2020-07-24T10:29:02Z</time>
      </trkpt>
      <trkpt lat="42.757338" lon="-0.220607">
        <ele>2185.778</ele>
        <time>2020-07-24T10:29:08Z</time>
      </trkpt>
      <trkpt lat="42.757385" lon="-0.220621">
        <ele>2186.832</ele>
        <time>2020-07-24T10:29:14Z</time>
      </trkpt>
      <trkpt lat="42.757432" lon="-0.220653">
        <ele>2185.695</ele>
        <time>2020-07-24T10:29:19Z</time>
      </trkpt>
      <trkpt lat="42.757470" lon="-0.220706">
        <ele>2182.789</ele>
        <time>2020-07-24T10:29:25Z</time>
      </trkpt>
      <trkpt lat="42.757509" lon="-0.220764">
        <ele>2182.972</ele>
        <time>2020-07-24T10:29:31Z</time>
      </trkpt>
      <trkpt lat="42.757563" lon="-0.220795">
        <ele>2183.352</ele>
        <time>2020-07-24T10:29:37Z</time>
      </trkpt>
      <trkpt lat="42.757616" lon="-0.220812">
        <ele>2181.481</ele>
        <time>2020-07-24T10:29:43Z</time>
      </trkpt>
      <trkpt lat="42.757660" lon="-0.220835">
        <ele>2182.078</ele>
        <time>2020-07-24T10:29:48Z</time>
      </trkpt>
      <trkpt lat="42.757703" lon="-0.220863">
        <ele>2182.133</ele>
        <time>2020-07-24T10:29:52Z</time>
      </trkpt>
      <trkpt lat="42.757744" lon="-0.220896">
        <ele>2180.326</ele>
        <time>2020-07-24T10:29:57Z</time>
      </trkpt>
      <trkpt lat="42.757788" lon="-0.220937">
        <ele>2180.608</ele>
        <time>2020-07-24T10:30:03Z</time>
      </trkpt>
      <trkpt lat="42.757828" lon="-0.220953">
        <ele>2180.532</ele>
        <time>2020-07-24T10:30:09Z</time>
      </trkpt>
      <trkpt lat="42.757877" lon="-0.220981">
        <ele>2179.460</ele>
        <time>2020-07-24T10:30:14Z</time>
      </trkpt>
      <trkpt lat="42.757933" lon="-0.221008">
        <ele>2178.694</ele>
        <time>2020-07-24T10:30:19Z</time>
      </trkpt>
      <trkpt lat="42.757983" lon="-0.221020">
        <ele>2177.487</ele>
        <time>2020-07-24T10:30:24Z</time>
      </trkpt>
      <trkpt lat="42.758032" lon="-0.221029">
        <ele>2176.021</ele>
        <time>2020-07-24T10:30:29Z</time>
      </trkpt>
      <trkpt lat="42.758079" lon="-0.221041">
        <ele>2175.014</ele>
        <time>2020-07-24T10:30:35Z</time>
      </trkpt>
      <trkpt lat="42.758039" lon="-0.221091">
        <ele>2174.424</ele>
        <time>2020-07-24T10:30:43Z</time>
      </trkpt>
      <trkpt lat="42.757990" lon="-0.221107">
        <ele>2172.683</ele>
        <time>2020-07-24T10:30:48Z</time>
      </trkpt>
      <trkpt lat="42.757944" lon="-0.221094">
        <ele>2172.985</ele>
        <time>2020-07-24T10:31:02Z</time>
      </trkpt>
      <trkpt lat="42.757890" lon="-0.221075">
        <ele>2170.189</ele>
        <time>2020-07-24T10:31:11Z</time>
      </trkpt>
      <trkpt lat="42.757839" lon="-0.221075">
        <ele>2171.417</ele>
        <time>2020-07-24T10:31:16Z</time>
      </trkpt>
      <trkpt lat="42.757778" lon="-0.221082">
        <ele>2170.608</ele>
        <time>2020-07-24T10:31:20Z</time>
      </trkpt>
      <trkpt lat="42.757730" lon="-0.221095">
        <ele>2168.553</ele>
        <time>2020-07-24T10:31:24Z</time>
      </trkpt>
      <trkpt lat="42.757683" lon="-0.221098">
        <ele>2167.941</ele>
        <time>2020-07-24T10:31:29Z</time>
      </trkpt>
      <trkpt lat="42.757702" lon="-0.221163">
        <ele>2167.035</ele>
        <time>2020-07-24T10:31:36Z</time>
      </trkpt>
      <trkpt lat="42.757745" lon="-0.221199">
        <ele>2165.278</ele>
        <time>2020-07-24T10:32:18Z</time>
      </trkpt>
      <trkpt lat="42.757798" lon="-0.221198">
        <ele>2165.252</ele>
        <time>2020-07-24T10:32:23Z</time>
      </trkpt>
      <trkpt lat="42.757861" lon="-0.221210">
        <ele>2163.825</ele>
        <time>2020-07-24T10:32:27Z</time>
      </trkpt>
      <trkpt lat="42.757914" lon="-0.221233">
        <ele>2164.035</ele>
        <time>2020-07-24T10:32:32Z</time>
      </trkpt>
      <trkpt lat="42.757971" lon="-0.221258">
        <ele>2163.054</ele>
        <time>2020-07-24T10:32:39Z</time>
      </trkpt>
      <trkpt lat="42.758028" lon="-0.221250">
        <ele>2163.121</ele>
        <time>2020-07-24T10:32:45Z</time>
      </trkpt>
      <trkpt lat="42.758088" lon="-0.221236">
        <ele>2163.041</ele>
        <time>2020-07-24T10:32:50Z</time>
      </trkpt>
      <trkpt lat="42.758145" lon="-0.221246">
        <ele>2160.805</ele>
        <time>2020-07-24T10:32:55Z</time>
      </trkpt>
      <trkpt lat="42.758198" lon="-0.221245">
        <ele>2161.008</ele>
        <time>2020-07-24T10:32:59Z</time>
      </trkpt>
      <trkpt lat="42.758194" lon="-0.221322">
        <ele>2158.627</ele>
        <time>2020-07-24T10:33:09Z</time>
      </trkpt>
      <trkpt lat="42.758158" lon="-0.221361">
        <ele>2159.085</ele>
        <time>2020-07-24T10:33:12Z</time>
      </trkpt>
      <trkpt lat="42.758112" lon="-0.221393">
        <ele>2158.069</ele>
        <time>2020-07-24T10:33:16Z</time>
      </trkpt>
      <trkpt lat="42.758056" lon="-0.221419">
        <ele>2153.992</ele>
        <time>2020-07-24T10:33:21Z</time>
      </trkpt>
      <trkpt lat="42.758011" lon="-0.221429">
        <ele>2156.766</ele>
        <time>2020-07-24T10:33:24Z</time>
      </trkpt>
      <trkpt lat="42.757952" lon="-0.221428">
        <ele>2153.859</ele>
        <time>2020-07-24T10:33:29Z</time>
      </trkpt>
      <trkpt lat="42.757904" lon="-0.221450">
        <ele>2153.539</ele>
        <time>2020-07-24T10:33:35Z</time>
      </trkpt>
      <trkpt lat="42.757848" lon="-0.221454">
        <ele>2153.558</ele>
        <time>2020-07-24T10:33:42Z</time>
      </trkpt>
      <trkpt lat="42.757807" lon="-0.221477">
        <ele>2152.462</ele>
        <time>2020-07-24T10:33:46Z</time>
      </trkpt>
      <trkpt lat="42.757861" lon="-0.221507">
        <ele>2149.583</ele>
        <time>2020-07-24T10:33:59Z</time>
      </trkpt>
      <trkpt lat="42.757917" lon="-0.221511">
        <ele>2148.811</ele>
        <time>2020-07-24T10:34:03Z</time>
      </trkpt>
      <trkpt lat="42.757971" lon="-0.221519">
        <ele>2148.108</ele>
        <time>2020-07-24T10:34:06Z</time>
      </trkpt>
      <trkpt lat="42.758031" lon="-0.221537">
        <ele>2147.531</ele>
        <time>2020-07-24T10:34:10Z</time>
      </trkpt>
      <trkpt lat="42.758080" lon="-0.221540">
        <ele>2147.069</ele>
        <time>2020-07-24T10:34:14Z</time>
      </trkpt>
      <trkpt lat="42.758130" lon="-0.221538">
        <ele>2147.563</ele>
        <time>2020-07-24T10:34:18Z</time>
      </trkpt>
      <trkpt lat="42.758176" lon="-0.221532">
        <ele>2146.736</ele>
        <time>2020-07-24T10:34:22Z</time>
      </trkpt>
      <trkpt lat="42.758179" lon="-0.221593">
        <ele>2143.910</ele>
        <time>2020-07-24T10:34:30Z</time>
      </trkpt>
      <trkpt lat="42.758122" lon="-0.221618">
        <ele>2144.593</ele>
        <time>2020-07-24T10:34:35Z</time>
      </trkpt>
      <trkpt lat="42.758063" lon="-0.221656">
        <ele>2142.593</ele>
        <time>2020-07-24T10:34:39Z</time>
      </trkpt>
      <trkpt lat="42.758019" lon="-0.221682">
        <ele>2142.982</ele>
        <time>2020-07-24T10:34:43Z</time>
      </trkpt>
      <trkpt lat="42.757975" lon="-0.221698">
        <ele>2140.997</ele>
        <time>2020-07-24T10:34:46Z</time>
      </trkpt>
      <trkpt lat="42.757919" lon="-0.221727">
        <ele>2141.523</ele>
        <time>2020-07-24T10:34:51Z</time>
      </trkpt>
      <trkpt lat="42.757874" lon="-0.221745">
        <ele>2140.825</ele>
        <time>2020-07-24T10:34:55Z</time>
      </trkpt>
      <trkpt lat="42.757830" lon="-0.221759">
        <ele>2140.408</ele>
        <time>2020-07-24T10:34:58Z</time>
      </trkpt>
      <trkpt lat="42.757778" lon="-0.221782">
        <ele>2138.334</ele>
        <time>2020-07-24T10:35:03Z</time>
      </trkpt>
      <trkpt lat="42.757727" lon="-0.221801">
        <ele>2139.252</ele>
        <time>2020-07-24T10:35:07Z</time>
      </trkpt>
      <trkpt lat="42.757681" lon="-0.221787">
        <ele>2138.266</ele>
        <time>2020-07-24T10:35:11Z</time>
      </trkpt>
      <trkpt lat="42.757689" lon="-0.221849">
        <ele>2137.199</ele>
        <time>2020-07-24T10:35:17Z</time>
      </trkpt>
      <trkpt lat="42.757741" lon="-0.221901">
        <ele>2136.263</ele>
        <time>2020-07-24T10:35:20Z</time>
      </trkpt>
      <trkpt lat="42.757787" lon="-0.221932">
        <ele>2136.366</ele>
        <time>2020-07-24T10:35:24Z</time>
      </trkpt>
      <trkpt lat="42.757834" lon="-0.221956">
        <ele>2136.426</ele>
        <time>2020-07-24T10:35:28Z</time>
      </trkpt>
      <trkpt lat="42.757888" lon="-0.221976">
        <ele>2133.415</ele>
        <time>2020-07-24T10:35:33Z</time>
      </trkpt>
      <trkpt lat="42.757928" lon="-0.222008">
        <ele>2131.747</ele>
        <time>2020-07-24T10:35:36Z</time>
      </trkpt>
      <trkpt lat="42.757971" lon="-0.222039">
        <ele>2134.029</ele>
        <time>2020-07-24T10:35:41Z</time>
      </trkpt>
      <trkpt lat="42.758015" lon="-0.222068">
        <ele>2133.721</ele>
        <time>2020-07-24T10:35:46Z</time>
      </trkpt>
      <trkpt lat="42.758058" lon="-0.222088">
        <ele>2132.108</ele>
        <time>2020-07-24T10:35:52Z</time>
      </trkpt>
      <trkpt lat="42.758110" lon="-0.222112">
        <ele>2130.479</ele>
        <time>2020-07-24T10:35:59Z</time>
      </trkpt>
      <trkpt lat="42.758159" lon="-0.222123">
        <ele>2128.797</ele>
        <time>2020-07-24T10:36:04Z</time>
      </trkpt>
      <trkpt lat="42.758136" lon="-0.222189">
        <ele>2126.641</ele>
        <time>2020-07-24T10:36:15Z</time>
      </trkpt>
      <trkpt lat="42.758104" lon="-0.222240">
        <ele>2125.654</ele>
        <time>2020-07-24T10:36:19Z</time>
      </trkpt>
      <trkpt lat="42.758059" lon="-0.222249">
        <ele>2126.558</ele>
        <time>2020-07-24T10:36:24Z</time>
      </trkpt>
      <trkpt lat="42.758014" lon="-0.222262">
        <ele>2126.071</ele>
        <time>2020-07-24T10:36:29Z</time>
      </trkpt>
      <trkpt lat="42.757970" lon="-0.222250">
        <ele>2125.371</ele>
        <time>2020-07-24T10:36:35Z</time>
      </trkpt>
      <trkpt lat="42.757921" lon="-0.222245">
        <ele>2124.470</ele>
        <time>2020-07-24T10:36:39Z</time>
      </trkpt>
      <trkpt lat="42.757876" lon="-0.222246">
        <ele>2122.546</ele>
        <time>2020-07-24T10:36:44Z</time>
      </trkpt>
      <trkpt lat="42.757859" lon="-0.222303">
        <ele>2120.788</ele>
        <time>2020-07-24T10:36:53Z</time>
      </trkpt>
      <trkpt lat="42.757907" lon="-0.222320">
        <ele>2118.916</ele>
        <time>2020-07-24T10:36:56Z</time>
      </trkpt>
      <trkpt lat="42.757965" lon="-0.222338">
        <ele>2120.708</ele>
        <time>2020-07-24T10:37:00Z</time>
      </trkpt>
      <trkpt lat="42.758012" lon="-0.222363">
        <ele>2119.249</ele>
        <time>2020-07-24T10:37:04Z</time>
      </trkpt>
      <trkpt lat="42.758048" lon="-0.222405">
        <ele>2118.577</ele>
        <time>2020-07-24T10:37:11Z</time>
      </trkpt>
      <trkpt lat="42.758100" lon="-0.222416">
        <ele>2116.761</ele>
        <time>2020-07-24T10:37:31Z</time>
      </trkpt>
      <trkpt lat="42.758143" lon="-0.222447">
        <ele>2114.134</ele>
        <time>2020-07-24T10:37:37Z</time>
      </trkpt>
      <trkpt lat="42.758192" lon="-0.222494">
        <ele>2113.948</ele>
        <time>2020-07-24T10:37:42Z</time>
      </trkpt>
      <trkpt lat="42.758234" lon="-0.222520">
        <ele>2113.791</ele>
        <time>2020-07-24T10:37:46Z</time>
      </trkpt>
      <trkpt lat="42.758283" lon="-0.222539">
        <ele>2111.581</ele>
        <time>2020-07-24T10:37:50Z</time>
      </trkpt>
      <trkpt lat="42.758328" lon="-0.222566">
        <ele>2111.980</ele>
        <time>2020-07-24T10:37:57Z</time>
      </trkpt>
      <trkpt lat="42.758376" lon="-0.222563">
        <ele>2111.032</ele>
        <time>2020-07-24T10:38:03Z</time>
      </trkpt>
      <trkpt lat="42.758346" lon="-0.222620">
        <ele>2109.392</ele>
        <time>2020-07-24T10:38:14Z</time>
      </trkpt>
      <trkpt lat="42.758311" lon="-0.222666">
        <ele>2107.011</ele>
        <time>2020-07-24T10:38:19Z</time>
      </trkpt>
      <trkpt lat="42.758293" lon="-0.222707">
        <ele>2107.208</ele>
        <time>2020-07-24T10:38:26Z</time>
      </trkpt>
      <trkpt lat="42.758358" lon="-0.222724">
        <ele>2104.958</ele>
        <time>2020-07-24T10:38:32Z</time>
      </trkpt>
      <trkpt lat="42.758412" lon="-0.222715">
        <ele>2103.326</ele>
        <time>2020-07-24T10:38:37Z</time>
      </trkpt>
      <trkpt lat="42.758458" lon="-0.222741">
        <ele>2104.530</ele>
        <time>2020-07-24T10:38:44Z</time>
      </trkpt>
      <trkpt lat="42.758421" lon="-0.222784">
        <ele>2102.733</ele>
        <time>2020-07-24T10:38:48Z</time>
      </trkpt>
      <trkpt lat="42.758370" lon="-0.222808">
        <ele>2100.977</ele>
        <time>2020-07-24T10:38:52Z</time>
      </trkpt>
      <trkpt lat="42.758322" lon="-0.222825">
        <ele>2101.060</ele>
        <time>2020-07-24T10:38:58Z</time>
      </trkpt>
      <trkpt lat="42.758279" lon="-0.222850">
        <ele>2100.690</ele>
        <time>2020-07-24T10:39:04Z</time>
      </trkpt>
      <trkpt lat="42.758313" lon="-0.222895">
        <ele>2100.799</ele>
        <time>2020-07-24T10:39:09Z</time>
      </trkpt>
      <trkpt lat="42.758353" lon="-0.222933">
        <ele>2098.242</ele>
        <time>2020-07-24T10:39:13Z</time>
      </trkpt>
      <trkpt lat="42.758388" lon="-0.222977">
        <ele>2096.322</ele>
        <time>2020-07-24T10:39:17Z</time>
      </trkpt>
      <trkpt lat="42.758443" lon="-0.223000">
        <ele>2096.614</ele>
        <time>2020-07-24T10:39:23Z</time>
      </trkpt>
      <trkpt lat="42.758484" lon="-0.223028">
        <ele>2095.708</ele>
        <time>2020-07-24T10:39:30Z</time>
      </trkpt>
      <trkpt lat="42.758528" lon="-0.223040">
        <ele>2093.739</ele>
        <time>2020-07-24T10:39:34Z</time>
      </trkpt>
      <trkpt lat="42.758582" lon="-0.223056">
        <ele>2093.857</ele>
        <time>2020-07-24T10:39:39Z</time>
      </trkpt>
      <trkpt lat="42.758620" lon="-0.223093">
        <ele>2093.081</ele>
        <time>2020-07-24T10:39:46Z</time>
      </trkpt>
      <trkpt lat="42.758585" lon="-0.223141">
        <ele>2092.064</ele>
        <time>2020-07-24T10:39:50Z</time>
      </trkpt>
      <trkpt lat="42.758532" lon="-0.223173">
        <ele>2091.768</ele>
        <time>2020-07-24T10:39:55Z</time>
      </trkpt>
      <trkpt lat="42.758485" lon="-0.223215">
        <ele>2091.631</ele>
        <time>2020-07-24T10:39:59Z</time>
      </trkpt>
      <trkpt lat="42.758439" lon="-0.223237">
        <ele>2089.561</ele>
        <time>2020-07-24T10:40:04Z</time>
      </trkpt>
      <trkpt lat="42.758466" lon="-0.223300">
        <ele>2088.470</ele>
        <time>2020-07-24T10:40:09Z</time>
      </trkpt>
      <trkpt lat="42.758494" lon="-0.223361">
        <ele>2086.736</ele>
        <time>2020-07-24T10:40:14Z</time>
      </trkpt>
      <trkpt lat="42.758511" lon="-0.223410">
        <ele>2085.517</ele>
        <time>2020-07-24T10:40:18Z</time>
      </trkpt>
      <trkpt lat="42.758525" lon="-0.223471">
        <ele>2084.618</ele>
        <time>2020-07-24T10:40:23Z</time>
      </trkpt>
      <trkpt lat="42.758551" lon="-0.223532">
        <ele>2083.208</ele>
        <time>2020-07-24T10:40:29Z</time>
      </trkpt>
      <trkpt lat="42.758577" lon="-0.223600">
        <ele>2079.828</ele>
        <time>2020-07-24T10:40:36Z</time>
      </trkpt>
      <trkpt lat="42.758612" lon="-0.223650">
        <ele>2079.526</ele>
        <time>2020-07-24T10:40:42Z</time>
      </trkpt>
      <trkpt lat="42.758663" lon="-0.223667">
        <ele>2080.270</ele>
        <time>2020-07-24T10:40:48Z</time>
      </trkpt>
      <trkpt lat="42.758692" lon="-0.223723">
        <ele>2078.333</ele>
        <time>2020-07-24T10:40:54Z</time>
      </trkpt>
      <trkpt lat="42.758686" lon="-0.223773">
        <ele>2075.337</ele>
        <time>2020-07-24T10:40:58Z</time>
      </trkpt>
      <trkpt lat="42.758703" lon="-0.223841">
        <ele>2075.020</ele>
        <time>2020-07-24T10:41:04Z</time>
      </trkpt>
      <trkpt lat="42.758709" lon="-0.223911">
        <ele>2074.840</ele>
        <time>2020-07-24T10:41:11Z</time>
      </trkpt>
      <trkpt lat="42.758693" lon="-0.223985">
        <ele>2073.629</ele>
        <time>2020-07-24T10:41:16Z</time>
      </trkpt>
      <trkpt lat="42.758743" lon="-0.223981">
        <ele>2070.252</ele>
        <time>2020-07-24T10:41:24Z</time>
      </trkpt>
      <trkpt lat="42.758800" lon="-0.223966">
        <ele>2071.453</ele>
        <time>2020-07-24T10:41:28Z</time>
      </trkpt>
      <trkpt lat="42.758860" lon="-0.223985">
        <ele>2067.208</ele>
        <time>2020-07-24T10:41:32Z</time>
      </trkpt>
      <trkpt lat="42.758916" lon="-0.224003">
        <ele>2069.808</ele>
        <time>2020-07-24T10:41:37Z</time>
      </trkpt>
      <trkpt lat="42.758948" lon="-0.224061">
        <ele>2068.480</ele>
        <time>2020-07-24T10:41:41Z</time>
      </trkpt>
      <trkpt lat="42.758964" lon="-0.224121">
        <ele>2069.328</ele>
        <time>2020-07-24T10:41:45Z</time>
      </trkpt>
      <trkpt lat="42.758976" lon="-0.224200">
        <ele>2068.552</ele>
        <time>2020-07-24T10:41:49Z</time>
      </trkpt>
      <trkpt lat="42.758961" lon="-0.224268">
        <ele>2067.925</ele>
        <time>2020-07-24T10:41:54Z</time>
      </trkpt>
      <trkpt lat="42.758955" lon="-0.224326">
        <ele>2065.739</ele>
        <time>2020-07-24T10:41:58Z</time>
      </trkpt>
      <trkpt lat="42.758986" lon="-0.224384">
        <ele>2065.662</ele>
        <time>2020-07-24T10:42:03Z</time>
      </trkpt>
      <trkpt lat="42.758994" lon="-0.224451">
        <ele>2064.862</ele>
        <time>2020-07-24T10:42:08Z</time>
      </trkpt>
      <trkpt lat="42.759012" lon="-0.224511">
        <ele>2062.271</ele>
        <time>2020-07-24T10:42:19Z</time>
      </trkpt>
      <trkpt lat="42.759050" lon="-0.224556">
        <ele>2061.687</ele>
        <time>2020-07-24T10:42:25Z</time>
      </trkpt>
      <trkpt lat="42.759065" lon="-0.224622">
        <ele>2060.242</ele>
        <time>2020-07-24T10:42:32Z</time>
      </trkpt>
      <trkpt lat="42.759110" lon="-0.224628">
        <ele>2058.026</ele>
        <time>2020-07-24T10:42:41Z</time>
      </trkpt>
      <trkpt lat="42.759151" lon="-0.224587">
        <ele>2058.208</ele>
        <time>2020-07-24T10:42:46Z</time>
      </trkpt>
      <trkpt lat="42.759187" lon="-0.224550">
        <ele>2056.863</ele>
        <time>2020-07-24T10:42:51Z</time>
      </trkpt>
      <trkpt lat="42.759221" lon="-0.224503">
        <ele>2056.561</ele>
        <time>2020-07-24T10:42:58Z</time>
      </trkpt>
      <trkpt lat="42.759265" lon="-0.224480">
        <ele>2055.625</ele>
        <time>2020-07-24T10:43:03Z</time>
      </trkpt>
      <trkpt lat="42.759307" lon="-0.224448">
        <ele>2052.258</ele>
        <time>2020-07-24T10:43:09Z</time>
      </trkpt>
      <trkpt lat="42.759356" lon="-0.224416">
        <ele>2051.842</ele>
        <time>2020-07-24T10:43:17Z</time>
      </trkpt>
      <trkpt lat="42.759350" lon="-0.224476">
        <ele>2051.745</ele>
        <time>2020-07-24T10:43:22Z</time>
      </trkpt>
      <trkpt lat="42.759321" lon="-0.224532">
        <ele>2051.435</ele>
        <time>2020-07-24T10:43:26Z</time>
      </trkpt>
      <trkpt lat="42.759312" lon="-0.224594">
        <ele>2050.824</ele>
        <time>2020-07-24T10:43:30Z</time>
      </trkpt>
      <trkpt lat="42.759298" lon="-0.224663">
        <ele>2051.574</ele>
        <time>2020-07-24T10:43:37Z</time>
      </trkpt>
      <trkpt lat="42.759273" lon="-0.224724">
        <ele>2049.756</ele>
        <time>2020-07-24T10:43:42Z</time>
      </trkpt>
      <trkpt lat="42.759248" lon="-0.224778">
        <ele>2050.721</ele>
        <time>2020-07-24T10:43:48Z</time>
      </trkpt>
      <trkpt lat="42.759203" lon="-0.224823">
        <ele>2048.208</ele>
        <time>2020-07-24T10:43:54Z</time>
      </trkpt>
      <trkpt lat="42.759236" lon="-0.224868">
        <ele>2046.922</ele>
        <time>2020-07-24T10:44:03Z</time>
      </trkpt>
      <trkpt lat="42.759282" lon="-0.224864">
        <ele>2047.280</ele>
        <time>2020-07-24T10:44:15Z</time>
      </trkpt>
      <trkpt lat="42.759334" lon="-0.224872">
        <ele>2045.224</ele>
        <time>2020-07-24T10:44:21Z</time>
      </trkpt>
      <trkpt lat="42.759377" lon="-0.224853">
        <ele>2044.437</ele>
        <time>2020-07-24T10:44:25Z</time>
      </trkpt>
      <trkpt lat="42.759410" lon="-0.224798">
        <ele>2042.961</ele>
        <time>2020-07-24T10:44:30Z</time>
      </trkpt>
      <trkpt lat="42.759442" lon="-0.224750">
        <ele>2043.044</ele>
        <time>2020-07-24T10:44:35Z</time>
      </trkpt>
      <trkpt lat="42.759483" lon="-0.224696">
        <ele>2042.324</ele>
        <time>2020-07-24T10:44:39Z</time>
      </trkpt>
      <trkpt lat="42.759517" lon="-0.224643">
        <ele>2041.333</ele>
        <time>2020-07-24T10:44:44Z</time>
      </trkpt>
      <trkpt lat="42.759534" lon="-0.224576">
        <ele>2042.059</ele>
        <time>2020-07-24T10:44:49Z</time>
      </trkpt>
      <trkpt lat="42.759561" lon="-0.224515">
        <ele>2039.303</ele>
        <time>2020-07-24T10:44:55Z</time>
      </trkpt>
      <trkpt lat="42.759606" lon="-0.224477">
        <ele>2039.023</ele>
        <time>2020-07-24T10:45:02Z</time>
      </trkpt>
      <trkpt lat="42.759652" lon="-0.224439">
        <ele>2037.408</ele>
        <time>2020-07-24T10:45:08Z</time>
      </trkpt>
      <trkpt lat="42.759682" lon="-0.224390">
        <ele>2036.650</ele>
        <time>2020-07-24T10:45:12Z</time>
      </trkpt>
      <trkpt lat="42.759709" lon="-0.224319">
        <ele>2035.178</ele>
        <time>2020-07-24T10:45:18Z</time>
      </trkpt>
      <trkpt lat="42.759735" lon="-0.224262">
        <ele>2035.732</ele>
        <time>2020-07-24T10:45:22Z</time>
      </trkpt>
      <trkpt lat="42.759762" lon="-0.224205">
        <ele>2033.865</ele>
        <time>2020-07-24T10:45:27Z</time>
      </trkpt>
      <trkpt lat="42.759779" lon="-0.224136">
        <ele>2033.539</ele>
        <time>2020-07-24T10:45:36Z</time>
      </trkpt>
      <trkpt lat="42.759813" lon="-0.224082">
        <ele>2033.022</ele>
        <time>2020-07-24T10:45:43Z</time>
      </trkpt>
      <trkpt lat="42.759829" lon="-0.224015">
        <ele>2031.912</ele>
        <time>2020-07-24T10:45:49Z</time>
      </trkpt>
      <trkpt lat="42.759848" lon="-0.223944">
        <ele>2031.711</ele>
        <time>2020-07-24T10:45:55Z</time>
      </trkpt>
      <trkpt lat="42.759880" lon="-0.223886">
        <ele>2030.694</ele>
        <time>2020-07-24T10:46:00Z</time>
      </trkpt>
      <trkpt lat="42.759926" lon="-0.223847">
        <ele>2029.457</ele>
        <time>2020-07-24T10:46:06Z</time>
      </trkpt>
      <trkpt lat="42.759971" lon="-0.223802">
        <ele>2029.722</ele>
        <time>2020-07-24T10:46:11Z</time>
      </trkpt>
      <trkpt lat="42.760013" lon="-0.223764">
        <ele>2027.608</ele>
        <time>2020-07-24T10:46:16Z</time>
      </trkpt>
      <trkpt lat="42.760061" lon="-0.223737">
        <ele>2027.254</ele>
        <time>2020-07-24T10:46:23Z</time>
      </trkpt>
      <trkpt lat="42.760105" lon="-0.223708">
        <ele>2025.062</ele>
        <time>2020-07-24T10:46:30Z</time>
      </trkpt>
      <trkpt lat="42.760151" lon="-0.223692">
        <ele>2023.356</ele>
        <time>2020-07-24T10:46:34Z</time>
      </trkpt>
      <trkpt lat="42.760200" lon="-0.223682">
        <ele>2022.469</ele>
        <time>2020-07-24T10:46:41Z</time>
      </trkpt>
      <trkpt lat="42.760243" lon="-0.223710">
        <ele>2022.893</ele>
        <time>2020-07-24T10:46:48Z</time>
      </trkpt>
      <trkpt lat="42.760288" lon="-0.223701">
        <ele>2021.186</ele>
        <time>2020-07-24T10:46:53Z</time>
      </trkpt>
      <trkpt lat="42.760331" lon="-0.223652">
        <ele>2020.126</ele>
        <time>2020-07-24T10:47:02Z</time>
      </trkpt>
      <trkpt lat="42.760380" lon="-0.223650">
        <ele>2017.665</ele>
        <time>2020-07-24T10:47:10Z</time>
      </trkpt>
      <trkpt lat="42.760429" lon="-0.223643">
        <ele>2017.522</ele>
        <time>2020-07-24T10:47:16Z</time>
      </trkpt>
      <trkpt lat="42.760474" lon="-0.223648">
        <ele>2017.262</ele>
        <time>2020-07-24T10:47:21Z</time>
      </trkpt>
      <trkpt lat="42.760528" lon="-0.223626">
        <ele>2015.808</ele>
        <time>2020-07-24T10:47:27Z</time>
      </trkpt>
      <trkpt lat="42.760582" lon="-0.223607">
        <ele>2014.808</ele>
        <time>2020-07-24T10:47:33Z</time>
      </trkpt>
      <trkpt lat="42.760629" lon="-0.223584">
        <ele>2013.697</ele>
        <time>2020-07-24T10:47:38Z</time>
      </trkpt>
      <trkpt lat="42.760674" lon="-0.223562">
        <ele>2013.695</ele>
        <time>2020-07-24T10:47:42Z</time>
      </trkpt>
      <trkpt lat="42.760723" lon="-0.223544">
        <ele>2012.659</ele>
        <time>2020-07-24T10:47:49Z</time>
      </trkpt>
      <trkpt lat="42.760774" lon="-0.223549">
        <ele>2010.822</ele>
        <time>2020-07-24T10:47:56Z</time>
      </trkpt>
      <trkpt lat="42.760821" lon="-0.223572">
        <ele>2009.756</ele>
        <time>2020-07-24T10:48:05Z</time>
      </trkpt>
      <trkpt lat="42.760865" lon="-0.223586">
        <ele>2007.979</ele>
        <time>2020-07-24T10:48:09Z</time>
      </trkpt>
      <trkpt lat="42.760914" lon="-0.223586">
        <ele>2007.579</ele>
        <time>2020-07-24T10:48:18Z</time>
      </trkpt>
      <trkpt lat="42.760974" lon="-0.223581">
        <ele>2005.728</ele>
        <time>2020-07-24T10:48:25Z</time>
      </trkpt>
      <trkpt lat="42.761019" lon="-0.223599">
        <ele>2005.482</ele>
        <time>2020-07-24T10:48:31Z</time>
      </trkpt>
      <trkpt lat="42.761068" lon="-0.223609">
        <ele>2004.843</ele>
        <time>2020-07-24T10:48:37Z</time>
      </trkpt>
      <trkpt lat="42.761117" lon="-0.223627">
        <ele>2005.017</ele>
        <time>2020-07-24T10:48:43Z</time>
      </trkpt>
      <trkpt lat="42.761163" lon="-0.223622">
        <ele>2002.208</ele>
        <time>2020-07-24T10:48:50Z</time>
      </trkpt>
      <trkpt lat="42.761210" lon="-0.223622">
        <ele>2001.923</ele>
        <time>2020-07-24T10:48:57Z</time>
      </trkpt>
      <trkpt lat="42.761263" lon="-0.223638">
        <ele>2000.051</ele>
        <time>2020-07-24T10:49:03Z</time>
      </trkpt>
      <trkpt lat="42.761311" lon="-0.223673">
        <ele>2001.725</ele>
        <time>2020-07-24T10:49:10Z</time>
      </trkpt>
      <trkpt lat="42.761348" lon="-0.223710">
        <ele>2001.448</ele>
        <time>2020-07-24T10:49:16Z</time>
      </trkpt>
      <trkpt lat="42.761396" lon="-0.223734">
        <ele>2000.532</ele>
        <time>2020-07-24T10:49:26Z</time>
      </trkpt>
      <trkpt lat="42.761441" lon="-0.223731">
        <ele>1999.425</ele>
        <time>2020-07-24T10:49:31Z</time>
      </trkpt>
      <trkpt lat="42.761488" lon="-0.223729">
        <ele>1998.665</ele>
        <time>2020-07-24T10:49:39Z</time>
      </trkpt>
      <trkpt lat="42.761535" lon="-0.223744">
        <ele>1998.294</ele>
        <time>2020-07-24T10:49:46Z</time>
      </trkpt>
      <trkpt lat="42.761577" lon="-0.223766">
        <ele>1996.237</ele>
        <time>2020-07-24T10:49:53Z</time>
      </trkpt>
      <trkpt lat="42.761619" lon="-0.223797">
        <ele>1996.949</ele>
        <time>2020-07-24T10:50:00Z</time>
      </trkpt>
      <trkpt lat="42.761630" lon="-0.223861">
        <ele>1994.213</ele>
        <time>2020-07-24T10:50:09Z</time>
      </trkpt>
      <trkpt lat="42.761583" lon="-0.223866">
        <ele>1994.108</ele>
        <time>2020-07-24T10:50:16Z</time>
      </trkpt>
      <trkpt lat="42.761539" lon="-0.223878">
        <ele>1993.428</ele>
        <time>2020-07-24T10:50:21Z</time>
      </trkpt>
      <trkpt lat="42.761497" lon="-0.223902">
        <ele>1994.726</ele>
        <time>2020-07-24T10:50:28Z</time>
      </trkpt>
      <trkpt lat="42.761445" lon="-0.223930">
        <ele>1992.710</ele>
        <time>2020-07-24T10:50:34Z</time>
      </trkpt>
      <trkpt lat="42.761405" lon="-0.223962">
        <ele>1993.793</ele>
        <time>2020-07-24T10:50:41Z</time>
      </trkpt>
      <trkpt lat="42.761359" lon="-0.223989">
        <ele>1992.867</ele>
        <time>2020-07-24T10:50:46Z</time>
      </trkpt>
      <trkpt lat="42.761319" lon="-0.224025">
        <ele>1991.210</ele>
        <time>2020-07-24T10:50:50Z</time>
      </trkpt>
      <trkpt lat="42.761266" lon="-0.224044">
        <ele>1991.320</ele>
        <time>2020-07-24T10:50:55Z</time>
      </trkpt>
      <trkpt lat="42.761228" lon="-0.224086">
        <ele>1991.289</ele>
        <time>2020-07-24T10:51:02Z</time>
      </trkpt>
      <trkpt lat="42.761192" lon="-0.224127">
        <ele>1989.931</ele>
        <time>2020-07-24T10:51:08Z</time>
      </trkpt>
      <trkpt lat="42.761159" lon="-0.224177">
        <ele>1989.261</ele>
        <time>2020-07-24T10:51:15Z</time>
      </trkpt>
      <trkpt lat="42.761145" lon="-0.224243">
        <ele>1987.807</ele>
        <time>2020-07-24T10:51:22Z</time>
      </trkpt>
      <trkpt lat="42.761121" lon="-0.224298">
        <ele>1987.008</ele>
        <time>2020-07-24T10:51:30Z</time>
      </trkpt>
      <trkpt lat="42.761090" lon="-0.224349">
        <ele>1985.758</ele>
        <time>2020-07-24T10:51:37Z</time>
      </trkpt>
      <trkpt lat="42.761052" lon="-0.224385">
        <ele>1985.956</ele>
        <time>2020-07-24T10:51:45Z</time>
      </trkpt>
      <trkpt lat="42.761025" lon="-0.224442">
        <ele>1985.120</ele>
        <time>2020-07-24T10:51:50Z</time>
      </trkpt>
      <trkpt lat="42.761003" lon="-0.224486">
        <ele>1986.623</ele>
        <time>2020-07-24T10:51:58Z</time>
      </trkpt>
      <trkpt lat="42.760984" lon="-0.224524">
        <ele>1984.617</ele>
        <time>2020-07-24T10:52:07Z</time>
      </trkpt>
      <trkpt lat="42.760950" lon="-0.224582">
        <ele>1984.160</ele>
        <time>2020-07-24T10:52:13Z</time>
      </trkpt>
      <trkpt lat="42.760916" lon="-0.224629">
        <ele>1983.560</ele>
        <time>2020-07-24T10:52:18Z</time>
      </trkpt>
      <trkpt lat="42.760877" lon="-0.224679">
        <ele>1981.029</ele>
        <time>2020-07-24T10:52:24Z</time>
      </trkpt>
      <trkpt lat="42.760844" lon="-0.224741">
        <ele>1981.555</ele>
        <time>2020-07-24T10:52:29Z</time>
      </trkpt>
      <trkpt lat="42.760809" lon="-0.224786">
        <ele>1978.107</ele>
        <time>2020-07-24T10:52:34Z</time>
      </trkpt>
      <trkpt lat="42.760760" lon="-0.224812">
        <ele>1980.817</ele>
        <time>2020-07-24T10:52:38Z</time>
      </trkpt>
      <trkpt lat="42.760725" lon="-0.224870">
        <ele>1980.308</ele>
        <time>2020-07-24T10:52:43Z</time>
      </trkpt>
      <trkpt lat="42.760703" lon="-0.224932">
        <ele>1979.890</ele>
        <time>2020-07-24T10:52:47Z</time>
      </trkpt>
      <trkpt lat="42.760668" lon="-0.224994">
        <ele>1979.078</ele>
        <time>2020-07-24T10:52:55Z</time>
      </trkpt>
      <trkpt lat="42.760709" lon="-0.225037">
        <ele>1977.622</ele>
        <time>2020-07-24T10:53:00Z</time>
      </trkpt>
      <trkpt lat="42.760757" lon="-0.225045">
        <ele>1976.055</ele>
        <time>2020-07-24T10:53:03Z</time>
      </trkpt>
      <trkpt lat="42.760804" lon="-0.225037">
        <ele>1975.829</ele>
        <time>2020-07-24T10:53:08Z</time>
      </trkpt>
      <trkpt lat="42.760853" lon="-0.225027">
        <ele>1976.482</ele>
        <time>2020-07-24T10:53:13Z</time>
      </trkpt>
      <trkpt lat="42.760898" lon="-0.225037">
        <ele>1973.042</ele>
        <time>2020-07-24T10:53:22Z</time>
      </trkpt>
      <trkpt lat="42.760858" lon="-0.225067">
        <ele>1973.181</ele>
        <time>2020-07-24T10:53:25Z</time>
      </trkpt>
      <trkpt lat="42.760809" lon="-0.225086">
        <ele>1972.247</ele>
        <time>2020-07-24T10:53:30Z</time>
      </trkpt>
      <trkpt lat="42.760765" lon="-0.225128">
        <ele>1971.129</ele>
        <time>2020-07-24T10:53:36Z</time>
      </trkpt>
      <trkpt lat="42.760810" lon="-0.225141">
        <ele>1969.821</ele>
        <time>2020-07-24T10:53:43Z</time>
      </trkpt>
      <trkpt lat="42.760862" lon="-0.225138">
        <ele>1969.008</ele>
        <time>2020-07-24T10:53:48Z</time>
      </trkpt>
      <trkpt lat="42.760914" lon="-0.225140">
        <ele>1968.139</ele>
        <time>2020-07-24T10:53:54Z</time>
      </trkpt>
      <trkpt lat="42.760871" lon="-0.225185">
        <ele>1967.477</ele>
        <time>2020-07-24T10:54:01Z</time>
      </trkpt>
      <trkpt lat="42.760817" lon="-0.225194">
        <ele>1967.321</ele>
        <time>2020-07-24T10:54:06Z</time>
      </trkpt>
      <trkpt lat="42.760771" lon="-0.225200">
        <ele>1964.854</ele>
        <time>2020-07-24T10:54:12Z</time>
      </trkpt>
      <trkpt lat="42.760813" lon="-0.225246">
        <ele>1964.698</ele>
        <time>2020-07-24T10:54:21Z</time>
      </trkpt>
      <trkpt lat="42.760858" lon="-0.225234">
        <ele>1963.981</ele>
        <time>2020-07-24T10:54:24Z</time>
      </trkpt>
      <trkpt lat="42.760907" lon="-0.225221">
        <ele>1961.181</ele>
        <time>2020-07-24T10:54:29Z</time>
      </trkpt>
      <trkpt lat="42.760959" lon="-0.225189">
        <ele>1961.040</ele>
        <time>2020-07-24T10:54:33Z</time>
      </trkpt>
      <trkpt lat="42.761004" lon="-0.225158">
        <ele>1961.793</ele>
        <time>2020-07-24T10:54:38Z</time>
      </trkpt>
      <trkpt lat="42.761054" lon="-0.225152">
        <ele>1960.265</ele>
        <time>2020-07-24T10:54:41Z</time>
      </trkpt>
      <trkpt lat="42.761108" lon="-0.225164">
        <ele>1961.221</ele>
        <time>2020-07-24T10:54:46Z</time>
      </trkpt>
      <trkpt lat="42.761156" lon="-0.225180">
        <ele>1959.808</ele>
        <time>2020-07-24T10:54:50Z</time>
      </trkpt>
      <trkpt lat="42.761209" lon="-0.225189">
        <ele>1960.374</ele>
        <time>2020-07-24T10:54:54Z</time>
      </trkpt>
      <trkpt lat="42.761257" lon="-0.225179">
        <ele>1959.862</ele>
        <time>2020-07-24T10:54:59Z</time>
      </trkpt>
      <trkpt lat="42.761304" lon="-0.225174">
        <ele>1958.766</ele>
        <time>2020-07-24T10:55:04Z</time>
      </trkpt>
      <trkpt lat="42.761359" lon="-0.225152">
        <ele>1958.839</ele>
        <time>2020-07-24T10:55:09Z</time>
      </trkpt>
      <trkpt lat="42.761398" lon="-0.225131">
        <ele>1958.863</ele>
        <time>2020-07-24T10:55:14Z</time>
      </trkpt>
      <trkpt lat="42.761450" lon="-0.225100">
        <ele>1956.566</ele>
        <time>2020-07-24T10:55:20Z</time>
      </trkpt>
      <trkpt lat="42.761407" lon="-0.225164">
        <ele>1954.346</ele>
        <time>2020-07-24T10:55:33Z</time>
      </trkpt>
      <trkpt lat="42.761367" lon="-0.225204">
        <ele>1953.385</ele>
        <time>2020-07-24T10:55:38Z</time>
      </trkpt>
      <trkpt lat="42.761322" lon="-0.225228">
        <ele>1951.597</ele>
        <time>2020-07-24T10:55:44Z</time>
      </trkpt>
      <trkpt lat="42.761285" lon="-0.225278">
        <ele>1950.523</ele>
        <time>2020-07-24T10:55:53Z</time>
      </trkpt>
      <trkpt lat="42.761328" lon="-0.225319">
        <ele>1950.025</ele>
        <time>2020-07-24T10:55:59Z</time>
      </trkpt>
      <trkpt lat="42.761382" lon="-0.225309">
        <ele>1948.808</ele>
        <time>2020-07-24T10:56:03Z</time>
      </trkpt>
      <trkpt lat="42.761434" lon="-0.225280">
        <ele>1949.594</ele>
        <time>2020-07-24T10:56:08Z</time>
      </trkpt>
      <trkpt lat="42.761508" lon="-0.225256">
        <ele>1948.032</ele>
        <time>2020-07-24T10:56:16Z</time>
      </trkpt>
      <trkpt lat="42.761474" lon="-0.225315">
        <ele>1945.586</ele>
        <time>2020-07-24T10:56:23Z</time>
      </trkpt>
      <trkpt lat="42.761427" lon="-0.225355">
        <ele>1944.629</ele>
        <time>2020-07-24T10:56:29Z</time>
      </trkpt>
      <trkpt lat="42.761384" lon="-0.225391">
        <ele>1943.763</ele>
        <time>2020-07-24T10:56:34Z</time>
      </trkpt>
      <trkpt lat="42.761340" lon="-0.225414">
        <ele>1944.136</ele>
        <time>2020-07-24T10:56:39Z</time>
      </trkpt>
      <trkpt lat="42.761291" lon="-0.225440">
        <ele>1943.116</ele>
        <time>2020-07-24T10:56:44Z</time>
      </trkpt>
      <trkpt lat="42.761330" lon="-0.225463">
        <ele>1939.255</ele>
        <time>2020-07-24T10:56:53Z</time>
      </trkpt>
      <trkpt lat="42.761384" lon="-0.225447">
        <ele>1940.647</ele>
        <time>2020-07-24T10:56:57Z</time>
      </trkpt>
      <trkpt lat="42.761432" lon="-0.225440">
        <ele>1939.029</ele>
        <time>2020-07-24T10:57:02Z</time>
      </trkpt>
      <trkpt lat="42.761484" lon="-0.225419">
        <ele>1938.721</ele>
        <time>2020-07-24T10:57:07Z</time>
      </trkpt>
      <trkpt lat="42.761530" lon="-0.225396">
        <ele>1938.608</ele>
        <time>2020-07-24T10:57:11Z</time>
      </trkpt>
      <trkpt lat="42.761620" lon="-0.225371">
        <ele>1938.129</ele>
        <time>2020-07-24T10:57:16Z</time>
      </trkpt>
      <trkpt lat="42.761591" lon="-0.225426">
        <ele>1936.337</ele>
        <time>2020-07-24T10:57:22Z</time>
      </trkpt>
      <trkpt lat="42.761550" lon="-0.225485">
        <ele>1936.461</ele>
        <time>2020-07-24T10:57:27Z</time>
      </trkpt>
      <trkpt lat="42.761511" lon="-0.225516">
        <ele>1934.744</ele>
        <time>2020-07-24T10:57:31Z</time>
      </trkpt>
      <trkpt lat="42.761460" lon="-0.225534">
        <ele>1935.468</ele>
        <time>2020-07-24T10:57:35Z</time>
      </trkpt>
      <trkpt lat="42.761399" lon="-0.225555">
        <ele>1933.411</ele>
        <time>2020-07-24T10:57:40Z</time>
      </trkpt>
      <trkpt lat="42.761347" lon="-0.225577">
        <ele>1932.071</ele>
        <time>2020-07-24T10:57:44Z</time>
      </trkpt>
      <trkpt lat="42.761300" lon="-0.225595">
        <ele>1932.760</ele>
        <time>2020-07-24T10:57:49Z</time>
      </trkpt>
      <trkpt lat="42.761339" lon="-0.225631">
        <ele>1929.272</ele>
        <time>2020-07-24T10:57:55Z</time>
      </trkpt>
      <trkpt lat="42.761387" lon="-0.225622">
        <ele>1929.913</ele>
        <time>2020-07-24T10:58:00Z</time>
      </trkpt>
      <trkpt lat="42.761448" lon="-0.225595">
        <ele>1929.814</ele>
        <time>2020-07-24T10:58:05Z</time>
      </trkpt>
      <trkpt lat="42.761503" lon="-0.225571">
        <ele>1929.608</ele>
        <time>2020-07-24T10:58:10Z</time>
      </trkpt>
      <trkpt lat="42.761551" lon="-0.225550">
        <ele>1928.312</ele>
        <time>2020-07-24T10:58:14Z</time>
      </trkpt>
      <trkpt lat="42.761598" lon="-0.225525">
        <ele>1926.250</ele>
        <time>2020-07-24T10:58:19Z</time>
      </trkpt>
      <trkpt lat="42.761671" lon="-0.225488">
        <ele>1927.474</ele>
        <time>2020-07-24T10:58:23Z</time>
      </trkpt>
      <trkpt lat="42.761642" lon="-0.225557">
        <ele>1923.767</ele>
        <time>2020-07-24T10:58:30Z</time>
      </trkpt>
      <trkpt lat="42.761604" lon="-0.225604">
        <ele>1925.881</ele>
        <time>2020-07-24T10:58:34Z</time>
      </trkpt>
      <trkpt lat="42.761560" lon="-0.225651">
        <ele>1923.274</ele>
        <time>2020-07-24T10:58:39Z</time>
      </trkpt>
      <trkpt lat="42.761508" lon="-0.225671">
        <ele>1922.944</ele>
        <time>2020-07-24T10:58:45Z</time>
      </trkpt>
      <trkpt lat="42.761469" lon="-0.225710">
        <ele>1922.583</ele>
        <time>2020-07-24T10:58:49Z</time>
      </trkpt>
      <trkpt lat="42.761438" lon="-0.225763">
        <ele>1921.419</ele>
        <time>2020-07-24T10:58:55Z</time>
      </trkpt>
      <trkpt lat="42.761406" lon="-0.225803">
        <ele>1920.209</ele>
        <time>2020-07-24T10:59:01Z</time>
      </trkpt>
      <trkpt lat="42.761370" lon="-0.225841">
        <ele>1920.019</ele>
        <time>2020-07-24T10:59:06Z</time>
      </trkpt>
      <trkpt lat="42.761334" lon="-0.225886">
        <ele>1919.108</ele>
        <time>2020-07-24T10:59:10Z</time>
      </trkpt>
      <trkpt lat="42.761376" lon="-0.225910">
        <ele>1918.536</ele>
        <time>2020-07-24T10:59:33Z</time>
      </trkpt>
      <trkpt lat="42.761427" lon="-0.225880">
        <ele>1917.394</ele>
        <time>2020-07-24T10:59:39Z</time>
      </trkpt>
      <trkpt lat="42.761468" lon="-0.225839">
        <ele>1915.978</ele>
        <time>2020-07-24T10:59:44Z</time>
      </trkpt>
      <trkpt lat="42.761523" lon="-0.225806">
        <ele>1915.041</ele>
        <time>2020-07-24T10:59:49Z</time>
      </trkpt>
      <trkpt lat="42.761574" lon="-0.225786">
        <ele>1916.385</ele>
        <time>2020-07-24T10:59:54Z</time>
      </trkpt>
      <trkpt lat="42.761622" lon="-0.225760">
        <ele>1914.928</ele>
        <time>2020-07-24T10:59:58Z</time>
      </trkpt>
      <trkpt lat="42.761662" lon="-0.225732">
        <ele>1915.798</ele>
        <time>2020-07-24T11:00:02Z</time>
      </trkpt>
      <trkpt lat="42.761707" lon="-0.225689">
        <ele>1912.297</ele>
        <time>2020-07-24T11:00:07Z</time>
      </trkpt>
      <trkpt lat="42.761745" lon="-0.225644">
        <ele>1914.241</ele>
        <time>2020-07-24T11:00:12Z</time>
      </trkpt>
      <trkpt lat="42.761822" lon="-0.225595">
        <ele>1913.281</ele>
        <time>2020-07-24T11:00:16Z</time>
      </trkpt>
      <trkpt lat="42.761813" lon="-0.225671">
        <ele>1910.609</ele>
        <time>2020-07-24T11:00:23Z</time>
      </trkpt>
      <trkpt lat="42.761788" lon="-0.225728">
        <ele>1910.108</ele>
        <time>2020-07-24T11:00:27Z</time>
      </trkpt>
      <trkpt lat="42.761756" lon="-0.225798">
        <ele>1910.369</ele>
        <time>2020-07-24T11:00:32Z</time>
      </trkpt>
      <trkpt lat="42.761726" lon="-0.225862">
        <ele>1907.837</ele>
        <time>2020-07-24T11:00:36Z</time>
      </trkpt>
      <trkpt lat="42.761685" lon="-0.225911">
        <ele>1909.441</ele>
        <time>2020-07-24T11:00:41Z</time>
      </trkpt>
      <trkpt lat="42.761644" lon="-0.225947">
        <ele>1908.064</ele>
        <time>2020-07-24T11:00:45Z</time>
      </trkpt>
      <trkpt lat="42.761599" lon="-0.225985">
        <ele>1906.418</ele>
        <time>2020-07-24T11:00:49Z</time>
      </trkpt>
      <trkpt lat="42.761554" lon="-0.226031">
        <ele>1905.931</ele>
        <time>2020-07-24T11:00:53Z</time>
      </trkpt>
      <trkpt lat="42.761510" lon="-0.226066">
        <ele>1906.441</ele>
        <time>2020-07-24T11:00:57Z</time>
      </trkpt>
      <trkpt lat="42.761469" lon="-0.226109">
        <ele>1904.670</ele>
        <time>2020-07-24T11:01:02Z</time>
      </trkpt>
      <trkpt lat="42.761422" lon="-0.226142">
        <ele>1899.892</ele>
        <time>2020-07-24T11:01:07Z</time>
      </trkpt>
      <trkpt lat="42.761382" lon="-0.226181">
        <ele>1901.973</ele>
        <time>2020-07-24T11:01:11Z</time>
      </trkpt>
      <trkpt lat="42.761343" lon="-0.226230">
        <ele>1900.020</ele>
        <time>2020-07-24T11:01:17Z</time>
      </trkpt>
      <trkpt lat="42.761392" lon="-0.226239">
        <ele>1900.608</ele>
        <time>2020-07-24T11:01:21Z</time>
      </trkpt>
      <trkpt lat="42.761436" lon="-0.226222">
        <ele>1899.934</ele>
        <time>2020-07-24T11:01:25Z</time>
      </trkpt>
      <trkpt lat="42.761486" lon="-0.226196">
        <ele>1897.272</ele>
        <time>2020-07-24T11:01:31Z</time>
      </trkpt>
      <trkpt lat="42.761530" lon="-0.226180">
        <ele>1896.536</ele>
        <time>2020-07-24T11:01:35Z</time>
      </trkpt>
      <trkpt lat="42.761574" lon="-0.226158">
        <ele>1897.929</ele>
        <time>2020-07-24T11:01:39Z</time>
      </trkpt>
      <trkpt lat="42.761641" lon="-0.226145">
        <ele>1896.443</ele>
        <time>2020-07-24T11:01:43Z</time>
      </trkpt>
      <trkpt lat="42.761694" lon="-0.226121">
        <ele>1896.136</ele>
        <time>2020-07-24T11:01:47Z</time>
      </trkpt>
      <trkpt lat="42.761754" lon="-0.226086">
        <ele>1894.346</ele>
        <time>2020-07-24T11:01:52Z</time>
      </trkpt>
      <trkpt lat="42.761801" lon="-0.226066">
        <ele>1894.455</ele>
        <time>2020-07-24T11:01:55Z</time>
      </trkpt>
      <trkpt lat="42.761893" lon="-0.226028">
        <ele>1892.397</ele>
        <time>2020-07-24T11:01:59Z</time>
      </trkpt>
      <trkpt lat="42.761857" lon="-0.226102">
        <ele>1893.223</ele>
        <time>2020-07-24T11:02:07Z</time>
      </trkpt>
      <trkpt lat="42.761826" lon="-0.226148">
        <ele>1890.725</ele>
        <time>2020-07-24T11:02:11Z</time>
      </trkpt>
      <trkpt lat="42.761794" lon="-0.226200">
        <ele>1890.708</ele>
        <time>2020-07-24T11:02:16Z</time>
      </trkpt>
      <trkpt lat="42.761750" lon="-0.226254">
        <ele>1889.134</ele>
        <time>2020-07-24T11:02:21Z</time>
      </trkpt>
      <trkpt lat="42.761723" lon="-0.226311">
        <ele>1888.682</ele>
        <time>2020-07-24T11:02:27Z</time>
      </trkpt>
      <trkpt lat="42.761685" lon="-0.226351">
        <ele>1887.476</ele>
        <time>2020-07-24T11:02:32Z</time>
      </trkpt>
      <trkpt lat="42.761648" lon="-0.226404">
        <ele>1886.959</ele>
        <time>2020-07-24T11:02:36Z</time>
      </trkpt>
      <trkpt lat="42.761606" lon="-0.226451">
        <ele>1884.193</ele>
        <time>2020-07-24T11:02:40Z</time>
      </trkpt>
      <trkpt lat="42.761558" lon="-0.226489">
        <ele>1884.296</ele>
        <time>2020-07-24T11:02:44Z</time>
      </trkpt>
      <trkpt lat="42.761510" lon="-0.226528">
        <ele>1885.386</ele>
        <time>2020-07-24T11:02:48Z</time>
      </trkpt>
      <trkpt lat="42.761465" lon="-0.226562">
        <ele>1880.915</ele>
        <time>2020-07-24T11:02:52Z</time>
      </trkpt>
      <trkpt lat="42.761418" lon="-0.226596">
        <ele>1882.822</ele>
        <time>2020-07-24T11:02:57Z</time>
      </trkpt>
      <trkpt lat="42.761382" lon="-0.226635">
        <ele>1881.562</ele>
        <time>2020-07-24T11:03:01Z</time>
      </trkpt>
      <trkpt lat="42.761326" lon="-0.226683">
        <ele>1879.108</ele>
        <time>2020-07-24T11:03:06Z</time>
      </trkpt>
      <trkpt lat="42.761288" lon="-0.226729">
        <ele>1879.508</ele>
        <time>2020-07-24T11:03:12Z</time>
      </trkpt>
      <trkpt lat="42.761247" lon="-0.226766">
        <ele>1880.367</ele>
        <time>2020-07-24T11:03:16Z</time>
      </trkpt>
      <trkpt lat="42.761215" lon="-0.226819">
        <ele>1878.865</ele>
        <time>2020-07-24T11:03:21Z</time>
      </trkpt>
      <trkpt lat="42.761273" lon="-0.226816">
        <ele>1877.919</ele>
        <time>2020-07-24T11:03:28Z</time>
      </trkpt>
      <trkpt lat="42.761329" lon="-0.226801">
        <ele>1875.512</ele>
        <time>2020-07-24T11:03:32Z</time>
      </trkpt>
      <trkpt lat="42.761379" lon="-0.226776">
        <ele>1875.626</ele>
        <time>2020-07-24T11:03:37Z</time>
      </trkpt>
      <trkpt lat="42.761428" lon="-0.226772">
        <ele>1873.839</ele>
        <time>2020-07-24T11:03:42Z</time>
      </trkpt>
      <trkpt lat="42.761478" lon="-0.226766">
        <ele>1875.139</ele>
        <time>2020-07-24T11:03:46Z</time>
      </trkpt>
      <trkpt lat="42.761544" lon="-0.226766">
        <ele>1874.768</ele>
        <time>2020-07-24T11:03:51Z</time>
      </trkpt>
      <trkpt lat="42.761606" lon="-0.226745">
        <ele>1871.871</ele>
        <time>2020-07-24T11:03:56Z</time>
      </trkpt>
      <trkpt lat="42.761654" lon="-0.226736">
        <ele>1873.341</ele>
        <time>2020-07-24T11:03:59Z</time>
      </trkpt>
      <trkpt lat="42.761713" lon="-0.226726">
        <ele>1872.715</ele>
        <time>2020-07-24T11:04:04Z</time>
      </trkpt>
      <trkpt lat="42.761762" lon="-0.226707">
        <ele>1872.508</ele>
        <time>2020-07-24T11:04:09Z</time>
      </trkpt>
      <trkpt lat="42.761807" lon="-0.226682">
        <ele>1870.232</ele>
        <time>2020-07-24T11:04:13Z</time>
      </trkpt>
      <trkpt lat="42.761854" lon="-0.226680">
        <ele>1870.180</ele>
        <time>2020-07-24T11:04:18Z</time>
      </trkpt>
      <trkpt lat="42.761831" lon="-0.226744">
        <ele>1869.324</ele>
        <time>2020-07-24T11:04:24Z</time>
      </trkpt>
      <trkpt lat="42.761808" lon="-0.226808">
        <ele>1866.667</ele>
        <time>2020-07-24T11:04:29Z</time>
      </trkpt>
      <trkpt lat="42.761781" lon="-0.226868">
        <ele>1865.991</ele>
        <time>2020-07-24T11:04:34Z</time>
      </trkpt>
      <trkpt lat="42.761753" lon="-0.226917">
        <ele>1864.974</ele>
        <time>2020-07-24T11:04:39Z</time>
      </trkpt>
      <trkpt lat="42.761722" lon="-0.226966">
        <ele>1864.874</ele>
        <time>2020-07-24T11:04:44Z</time>
      </trkpt>
      <trkpt lat="42.761692" lon="-0.227027">
        <ele>1862.633</ele>
        <time>2020-07-24T11:04:51Z</time>
      </trkpt>
      <trkpt lat="42.761644" lon="-0.227074">
        <ele>1862.354</ele>
        <time>2020-07-24T11:04:57Z</time>
      </trkpt>
      <trkpt lat="42.761594" lon="-0.227123">
        <ele>1859.856</ele>
        <time>2020-07-24T11:05:04Z</time>
      </trkpt>
      <trkpt lat="42.761554" lon="-0.227154">
        <ele>1857.511</ele>
        <time>2020-07-24T11:05:08Z</time>
      </trkpt>
      <trkpt lat="42.761507" lon="-0.227178">
        <ele>1858.208</ele>
        <time>2020-07-24T11:05:12Z</time>
      </trkpt>
      <trkpt lat="42.761466" lon="-0.227212">
        <ele>1858.380</ele>
        <time>2020-07-24T11:05:17Z</time>
      </trkpt>
      <trkpt lat="42.761414" lon="-0.227232">
        <ele>1855.468</ele>
        <time>2020-07-24T11:05:24Z</time>
      </trkpt>
      <trkpt lat="42.761362" lon="-0.227258">
        <ele>1855.352</ele>
        <time>2020-07-24T11:05:31Z</time>
      </trkpt>
      <trkpt lat="42.761320" lon="-0.227283">
        <ele>1855.875</ele>
        <time>2020-07-24T11:05:36Z</time>
      </trkpt>
      <trkpt lat="42.761268" lon="-0.227307">
        <ele>1853.389</ele>
        <time>2020-07-24T11:05:40Z</time>
      </trkpt>
      <trkpt lat="42.761215" lon="-0.227331">
        <ele>1853.572</ele>
        <time>2020-07-24T11:05:45Z</time>
      </trkpt>
      <trkpt lat="42.761163" lon="-0.227354">
        <ele>1851.562</ele>
        <time>2020-07-24T11:05:50Z</time>
      </trkpt>
      <trkpt lat="42.761117" lon="-0.227381">
        <ele>1851.481</ele>
        <time>2020-07-24T11:05:56Z</time>
      </trkpt>
      <trkpt lat="42.761075" lon="-0.227422">
        <ele>1849.763</ele>
        <time>2020-07-24T11:06:02Z</time>
      </trkpt>
      <trkpt lat="42.761042" lon="-0.227475">
        <ele>1848.444</ele>
        <time>2020-07-24T11:06:07Z</time>
      </trkpt>
      <trkpt lat="42.761021" lon="-0.227539">
        <ele>1845.818</ele>
        <time>2020-07-24T11:06:12Z</time>
      </trkpt>
      <trkpt lat="42.760992" lon="-0.227602">
        <ele>1845.508</ele>
        <time>2020-07-24T11:06:18Z</time>
      </trkpt>
      <trkpt lat="42.760967" lon="-0.227658">
        <ele>1846.121</ele>
        <time>2020-07-24T11:06:23Z</time>
      </trkpt>
      <trkpt lat="42.760938" lon="-0.227718">
        <ele>1844.579</ele>
        <time>2020-07-24T11:06:28Z</time>
      </trkpt>
      <trkpt lat="42.760903" lon="-0.227768">
        <ele>1843.213</ele>
        <time>2020-07-24T11:06:33Z</time>
      </trkpt>
      <trkpt lat="42.760862" lon="-0.227798">
        <ele>1843.066</ele>
        <time>2020-07-24T11:06:36Z</time>
      </trkpt>
      <trkpt lat="42.760826" lon="-0.227839">
        <ele>1843.210</ele>
        <time>2020-07-24T11:06:40Z</time>
      </trkpt>
      <trkpt lat="42.760787" lon="-0.227883">
        <ele>1842.543</ele>
        <time>2020-07-24T11:06:44Z</time>
      </trkpt>
      <trkpt lat="42.760748" lon="-0.227930">
        <ele>1840.763</ele>
        <time>2020-07-24T11:06:49Z</time>
      </trkpt>
      <trkpt lat="42.760790" lon="-0.227948">
        <ele>1838.922</ele>
        <time>2020-07-24T11:07:00Z</time>
      </trkpt>
      <trkpt lat="42.760836" lon="-0.227935">
        <ele>1837.938</ele>
        <time>2020-07-24T11:07:05Z</time>
      </trkpt>
      <trkpt lat="42.760886" lon="-0.227898">
        <ele>1837.370</ele>
        <time>2020-07-24T11:07:10Z</time>
      </trkpt>
      <trkpt lat="42.760931" lon="-0.227881">
        <ele>1836.617</ele>
        <time>2020-07-24T11:07:14Z</time>
      </trkpt>
      <trkpt lat="42.760998" lon="-0.227868">
        <ele>1835.708</ele>
        <time>2020-07-24T11:07:20Z</time>
      </trkpt>
      <trkpt lat="42.761049" lon="-0.227850">
        <ele>1835.758</ele>
        <time>2020-07-24T11:07:24Z</time>
      </trkpt>
      <trkpt lat="42.761091" lon="-0.227817">
        <ele>1833.096</ele>
        <time>2020-07-24T11:07:29Z</time>
      </trkpt>
      <trkpt lat="42.761136" lon="-0.227767">
        <ele>1834.550</ele>
        <time>2020-07-24T11:07:34Z</time>
      </trkpt>
      <trkpt lat="42.761181" lon="-0.227750">
        <ele>1831.463</ele>
        <time>2020-07-24T11:07:38Z</time>
      </trkpt>
      <trkpt lat="42.761215" lon="-0.227703">
        <ele>1832.887</ele>
        <time>2020-07-24T11:07:44Z</time>
      </trkpt>
      <trkpt lat="42.761261" lon="-0.227666">
        <ele>1831.830</ele>
        <time>2020-07-24T11:07:51Z</time>
      </trkpt>
      <trkpt lat="42.761307" lon="-0.227640">
        <ele>1832.860</ele>
        <time>2020-07-24T11:07:55Z</time>
      </trkpt>
      <trkpt lat="42.761364" lon="-0.227637">
        <ele>1830.979</ele>
        <time>2020-07-24T11:08:00Z</time>
      </trkpt>
      <trkpt lat="42.761418" lon="-0.227647">
        <ele>1829.972</ele>
        <time>2020-07-24T11:08:05Z</time>
      </trkpt>
      <trkpt lat="42.761474" lon="-0.227659">
        <ele>1829.613</ele>
        <time>2020-07-24T11:08:10Z</time>
      </trkpt>
      <trkpt lat="42.761523" lon="-0.227660">
        <ele>1827.914</ele>
        <time>2020-07-24T11:08:15Z</time>
      </trkpt>
      <trkpt lat="42.761575" lon="-0.227651">
        <ele>1827.008</ele>
        <time>2020-07-24T11:08:19Z</time>
      </trkpt>
      <trkpt lat="42.761640" lon="-0.227634">
        <ele>1826.672</ele>
        <time>2020-07-24T11:08:25Z</time>
      </trkpt>
      <trkpt lat="42.761691" lon="-0.227630">
        <ele>1827.370</ele>
        <time>2020-07-24T11:08:30Z</time>
      </trkpt>
      <trkpt lat="42.761748" lon="-0.227630">
        <ele>1825.634</ele>
        <time>2020-07-24T11:08:34Z</time>
      </trkpt>
      <trkpt lat="42.761799" lon="-0.227637">
        <ele>1825.417</ele>
        <time>2020-07-24T11:08:38Z</time>
      </trkpt>
      <trkpt lat="42.761849" lon="-0.227625">
        <ele>1823.911</ele>
        <time>2020-07-24T11:08:44Z</time>
      </trkpt>
      <trkpt lat="42.761904" lon="-0.227619">
        <ele>1824.194</ele>
        <time>2020-07-24T11:08:50Z</time>
      </trkpt>
      <trkpt lat="42.761952" lon="-0.227602">
        <ele>1822.544</ele>
        <time>2020-07-24T11:08:54Z</time>
      </trkpt>
      <trkpt lat="42.761993" lon="-0.227568">
        <ele>1821.213</ele>
        <time>2020-07-24T11:09:00Z</time>
      </trkpt>
      <trkpt lat="42.762040" lon="-0.227575">
        <ele>1820.028</ele>
        <time>2020-07-24T11:09:05Z</time>
      </trkpt>
      <trkpt lat="42.762053" lon="-0.227636">
        <ele>1818.489</ele>
        <time>2020-07-24T11:09:14Z</time>
      </trkpt>
      <trkpt lat="42.762028" lon="-0.227696">
        <ele>1817.917</ele>
        <time>2020-07-24T11:09:19Z</time>
      </trkpt>
      <trkpt lat="42.762006" lon="-0.227757">
        <ele>1812.408</ele>
        <time>2020-07-24T11:09:25Z</time>
      </trkpt>
      <trkpt lat="42.761975" lon="-0.227806">
        <ele>1813.627</ele>
        <time>2020-07-24T11:09:31Z</time>
      </trkpt>
      <trkpt lat="42.761926" lon="-0.227848">
        <ele>1814.065</ele>
        <time>2020-07-24T11:09:36Z</time>
      </trkpt>
      <trkpt lat="42.761877" lon="-0.227863">
        <ele>1812.959</ele>
        <time>2020-07-24T11:09:40Z</time>
      </trkpt>
      <trkpt lat="42.761831" lon="-0.227872">
        <ele>1813.162</ele>
        <time>2020-07-24T11:09:44Z</time>
      </trkpt>
      <trkpt lat="42.761786" lon="-0.227887">
        <ele>1810.246</ele>
        <time>2020-07-24T11:09:49Z</time>
      </trkpt>
      <trkpt lat="42.761744" lon="-0.227913">
        <ele>1808.699</ele>
        <time>2020-07-24T11:09:54Z</time>
      </trkpt>
      <trkpt lat="42.761713" lon="-0.227964">
        <ele>1806.729</ele>
        <time>2020-07-24T11:10:00Z</time>
      </trkpt>
      <trkpt lat="42.761684" lon="-0.228020">
        <ele>1806.988</ele>
        <time>2020-07-24T11:10:05Z</time>
      </trkpt>
      <trkpt lat="42.761656" lon="-0.228090">
        <ele>1806.444</ele>
        <time>2020-07-24T11:10:12Z</time>
      </trkpt>
      <trkpt lat="42.761621" lon="-0.228141">
        <ele>1806.205</ele>
        <time>2020-07-24T11:10:17Z</time>
      </trkpt>
      <trkpt lat="42.761594" lon="-0.228190">
        <ele>1801.215</ele>
        <time>2020-07-24T11:10:22Z</time>
      </trkpt>
      <trkpt lat="42.761563" lon="-0.228254">
        <ele>1803.608</ele>
        <time>2020-07-24T11:10:28Z</time>
      </trkpt>
      <trkpt lat="42.761537" lon="-0.228316">
        <ele>1802.059</ele>
        <time>2020-07-24T11:10:33Z</time>
      </trkpt>
      <trkpt lat="42.761513" lon="-0.228369">
        <ele>1802.027</ele>
        <time>2020-07-24T11:10:37Z</time>
      </trkpt>
      <trkpt lat="42.761489" lon="-0.228423">
        <ele>1802.121</ele>
        <time>2020-07-24T11:10:41Z</time>
      </trkpt>
      <trkpt lat="42.761464" lon="-0.228484">
        <ele>1800.464</ele>
        <time>2020-07-24T11:10:46Z</time>
      </trkpt>
      <trkpt lat="42.761448" lon="-0.228564">
        <ele>1799.998</ele>
        <time>2020-07-24T11:10:52Z</time>
      </trkpt>
      <trkpt lat="42.761432" lon="-0.228628">
        <ele>1796.621</ele>
        <time>2020-07-24T11:10:57Z</time>
      </trkpt>
      <trkpt lat="42.761440" lon="-0.228691">
        <ele>1797.471</ele>
        <time>2020-07-24T11:11:02Z</time>
      </trkpt>
      <trkpt lat="42.761494" lon="-0.228649">
        <ele>1797.880</ele>
        <time>2020-07-24T11:11:09Z</time>
      </trkpt>
      <trkpt lat="42.761538" lon="-0.228637">
        <ele>1795.612</ele>
        <time>2020-07-24T11:11:14Z</time>
      </trkpt>
      <trkpt lat="42.761589" lon="-0.228624">
        <ele>1792.732</ele>
        <time>2020-07-24T11:11:19Z</time>
      </trkpt>
      <trkpt lat="42.761635" lon="-0.228592">
        <ele>1791.905</ele>
        <time>2020-07-24T11:11:24Z</time>
      </trkpt>
      <trkpt lat="42.761679" lon="-0.228573">
        <ele>1790.708</ele>
        <time>2020-07-24T11:11:29Z</time>
      </trkpt>
      <trkpt lat="42.761725" lon="-0.228569">
        <ele>1790.976</ele>
        <time>2020-07-24T11:11:34Z</time>
      </trkpt>
      <trkpt lat="42.761774" lon="-0.228566">
        <ele>1789.954</ele>
        <time>2020-07-24T11:11:39Z</time>
      </trkpt>
      <trkpt lat="42.761817" lon="-0.228599">
        <ele>1786.898</ele>
        <time>2020-07-24T11:11:44Z</time>
      </trkpt>
      <trkpt lat="42.761802" lon="-0.228666">
        <ele>1787.741</ele>
        <time>2020-07-24T11:11:49Z</time>
      </trkpt>
      <trkpt lat="42.761772" lon="-0.228715">
        <ele>1785.655</ele>
        <time>2020-07-24T11:11:53Z</time>
      </trkpt>
      <trkpt lat="42.761731" lon="-0.228773">
        <ele>1784.478</ele>
        <time>2020-07-24T11:12:00Z</time>
      </trkpt>
      <trkpt lat="42.761692" lon="-0.228809">
        <ele>1783.838</ele>
        <time>2020-07-24T11:12:05Z</time>
      </trkpt>
      <trkpt lat="42.761651" lon="-0.228846">
        <ele>1783.377</ele>
        <time>2020-07-24T11:12:10Z</time>
      </trkpt>
      <trkpt lat="42.761608" lon="-0.228880">
        <ele>1781.992</ele>
        <time>2020-07-24T11:12:16Z</time>
      </trkpt>
      <trkpt lat="42.761567" lon="-0.228921">
        <ele>1779.273</ele>
        <time>2020-07-24T11:12:21Z</time>
      </trkpt>
      <trkpt lat="42.761526" lon="-0.228956">
        <ele>1780.020</ele>
        <time>2020-07-24T11:12:27Z</time>
      </trkpt>
      <trkpt lat="42.761496" lon="-0.229007">
        <ele>1780.008</ele>
        <time>2020-07-24T11:12:32Z</time>
      </trkpt>
      <trkpt lat="42.761465" lon="-0.229060">
        <ele>1779.644</ele>
        <time>2020-07-24T11:12:38Z</time>
      </trkpt>
      <trkpt lat="42.761441" lon="-0.229117">
        <ele>1776.612</ele>
        <time>2020-07-24T11:13:01Z</time>
      </trkpt>
      <trkpt lat="42.761413" lon="-0.229159">
        <ele>1777.796</ele>
        <time>2020-07-24T11:13:08Z</time>
      </trkpt>
      <trkpt lat="42.761368" lon="-0.229201">
        <ele>1776.689</ele>
        <time>2020-07-24T11:13:14Z</time>
      </trkpt>
      <trkpt lat="42.761326" lon="-0.229239">
        <ele>1775.853</ele>
        <time>2020-07-24T11:13:19Z</time>
      </trkpt>
      <trkpt lat="42.761289" lon="-0.229296">
        <ele>1774.756</ele>
        <time>2020-07-24T11:13:26Z</time>
      </trkpt>
      <trkpt lat="42.761259" lon="-0.229358">
        <ele>1773.656</ele>
        <time>2020-07-24T11:13:31Z</time>
      </trkpt>
      <trkpt lat="42.761240" lon="-0.229415">
        <ele>1772.435</ele>
        <time>2020-07-24T11:13:38Z</time>
      </trkpt>
      <trkpt lat="42.761222" lon="-0.229471">
        <ele>1771.537</ele>
        <time>2020-07-24T11:13:46Z</time>
      </trkpt>
      <trkpt lat="42.761198" lon="-0.229528">
        <ele>1770.249</ele>
        <time>2020-07-24T11:13:52Z</time>
      </trkpt>
      <trkpt lat="42.761174" lon="-0.229591">
        <ele>1768.913</ele>
        <time>2020-07-24T11:13:58Z</time>
      </trkpt>
      <trkpt lat="42.761161" lon="-0.229673">
        <ele>1767.908</ele>
        <time>2020-07-24T11:14:03Z</time>
      </trkpt>
      <trkpt lat="42.761144" lon="-0.229743">
        <ele>1768.348</ele>
        <time>2020-07-24T11:14:09Z</time>
      </trkpt>
      <trkpt lat="42.761144" lon="-0.229815">
        <ele>1767.766</ele>
        <time>2020-07-24T11:14:15Z</time>
      </trkpt>
      <trkpt lat="42.761190" lon="-0.229778">
        <ele>1765.150</ele>
        <time>2020-07-24T11:14:23Z</time>
      </trkpt>
      <trkpt lat="42.761231" lon="-0.229749">
        <ele>1764.053</ele>
        <time>2020-07-24T11:14:29Z</time>
      </trkpt>
      <trkpt lat="42.761269" lon="-0.229711">
        <ele>1763.927</ele>
        <time>2020-07-24T11:14:34Z</time>
      </trkpt>
      <trkpt lat="42.761314" lon="-0.229680">
        <ele>1762.060</ele>
        <time>2020-07-24T11:14:39Z</time>
      </trkpt>
      <trkpt lat="42.761366" lon="-0.229650">
        <ele>1762.310</ele>
        <time>2020-07-24T11:14:43Z</time>
      </trkpt>
      <trkpt lat="42.761418" lon="-0.229625">
        <ele>1761.489</ele>
        <time>2020-07-24T11:14:49Z</time>
      </trkpt>
      <trkpt lat="42.761459" lon="-0.229596">
        <ele>1759.455</ele>
        <time>2020-07-24T11:14:56Z</time>
      </trkpt>
      <trkpt lat="42.761506" lon="-0.229568">
        <ele>1759.207</ele>
        <time>2020-07-24T11:15:00Z</time>
      </trkpt>
      <trkpt lat="42.761557" lon="-0.229547">
        <ele>1758.617</ele>
        <time>2020-07-24T11:15:05Z</time>
      </trkpt>
      <trkpt lat="42.761612" lon="-0.229522">
        <ele>1760.008</ele>
        <time>2020-07-24T11:15:09Z</time>
      </trkpt>
      <trkpt lat="42.761658" lon="-0.229507">
        <ele>1759.490</ele>
        <time>2020-07-24T11:15:13Z</time>
      </trkpt>
      <trkpt lat="42.761713" lon="-0.229501">
        <ele>1758.158</ele>
        <time>2020-07-24T11:15:18Z</time>
      </trkpt>
      <trkpt lat="42.761765" lon="-0.229515">
        <ele>1757.162</ele>
        <time>2020-07-24T11:15:25Z</time>
      </trkpt>
      <trkpt lat="42.761814" lon="-0.229521">
        <ele>1755.895</ele>
        <time>2020-07-24T11:15:31Z</time>
      </trkpt>
      <trkpt lat="42.761857" lon="-0.229551">
        <ele>1755.279</ele>
        <time>2020-07-24T11:15:37Z</time>
      </trkpt>
      <trkpt lat="42.761905" lon="-0.229561">
        <ele>1753.052</ele>
        <time>2020-07-24T11:15:43Z</time>
      </trkpt>
      <trkpt lat="42.761952" lon="-0.229554">
        <ele>1753.062</ele>
        <time>2020-07-24T11:15:49Z</time>
      </trkpt>
      <trkpt lat="42.762000" lon="-0.229570">
        <ele>1752.531</ele>
        <time>2020-07-24T11:15:55Z</time>
      </trkpt>
      <trkpt lat="42.762053" lon="-0.229560">
        <ele>1750.156</ele>
        <time>2020-07-24T11:16:03Z</time>
      </trkpt>
      <trkpt lat="42.762109" lon="-0.229554">
        <ele>1751.059</ele>
        <time>2020-07-24T11:16:10Z</time>
      </trkpt>
      <trkpt lat="42.762156" lon="-0.229545">
        <ele>1749.614</ele>
        <time>2020-07-24T11:16:14Z</time>
      </trkpt>
      <trkpt lat="42.762210" lon="-0.229546">
        <ele>1747.708</ele>
        <time>2020-07-24T11:16:30Z</time>
      </trkpt>
      <trkpt lat="42.762148" lon="-0.229589">
        <ele>1747.230</ele>
        <time>2020-07-24T11:16:43Z</time>
      </trkpt>
      <trkpt lat="42.762118" lon="-0.229622">
        <ele>1744.468</ele>
        <time>2020-07-24T11:16:48Z</time>
      </trkpt>
      <trkpt lat="42.762115" lon="-0.229684">
        <ele>1745.662</ele>
        <time>2020-07-24T11:16:54Z</time>
      </trkpt>
      <trkpt lat="42.762163" lon="-0.229729">
        <ele>1745.395</ele>
        <time>2020-07-24T11:17:00Z</time>
      </trkpt>
      <trkpt lat="42.762213" lon="-0.229746">
        <ele>1742.699</ele>
        <time>2020-07-24T11:17:04Z</time>
      </trkpt>
      <trkpt lat="42.762256" lon="-0.229769">
        <ele>1741.632</ele>
        <time>2020-07-24T11:17:10Z</time>
      </trkpt>
      <trkpt lat="42.762297" lon="-0.229816">
        <ele>1742.932</ele>
        <time>2020-07-24T11:17:16Z</time>
      </trkpt>
      <trkpt lat="42.762337" lon="-0.229856">
        <ele>1740.481</ele>
        <time>2020-07-24T11:17:21Z</time>
      </trkpt>
      <trkpt lat="42.762290" lon="-0.229886">
        <ele>1738.827</ele>
        <time>2020-07-24T11:17:29Z</time>
      </trkpt>
      <trkpt lat="42.762243" lon="-0.229898">
        <ele>1736.768</ele>
        <time>2020-07-24T11:17:33Z</time>
      </trkpt>
      <trkpt lat="42.762200" lon="-0.229926">
        <ele>1735.214</ele>
        <time>2020-07-24T11:17:38Z</time>
      </trkpt>
      <trkpt lat="42.762158" lon="-0.229972">
        <ele>1734.408</ele>
        <time>2020-07-24T11:17:44Z</time>
      </trkpt>
      <trkpt lat="42.762113" lon="-0.229986">
        <ele>1733.897</ele>
        <time>2020-07-24T11:17:48Z</time>
      </trkpt>
      <trkpt lat="42.762070" lon="-0.230026">
        <ele>1732.695</ele>
        <time>2020-07-24T11:17:54Z</time>
      </trkpt>
      <trkpt lat="42.762025" lon="-0.230082">
        <ele>1730.339</ele>
        <time>2020-07-24T11:17:59Z</time>
      </trkpt>
      <trkpt lat="42.761984" lon="-0.230119">
        <ele>1732.372</ele>
        <time>2020-07-24T11:18:05Z</time>
      </trkpt>
      <trkpt lat="42.761945" lon="-0.230154">
        <ele>1730.936</ele>
        <time>2020-07-24T11:18:12Z</time>
      </trkpt>
      <trkpt lat="42.761911" lon="-0.230209">
        <ele>1730.129</ele>
        <time>2020-07-24T11:18:18Z</time>
      </trkpt>
      <trkpt lat="42.761879" lon="-0.230270">
        <ele>1728.199</ele>
        <time>2020-07-24T11:18:24Z</time>
      </trkpt>
      <trkpt lat="42.761855" lon="-0.230332">
        <ele>1727.148</ele>
        <time>2020-07-24T11:18:31Z</time>
      </trkpt>
      <trkpt lat="42.761815" lon="-0.230366">
        <ele>1726.157</ele>
        <time>2020-07-24T11:18:35Z</time>
      </trkpt>
      <trkpt lat="42.761775" lon="-0.230402">
        <ele>1726.600</ele>
        <time>2020-07-24T11:18:40Z</time>
      </trkpt>
      <trkpt lat="42.761733" lon="-0.230433">
        <ele>1725.420</ele>
        <time>2020-07-24T11:18:46Z</time>
      </trkpt>
      <trkpt lat="42.761693" lon="-0.230473">
        <ele>1721.408</ele>
        <time>2020-07-24T11:18:53Z</time>
      </trkpt>
      <trkpt lat="42.761671" lon="-0.230548">
        <ele>1724.610</ele>
        <time>2020-07-24T11:18:58Z</time>
      </trkpt>
      <trkpt lat="42.761644" lon="-0.230599">
        <ele>1725.848</ele>
        <time>2020-07-24T11:19:03Z</time>
      </trkpt>
      <trkpt lat="42.761614" lon="-0.230646">
        <ele>1724.362</ele>
        <time>2020-07-24T11:19:08Z</time>
      </trkpt>
      <trkpt lat="42.761581" lon="-0.230691">
        <ele>1724.235</ele>
        <time>2020-07-24T11:19:12Z</time>
      </trkpt>
      <trkpt lat="42.761553" lon="-0.230749">
        <ele>1722.879</ele>
        <time>2020-07-24T11:19:17Z</time>
      </trkpt>
      <trkpt lat="42.761525" lon="-0.230810">
        <ele>1723.272</ele>
        <time>2020-07-24T11:19:21Z</time>
      </trkpt>
      <trkpt lat="42.761487" lon="-0.230868">
        <ele>1723.192</ele>
        <time>2020-07-24T11:19:26Z</time>
      </trkpt>
      <trkpt lat="42.761450" lon="-0.230908">
        <ele>1719.941</ele>
        <time>2020-07-24T11:19:30Z</time>
      </trkpt>
      <trkpt lat="42.761410" lon="-0.230947">
        <ele>1719.612</ele>
        <time>2020-07-24T11:19:33Z</time>
      </trkpt>
      <trkpt lat="42.761364" lon="-0.230994">
        <ele>1719.132</ele>
        <time>2020-07-24T11:19:38Z</time>
      </trkpt>
      <trkpt lat="42.761336" lon="-0.231049">
        <ele>1720.205</ele>
        <time>2020-07-24T11:19:41Z</time>
      </trkpt>
      <trkpt lat="42.761311" lon="-0.231111">
        <ele>1719.608</ele>
        <time>2020-07-24T11:19:49Z</time>
      </trkpt>
      <trkpt lat="42.761292" lon="-0.231180">
        <ele>1719.926</ele>
        <time>2020-07-24T11:19:54Z</time>
      </trkpt>
      <trkpt lat="42.761285" lon="-0.231243">
        <ele>1716.854</ele>
        <time>2020-07-24T11:20:00Z</time>
      </trkpt>
      <trkpt lat="42.761274" lon="-0.231307">
        <ele>1719.328</ele>
        <time>2020-07-24T11:20:05Z</time>
      </trkpt>
      <trkpt lat="42.761251" lon="-0.231369">
        <ele>1718.621</ele>
        <time>2020-07-24T11:20:10Z</time>
      </trkpt>
      <trkpt lat="42.761207" lon="-0.231422">
        <ele>1717.415</ele>
        <time>2020-07-24T11:20:15Z</time>
      </trkpt>
      <trkpt lat="42.761157" lon="-0.231460">
        <ele>1717.468</ele>
        <time>2020-07-24T11:20:18Z</time>
      </trkpt>
      <trkpt lat="42.761111" lon="-0.231457">
        <ele>1716.918</ele>
        <time>2020-07-24T11:20:21Z</time>
      </trkpt>
      <trkpt lat="42.761062" lon="-0.231436">
        <ele>1715.997</ele>
        <time>2020-07-24T11:20:24Z</time>
      </trkpt>
      <trkpt lat="42.761034" lon="-0.231381">
        <ele>1715.038</ele>
        <time>2020-07-24T11:20:29Z</time>
      </trkpt>
      <trkpt lat="42.760979" lon="-0.231355">
        <ele>1713.670</ele>
        <time>2020-07-24T11:20:34Z</time>
      </trkpt>
      <trkpt lat="42.760921" lon="-0.231369">
        <ele>1711.817</ele>
        <time>2020-07-24T11:20:38Z</time>
      </trkpt>
      <trkpt lat="42.760869" lon="-0.231394">
        <ele>1713.508</ele>
        <time>2020-07-24T11:20:42Z</time>
      </trkpt>
      <trkpt lat="42.760821" lon="-0.231397">
        <ele>1710.088</ele>
        <time>2020-07-24T11:20:45Z</time>
      </trkpt>
      <trkpt lat="42.760759" lon="-0.231393">
        <ele>1712.166</ele>
        <time>2020-07-24T11:20:50Z</time>
      </trkpt>
      <trkpt lat="42.760711" lon="-0.231404">
        <ele>1711.830</ele>
        <time>2020-07-24T11:20:53Z</time>
      </trkpt>
      <trkpt lat="42.760673" lon="-0.231446">
        <ele>1710.153</ele>
        <time>2020-07-24T11:20:57Z</time>
      </trkpt>
      <trkpt lat="42.760642" lon="-0.231496">
        <ele>1709.997</ele>
        <time>2020-07-24T11:21:00Z</time>
      </trkpt>
      <trkpt lat="42.760604" lon="-0.231551">
        <ele>1710.390</ele>
        <time>2020-07-24T11:21:04Z</time>
      </trkpt>
      <trkpt lat="42.760566" lon="-0.231594">
        <ele>1709.120</ele>
        <time>2020-07-24T11:21:08Z</time>
      </trkpt>
      <trkpt lat="42.760519" lon="-0.231628">
        <ele>1706.659</ele>
        <time>2020-07-24T11:21:12Z</time>
      </trkpt>
      <trkpt lat="42.760470" lon="-0.231648">
        <ele>1706.459</ele>
        <time>2020-07-24T11:21:17Z</time>
      </trkpt>
      <trkpt lat="42.760417" lon="-0.231665">
        <ele>1707.303</ele>
        <time>2020-07-24T11:21:22Z</time>
      </trkpt>
      <trkpt lat="42.760356" lon="-0.231690">
        <ele>1707.123</ele>
        <time>2020-07-24T11:21:27Z</time>
      </trkpt>
      <trkpt lat="42.760318" lon="-0.231728">
        <ele>1707.108</ele>
        <time>2020-07-24T11:21:30Z</time>
      </trkpt>
      <trkpt lat="42.760281" lon="-0.231773">
        <ele>1704.980</ele>
        <time>2020-07-24T11:21:34Z</time>
      </trkpt>
      <trkpt lat="42.760246" lon="-0.231811">
        <ele>1705.038</ele>
        <time>2020-07-24T11:21:37Z</time>
      </trkpt>
      <trkpt lat="42.760192" lon="-0.231848">
        <ele>1705.432</ele>
        <time>2020-07-24T11:21:41Z</time>
      </trkpt>
      <trkpt lat="42.760143" lon="-0.231859">
        <ele>1704.685</ele>
        <time>2020-07-24T11:21:45Z</time>
      </trkpt>
      <trkpt lat="42.760089" lon="-0.231856">
        <ele>1703.239</ele>
        <time>2020-07-24T11:21:50Z</time>
      </trkpt>
      <trkpt lat="42.760045" lon="-0.231912">
        <ele>1703.142</ele>
        <time>2020-07-24T11:21:54Z</time>
      </trkpt>
      <trkpt lat="42.760065" lon="-0.231992">
        <ele>1701.762</ele>
        <time>2020-07-24T11:21:59Z</time>
      </trkpt>
      <trkpt lat="42.760117" lon="-0.232025">
        <ele>1702.691</ele>
        <time>2020-07-24T11:22:03Z</time>
      </trkpt>
      <trkpt lat="42.760163" lon="-0.232043">
        <ele>1701.344</ele>
        <time>2020-07-24T11:22:06Z</time>
      </trkpt>
      <trkpt lat="42.760221" lon="-0.232055">
        <ele>1699.005</ele>
        <time>2020-07-24T11:22:10Z</time>
      </trkpt>
      <trkpt lat="42.760267" lon="-0.232052">
        <ele>1699.715</ele>
        <time>2020-07-24T11:22:13Z</time>
      </trkpt>
      <trkpt lat="42.760322" lon="-0.232029">
        <ele>1699.508</ele>
        <time>2020-07-24T11:22:19Z</time>
      </trkpt>
      <trkpt lat="42.760365" lon="-0.232000">
        <ele>1698.879</ele>
        <time>2020-07-24T11:22:23Z</time>
      </trkpt>
      <trkpt lat="42.760415" lon="-0.231976">
        <ele>1699.277</ele>
        <time>2020-07-24T11:22:28Z</time>
      </trkpt>
      <trkpt lat="42.760465" lon="-0.231958">
        <ele>1695.681</ele>
        <time>2020-07-24T11:22:33Z</time>
      </trkpt>
      <trkpt lat="42.760524" lon="-0.231953">
        <ele>1696.134</ele>
        <time>2020-07-24T11:22:38Z</time>
      </trkpt>
      <trkpt lat="42.760570" lon="-0.231953">
        <ele>1697.948</ele>
        <time>2020-07-24T11:22:42Z</time>
      </trkpt>
      <trkpt lat="42.760620" lon="-0.231952">
        <ele>1696.191</ele>
        <time>2020-07-24T11:22:45Z</time>
      </trkpt>
      <trkpt lat="42.760669" lon="-0.231951">
        <ele>1696.161</ele>
        <time>2020-07-24T11:22:48Z</time>
      </trkpt>
      <trkpt lat="42.760719" lon="-0.231947">
        <ele>1695.280</ele>
        <time>2020-07-24T11:22:53Z</time>
      </trkpt>
      <trkpt lat="42.760766" lon="-0.231960">
        <ele>1693.059</ele>
        <time>2020-07-24T11:22:57Z</time>
      </trkpt>
      <trkpt lat="42.760727" lon="-0.231999">
        <ele>1693.503</ele>
        <time>2020-07-24T11:23:06Z</time>
      </trkpt>
      <trkpt lat="42.760680" lon="-0.232020">
        <ele>1692.723</ele>
        <time>2020-07-24T11:23:10Z</time>
      </trkpt>
      <trkpt lat="42.760626" lon="-0.232034">
        <ele>1691.408</ele>
        <time>2020-07-24T11:23:15Z</time>
      </trkpt>
      <trkpt lat="42.760582" lon="-0.232062">
        <ele>1691.740</ele>
        <time>2020-07-24T11:23:19Z</time>
      </trkpt>
      <trkpt lat="42.760544" lon="-0.232108">
        <ele>1690.888</ele>
        <time>2020-07-24T11:23:23Z</time>
      </trkpt>
      <trkpt lat="42.760515" lon="-0.232173">
        <ele>1689.472</ele>
        <time>2020-07-24T11:23:29Z</time>
      </trkpt>
      <trkpt lat="42.760483" lon="-0.232221">
        <ele>1689.635</ele>
        <time>2020-07-24T11:23:32Z</time>
      </trkpt>
      <trkpt lat="42.760473" lon="-0.232283">
        <ele>1689.869</ele>
        <time>2020-07-24T11:23:37Z</time>
      </trkpt>
      <trkpt lat="42.760476" lon="-0.232356">
        <ele>1689.072</ele>
        <time>2020-07-24T11:23:41Z</time>
      </trkpt>
      <trkpt lat="42.760456" lon="-0.232414">
        <ele>1687.992</ele>
        <time>2020-07-24T11:23:45Z</time>
      </trkpt>
      <trkpt lat="42.760422" lon="-0.232463">
        <ele>1686.611</ele>
        <time>2020-07-24T11:23:50Z</time>
      </trkpt>
      <trkpt lat="42.760369" lon="-0.232475">
        <ele>1686.851</ele>
        <time>2020-07-24T11:23:55Z</time>
      </trkpt>
      <trkpt lat="42.760309" lon="-0.232483">
        <ele>1685.301</ele>
        <time>2020-07-24T11:24:00Z</time>
      </trkpt>
      <trkpt lat="42.760264" lon="-0.232458">
        <ele>1685.611</ele>
        <time>2020-07-24T11:24:04Z</time>
      </trkpt>
      <trkpt lat="42.760218" lon="-0.232434">
        <ele>1684.008</ele>
        <time>2020-07-24T11:24:08Z</time>
      </trkpt>
      <trkpt lat="42.760166" lon="-0.232422">
        <ele>1683.950</ele>
        <time>2020-07-24T11:24:13Z</time>
      </trkpt>
      <trkpt lat="42.760120" lon="-0.232421">
        <ele>1684.528</ele>
        <time>2020-07-24T11:24:16Z</time>
      </trkpt>
      <trkpt lat="42.760066" lon="-0.232419">
        <ele>1683.652</ele>
        <time>2020-07-24T11:24:21Z</time>
      </trkpt>
      <trkpt lat="42.760017" lon="-0.232452">
        <ele>1683.825</ele>
        <time>2020-07-24T11:24:26Z</time>
      </trkpt>
      <trkpt lat="42.759951" lon="-0.232459">
        <ele>1682.289</ele>
        <time>2020-07-24T11:24:33Z</time>
      </trkpt>
      <trkpt lat="42.759903" lon="-0.232486">
        <ele>1681.012</ele>
        <time>2020-07-24T11:24:37Z</time>
      </trkpt>
      <trkpt lat="42.759866" lon="-0.232526">
        <ele>1680.932</ele>
        <time>2020-07-24T11:24:40Z</time>
      </trkpt>
      <trkpt lat="42.759835" lon="-0.232570">
        <ele>1680.881</ele>
        <time>2020-07-24T11:24:44Z</time>
      </trkpt>
      <trkpt lat="42.759803" lon="-0.232629">
        <ele>1680.927</ele>
        <time>2020-07-24T11:24:50Z</time>
      </trkpt>
      <trkpt lat="42.759774" lon="-0.232684">
        <ele>1680.568</ele>
        <time>2020-07-24T11:24:54Z</time>
      </trkpt>
      <trkpt lat="42.759737" lon="-0.232731">
        <ele>1680.214</ele>
        <time>2020-07-24T11:24:58Z</time>
      </trkpt>
      <trkpt lat="42.759701" lon="-0.232796">
        <ele>1677.608</ele>
        <time>2020-07-24T11:25:03Z</time>
      </trkpt>
      <trkpt lat="42.759695" lon="-0.232865">
        <ele>1679.727</ele>
        <time>2020-07-24T11:25:09Z</time>
      </trkpt>
      <trkpt lat="42.759736" lon="-0.232924">
        <ele>1679.115</ele>
        <time>2020-07-24T11:25:14Z</time>
      </trkpt>
      <trkpt lat="42.759769" lon="-0.232973">
        <ele>1676.919</ele>
        <time>2020-07-24T11:25:19Z</time>
      </trkpt>
      <trkpt lat="42.759800" lon="-0.233022">
        <ele>1673.682</ele>
        <time>2020-07-24T11:25:24Z</time>
      </trkpt>
      <trkpt lat="42.759835" lon="-0.233062">
        <ele>1672.776</ele>
        <time>2020-07-24T11:25:32Z</time>
      </trkpt>
      <trkpt lat="42.759881" lon="-0.233057">
        <ele>1673.199</ele>
        <time>2020-07-24T11:25:38Z</time>
      </trkpt>
      <trkpt lat="42.759923" lon="-0.233103">
        <ele>1673.139</ele>
        <time>2020-07-24T11:25:45Z</time>
      </trkpt>
      <trkpt lat="42.759956" lon="-0.233152">
        <ele>1669.958</ele>
        <time>2020-07-24T11:25:50Z</time>
      </trkpt>
      <trkpt lat="42.760001" lon="-0.233191">
        <ele>1671.232</ele>
        <time>2020-07-24T11:25:56Z</time>
      </trkpt>
      <trkpt lat="42.760043" lon="-0.233233">
        <ele>1668.892</ele>
        <time>2020-07-24T11:26:00Z</time>
      </trkpt>
      <trkpt lat="42.760067" lon="-0.233306">
        <ele>1669.511</ele>
        <time>2020-07-24T11:26:05Z</time>
      </trkpt>
      <trkpt lat="42.760095" lon="-0.233364">
        <ele>1670.608</ele>
        <time>2020-07-24T11:26:09Z</time>
      </trkpt>
      <trkpt lat="42.760118" lon="-0.233423">
        <ele>1668.978</ele>
        <time>2020-07-24T11:26:12Z</time>
      </trkpt>
      <trkpt lat="42.760144" lon="-0.233457">
        <ele>1667.836</ele>
        <time>2020-07-24T11:26:17Z</time>
      </trkpt>
      <trkpt lat="42.760177" lon="-0.233487">
        <ele>1668.860</ele>
        <time>2020-07-24T11:26:29Z</time>
      </trkpt>
      <trkpt lat="42.760219" lon="-0.233512">
        <ele>1667.873</ele>
        <time>2020-07-24T11:26:33Z</time>
      </trkpt>
      <trkpt lat="42.760271" lon="-0.233496">
        <ele>1668.347</ele>
        <time>2020-07-24T11:26:36Z</time>
      </trkpt>
      <trkpt lat="42.760309" lon="-0.233483">
        <ele>1669.010</ele>
        <time>2020-07-24T11:26:39Z</time>
      </trkpt>
      <trkpt lat="42.760357" lon="-0.233491">
        <ele>1667.420</ele>
        <time>2020-07-24T11:26:44Z</time>
      </trkpt>
      <trkpt lat="42.760410" lon="-0.233500">
        <ele>1667.829</ele>
        <time>2020-07-24T11:26:49Z</time>
      </trkpt>
      <trkpt lat="42.760464" lon="-0.233519">
        <ele>1667.436</ele>
        <time>2020-07-24T11:26:54Z</time>
      </trkpt>
      <trkpt lat="42.760511" lon="-0.233569">
        <ele>1667.217</ele>
        <time>2020-07-24T11:27:00Z</time>
      </trkpt>
      <trkpt lat="42.760553" lon="-0.233627">
        <ele>1666.718</ele>
        <time>2020-07-24T11:27:04Z</time>
      </trkpt>
      <trkpt lat="42.760588" lon="-0.233667">
        <ele>1665.908</ele>
        <time>2020-07-24T11:27:07Z</time>
      </trkpt>
      <trkpt lat="42.760637" lon="-0.233699">
        <ele>1666.448</ele>
        <time>2020-07-24T11:27:12Z</time>
      </trkpt>
      <trkpt lat="42.760685" lon="-0.233728">
        <ele>1665.436</ele>
        <time>2020-07-24T11:27:17Z</time>
      </trkpt>
      <trkpt lat="42.760740" lon="-0.233761">
        <ele>1665.220</ele>
        <time>2020-07-24T11:27:21Z</time>
      </trkpt>
      <trkpt lat="42.760790" lon="-0.233808">
        <ele>1666.543</ele>
        <time>2020-07-24T11:27:25Z</time>
      </trkpt>
      <trkpt lat="42.760832" lon="-0.233843">
        <ele>1664.717</ele>
        <time>2020-07-24T11:27:31Z</time>
      </trkpt>
      <trkpt lat="42.760882" lon="-0.233854">
        <ele>1664.670</ele>
        <time>2020-07-24T11:27:34Z</time>
      </trkpt>
      <trkpt lat="42.760940" lon="-0.233846">
        <ele>1665.150</ele>
        <time>2020-07-24T11:27:39Z</time>
      </trkpt>
      <trkpt lat="42.760986" lon="-0.233848">
        <ele>1665.499</ele>
        <time>2020-07-24T11:27:42Z</time>
      </trkpt>
      <trkpt lat="42.761044" lon="-0.233860">
        <ele>1665.028</ele>
        <time>2020-07-24T11:27:47Z</time>
      </trkpt>
      <trkpt lat="42.761089" lon="-0.233901">
        <ele>1665.289</ele>
        <time>2020-07-24T11:27:50Z</time>
      </trkpt>
      <trkpt lat="42.761132" lon="-0.233950">
        <ele>1665.317</ele>
        <time>2020-07-24T11:27:55Z</time>
      </trkpt>
      <trkpt lat="42.761164" lon="-0.233997">
        <ele>1664.408</ele>
        <time>2020-07-24T11:27:58Z</time>
      </trkpt>
      <trkpt lat="42.761188" lon="-0.234038">
        <ele>1666.247</ele>
        <time>2020-07-24T11:28:06Z</time>
      </trkpt>
      <trkpt lat="42.761229" lon="-0.234079">
        <ele>1666.025</ele>
        <time>2020-07-24T11:28:15Z</time>
      </trkpt>
      <trkpt lat="42.761275" lon="-0.234113">
        <ele>1665.149</ele>
        <time>2020-07-24T11:28:17Z</time>
      </trkpt>
      <trkpt lat="42.761310" lon="-0.234122">
        <ele>1666.112</ele>
        <time>2020-07-24T11:28:20Z</time>
      </trkpt>
      <trkpt lat="42.761354" lon="-0.234156">
        <ele>1665.096</ele>
        <time>2020-07-24T11:28:33Z</time>
      </trkpt>
      <trkpt lat="42.761390" lon="-0.234200">
        <ele>1665.299</ele>
        <time>2020-07-24T11:28:37Z</time>
      </trkpt>
      <trkpt lat="42.761430" lon="-0.234233">
        <ele>1665.889</ele>
        <time>2020-07-24T11:28:48Z</time>
      </trkpt>
      <trkpt lat="42.761468" lon="-0.234243">
        <ele>1664.398</ele>
        <time>2020-07-24T11:29:04Z</time>
      </trkpt>
      <trkpt lat="42.761518" lon="-0.234219">
        <ele>1664.969</ele>
        <time>2020-07-24T11:29:06Z</time>
      </trkpt>
      <trkpt lat="42.761575" lon="-0.234191">
        <ele>1665.904</ele>
        <time>2020-07-24T11:29:10Z</time>
      </trkpt>
      <trkpt lat="42.761637" lon="-0.234161">
        <ele>1665.724</ele>
        <time>2020-07-24T11:29:13Z</time>
      </trkpt>
      <trkpt lat="42.761680" lon="-0.234136">
        <ele>1665.508</ele>
        <time>2020-07-24T11:29:16Z</time>
      </trkpt>
      <trkpt lat="42.761725" lon="-0.234103">
        <ele>1665.591</ele>
        <time>2020-07-24T11:29:20Z</time>
      </trkpt>
      <trkpt lat="42.761769" lon="-0.234049">
        <ele>1665.429</ele>
        <time>2020-07-24T11:29:25Z</time>
      </trkpt>
      <trkpt lat="42.761804" lon="-0.234002">
        <ele>1665.823</ele>
        <time>2020-07-24T11:29:29Z</time>
      </trkpt>
      <trkpt lat="42.761851" lon="-0.233966">
        <ele>1664.646</ele>
        <time>2020-07-24T11:29:33Z</time>
      </trkpt>
      <trkpt lat="42.761895" lon="-0.233933">
        <ele>1665.370</ele>
        <time>2020-07-24T11:29:37Z</time>
      </trkpt>
      <trkpt lat="42.761934" lon="-0.233896">
        <ele>1665.013</ele>
        <time>2020-07-24T11:29:40Z</time>
      </trkpt>
      <trkpt lat="42.761979" lon="-0.233845">
        <ele>1667.083</ele>
        <time>2020-07-24T11:29:45Z</time>
      </trkpt>
      <trkpt lat="42.762015" lon="-0.233808">
        <ele>1666.852</ele>
        <time>2020-07-24T11:29:49Z</time>
      </trkpt>
      <trkpt lat="42.762055" lon="-0.233761">
        <ele>1665.491</ele>
        <time>2020-07-24T11:29:53Z</time>
      </trkpt>
      <trkpt lat="42.762103" lon="-0.233721">
        <ele>1666.681</ele>
        <time>2020-07-24T11:29:58Z</time>
      </trkpt>
      <trkpt lat="42.762148" lon="-0.233689">
        <ele>1666.819</ele>
        <time>2020-07-24T11:30:02Z</time>
      </trkpt>
      <trkpt lat="42.762191" lon="-0.233656">
        <ele>1666.708</ele>
        <time>2020-07-24T11:30:08Z</time>
      </trkpt>
      <trkpt lat="42.762232" lon="-0.233617">
        <ele>1666.974</ele>
        <time>2020-07-24T11:30:13Z</time>
      </trkpt>
      <trkpt lat="42.762273" lon="-0.233563">
        <ele>1667.132</ele>
        <time>2020-07-24T11:30:18Z</time>
      </trkpt>
      <trkpt lat="42.762318" lon="-0.233512">
        <ele>1667.916</ele>
        <time>2020-07-24T11:30:22Z</time>
      </trkpt>
      <trkpt lat="42.762369" lon="-0.233485">
        <ele>1668.149</ele>
        <time>2020-07-24T11:30:27Z</time>
      </trkpt>
      <trkpt lat="42.762441" lon="-0.233452">
        <ele>1668.283</ele>
        <time>2020-07-24T11:30:32Z</time>
      </trkpt>
    </trkseg>
  </trk>
</gpx>
